<?xml version="1.0" encoding="UTF-8" standalone="no" ?>
<gpx xmlns="http://www.topografix.com/GPX/1/1" xmlns:xsi="http://www.w3.org/2001/XMLSchema-instance" xsi:schemaLocation="http://www.topografix.com/GPX/1/1 http://www.topografix.com/GPX/1/1/gpx.xsd" version="1.1" creator="VisuGPX - https://www.visugpx.com">
  <metadata>
    <name>MARATO TRAIL VALL DE RIBES</name>
    <desc><![CDATA[MARATO TRAIL VALL DE RIBES-------------]]></desc>
  </metadata>
  <trk>
    <name><![CDATA[Maraton Trail Vall de RIbes on GPSies.com]]></name>
    <trkseg>
      <trkpt lat="42.30496" lon="2.16968">
        <ele>938</ele>
        <time>2010-01-01T00:00:00Z</time>
      </trkpt>
      <trkpt lat="42.30495" lon="2.16965">
        <ele>938</ele>
        <time>2010-01-01T00:00:00Z</time>
      </trkpt>
      <trkpt lat="42.30493" lon="2.16963">
        <ele>938</ele>
        <time>2010-01-01T00:00:02Z</time>
      </trkpt>
      <trkpt lat="42.3049" lon="2.16961">
        <ele>938</ele>
        <time>2010-01-01T00:00:03Z</time>
      </trkpt>
      <trkpt lat="42.30487" lon="2.16959">
        <ele>938</ele>
        <time>2010-01-01T00:00:04Z</time>
      </trkpt>
      <trkpt lat="42.30484" lon="2.16959">
        <ele>938</ele>
        <time>2010-01-01T00:00:05Z</time>
      </trkpt>
      <trkpt lat="42.30481" lon="2.16959">
        <ele>938</ele>
        <time>2010-01-01T00:00:06Z</time>
      </trkpt>
      <trkpt lat="42.3048" lon="2.16961">
        <ele>938</ele>
        <time>2010-01-01T00:00:07Z</time>
      </trkpt>
      <trkpt lat="42.30479" lon="2.16964">
        <ele>939</ele>
        <time>2010-01-01T00:00:08Z</time>
      </trkpt>
      <trkpt lat="42.30479" lon="2.16966">
        <ele>939</ele>
        <time>2010-01-01T00:00:09Z</time>
      </trkpt>
      <trkpt lat="42.3048" lon="2.16968">
        <ele>939</ele>
        <time>2010-01-01T00:00:09Z</time>
      </trkpt>
      <trkpt lat="42.30482" lon="2.16971">
        <ele>940</ele>
        <time>2010-01-01T00:00:11Z</time>
      </trkpt>
      <trkpt lat="42.30484" lon="2.16973">
        <ele>940</ele>
        <time>2010-01-01T00:00:11Z</time>
      </trkpt>
      <trkpt lat="42.30487" lon="2.16975">
        <ele>940</ele>
        <time>2010-01-01T00:00:13Z</time>
      </trkpt>
      <trkpt lat="42.30489" lon="2.16976">
        <ele>940</ele>
        <time>2010-01-01T00:00:14Z</time>
      </trkpt>
      <trkpt lat="42.30491" lon="2.16977">
        <ele>940</ele>
        <time>2010-01-01T00:00:15Z</time>
      </trkpt>
      <trkpt lat="42.30493" lon="2.16978">
        <ele>940</ele>
        <time>2010-01-01T00:00:15Z</time>
      </trkpt>
      <trkpt lat="42.30496" lon="2.16979">
        <ele>940</ele>
        <time>2010-01-01T00:00:17Z</time>
      </trkpt>
      <trkpt lat="42.30498" lon="2.16981">
        <ele>940</ele>
        <time>2010-01-01T00:00:18Z</time>
      </trkpt>
      <trkpt lat="42.305" lon="2.16981">
        <ele>940</ele>
        <time>2010-01-01T00:00:18Z</time>
      </trkpt>
      <trkpt lat="42.30503" lon="2.16982">
        <ele>940</ele>
        <time>2010-01-01T00:00:19Z</time>
      </trkpt>
      <trkpt lat="42.30505" lon="2.16984">
        <ele>940</ele>
        <time>2010-01-01T00:00:20Z</time>
      </trkpt>
      <trkpt lat="42.30507" lon="2.16985">
        <ele>940</ele>
        <time>2010-01-01T00:00:21Z</time>
      </trkpt>
      <trkpt lat="42.3051" lon="2.16986">
        <ele>940</ele>
        <time>2010-01-01T00:00:22Z</time>
      </trkpt>
      <trkpt lat="42.30512" lon="2.16988">
        <ele>940</ele>
        <time>2010-01-01T00:00:24Z</time>
      </trkpt>
      <trkpt lat="42.30515" lon="2.16991">
        <ele>941</ele>
        <time>2010-01-01T00:00:25Z</time>
      </trkpt>
      <trkpt lat="42.30517" lon="2.16994">
        <ele>941</ele>
        <time>2010-01-01T00:00:26Z</time>
      </trkpt>
      <trkpt lat="42.30519" lon="2.16997">
        <ele>942</ele>
        <time>2010-01-01T00:00:27Z</time>
      </trkpt>
      <trkpt lat="42.3052" lon="2.17001">
        <ele>943</ele>
        <time>2010-01-01T00:00:29Z</time>
      </trkpt>
      <trkpt lat="42.30522" lon="2.17005">
        <ele>943</ele>
        <time>2010-01-01T00:00:30Z</time>
      </trkpt>
      <trkpt lat="42.30524" lon="2.17008">
        <ele>944</ele>
        <time>2010-01-01T00:00:31Z</time>
      </trkpt>
      <trkpt lat="42.30525" lon="2.17012">
        <ele>944</ele>
        <time>2010-01-01T00:00:32Z</time>
      </trkpt>
      <trkpt lat="42.30526" lon="2.17015">
        <ele>945</ele>
        <time>2010-01-01T00:00:34Z</time>
      </trkpt>
      <trkpt lat="42.30529" lon="2.17018">
        <ele>945</ele>
        <time>2010-01-01T00:00:35Z</time>
      </trkpt>
      <trkpt lat="42.30531" lon="2.17022">
        <ele>945</ele>
        <time>2010-01-01T00:00:36Z</time>
      </trkpt>
      <trkpt lat="42.30534" lon="2.17028">
        <ele>946</ele>
        <time>2010-01-01T00:00:38Z</time>
      </trkpt>
      <trkpt lat="42.30536" lon="2.17032">
        <ele>946</ele>
        <time>2010-01-01T00:00:40Z</time>
      </trkpt>
      <trkpt lat="42.30538" lon="2.17037">
        <ele>947</ele>
        <time>2010-01-01T00:00:42Z</time>
      </trkpt>
      <trkpt lat="42.30542" lon="2.17042">
        <ele>947</ele>
        <time>2010-01-01T00:00:44Z</time>
      </trkpt>
      <trkpt lat="42.30544" lon="2.17047">
        <ele>947</ele>
        <time>2010-01-01T00:00:46Z</time>
      </trkpt>
      <trkpt lat="42.30546" lon="2.17052">
        <ele>948</ele>
        <time>2010-01-01T00:00:47Z</time>
      </trkpt>
      <trkpt lat="42.30548" lon="2.17057">
        <ele>948</ele>
        <time>2010-01-01T00:00:49Z</time>
      </trkpt>
      <trkpt lat="42.3055" lon="2.17064">
        <ele>949</ele>
        <time>2010-01-01T00:00:51Z</time>
      </trkpt>
      <trkpt lat="42.30552" lon="2.17068">
        <ele>950</ele>
        <time>2010-01-01T00:00:53Z</time>
      </trkpt>
      <trkpt lat="42.30554" lon="2.17073">
        <ele>951</ele>
        <time>2010-01-01T00:00:54Z</time>
      </trkpt>
      <trkpt lat="42.30557" lon="2.17077">
        <ele>951</ele>
        <time>2010-01-01T00:00:56Z</time>
      </trkpt>
      <trkpt lat="42.30561" lon="2.17079">
        <ele>951</ele>
        <time>2010-01-01T00:00:57Z</time>
      </trkpt>
      <trkpt lat="42.30565" lon="2.17081">
        <ele>951</ele>
        <time>2010-01-01T00:00:59Z</time>
      </trkpt>
      <trkpt lat="42.30569" lon="2.17084">
        <ele>952</ele>
        <time>2010-01-01T00:01:01Z</time>
      </trkpt>
      <trkpt lat="42.30574" lon="2.17086">
        <ele>952</ele>
        <time>2010-01-01T00:01:03Z</time>
      </trkpt>
      <trkpt lat="42.30578" lon="2.17088">
        <ele>952</ele>
        <time>2010-01-01T00:01:05Z</time>
      </trkpt>
      <trkpt lat="42.30583" lon="2.17089">
        <ele>952</ele>
        <time>2010-01-01T00:01:07Z</time>
      </trkpt>
      <trkpt lat="42.30588" lon="2.17091">
        <ele>951</ele>
        <time>2010-01-01T00:01:09Z</time>
      </trkpt>
      <trkpt lat="42.30592" lon="2.17093">
        <ele>951</ele>
        <time>2010-01-01T00:01:11Z</time>
      </trkpt>
      <trkpt lat="42.30597" lon="2.17094">
        <ele>951</ele>
        <time>2010-01-01T00:01:13Z</time>
      </trkpt>
      <trkpt lat="42.30603" lon="2.17096">
        <ele>950</ele>
        <time>2010-01-01T00:01:15Z</time>
      </trkpt>
      <trkpt lat="42.30608" lon="2.17098">
        <ele>950</ele>
        <time>2010-01-01T00:01:17Z</time>
      </trkpt>
      <trkpt lat="42.30612" lon="2.17101">
        <ele>950</ele>
        <time>2010-01-01T00:01:19Z</time>
      </trkpt>
      <trkpt lat="42.30617" lon="2.17103">
        <ele>950</ele>
        <time>2010-01-01T00:01:21Z</time>
      </trkpt>
      <trkpt lat="42.30621" lon="2.17106">
        <ele>950</ele>
        <time>2010-01-01T00:01:23Z</time>
      </trkpt>
      <trkpt lat="42.30627" lon="2.17108">
        <ele>950</ele>
        <time>2010-01-01T00:01:25Z</time>
      </trkpt>
      <trkpt lat="42.30632" lon="2.17111">
        <ele>950</ele>
        <time>2010-01-01T00:01:27Z</time>
      </trkpt>
      <trkpt lat="42.30637" lon="2.17113">
        <ele>949</ele>
        <time>2010-01-01T00:01:30Z</time>
      </trkpt>
      <trkpt lat="42.30642" lon="2.17114">
        <ele>949</ele>
        <time>2010-01-01T00:01:32Z</time>
      </trkpt>
      <trkpt lat="42.30648" lon="2.17115">
        <ele>948</ele>
        <time>2010-01-01T00:01:34Z</time>
      </trkpt>
      <trkpt lat="42.30652" lon="2.17117">
        <ele>947</ele>
        <time>2010-01-01T00:01:36Z</time>
      </trkpt>
      <trkpt lat="42.30656" lon="2.17121">
        <ele>947</ele>
        <time>2010-01-01T00:01:38Z</time>
      </trkpt>
      <trkpt lat="42.30661" lon="2.17124">
        <ele>947</ele>
        <time>2010-01-01T00:01:40Z</time>
      </trkpt>
      <trkpt lat="42.30665" lon="2.17126">
        <ele>947</ele>
        <time>2010-01-01T00:01:42Z</time>
      </trkpt>
      <trkpt lat="42.3067" lon="2.17129">
        <ele>946</ele>
        <time>2010-01-01T00:01:44Z</time>
      </trkpt>
      <trkpt lat="42.30676" lon="2.1713">
        <ele>946</ele>
        <time>2010-01-01T00:01:46Z</time>
      </trkpt>
      <trkpt lat="42.30681" lon="2.17133">
        <ele>946</ele>
        <time>2010-01-01T00:01:48Z</time>
      </trkpt>
      <trkpt lat="42.30687" lon="2.17133">
        <ele>945</ele>
        <time>2010-01-01T00:01:51Z</time>
      </trkpt>
      <trkpt lat="42.30693" lon="2.17134">
        <ele>944</ele>
        <time>2010-01-01T00:01:53Z</time>
      </trkpt>
      <trkpt lat="42.30698" lon="2.17135">
        <ele>943</ele>
        <time>2010-01-01T00:01:55Z</time>
      </trkpt>
      <trkpt lat="42.30704" lon="2.17135">
        <ele>942</ele>
        <time>2010-01-01T00:01:58Z</time>
      </trkpt>
      <trkpt lat="42.3071" lon="2.17137">
        <ele>942</ele>
        <time>2010-01-01T00:02:00Z</time>
      </trkpt>
      <trkpt lat="42.30716" lon="2.1714">
        <ele>941</ele>
        <time>2010-01-01T00:02:03Z</time>
      </trkpt>
      <trkpt lat="42.30722" lon="2.17145">
        <ele>942</ele>
        <time>2010-01-01T00:02:06Z</time>
      </trkpt>
      <trkpt lat="42.30726" lon="2.17151">
        <ele>943</ele>
        <time>2010-01-01T00:02:08Z</time>
      </trkpt>
      <trkpt lat="42.30727" lon="2.17156">
        <ele>944</ele>
        <time>2010-01-01T00:02:09Z</time>
      </trkpt>
      <trkpt lat="42.30728" lon="2.1716">
        <ele>946</ele>
        <time>2010-01-01T00:02:11Z</time>
      </trkpt>
      <trkpt lat="42.30728" lon="2.17166">
        <ele>948</ele>
        <time>2010-01-01T00:02:12Z</time>
      </trkpt>
      <trkpt lat="42.30723" lon="2.17181">
        <ele>953</ele>
        <time>2010-01-01T00:02:17Z</time>
      </trkpt>
      <trkpt lat="42.30723" lon="2.17184">
        <ele>954</ele>
        <time>2010-01-01T00:02:18Z</time>
      </trkpt>
      <trkpt lat="42.30724" lon="2.17188">
        <ele>954</ele>
        <time>2010-01-01T00:02:19Z</time>
      </trkpt>
      <trkpt lat="42.30727" lon="2.17189">
        <ele>954</ele>
        <time>2010-01-01T00:02:21Z</time>
      </trkpt>
      <trkpt lat="42.3073" lon="2.17189">
        <ele>954</ele>
        <time>2010-01-01T00:02:22Z</time>
      </trkpt>
      <trkpt lat="42.30734" lon="2.17187">
        <ele>953</ele>
        <time>2010-01-01T00:02:23Z</time>
      </trkpt>
      <trkpt lat="42.30739" lon="2.17184">
        <ele>951</ele>
        <time>2010-01-01T00:02:25Z</time>
      </trkpt>
      <trkpt lat="42.30741" lon="2.17183">
        <ele>950</ele>
        <time>2010-01-01T00:02:27Z</time>
      </trkpt>
      <trkpt lat="42.30745" lon="2.17184">
        <ele>950</ele>
        <time>2010-01-01T00:02:28Z</time>
      </trkpt>
      <trkpt lat="42.30749" lon="2.17186">
        <ele>950</ele>
        <time>2010-01-01T00:02:30Z</time>
      </trkpt>
      <trkpt lat="42.30753" lon="2.17188">
        <ele>950</ele>
        <time>2010-01-01T00:02:32Z</time>
      </trkpt>
      <trkpt lat="42.30757" lon="2.17193">
        <ele>950</ele>
        <time>2010-01-01T00:02:34Z</time>
      </trkpt>
      <trkpt lat="42.30761" lon="2.17197">
        <ele>951</ele>
        <time>2010-01-01T00:02:36Z</time>
      </trkpt>
      <trkpt lat="42.30764" lon="2.172">
        <ele>951</ele>
        <time>2010-01-01T00:02:37Z</time>
      </trkpt>
      <trkpt lat="42.30768" lon="2.17205">
        <ele>952</ele>
        <time>2010-01-01T00:02:39Z</time>
      </trkpt>
      <trkpt lat="42.30771" lon="2.17207">
        <ele>952</ele>
        <time>2010-01-01T00:02:41Z</time>
      </trkpt>
      <trkpt lat="42.30775" lon="2.17213">
        <ele>952</ele>
        <time>2010-01-01T00:02:43Z</time>
      </trkpt>
      <trkpt lat="42.30779" lon="2.17216">
        <ele>952</ele>
        <time>2010-01-01T00:02:45Z</time>
      </trkpt>
      <trkpt lat="42.30784" lon="2.1722">
        <ele>952</ele>
        <time>2010-01-01T00:02:47Z</time>
      </trkpt>
      <trkpt lat="42.30787" lon="2.17222">
        <ele>953</ele>
        <time>2010-01-01T00:02:48Z</time>
      </trkpt>
      <trkpt lat="42.30789" lon="2.17224">
        <ele>953</ele>
        <time>2010-01-01T00:02:50Z</time>
      </trkpt>
      <trkpt lat="42.30792" lon="2.17226">
        <ele>953</ele>
        <time>2010-01-01T00:02:51Z</time>
      </trkpt>
      <trkpt lat="42.30795" lon="2.17229">
        <ele>953</ele>
        <time>2010-01-01T00:02:52Z</time>
      </trkpt>
      <trkpt lat="42.30799" lon="2.17231">
        <ele>953</ele>
        <time>2010-01-01T00:02:54Z</time>
      </trkpt>
      <trkpt lat="42.30804" lon="2.17234">
        <ele>953</ele>
        <time>2010-01-01T00:02:56Z</time>
      </trkpt>
      <trkpt lat="42.30808" lon="2.17237">
        <ele>953</ele>
        <time>2010-01-01T00:02:58Z</time>
      </trkpt>
      <trkpt lat="42.30811" lon="2.17239">
        <ele>953</ele>
        <time>2010-01-01T00:02:59Z</time>
      </trkpt>
      <trkpt lat="42.30814" lon="2.1724">
        <ele>953</ele>
        <time>2010-01-01T00:03:00Z</time>
      </trkpt>
      <trkpt lat="42.30818" lon="2.17244">
        <ele>954</ele>
        <time>2010-01-01T00:03:03Z</time>
      </trkpt>
      <trkpt lat="42.30821" lon="2.17248">
        <ele>954</ele>
        <time>2010-01-01T00:03:04Z</time>
      </trkpt>
      <trkpt lat="42.30824" lon="2.17251">
        <ele>955</ele>
        <time>2010-01-01T00:03:06Z</time>
      </trkpt>
      <trkpt lat="42.30826" lon="2.17254">
        <ele>956</ele>
        <time>2010-01-01T00:03:07Z</time>
      </trkpt>
      <trkpt lat="42.30828" lon="2.17258">
        <ele>957</ele>
        <time>2010-01-01T00:03:08Z</time>
      </trkpt>
      <trkpt lat="42.30829" lon="2.17261">
        <ele>958</ele>
        <time>2010-01-01T00:03:09Z</time>
      </trkpt>
      <trkpt lat="42.30831" lon="2.17265">
        <ele>959</ele>
        <time>2010-01-01T00:03:11Z</time>
      </trkpt>
      <trkpt lat="42.30829" lon="2.17267">
        <ele>960</ele>
        <time>2010-01-01T00:03:11Z</time>
      </trkpt>
      <trkpt lat="42.30828" lon="2.1727">
        <ele>961</ele>
        <time>2010-01-01T00:03:12Z</time>
      </trkpt>
      <trkpt lat="42.30827" lon="2.17272">
        <ele>962</ele>
        <time>2010-01-01T00:03:13Z</time>
      </trkpt>
      <trkpt lat="42.30824" lon="2.17273">
        <ele>963</ele>
        <time>2010-01-01T00:03:14Z</time>
      </trkpt>
      <trkpt lat="42.3082" lon="2.17273">
        <ele>964</ele>
        <time>2010-01-01T00:03:16Z</time>
      </trkpt>
      <trkpt lat="42.30818" lon="2.17272">
        <ele>964</ele>
        <time>2010-01-01T00:03:17Z</time>
      </trkpt>
      <trkpt lat="42.30815" lon="2.17272">
        <ele>965</ele>
        <time>2010-01-01T00:03:18Z</time>
      </trkpt>
      <trkpt lat="42.30812" lon="2.17271">
        <ele>965</ele>
        <time>2010-01-01T00:03:19Z</time>
      </trkpt>
      <trkpt lat="42.3081" lon="2.17271">
        <ele>965</ele>
        <time>2010-01-01T00:03:20Z</time>
      </trkpt>
      <trkpt lat="42.30806" lon="2.1727">
        <ele>965</ele>
        <time>2010-01-01T00:03:21Z</time>
      </trkpt>
      <trkpt lat="42.30804" lon="2.1727">
        <ele>966</ele>
        <time>2010-01-01T00:03:22Z</time>
      </trkpt>
      <trkpt lat="42.30803" lon="2.17272">
        <ele>967</ele>
        <time>2010-01-01T00:03:23Z</time>
      </trkpt>
      <trkpt lat="42.30802" lon="2.17275">
        <ele>968</ele>
        <time>2010-01-01T00:03:24Z</time>
      </trkpt>
      <trkpt lat="42.30803" lon="2.17278">
        <ele>969</ele>
        <time>2010-01-01T00:03:25Z</time>
      </trkpt>
      <trkpt lat="42.30805" lon="2.1728">
        <ele>970</ele>
        <time>2010-01-01T00:03:26Z</time>
      </trkpt>
      <trkpt lat="42.30808" lon="2.17283">
        <ele>971</ele>
        <time>2010-01-01T00:03:27Z</time>
      </trkpt>
      <trkpt lat="42.30809" lon="2.17286">
        <ele>971</ele>
        <time>2010-01-01T00:03:28Z</time>
      </trkpt>
      <trkpt lat="42.30811" lon="2.17288">
        <ele>973</ele>
        <time>2010-01-01T00:03:29Z</time>
      </trkpt>
      <trkpt lat="42.30812" lon="2.17291">
        <ele>973</ele>
        <time>2010-01-01T00:03:30Z</time>
      </trkpt>
      <trkpt lat="42.30814" lon="2.17294">
        <ele>975</ele>
        <time>2010-01-01T00:03:31Z</time>
      </trkpt>
      <trkpt lat="42.30815" lon="2.17297">
        <ele>976</ele>
        <time>2010-01-01T00:03:33Z</time>
      </trkpt>
      <trkpt lat="42.30818" lon="2.17301">
        <ele>977</ele>
        <time>2010-01-01T00:03:34Z</time>
      </trkpt>
      <trkpt lat="42.30819" lon="2.17304">
        <ele>978</ele>
        <time>2010-01-01T00:03:35Z</time>
      </trkpt>
      <trkpt lat="42.30821" lon="2.17306">
        <ele>979</ele>
        <time>2010-01-01T00:03:36Z</time>
      </trkpt>
      <trkpt lat="42.30823" lon="2.17308">
        <ele>980</ele>
        <time>2010-01-01T00:03:37Z</time>
      </trkpt>
      <trkpt lat="42.30824" lon="2.1731">
        <ele>980</ele>
        <time>2010-01-01T00:03:38Z</time>
      </trkpt>
      <trkpt lat="42.30826" lon="2.17313">
        <ele>981</ele>
        <time>2010-01-01T00:03:39Z</time>
      </trkpt>
      <trkpt lat="42.30828" lon="2.17316">
        <ele>982</ele>
        <time>2010-01-01T00:03:40Z</time>
      </trkpt>
      <trkpt lat="42.30829" lon="2.17319">
        <ele>983</ele>
        <time>2010-01-01T00:03:41Z</time>
      </trkpt>
      <trkpt lat="42.30831" lon="2.17322">
        <ele>984</ele>
        <time>2010-01-01T00:03:42Z</time>
      </trkpt>
      <trkpt lat="42.30834" lon="2.17324">
        <ele>984</ele>
        <time>2010-01-01T00:03:44Z</time>
      </trkpt>
      <trkpt lat="42.30835" lon="2.17327">
        <ele>985</ele>
        <time>2010-01-01T00:03:45Z</time>
      </trkpt>
      <trkpt lat="42.30836" lon="2.1733">
        <ele>986</ele>
        <time>2010-01-01T00:03:45Z</time>
      </trkpt>
      <trkpt lat="42.30837" lon="2.17332">
        <ele>987</ele>
        <time>2010-01-01T00:03:46Z</time>
      </trkpt>
      <trkpt lat="42.30838" lon="2.17335">
        <ele>987</ele>
        <time>2010-01-01T00:03:47Z</time>
      </trkpt>
      <trkpt lat="42.30841" lon="2.17337">
        <ele>988</ele>
        <time>2010-01-01T00:03:48Z</time>
      </trkpt>
      <trkpt lat="42.30842" lon="2.17339">
        <ele>988</ele>
        <time>2010-01-01T00:03:49Z</time>
      </trkpt>
      <trkpt lat="42.30844" lon="2.17341">
        <ele>988</ele>
        <time>2010-01-01T00:03:50Z</time>
      </trkpt>
      <trkpt lat="42.30846" lon="2.17342">
        <ele>988</ele>
        <time>2010-01-01T00:03:51Z</time>
      </trkpt>
      <trkpt lat="42.30849" lon="2.17346">
        <ele>989</ele>
        <time>2010-01-01T00:03:53Z</time>
      </trkpt>
      <trkpt lat="42.30851" lon="2.17349">
        <ele>989</ele>
        <time>2010-01-01T00:03:54Z</time>
      </trkpt>
      <trkpt lat="42.30851" lon="2.17353">
        <ele>991</ele>
        <time>2010-01-01T00:03:55Z</time>
      </trkpt>
      <trkpt lat="42.30853" lon="2.17356">
        <ele>992</ele>
        <time>2010-01-01T00:03:56Z</time>
      </trkpt>
      <trkpt lat="42.30854" lon="2.1736">
        <ele>993</ele>
        <time>2010-01-01T00:03:57Z</time>
      </trkpt>
      <trkpt lat="42.30855" lon="2.17363">
        <ele>993</ele>
        <time>2010-01-01T00:03:58Z</time>
      </trkpt>
      <trkpt lat="42.30856" lon="2.17366">
        <ele>994</ele>
        <time>2010-01-01T00:03:59Z</time>
      </trkpt>
      <trkpt lat="42.30858" lon="2.17369">
        <ele>995</ele>
        <time>2010-01-01T00:04:00Z</time>
      </trkpt>
      <trkpt lat="42.30859" lon="2.17372">
        <ele>995</ele>
        <time>2010-01-01T00:04:01Z</time>
      </trkpt>
      <trkpt lat="42.30859" lon="2.17376">
        <ele>997</ele>
        <time>2010-01-01T00:04:02Z</time>
      </trkpt>
      <trkpt lat="42.30859" lon="2.1738">
        <ele>998</ele>
        <time>2010-01-01T00:04:04Z</time>
      </trkpt>
      <trkpt lat="42.30859" lon="2.17384">
        <ele>999</ele>
        <time>2010-01-01T00:04:05Z</time>
      </trkpt>
      <trkpt lat="42.30859" lon="2.17388">
        <ele>1000</ele>
        <time>2010-01-01T00:04:06Z</time>
      </trkpt>
      <trkpt lat="42.3086" lon="2.17391">
        <ele>1001</ele>
        <time>2010-01-01T00:04:07Z</time>
      </trkpt>
      <trkpt lat="42.30859" lon="2.17394">
        <ele>1002</ele>
        <time>2010-01-01T00:04:08Z</time>
      </trkpt>
      <trkpt lat="42.30857" lon="2.17397">
        <ele>1003</ele>
        <time>2010-01-01T00:04:09Z</time>
      </trkpt>
      <trkpt lat="42.30857" lon="2.174">
        <ele>1004</ele>
        <time>2010-01-01T00:04:10Z</time>
      </trkpt>
      <trkpt lat="42.30856" lon="2.17403">
        <ele>1004</ele>
        <time>2010-01-01T00:04:11Z</time>
      </trkpt>
      <trkpt lat="42.30855" lon="2.17407">
        <ele>1005</ele>
        <time>2010-01-01T00:04:12Z</time>
      </trkpt>
      <trkpt lat="42.30856" lon="2.17411">
        <ele>1006</ele>
        <time>2010-01-01T00:04:13Z</time>
      </trkpt>
      <trkpt lat="42.30856" lon="2.17417">
        <ele>1007</ele>
        <time>2010-01-01T00:04:15Z</time>
      </trkpt>
      <trkpt lat="42.30858" lon="2.17419">
        <ele>1008</ele>
        <time>2010-01-01T00:04:16Z</time>
      </trkpt>
      <trkpt lat="42.30859" lon="2.17421">
        <ele>1008</ele>
        <time>2010-01-01T00:04:17Z</time>
      </trkpt>
      <trkpt lat="42.30861" lon="2.17424">
        <ele>1008</ele>
        <time>2010-01-01T00:04:18Z</time>
      </trkpt>
      <trkpt lat="42.30864" lon="2.17426">
        <ele>1008</ele>
        <time>2010-01-01T00:04:19Z</time>
      </trkpt>
      <trkpt lat="42.30866" lon="2.17429">
        <ele>1009</ele>
        <time>2010-01-01T00:04:20Z</time>
      </trkpt>
      <trkpt lat="42.30867" lon="2.17432">
        <ele>1009</ele>
        <time>2010-01-01T00:04:21Z</time>
      </trkpt>
      <trkpt lat="42.30868" lon="2.17435">
        <ele>1010</ele>
        <time>2010-01-01T00:04:22Z</time>
      </trkpt>
      <trkpt lat="42.30867" lon="2.17437">
        <ele>1011</ele>
        <time>2010-01-01T00:04:23Z</time>
      </trkpt>
      <trkpt lat="42.30866" lon="2.1744">
        <ele>1011</ele>
        <time>2010-01-01T00:04:24Z</time>
      </trkpt>
      <trkpt lat="42.30865" lon="2.17442">
        <ele>1012</ele>
        <time>2010-01-01T00:04:25Z</time>
      </trkpt>
      <trkpt lat="42.30864" lon="2.17444">
        <ele>1013</ele>
        <time>2010-01-01T00:04:25Z</time>
      </trkpt>
      <trkpt lat="42.30863" lon="2.17446">
        <ele>1014</ele>
        <time>2010-01-01T00:04:26Z</time>
      </trkpt>
      <trkpt lat="42.30862" lon="2.17449">
        <ele>1015</ele>
        <time>2010-01-01T00:04:27Z</time>
      </trkpt>
      <trkpt lat="42.30863" lon="2.17451">
        <ele>1016</ele>
        <time>2010-01-01T00:04:28Z</time>
      </trkpt>
      <trkpt lat="42.30865" lon="2.17452">
        <ele>1016</ele>
        <time>2010-01-01T00:04:29Z</time>
      </trkpt>
      <trkpt lat="42.30867" lon="2.17453">
        <ele>1015</ele>
        <time>2010-01-01T00:04:30Z</time>
      </trkpt>
      <trkpt lat="42.3087" lon="2.17452">
        <ele>1015</ele>
        <time>2010-01-01T00:04:31Z</time>
      </trkpt>
      <trkpt lat="42.30872" lon="2.17452">
        <ele>1014</ele>
        <time>2010-01-01T00:04:31Z</time>
      </trkpt>
      <trkpt lat="42.30874" lon="2.17452">
        <ele>1014</ele>
        <time>2010-01-01T00:04:32Z</time>
      </trkpt>
      <trkpt lat="42.30877" lon="2.17451">
        <ele>1013</ele>
        <time>2010-01-01T00:04:33Z</time>
      </trkpt>
      <trkpt lat="42.30879" lon="2.17451">
        <ele>1013</ele>
        <time>2010-01-01T00:04:34Z</time>
      </trkpt>
      <trkpt lat="42.30882" lon="2.1745">
        <ele>1012</ele>
        <time>2010-01-01T00:04:36Z</time>
      </trkpt>
      <trkpt lat="42.30885" lon="2.1745">
        <ele>1012</ele>
        <time>2010-01-01T00:04:37Z</time>
      </trkpt>
      <trkpt lat="42.30888" lon="2.1745">
        <ele>1011</ele>
        <time>2010-01-01T00:04:38Z</time>
      </trkpt>
      <trkpt lat="42.30891" lon="2.17451">
        <ele>1011</ele>
        <time>2010-01-01T00:04:39Z</time>
      </trkpt>
      <trkpt lat="42.30893" lon="2.17452">
        <ele>1011</ele>
        <time>2010-01-01T00:04:40Z</time>
      </trkpt>
      <trkpt lat="42.30894" lon="2.17454">
        <ele>1011</ele>
        <time>2010-01-01T00:04:41Z</time>
      </trkpt>
      <trkpt lat="42.30895" lon="2.17457">
        <ele>1012</ele>
        <time>2010-01-01T00:04:42Z</time>
      </trkpt>
      <trkpt lat="42.30896" lon="2.1746">
        <ele>1013</ele>
        <time>2010-01-01T00:04:43Z</time>
      </trkpt>
      <trkpt lat="42.30897" lon="2.17462">
        <ele>1014</ele>
        <time>2010-01-01T00:04:43Z</time>
      </trkpt>
      <trkpt lat="42.30897" lon="2.17465">
        <ele>1015</ele>
        <time>2010-01-01T00:04:44Z</time>
      </trkpt>
      <trkpt lat="42.30897" lon="2.17468">
        <ele>1016</ele>
        <time>2010-01-01T00:04:45Z</time>
      </trkpt>
      <trkpt lat="42.30895" lon="2.17471">
        <ele>1017</ele>
        <time>2010-01-01T00:04:46Z</time>
      </trkpt>
      <trkpt lat="42.30893" lon="2.17472">
        <ele>1018</ele>
        <time>2010-01-01T00:04:47Z</time>
      </trkpt>
      <trkpt lat="42.30891" lon="2.17473">
        <ele>1019</ele>
        <time>2010-01-01T00:04:48Z</time>
      </trkpt>
      <trkpt lat="42.30889" lon="2.17475">
        <ele>1020</ele>
        <time>2010-01-01T00:04:49Z</time>
      </trkpt>
      <trkpt lat="42.30887" lon="2.17477">
        <ele>1022</ele>
        <time>2010-01-01T00:04:50Z</time>
      </trkpt>
      <trkpt lat="42.30886" lon="2.17479">
        <ele>1023</ele>
        <time>2010-01-01T00:04:51Z</time>
      </trkpt>
      <trkpt lat="42.30885" lon="2.17482">
        <ele>1024</ele>
        <time>2010-01-01T00:04:52Z</time>
      </trkpt>
      <trkpt lat="42.30884" lon="2.17485">
        <ele>1025</ele>
        <time>2010-01-01T00:04:53Z</time>
      </trkpt>
      <trkpt lat="42.30883" lon="2.17487">
        <ele>1026</ele>
        <time>2010-01-01T00:04:53Z</time>
      </trkpt>
      <trkpt lat="42.30882" lon="2.17489">
        <ele>1027</ele>
        <time>2010-01-01T00:04:54Z</time>
      </trkpt>
      <trkpt lat="42.3088" lon="2.17492">
        <ele>1028</ele>
        <time>2010-01-01T00:04:55Z</time>
      </trkpt>
      <trkpt lat="42.3088" lon="2.17495">
        <ele>1029</ele>
        <time>2010-01-01T00:04:56Z</time>
      </trkpt>
      <trkpt lat="42.30878" lon="2.17497">
        <ele>1030</ele>
        <time>2010-01-01T00:04:57Z</time>
      </trkpt>
      <trkpt lat="42.30877" lon="2.175">
        <ele>1032</ele>
        <time>2010-01-01T00:04:58Z</time>
      </trkpt>
      <trkpt lat="42.30875" lon="2.17503">
        <ele>1033</ele>
        <time>2010-01-01T00:04:59Z</time>
      </trkpt>
      <trkpt lat="42.30874" lon="2.17507">
        <ele>1035</ele>
        <time>2010-01-01T00:05:00Z</time>
      </trkpt>
      <trkpt lat="42.30873" lon="2.17509">
        <ele>1035</ele>
        <time>2010-01-01T00:05:01Z</time>
      </trkpt>
      <trkpt lat="42.30872" lon="2.17512">
        <ele>1037</ele>
        <time>2010-01-01T00:05:02Z</time>
      </trkpt>
      <trkpt lat="42.30872" lon="2.17514">
        <ele>1037</ele>
        <time>2010-01-01T00:05:03Z</time>
      </trkpt>
      <trkpt lat="42.30874" lon="2.17516">
        <ele>1037</ele>
        <time>2010-01-01T00:05:04Z</time>
      </trkpt>
      <trkpt lat="42.30876" lon="2.17516">
        <ele>1037</ele>
        <time>2010-01-01T00:05:05Z</time>
      </trkpt>
      <trkpt lat="42.30877" lon="2.17518">
        <ele>1038</ele>
        <time>2010-01-01T00:05:05Z</time>
      </trkpt>
      <trkpt lat="42.30878" lon="2.17521">
        <ele>1039</ele>
        <time>2010-01-01T00:05:06Z</time>
      </trkpt>
      <trkpt lat="42.30878" lon="2.17523">
        <ele>1040</ele>
        <time>2010-01-01T00:05:07Z</time>
      </trkpt>
      <trkpt lat="42.30879" lon="2.17526">
        <ele>1040</ele>
        <time>2010-01-01T00:05:08Z</time>
      </trkpt>
      <trkpt lat="42.30878" lon="2.17529">
        <ele>1042</ele>
        <time>2010-01-01T00:05:09Z</time>
      </trkpt>
      <trkpt lat="42.30877" lon="2.17532">
        <ele>1043</ele>
        <time>2010-01-01T00:05:10Z</time>
      </trkpt>
      <trkpt lat="42.30876" lon="2.17535">
        <ele>1044</ele>
        <time>2010-01-01T00:05:11Z</time>
      </trkpt>
      <trkpt lat="42.30875" lon="2.17537">
        <ele>1044</ele>
        <time>2010-01-01T00:05:11Z</time>
      </trkpt>
      <trkpt lat="42.30875" lon="2.1754">
        <ele>1045</ele>
        <time>2010-01-01T00:05:12Z</time>
      </trkpt>
      <trkpt lat="42.30876" lon="2.17542">
        <ele>1046</ele>
        <time>2010-01-01T00:05:13Z</time>
      </trkpt>
      <trkpt lat="42.30875" lon="2.17545">
        <ele>1047</ele>
        <time>2010-01-01T00:05:14Z</time>
      </trkpt>
      <trkpt lat="42.30875" lon="2.17548">
        <ele>1048</ele>
        <time>2010-01-01T00:05:15Z</time>
      </trkpt>
      <trkpt lat="42.30875" lon="2.17551">
        <ele>1049</ele>
        <time>2010-01-01T00:05:16Z</time>
      </trkpt>
      <trkpt lat="42.30876" lon="2.17554">
        <ele>1050</ele>
        <time>2010-01-01T00:05:17Z</time>
      </trkpt>
      <trkpt lat="42.30876" lon="2.17556">
        <ele>1050</ele>
        <time>2010-01-01T00:05:17Z</time>
      </trkpt>
      <trkpt lat="42.30875" lon="2.17559">
        <ele>1051</ele>
        <time>2010-01-01T00:05:18Z</time>
      </trkpt>
      <trkpt lat="42.30876" lon="2.17562">
        <ele>1052</ele>
        <time>2010-01-01T00:05:19Z</time>
      </trkpt>
      <trkpt lat="42.30876" lon="2.17564">
        <ele>1052</ele>
        <time>2010-01-01T00:05:20Z</time>
      </trkpt>
      <trkpt lat="42.30875" lon="2.17567">
        <ele>1053</ele>
        <time>2010-01-01T00:05:21Z</time>
      </trkpt>
      <trkpt lat="42.30874" lon="2.17569">
        <ele>1054</ele>
        <time>2010-01-01T00:05:22Z</time>
      </trkpt>
      <trkpt lat="42.30874" lon="2.17572">
        <ele>1055</ele>
        <time>2010-01-01T00:05:22Z</time>
      </trkpt>
      <trkpt lat="42.30873" lon="2.17573">
        <ele>1056</ele>
        <time>2010-01-01T00:05:23Z</time>
      </trkpt>
      <trkpt lat="42.30871" lon="2.17574">
        <ele>1056</ele>
        <time>2010-01-01T00:05:24Z</time>
      </trkpt>
      <trkpt lat="42.30868" lon="2.17576">
        <ele>1057</ele>
        <time>2010-01-01T00:05:25Z</time>
      </trkpt>
      <trkpt lat="42.30867" lon="2.17578">
        <ele>1058</ele>
        <time>2010-01-01T00:05:26Z</time>
      </trkpt>
      <trkpt lat="42.30867" lon="2.1758">
        <ele>1059</ele>
        <time>2010-01-01T00:05:26Z</time>
      </trkpt>
      <trkpt lat="42.30866" lon="2.17582">
        <ele>1060</ele>
        <time>2010-01-01T00:05:27Z</time>
      </trkpt>
      <trkpt lat="42.30865" lon="2.17585">
        <ele>1061</ele>
        <time>2010-01-01T00:05:28Z</time>
      </trkpt>
      <trkpt lat="42.30863" lon="2.17588">
        <ele>1062</ele>
        <time>2010-01-01T00:05:29Z</time>
      </trkpt>
      <trkpt lat="42.30861" lon="2.1759">
        <ele>1063</ele>
        <time>2010-01-01T00:05:30Z</time>
      </trkpt>
      <trkpt lat="42.3086" lon="2.17591">
        <ele>1063</ele>
        <time>2010-01-01T00:05:31Z</time>
      </trkpt>
      <trkpt lat="42.30859" lon="2.17594">
        <ele>1064</ele>
        <time>2010-01-01T00:05:32Z</time>
      </trkpt>
      <trkpt lat="42.30858" lon="2.17597">
        <ele>1065</ele>
        <time>2010-01-01T00:05:32Z</time>
      </trkpt>
      <trkpt lat="42.30858" lon="2.17599">
        <ele>1065</ele>
        <time>2010-01-01T00:05:33Z</time>
      </trkpt>
      <trkpt lat="42.30857" lon="2.17602">
        <ele>1066</ele>
        <time>2010-01-01T00:05:34Z</time>
      </trkpt>
      <trkpt lat="42.30856" lon="2.17604">
        <ele>1066</ele>
        <time>2010-01-01T00:05:35Z</time>
      </trkpt>
      <trkpt lat="42.30855" lon="2.17606">
        <ele>1067</ele>
        <time>2010-01-01T00:05:36Z</time>
      </trkpt>
      <trkpt lat="42.30853" lon="2.17609">
        <ele>1068</ele>
        <time>2010-01-01T00:05:37Z</time>
      </trkpt>
      <trkpt lat="42.30852" lon="2.17611">
        <ele>1068</ele>
        <time>2010-01-01T00:05:38Z</time>
      </trkpt>
      <trkpt lat="42.3085" lon="2.17613">
        <ele>1069</ele>
        <time>2010-01-01T00:05:39Z</time>
      </trkpt>
      <trkpt lat="42.30849" lon="2.17616">
        <ele>1070</ele>
        <time>2010-01-01T00:05:39Z</time>
      </trkpt>
      <trkpt lat="42.30849" lon="2.17618">
        <ele>1070</ele>
        <time>2010-01-01T00:05:40Z</time>
      </trkpt>
      <trkpt lat="42.30848" lon="2.17621">
        <ele>1071</ele>
        <time>2010-01-01T00:05:41Z</time>
      </trkpt>
      <trkpt lat="42.30847" lon="2.17623">
        <ele>1071</ele>
        <time>2010-01-01T00:05:42Z</time>
      </trkpt>
      <trkpt lat="42.30846" lon="2.17626">
        <ele>1072</ele>
        <time>2010-01-01T00:05:43Z</time>
      </trkpt>
      <trkpt lat="42.30845" lon="2.17629">
        <ele>1073</ele>
        <time>2010-01-01T00:05:44Z</time>
      </trkpt>
      <trkpt lat="42.30843" lon="2.17631">
        <ele>1074</ele>
        <time>2010-01-01T00:05:45Z</time>
      </trkpt>
      <trkpt lat="42.30841" lon="2.17634">
        <ele>1074</ele>
        <time>2010-01-01T00:05:46Z</time>
      </trkpt>
      <trkpt lat="42.3084" lon="2.17636">
        <ele>1075</ele>
        <time>2010-01-01T00:05:46Z</time>
      </trkpt>
      <trkpt lat="42.30839" lon="2.17637">
        <ele>1076</ele>
        <time>2010-01-01T00:05:47Z</time>
      </trkpt>
      <trkpt lat="42.30837" lon="2.17641">
        <ele>1077</ele>
        <time>2010-01-01T00:05:48Z</time>
      </trkpt>
      <trkpt lat="42.30836" lon="2.17643">
        <ele>1078</ele>
        <time>2010-01-01T00:05:49Z</time>
      </trkpt>
      <trkpt lat="42.30834" lon="2.17646">
        <ele>1078</ele>
        <time>2010-01-01T00:05:50Z</time>
      </trkpt>
      <trkpt lat="42.30833" lon="2.17648">
        <ele>1079</ele>
        <time>2010-01-01T00:05:51Z</time>
      </trkpt>
      <trkpt lat="42.30832" lon="2.17651">
        <ele>1080</ele>
        <time>2010-01-01T00:05:52Z</time>
      </trkpt>
      <trkpt lat="42.3083" lon="2.17654">
        <ele>1081</ele>
        <time>2010-01-01T00:05:53Z</time>
      </trkpt>
      <trkpt lat="42.30829" lon="2.17657">
        <ele>1082</ele>
        <time>2010-01-01T00:05:54Z</time>
      </trkpt>
      <trkpt lat="42.30828" lon="2.17659">
        <ele>1083</ele>
        <time>2010-01-01T00:05:55Z</time>
      </trkpt>
      <trkpt lat="42.30827" lon="2.17663">
        <ele>1084</ele>
        <time>2010-01-01T00:05:56Z</time>
      </trkpt>
      <trkpt lat="42.30824" lon="2.17671">
        <ele>1086</ele>
        <time>2010-01-01T00:05:59Z</time>
      </trkpt>
      <trkpt lat="42.30821" lon="2.17674">
        <ele>1088</ele>
        <time>2010-01-01T00:06:01Z</time>
      </trkpt>
      <trkpt lat="42.30818" lon="2.17678">
        <ele>1090</ele>
        <time>2010-01-01T00:06:02Z</time>
      </trkpt>
      <trkpt lat="42.30817" lon="2.1768">
        <ele>1091</ele>
        <time>2010-01-01T00:06:03Z</time>
      </trkpt>
      <trkpt lat="42.30815" lon="2.17681">
        <ele>1092</ele>
        <time>2010-01-01T00:06:04Z</time>
      </trkpt>
      <trkpt lat="42.30813" lon="2.17682">
        <ele>1093</ele>
        <time>2010-01-01T00:06:05Z</time>
      </trkpt>
      <trkpt lat="42.30811" lon="2.17683">
        <ele>1094</ele>
        <time>2010-01-01T00:06:05Z</time>
      </trkpt>
      <trkpt lat="42.30809" lon="2.17683">
        <ele>1095</ele>
        <time>2010-01-01T00:06:06Z</time>
      </trkpt>
      <trkpt lat="42.30807" lon="2.17684">
        <ele>1096</ele>
        <time>2010-01-01T00:06:07Z</time>
      </trkpt>
      <trkpt lat="42.30804" lon="2.17684">
        <ele>1097</ele>
        <time>2010-01-01T00:06:08Z</time>
      </trkpt>
      <trkpt lat="42.30802" lon="2.17684">
        <ele>1097</ele>
        <time>2010-01-01T00:06:09Z</time>
      </trkpt>
      <trkpt lat="42.30799" lon="2.17685">
        <ele>1098</ele>
        <time>2010-01-01T00:06:10Z</time>
      </trkpt>
      <trkpt lat="42.30796" lon="2.17685">
        <ele>1098</ele>
        <time>2010-01-01T00:06:11Z</time>
      </trkpt>
      <trkpt lat="42.30794" lon="2.17685">
        <ele>1099</ele>
        <time>2010-01-01T00:06:12Z</time>
      </trkpt>
      <trkpt lat="42.30792" lon="2.17684">
        <ele>1099</ele>
        <time>2010-01-01T00:06:13Z</time>
      </trkpt>
      <trkpt lat="42.3079" lon="2.17684">
        <ele>1099</ele>
        <time>2010-01-01T00:06:14Z</time>
      </trkpt>
      <trkpt lat="42.30789" lon="2.17684">
        <ele>1100</ele>
        <time>2010-01-01T00:06:14Z</time>
      </trkpt>
      <trkpt lat="42.30786" lon="2.17685">
        <ele>1100</ele>
        <time>2010-01-01T00:06:15Z</time>
      </trkpt>
      <trkpt lat="42.30784" lon="2.17685">
        <ele>1101</ele>
        <time>2010-01-01T00:06:16Z</time>
      </trkpt>
      <trkpt lat="42.30782" lon="2.17687">
        <ele>1102</ele>
        <time>2010-01-01T00:06:17Z</time>
      </trkpt>
      <trkpt lat="42.3078" lon="2.17687">
        <ele>1102</ele>
        <time>2010-01-01T00:06:18Z</time>
      </trkpt>
      <trkpt lat="42.30778" lon="2.17688">
        <ele>1103</ele>
        <time>2010-01-01T00:06:19Z</time>
      </trkpt>
      <trkpt lat="42.30776" lon="2.17688">
        <ele>1103</ele>
        <time>2010-01-01T00:06:20Z</time>
      </trkpt>
      <trkpt lat="42.30774" lon="2.17689">
        <ele>1104</ele>
        <time>2010-01-01T00:06:20Z</time>
      </trkpt>
      <trkpt lat="42.30772" lon="2.1769">
        <ele>1104</ele>
        <time>2010-01-01T00:06:21Z</time>
      </trkpt>
      <trkpt lat="42.3077" lon="2.17692">
        <ele>1105</ele>
        <time>2010-01-01T00:06:22Z</time>
      </trkpt>
      <trkpt lat="42.30768" lon="2.17692">
        <ele>1105</ele>
        <time>2010-01-01T00:06:23Z</time>
      </trkpt>
      <trkpt lat="42.30767" lon="2.17694">
        <ele>1106</ele>
        <time>2010-01-01T00:06:24Z</time>
      </trkpt>
      <trkpt lat="42.30766" lon="2.17696">
        <ele>1106</ele>
        <time>2010-01-01T00:06:25Z</time>
      </trkpt>
      <trkpt lat="42.30765" lon="2.17699">
        <ele>1107</ele>
        <time>2010-01-01T00:06:25Z</time>
      </trkpt>
      <trkpt lat="42.30764" lon="2.17701">
        <ele>1107</ele>
        <time>2010-01-01T00:06:26Z</time>
      </trkpt>
      <trkpt lat="42.30762" lon="2.17704">
        <ele>1108</ele>
        <time>2010-01-01T00:06:27Z</time>
      </trkpt>
      <trkpt lat="42.30761" lon="2.17706">
        <ele>1109</ele>
        <time>2010-01-01T00:06:28Z</time>
      </trkpt>
      <trkpt lat="42.30761" lon="2.17709">
        <ele>1110</ele>
        <time>2010-01-01T00:06:29Z</time>
      </trkpt>
      <trkpt lat="42.3076" lon="2.17712">
        <ele>1110</ele>
        <time>2010-01-01T00:06:30Z</time>
      </trkpt>
      <trkpt lat="42.30761" lon="2.17715">
        <ele>1111</ele>
        <time>2010-01-01T00:06:31Z</time>
      </trkpt>
      <trkpt lat="42.30762" lon="2.17718">
        <ele>1112</ele>
        <time>2010-01-01T00:06:32Z</time>
      </trkpt>
      <trkpt lat="42.30762" lon="2.1772">
        <ele>1112</ele>
        <time>2010-01-01T00:06:33Z</time>
      </trkpt>
      <trkpt lat="42.30762" lon="2.17724">
        <ele>1113</ele>
        <time>2010-01-01T00:06:34Z</time>
      </trkpt>
      <trkpt lat="42.3076" lon="2.17726">
        <ele>1114</ele>
        <time>2010-01-01T00:06:35Z</time>
      </trkpt>
      <trkpt lat="42.30759" lon="2.17729">
        <ele>1114</ele>
        <time>2010-01-01T00:06:35Z</time>
      </trkpt>
      <trkpt lat="42.30758" lon="2.17732">
        <ele>1115</ele>
        <time>2010-01-01T00:06:36Z</time>
      </trkpt>
      <trkpt lat="42.30756" lon="2.17733">
        <ele>1116</ele>
        <time>2010-01-01T00:06:37Z</time>
      </trkpt>
      <trkpt lat="42.30754" lon="2.17735">
        <ele>1117</ele>
        <time>2010-01-01T00:06:38Z</time>
      </trkpt>
      <trkpt lat="42.30752" lon="2.17737">
        <ele>1117</ele>
        <time>2010-01-01T00:06:39Z</time>
      </trkpt>
      <trkpt lat="42.3075" lon="2.17739">
        <ele>1118</ele>
        <time>2010-01-01T00:06:40Z</time>
      </trkpt>
      <trkpt lat="42.30747" lon="2.17742">
        <ele>1119</ele>
        <time>2010-01-01T00:06:42Z</time>
      </trkpt>
      <trkpt lat="42.30746" lon="2.17744">
        <ele>1119</ele>
        <time>2010-01-01T00:06:43Z</time>
      </trkpt>
      <trkpt lat="42.30744" lon="2.17745">
        <ele>1120</ele>
        <time>2010-01-01T00:06:43Z</time>
      </trkpt>
      <trkpt lat="42.30742" lon="2.17747">
        <ele>1120</ele>
        <time>2010-01-01T00:06:45Z</time>
      </trkpt>
      <trkpt lat="42.3074" lon="2.17749">
        <ele>1121</ele>
        <time>2010-01-01T00:06:45Z</time>
      </trkpt>
      <trkpt lat="42.30739" lon="2.17751">
        <ele>1121</ele>
        <time>2010-01-01T00:06:46Z</time>
      </trkpt>
      <trkpt lat="42.30737" lon="2.17754">
        <ele>1121</ele>
        <time>2010-01-01T00:06:47Z</time>
      </trkpt>
      <trkpt lat="42.30736" lon="2.17757">
        <ele>1122</ele>
        <time>2010-01-01T00:06:48Z</time>
      </trkpt>
      <trkpt lat="42.30733" lon="2.1776">
        <ele>1123</ele>
        <time>2010-01-01T00:06:50Z</time>
      </trkpt>
      <trkpt lat="42.30732" lon="2.17763">
        <ele>1123</ele>
        <time>2010-01-01T00:06:51Z</time>
      </trkpt>
      <trkpt lat="42.3073" lon="2.17765">
        <ele>1124</ele>
        <time>2010-01-01T00:06:51Z</time>
      </trkpt>
      <trkpt lat="42.30729" lon="2.17766">
        <ele>1124</ele>
        <time>2010-01-01T00:06:52Z</time>
      </trkpt>
      <trkpt lat="42.30727" lon="2.17768">
        <ele>1125</ele>
        <time>2010-01-01T00:06:53Z</time>
      </trkpt>
      <trkpt lat="42.30724" lon="2.17769">
        <ele>1125</ele>
        <time>2010-01-01T00:06:54Z</time>
      </trkpt>
      <trkpt lat="42.30722" lon="2.1777">
        <ele>1126</ele>
        <time>2010-01-01T00:06:55Z</time>
      </trkpt>
      <trkpt lat="42.3072" lon="2.17771">
        <ele>1126</ele>
        <time>2010-01-01T00:06:56Z</time>
      </trkpt>
      <trkpt lat="42.30718" lon="2.17772">
        <ele>1127</ele>
        <time>2010-01-01T00:06:57Z</time>
      </trkpt>
      <trkpt lat="42.30716" lon="2.17774">
        <ele>1127</ele>
        <time>2010-01-01T00:06:58Z</time>
      </trkpt>
      <trkpt lat="42.30713" lon="2.17775">
        <ele>1128</ele>
        <time>2010-01-01T00:06:59Z</time>
      </trkpt>
      <trkpt lat="42.30712" lon="2.17777">
        <ele>1128</ele>
        <time>2010-01-01T00:07:00Z</time>
      </trkpt>
      <trkpt lat="42.3071" lon="2.1778">
        <ele>1129</ele>
        <time>2010-01-01T00:07:01Z</time>
      </trkpt>
      <trkpt lat="42.30708" lon="2.17782">
        <ele>1129</ele>
        <time>2010-01-01T00:07:02Z</time>
      </trkpt>
      <trkpt lat="42.30707" lon="2.17784">
        <ele>1129</ele>
        <time>2010-01-01T00:07:03Z</time>
      </trkpt>
      <trkpt lat="42.30705" lon="2.17785">
        <ele>1130</ele>
        <time>2010-01-01T00:07:04Z</time>
      </trkpt>
      <trkpt lat="42.30703" lon="2.17787">
        <ele>1130</ele>
        <time>2010-01-01T00:07:05Z</time>
      </trkpt>
      <trkpt lat="42.307" lon="2.17788">
        <ele>1131</ele>
        <time>2010-01-01T00:07:06Z</time>
      </trkpt>
      <trkpt lat="42.30698" lon="2.1779">
        <ele>1131</ele>
        <time>2010-01-01T00:07:07Z</time>
      </trkpt>
      <trkpt lat="42.30696" lon="2.17791">
        <ele>1132</ele>
        <time>2010-01-01T00:07:08Z</time>
      </trkpt>
      <trkpt lat="42.30694" lon="2.17793">
        <ele>1132</ele>
        <time>2010-01-01T00:07:08Z</time>
      </trkpt>
      <trkpt lat="42.30693" lon="2.17795">
        <ele>1133</ele>
        <time>2010-01-01T00:07:09Z</time>
      </trkpt>
      <trkpt lat="42.30691" lon="2.17797">
        <ele>1133</ele>
        <time>2010-01-01T00:07:10Z</time>
      </trkpt>
      <trkpt lat="42.3069" lon="2.17799">
        <ele>1133</ele>
        <time>2010-01-01T00:07:11Z</time>
      </trkpt>
      <trkpt lat="42.30688" lon="2.17802">
        <ele>1134</ele>
        <time>2010-01-01T00:07:12Z</time>
      </trkpt>
      <trkpt lat="42.30687" lon="2.17804">
        <ele>1134</ele>
        <time>2010-01-01T00:07:13Z</time>
      </trkpt>
      <trkpt lat="42.30686" lon="2.17806">
        <ele>1135</ele>
        <time>2010-01-01T00:07:14Z</time>
      </trkpt>
      <trkpt lat="42.30685" lon="2.17808">
        <ele>1135</ele>
        <time>2010-01-01T00:07:14Z</time>
      </trkpt>
      <trkpt lat="42.30681" lon="2.17811">
        <ele>1135</ele>
        <time>2010-01-01T00:07:16Z</time>
      </trkpt>
      <trkpt lat="42.3068" lon="2.17813">
        <ele>1135</ele>
        <time>2010-01-01T00:07:17Z</time>
      </trkpt>
      <trkpt lat="42.30678" lon="2.17815">
        <ele>1135</ele>
        <time>2010-01-01T00:07:18Z</time>
      </trkpt>
      <trkpt lat="42.30677" lon="2.17818">
        <ele>1136</ele>
        <time>2010-01-01T00:07:19Z</time>
      </trkpt>
      <trkpt lat="42.30675" lon="2.17821">
        <ele>1136</ele>
        <time>2010-01-01T00:07:20Z</time>
      </trkpt>
      <trkpt lat="42.30674" lon="2.17824">
        <ele>1136</ele>
        <time>2010-01-01T00:07:21Z</time>
      </trkpt>
      <trkpt lat="42.30672" lon="2.17826">
        <ele>1136</ele>
        <time>2010-01-01T00:07:22Z</time>
      </trkpt>
      <trkpt lat="42.30671" lon="2.17828">
        <ele>1137</ele>
        <time>2010-01-01T00:07:23Z</time>
      </trkpt>
      <trkpt lat="42.3067" lon="2.17831">
        <ele>1137</ele>
        <time>2010-01-01T00:07:24Z</time>
      </trkpt>
      <trkpt lat="42.30668" lon="2.17835">
        <ele>1138</ele>
        <time>2010-01-01T00:07:25Z</time>
      </trkpt>
      <trkpt lat="42.30667" lon="2.17838">
        <ele>1138</ele>
        <time>2010-01-01T00:07:26Z</time>
      </trkpt>
      <trkpt lat="42.30666" lon="2.1784">
        <ele>1138</ele>
        <time>2010-01-01T00:07:27Z</time>
      </trkpt>
      <trkpt lat="42.30662" lon="2.17843">
        <ele>1139</ele>
        <time>2010-01-01T00:07:28Z</time>
      </trkpt>
      <trkpt lat="42.3066" lon="2.17846">
        <ele>1139</ele>
        <time>2010-01-01T00:07:30Z</time>
      </trkpt>
      <trkpt lat="42.30658" lon="2.17849">
        <ele>1139</ele>
        <time>2010-01-01T00:07:31Z</time>
      </trkpt>
      <trkpt lat="42.30656" lon="2.17852">
        <ele>1140</ele>
        <time>2010-01-01T00:07:32Z</time>
      </trkpt>
      <trkpt lat="42.30655" lon="2.17854">
        <ele>1140</ele>
        <time>2010-01-01T00:07:33Z</time>
      </trkpt>
      <trkpt lat="42.30653" lon="2.17856">
        <ele>1140</ele>
        <time>2010-01-01T00:07:34Z</time>
      </trkpt>
      <trkpt lat="42.30651" lon="2.17859">
        <ele>1141</ele>
        <time>2010-01-01T00:07:35Z</time>
      </trkpt>
      <trkpt lat="42.30648" lon="2.17861">
        <ele>1141</ele>
        <time>2010-01-01T00:07:36Z</time>
      </trkpt>
      <trkpt lat="42.30646" lon="2.17864">
        <ele>1141</ele>
        <time>2010-01-01T00:07:37Z</time>
      </trkpt>
      <trkpt lat="42.30645" lon="2.17867">
        <ele>1141</ele>
        <time>2010-01-01T00:07:38Z</time>
      </trkpt>
      <trkpt lat="42.30643" lon="2.17871">
        <ele>1141</ele>
        <time>2010-01-01T00:07:40Z</time>
      </trkpt>
      <trkpt lat="42.30642" lon="2.17874">
        <ele>1142</ele>
        <time>2010-01-01T00:07:41Z</time>
      </trkpt>
      <trkpt lat="42.3064" lon="2.17878">
        <ele>1142</ele>
        <time>2010-01-01T00:07:42Z</time>
      </trkpt>
      <trkpt lat="42.30639" lon="2.17881">
        <ele>1143</ele>
        <time>2010-01-01T00:07:43Z</time>
      </trkpt>
      <trkpt lat="42.30638" lon="2.17884">
        <ele>1143</ele>
        <time>2010-01-01T00:07:44Z</time>
      </trkpt>
      <trkpt lat="42.30636" lon="2.17887">
        <ele>1143</ele>
        <time>2010-01-01T00:07:45Z</time>
      </trkpt>
      <trkpt lat="42.30634" lon="2.17889">
        <ele>1143</ele>
        <time>2010-01-01T00:07:46Z</time>
      </trkpt>
      <trkpt lat="42.30632" lon="2.1789">
        <ele>1143</ele>
        <time>2010-01-01T00:07:47Z</time>
      </trkpt>
      <trkpt lat="42.3063" lon="2.17892">
        <ele>1143</ele>
        <time>2010-01-01T00:07:48Z</time>
      </trkpt>
      <trkpt lat="42.30628" lon="2.17894">
        <ele>1143</ele>
        <time>2010-01-01T00:07:49Z</time>
      </trkpt>
      <trkpt lat="42.30625" lon="2.17895">
        <ele>1143</ele>
        <time>2010-01-01T00:07:50Z</time>
      </trkpt>
      <trkpt lat="42.30622" lon="2.17896">
        <ele>1143</ele>
        <time>2010-01-01T00:07:52Z</time>
      </trkpt>
      <trkpt lat="42.30619" lon="2.17897">
        <ele>1143</ele>
        <time>2010-01-01T00:07:53Z</time>
      </trkpt>
      <trkpt lat="42.30616" lon="2.17898">
        <ele>1143</ele>
        <time>2010-01-01T00:07:54Z</time>
      </trkpt>
      <trkpt lat="42.30614" lon="2.179">
        <ele>1143</ele>
        <time>2010-01-01T00:07:55Z</time>
      </trkpt>
      <trkpt lat="42.30611" lon="2.17901">
        <ele>1143</ele>
        <time>2010-01-01T00:07:56Z</time>
      </trkpt>
      <trkpt lat="42.3061" lon="2.17903">
        <ele>1143</ele>
        <time>2010-01-01T00:07:57Z</time>
      </trkpt>
      <trkpt lat="42.30608" lon="2.17906">
        <ele>1144</ele>
        <time>2010-01-01T00:07:58Z</time>
      </trkpt>
      <trkpt lat="42.30606" lon="2.17908">
        <ele>1144</ele>
        <time>2010-01-01T00:07:59Z</time>
      </trkpt>
      <trkpt lat="42.30604" lon="2.1791">
        <ele>1144</ele>
        <time>2010-01-01T00:08:00Z</time>
      </trkpt>
      <trkpt lat="42.30602" lon="2.17913">
        <ele>1144</ele>
        <time>2010-01-01T00:08:01Z</time>
      </trkpt>
      <trkpt lat="42.30599" lon="2.17916">
        <ele>1144</ele>
        <time>2010-01-01T00:08:03Z</time>
      </trkpt>
      <trkpt lat="42.30597" lon="2.17919">
        <ele>1144</ele>
        <time>2010-01-01T00:08:04Z</time>
      </trkpt>
      <trkpt lat="42.30595" lon="2.17922">
        <ele>1144</ele>
        <time>2010-01-01T00:08:05Z</time>
      </trkpt>
      <trkpt lat="42.30593" lon="2.17925">
        <ele>1144</ele>
        <time>2010-01-01T00:08:06Z</time>
      </trkpt>
      <trkpt lat="42.30592" lon="2.17929">
        <ele>1144</ele>
        <time>2010-01-01T00:08:08Z</time>
      </trkpt>
      <trkpt lat="42.30591" lon="2.17933">
        <ele>1144</ele>
        <time>2010-01-01T00:08:09Z</time>
      </trkpt>
      <trkpt lat="42.3059" lon="2.17937">
        <ele>1145</ele>
        <time>2010-01-01T00:08:10Z</time>
      </trkpt>
      <trkpt lat="42.30588" lon="2.17943">
        <ele>1145</ele>
        <time>2010-01-01T00:08:12Z</time>
      </trkpt>
      <trkpt lat="42.30587" lon="2.17947">
        <ele>1145</ele>
        <time>2010-01-01T00:08:13Z</time>
      </trkpt>
      <trkpt lat="42.30585" lon="2.17951">
        <ele>1145</ele>
        <time>2010-01-01T00:08:15Z</time>
      </trkpt>
      <trkpt lat="42.30583" lon="2.17955">
        <ele>1145</ele>
        <time>2010-01-01T00:08:16Z</time>
      </trkpt>
      <trkpt lat="42.3058" lon="2.17959">
        <ele>1145</ele>
        <time>2010-01-01T00:08:18Z</time>
      </trkpt>
      <trkpt lat="42.30577" lon="2.17961">
        <ele>1145</ele>
        <time>2010-01-01T00:08:19Z</time>
      </trkpt>
      <trkpt lat="42.30573" lon="2.17964">
        <ele>1145</ele>
        <time>2010-01-01T00:08:21Z</time>
      </trkpt>
      <trkpt lat="42.3057" lon="2.17966">
        <ele>1145</ele>
        <time>2010-01-01T00:08:22Z</time>
      </trkpt>
      <trkpt lat="42.30567" lon="2.17968">
        <ele>1145</ele>
        <time>2010-01-01T00:08:24Z</time>
      </trkpt>
      <trkpt lat="42.30563" lon="2.17972">
        <ele>1145</ele>
        <time>2010-01-01T00:08:26Z</time>
      </trkpt>
      <trkpt lat="42.3056" lon="2.17974">
        <ele>1145</ele>
        <time>2010-01-01T00:08:27Z</time>
      </trkpt>
      <trkpt lat="42.30558" lon="2.17974">
        <ele>1145</ele>
        <time>2010-01-01T00:08:28Z</time>
      </trkpt>
      <trkpt lat="42.30556" lon="2.17975">
        <ele>1146</ele>
        <time>2010-01-01T00:08:29Z</time>
      </trkpt>
      <trkpt lat="42.30554" lon="2.17976">
        <ele>1146</ele>
        <time>2010-01-01T00:08:29Z</time>
      </trkpt>
      <trkpt lat="42.30553" lon="2.17978">
        <ele>1146</ele>
        <time>2010-01-01T00:08:30Z</time>
      </trkpt>
      <trkpt lat="42.30551" lon="2.17981">
        <ele>1147</ele>
        <time>2010-01-01T00:08:31Z</time>
      </trkpt>
      <trkpt lat="42.30549" lon="2.17982">
        <ele>1147</ele>
        <time>2010-01-01T00:08:32Z</time>
      </trkpt>
      <trkpt lat="42.30548" lon="2.17983">
        <ele>1148</ele>
        <time>2010-01-01T00:08:33Z</time>
      </trkpt>
      <trkpt lat="42.30545" lon="2.17983">
        <ele>1148</ele>
        <time>2010-01-01T00:08:34Z</time>
      </trkpt>
      <trkpt lat="42.30543" lon="2.17982">
        <ele>1149</ele>
        <time>2010-01-01T00:08:35Z</time>
      </trkpt>
      <trkpt lat="42.30542" lon="2.17981">
        <ele>1149</ele>
        <time>2010-01-01T00:08:36Z</time>
      </trkpt>
      <trkpt lat="42.30539" lon="2.17981">
        <ele>1150</ele>
        <time>2010-01-01T00:08:36Z</time>
      </trkpt>
      <trkpt lat="42.30537" lon="2.17981">
        <ele>1150</ele>
        <time>2010-01-01T00:08:37Z</time>
      </trkpt>
      <trkpt lat="42.30536" lon="2.17979">
        <ele>1150</ele>
        <time>2010-01-01T00:08:38Z</time>
      </trkpt>
      <trkpt lat="42.30533" lon="2.17977">
        <ele>1151</ele>
        <time>2010-01-01T00:08:39Z</time>
      </trkpt>
      <trkpt lat="42.30532" lon="2.17976">
        <ele>1151</ele>
        <time>2010-01-01T00:08:40Z</time>
      </trkpt>
      <trkpt lat="42.3053" lon="2.17975">
        <ele>1152</ele>
        <time>2010-01-01T00:08:41Z</time>
      </trkpt>
      <trkpt lat="42.30528" lon="2.17973">
        <ele>1152</ele>
        <time>2010-01-01T00:08:42Z</time>
      </trkpt>
      <trkpt lat="42.30526" lon="2.17971">
        <ele>1153</ele>
        <time>2010-01-01T00:08:42Z</time>
      </trkpt>
      <trkpt lat="42.30525" lon="2.17969">
        <ele>1154</ele>
        <time>2010-01-01T00:08:43Z</time>
      </trkpt>
      <trkpt lat="42.30523" lon="2.17968">
        <ele>1155</ele>
        <time>2010-01-01T00:08:44Z</time>
      </trkpt>
      <trkpt lat="42.30521" lon="2.17968">
        <ele>1156</ele>
        <time>2010-01-01T00:08:45Z</time>
      </trkpt>
      <trkpt lat="42.30519" lon="2.17966">
        <ele>1157</ele>
        <time>2010-01-01T00:08:46Z</time>
      </trkpt>
      <trkpt lat="42.30517" lon="2.17964">
        <ele>1158</ele>
        <time>2010-01-01T00:08:47Z</time>
      </trkpt>
      <trkpt lat="42.30516" lon="2.17961">
        <ele>1159</ele>
        <time>2010-01-01T00:08:48Z</time>
      </trkpt>
      <trkpt lat="42.30514" lon="2.17959">
        <ele>1160</ele>
        <time>2010-01-01T00:08:49Z</time>
      </trkpt>
      <trkpt lat="42.30512" lon="2.17957">
        <ele>1161</ele>
        <time>2010-01-01T00:08:50Z</time>
      </trkpt>
      <trkpt lat="42.30509" lon="2.17956">
        <ele>1162</ele>
        <time>2010-01-01T00:08:51Z</time>
      </trkpt>
      <trkpt lat="42.30507" lon="2.17955">
        <ele>1163</ele>
        <time>2010-01-01T00:08:52Z</time>
      </trkpt>
      <trkpt lat="42.30505" lon="2.17954">
        <ele>1164</ele>
        <time>2010-01-01T00:08:53Z</time>
      </trkpt>
      <trkpt lat="42.30503" lon="2.17951">
        <ele>1165</ele>
        <time>2010-01-01T00:08:54Z</time>
      </trkpt>
      <trkpt lat="42.30501" lon="2.17949">
        <ele>1167</ele>
        <time>2010-01-01T00:08:55Z</time>
      </trkpt>
      <trkpt lat="42.30498" lon="2.17949">
        <ele>1168</ele>
        <time>2010-01-01T00:08:56Z</time>
      </trkpt>
      <trkpt lat="42.30496" lon="2.17949">
        <ele>1169</ele>
        <time>2010-01-01T00:08:57Z</time>
      </trkpt>
      <trkpt lat="42.30494" lon="2.17948">
        <ele>1170</ele>
        <time>2010-01-01T00:08:58Z</time>
      </trkpt>
      <trkpt lat="42.30492" lon="2.17947">
        <ele>1171</ele>
        <time>2010-01-01T00:08:59Z</time>
      </trkpt>
      <trkpt lat="42.3049" lon="2.17946">
        <ele>1172</ele>
        <time>2010-01-01T00:08:59Z</time>
      </trkpt>
      <trkpt lat="42.30488" lon="2.17945">
        <ele>1173</ele>
        <time>2010-01-01T00:09:00Z</time>
      </trkpt>
      <trkpt lat="42.30486" lon="2.17944">
        <ele>1174</ele>
        <time>2010-01-01T00:09:01Z</time>
      </trkpt>
      <trkpt lat="42.30484" lon="2.17943">
        <ele>1175</ele>
        <time>2010-01-01T00:09:02Z</time>
      </trkpt>
      <trkpt lat="42.30482" lon="2.17942">
        <ele>1176</ele>
        <time>2010-01-01T00:09:03Z</time>
      </trkpt>
      <trkpt lat="42.3048" lon="2.17943">
        <ele>1177</ele>
        <time>2010-01-01T00:09:04Z</time>
      </trkpt>
      <trkpt lat="42.30478" lon="2.17942">
        <ele>1178</ele>
        <time>2010-01-01T00:09:04Z</time>
      </trkpt>
      <trkpt lat="42.30476" lon="2.17943">
        <ele>1179</ele>
        <time>2010-01-01T00:09:05Z</time>
      </trkpt>
      <trkpt lat="42.30473" lon="2.17945">
        <ele>1180</ele>
        <time>2010-01-01T00:09:06Z</time>
      </trkpt>
      <trkpt lat="42.30471" lon="2.17946">
        <ele>1181</ele>
        <time>2010-01-01T00:09:07Z</time>
      </trkpt>
      <trkpt lat="42.30469" lon="2.17946">
        <ele>1181</ele>
        <time>2010-01-01T00:09:08Z</time>
      </trkpt>
      <trkpt lat="42.30467" lon="2.17947">
        <ele>1181</ele>
        <time>2010-01-01T00:09:09Z</time>
      </trkpt>
      <trkpt lat="42.30465" lon="2.17947">
        <ele>1182</ele>
        <time>2010-01-01T00:09:10Z</time>
      </trkpt>
      <trkpt lat="42.30462" lon="2.17946">
        <ele>1182</ele>
        <time>2010-01-01T00:09:11Z</time>
      </trkpt>
      <trkpt lat="42.3046" lon="2.17947">
        <ele>1182</ele>
        <time>2010-01-01T00:09:12Z</time>
      </trkpt>
      <trkpt lat="42.30458" lon="2.17947">
        <ele>1183</ele>
        <time>2010-01-01T00:09:12Z</time>
      </trkpt>
      <trkpt lat="42.30457" lon="2.17947">
        <ele>1183</ele>
        <time>2010-01-01T00:09:13Z</time>
      </trkpt>
      <trkpt lat="42.30454" lon="2.17946">
        <ele>1184</ele>
        <time>2010-01-01T00:09:14Z</time>
      </trkpt>
      <trkpt lat="42.30451" lon="2.17947">
        <ele>1184</ele>
        <time>2010-01-01T00:09:15Z</time>
      </trkpt>
      <trkpt lat="42.3045" lon="2.17948">
        <ele>1184</ele>
        <time>2010-01-01T00:09:16Z</time>
      </trkpt>
      <trkpt lat="42.30448" lon="2.17949">
        <ele>1185</ele>
        <time>2010-01-01T00:09:17Z</time>
      </trkpt>
      <trkpt lat="42.30446" lon="2.1795">
        <ele>1185</ele>
        <time>2010-01-01T00:09:18Z</time>
      </trkpt>
      <trkpt lat="42.30445" lon="2.17953">
        <ele>1185</ele>
        <time>2010-01-01T00:09:18Z</time>
      </trkpt>
      <trkpt lat="42.30444" lon="2.17955">
        <ele>1185</ele>
        <time>2010-01-01T00:09:19Z</time>
      </trkpt>
      <trkpt lat="42.30442" lon="2.17956">
        <ele>1186</ele>
        <time>2010-01-01T00:09:20Z</time>
      </trkpt>
      <trkpt lat="42.30439" lon="2.17957">
        <ele>1186</ele>
        <time>2010-01-01T00:09:21Z</time>
      </trkpt>
      <trkpt lat="42.30437" lon="2.17959">
        <ele>1187</ele>
        <time>2010-01-01T00:09:22Z</time>
      </trkpt>
      <trkpt lat="42.30435" lon="2.1796">
        <ele>1188</ele>
        <time>2010-01-01T00:09:23Z</time>
      </trkpt>
      <trkpt lat="42.30433" lon="2.17961">
        <ele>1188</ele>
        <time>2010-01-01T00:09:24Z</time>
      </trkpt>
      <trkpt lat="42.3043" lon="2.17963">
        <ele>1189</ele>
        <time>2010-01-01T00:09:25Z</time>
      </trkpt>
      <trkpt lat="42.30428" lon="2.17965">
        <ele>1190</ele>
        <time>2010-01-01T00:09:26Z</time>
      </trkpt>
      <trkpt lat="42.30427" lon="2.17966">
        <ele>1190</ele>
        <time>2010-01-01T00:09:27Z</time>
      </trkpt>
      <trkpt lat="42.30425" lon="2.17967">
        <ele>1191</ele>
        <time>2010-01-01T00:09:28Z</time>
      </trkpt>
      <trkpt lat="42.30424" lon="2.17969">
        <ele>1191</ele>
        <time>2010-01-01T00:09:28Z</time>
      </trkpt>
      <trkpt lat="42.30422" lon="2.17971">
        <ele>1192</ele>
        <time>2010-01-01T00:09:29Z</time>
      </trkpt>
      <trkpt lat="42.3042" lon="2.17972">
        <ele>1192</ele>
        <time>2010-01-01T00:09:30Z</time>
      </trkpt>
      <trkpt lat="42.30418" lon="2.17973">
        <ele>1193</ele>
        <time>2010-01-01T00:09:31Z</time>
      </trkpt>
      <trkpt lat="42.30416" lon="2.17974">
        <ele>1194</ele>
        <time>2010-01-01T00:09:32Z</time>
      </trkpt>
      <trkpt lat="42.30414" lon="2.17975">
        <ele>1195</ele>
        <time>2010-01-01T00:09:33Z</time>
      </trkpt>
      <trkpt lat="42.30411" lon="2.17975">
        <ele>1196</ele>
        <time>2010-01-01T00:09:34Z</time>
      </trkpt>
      <trkpt lat="42.3041" lon="2.17976">
        <ele>1198</ele>
        <time>2010-01-01T00:09:35Z</time>
      </trkpt>
      <trkpt lat="42.30407" lon="2.17977">
        <ele>1199</ele>
        <time>2010-01-01T00:09:35Z</time>
      </trkpt>
      <trkpt lat="42.30406" lon="2.17977">
        <ele>1200</ele>
        <time>2010-01-01T00:09:36Z</time>
      </trkpt>
      <trkpt lat="42.30404" lon="2.17977">
        <ele>1201</ele>
        <time>2010-01-01T00:09:37Z</time>
      </trkpt>
      <trkpt lat="42.30401" lon="2.17977">
        <ele>1202</ele>
        <time>2010-01-01T00:09:38Z</time>
      </trkpt>
      <trkpt lat="42.304" lon="2.17976">
        <ele>1204</ele>
        <time>2010-01-01T00:09:39Z</time>
      </trkpt>
      <trkpt lat="42.30398" lon="2.17976">
        <ele>1205</ele>
        <time>2010-01-01T00:09:39Z</time>
      </trkpt>
      <trkpt lat="42.30395" lon="2.17978">
        <ele>1206</ele>
        <time>2010-01-01T00:09:40Z</time>
      </trkpt>
      <trkpt lat="42.30393" lon="2.1798">
        <ele>1208</ele>
        <time>2010-01-01T00:09:42Z</time>
      </trkpt>
      <trkpt lat="42.30392" lon="2.17982">
        <ele>1209</ele>
        <time>2010-01-01T00:09:42Z</time>
      </trkpt>
      <trkpt lat="42.3039" lon="2.17984">
        <ele>1211</ele>
        <time>2010-01-01T00:09:43Z</time>
      </trkpt>
      <trkpt lat="42.30389" lon="2.17986">
        <ele>1212</ele>
        <time>2010-01-01T00:09:44Z</time>
      </trkpt>
      <trkpt lat="42.30387" lon="2.17988">
        <ele>1213</ele>
        <time>2010-01-01T00:09:45Z</time>
      </trkpt>
      <trkpt lat="42.30386" lon="2.1799">
        <ele>1214</ele>
        <time>2010-01-01T00:09:46Z</time>
      </trkpt>
      <trkpt lat="42.30381" lon="2.17992">
        <ele>1216</ele>
        <time>2010-01-01T00:09:48Z</time>
      </trkpt>
      <trkpt lat="42.30379" lon="2.17993">
        <ele>1218</ele>
        <time>2010-01-01T00:09:49Z</time>
      </trkpt>
      <trkpt lat="42.30377" lon="2.17992">
        <ele>1218</ele>
        <time>2010-01-01T00:09:49Z</time>
      </trkpt>
      <trkpt lat="42.30376" lon="2.17994">
        <ele>1219</ele>
        <time>2010-01-01T00:09:50Z</time>
      </trkpt>
      <trkpt lat="42.30374" lon="2.17995">
        <ele>1220</ele>
        <time>2010-01-01T00:09:51Z</time>
      </trkpt>
      <trkpt lat="42.30372" lon="2.17997">
        <ele>1221</ele>
        <time>2010-01-01T00:09:52Z</time>
      </trkpt>
      <trkpt lat="42.3037" lon="2.17997">
        <ele>1222</ele>
        <time>2010-01-01T00:09:53Z</time>
      </trkpt>
      <trkpt lat="42.30368" lon="2.17997">
        <ele>1223</ele>
        <time>2010-01-01T00:09:54Z</time>
      </trkpt>
      <trkpt lat="42.30366" lon="2.17998">
        <ele>1224</ele>
        <time>2010-01-01T00:09:55Z</time>
      </trkpt>
      <trkpt lat="42.30364" lon="2.18001">
        <ele>1225</ele>
        <time>2010-01-01T00:09:56Z</time>
      </trkpt>
      <trkpt lat="42.30363" lon="2.18002">
        <ele>1226</ele>
        <time>2010-01-01T00:09:56Z</time>
      </trkpt>
      <trkpt lat="42.30361" lon="2.18004">
        <ele>1227</ele>
        <time>2010-01-01T00:09:57Z</time>
      </trkpt>
      <trkpt lat="42.30358" lon="2.18005">
        <ele>1228</ele>
        <time>2010-01-01T00:09:58Z</time>
      </trkpt>
      <trkpt lat="42.30356" lon="2.18005">
        <ele>1229</ele>
        <time>2010-01-01T00:09:59Z</time>
      </trkpt>
      <trkpt lat="42.30354" lon="2.18006">
        <ele>1230</ele>
        <time>2010-01-01T00:10:00Z</time>
      </trkpt>
      <trkpt lat="42.30352" lon="2.18006">
        <ele>1231</ele>
        <time>2010-01-01T00:10:01Z</time>
      </trkpt>
      <trkpt lat="42.3035" lon="2.18007">
        <ele>1232</ele>
        <time>2010-01-01T00:10:02Z</time>
      </trkpt>
      <trkpt lat="42.30348" lon="2.18009">
        <ele>1233</ele>
        <time>2010-01-01T00:10:02Z</time>
      </trkpt>
      <trkpt lat="42.30347" lon="2.18011">
        <ele>1234</ele>
        <time>2010-01-01T00:10:03Z</time>
      </trkpt>
      <trkpt lat="42.30344" lon="2.18012">
        <ele>1235</ele>
        <time>2010-01-01T00:10:04Z</time>
      </trkpt>
      <trkpt lat="42.30343" lon="2.18013">
        <ele>1236</ele>
        <time>2010-01-01T00:10:05Z</time>
      </trkpt>
      <trkpt lat="42.30341" lon="2.18014">
        <ele>1237</ele>
        <time>2010-01-01T00:10:06Z</time>
      </trkpt>
      <trkpt lat="42.30339" lon="2.18016">
        <ele>1238</ele>
        <time>2010-01-01T00:10:07Z</time>
      </trkpt>
      <trkpt lat="42.30337" lon="2.18016">
        <ele>1239</ele>
        <time>2010-01-01T00:10:08Z</time>
      </trkpt>
      <trkpt lat="42.30335" lon="2.18017">
        <ele>1240</ele>
        <time>2010-01-01T00:10:08Z</time>
      </trkpt>
      <trkpt lat="42.30334" lon="2.18018">
        <ele>1241</ele>
        <time>2010-01-01T00:10:09Z</time>
      </trkpt>
      <trkpt lat="42.30332" lon="2.18021">
        <ele>1241</ele>
        <time>2010-01-01T00:10:10Z</time>
      </trkpt>
      <trkpt lat="42.3033" lon="2.18023">
        <ele>1242</ele>
        <time>2010-01-01T00:10:11Z</time>
      </trkpt>
      <trkpt lat="42.30327" lon="2.18024">
        <ele>1243</ele>
        <time>2010-01-01T00:10:13Z</time>
      </trkpt>
      <trkpt lat="42.30324" lon="2.18024">
        <ele>1244</ele>
        <time>2010-01-01T00:10:14Z</time>
      </trkpt>
      <trkpt lat="42.30321" lon="2.18024">
        <ele>1245</ele>
        <time>2010-01-01T00:10:15Z</time>
      </trkpt>
      <trkpt lat="42.30319" lon="2.18026">
        <ele>1246</ele>
        <time>2010-01-01T00:10:16Z</time>
      </trkpt>
      <trkpt lat="42.30319" lon="2.1803">
        <ele>1247</ele>
        <time>2010-01-01T00:10:17Z</time>
      </trkpt>
      <trkpt lat="42.30319" lon="2.18033">
        <ele>1247</ele>
        <time>2010-01-01T00:10:18Z</time>
      </trkpt>
      <trkpt lat="42.30318" lon="2.18036">
        <ele>1247</ele>
        <time>2010-01-01T00:10:19Z</time>
      </trkpt>
      <trkpt lat="42.30318" lon="2.18039">
        <ele>1248</ele>
        <time>2010-01-01T00:10:19Z</time>
      </trkpt>
      <trkpt lat="42.30319" lon="2.18041">
        <ele>1248</ele>
        <time>2010-01-01T00:10:20Z</time>
      </trkpt>
      <trkpt lat="42.30319" lon="2.18045">
        <ele>1249</ele>
        <time>2010-01-01T00:10:21Z</time>
      </trkpt>
      <trkpt lat="42.30319" lon="2.18048">
        <ele>1249</ele>
        <time>2010-01-01T00:10:22Z</time>
      </trkpt>
      <trkpt lat="42.30317" lon="2.18051">
        <ele>1250</ele>
        <time>2010-01-01T00:10:23Z</time>
      </trkpt>
      <trkpt lat="42.30314" lon="2.18052">
        <ele>1251</ele>
        <time>2010-01-01T00:10:24Z</time>
      </trkpt>
      <trkpt lat="42.30311" lon="2.1805">
        <ele>1252</ele>
        <time>2010-01-01T00:10:26Z</time>
      </trkpt>
      <trkpt lat="42.30308" lon="2.18048">
        <ele>1253</ele>
        <time>2010-01-01T00:10:27Z</time>
      </trkpt>
      <trkpt lat="42.30306" lon="2.18045">
        <ele>1253</ele>
        <time>2010-01-01T00:10:28Z</time>
      </trkpt>
      <trkpt lat="42.30304" lon="2.18043">
        <ele>1254</ele>
        <time>2010-01-01T00:10:29Z</time>
      </trkpt>
      <trkpt lat="42.30302" lon="2.18042">
        <ele>1254</ele>
        <time>2010-01-01T00:10:30Z</time>
      </trkpt>
      <trkpt lat="42.303" lon="2.18041">
        <ele>1254</ele>
        <time>2010-01-01T00:10:31Z</time>
      </trkpt>
      <trkpt lat="42.30298" lon="2.18043">
        <ele>1255</ele>
        <time>2010-01-01T00:10:32Z</time>
      </trkpt>
      <trkpt lat="42.30297" lon="2.18044">
        <ele>1256</ele>
        <time>2010-01-01T00:10:32Z</time>
      </trkpt>
      <trkpt lat="42.30295" lon="2.18046">
        <ele>1256</ele>
        <time>2010-01-01T00:10:33Z</time>
      </trkpt>
      <trkpt lat="42.30293" lon="2.18048">
        <ele>1257</ele>
        <time>2010-01-01T00:10:34Z</time>
      </trkpt>
      <trkpt lat="42.30291" lon="2.1805">
        <ele>1258</ele>
        <time>2010-01-01T00:10:35Z</time>
      </trkpt>
      <trkpt lat="42.3029" lon="2.18052">
        <ele>1259</ele>
        <time>2010-01-01T00:10:36Z</time>
      </trkpt>
      <trkpt lat="42.30288" lon="2.18054">
        <ele>1259</ele>
        <time>2010-01-01T00:10:37Z</time>
      </trkpt>
      <trkpt lat="42.30287" lon="2.18057">
        <ele>1260</ele>
        <time>2010-01-01T00:10:38Z</time>
      </trkpt>
      <trkpt lat="42.30286" lon="2.18059">
        <ele>1261</ele>
        <time>2010-01-01T00:10:39Z</time>
      </trkpt>
      <trkpt lat="42.30284" lon="2.18061">
        <ele>1262</ele>
        <time>2010-01-01T00:10:40Z</time>
      </trkpt>
      <trkpt lat="42.30283" lon="2.18064">
        <ele>1263</ele>
        <time>2010-01-01T00:10:41Z</time>
      </trkpt>
      <trkpt lat="42.30282" lon="2.18066">
        <ele>1264</ele>
        <time>2010-01-01T00:10:41Z</time>
      </trkpt>
      <trkpt lat="42.30281" lon="2.18069">
        <ele>1265</ele>
        <time>2010-01-01T00:10:42Z</time>
      </trkpt>
      <trkpt lat="42.3028" lon="2.18071">
        <ele>1265</ele>
        <time>2010-01-01T00:10:43Z</time>
      </trkpt>
      <trkpt lat="42.3028" lon="2.18074">
        <ele>1267</ele>
        <time>2010-01-01T00:10:44Z</time>
      </trkpt>
      <trkpt lat="42.30278" lon="2.18077">
        <ele>1268</ele>
        <time>2010-01-01T00:10:45Z</time>
      </trkpt>
      <trkpt lat="42.30277" lon="2.1808">
        <ele>1269</ele>
        <time>2010-01-01T00:10:46Z</time>
      </trkpt>
      <trkpt lat="42.30275" lon="2.18081">
        <ele>1270</ele>
        <time>2010-01-01T00:10:47Z</time>
      </trkpt>
      <trkpt lat="42.30273" lon="2.18082">
        <ele>1270</ele>
        <time>2010-01-01T00:10:48Z</time>
      </trkpt>
      <trkpt lat="42.30271" lon="2.18083">
        <ele>1271</ele>
        <time>2010-01-01T00:10:48Z</time>
      </trkpt>
      <trkpt lat="42.30269" lon="2.18083">
        <ele>1271</ele>
        <time>2010-01-01T00:10:49Z</time>
      </trkpt>
      <trkpt lat="42.30267" lon="2.18083">
        <ele>1272</ele>
        <time>2010-01-01T00:10:50Z</time>
      </trkpt>
      <trkpt lat="42.30265" lon="2.18083">
        <ele>1272</ele>
        <time>2010-01-01T00:10:51Z</time>
      </trkpt>
      <trkpt lat="42.30261" lon="2.18083">
        <ele>1273</ele>
        <time>2010-01-01T00:10:52Z</time>
      </trkpt>
      <trkpt lat="42.30259" lon="2.18083">
        <ele>1274</ele>
        <time>2010-01-01T00:10:53Z</time>
      </trkpt>
      <trkpt lat="42.30256" lon="2.18083">
        <ele>1274</ele>
        <time>2010-01-01T00:10:55Z</time>
      </trkpt>
      <trkpt lat="42.30253" lon="2.18083">
        <ele>1275</ele>
        <time>2010-01-01T00:10:56Z</time>
      </trkpt>
      <trkpt lat="42.3025" lon="2.18083">
        <ele>1275</ele>
        <time>2010-01-01T00:10:57Z</time>
      </trkpt>
      <trkpt lat="42.30248" lon="2.18084">
        <ele>1276</ele>
        <time>2010-01-01T00:10:58Z</time>
      </trkpt>
      <trkpt lat="42.30247" lon="2.18086">
        <ele>1276</ele>
        <time>2010-01-01T00:10:58Z</time>
      </trkpt>
      <trkpt lat="42.30246" lon="2.18087">
        <ele>1277</ele>
        <time>2010-01-01T00:10:59Z</time>
      </trkpt>
      <trkpt lat="42.30244" lon="2.1809">
        <ele>1278</ele>
        <time>2010-01-01T00:11:00Z</time>
      </trkpt>
      <trkpt lat="42.30243" lon="2.18091">
        <ele>1278</ele>
        <time>2010-01-01T00:11:01Z</time>
      </trkpt>
      <trkpt lat="42.30241" lon="2.18094">
        <ele>1279</ele>
        <time>2010-01-01T00:11:02Z</time>
      </trkpt>
      <trkpt lat="42.3024" lon="2.18097">
        <ele>1280</ele>
        <time>2010-01-01T00:11:03Z</time>
      </trkpt>
      <trkpt lat="42.30239" lon="2.18099">
        <ele>1281</ele>
        <time>2010-01-01T00:11:04Z</time>
      </trkpt>
      <trkpt lat="42.30239" lon="2.18102">
        <ele>1282</ele>
        <time>2010-01-01T00:11:04Z</time>
      </trkpt>
      <trkpt lat="42.30239" lon="2.18105">
        <ele>1283</ele>
        <time>2010-01-01T00:11:05Z</time>
      </trkpt>
      <trkpt lat="42.3024" lon="2.18109">
        <ele>1284</ele>
        <time>2010-01-01T00:11:06Z</time>
      </trkpt>
      <trkpt lat="42.3024" lon="2.18112">
        <ele>1284</ele>
        <time>2010-01-01T00:11:07Z</time>
      </trkpt>
      <trkpt lat="42.3024" lon="2.18114">
        <ele>1285</ele>
        <time>2010-01-01T00:11:08Z</time>
      </trkpt>
      <trkpt lat="42.3024" lon="2.18118">
        <ele>1286</ele>
        <time>2010-01-01T00:11:09Z</time>
      </trkpt>
      <trkpt lat="42.30241" lon="2.1812">
        <ele>1286</ele>
        <time>2010-01-01T00:11:10Z</time>
      </trkpt>
      <trkpt lat="42.3024" lon="2.18124">
        <ele>1287</ele>
        <time>2010-01-01T00:11:11Z</time>
      </trkpt>
      <trkpt lat="42.3024" lon="2.18127">
        <ele>1288</ele>
        <time>2010-01-01T00:11:12Z</time>
      </trkpt>
      <trkpt lat="42.3024" lon="2.1813">
        <ele>1288</ele>
        <time>2010-01-01T00:11:13Z</time>
      </trkpt>
      <trkpt lat="42.30239" lon="2.18134">
        <ele>1289</ele>
        <time>2010-01-01T00:11:14Z</time>
      </trkpt>
      <trkpt lat="42.30239" lon="2.18137">
        <ele>1290</ele>
        <time>2010-01-01T00:11:15Z</time>
      </trkpt>
      <trkpt lat="42.30238" lon="2.1814">
        <ele>1291</ele>
        <time>2010-01-01T00:11:16Z</time>
      </trkpt>
      <trkpt lat="42.30236" lon="2.18151">
        <ele>1293</ele>
        <time>2010-01-01T00:11:19Z</time>
      </trkpt>
      <trkpt lat="42.30235" lon="2.18154">
        <ele>1293</ele>
        <time>2010-01-01T00:11:20Z</time>
      </trkpt>
      <trkpt lat="42.30235" lon="2.18157">
        <ele>1294</ele>
        <time>2010-01-01T00:11:21Z</time>
      </trkpt>
      <trkpt lat="42.30234" lon="2.1816">
        <ele>1295</ele>
        <time>2010-01-01T00:11:22Z</time>
      </trkpt>
      <trkpt lat="42.30233" lon="2.18162">
        <ele>1295</ele>
        <time>2010-01-01T00:11:23Z</time>
      </trkpt>
      <trkpt lat="42.30233" lon="2.18166">
        <ele>1296</ele>
        <time>2010-01-01T00:11:24Z</time>
      </trkpt>
      <trkpt lat="42.30232" lon="2.18169">
        <ele>1296</ele>
        <time>2010-01-01T00:11:25Z</time>
      </trkpt>
      <trkpt lat="42.30232" lon="2.18172">
        <ele>1297</ele>
        <time>2010-01-01T00:11:26Z</time>
      </trkpt>
      <trkpt lat="42.30231" lon="2.18175">
        <ele>1297</ele>
        <time>2010-01-01T00:11:27Z</time>
      </trkpt>
      <trkpt lat="42.30231" lon="2.18178">
        <ele>1298</ele>
        <time>2010-01-01T00:11:27Z</time>
      </trkpt>
      <trkpt lat="42.30231" lon="2.18181">
        <ele>1298</ele>
        <time>2010-01-01T00:11:28Z</time>
      </trkpt>
      <trkpt lat="42.3023" lon="2.18183">
        <ele>1299</ele>
        <time>2010-01-01T00:11:29Z</time>
      </trkpt>
      <trkpt lat="42.3023" lon="2.18185">
        <ele>1299</ele>
        <time>2010-01-01T00:11:30Z</time>
      </trkpt>
      <trkpt lat="42.30228" lon="2.18188">
        <ele>1300</ele>
        <time>2010-01-01T00:11:31Z</time>
      </trkpt>
      <trkpt lat="42.30227" lon="2.18191">
        <ele>1301</ele>
        <time>2010-01-01T00:11:32Z</time>
      </trkpt>
      <trkpt lat="42.30226" lon="2.18194">
        <ele>1302</ele>
        <time>2010-01-01T00:11:33Z</time>
      </trkpt>
      <trkpt lat="42.30225" lon="2.18197">
        <ele>1303</ele>
        <time>2010-01-01T00:11:34Z</time>
      </trkpt>
      <trkpt lat="42.30225" lon="2.182">
        <ele>1303</ele>
        <time>2010-01-01T00:11:35Z</time>
      </trkpt>
      <trkpt lat="42.30225" lon="2.18203">
        <ele>1304</ele>
        <time>2010-01-01T00:11:35Z</time>
      </trkpt>
      <trkpt lat="42.30225" lon="2.18205">
        <ele>1304</ele>
        <time>2010-01-01T00:11:36Z</time>
      </trkpt>
      <trkpt lat="42.30225" lon="2.18208">
        <ele>1304</ele>
        <time>2010-01-01T00:11:37Z</time>
      </trkpt>
      <trkpt lat="42.30224" lon="2.18211">
        <ele>1305</ele>
        <time>2010-01-01T00:11:38Z</time>
      </trkpt>
      <trkpt lat="42.30224" lon="2.18214">
        <ele>1306</ele>
        <time>2010-01-01T00:11:39Z</time>
      </trkpt>
      <trkpt lat="42.30222" lon="2.18216">
        <ele>1307</ele>
        <time>2010-01-01T00:11:40Z</time>
      </trkpt>
      <trkpt lat="42.30221" lon="2.18219">
        <ele>1307</ele>
        <time>2010-01-01T00:11:41Z</time>
      </trkpt>
      <trkpt lat="42.30221" lon="2.18222">
        <ele>1308</ele>
        <time>2010-01-01T00:11:41Z</time>
      </trkpt>
      <trkpt lat="42.30221" lon="2.18224">
        <ele>1308</ele>
        <time>2010-01-01T00:11:42Z</time>
      </trkpt>
      <trkpt lat="42.3022" lon="2.18228">
        <ele>1309</ele>
        <time>2010-01-01T00:11:43Z</time>
      </trkpt>
      <trkpt lat="42.30218" lon="2.18232">
        <ele>1310</ele>
        <time>2010-01-01T00:11:45Z</time>
      </trkpt>
      <trkpt lat="42.30217" lon="2.18236">
        <ele>1311</ele>
        <time>2010-01-01T00:11:46Z</time>
      </trkpt>
      <trkpt lat="42.30217" lon="2.18239">
        <ele>1312</ele>
        <time>2010-01-01T00:11:47Z</time>
      </trkpt>
      <trkpt lat="42.30216" lon="2.18242">
        <ele>1312</ele>
        <time>2010-01-01T00:11:48Z</time>
      </trkpt>
      <trkpt lat="42.30215" lon="2.18245">
        <ele>1313</ele>
        <time>2010-01-01T00:11:49Z</time>
      </trkpt>
      <trkpt lat="42.30214" lon="2.18248">
        <ele>1314</ele>
        <time>2010-01-01T00:11:50Z</time>
      </trkpt>
      <trkpt lat="42.30213" lon="2.1825">
        <ele>1315</ele>
        <time>2010-01-01T00:11:51Z</time>
      </trkpt>
      <trkpt lat="42.30212" lon="2.18255">
        <ele>1315</ele>
        <time>2010-01-01T00:11:52Z</time>
      </trkpt>
      <trkpt lat="42.3021" lon="2.18267">
        <ele>1316</ele>
        <time>2010-01-01T00:11:56Z</time>
      </trkpt>
      <trkpt lat="42.30207" lon="2.18274">
        <ele>1318</ele>
        <time>2010-01-01T00:11:58Z</time>
      </trkpt>
      <trkpt lat="42.30206" lon="2.18277">
        <ele>1319</ele>
        <time>2010-01-01T00:11:59Z</time>
      </trkpt>
      <trkpt lat="42.30204" lon="2.1828">
        <ele>1320</ele>
        <time>2010-01-01T00:12:00Z</time>
      </trkpt>
      <trkpt lat="42.30203" lon="2.18282">
        <ele>1320</ele>
        <time>2010-01-01T00:12:01Z</time>
      </trkpt>
      <trkpt lat="42.30202" lon="2.18284">
        <ele>1321</ele>
        <time>2010-01-01T00:12:02Z</time>
      </trkpt>
      <trkpt lat="42.30201" lon="2.18287">
        <ele>1321</ele>
        <time>2010-01-01T00:12:03Z</time>
      </trkpt>
      <trkpt lat="42.30201" lon="2.1829">
        <ele>1321</ele>
        <time>2010-01-01T00:12:04Z</time>
      </trkpt>
      <trkpt lat="42.302" lon="2.18292">
        <ele>1322</ele>
        <time>2010-01-01T00:12:04Z</time>
      </trkpt>
      <trkpt lat="42.30199" lon="2.18294">
        <ele>1323</ele>
        <time>2010-01-01T00:12:05Z</time>
      </trkpt>
      <trkpt lat="42.30197" lon="2.18297">
        <ele>1323</ele>
        <time>2010-01-01T00:12:06Z</time>
      </trkpt>
      <trkpt lat="42.30197" lon="2.18299">
        <ele>1324</ele>
        <time>2010-01-01T00:12:07Z</time>
      </trkpt>
      <trkpt lat="42.30194" lon="2.18302">
        <ele>1325</ele>
        <time>2010-01-01T00:12:08Z</time>
      </trkpt>
      <trkpt lat="42.30191" lon="2.18306">
        <ele>1326</ele>
        <time>2010-01-01T00:12:10Z</time>
      </trkpt>
      <trkpt lat="42.3019" lon="2.18309">
        <ele>1326</ele>
        <time>2010-01-01T00:12:11Z</time>
      </trkpt>
      <trkpt lat="42.30189" lon="2.18311">
        <ele>1327</ele>
        <time>2010-01-01T00:12:12Z</time>
      </trkpt>
      <trkpt lat="42.30187" lon="2.18314">
        <ele>1327</ele>
        <time>2010-01-01T00:12:13Z</time>
      </trkpt>
      <trkpt lat="42.30187" lon="2.18317">
        <ele>1327</ele>
        <time>2010-01-01T00:12:14Z</time>
      </trkpt>
      <trkpt lat="42.30185" lon="2.18319">
        <ele>1327</ele>
        <time>2010-01-01T00:12:15Z</time>
      </trkpt>
      <trkpt lat="42.30184" lon="2.18322">
        <ele>1328</ele>
        <time>2010-01-01T00:12:16Z</time>
      </trkpt>
      <trkpt lat="42.30183" lon="2.18325">
        <ele>1328</ele>
        <time>2010-01-01T00:12:17Z</time>
      </trkpt>
      <trkpt lat="42.30181" lon="2.18328">
        <ele>1329</ele>
        <time>2010-01-01T00:12:18Z</time>
      </trkpt>
      <trkpt lat="42.3018" lon="2.18331">
        <ele>1329</ele>
        <time>2010-01-01T00:12:19Z</time>
      </trkpt>
      <trkpt lat="42.30179" lon="2.18334">
        <ele>1329</ele>
        <time>2010-01-01T00:12:20Z</time>
      </trkpt>
      <trkpt lat="42.30178" lon="2.18337">
        <ele>1330</ele>
        <time>2010-01-01T00:12:21Z</time>
      </trkpt>
      <trkpt lat="42.30177" lon="2.18341">
        <ele>1330</ele>
        <time>2010-01-01T00:12:22Z</time>
      </trkpt>
      <trkpt lat="42.30177" lon="2.18345">
        <ele>1330</ele>
        <time>2010-01-01T00:12:23Z</time>
      </trkpt>
      <trkpt lat="42.30176" lon="2.18347">
        <ele>1331</ele>
        <time>2010-01-01T00:12:24Z</time>
      </trkpt>
      <trkpt lat="42.30176" lon="2.18349">
        <ele>1331</ele>
        <time>2010-01-01T00:12:25Z</time>
      </trkpt>
      <trkpt lat="42.30175" lon="2.18353">
        <ele>1331</ele>
        <time>2010-01-01T00:12:25Z</time>
      </trkpt>
      <trkpt lat="42.30174" lon="2.18357">
        <ele>1332</ele>
        <time>2010-01-01T00:12:27Z</time>
      </trkpt>
      <trkpt lat="42.30173" lon="2.1836">
        <ele>1332</ele>
        <time>2010-01-01T00:12:28Z</time>
      </trkpt>
      <trkpt lat="42.30171" lon="2.18363">
        <ele>1333</ele>
        <time>2010-01-01T00:12:29Z</time>
      </trkpt>
      <trkpt lat="42.30171" lon="2.18366">
        <ele>1333</ele>
        <time>2010-01-01T00:12:30Z</time>
      </trkpt>
      <trkpt lat="42.3017" lon="2.1837">
        <ele>1333</ele>
        <time>2010-01-01T00:12:31Z</time>
      </trkpt>
      <trkpt lat="42.30169" lon="2.18373">
        <ele>1333</ele>
        <time>2010-01-01T00:12:32Z</time>
      </trkpt>
      <trkpt lat="42.30169" lon="2.18376">
        <ele>1333</ele>
        <time>2010-01-01T00:12:33Z</time>
      </trkpt>
      <trkpt lat="42.30168" lon="2.1838">
        <ele>1334</ele>
        <time>2010-01-01T00:12:34Z</time>
      </trkpt>
      <trkpt lat="42.30166" lon="2.18383">
        <ele>1334</ele>
        <time>2010-01-01T00:12:35Z</time>
      </trkpt>
      <trkpt lat="42.30166" lon="2.18386">
        <ele>1334</ele>
        <time>2010-01-01T00:12:36Z</time>
      </trkpt>
      <trkpt lat="42.30164" lon="2.1839">
        <ele>1334</ele>
        <time>2010-01-01T00:12:38Z</time>
      </trkpt>
      <trkpt lat="42.30163" lon="2.18394">
        <ele>1335</ele>
        <time>2010-01-01T00:12:39Z</time>
      </trkpt>
      <trkpt lat="42.30163" lon="2.18398">
        <ele>1334</ele>
        <time>2010-01-01T00:12:40Z</time>
      </trkpt>
      <trkpt lat="42.30163" lon="2.18402">
        <ele>1334</ele>
        <time>2010-01-01T00:12:41Z</time>
      </trkpt>
      <trkpt lat="42.30163" lon="2.18405">
        <ele>1334</ele>
        <time>2010-01-01T00:12:42Z</time>
      </trkpt>
      <trkpt lat="42.30162" lon="2.18407">
        <ele>1334</ele>
        <time>2010-01-01T00:12:43Z</time>
      </trkpt>
      <trkpt lat="42.30162" lon="2.18411">
        <ele>1334</ele>
        <time>2010-01-01T00:12:44Z</time>
      </trkpt>
      <trkpt lat="42.30161" lon="2.18414">
        <ele>1335</ele>
        <time>2010-01-01T00:12:45Z</time>
      </trkpt>
      <trkpt lat="42.30161" lon="2.18417">
        <ele>1335</ele>
        <time>2010-01-01T00:12:46Z</time>
      </trkpt>
      <trkpt lat="42.3016" lon="2.18421">
        <ele>1335</ele>
        <time>2010-01-01T00:12:47Z</time>
      </trkpt>
      <trkpt lat="42.30157" lon="2.18426">
        <ele>1336</ele>
        <time>2010-01-01T00:12:49Z</time>
      </trkpt>
      <trkpt lat="42.30156" lon="2.18429">
        <ele>1336</ele>
        <time>2010-01-01T00:12:50Z</time>
      </trkpt>
      <trkpt lat="42.30156" lon="2.18433">
        <ele>1336</ele>
        <time>2010-01-01T00:12:51Z</time>
      </trkpt>
      <trkpt lat="42.30156" lon="2.18436">
        <ele>1336</ele>
        <time>2010-01-01T00:12:52Z</time>
      </trkpt>
      <trkpt lat="42.30155" lon="2.18439">
        <ele>1336</ele>
        <time>2010-01-01T00:12:53Z</time>
      </trkpt>
      <trkpt lat="42.30154" lon="2.18443">
        <ele>1337</ele>
        <time>2010-01-01T00:12:54Z</time>
      </trkpt>
      <trkpt lat="42.30152" lon="2.1845">
        <ele>1337</ele>
        <time>2010-01-01T00:12:56Z</time>
      </trkpt>
      <trkpt lat="42.30151" lon="2.18453">
        <ele>1338</ele>
        <time>2010-01-01T00:12:57Z</time>
      </trkpt>
      <trkpt lat="42.30151" lon="2.18457">
        <ele>1338</ele>
        <time>2010-01-01T00:12:58Z</time>
      </trkpt>
      <trkpt lat="42.3015" lon="2.18461">
        <ele>1338</ele>
        <time>2010-01-01T00:13:00Z</time>
      </trkpt>
      <trkpt lat="42.3015" lon="2.18465">
        <ele>1338</ele>
        <time>2010-01-01T00:13:01Z</time>
      </trkpt>
      <trkpt lat="42.30149" lon="2.18468">
        <ele>1338</ele>
        <time>2010-01-01T00:13:02Z</time>
      </trkpt>
      <trkpt lat="42.30148" lon="2.18473">
        <ele>1339</ele>
        <time>2010-01-01T00:13:03Z</time>
      </trkpt>
      <trkpt lat="42.30146" lon="2.18476">
        <ele>1339</ele>
        <time>2010-01-01T00:13:05Z</time>
      </trkpt>
      <trkpt lat="42.30145" lon="2.1848">
        <ele>1340</ele>
        <time>2010-01-01T00:13:06Z</time>
      </trkpt>
      <trkpt lat="42.30142" lon="2.18486">
        <ele>1340</ele>
        <time>2010-01-01T00:13:08Z</time>
      </trkpt>
      <trkpt lat="42.30142" lon="2.18489">
        <ele>1341</ele>
        <time>2010-01-01T00:13:09Z</time>
      </trkpt>
      <trkpt lat="42.3014" lon="2.18493">
        <ele>1341</ele>
        <time>2010-01-01T00:13:10Z</time>
      </trkpt>
      <trkpt lat="42.30138" lon="2.18496">
        <ele>1342</ele>
        <time>2010-01-01T00:13:11Z</time>
      </trkpt>
      <trkpt lat="42.30137" lon="2.18499">
        <ele>1342</ele>
        <time>2010-01-01T00:13:12Z</time>
      </trkpt>
      <trkpt lat="42.30136" lon="2.18501">
        <ele>1343</ele>
        <time>2010-01-01T00:13:13Z</time>
      </trkpt>
      <trkpt lat="42.30134" lon="2.18505">
        <ele>1343</ele>
        <time>2010-01-01T00:13:15Z</time>
      </trkpt>
      <trkpt lat="42.30132" lon="2.18509">
        <ele>1344</ele>
        <time>2010-01-01T00:13:16Z</time>
      </trkpt>
      <trkpt lat="42.3013" lon="2.18512">
        <ele>1345</ele>
        <time>2010-01-01T00:13:17Z</time>
      </trkpt>
      <trkpt lat="42.30128" lon="2.18516">
        <ele>1345</ele>
        <time>2010-01-01T00:13:18Z</time>
      </trkpt>
      <trkpt lat="42.30128" lon="2.18518">
        <ele>1345</ele>
        <time>2010-01-01T00:13:19Z</time>
      </trkpt>
      <trkpt lat="42.30127" lon="2.18521">
        <ele>1345</ele>
        <time>2010-01-01T00:13:20Z</time>
      </trkpt>
      <trkpt lat="42.30126" lon="2.18524">
        <ele>1346</ele>
        <time>2010-01-01T00:13:21Z</time>
      </trkpt>
      <trkpt lat="42.30119" lon="2.18534">
        <ele>1347</ele>
        <time>2010-01-01T00:13:25Z</time>
      </trkpt>
      <trkpt lat="42.30116" lon="2.18537">
        <ele>1348</ele>
        <time>2010-01-01T00:13:26Z</time>
      </trkpt>
      <trkpt lat="42.30115" lon="2.18539">
        <ele>1348</ele>
        <time>2010-01-01T00:13:27Z</time>
      </trkpt>
      <trkpt lat="42.30113" lon="2.1854">
        <ele>1349</ele>
        <time>2010-01-01T00:13:28Z</time>
      </trkpt>
      <trkpt lat="42.30111" lon="2.18543">
        <ele>1349</ele>
        <time>2010-01-01T00:13:29Z</time>
      </trkpt>
      <trkpt lat="42.30109" lon="2.18546">
        <ele>1349</ele>
        <time>2010-01-01T00:13:30Z</time>
      </trkpt>
      <trkpt lat="42.30107" lon="2.18549">
        <ele>1349</ele>
        <time>2010-01-01T00:13:32Z</time>
      </trkpt>
      <trkpt lat="42.30103" lon="2.18552">
        <ele>1349</ele>
        <time>2010-01-01T00:13:33Z</time>
      </trkpt>
      <trkpt lat="42.30101" lon="2.18554">
        <ele>1350</ele>
        <time>2010-01-01T00:13:35Z</time>
      </trkpt>
      <trkpt lat="42.30098" lon="2.18557">
        <ele>1350</ele>
        <time>2010-01-01T00:13:36Z</time>
      </trkpt>
      <trkpt lat="42.30096" lon="2.18559">
        <ele>1350</ele>
        <time>2010-01-01T00:13:37Z</time>
      </trkpt>
      <trkpt lat="42.30094" lon="2.18561">
        <ele>1350</ele>
        <time>2010-01-01T00:13:38Z</time>
      </trkpt>
      <trkpt lat="42.30093" lon="2.18563">
        <ele>1350</ele>
        <time>2010-01-01T00:13:39Z</time>
      </trkpt>
      <trkpt lat="42.30091" lon="2.18565">
        <ele>1350</ele>
        <time>2010-01-01T00:13:40Z</time>
      </trkpt>
      <trkpt lat="42.3009" lon="2.18567">
        <ele>1350</ele>
        <time>2010-01-01T00:13:41Z</time>
      </trkpt>
      <trkpt lat="42.3009" lon="2.18571">
        <ele>1350</ele>
        <time>2010-01-01T00:13:42Z</time>
      </trkpt>
      <trkpt lat="42.30089" lon="2.18573">
        <ele>1350</ele>
        <time>2010-01-01T00:13:42Z</time>
      </trkpt>
      <trkpt lat="42.30087" lon="2.18576">
        <ele>1350</ele>
        <time>2010-01-01T00:13:43Z</time>
      </trkpt>
      <trkpt lat="42.30086" lon="2.18579">
        <ele>1350</ele>
        <time>2010-01-01T00:13:45Z</time>
      </trkpt>
      <trkpt lat="42.30085" lon="2.18582">
        <ele>1350</ele>
        <time>2010-01-01T00:13:46Z</time>
      </trkpt>
      <trkpt lat="42.30083" lon="2.18586">
        <ele>1350</ele>
        <time>2010-01-01T00:13:47Z</time>
      </trkpt>
      <trkpt lat="42.3008" lon="2.18592">
        <ele>1350</ele>
        <time>2010-01-01T00:13:49Z</time>
      </trkpt>
      <trkpt lat="42.30079" lon="2.18595">
        <ele>1350</ele>
        <time>2010-01-01T00:13:50Z</time>
      </trkpt>
      <trkpt lat="42.30078" lon="2.18598">
        <ele>1350</ele>
        <time>2010-01-01T00:13:51Z</time>
      </trkpt>
      <trkpt lat="42.30078" lon="2.18601">
        <ele>1350</ele>
        <time>2010-01-01T00:13:52Z</time>
      </trkpt>
      <trkpt lat="42.30077" lon="2.18604">
        <ele>1350</ele>
        <time>2010-01-01T00:13:53Z</time>
      </trkpt>
      <trkpt lat="42.30077" lon="2.18607">
        <ele>1350</ele>
        <time>2010-01-01T00:13:54Z</time>
      </trkpt>
      <trkpt lat="42.30076" lon="2.18611">
        <ele>1350</ele>
        <time>2010-01-01T00:13:55Z</time>
      </trkpt>
      <trkpt lat="42.30076" lon="2.18614">
        <ele>1350</ele>
        <time>2010-01-01T00:13:56Z</time>
      </trkpt>
      <trkpt lat="42.30076" lon="2.18617">
        <ele>1350</ele>
        <time>2010-01-01T00:13:57Z</time>
      </trkpt>
      <trkpt lat="42.30075" lon="2.1862">
        <ele>1350</ele>
        <time>2010-01-01T00:13:58Z</time>
      </trkpt>
      <trkpt lat="42.30075" lon="2.18624">
        <ele>1350</ele>
        <time>2010-01-01T00:13:59Z</time>
      </trkpt>
      <trkpt lat="42.30074" lon="2.18625">
        <ele>1351</ele>
        <time>2010-01-01T00:13:59Z</time>
      </trkpt>
      <trkpt lat="42.30072" lon="2.18626">
        <ele>1351</ele>
        <time>2010-01-01T00:14:00Z</time>
      </trkpt>
      <trkpt lat="42.3007" lon="2.18628">
        <ele>1351</ele>
        <time>2010-01-01T00:14:01Z</time>
      </trkpt>
      <trkpt lat="42.3007" lon="2.1863">
        <ele>1351</ele>
        <time>2010-01-01T00:14:02Z</time>
      </trkpt>
      <trkpt lat="42.30069" lon="2.18633">
        <ele>1352</ele>
        <time>2010-01-01T00:14:03Z</time>
      </trkpt>
      <trkpt lat="42.30068" lon="2.18636">
        <ele>1352</ele>
        <time>2010-01-01T00:14:04Z</time>
      </trkpt>
      <trkpt lat="42.30068" lon="2.18639">
        <ele>1352</ele>
        <time>2010-01-01T00:14:04Z</time>
      </trkpt>
      <trkpt lat="42.30068" lon="2.18642">
        <ele>1353</ele>
        <time>2010-01-01T00:14:05Z</time>
      </trkpt>
      <trkpt lat="42.30067" lon="2.18646">
        <ele>1353</ele>
        <time>2010-01-01T00:14:07Z</time>
      </trkpt>
      <trkpt lat="42.30066" lon="2.18649">
        <ele>1354</ele>
        <time>2010-01-01T00:14:07Z</time>
      </trkpt>
      <trkpt lat="42.30065" lon="2.18651">
        <ele>1355</ele>
        <time>2010-01-01T00:14:08Z</time>
      </trkpt>
      <trkpt lat="42.30064" lon="2.18654">
        <ele>1355</ele>
        <time>2010-01-01T00:14:09Z</time>
      </trkpt>
      <trkpt lat="42.30064" lon="2.18657">
        <ele>1356</ele>
        <time>2010-01-01T00:14:10Z</time>
      </trkpt>
      <trkpt lat="42.30064" lon="2.1866">
        <ele>1356</ele>
        <time>2010-01-01T00:14:11Z</time>
      </trkpt>
      <trkpt lat="42.30064" lon="2.18663">
        <ele>1357</ele>
        <time>2010-01-01T00:14:12Z</time>
      </trkpt>
      <trkpt lat="42.30064" lon="2.18666">
        <ele>1358</ele>
        <time>2010-01-01T00:14:13Z</time>
      </trkpt>
      <trkpt lat="42.30063" lon="2.1867">
        <ele>1358</ele>
        <time>2010-01-01T00:14:14Z</time>
      </trkpt>
      <trkpt lat="42.30062" lon="2.18673">
        <ele>1359</ele>
        <time>2010-01-01T00:14:15Z</time>
      </trkpt>
      <trkpt lat="42.30061" lon="2.18676">
        <ele>1360</ele>
        <time>2010-01-01T00:14:16Z</time>
      </trkpt>
      <trkpt lat="42.30059" lon="2.18679">
        <ele>1360</ele>
        <time>2010-01-01T00:14:17Z</time>
      </trkpt>
      <trkpt lat="42.30058" lon="2.18683">
        <ele>1361</ele>
        <time>2010-01-01T00:14:18Z</time>
      </trkpt>
      <trkpt lat="42.30057" lon="2.18686">
        <ele>1362</ele>
        <time>2010-01-01T00:14:19Z</time>
      </trkpt>
      <trkpt lat="42.30057" lon="2.1869">
        <ele>1362</ele>
        <time>2010-01-01T00:14:20Z</time>
      </trkpt>
      <trkpt lat="42.30057" lon="2.18693">
        <ele>1363</ele>
        <time>2010-01-01T00:14:21Z</time>
      </trkpt>
      <trkpt lat="42.30056" lon="2.18695">
        <ele>1363</ele>
        <time>2010-01-01T00:14:22Z</time>
      </trkpt>
      <trkpt lat="42.30055" lon="2.18698">
        <ele>1364</ele>
        <time>2010-01-01T00:14:23Z</time>
      </trkpt>
      <trkpt lat="42.30054" lon="2.18702">
        <ele>1364</ele>
        <time>2010-01-01T00:14:24Z</time>
      </trkpt>
      <trkpt lat="42.30054" lon="2.18706">
        <ele>1364</ele>
        <time>2010-01-01T00:14:25Z</time>
      </trkpt>
      <trkpt lat="42.30053" lon="2.1871">
        <ele>1364</ele>
        <time>2010-01-01T00:14:27Z</time>
      </trkpt>
      <trkpt lat="42.30052" lon="2.18713">
        <ele>1364</ele>
        <time>2010-01-01T00:14:28Z</time>
      </trkpt>
      <trkpt lat="42.3005" lon="2.18716">
        <ele>1364</ele>
        <time>2010-01-01T00:14:29Z</time>
      </trkpt>
      <trkpt lat="42.30049" lon="2.1872">
        <ele>1365</ele>
        <time>2010-01-01T00:14:30Z</time>
      </trkpt>
      <trkpt lat="42.30047" lon="2.18724">
        <ele>1365</ele>
        <time>2010-01-01T00:14:31Z</time>
      </trkpt>
      <trkpt lat="42.30046" lon="2.18727">
        <ele>1366</ele>
        <time>2010-01-01T00:14:33Z</time>
      </trkpt>
      <trkpt lat="42.30044" lon="2.18731">
        <ele>1366</ele>
        <time>2010-01-01T00:14:34Z</time>
      </trkpt>
      <trkpt lat="42.30042" lon="2.18734">
        <ele>1367</ele>
        <time>2010-01-01T00:14:35Z</time>
      </trkpt>
      <trkpt lat="42.3004" lon="2.18737">
        <ele>1367</ele>
        <time>2010-01-01T00:14:36Z</time>
      </trkpt>
      <trkpt lat="42.30038" lon="2.1874">
        <ele>1368</ele>
        <time>2010-01-01T00:14:37Z</time>
      </trkpt>
      <trkpt lat="42.30036" lon="2.18743">
        <ele>1369</ele>
        <time>2010-01-01T00:14:39Z</time>
      </trkpt>
      <trkpt lat="42.30034" lon="2.18746">
        <ele>1370</ele>
        <time>2010-01-01T00:14:40Z</time>
      </trkpt>
      <trkpt lat="42.30031" lon="2.18749">
        <ele>1370</ele>
        <time>2010-01-01T00:14:41Z</time>
      </trkpt>
      <trkpt lat="42.3003" lon="2.18752">
        <ele>1371</ele>
        <time>2010-01-01T00:14:42Z</time>
      </trkpt>
      <trkpt lat="42.30028" lon="2.18756">
        <ele>1371</ele>
        <time>2010-01-01T00:14:44Z</time>
      </trkpt>
      <trkpt lat="42.30027" lon="2.18759">
        <ele>1372</ele>
        <time>2010-01-01T00:14:45Z</time>
      </trkpt>
      <trkpt lat="42.30025" lon="2.18762">
        <ele>1372</ele>
        <time>2010-01-01T00:14:46Z</time>
      </trkpt>
      <trkpt lat="42.30023" lon="2.18766">
        <ele>1372</ele>
        <time>2010-01-01T00:14:47Z</time>
      </trkpt>
      <trkpt lat="42.30022" lon="2.18769">
        <ele>1372</ele>
        <time>2010-01-01T00:14:48Z</time>
      </trkpt>
      <trkpt lat="42.3002" lon="2.18771">
        <ele>1373</ele>
        <time>2010-01-01T00:14:49Z</time>
      </trkpt>
      <trkpt lat="42.30018" lon="2.18773">
        <ele>1373</ele>
        <time>2010-01-01T00:14:50Z</time>
      </trkpt>
      <trkpt lat="42.30016" lon="2.18775">
        <ele>1373</ele>
        <time>2010-01-01T00:14:51Z</time>
      </trkpt>
      <trkpt lat="42.30016" lon="2.18779">
        <ele>1374</ele>
        <time>2010-01-01T00:14:52Z</time>
      </trkpt>
      <trkpt lat="42.30015" lon="2.18782">
        <ele>1374</ele>
        <time>2010-01-01T00:14:53Z</time>
      </trkpt>
      <trkpt lat="42.30015" lon="2.18786">
        <ele>1374</ele>
        <time>2010-01-01T00:14:54Z</time>
      </trkpt>
      <trkpt lat="42.30014" lon="2.18789">
        <ele>1375</ele>
        <time>2010-01-01T00:14:55Z</time>
      </trkpt>
      <trkpt lat="42.30014" lon="2.18793">
        <ele>1375</ele>
        <time>2010-01-01T00:14:56Z</time>
      </trkpt>
      <trkpt lat="42.30013" lon="2.18796">
        <ele>1375</ele>
        <time>2010-01-01T00:14:58Z</time>
      </trkpt>
      <trkpt lat="42.30012" lon="2.188">
        <ele>1376</ele>
        <time>2010-01-01T00:14:59Z</time>
      </trkpt>
      <trkpt lat="42.30011" lon="2.18803">
        <ele>1376</ele>
        <time>2010-01-01T00:15:00Z</time>
      </trkpt>
      <trkpt lat="42.3001" lon="2.18806">
        <ele>1377</ele>
        <time>2010-01-01T00:15:01Z</time>
      </trkpt>
      <trkpt lat="42.30009" lon="2.18809">
        <ele>1377</ele>
        <time>2010-01-01T00:15:02Z</time>
      </trkpt>
      <trkpt lat="42.30008" lon="2.18812">
        <ele>1378</ele>
        <time>2010-01-01T00:15:03Z</time>
      </trkpt>
      <trkpt lat="42.30007" lon="2.18816">
        <ele>1378</ele>
        <time>2010-01-01T00:15:04Z</time>
      </trkpt>
      <trkpt lat="42.30007" lon="2.18819">
        <ele>1379</ele>
        <time>2010-01-01T00:15:05Z</time>
      </trkpt>
      <trkpt lat="42.30005" lon="2.18822">
        <ele>1379</ele>
        <time>2010-01-01T00:15:06Z</time>
      </trkpt>
      <trkpt lat="42.30004" lon="2.18825">
        <ele>1380</ele>
        <time>2010-01-01T00:15:07Z</time>
      </trkpt>
      <trkpt lat="42.30002" lon="2.18829">
        <ele>1381</ele>
        <time>2010-01-01T00:15:08Z</time>
      </trkpt>
      <trkpt lat="42.3" lon="2.18832">
        <ele>1381</ele>
        <time>2010-01-01T00:15:09Z</time>
      </trkpt>
      <trkpt lat="42.29999" lon="2.18835">
        <ele>1382</ele>
        <time>2010-01-01T00:15:10Z</time>
      </trkpt>
      <trkpt lat="42.29997" lon="2.18838">
        <ele>1382</ele>
        <time>2010-01-01T00:15:11Z</time>
      </trkpt>
      <trkpt lat="42.29996" lon="2.1884">
        <ele>1383</ele>
        <time>2010-01-01T00:15:12Z</time>
      </trkpt>
      <trkpt lat="42.29994" lon="2.18843">
        <ele>1383</ele>
        <time>2010-01-01T00:15:13Z</time>
      </trkpt>
      <trkpt lat="42.29993" lon="2.18845">
        <ele>1384</ele>
        <time>2010-01-01T00:15:14Z</time>
      </trkpt>
      <trkpt lat="42.29991" lon="2.18847">
        <ele>1385</ele>
        <time>2010-01-01T00:15:15Z</time>
      </trkpt>
      <trkpt lat="42.29989" lon="2.18848">
        <ele>1385</ele>
        <time>2010-01-01T00:15:16Z</time>
      </trkpt>
      <trkpt lat="42.29987" lon="2.1885">
        <ele>1386</ele>
        <time>2010-01-01T00:15:17Z</time>
      </trkpt>
      <trkpt lat="42.29985" lon="2.18851">
        <ele>1386</ele>
        <time>2010-01-01T00:15:18Z</time>
      </trkpt>
      <trkpt lat="42.29982" lon="2.18851">
        <ele>1387</ele>
        <time>2010-01-01T00:15:19Z</time>
      </trkpt>
      <trkpt lat="42.2998" lon="2.18851">
        <ele>1388</ele>
        <time>2010-01-01T00:15:20Z</time>
      </trkpt>
      <trkpt lat="42.29978" lon="2.18852">
        <ele>1388</ele>
        <time>2010-01-01T00:15:21Z</time>
      </trkpt>
      <trkpt lat="42.29976" lon="2.18852">
        <ele>1389</ele>
        <time>2010-01-01T00:15:21Z</time>
      </trkpt>
      <trkpt lat="42.29974" lon="2.18853">
        <ele>1389</ele>
        <time>2010-01-01T00:15:22Z</time>
      </trkpt>
      <trkpt lat="42.29972" lon="2.18854">
        <ele>1390</ele>
        <time>2010-01-01T00:15:23Z</time>
      </trkpt>
      <trkpt lat="42.2997" lon="2.18854">
        <ele>1390</ele>
        <time>2010-01-01T00:15:24Z</time>
      </trkpt>
      <trkpt lat="42.29968" lon="2.18855">
        <ele>1391</ele>
        <time>2010-01-01T00:15:25Z</time>
      </trkpt>
      <trkpt lat="42.29965" lon="2.18855">
        <ele>1392</ele>
        <time>2010-01-01T00:15:26Z</time>
      </trkpt>
      <trkpt lat="42.29963" lon="2.18856">
        <ele>1392</ele>
        <time>2010-01-01T00:15:27Z</time>
      </trkpt>
      <trkpt lat="42.29961" lon="2.18857">
        <ele>1393</ele>
        <time>2010-01-01T00:15:28Z</time>
      </trkpt>
      <trkpt lat="42.29959" lon="2.18858">
        <ele>1394</ele>
        <time>2010-01-01T00:15:29Z</time>
      </trkpt>
      <trkpt lat="42.29957" lon="2.18859">
        <ele>1395</ele>
        <time>2010-01-01T00:15:29Z</time>
      </trkpt>
      <trkpt lat="42.29955" lon="2.1886">
        <ele>1395</ele>
        <time>2010-01-01T00:15:30Z</time>
      </trkpt>
      <trkpt lat="42.29953" lon="2.1886">
        <ele>1396</ele>
        <time>2010-01-01T00:15:31Z</time>
      </trkpt>
      <trkpt lat="42.29951" lon="2.1886">
        <ele>1396</ele>
        <time>2010-01-01T00:15:32Z</time>
      </trkpt>
      <trkpt lat="42.29949" lon="2.1886">
        <ele>1397</ele>
        <time>2010-01-01T00:15:32Z</time>
      </trkpt>
      <trkpt lat="42.29947" lon="2.18861">
        <ele>1398</ele>
        <time>2010-01-01T00:15:33Z</time>
      </trkpt>
      <trkpt lat="42.29945" lon="2.1886">
        <ele>1398</ele>
        <time>2010-01-01T00:15:34Z</time>
      </trkpt>
      <trkpt lat="42.29942" lon="2.1886">
        <ele>1399</ele>
        <time>2010-01-01T00:15:35Z</time>
      </trkpt>
      <trkpt lat="42.2994" lon="2.18861">
        <ele>1399</ele>
        <time>2010-01-01T00:15:36Z</time>
      </trkpt>
      <trkpt lat="42.29938" lon="2.18861">
        <ele>1400</ele>
        <time>2010-01-01T00:15:37Z</time>
      </trkpt>
      <trkpt lat="42.29935" lon="2.18861">
        <ele>1401</ele>
        <time>2010-01-01T00:15:38Z</time>
      </trkpt>
      <trkpt lat="42.29933" lon="2.18861">
        <ele>1401</ele>
        <time>2010-01-01T00:15:39Z</time>
      </trkpt>
      <trkpt lat="42.29932" lon="2.18862">
        <ele>1402</ele>
        <time>2010-01-01T00:15:40Z</time>
      </trkpt>
      <trkpt lat="42.2993" lon="2.18864">
        <ele>1403</ele>
        <time>2010-01-01T00:15:40Z</time>
      </trkpt>
      <trkpt lat="42.29927" lon="2.18865">
        <ele>1403</ele>
        <time>2010-01-01T00:15:42Z</time>
      </trkpt>
      <trkpt lat="42.29925" lon="2.18865">
        <ele>1404</ele>
        <time>2010-01-01T00:15:42Z</time>
      </trkpt>
      <trkpt lat="42.29923" lon="2.18865">
        <ele>1405</ele>
        <time>2010-01-01T00:15:43Z</time>
      </trkpt>
      <trkpt lat="42.2992" lon="2.18865">
        <ele>1405</ele>
        <time>2010-01-01T00:15:44Z</time>
      </trkpt>
      <trkpt lat="42.29918" lon="2.18865">
        <ele>1406</ele>
        <time>2010-01-01T00:15:45Z</time>
      </trkpt>
      <trkpt lat="42.29916" lon="2.18865">
        <ele>1406</ele>
        <time>2010-01-01T00:15:46Z</time>
      </trkpt>
      <trkpt lat="42.29913" lon="2.18865">
        <ele>1407</ele>
        <time>2010-01-01T00:15:47Z</time>
      </trkpt>
      <trkpt lat="42.29911" lon="2.18866">
        <ele>1407</ele>
        <time>2010-01-01T00:15:48Z</time>
      </trkpt>
      <trkpt lat="42.29908" lon="2.18866">
        <ele>1408</ele>
        <time>2010-01-01T00:15:49Z</time>
      </trkpt>
      <trkpt lat="42.29906" lon="2.18866">
        <ele>1408</ele>
        <time>2010-01-01T00:15:50Z</time>
      </trkpt>
      <trkpt lat="42.29903" lon="2.18867">
        <ele>1408</ele>
        <time>2010-01-01T00:15:51Z</time>
      </trkpt>
      <trkpt lat="42.29901" lon="2.18867">
        <ele>1409</ele>
        <time>2010-01-01T00:15:52Z</time>
      </trkpt>
      <trkpt lat="42.29899" lon="2.18867">
        <ele>1409</ele>
        <time>2010-01-01T00:15:53Z</time>
      </trkpt>
      <trkpt lat="42.29896" lon="2.18867">
        <ele>1410</ele>
        <time>2010-01-01T00:15:54Z</time>
      </trkpt>
      <trkpt lat="42.29894" lon="2.18867">
        <ele>1410</ele>
        <time>2010-01-01T00:15:55Z</time>
      </trkpt>
      <trkpt lat="42.29892" lon="2.18866">
        <ele>1410</ele>
        <time>2010-01-01T00:15:56Z</time>
      </trkpt>
      <trkpt lat="42.29889" lon="2.18866">
        <ele>1411</ele>
        <time>2010-01-01T00:15:57Z</time>
      </trkpt>
      <trkpt lat="42.29886" lon="2.18865">
        <ele>1411</ele>
        <time>2010-01-01T00:15:58Z</time>
      </trkpt>
      <trkpt lat="42.29884" lon="2.18864">
        <ele>1411</ele>
        <time>2010-01-01T00:15:59Z</time>
      </trkpt>
      <trkpt lat="42.29882" lon="2.18864">
        <ele>1411</ele>
        <time>2010-01-01T00:16:00Z</time>
      </trkpt>
      <trkpt lat="42.29879" lon="2.18864">
        <ele>1411</ele>
        <time>2010-01-01T00:16:01Z</time>
      </trkpt>
      <trkpt lat="42.29877" lon="2.18864">
        <ele>1411</ele>
        <time>2010-01-01T00:16:02Z</time>
      </trkpt>
      <trkpt lat="42.29874" lon="2.18864">
        <ele>1411</ele>
        <time>2010-01-01T00:16:03Z</time>
      </trkpt>
      <trkpt lat="42.29872" lon="2.18864">
        <ele>1412</ele>
        <time>2010-01-01T00:16:04Z</time>
      </trkpt>
      <trkpt lat="42.29869" lon="2.18865">
        <ele>1412</ele>
        <time>2010-01-01T00:16:05Z</time>
      </trkpt>
      <trkpt lat="42.29867" lon="2.18866">
        <ele>1412</ele>
        <time>2010-01-01T00:16:06Z</time>
      </trkpt>
      <trkpt lat="42.29865" lon="2.18867">
        <ele>1413</ele>
        <time>2010-01-01T00:16:07Z</time>
      </trkpt>
      <trkpt lat="42.29863" lon="2.18868">
        <ele>1413</ele>
        <time>2010-01-01T00:16:08Z</time>
      </trkpt>
      <trkpt lat="42.2986" lon="2.1887">
        <ele>1414</ele>
        <time>2010-01-01T00:16:09Z</time>
      </trkpt>
      <trkpt lat="42.29859" lon="2.18871">
        <ele>1414</ele>
        <time>2010-01-01T00:16:10Z</time>
      </trkpt>
      <trkpt lat="42.29856" lon="2.18872">
        <ele>1414</ele>
        <time>2010-01-01T00:16:11Z</time>
      </trkpt>
      <trkpt lat="42.29854" lon="2.18874">
        <ele>1415</ele>
        <time>2010-01-01T00:16:12Z</time>
      </trkpt>
      <trkpt lat="42.29852" lon="2.18875">
        <ele>1415</ele>
        <time>2010-01-01T00:16:12Z</time>
      </trkpt>
      <trkpt lat="42.2985" lon="2.18877">
        <ele>1416</ele>
        <time>2010-01-01T00:16:13Z</time>
      </trkpt>
      <trkpt lat="42.29848" lon="2.18879">
        <ele>1416</ele>
        <time>2010-01-01T00:16:15Z</time>
      </trkpt>
      <trkpt lat="42.29846" lon="2.18882">
        <ele>1417</ele>
        <time>2010-01-01T00:16:16Z</time>
      </trkpt>
      <trkpt lat="42.29843" lon="2.18884">
        <ele>1418</ele>
        <time>2010-01-01T00:16:17Z</time>
      </trkpt>
      <trkpt lat="42.29841" lon="2.18886">
        <ele>1418</ele>
        <time>2010-01-01T00:16:18Z</time>
      </trkpt>
      <trkpt lat="42.29839" lon="2.18888">
        <ele>1419</ele>
        <time>2010-01-01T00:16:19Z</time>
      </trkpt>
      <trkpt lat="42.29837" lon="2.18891">
        <ele>1420</ele>
        <time>2010-01-01T00:16:20Z</time>
      </trkpt>
      <trkpt lat="42.29835" lon="2.18894">
        <ele>1421</ele>
        <time>2010-01-01T00:16:21Z</time>
      </trkpt>
      <trkpt lat="42.29834" lon="2.18896">
        <ele>1422</ele>
        <time>2010-01-01T00:16:22Z</time>
      </trkpt>
      <trkpt lat="42.29833" lon="2.18899">
        <ele>1422</ele>
        <time>2010-01-01T00:16:23Z</time>
      </trkpt>
      <trkpt lat="42.29831" lon="2.18901">
        <ele>1423</ele>
        <time>2010-01-01T00:16:24Z</time>
      </trkpt>
      <trkpt lat="42.29829" lon="2.18903">
        <ele>1423</ele>
        <time>2010-01-01T00:16:25Z</time>
      </trkpt>
      <trkpt lat="42.29827" lon="2.18905">
        <ele>1424</ele>
        <time>2010-01-01T00:16:26Z</time>
      </trkpt>
      <trkpt lat="42.29824" lon="2.18908">
        <ele>1424</ele>
        <time>2010-01-01T00:16:27Z</time>
      </trkpt>
      <trkpt lat="42.29822" lon="2.1891">
        <ele>1425</ele>
        <time>2010-01-01T00:16:29Z</time>
      </trkpt>
      <trkpt lat="42.29821" lon="2.18913">
        <ele>1426</ele>
        <time>2010-01-01T00:16:30Z</time>
      </trkpt>
      <trkpt lat="42.29819" lon="2.18916">
        <ele>1427</ele>
        <time>2010-01-01T00:16:31Z</time>
      </trkpt>
      <trkpt lat="42.29817" lon="2.18919">
        <ele>1427</ele>
        <time>2010-01-01T00:16:32Z</time>
      </trkpt>
      <trkpt lat="42.29815" lon="2.18921">
        <ele>1428</ele>
        <time>2010-01-01T00:16:33Z</time>
      </trkpt>
      <trkpt lat="42.29814" lon="2.18924">
        <ele>1428</ele>
        <time>2010-01-01T00:16:34Z</time>
      </trkpt>
      <trkpt lat="42.29812" lon="2.18927">
        <ele>1429</ele>
        <time>2010-01-01T00:16:35Z</time>
      </trkpt>
      <trkpt lat="42.2981" lon="2.18929">
        <ele>1429</ele>
        <time>2010-01-01T00:16:36Z</time>
      </trkpt>
      <trkpt lat="42.29808" lon="2.18932">
        <ele>1429</ele>
        <time>2010-01-01T00:16:37Z</time>
      </trkpt>
      <trkpt lat="42.29807" lon="2.18934">
        <ele>1430</ele>
        <time>2010-01-01T00:16:38Z</time>
      </trkpt>
      <trkpt lat="42.29805" lon="2.18936">
        <ele>1430</ele>
        <time>2010-01-01T00:16:39Z</time>
      </trkpt>
      <trkpt lat="42.29803" lon="2.18939">
        <ele>1430</ele>
        <time>2010-01-01T00:16:40Z</time>
      </trkpt>
      <trkpt lat="42.29801" lon="2.18941">
        <ele>1431</ele>
        <time>2010-01-01T00:16:41Z</time>
      </trkpt>
      <trkpt lat="42.29799" lon="2.18944">
        <ele>1431</ele>
        <time>2010-01-01T00:16:42Z</time>
      </trkpt>
      <trkpt lat="42.29797" lon="2.18946">
        <ele>1431</ele>
        <time>2010-01-01T00:16:43Z</time>
      </trkpt>
      <trkpt lat="42.29795" lon="2.18949">
        <ele>1431</ele>
        <time>2010-01-01T00:16:44Z</time>
      </trkpt>
      <trkpt lat="42.29794" lon="2.18952">
        <ele>1432</ele>
        <time>2010-01-01T00:16:45Z</time>
      </trkpt>
      <trkpt lat="42.29792" lon="2.18955">
        <ele>1432</ele>
        <time>2010-01-01T00:16:47Z</time>
      </trkpt>
      <trkpt lat="42.2979" lon="2.18958">
        <ele>1432</ele>
        <time>2010-01-01T00:16:48Z</time>
      </trkpt>
      <trkpt lat="42.29788" lon="2.1896">
        <ele>1432</ele>
        <time>2010-01-01T00:16:49Z</time>
      </trkpt>
      <trkpt lat="42.29786" lon="2.18963">
        <ele>1432</ele>
        <time>2010-01-01T00:16:50Z</time>
      </trkpt>
      <trkpt lat="42.29784" lon="2.18965">
        <ele>1432</ele>
        <time>2010-01-01T00:16:51Z</time>
      </trkpt>
      <trkpt lat="42.29782" lon="2.18967">
        <ele>1432</ele>
        <time>2010-01-01T00:16:52Z</time>
      </trkpt>
      <trkpt lat="42.2978" lon="2.18967">
        <ele>1432</ele>
        <time>2010-01-01T00:16:53Z</time>
      </trkpt>
      <trkpt lat="42.29777" lon="2.18968">
        <ele>1432</ele>
        <time>2010-01-01T00:16:54Z</time>
      </trkpt>
      <trkpt lat="42.29775" lon="2.18969">
        <ele>1432</ele>
        <time>2010-01-01T00:16:55Z</time>
      </trkpt>
      <trkpt lat="42.29772" lon="2.18969">
        <ele>1432</ele>
        <time>2010-01-01T00:16:56Z</time>
      </trkpt>
      <trkpt lat="42.29769" lon="2.18969">
        <ele>1433</ele>
        <time>2010-01-01T00:16:57Z</time>
      </trkpt>
      <trkpt lat="42.29766" lon="2.18968">
        <ele>1433</ele>
        <time>2010-01-01T00:16:58Z</time>
      </trkpt>
      <trkpt lat="42.29763" lon="2.18967">
        <ele>1433</ele>
        <time>2010-01-01T00:16:59Z</time>
      </trkpt>
      <trkpt lat="42.2976" lon="2.18965">
        <ele>1432</ele>
        <time>2010-01-01T00:17:01Z</time>
      </trkpt>
      <trkpt lat="42.29758" lon="2.18964">
        <ele>1432</ele>
        <time>2010-01-01T00:17:02Z</time>
      </trkpt>
      <trkpt lat="42.29755" lon="2.18961">
        <ele>1432</ele>
        <time>2010-01-01T00:17:03Z</time>
      </trkpt>
      <trkpt lat="42.29753" lon="2.18959">
        <ele>1432</ele>
        <time>2010-01-01T00:17:04Z</time>
      </trkpt>
      <trkpt lat="42.29751" lon="2.18956">
        <ele>1432</ele>
        <time>2010-01-01T00:17:05Z</time>
      </trkpt>
      <trkpt lat="42.29749" lon="2.18954">
        <ele>1432</ele>
        <time>2010-01-01T00:17:06Z</time>
      </trkpt>
      <trkpt lat="42.29747" lon="2.18951">
        <ele>1432</ele>
        <time>2010-01-01T00:17:07Z</time>
      </trkpt>
      <trkpt lat="42.29745" lon="2.18949">
        <ele>1432</ele>
        <time>2010-01-01T00:17:08Z</time>
      </trkpt>
      <trkpt lat="42.29743" lon="2.18946">
        <ele>1432</ele>
        <time>2010-01-01T00:17:10Z</time>
      </trkpt>
      <trkpt lat="42.29741" lon="2.18944">
        <ele>1432</ele>
        <time>2010-01-01T00:17:11Z</time>
      </trkpt>
      <trkpt lat="42.2974" lon="2.18941">
        <ele>1432</ele>
        <time>2010-01-01T00:17:12Z</time>
      </trkpt>
      <trkpt lat="42.29738" lon="2.18938">
        <ele>1432</ele>
        <time>2010-01-01T00:17:13Z</time>
      </trkpt>
      <trkpt lat="42.29735" lon="2.18936">
        <ele>1432</ele>
        <time>2010-01-01T00:17:14Z</time>
      </trkpt>
      <trkpt lat="42.29733" lon="2.18934">
        <ele>1433</ele>
        <time>2010-01-01T00:17:15Z</time>
      </trkpt>
      <trkpt lat="42.29731" lon="2.18931">
        <ele>1433</ele>
        <time>2010-01-01T00:17:16Z</time>
      </trkpt>
      <trkpt lat="42.29729" lon="2.18928">
        <ele>1433</ele>
        <time>2010-01-01T00:17:17Z</time>
      </trkpt>
      <trkpt lat="42.29727" lon="2.18926">
        <ele>1433</ele>
        <time>2010-01-01T00:17:19Z</time>
      </trkpt>
      <trkpt lat="42.29725" lon="2.18923">
        <ele>1434</ele>
        <time>2010-01-01T00:17:20Z</time>
      </trkpt>
      <trkpt lat="42.29722" lon="2.18921">
        <ele>1434</ele>
        <time>2010-01-01T00:17:21Z</time>
      </trkpt>
      <trkpt lat="42.2972" lon="2.18919">
        <ele>1434</ele>
        <time>2010-01-01T00:17:22Z</time>
      </trkpt>
      <trkpt lat="42.29717" lon="2.18916">
        <ele>1435</ele>
        <time>2010-01-01T00:17:23Z</time>
      </trkpt>
      <trkpt lat="42.29715" lon="2.18914">
        <ele>1435</ele>
        <time>2010-01-01T00:17:24Z</time>
      </trkpt>
      <trkpt lat="42.29713" lon="2.18913">
        <ele>1435</ele>
        <time>2010-01-01T00:17:25Z</time>
      </trkpt>
      <trkpt lat="42.2971" lon="2.18911">
        <ele>1436</ele>
        <time>2010-01-01T00:17:27Z</time>
      </trkpt>
      <trkpt lat="42.29707" lon="2.1891">
        <ele>1436</ele>
        <time>2010-01-01T00:17:28Z</time>
      </trkpt>
      <trkpt lat="42.29705" lon="2.18909">
        <ele>1437</ele>
        <time>2010-01-01T00:17:29Z</time>
      </trkpt>
      <trkpt lat="42.29702" lon="2.18908">
        <ele>1437</ele>
        <time>2010-01-01T00:17:30Z</time>
      </trkpt>
      <trkpt lat="42.29699" lon="2.18908">
        <ele>1438</ele>
        <time>2010-01-01T00:17:31Z</time>
      </trkpt>
      <trkpt lat="42.29696" lon="2.18908">
        <ele>1439</ele>
        <time>2010-01-01T00:17:32Z</time>
      </trkpt>
      <trkpt lat="42.29694" lon="2.18909">
        <ele>1439</ele>
        <time>2010-01-01T00:17:33Z</time>
      </trkpt>
      <trkpt lat="42.29691" lon="2.18911">
        <ele>1440</ele>
        <time>2010-01-01T00:17:34Z</time>
      </trkpt>
      <trkpt lat="42.29688" lon="2.18913">
        <ele>1440</ele>
        <time>2010-01-01T00:17:36Z</time>
      </trkpt>
      <trkpt lat="42.29685" lon="2.18914">
        <ele>1440</ele>
        <time>2010-01-01T00:17:37Z</time>
      </trkpt>
      <trkpt lat="42.29683" lon="2.18916">
        <ele>1441</ele>
        <time>2010-01-01T00:17:38Z</time>
      </trkpt>
      <trkpt lat="42.2968" lon="2.18917">
        <ele>1441</ele>
        <time>2010-01-01T00:17:39Z</time>
      </trkpt>
      <trkpt lat="42.29677" lon="2.18918">
        <ele>1441</ele>
        <time>2010-01-01T00:17:41Z</time>
      </trkpt>
      <trkpt lat="42.29674" lon="2.1892">
        <ele>1442</ele>
        <time>2010-01-01T00:17:42Z</time>
      </trkpt>
      <trkpt lat="42.29672" lon="2.18922">
        <ele>1442</ele>
        <time>2010-01-01T00:17:43Z</time>
      </trkpt>
      <trkpt lat="42.2967" lon="2.18925">
        <ele>1443</ele>
        <time>2010-01-01T00:17:44Z</time>
      </trkpt>
      <trkpt lat="42.29669" lon="2.18928">
        <ele>1443</ele>
        <time>2010-01-01T00:17:45Z</time>
      </trkpt>
      <trkpt lat="42.29668" lon="2.18931">
        <ele>1444</ele>
        <time>2010-01-01T00:17:46Z</time>
      </trkpt>
      <trkpt lat="42.29666" lon="2.18934">
        <ele>1445</ele>
        <time>2010-01-01T00:17:47Z</time>
      </trkpt>
      <trkpt lat="42.29665" lon="2.18936">
        <ele>1445</ele>
        <time>2010-01-01T00:17:48Z</time>
      </trkpt>
      <trkpt lat="42.29663" lon="2.18939">
        <ele>1446</ele>
        <time>2010-01-01T00:17:49Z</time>
      </trkpt>
      <trkpt lat="42.29662" lon="2.18941">
        <ele>1446</ele>
        <time>2010-01-01T00:17:50Z</time>
      </trkpt>
      <trkpt lat="42.29661" lon="2.18944">
        <ele>1447</ele>
        <time>2010-01-01T00:17:51Z</time>
      </trkpt>
      <trkpt lat="42.29659" lon="2.18947">
        <ele>1447</ele>
        <time>2010-01-01T00:17:52Z</time>
      </trkpt>
      <trkpt lat="42.29657" lon="2.18948">
        <ele>1448</ele>
        <time>2010-01-01T00:17:53Z</time>
      </trkpt>
      <trkpt lat="42.29654" lon="2.18949">
        <ele>1448</ele>
        <time>2010-01-01T00:17:54Z</time>
      </trkpt>
      <trkpt lat="42.29651" lon="2.18949">
        <ele>1448</ele>
        <time>2010-01-01T00:17:55Z</time>
      </trkpt>
      <trkpt lat="42.29647" lon="2.18949">
        <ele>1448</ele>
        <time>2010-01-01T00:17:57Z</time>
      </trkpt>
      <trkpt lat="42.29643" lon="2.1895">
        <ele>1449</ele>
        <time>2010-01-01T00:17:58Z</time>
      </trkpt>
      <trkpt lat="42.2964" lon="2.1895">
        <ele>1449</ele>
        <time>2010-01-01T00:18:00Z</time>
      </trkpt>
      <trkpt lat="42.29636" lon="2.1895">
        <ele>1449</ele>
        <time>2010-01-01T00:18:01Z</time>
      </trkpt>
      <trkpt lat="42.29632" lon="2.18951">
        <ele>1450</ele>
        <time>2010-01-01T00:18:03Z</time>
      </trkpt>
      <trkpt lat="42.29628" lon="2.18951">
        <ele>1450</ele>
        <time>2010-01-01T00:18:05Z</time>
      </trkpt>
      <trkpt lat="42.29624" lon="2.18952">
        <ele>1450</ele>
        <time>2010-01-01T00:18:06Z</time>
      </trkpt>
      <trkpt lat="42.29619" lon="2.18953">
        <ele>1451</ele>
        <time>2010-01-01T00:18:08Z</time>
      </trkpt>
      <trkpt lat="42.29615" lon="2.18953">
        <ele>1451</ele>
        <time>2010-01-01T00:18:10Z</time>
      </trkpt>
      <trkpt lat="42.29611" lon="2.18954">
        <ele>1452</ele>
        <time>2010-01-01T00:18:11Z</time>
      </trkpt>
      <trkpt lat="42.29606" lon="2.18956">
        <ele>1453</ele>
        <time>2010-01-01T00:18:14Z</time>
      </trkpt>
      <trkpt lat="42.29602" lon="2.18957">
        <ele>1453</ele>
        <time>2010-01-01T00:18:15Z</time>
      </trkpt>
      <trkpt lat="42.29598" lon="2.18958">
        <ele>1454</ele>
        <time>2010-01-01T00:18:17Z</time>
      </trkpt>
      <trkpt lat="42.29593" lon="2.1896">
        <ele>1455</ele>
        <time>2010-01-01T00:18:19Z</time>
      </trkpt>
      <trkpt lat="42.29589" lon="2.18961">
        <ele>1456</ele>
        <time>2010-01-01T00:18:20Z</time>
      </trkpt>
      <trkpt lat="42.29585" lon="2.18962">
        <ele>1457</ele>
        <time>2010-01-01T00:18:22Z</time>
      </trkpt>
      <trkpt lat="42.29581" lon="2.18963">
        <ele>1457</ele>
        <time>2010-01-01T00:18:24Z</time>
      </trkpt>
      <trkpt lat="42.29575" lon="2.18964">
        <ele>1458</ele>
        <time>2010-01-01T00:18:26Z</time>
      </trkpt>
      <trkpt lat="42.29571" lon="2.18965">
        <ele>1458</ele>
        <time>2010-01-01T00:18:27Z</time>
      </trkpt>
      <trkpt lat="42.29567" lon="2.18965">
        <ele>1458</ele>
        <time>2010-01-01T00:18:29Z</time>
      </trkpt>
      <trkpt lat="42.29561" lon="2.18966">
        <ele>1458</ele>
        <time>2010-01-01T00:18:31Z</time>
      </trkpt>
      <trkpt lat="42.29558" lon="2.18967">
        <ele>1459</ele>
        <time>2010-01-01T00:18:33Z</time>
      </trkpt>
      <trkpt lat="42.29555" lon="2.18969">
        <ele>1459</ele>
        <time>2010-01-01T00:18:34Z</time>
      </trkpt>
      <trkpt lat="42.29552" lon="2.18972">
        <ele>1459</ele>
        <time>2010-01-01T00:18:36Z</time>
      </trkpt>
      <trkpt lat="42.29549" lon="2.18976">
        <ele>1458</ele>
        <time>2010-01-01T00:18:37Z</time>
      </trkpt>
      <trkpt lat="42.29546" lon="2.18979">
        <ele>1458</ele>
        <time>2010-01-01T00:18:39Z</time>
      </trkpt>
      <trkpt lat="42.29541" lon="2.18983">
        <ele>1458</ele>
        <time>2010-01-01T00:18:41Z</time>
      </trkpt>
      <trkpt lat="42.29538" lon="2.18986">
        <ele>1458</ele>
        <time>2010-01-01T00:18:43Z</time>
      </trkpt>
      <trkpt lat="42.29534" lon="2.18989">
        <ele>1457</ele>
        <time>2010-01-01T00:18:44Z</time>
      </trkpt>
      <trkpt lat="42.29531" lon="2.18992">
        <ele>1458</ele>
        <time>2010-01-01T00:18:46Z</time>
      </trkpt>
      <trkpt lat="42.29528" lon="2.18998">
        <ele>1458</ele>
        <time>2010-01-01T00:18:48Z</time>
      </trkpt>
      <trkpt lat="42.29526" lon="2.19003">
        <ele>1459</ele>
        <time>2010-01-01T00:18:50Z</time>
      </trkpt>
      <trkpt lat="42.29523" lon="2.19007">
        <ele>1459</ele>
        <time>2010-01-01T00:18:52Z</time>
      </trkpt>
      <trkpt lat="42.2952" lon="2.19012">
        <ele>1458</ele>
        <time>2010-01-01T00:18:53Z</time>
      </trkpt>
      <trkpt lat="42.29516" lon="2.19017">
        <ele>1458</ele>
        <time>2010-01-01T00:18:56Z</time>
      </trkpt>
      <trkpt lat="42.29512" lon="2.19022">
        <ele>1457</ele>
        <time>2010-01-01T00:18:58Z</time>
      </trkpt>
      <trkpt lat="42.29508" lon="2.19026">
        <ele>1456</ele>
        <time>2010-01-01T00:19:00Z</time>
      </trkpt>
      <trkpt lat="42.29503" lon="2.19029">
        <ele>1454</ele>
        <time>2010-01-01T00:19:02Z</time>
      </trkpt>
      <trkpt lat="42.29497" lon="2.19032">
        <ele>1453</ele>
        <time>2010-01-01T00:19:04Z</time>
      </trkpt>
      <trkpt lat="42.29492" lon="2.19034">
        <ele>1452</ele>
        <time>2010-01-01T00:19:07Z</time>
      </trkpt>
      <trkpt lat="42.29486" lon="2.19037">
        <ele>1451</ele>
        <time>2010-01-01T00:19:09Z</time>
      </trkpt>
      <trkpt lat="42.29482" lon="2.1904">
        <ele>1451</ele>
        <time>2010-01-01T00:19:11Z</time>
      </trkpt>
      <trkpt lat="42.29477" lon="2.19044">
        <ele>1451</ele>
        <time>2010-01-01T00:19:13Z</time>
      </trkpt>
      <trkpt lat="42.29473" lon="2.19047">
        <ele>1451</ele>
        <time>2010-01-01T00:19:15Z</time>
      </trkpt>
      <trkpt lat="42.29469" lon="2.19051">
        <ele>1451</ele>
        <time>2010-01-01T00:19:17Z</time>
      </trkpt>
      <trkpt lat="42.29464" lon="2.19054">
        <ele>1451</ele>
        <time>2010-01-01T00:19:19Z</time>
      </trkpt>
      <trkpt lat="42.29458" lon="2.19056">
        <ele>1451</ele>
        <time>2010-01-01T00:19:22Z</time>
      </trkpt>
      <trkpt lat="42.29453" lon="2.19059">
        <ele>1451</ele>
        <time>2010-01-01T00:19:24Z</time>
      </trkpt>
      <trkpt lat="42.29448" lon="2.19062">
        <ele>1451</ele>
        <time>2010-01-01T00:19:26Z</time>
      </trkpt>
      <trkpt lat="42.29444" lon="2.19065">
        <ele>1450</ele>
        <time>2010-01-01T00:19:28Z</time>
      </trkpt>
      <trkpt lat="42.2944" lon="2.19068">
        <ele>1450</ele>
        <time>2010-01-01T00:19:30Z</time>
      </trkpt>
      <trkpt lat="42.29436" lon="2.19072">
        <ele>1449</ele>
        <time>2010-01-01T00:19:32Z</time>
      </trkpt>
      <trkpt lat="42.29432" lon="2.19076">
        <ele>1449</ele>
        <time>2010-01-01T00:19:34Z</time>
      </trkpt>
      <trkpt lat="42.29429" lon="2.1908">
        <ele>1449</ele>
        <time>2010-01-01T00:19:36Z</time>
      </trkpt>
      <trkpt lat="42.29424" lon="2.19083">
        <ele>1448</ele>
        <time>2010-01-01T00:19:38Z</time>
      </trkpt>
      <trkpt lat="42.29421" lon="2.19087">
        <ele>1447</ele>
        <time>2010-01-01T00:19:39Z</time>
      </trkpt>
      <trkpt lat="42.29417" lon="2.19089">
        <ele>1447</ele>
        <time>2010-01-01T00:19:41Z</time>
      </trkpt>
      <trkpt lat="42.29413" lon="2.19093">
        <ele>1447</ele>
        <time>2010-01-01T00:19:43Z</time>
      </trkpt>
      <trkpt lat="42.2941" lon="2.19097">
        <ele>1447</ele>
        <time>2010-01-01T00:19:45Z</time>
      </trkpt>
      <trkpt lat="42.29406" lon="2.19101">
        <ele>1447</ele>
        <time>2010-01-01T00:19:47Z</time>
      </trkpt>
      <trkpt lat="42.29403" lon="2.19106">
        <ele>1447</ele>
        <time>2010-01-01T00:19:49Z</time>
      </trkpt>
      <trkpt lat="42.294" lon="2.19111">
        <ele>1447</ele>
        <time>2010-01-01T00:19:51Z</time>
      </trkpt>
      <trkpt lat="42.29397" lon="2.19117">
        <ele>1447</ele>
        <time>2010-01-01T00:19:53Z</time>
      </trkpt>
      <trkpt lat="42.29394" lon="2.19123">
        <ele>1447</ele>
        <time>2010-01-01T00:19:55Z</time>
      </trkpt>
      <trkpt lat="42.29391" lon="2.19129">
        <ele>1447</ele>
        <time>2010-01-01T00:19:57Z</time>
      </trkpt>
      <trkpt lat="42.29389" lon="2.19135">
        <ele>1446</ele>
        <time>2010-01-01T00:19:59Z</time>
      </trkpt>
      <trkpt lat="42.29386" lon="2.19141">
        <ele>1447</ele>
        <time>2010-01-01T00:20:01Z</time>
      </trkpt>
      <trkpt lat="42.29382" lon="2.19148">
        <ele>1447</ele>
        <time>2010-01-01T00:20:04Z</time>
      </trkpt>
      <trkpt lat="42.29379" lon="2.19154">
        <ele>1448</ele>
        <time>2010-01-01T00:20:06Z</time>
      </trkpt>
      <trkpt lat="42.29374" lon="2.19159">
        <ele>1448</ele>
        <time>2010-01-01T00:20:08Z</time>
      </trkpt>
      <trkpt lat="42.29369" lon="2.19164">
        <ele>1448</ele>
        <time>2010-01-01T00:20:11Z</time>
      </trkpt>
      <trkpt lat="42.29365" lon="2.19169">
        <ele>1448</ele>
        <time>2010-01-01T00:20:13Z</time>
      </trkpt>
      <trkpt lat="42.29361" lon="2.19172">
        <ele>1448</ele>
        <time>2010-01-01T00:20:15Z</time>
      </trkpt>
      <trkpt lat="42.29356" lon="2.19172">
        <ele>1448</ele>
        <time>2010-01-01T00:20:17Z</time>
      </trkpt>
      <trkpt lat="42.29352" lon="2.1917">
        <ele>1447</ele>
        <time>2010-01-01T00:20:18Z</time>
      </trkpt>
      <trkpt lat="42.29347" lon="2.19167">
        <ele>1447</ele>
        <time>2010-01-01T00:20:20Z</time>
      </trkpt>
      <trkpt lat="42.29342" lon="2.19164">
        <ele>1446</ele>
        <time>2010-01-01T00:20:23Z</time>
      </trkpt>
      <trkpt lat="42.29338" lon="2.19163">
        <ele>1446</ele>
        <time>2010-01-01T00:20:24Z</time>
      </trkpt>
      <trkpt lat="42.29333" lon="2.19163">
        <ele>1446</ele>
        <time>2010-01-01T00:20:26Z</time>
      </trkpt>
      <trkpt lat="42.29328" lon="2.19163">
        <ele>1445</ele>
        <time>2010-01-01T00:20:28Z</time>
      </trkpt>
      <trkpt lat="42.29324" lon="2.19165">
        <ele>1445</ele>
        <time>2010-01-01T00:20:30Z</time>
      </trkpt>
      <trkpt lat="42.29319" lon="2.19166">
        <ele>1445</ele>
        <time>2010-01-01T00:20:32Z</time>
      </trkpt>
      <trkpt lat="42.29314" lon="2.19167">
        <ele>1444</ele>
        <time>2010-01-01T00:20:34Z</time>
      </trkpt>
      <trkpt lat="42.29308" lon="2.19168">
        <ele>1444</ele>
        <time>2010-01-01T00:20:36Z</time>
      </trkpt>
      <trkpt lat="42.29304" lon="2.19168">
        <ele>1444</ele>
        <time>2010-01-01T00:20:38Z</time>
      </trkpt>
      <trkpt lat="42.29299" lon="2.19169">
        <ele>1443</ele>
        <time>2010-01-01T00:20:40Z</time>
      </trkpt>
      <trkpt lat="42.29295" lon="2.19171">
        <ele>1443</ele>
        <time>2010-01-01T00:20:42Z</time>
      </trkpt>
      <trkpt lat="42.2929" lon="2.19175">
        <ele>1443</ele>
        <time>2010-01-01T00:20:44Z</time>
      </trkpt>
      <trkpt lat="42.29284" lon="2.19179">
        <ele>1443</ele>
        <time>2010-01-01T00:20:47Z</time>
      </trkpt>
      <trkpt lat="42.29279" lon="2.19183">
        <ele>1443</ele>
        <time>2010-01-01T00:20:49Z</time>
      </trkpt>
      <trkpt lat="42.29275" lon="2.19186">
        <ele>1443</ele>
        <time>2010-01-01T00:20:51Z</time>
      </trkpt>
      <trkpt lat="42.29271" lon="2.1919">
        <ele>1443</ele>
        <time>2010-01-01T00:20:53Z</time>
      </trkpt>
      <trkpt lat="42.29267" lon="2.19193">
        <ele>1443</ele>
        <time>2010-01-01T00:20:55Z</time>
      </trkpt>
      <trkpt lat="42.29262" lon="2.19198">
        <ele>1443</ele>
        <time>2010-01-01T00:20:57Z</time>
      </trkpt>
      <trkpt lat="42.29257" lon="2.19202">
        <ele>1443</ele>
        <time>2010-01-01T00:21:00Z</time>
      </trkpt>
      <trkpt lat="42.29252" lon="2.19205">
        <ele>1443</ele>
        <time>2010-01-01T00:21:02Z</time>
      </trkpt>
      <trkpt lat="42.29247" lon="2.1921">
        <ele>1444</ele>
        <time>2010-01-01T00:21:04Z</time>
      </trkpt>
      <trkpt lat="42.29243" lon="2.19214">
        <ele>1445</ele>
        <time>2010-01-01T00:21:06Z</time>
      </trkpt>
      <trkpt lat="42.29239" lon="2.19217">
        <ele>1445</ele>
        <time>2010-01-01T00:21:08Z</time>
      </trkpt>
      <trkpt lat="42.29236" lon="2.1922">
        <ele>1446</ele>
        <time>2010-01-01T00:21:09Z</time>
      </trkpt>
      <trkpt lat="42.29231" lon="2.19223">
        <ele>1447</ele>
        <time>2010-01-01T00:21:12Z</time>
      </trkpt>
      <trkpt lat="42.29226" lon="2.19224">
        <ele>1446</ele>
        <time>2010-01-01T00:21:14Z</time>
      </trkpt>
      <trkpt lat="42.29221" lon="2.19226">
        <ele>1446</ele>
        <time>2010-01-01T00:21:16Z</time>
      </trkpt>
      <trkpt lat="42.29215" lon="2.1923">
        <ele>1446</ele>
        <time>2010-01-01T00:21:18Z</time>
      </trkpt>
      <trkpt lat="42.2921" lon="2.19233">
        <ele>1446</ele>
        <time>2010-01-01T00:21:21Z</time>
      </trkpt>
      <trkpt lat="42.29206" lon="2.19236">
        <ele>1447</ele>
        <time>2010-01-01T00:21:23Z</time>
      </trkpt>
      <trkpt lat="42.29203" lon="2.19239">
        <ele>1447</ele>
        <time>2010-01-01T00:21:24Z</time>
      </trkpt>
      <trkpt lat="42.29199" lon="2.19244">
        <ele>1448</ele>
        <time>2010-01-01T00:21:26Z</time>
      </trkpt>
      <trkpt lat="42.29197" lon="2.19245">
        <ele>1448</ele>
        <time>2010-01-01T00:21:27Z</time>
      </trkpt>
      <trkpt lat="42.29194" lon="2.19245">
        <ele>1447</ele>
        <time>2010-01-01T00:21:28Z</time>
      </trkpt>
      <trkpt lat="42.2919" lon="2.19244">
        <ele>1447</ele>
        <time>2010-01-01T00:21:30Z</time>
      </trkpt>
      <trkpt lat="42.29186" lon="2.19241">
        <ele>1447</ele>
        <time>2010-01-01T00:21:32Z</time>
      </trkpt>
      <trkpt lat="42.29176" lon="2.19236">
        <ele>1446</ele>
        <time>2010-01-01T00:21:36Z</time>
      </trkpt>
      <trkpt lat="42.2917" lon="2.19231">
        <ele>1446</ele>
        <time>2010-01-01T00:21:39Z</time>
      </trkpt>
      <trkpt lat="42.29165" lon="2.19226">
        <ele>1446</ele>
        <time>2010-01-01T00:21:41Z</time>
      </trkpt>
      <trkpt lat="42.29162" lon="2.19222">
        <ele>1447</ele>
        <time>2010-01-01T00:21:43Z</time>
      </trkpt>
      <trkpt lat="42.29158" lon="2.19217">
        <ele>1448</ele>
        <time>2010-01-01T00:21:45Z</time>
      </trkpt>
      <trkpt lat="42.29155" lon="2.19212">
        <ele>1448</ele>
        <time>2010-01-01T00:21:47Z</time>
      </trkpt>
      <trkpt lat="42.29152" lon="2.19209">
        <ele>1449</ele>
        <time>2010-01-01T00:21:49Z</time>
      </trkpt>
      <trkpt lat="42.2915" lon="2.19205">
        <ele>1449</ele>
        <time>2010-01-01T00:21:50Z</time>
      </trkpt>
      <trkpt lat="42.29147" lon="2.192">
        <ele>1450</ele>
        <time>2010-01-01T00:21:52Z</time>
      </trkpt>
      <trkpt lat="42.29145" lon="2.19197">
        <ele>1450</ele>
        <time>2010-01-01T00:21:53Z</time>
      </trkpt>
      <trkpt lat="42.29143" lon="2.19194">
        <ele>1451</ele>
        <time>2010-01-01T00:21:54Z</time>
      </trkpt>
      <trkpt lat="42.29141" lon="2.19191">
        <ele>1451</ele>
        <time>2010-01-01T00:21:56Z</time>
      </trkpt>
      <trkpt lat="42.29137" lon="2.19188">
        <ele>1452</ele>
        <time>2010-01-01T00:21:57Z</time>
      </trkpt>
      <trkpt lat="42.29132" lon="2.19184">
        <ele>1454</ele>
        <time>2010-01-01T00:22:00Z</time>
      </trkpt>
      <trkpt lat="42.2913" lon="2.19182">
        <ele>1455</ele>
        <time>2010-01-01T00:22:01Z</time>
      </trkpt>
      <trkpt lat="42.29126" lon="2.19179">
        <ele>1456</ele>
        <time>2010-01-01T00:22:02Z</time>
      </trkpt>
      <trkpt lat="42.29123" lon="2.19176">
        <ele>1457</ele>
        <time>2010-01-01T00:22:04Z</time>
      </trkpt>
      <trkpt lat="42.29119" lon="2.1917">
        <ele>1457</ele>
        <time>2010-01-01T00:22:06Z</time>
      </trkpt>
      <trkpt lat="42.29115" lon="2.19167">
        <ele>1458</ele>
        <time>2010-01-01T00:22:08Z</time>
      </trkpt>
      <trkpt lat="42.29111" lon="2.19164">
        <ele>1460</ele>
        <time>2010-01-01T00:22:10Z</time>
      </trkpt>
      <trkpt lat="42.29107" lon="2.1916">
        <ele>1460</ele>
        <time>2010-01-01T00:22:12Z</time>
      </trkpt>
      <trkpt lat="42.29103" lon="2.19154">
        <ele>1461</ele>
        <time>2010-01-01T00:22:14Z</time>
      </trkpt>
      <trkpt lat="42.29101" lon="2.19152">
        <ele>1461</ele>
        <time>2010-01-01T00:22:16Z</time>
      </trkpt>
      <trkpt lat="42.29098" lon="2.1915">
        <ele>1461</ele>
        <time>2010-01-01T00:22:17Z</time>
      </trkpt>
      <trkpt lat="42.29096" lon="2.19146">
        <ele>1461</ele>
        <time>2010-01-01T00:22:18Z</time>
      </trkpt>
      <trkpt lat="42.29092" lon="2.19142">
        <ele>1461</ele>
        <time>2010-01-01T00:22:20Z</time>
      </trkpt>
      <trkpt lat="42.2909" lon="2.19139">
        <ele>1461</ele>
        <time>2010-01-01T00:22:21Z</time>
      </trkpt>
      <trkpt lat="42.29088" lon="2.19138">
        <ele>1461</ele>
        <time>2010-01-01T00:22:22Z</time>
      </trkpt>
      <trkpt lat="42.29087" lon="2.19135">
        <ele>1461</ele>
        <time>2010-01-01T00:22:23Z</time>
      </trkpt>
      <trkpt lat="42.29085" lon="2.19134">
        <ele>1461</ele>
        <time>2010-01-01T00:22:24Z</time>
      </trkpt>
      <trkpt lat="42.29087" lon="2.19133">
        <ele>1460</ele>
        <time>2010-01-01T00:22:25Z</time>
      </trkpt>
      <trkpt lat="42.29085" lon="2.19132">
        <ele>1460</ele>
        <time>2010-01-01T00:22:25Z</time>
      </trkpt>
      <trkpt lat="42.29082" lon="2.19132">
        <ele>1461</ele>
        <time>2010-01-01T00:22:27Z</time>
      </trkpt>
      <trkpt lat="42.2908" lon="2.19132">
        <ele>1461</ele>
        <time>2010-01-01T00:22:27Z</time>
      </trkpt>
      <trkpt lat="42.29078" lon="2.19131">
        <ele>1461</ele>
        <time>2010-01-01T00:22:28Z</time>
      </trkpt>
      <trkpt lat="42.29076" lon="2.1913">
        <ele>1461</ele>
        <time>2010-01-01T00:22:29Z</time>
      </trkpt>
      <trkpt lat="42.29074" lon="2.1913">
        <ele>1461</ele>
        <time>2010-01-01T00:22:30Z</time>
      </trkpt>
      <trkpt lat="42.29071" lon="2.1913">
        <ele>1462</ele>
        <time>2010-01-01T00:22:31Z</time>
      </trkpt>
      <trkpt lat="42.29069" lon="2.19131">
        <ele>1462</ele>
        <time>2010-01-01T00:22:32Z</time>
      </trkpt>
      <trkpt lat="42.29067" lon="2.1913">
        <ele>1462</ele>
        <time>2010-01-01T00:22:33Z</time>
      </trkpt>
      <trkpt lat="42.29065" lon="2.1913">
        <ele>1462</ele>
        <time>2010-01-01T00:22:34Z</time>
      </trkpt>
      <trkpt lat="42.29062" lon="2.1913">
        <ele>1463</ele>
        <time>2010-01-01T00:22:35Z</time>
      </trkpt>
      <trkpt lat="42.29059" lon="2.1913">
        <ele>1463</ele>
        <time>2010-01-01T00:22:36Z</time>
      </trkpt>
      <trkpt lat="42.29057" lon="2.1913">
        <ele>1463</ele>
        <time>2010-01-01T00:22:37Z</time>
      </trkpt>
      <trkpt lat="42.29055" lon="2.19131">
        <ele>1464</ele>
        <time>2010-01-01T00:22:37Z</time>
      </trkpt>
      <trkpt lat="42.29053" lon="2.19131">
        <ele>1464</ele>
        <time>2010-01-01T00:22:38Z</time>
      </trkpt>
      <trkpt lat="42.29051" lon="2.19133">
        <ele>1464</ele>
        <time>2010-01-01T00:22:39Z</time>
      </trkpt>
      <trkpt lat="42.2905" lon="2.19135">
        <ele>1465</ele>
        <time>2010-01-01T00:22:40Z</time>
      </trkpt>
      <trkpt lat="42.29049" lon="2.19137">
        <ele>1466</ele>
        <time>2010-01-01T00:22:41Z</time>
      </trkpt>
      <trkpt lat="42.29048" lon="2.19139">
        <ele>1466</ele>
        <time>2010-01-01T00:22:41Z</time>
      </trkpt>
      <trkpt lat="42.29049" lon="2.19136">
        <ele>1466</ele>
        <time>2010-01-01T00:22:42Z</time>
      </trkpt>
      <trkpt lat="42.29049" lon="2.19134">
        <ele>1465</ele>
        <time>2010-01-01T00:22:43Z</time>
      </trkpt>
      <trkpt lat="42.29047" lon="2.19132">
        <ele>1464</ele>
        <time>2010-01-01T00:22:44Z</time>
      </trkpt>
      <trkpt lat="42.29046" lon="2.19133">
        <ele>1465</ele>
        <time>2010-01-01T00:22:44Z</time>
      </trkpt>
      <trkpt lat="42.29043" lon="2.19135">
        <ele>1465</ele>
        <time>2010-01-01T00:22:46Z</time>
      </trkpt>
      <trkpt lat="42.29041" lon="2.19137">
        <ele>1466</ele>
        <time>2010-01-01T00:22:46Z</time>
      </trkpt>
      <trkpt lat="42.29039" lon="2.19138">
        <ele>1466</ele>
        <time>2010-01-01T00:22:47Z</time>
      </trkpt>
      <trkpt lat="42.29038" lon="2.1914">
        <ele>1467</ele>
        <time>2010-01-01T00:22:48Z</time>
      </trkpt>
      <trkpt lat="42.29036" lon="2.19141">
        <ele>1467</ele>
        <time>2010-01-01T00:22:49Z</time>
      </trkpt>
      <trkpt lat="42.29034" lon="2.19142">
        <ele>1468</ele>
        <time>2010-01-01T00:22:50Z</time>
      </trkpt>
      <trkpt lat="42.29032" lon="2.19143">
        <ele>1468</ele>
        <time>2010-01-01T00:22:51Z</time>
      </trkpt>
      <trkpt lat="42.2903" lon="2.19143">
        <ele>1468</ele>
        <time>2010-01-01T00:22:51Z</time>
      </trkpt>
      <trkpt lat="42.29028" lon="2.19143">
        <ele>1468</ele>
        <time>2010-01-01T00:22:52Z</time>
      </trkpt>
      <trkpt lat="42.29026" lon="2.19144">
        <ele>1469</ele>
        <time>2010-01-01T00:22:53Z</time>
      </trkpt>
      <trkpt lat="42.29023" lon="2.19145">
        <ele>1469</ele>
        <time>2010-01-01T00:22:54Z</time>
      </trkpt>
      <trkpt lat="42.2902" lon="2.19145">
        <ele>1470</ele>
        <time>2010-01-01T00:22:56Z</time>
      </trkpt>
      <trkpt lat="42.29017" lon="2.19146">
        <ele>1470</ele>
        <time>2010-01-01T00:22:57Z</time>
      </trkpt>
      <trkpt lat="42.29015" lon="2.19147">
        <ele>1470</ele>
        <time>2010-01-01T00:22:58Z</time>
      </trkpt>
      <trkpt lat="42.29012" lon="2.19148">
        <ele>1471</ele>
        <time>2010-01-01T00:22:59Z</time>
      </trkpt>
      <trkpt lat="42.29008" lon="2.19149">
        <ele>1471</ele>
        <time>2010-01-01T00:23:00Z</time>
      </trkpt>
      <trkpt lat="42.29003" lon="2.1915">
        <ele>1472</ele>
        <time>2010-01-01T00:23:02Z</time>
      </trkpt>
      <trkpt lat="42.28997" lon="2.19152">
        <ele>1473</ele>
        <time>2010-01-01T00:23:05Z</time>
      </trkpt>
      <trkpt lat="42.28994" lon="2.19152">
        <ele>1473</ele>
        <time>2010-01-01T00:23:06Z</time>
      </trkpt>
      <trkpt lat="42.28991" lon="2.19154">
        <ele>1474</ele>
        <time>2010-01-01T00:23:07Z</time>
      </trkpt>
      <trkpt lat="42.28989" lon="2.19154">
        <ele>1474</ele>
        <time>2010-01-01T00:23:08Z</time>
      </trkpt>
      <trkpt lat="42.28986" lon="2.19156">
        <ele>1475</ele>
        <time>2010-01-01T00:23:10Z</time>
      </trkpt>
      <trkpt lat="42.28983" lon="2.19157">
        <ele>1476</ele>
        <time>2010-01-01T00:23:11Z</time>
      </trkpt>
      <trkpt lat="42.28978" lon="2.19159">
        <ele>1477</ele>
        <time>2010-01-01T00:23:13Z</time>
      </trkpt>
      <trkpt lat="42.28975" lon="2.19158">
        <ele>1477</ele>
        <time>2010-01-01T00:23:14Z</time>
      </trkpt>
      <trkpt lat="42.2897" lon="2.19158">
        <ele>1477</ele>
        <time>2010-01-01T00:23:16Z</time>
      </trkpt>
      <trkpt lat="42.28968" lon="2.19158">
        <ele>1478</ele>
        <time>2010-01-01T00:23:17Z</time>
      </trkpt>
      <trkpt lat="42.28965" lon="2.19159">
        <ele>1478</ele>
        <time>2010-01-01T00:23:18Z</time>
      </trkpt>
      <trkpt lat="42.28963" lon="2.1916">
        <ele>1479</ele>
        <time>2010-01-01T00:23:19Z</time>
      </trkpt>
      <trkpt lat="42.28961" lon="2.1916">
        <ele>1479</ele>
        <time>2010-01-01T00:23:20Z</time>
      </trkpt>
      <trkpt lat="42.28959" lon="2.19161">
        <ele>1480</ele>
        <time>2010-01-01T00:23:21Z</time>
      </trkpt>
      <trkpt lat="42.28956" lon="2.19161">
        <ele>1480</ele>
        <time>2010-01-01T00:23:22Z</time>
      </trkpt>
      <trkpt lat="42.28954" lon="2.19161">
        <ele>1481</ele>
        <time>2010-01-01T00:23:23Z</time>
      </trkpt>
      <trkpt lat="42.28952" lon="2.19163">
        <ele>1482</ele>
        <time>2010-01-01T00:23:24Z</time>
      </trkpt>
      <trkpt lat="42.28949" lon="2.19163">
        <ele>1482</ele>
        <time>2010-01-01T00:23:25Z</time>
      </trkpt>
      <trkpt lat="42.28947" lon="2.19163">
        <ele>1482</ele>
        <time>2010-01-01T00:23:26Z</time>
      </trkpt>
      <trkpt lat="42.28945" lon="2.19163">
        <ele>1483</ele>
        <time>2010-01-01T00:23:26Z</time>
      </trkpt>
      <trkpt lat="42.28943" lon="2.19164">
        <ele>1484</ele>
        <time>2010-01-01T00:23:27Z</time>
      </trkpt>
      <trkpt lat="42.2894" lon="2.19165">
        <ele>1484</ele>
        <time>2010-01-01T00:23:28Z</time>
      </trkpt>
      <trkpt lat="42.28938" lon="2.19166">
        <ele>1484</ele>
        <time>2010-01-01T00:23:29Z</time>
      </trkpt>
      <trkpt lat="42.28936" lon="2.19166">
        <ele>1485</ele>
        <time>2010-01-01T00:23:30Z</time>
      </trkpt>
      <trkpt lat="42.28934" lon="2.19167">
        <ele>1485</ele>
        <time>2010-01-01T00:23:31Z</time>
      </trkpt>
      <trkpt lat="42.28932" lon="2.19168">
        <ele>1485</ele>
        <time>2010-01-01T00:23:32Z</time>
      </trkpt>
      <trkpt lat="42.2893" lon="2.19169">
        <ele>1486</ele>
        <time>2010-01-01T00:23:33Z</time>
      </trkpt>
      <trkpt lat="42.28928" lon="2.1917">
        <ele>1487</ele>
        <time>2010-01-01T00:23:34Z</time>
      </trkpt>
      <trkpt lat="42.28925" lon="2.19171">
        <ele>1487</ele>
        <time>2010-01-01T00:23:35Z</time>
      </trkpt>
      <trkpt lat="42.28923" lon="2.19172">
        <ele>1488</ele>
        <time>2010-01-01T00:23:36Z</time>
      </trkpt>
      <trkpt lat="42.2892" lon="2.19172">
        <ele>1488</ele>
        <time>2010-01-01T00:23:37Z</time>
      </trkpt>
      <trkpt lat="42.28918" lon="2.19173">
        <ele>1488</ele>
        <time>2010-01-01T00:23:38Z</time>
      </trkpt>
      <trkpt lat="42.28916" lon="2.19173">
        <ele>1489</ele>
        <time>2010-01-01T00:23:38Z</time>
      </trkpt>
      <trkpt lat="42.28914" lon="2.19174">
        <ele>1489</ele>
        <time>2010-01-01T00:23:39Z</time>
      </trkpt>
      <trkpt lat="42.28912" lon="2.19175">
        <ele>1489</ele>
        <time>2010-01-01T00:23:40Z</time>
      </trkpt>
      <trkpt lat="42.2891" lon="2.19176">
        <ele>1490</ele>
        <time>2010-01-01T00:23:41Z</time>
      </trkpt>
      <trkpt lat="42.28909" lon="2.19178">
        <ele>1491</ele>
        <time>2010-01-01T00:23:42Z</time>
      </trkpt>
      <trkpt lat="42.28906" lon="2.19179">
        <ele>1491</ele>
        <time>2010-01-01T00:23:43Z</time>
      </trkpt>
      <trkpt lat="42.28904" lon="2.1918">
        <ele>1492</ele>
        <time>2010-01-01T00:23:44Z</time>
      </trkpt>
      <trkpt lat="42.28902" lon="2.19182">
        <ele>1493</ele>
        <time>2010-01-01T00:23:44Z</time>
      </trkpt>
      <trkpt lat="42.289" lon="2.19183">
        <ele>1493</ele>
        <time>2010-01-01T00:23:45Z</time>
      </trkpt>
      <trkpt lat="42.28898" lon="2.19184">
        <ele>1494</ele>
        <time>2010-01-01T00:23:46Z</time>
      </trkpt>
      <trkpt lat="42.28895" lon="2.19184">
        <ele>1494</ele>
        <time>2010-01-01T00:23:47Z</time>
      </trkpt>
      <trkpt lat="42.28894" lon="2.19186">
        <ele>1495</ele>
        <time>2010-01-01T00:23:48Z</time>
      </trkpt>
      <trkpt lat="42.28892" lon="2.19187">
        <ele>1496</ele>
        <time>2010-01-01T00:23:49Z</time>
      </trkpt>
      <trkpt lat="42.28889" lon="2.19188">
        <ele>1496</ele>
        <time>2010-01-01T00:23:50Z</time>
      </trkpt>
      <trkpt lat="42.28888" lon="2.19191">
        <ele>1497</ele>
        <time>2010-01-01T00:23:51Z</time>
      </trkpt>
      <trkpt lat="42.28886" lon="2.19192">
        <ele>1498</ele>
        <time>2010-01-01T00:23:52Z</time>
      </trkpt>
      <trkpt lat="42.28884" lon="2.19194">
        <ele>1499</ele>
        <time>2010-01-01T00:23:53Z</time>
      </trkpt>
      <trkpt lat="42.28882" lon="2.19196">
        <ele>1500</ele>
        <time>2010-01-01T00:23:54Z</time>
      </trkpt>
      <trkpt lat="42.2888" lon="2.19197">
        <ele>1501</ele>
        <time>2010-01-01T00:23:55Z</time>
      </trkpt>
      <trkpt lat="42.28878" lon="2.192">
        <ele>1502</ele>
        <time>2010-01-01T00:23:56Z</time>
      </trkpt>
      <trkpt lat="42.28876" lon="2.19201">
        <ele>1503</ele>
        <time>2010-01-01T00:23:57Z</time>
      </trkpt>
      <trkpt lat="42.28874" lon="2.19203">
        <ele>1503</ele>
        <time>2010-01-01T00:23:58Z</time>
      </trkpt>
      <trkpt lat="42.28872" lon="2.19204">
        <ele>1504</ele>
        <time>2010-01-01T00:23:58Z</time>
      </trkpt>
      <trkpt lat="42.2887" lon="2.19206">
        <ele>1505</ele>
        <time>2010-01-01T00:24:00Z</time>
      </trkpt>
      <trkpt lat="42.28868" lon="2.19207">
        <ele>1506</ele>
        <time>2010-01-01T00:24:00Z</time>
      </trkpt>
      <trkpt lat="42.28866" lon="2.19208">
        <ele>1506</ele>
        <time>2010-01-01T00:24:01Z</time>
      </trkpt>
      <trkpt lat="42.28864" lon="2.1921">
        <ele>1507</ele>
        <time>2010-01-01T00:24:02Z</time>
      </trkpt>
      <trkpt lat="42.28861" lon="2.19211">
        <ele>1507</ele>
        <time>2010-01-01T00:24:03Z</time>
      </trkpt>
      <trkpt lat="42.28859" lon="2.19211">
        <ele>1508</ele>
        <time>2010-01-01T00:24:04Z</time>
      </trkpt>
      <trkpt lat="42.28856" lon="2.19211">
        <ele>1508</ele>
        <time>2010-01-01T00:24:06Z</time>
      </trkpt>
      <trkpt lat="42.28853" lon="2.19211">
        <ele>1508</ele>
        <time>2010-01-01T00:24:07Z</time>
      </trkpt>
      <trkpt lat="42.2885" lon="2.19212">
        <ele>1509</ele>
        <time>2010-01-01T00:24:08Z</time>
      </trkpt>
      <trkpt lat="42.28847" lon="2.19213">
        <ele>1509</ele>
        <time>2010-01-01T00:24:09Z</time>
      </trkpt>
      <trkpt lat="42.28839" lon="2.19218">
        <ele>1512</ele>
        <time>2010-01-01T00:24:13Z</time>
      </trkpt>
      <trkpt lat="42.28836" lon="2.19219">
        <ele>1512</ele>
        <time>2010-01-01T00:24:14Z</time>
      </trkpt>
      <trkpt lat="42.2883" lon="2.19218">
        <ele>1513</ele>
        <time>2010-01-01T00:24:16Z</time>
      </trkpt>
      <trkpt lat="42.28826" lon="2.19215">
        <ele>1513</ele>
        <time>2010-01-01T00:24:18Z</time>
      </trkpt>
      <trkpt lat="42.28822" lon="2.19212">
        <ele>1514</ele>
        <time>2010-01-01T00:24:20Z</time>
      </trkpt>
      <trkpt lat="42.2882" lon="2.1921">
        <ele>1514</ele>
        <time>2010-01-01T00:24:21Z</time>
      </trkpt>
      <trkpt lat="42.28818" lon="2.19207">
        <ele>1514</ele>
        <time>2010-01-01T00:24:22Z</time>
      </trkpt>
      <trkpt lat="42.28817" lon="2.19205">
        <ele>1514</ele>
        <time>2010-01-01T00:24:23Z</time>
      </trkpt>
      <trkpt lat="42.28816" lon="2.19202">
        <ele>1513</ele>
        <time>2010-01-01T00:24:24Z</time>
      </trkpt>
      <trkpt lat="42.28814" lon="2.19199">
        <ele>1513</ele>
        <time>2010-01-01T00:24:25Z</time>
      </trkpt>
      <trkpt lat="42.28813" lon="2.19196">
        <ele>1513</ele>
        <time>2010-01-01T00:24:26Z</time>
      </trkpt>
      <trkpt lat="42.28812" lon="2.19194">
        <ele>1513</ele>
        <time>2010-01-01T00:24:27Z</time>
      </trkpt>
      <trkpt lat="42.28809" lon="2.19191">
        <ele>1513</ele>
        <time>2010-01-01T00:24:28Z</time>
      </trkpt>
      <trkpt lat="42.28807" lon="2.19189">
        <ele>1514</ele>
        <time>2010-01-01T00:24:29Z</time>
      </trkpt>
      <trkpt lat="42.28806" lon="2.19187">
        <ele>1514</ele>
        <time>2010-01-01T00:24:30Z</time>
      </trkpt>
      <trkpt lat="42.28804" lon="2.19184">
        <ele>1514</ele>
        <time>2010-01-01T00:24:31Z</time>
      </trkpt>
      <trkpt lat="42.28803" lon="2.19182">
        <ele>1514</ele>
        <time>2010-01-01T00:24:32Z</time>
      </trkpt>
      <trkpt lat="42.28801" lon="2.1918">
        <ele>1515</ele>
        <time>2010-01-01T00:24:33Z</time>
      </trkpt>
      <trkpt lat="42.28799" lon="2.19178">
        <ele>1515</ele>
        <time>2010-01-01T00:24:34Z</time>
      </trkpt>
      <trkpt lat="42.28797" lon="2.19176">
        <ele>1515</ele>
        <time>2010-01-01T00:24:35Z</time>
      </trkpt>
      <trkpt lat="42.28795" lon="2.19174">
        <ele>1516</ele>
        <time>2010-01-01T00:24:36Z</time>
      </trkpt>
      <trkpt lat="42.28793" lon="2.19171">
        <ele>1516</ele>
        <time>2010-01-01T00:24:37Z</time>
      </trkpt>
      <trkpt lat="42.28792" lon="2.19167">
        <ele>1516</ele>
        <time>2010-01-01T00:24:38Z</time>
      </trkpt>
      <trkpt lat="42.2879" lon="2.19164">
        <ele>1516</ele>
        <time>2010-01-01T00:24:39Z</time>
      </trkpt>
      <trkpt lat="42.28789" lon="2.19161">
        <ele>1516</ele>
        <time>2010-01-01T00:24:40Z</time>
      </trkpt>
      <trkpt lat="42.28786" lon="2.1916">
        <ele>1516</ele>
        <time>2010-01-01T00:24:41Z</time>
      </trkpt>
      <trkpt lat="42.28784" lon="2.19158">
        <ele>1516</ele>
        <time>2010-01-01T00:24:42Z</time>
      </trkpt>
      <trkpt lat="42.28782" lon="2.19156">
        <ele>1517</ele>
        <time>2010-01-01T00:24:43Z</time>
      </trkpt>
      <trkpt lat="42.28781" lon="2.19152">
        <ele>1516</ele>
        <time>2010-01-01T00:24:45Z</time>
      </trkpt>
      <trkpt lat="42.2878" lon="2.19149">
        <ele>1516</ele>
        <time>2010-01-01T00:24:46Z</time>
      </trkpt>
      <trkpt lat="42.28779" lon="2.19147">
        <ele>1516</ele>
        <time>2010-01-01T00:24:46Z</time>
      </trkpt>
      <trkpt lat="42.28777" lon="2.19145">
        <ele>1516</ele>
        <time>2010-01-01T00:24:47Z</time>
      </trkpt>
      <trkpt lat="42.28776" lon="2.19143">
        <ele>1516</ele>
        <time>2010-01-01T00:24:48Z</time>
      </trkpt>
      <trkpt lat="42.28774" lon="2.19141">
        <ele>1516</ele>
        <time>2010-01-01T00:24:49Z</time>
      </trkpt>
      <trkpt lat="42.28772" lon="2.1914">
        <ele>1516</ele>
        <time>2010-01-01T00:24:50Z</time>
      </trkpt>
      <trkpt lat="42.28771" lon="2.19137">
        <ele>1516</ele>
        <time>2010-01-01T00:24:51Z</time>
      </trkpt>
      <trkpt lat="42.2877" lon="2.19136">
        <ele>1516</ele>
        <time>2010-01-01T00:24:51Z</time>
      </trkpt>
      <trkpt lat="42.28768" lon="2.19134">
        <ele>1516</ele>
        <time>2010-01-01T00:24:52Z</time>
      </trkpt>
      <trkpt lat="42.28766" lon="2.19132">
        <ele>1516</ele>
        <time>2010-01-01T00:24:53Z</time>
      </trkpt>
      <trkpt lat="42.28764" lon="2.19129">
        <ele>1516</ele>
        <time>2010-01-01T00:24:54Z</time>
      </trkpt>
      <trkpt lat="42.28762" lon="2.19128">
        <ele>1516</ele>
        <time>2010-01-01T00:24:55Z</time>
      </trkpt>
      <trkpt lat="42.28761" lon="2.19126">
        <ele>1516</ele>
        <time>2010-01-01T00:24:56Z</time>
      </trkpt>
      <trkpt lat="42.2876" lon="2.19124">
        <ele>1516</ele>
        <time>2010-01-01T00:24:57Z</time>
      </trkpt>
      <trkpt lat="42.28758" lon="2.19123">
        <ele>1516</ele>
        <time>2010-01-01T00:24:57Z</time>
      </trkpt>
      <trkpt lat="42.28757" lon="2.19121">
        <ele>1516</ele>
        <time>2010-01-01T00:24:58Z</time>
      </trkpt>
      <trkpt lat="42.28754" lon="2.1912">
        <ele>1517</ele>
        <time>2010-01-01T00:24:59Z</time>
      </trkpt>
      <trkpt lat="42.28753" lon="2.19118">
        <ele>1517</ele>
        <time>2010-01-01T00:25:00Z</time>
      </trkpt>
      <trkpt lat="42.28751" lon="2.19117">
        <ele>1517</ele>
        <time>2010-01-01T00:25:01Z</time>
      </trkpt>
      <trkpt lat="42.2875" lon="2.19115">
        <ele>1517</ele>
        <time>2010-01-01T00:25:01Z</time>
      </trkpt>
      <trkpt lat="42.28748" lon="2.19114">
        <ele>1517</ele>
        <time>2010-01-01T00:25:02Z</time>
      </trkpt>
      <trkpt lat="42.28747" lon="2.19112">
        <ele>1517</ele>
        <time>2010-01-01T00:25:03Z</time>
      </trkpt>
      <trkpt lat="42.28745" lon="2.1911">
        <ele>1517</ele>
        <time>2010-01-01T00:25:04Z</time>
      </trkpt>
      <trkpt lat="42.28744" lon="2.19108">
        <ele>1517</ele>
        <time>2010-01-01T00:25:05Z</time>
      </trkpt>
      <trkpt lat="42.28742" lon="2.19106">
        <ele>1518</ele>
        <time>2010-01-01T00:25:06Z</time>
      </trkpt>
      <trkpt lat="42.2874" lon="2.19104">
        <ele>1518</ele>
        <time>2010-01-01T00:25:06Z</time>
      </trkpt>
      <trkpt lat="42.28738" lon="2.19104">
        <ele>1518</ele>
        <time>2010-01-01T00:25:07Z</time>
      </trkpt>
      <trkpt lat="42.28736" lon="2.19102">
        <ele>1518</ele>
        <time>2010-01-01T00:25:08Z</time>
      </trkpt>
      <trkpt lat="42.28735" lon="2.19101">
        <ele>1518</ele>
        <time>2010-01-01T00:25:09Z</time>
      </trkpt>
      <trkpt lat="42.28733" lon="2.191">
        <ele>1519</ele>
        <time>2010-01-01T00:25:10Z</time>
      </trkpt>
      <trkpt lat="42.28731" lon="2.19098">
        <ele>1519</ele>
        <time>2010-01-01T00:25:10Z</time>
      </trkpt>
      <trkpt lat="42.2873" lon="2.19097">
        <ele>1519</ele>
        <time>2010-01-01T00:25:11Z</time>
      </trkpt>
      <trkpt lat="42.28727" lon="2.19096">
        <ele>1519</ele>
        <time>2010-01-01T00:25:12Z</time>
      </trkpt>
      <trkpt lat="42.28725" lon="2.19095">
        <ele>1520</ele>
        <time>2010-01-01T00:25:13Z</time>
      </trkpt>
      <trkpt lat="42.28723" lon="2.19094">
        <ele>1520</ele>
        <time>2010-01-01T00:25:14Z</time>
      </trkpt>
      <trkpt lat="42.2872" lon="2.19094">
        <ele>1520</ele>
        <time>2010-01-01T00:25:15Z</time>
      </trkpt>
      <trkpt lat="42.28718" lon="2.19093">
        <ele>1521</ele>
        <time>2010-01-01T00:25:16Z</time>
      </trkpt>
      <trkpt lat="42.28715" lon="2.19093">
        <ele>1521</ele>
        <time>2010-01-01T00:25:17Z</time>
      </trkpt>
      <trkpt lat="42.28712" lon="2.19092">
        <ele>1521</ele>
        <time>2010-01-01T00:25:18Z</time>
      </trkpt>
      <trkpt lat="42.2871" lon="2.19091">
        <ele>1521</ele>
        <time>2010-01-01T00:25:19Z</time>
      </trkpt>
      <trkpt lat="42.28707" lon="2.19091">
        <ele>1522</ele>
        <time>2010-01-01T00:25:20Z</time>
      </trkpt>
      <trkpt lat="42.28705" lon="2.19091">
        <ele>1522</ele>
        <time>2010-01-01T00:25:21Z</time>
      </trkpt>
      <trkpt lat="42.28702" lon="2.19091">
        <ele>1523</ele>
        <time>2010-01-01T00:25:22Z</time>
      </trkpt>
      <trkpt lat="42.287" lon="2.19091">
        <ele>1523</ele>
        <time>2010-01-01T00:25:23Z</time>
      </trkpt>
      <trkpt lat="42.28697" lon="2.19091">
        <ele>1523</ele>
        <time>2010-01-01T00:25:25Z</time>
      </trkpt>
      <trkpt lat="42.28694" lon="2.19092">
        <ele>1524</ele>
        <time>2010-01-01T00:25:25Z</time>
      </trkpt>
      <trkpt lat="42.28692" lon="2.19092">
        <ele>1524</ele>
        <time>2010-01-01T00:25:26Z</time>
      </trkpt>
      <trkpt lat="42.2869" lon="2.19093">
        <ele>1524</ele>
        <time>2010-01-01T00:25:27Z</time>
      </trkpt>
      <trkpt lat="42.28687" lon="2.19093">
        <ele>1525</ele>
        <time>2010-01-01T00:25:28Z</time>
      </trkpt>
      <trkpt lat="42.28685" lon="2.19093">
        <ele>1525</ele>
        <time>2010-01-01T00:25:29Z</time>
      </trkpt>
      <trkpt lat="42.28682" lon="2.19093">
        <ele>1525</ele>
        <time>2010-01-01T00:25:31Z</time>
      </trkpt>
      <trkpt lat="42.28679" lon="2.19094">
        <ele>1526</ele>
        <time>2010-01-01T00:25:32Z</time>
      </trkpt>
      <trkpt lat="42.28677" lon="2.19094">
        <ele>1526</ele>
        <time>2010-01-01T00:25:33Z</time>
      </trkpt>
      <trkpt lat="42.28674" lon="2.19095">
        <ele>1526</ele>
        <time>2010-01-01T00:25:34Z</time>
      </trkpt>
      <trkpt lat="42.28671" lon="2.19095">
        <ele>1527</ele>
        <time>2010-01-01T00:25:35Z</time>
      </trkpt>
      <trkpt lat="42.28669" lon="2.19095">
        <ele>1527</ele>
        <time>2010-01-01T00:25:36Z</time>
      </trkpt>
      <trkpt lat="42.28666" lon="2.19095">
        <ele>1527</ele>
        <time>2010-01-01T00:25:37Z</time>
      </trkpt>
      <trkpt lat="42.28663" lon="2.19095">
        <ele>1527</ele>
        <time>2010-01-01T00:25:38Z</time>
      </trkpt>
      <trkpt lat="42.2866" lon="2.19095">
        <ele>1527</ele>
        <time>2010-01-01T00:25:39Z</time>
      </trkpt>
      <trkpt lat="42.28657" lon="2.19096">
        <ele>1528</ele>
        <time>2010-01-01T00:25:40Z</time>
      </trkpt>
      <trkpt lat="42.28655" lon="2.19097">
        <ele>1528</ele>
        <time>2010-01-01T00:25:41Z</time>
      </trkpt>
      <trkpt lat="42.28652" lon="2.19098">
        <ele>1528</ele>
        <time>2010-01-01T00:25:42Z</time>
      </trkpt>
      <trkpt lat="42.2865" lon="2.19099">
        <ele>1529</ele>
        <time>2010-01-01T00:25:44Z</time>
      </trkpt>
      <trkpt lat="42.28647" lon="2.191">
        <ele>1529</ele>
        <time>2010-01-01T00:25:45Z</time>
      </trkpt>
      <trkpt lat="42.28644" lon="2.19101">
        <ele>1529</ele>
        <time>2010-01-01T00:25:46Z</time>
      </trkpt>
      <trkpt lat="42.28641" lon="2.19101">
        <ele>1529</ele>
        <time>2010-01-01T00:25:47Z</time>
      </trkpt>
      <trkpt lat="42.28638" lon="2.191">
        <ele>1529</ele>
        <time>2010-01-01T00:25:48Z</time>
      </trkpt>
      <trkpt lat="42.28635" lon="2.191">
        <ele>1529</ele>
        <time>2010-01-01T00:25:50Z</time>
      </trkpt>
      <trkpt lat="42.28632" lon="2.19099">
        <ele>1528</ele>
        <time>2010-01-01T00:25:51Z</time>
      </trkpt>
      <trkpt lat="42.28629" lon="2.19098">
        <ele>1527</ele>
        <time>2010-01-01T00:25:52Z</time>
      </trkpt>
      <trkpt lat="42.28626" lon="2.19097">
        <ele>1526</ele>
        <time>2010-01-01T00:25:53Z</time>
      </trkpt>
      <trkpt lat="42.28624" lon="2.19095">
        <ele>1526</ele>
        <time>2010-01-01T00:25:54Z</time>
      </trkpt>
      <trkpt lat="42.28621" lon="2.19094">
        <ele>1525</ele>
        <time>2010-01-01T00:25:55Z</time>
      </trkpt>
      <trkpt lat="42.28618" lon="2.19093">
        <ele>1524</ele>
        <time>2010-01-01T00:25:57Z</time>
      </trkpt>
      <trkpt lat="42.28615" lon="2.19092">
        <ele>1523</ele>
        <time>2010-01-01T00:25:58Z</time>
      </trkpt>
      <trkpt lat="42.28612" lon="2.19092">
        <ele>1523</ele>
        <time>2010-01-01T00:25:59Z</time>
      </trkpt>
      <trkpt lat="42.2861" lon="2.19092">
        <ele>1523</ele>
        <time>2010-01-01T00:26:00Z</time>
      </trkpt>
      <trkpt lat="42.28607" lon="2.19093">
        <ele>1523</ele>
        <time>2010-01-01T00:26:01Z</time>
      </trkpt>
      <trkpt lat="42.28604" lon="2.19093">
        <ele>1523</ele>
        <time>2010-01-01T00:26:02Z</time>
      </trkpt>
      <trkpt lat="42.28601" lon="2.19092">
        <ele>1522</ele>
        <time>2010-01-01T00:26:03Z</time>
      </trkpt>
      <trkpt lat="42.28599" lon="2.19092">
        <ele>1522</ele>
        <time>2010-01-01T00:26:04Z</time>
      </trkpt>
      <trkpt lat="42.28597" lon="2.19092">
        <ele>1522</ele>
        <time>2010-01-01T00:26:05Z</time>
      </trkpt>
      <trkpt lat="42.28596" lon="2.19091">
        <ele>1522</ele>
        <time>2010-01-01T00:26:06Z</time>
      </trkpt>
      <trkpt lat="42.28593" lon="2.19089">
        <ele>1522</ele>
        <time>2010-01-01T00:26:07Z</time>
      </trkpt>
      <trkpt lat="42.28592" lon="2.19085">
        <ele>1521</ele>
        <time>2010-01-01T00:26:08Z</time>
      </trkpt>
      <trkpt lat="42.28592" lon="2.19081">
        <ele>1520</ele>
        <time>2010-01-01T00:26:09Z</time>
      </trkpt>
      <trkpt lat="42.28592" lon="2.19077">
        <ele>1519</ele>
        <time>2010-01-01T00:26:11Z</time>
      </trkpt>
      <trkpt lat="42.28592" lon="2.19072">
        <ele>1518</ele>
        <time>2010-01-01T00:26:12Z</time>
      </trkpt>
      <trkpt lat="42.28593" lon="2.19068">
        <ele>1517</ele>
        <time>2010-01-01T00:26:13Z</time>
      </trkpt>
      <trkpt lat="42.28593" lon="2.19062">
        <ele>1516</ele>
        <time>2010-01-01T00:26:15Z</time>
      </trkpt>
      <trkpt lat="42.28592" lon="2.19055">
        <ele>1515</ele>
        <time>2010-01-01T00:26:17Z</time>
      </trkpt>
      <trkpt lat="42.2859" lon="2.19051">
        <ele>1514</ele>
        <time>2010-01-01T00:26:19Z</time>
      </trkpt>
      <trkpt lat="42.28587" lon="2.19047">
        <ele>1513</ele>
        <time>2010-01-01T00:26:20Z</time>
      </trkpt>
      <trkpt lat="42.28584" lon="2.19044">
        <ele>1513</ele>
        <time>2010-01-01T00:26:22Z</time>
      </trkpt>
      <trkpt lat="42.28578" lon="2.19041">
        <ele>1512</ele>
        <time>2010-01-01T00:26:24Z</time>
      </trkpt>
      <trkpt lat="42.28575" lon="2.19039">
        <ele>1512</ele>
        <time>2010-01-01T00:26:26Z</time>
      </trkpt>
      <trkpt lat="42.28571" lon="2.19036">
        <ele>1512</ele>
        <time>2010-01-01T00:26:28Z</time>
      </trkpt>
      <trkpt lat="42.28567" lon="2.19034">
        <ele>1511</ele>
        <time>2010-01-01T00:26:29Z</time>
      </trkpt>
      <trkpt lat="42.28564" lon="2.19029">
        <ele>1510</ele>
        <time>2010-01-01T00:26:31Z</time>
      </trkpt>
      <trkpt lat="42.28562" lon="2.19023">
        <ele>1509</ele>
        <time>2010-01-01T00:26:33Z</time>
      </trkpt>
      <trkpt lat="42.28559" lon="2.19018">
        <ele>1507</ele>
        <time>2010-01-01T00:26:35Z</time>
      </trkpt>
      <trkpt lat="42.28557" lon="2.19013">
        <ele>1506</ele>
        <time>2010-01-01T00:26:36Z</time>
      </trkpt>
      <trkpt lat="42.28553" lon="2.19009">
        <ele>1505</ele>
        <time>2010-01-01T00:26:39Z</time>
      </trkpt>
      <trkpt lat="42.2855" lon="2.19006">
        <ele>1504</ele>
        <time>2010-01-01T00:26:40Z</time>
      </trkpt>
      <trkpt lat="42.28544" lon="2.19002">
        <ele>1503</ele>
        <time>2010-01-01T00:26:42Z</time>
      </trkpt>
      <trkpt lat="42.28541" lon="2.18999">
        <ele>1502</ele>
        <time>2010-01-01T00:26:44Z</time>
      </trkpt>
      <trkpt lat="42.28537" lon="2.18997">
        <ele>1501</ele>
        <time>2010-01-01T00:26:46Z</time>
      </trkpt>
      <trkpt lat="42.28532" lon="2.18995">
        <ele>1501</ele>
        <time>2010-01-01T00:26:48Z</time>
      </trkpt>
      <trkpt lat="42.28528" lon="2.18993">
        <ele>1500</ele>
        <time>2010-01-01T00:26:50Z</time>
      </trkpt>
      <trkpt lat="42.28524" lon="2.18991">
        <ele>1500</ele>
        <time>2010-01-01T00:26:51Z</time>
      </trkpt>
      <trkpt lat="42.28521" lon="2.18986">
        <ele>1498</ele>
        <time>2010-01-01T00:26:53Z</time>
      </trkpt>
      <trkpt lat="42.28518" lon="2.1898">
        <ele>1497</ele>
        <time>2010-01-01T00:26:56Z</time>
      </trkpt>
      <trkpt lat="42.28515" lon="2.18973">
        <ele>1496</ele>
        <time>2010-01-01T00:26:58Z</time>
      </trkpt>
      <trkpt lat="42.28513" lon="2.18967">
        <ele>1495</ele>
        <time>2010-01-01T00:27:00Z</time>
      </trkpt>
      <trkpt lat="42.28511" lon="2.18961">
        <ele>1493</ele>
        <time>2010-01-01T00:27:02Z</time>
      </trkpt>
      <trkpt lat="42.28511" lon="2.18954">
        <ele>1492</ele>
        <time>2010-01-01T00:27:04Z</time>
      </trkpt>
      <trkpt lat="42.28512" lon="2.18947">
        <ele>1490</ele>
        <time>2010-01-01T00:27:06Z</time>
      </trkpt>
      <trkpt lat="42.28515" lon="2.18942">
        <ele>1489</ele>
        <time>2010-01-01T00:27:08Z</time>
      </trkpt>
      <trkpt lat="42.28519" lon="2.18938">
        <ele>1489</ele>
        <time>2010-01-01T00:27:10Z</time>
      </trkpt>
      <trkpt lat="42.28522" lon="2.18933">
        <ele>1487</ele>
        <time>2010-01-01T00:27:12Z</time>
      </trkpt>
      <trkpt lat="42.28523" lon="2.18927">
        <ele>1486</ele>
        <time>2010-01-01T00:27:14Z</time>
      </trkpt>
      <trkpt lat="42.28523" lon="2.18921">
        <ele>1484</ele>
        <time>2010-01-01T00:27:15Z</time>
      </trkpt>
      <trkpt lat="42.2852" lon="2.18916">
        <ele>1483</ele>
        <time>2010-01-01T00:27:17Z</time>
      </trkpt>
      <trkpt lat="42.28518" lon="2.18913">
        <ele>1482</ele>
        <time>2010-01-01T00:27:18Z</time>
      </trkpt>
      <trkpt lat="42.28514" lon="2.18909">
        <ele>1482</ele>
        <time>2010-01-01T00:27:20Z</time>
      </trkpt>
      <trkpt lat="42.28511" lon="2.18907">
        <ele>1481</ele>
        <time>2010-01-01T00:27:22Z</time>
      </trkpt>
      <trkpt lat="42.28508" lon="2.18904">
        <ele>1481</ele>
        <time>2010-01-01T00:27:23Z</time>
      </trkpt>
      <trkpt lat="42.28505" lon="2.189">
        <ele>1481</ele>
        <time>2010-01-01T00:27:25Z</time>
      </trkpt>
      <trkpt lat="42.28501" lon="2.18896">
        <ele>1480</ele>
        <time>2010-01-01T00:27:27Z</time>
      </trkpt>
      <trkpt lat="42.28497" lon="2.18892">
        <ele>1480</ele>
        <time>2010-01-01T00:27:29Z</time>
      </trkpt>
      <trkpt lat="42.28493" lon="2.18887">
        <ele>1480</ele>
        <time>2010-01-01T00:27:31Z</time>
      </trkpt>
      <trkpt lat="42.28488" lon="2.18883">
        <ele>1480</ele>
        <time>2010-01-01T00:27:33Z</time>
      </trkpt>
      <trkpt lat="42.28484" lon="2.18878">
        <ele>1480</ele>
        <time>2010-01-01T00:27:35Z</time>
      </trkpt>
      <trkpt lat="42.2848" lon="2.18872">
        <ele>1480</ele>
        <time>2010-01-01T00:27:38Z</time>
      </trkpt>
      <trkpt lat="42.28477" lon="2.18866">
        <ele>1480</ele>
        <time>2010-01-01T00:27:40Z</time>
      </trkpt>
      <trkpt lat="42.28474" lon="2.1886">
        <ele>1480</ele>
        <time>2010-01-01T00:27:42Z</time>
      </trkpt>
      <trkpt lat="42.28472" lon="2.18853">
        <ele>1479</ele>
        <time>2010-01-01T00:27:44Z</time>
      </trkpt>
      <trkpt lat="42.2847" lon="2.18848">
        <ele>1478</ele>
        <time>2010-01-01T00:27:46Z</time>
      </trkpt>
      <trkpt lat="42.28468" lon="2.18845">
        <ele>1478</ele>
        <time>2010-01-01T00:27:47Z</time>
      </trkpt>
      <trkpt lat="42.28467" lon="2.18844">
        <ele>1478</ele>
        <time>2010-01-01T00:27:48Z</time>
      </trkpt>
      <trkpt lat="42.28465" lon="2.18842">
        <ele>1478</ele>
        <time>2010-01-01T00:27:49Z</time>
      </trkpt>
      <trkpt lat="42.28463" lon="2.1884">
        <ele>1478</ele>
        <time>2010-01-01T00:27:50Z</time>
      </trkpt>
      <trkpt lat="42.28461" lon="2.18834">
        <ele>1477</ele>
        <time>2010-01-01T00:27:52Z</time>
      </trkpt>
      <trkpt lat="42.28458" lon="2.1883">
        <ele>1476</ele>
        <time>2010-01-01T00:27:54Z</time>
      </trkpt>
      <trkpt lat="42.28455" lon="2.18826">
        <ele>1476</ele>
        <time>2010-01-01T00:27:55Z</time>
      </trkpt>
      <trkpt lat="42.28453" lon="2.1882">
        <ele>1474</ele>
        <time>2010-01-01T00:27:57Z</time>
      </trkpt>
      <trkpt lat="42.28452" lon="2.18815">
        <ele>1473</ele>
        <time>2010-01-01T00:27:59Z</time>
      </trkpt>
      <trkpt lat="42.2845" lon="2.1881">
        <ele>1472</ele>
        <time>2010-01-01T00:28:00Z</time>
      </trkpt>
      <trkpt lat="42.28448" lon="2.18806">
        <ele>1471</ele>
        <time>2010-01-01T00:28:02Z</time>
      </trkpt>
      <trkpt lat="42.28446" lon="2.18801">
        <ele>1470</ele>
        <time>2010-01-01T00:28:03Z</time>
      </trkpt>
      <trkpt lat="42.28443" lon="2.18797">
        <ele>1469</ele>
        <time>2010-01-01T00:28:05Z</time>
      </trkpt>
      <trkpt lat="42.28439" lon="2.18792">
        <ele>1468</ele>
        <time>2010-01-01T00:28:07Z</time>
      </trkpt>
      <trkpt lat="42.28435" lon="2.18787">
        <ele>1467</ele>
        <time>2010-01-01T00:28:09Z</time>
      </trkpt>
      <trkpt lat="42.28432" lon="2.18781">
        <ele>1466</ele>
        <time>2010-01-01T00:28:12Z</time>
      </trkpt>
      <trkpt lat="42.28429" lon="2.18775">
        <ele>1464</ele>
        <time>2010-01-01T00:28:14Z</time>
      </trkpt>
      <trkpt lat="42.28426" lon="2.18768">
        <ele>1462</ele>
        <time>2010-01-01T00:28:16Z</time>
      </trkpt>
      <trkpt lat="42.28424" lon="2.18762">
        <ele>1460</ele>
        <time>2010-01-01T00:28:18Z</time>
      </trkpt>
      <trkpt lat="42.28423" lon="2.18756">
        <ele>1459</ele>
        <time>2010-01-01T00:28:20Z</time>
      </trkpt>
      <trkpt lat="42.28422" lon="2.1875">
        <ele>1457</ele>
        <time>2010-01-01T00:28:22Z</time>
      </trkpt>
      <trkpt lat="42.2842" lon="2.18744">
        <ele>1455</ele>
        <time>2010-01-01T00:28:24Z</time>
      </trkpt>
      <trkpt lat="42.28419" lon="2.18738">
        <ele>1453</ele>
        <time>2010-01-01T00:28:25Z</time>
      </trkpt>
      <trkpt lat="42.28417" lon="2.18733">
        <ele>1451</ele>
        <time>2010-01-01T00:28:27Z</time>
      </trkpt>
      <trkpt lat="42.28416" lon="2.1873">
        <ele>1450</ele>
        <time>2010-01-01T00:28:28Z</time>
      </trkpt>
      <trkpt lat="42.28414" lon="2.1873">
        <ele>1450</ele>
        <time>2010-01-01T00:28:29Z</time>
      </trkpt>
      <trkpt lat="42.28412" lon="2.18729">
        <ele>1449</ele>
        <time>2010-01-01T00:28:30Z</time>
      </trkpt>
      <trkpt lat="42.2841" lon="2.18728">
        <ele>1448</ele>
        <time>2010-01-01T00:28:31Z</time>
      </trkpt>
      <trkpt lat="42.28407" lon="2.18725">
        <ele>1447</ele>
        <time>2010-01-01T00:28:32Z</time>
      </trkpt>
      <trkpt lat="42.28406" lon="2.18723">
        <ele>1446</ele>
        <time>2010-01-01T00:28:33Z</time>
      </trkpt>
      <trkpt lat="42.28405" lon="2.18721">
        <ele>1445</ele>
        <time>2010-01-01T00:28:34Z</time>
      </trkpt>
      <trkpt lat="42.28403" lon="2.18719">
        <ele>1444</ele>
        <time>2010-01-01T00:28:34Z</time>
      </trkpt>
      <trkpt lat="42.28405" lon="2.18716">
        <ele>1443</ele>
        <time>2010-01-01T00:28:35Z</time>
      </trkpt>
      <trkpt lat="42.28406" lon="2.18713">
        <ele>1443</ele>
        <time>2010-01-01T00:28:37Z</time>
      </trkpt>
      <trkpt lat="42.28407" lon="2.18709">
        <ele>1442</ele>
        <time>2010-01-01T00:28:38Z</time>
      </trkpt>
      <trkpt lat="42.28408" lon="2.18705">
        <ele>1441</ele>
        <time>2010-01-01T00:28:39Z</time>
      </trkpt>
      <trkpt lat="42.28409" lon="2.18701">
        <ele>1440</ele>
        <time>2010-01-01T00:28:40Z</time>
      </trkpt>
      <trkpt lat="42.2841" lon="2.18696">
        <ele>1439</ele>
        <time>2010-01-01T00:28:42Z</time>
      </trkpt>
      <trkpt lat="42.28412" lon="2.18691">
        <ele>1438</ele>
        <time>2010-01-01T00:28:43Z</time>
      </trkpt>
      <trkpt lat="42.28414" lon="2.18686">
        <ele>1438</ele>
        <time>2010-01-01T00:28:45Z</time>
      </trkpt>
      <trkpt lat="42.28416" lon="2.18679">
        <ele>1436</ele>
        <time>2010-01-01T00:28:47Z</time>
      </trkpt>
      <trkpt lat="42.28418" lon="2.18674">
        <ele>1435</ele>
        <time>2010-01-01T00:28:49Z</time>
      </trkpt>
      <trkpt lat="42.28421" lon="2.1867">
        <ele>1434</ele>
        <time>2010-01-01T00:28:51Z</time>
      </trkpt>
      <trkpt lat="42.28425" lon="2.18666">
        <ele>1433</ele>
        <time>2010-01-01T00:28:53Z</time>
      </trkpt>
      <trkpt lat="42.28429" lon="2.18662">
        <ele>1433</ele>
        <time>2010-01-01T00:28:55Z</time>
      </trkpt>
      <trkpt lat="42.28431" lon="2.18656">
        <ele>1431</ele>
        <time>2010-01-01T00:28:57Z</time>
      </trkpt>
      <trkpt lat="42.28432" lon="2.18651">
        <ele>1430</ele>
        <time>2010-01-01T00:28:58Z</time>
      </trkpt>
      <trkpt lat="42.28433" lon="2.18645">
        <ele>1429</ele>
        <time>2010-01-01T00:29:00Z</time>
      </trkpt>
      <trkpt lat="42.28434" lon="2.18636">
        <ele>1427</ele>
        <time>2010-01-01T00:29:03Z</time>
      </trkpt>
      <trkpt lat="42.28438" lon="2.18631">
        <ele>1426</ele>
        <time>2010-01-01T00:29:05Z</time>
      </trkpt>
      <trkpt lat="42.28442" lon="2.18627">
        <ele>1425</ele>
        <time>2010-01-01T00:29:07Z</time>
      </trkpt>
      <trkpt lat="42.28445" lon="2.18622">
        <ele>1424</ele>
        <time>2010-01-01T00:29:09Z</time>
      </trkpt>
      <trkpt lat="42.28449" lon="2.18614">
        <ele>1423</ele>
        <time>2010-01-01T00:29:11Z</time>
      </trkpt>
      <trkpt lat="42.28452" lon="2.18606">
        <ele>1421</ele>
        <time>2010-01-01T00:29:14Z</time>
      </trkpt>
      <trkpt lat="42.28453" lon="2.18599">
        <ele>1420</ele>
        <time>2010-01-01T00:29:16Z</time>
      </trkpt>
      <trkpt lat="42.28454" lon="2.18592">
        <ele>1419</ele>
        <time>2010-01-01T00:29:18Z</time>
      </trkpt>
      <trkpt lat="42.28454" lon="2.18587">
        <ele>1418</ele>
        <time>2010-01-01T00:29:20Z</time>
      </trkpt>
      <trkpt lat="42.28452" lon="2.1858">
        <ele>1417</ele>
        <time>2010-01-01T00:29:22Z</time>
      </trkpt>
      <trkpt lat="42.28453" lon="2.18571">
        <ele>1415</ele>
        <time>2010-01-01T00:29:25Z</time>
      </trkpt>
      <trkpt lat="42.28455" lon="2.18562">
        <ele>1414</ele>
        <time>2010-01-01T00:29:28Z</time>
      </trkpt>
      <trkpt lat="42.28458" lon="2.18555">
        <ele>1413</ele>
        <time>2010-01-01T00:29:30Z</time>
      </trkpt>
      <trkpt lat="42.28459" lon="2.18549">
        <ele>1412</ele>
        <time>2010-01-01T00:29:32Z</time>
      </trkpt>
      <trkpt lat="42.28458" lon="2.18544">
        <ele>1412</ele>
        <time>2010-01-01T00:29:33Z</time>
      </trkpt>
      <trkpt lat="42.28456" lon="2.18538">
        <ele>1411</ele>
        <time>2010-01-01T00:29:35Z</time>
      </trkpt>
      <trkpt lat="42.28454" lon="2.18533">
        <ele>1410</ele>
        <time>2010-01-01T00:29:37Z</time>
      </trkpt>
      <trkpt lat="42.28453" lon="2.18527">
        <ele>1409</ele>
        <time>2010-01-01T00:29:39Z</time>
      </trkpt>
      <trkpt lat="42.28451" lon="2.18521">
        <ele>1409</ele>
        <time>2010-01-01T00:29:40Z</time>
      </trkpt>
      <trkpt lat="42.28451" lon="2.18515">
        <ele>1408</ele>
        <time>2010-01-01T00:29:42Z</time>
      </trkpt>
      <trkpt lat="42.28451" lon="2.18508">
        <ele>1408</ele>
        <time>2010-01-01T00:29:44Z</time>
      </trkpt>
      <trkpt lat="42.28453" lon="2.18502">
        <ele>1408</ele>
        <time>2010-01-01T00:29:46Z</time>
      </trkpt>
      <trkpt lat="42.28455" lon="2.18495">
        <ele>1408</ele>
        <time>2010-01-01T00:29:49Z</time>
      </trkpt>
      <trkpt lat="42.28458" lon="2.18488">
        <ele>1409</ele>
        <time>2010-01-01T00:29:51Z</time>
      </trkpt>
      <trkpt lat="42.28461" lon="2.18482">
        <ele>1409</ele>
        <time>2010-01-01T00:29:53Z</time>
      </trkpt>
      <trkpt lat="42.28462" lon="2.18476">
        <ele>1410</ele>
        <time>2010-01-01T00:29:55Z</time>
      </trkpt>
      <trkpt lat="42.28465" lon="2.18471">
        <ele>1411</ele>
        <time>2010-01-01T00:29:57Z</time>
      </trkpt>
      <trkpt lat="42.28468" lon="2.18465">
        <ele>1412</ele>
        <time>2010-01-01T00:29:59Z</time>
      </trkpt>
      <trkpt lat="42.28471" lon="2.18458">
        <ele>1412</ele>
        <time>2010-01-01T00:30:01Z</time>
      </trkpt>
      <trkpt lat="42.28473" lon="2.18452">
        <ele>1413</ele>
        <time>2010-01-01T00:30:03Z</time>
      </trkpt>
      <trkpt lat="42.28474" lon="2.18446">
        <ele>1413</ele>
        <time>2010-01-01T00:30:05Z</time>
      </trkpt>
      <trkpt lat="42.28475" lon="2.18439">
        <ele>1414</ele>
        <time>2010-01-01T00:30:07Z</time>
      </trkpt>
      <trkpt lat="42.28474" lon="2.18435">
        <ele>1414</ele>
        <time>2010-01-01T00:30:08Z</time>
      </trkpt>
      <trkpt lat="42.28473" lon="2.1843">
        <ele>1414</ele>
        <time>2010-01-01T00:30:10Z</time>
      </trkpt>
      <trkpt lat="42.28472" lon="2.18426">
        <ele>1414</ele>
        <time>2010-01-01T00:30:11Z</time>
      </trkpt>
      <trkpt lat="42.28471" lon="2.18421">
        <ele>1414</ele>
        <time>2010-01-01T00:30:13Z</time>
      </trkpt>
      <trkpt lat="42.2847" lon="2.18415">
        <ele>1414</ele>
        <time>2010-01-01T00:30:15Z</time>
      </trkpt>
      <trkpt lat="42.28469" lon="2.1841">
        <ele>1414</ele>
        <time>2010-01-01T00:30:16Z</time>
      </trkpt>
      <trkpt lat="42.28467" lon="2.18405">
        <ele>1415</ele>
        <time>2010-01-01T00:30:18Z</time>
      </trkpt>
      <trkpt lat="42.28465" lon="2.184">
        <ele>1416</ele>
        <time>2010-01-01T00:30:19Z</time>
      </trkpt>
      <trkpt lat="42.28464" lon="2.18395">
        <ele>1416</ele>
        <time>2010-01-01T00:30:21Z</time>
      </trkpt>
      <trkpt lat="42.28463" lon="2.1839">
        <ele>1417</ele>
        <time>2010-01-01T00:30:23Z</time>
      </trkpt>
      <trkpt lat="42.28462" lon="2.18384">
        <ele>1416</ele>
        <time>2010-01-01T00:30:24Z</time>
      </trkpt>
      <trkpt lat="42.28461" lon="2.18378">
        <ele>1416</ele>
        <time>2010-01-01T00:30:26Z</time>
      </trkpt>
      <trkpt lat="42.28461" lon="2.18373">
        <ele>1416</ele>
        <time>2010-01-01T00:30:28Z</time>
      </trkpt>
      <trkpt lat="42.2846" lon="2.18368">
        <ele>1415</ele>
        <time>2010-01-01T00:30:29Z</time>
      </trkpt>
      <trkpt lat="42.2846" lon="2.18363">
        <ele>1415</ele>
        <time>2010-01-01T00:30:31Z</time>
      </trkpt>
      <trkpt lat="42.28459" lon="2.18359">
        <ele>1415</ele>
        <time>2010-01-01T00:30:32Z</time>
      </trkpt>
      <trkpt lat="42.28458" lon="2.18354">
        <ele>1415</ele>
        <time>2010-01-01T00:30:33Z</time>
      </trkpt>
      <trkpt lat="42.28457" lon="2.1835">
        <ele>1415</ele>
        <time>2010-01-01T00:30:35Z</time>
      </trkpt>
      <trkpt lat="42.28456" lon="2.18346">
        <ele>1415</ele>
        <time>2010-01-01T00:30:36Z</time>
      </trkpt>
      <trkpt lat="42.28456" lon="2.1834">
        <ele>1414</ele>
        <time>2010-01-01T00:30:38Z</time>
      </trkpt>
      <trkpt lat="42.28456" lon="2.18335">
        <ele>1414</ele>
        <time>2010-01-01T00:30:39Z</time>
      </trkpt>
      <trkpt lat="42.28456" lon="2.18329">
        <ele>1414</ele>
        <time>2010-01-01T00:30:41Z</time>
      </trkpt>
      <trkpt lat="42.28456" lon="2.18326">
        <ele>1414</ele>
        <time>2010-01-01T00:30:42Z</time>
      </trkpt>
      <trkpt lat="42.28455" lon="2.18322">
        <ele>1414</ele>
        <time>2010-01-01T00:30:43Z</time>
      </trkpt>
      <trkpt lat="42.28454" lon="2.1832">
        <ele>1414</ele>
        <time>2010-01-01T00:30:44Z</time>
      </trkpt>
      <trkpt lat="42.28452" lon="2.18319">
        <ele>1413</ele>
        <time>2010-01-01T00:30:45Z</time>
      </trkpt>
      <trkpt lat="42.28453" lon="2.18316">
        <ele>1413</ele>
        <time>2010-01-01T00:30:46Z</time>
      </trkpt>
      <trkpt lat="42.28454" lon="2.18313">
        <ele>1413</ele>
        <time>2010-01-01T00:30:46Z</time>
      </trkpt>
      <trkpt lat="42.28453" lon="2.18311">
        <ele>1413</ele>
        <time>2010-01-01T00:30:47Z</time>
      </trkpt>
      <trkpt lat="42.28453" lon="2.18308">
        <ele>1413</ele>
        <time>2010-01-01T00:30:48Z</time>
      </trkpt>
      <trkpt lat="42.28452" lon="2.18305">
        <ele>1413</ele>
        <time>2010-01-01T00:30:49Z</time>
      </trkpt>
      <trkpt lat="42.28452" lon="2.18301">
        <ele>1412</ele>
        <time>2010-01-01T00:30:50Z</time>
      </trkpt>
      <trkpt lat="42.28452" lon="2.18297">
        <ele>1411</ele>
        <time>2010-01-01T00:30:51Z</time>
      </trkpt>
      <trkpt lat="42.28452" lon="2.18293">
        <ele>1410</ele>
        <time>2010-01-01T00:30:53Z</time>
      </trkpt>
      <trkpt lat="42.28451" lon="2.18289">
        <ele>1410</ele>
        <time>2010-01-01T00:30:54Z</time>
      </trkpt>
      <trkpt lat="42.28449" lon="2.18285">
        <ele>1409</ele>
        <time>2010-01-01T00:30:55Z</time>
      </trkpt>
      <trkpt lat="42.28446" lon="2.18281">
        <ele>1408</ele>
        <time>2010-01-01T00:30:57Z</time>
      </trkpt>
      <trkpt lat="42.28444" lon="2.18276">
        <ele>1407</ele>
        <time>2010-01-01T00:30:59Z</time>
      </trkpt>
      <trkpt lat="42.2844" lon="2.1827">
        <ele>1403</ele>
        <time>2010-01-01T00:31:01Z</time>
      </trkpt>
      <trkpt lat="42.28439" lon="2.18266">
        <ele>1402</ele>
        <time>2010-01-01T00:31:02Z</time>
      </trkpt>
      <trkpt lat="42.28436" lon="2.18263">
        <ele>1400</ele>
        <time>2010-01-01T00:31:04Z</time>
      </trkpt>
      <trkpt lat="42.28434" lon="2.18261">
        <ele>1398</ele>
        <time>2010-01-01T00:31:05Z</time>
      </trkpt>
      <trkpt lat="42.28431" lon="2.1826">
        <ele>1397</ele>
        <time>2010-01-01T00:31:06Z</time>
      </trkpt>
      <trkpt lat="42.28428" lon="2.18258">
        <ele>1396</ele>
        <time>2010-01-01T00:31:07Z</time>
      </trkpt>
      <trkpt lat="42.28426" lon="2.18257">
        <ele>1395</ele>
        <time>2010-01-01T00:31:08Z</time>
      </trkpt>
      <trkpt lat="42.28423" lon="2.18256">
        <ele>1394</ele>
        <time>2010-01-01T00:31:09Z</time>
      </trkpt>
      <trkpt lat="42.28421" lon="2.18254">
        <ele>1393</ele>
        <time>2010-01-01T00:31:10Z</time>
      </trkpt>
      <trkpt lat="42.28418" lon="2.18254">
        <ele>1392</ele>
        <time>2010-01-01T00:31:11Z</time>
      </trkpt>
      <trkpt lat="42.28416" lon="2.18251">
        <ele>1391</ele>
        <time>2010-01-01T00:31:13Z</time>
      </trkpt>
      <trkpt lat="42.28415" lon="2.18248">
        <ele>1390</ele>
        <time>2010-01-01T00:31:13Z</time>
      </trkpt>
      <trkpt lat="42.28413" lon="2.18247">
        <ele>1389</ele>
        <time>2010-01-01T00:31:14Z</time>
      </trkpt>
      <trkpt lat="42.2841" lon="2.18245">
        <ele>1387</ele>
        <time>2010-01-01T00:31:16Z</time>
      </trkpt>
      <trkpt lat="42.28409" lon="2.18243">
        <ele>1387</ele>
        <time>2010-01-01T00:31:17Z</time>
      </trkpt>
      <trkpt lat="42.28408" lon="2.1824">
        <ele>1386</ele>
        <time>2010-01-01T00:31:17Z</time>
      </trkpt>
      <trkpt lat="42.28406" lon="2.18239">
        <ele>1385</ele>
        <time>2010-01-01T00:31:18Z</time>
      </trkpt>
      <trkpt lat="42.28404" lon="2.18237">
        <ele>1384</ele>
        <time>2010-01-01T00:31:19Z</time>
      </trkpt>
      <trkpt lat="42.28402" lon="2.18235">
        <ele>1383</ele>
        <time>2010-01-01T00:31:20Z</time>
      </trkpt>
      <trkpt lat="42.284" lon="2.18232">
        <ele>1382</ele>
        <time>2010-01-01T00:31:21Z</time>
      </trkpt>
      <trkpt lat="42.28399" lon="2.1823">
        <ele>1381</ele>
        <time>2010-01-01T00:31:22Z</time>
      </trkpt>
      <trkpt lat="42.28398" lon="2.18228">
        <ele>1380</ele>
        <time>2010-01-01T00:31:23Z</time>
      </trkpt>
      <trkpt lat="42.28395" lon="2.18226">
        <ele>1379</ele>
        <time>2010-01-01T00:31:24Z</time>
      </trkpt>
      <trkpt lat="42.28392" lon="2.18225">
        <ele>1378</ele>
        <time>2010-01-01T00:31:25Z</time>
      </trkpt>
      <trkpt lat="42.28389" lon="2.18224">
        <ele>1377</ele>
        <time>2010-01-01T00:31:27Z</time>
      </trkpt>
      <trkpt lat="42.28386" lon="2.18223">
        <ele>1375</ele>
        <time>2010-01-01T00:31:28Z</time>
      </trkpt>
      <trkpt lat="42.28383" lon="2.18223">
        <ele>1374</ele>
        <time>2010-01-01T00:31:29Z</time>
      </trkpt>
      <trkpt lat="42.2838" lon="2.18223">
        <ele>1373</ele>
        <time>2010-01-01T00:31:30Z</time>
      </trkpt>
      <trkpt lat="42.28376" lon="2.18223">
        <ele>1372</ele>
        <time>2010-01-01T00:31:32Z</time>
      </trkpt>
      <trkpt lat="42.28373" lon="2.18224">
        <ele>1371</ele>
        <time>2010-01-01T00:31:33Z</time>
      </trkpt>
      <trkpt lat="42.2837" lon="2.18225">
        <ele>1370</ele>
        <time>2010-01-01T00:31:34Z</time>
      </trkpt>
      <trkpt lat="42.28367" lon="2.18224">
        <ele>1368</ele>
        <time>2010-01-01T00:31:36Z</time>
      </trkpt>
      <trkpt lat="42.28364" lon="2.18222">
        <ele>1367</ele>
        <time>2010-01-01T00:31:37Z</time>
      </trkpt>
      <trkpt lat="42.28362" lon="2.18221">
        <ele>1365</ele>
        <time>2010-01-01T00:31:38Z</time>
      </trkpt>
      <trkpt lat="42.28359" lon="2.1822">
        <ele>1364</ele>
        <time>2010-01-01T00:31:39Z</time>
      </trkpt>
      <trkpt lat="42.28356" lon="2.18218">
        <ele>1363</ele>
        <time>2010-01-01T00:31:40Z</time>
      </trkpt>
      <trkpt lat="42.28352" lon="2.18213">
        <ele>1361</ele>
        <time>2010-01-01T00:31:42Z</time>
      </trkpt>
      <trkpt lat="42.28351" lon="2.1821">
        <ele>1360</ele>
        <time>2010-01-01T00:31:44Z</time>
      </trkpt>
      <trkpt lat="42.28348" lon="2.18208">
        <ele>1359</ele>
        <time>2010-01-01T00:31:45Z</time>
      </trkpt>
      <trkpt lat="42.28344" lon="2.18206">
        <ele>1358</ele>
        <time>2010-01-01T00:31:46Z</time>
      </trkpt>
      <trkpt lat="42.28341" lon="2.18203">
        <ele>1357</ele>
        <time>2010-01-01T00:31:48Z</time>
      </trkpt>
      <trkpt lat="42.28338" lon="2.182">
        <ele>1355</ele>
        <time>2010-01-01T00:31:50Z</time>
      </trkpt>
      <trkpt lat="42.28334" lon="2.18195">
        <ele>1354</ele>
        <time>2010-01-01T00:31:52Z</time>
      </trkpt>
      <trkpt lat="42.28329" lon="2.18189">
        <ele>1351</ele>
        <time>2010-01-01T00:31:54Z</time>
      </trkpt>
      <trkpt lat="42.28325" lon="2.18183">
        <ele>1348</ele>
        <time>2010-01-01T00:31:57Z</time>
      </trkpt>
      <trkpt lat="42.28321" lon="2.1818">
        <ele>1347</ele>
        <time>2010-01-01T00:31:58Z</time>
      </trkpt>
      <trkpt lat="42.28318" lon="2.18176">
        <ele>1345</ele>
        <time>2010-01-01T00:32:00Z</time>
      </trkpt>
      <trkpt lat="42.28316" lon="2.18172">
        <ele>1344</ele>
        <time>2010-01-01T00:32:02Z</time>
      </trkpt>
      <trkpt lat="42.28312" lon="2.18168">
        <ele>1342</ele>
        <time>2010-01-01T00:32:04Z</time>
      </trkpt>
      <trkpt lat="42.28309" lon="2.18165">
        <ele>1341</ele>
        <time>2010-01-01T00:32:05Z</time>
      </trkpt>
      <trkpt lat="42.28306" lon="2.18161">
        <ele>1339</ele>
        <time>2010-01-01T00:32:07Z</time>
      </trkpt>
      <trkpt lat="42.28303" lon="2.18157">
        <ele>1337</ele>
        <time>2010-01-01T00:32:08Z</time>
      </trkpt>
      <trkpt lat="42.28299" lon="2.18153">
        <ele>1335</ele>
        <time>2010-01-01T00:32:10Z</time>
      </trkpt>
      <trkpt lat="42.28296" lon="2.18151">
        <ele>1334</ele>
        <time>2010-01-01T00:32:12Z</time>
      </trkpt>
      <trkpt lat="42.28294" lon="2.1815">
        <ele>1333</ele>
        <time>2010-01-01T00:32:13Z</time>
      </trkpt>
      <trkpt lat="42.28293" lon="2.18147">
        <ele>1332</ele>
        <time>2010-01-01T00:32:14Z</time>
      </trkpt>
      <trkpt lat="42.28292" lon="2.18144">
        <ele>1331</ele>
        <time>2010-01-01T00:32:14Z</time>
      </trkpt>
      <trkpt lat="42.2829" lon="2.18141">
        <ele>1330</ele>
        <time>2010-01-01T00:32:16Z</time>
      </trkpt>
      <trkpt lat="42.28285" lon="2.18139">
        <ele>1328</ele>
        <time>2010-01-01T00:32:18Z</time>
      </trkpt>
      <trkpt lat="42.2828" lon="2.18137">
        <ele>1327</ele>
        <time>2010-01-01T00:32:20Z</time>
      </trkpt>
      <trkpt lat="42.28275" lon="2.18135">
        <ele>1325</ele>
        <time>2010-01-01T00:32:22Z</time>
      </trkpt>
      <trkpt lat="42.28274" lon="2.18136">
        <ele>1325</ele>
        <time>2010-01-01T00:32:23Z</time>
      </trkpt>
      <trkpt lat="42.28271" lon="2.18138">
        <ele>1325</ele>
        <time>2010-01-01T00:32:24Z</time>
      </trkpt>
      <trkpt lat="42.28265" lon="2.1814">
        <ele>1324</ele>
        <time>2010-01-01T00:32:26Z</time>
      </trkpt>
      <trkpt lat="42.2826" lon="2.18141">
        <ele>1323</ele>
        <time>2010-01-01T00:32:28Z</time>
      </trkpt>
      <trkpt lat="42.28256" lon="2.18142">
        <ele>1321</ele>
        <time>2010-01-01T00:32:30Z</time>
      </trkpt>
      <trkpt lat="42.28251" lon="2.18142">
        <ele>1320</ele>
        <time>2010-01-01T00:32:32Z</time>
      </trkpt>
      <trkpt lat="42.28246" lon="2.18141">
        <ele>1318</ele>
        <time>2010-01-01T00:32:34Z</time>
      </trkpt>
      <trkpt lat="42.28241" lon="2.18139">
        <ele>1315</ele>
        <time>2010-01-01T00:32:36Z</time>
      </trkpt>
      <trkpt lat="42.28236" lon="2.18135">
        <ele>1312</ele>
        <time>2010-01-01T00:32:38Z</time>
      </trkpt>
      <trkpt lat="42.28232" lon="2.18132">
        <ele>1309</ele>
        <time>2010-01-01T00:32:40Z</time>
      </trkpt>
      <trkpt lat="42.28229" lon="2.18127">
        <ele>1307</ele>
        <time>2010-01-01T00:32:42Z</time>
      </trkpt>
      <trkpt lat="42.2823" lon="2.18122">
        <ele>1306</ele>
        <time>2010-01-01T00:32:43Z</time>
      </trkpt>
      <trkpt lat="42.28231" lon="2.1812">
        <ele>1306</ele>
        <time>2010-01-01T00:32:44Z</time>
      </trkpt>
      <trkpt lat="42.28231" lon="2.18116">
        <ele>1305</ele>
        <time>2010-01-01T00:32:45Z</time>
      </trkpt>
      <trkpt lat="42.2823" lon="2.18109">
        <ele>1304</ele>
        <time>2010-01-01T00:32:47Z</time>
      </trkpt>
      <trkpt lat="42.28232" lon="2.18103">
        <ele>1304</ele>
        <time>2010-01-01T00:32:49Z</time>
      </trkpt>
      <trkpt lat="42.28232" lon="2.18101">
        <ele>1303</ele>
        <time>2010-01-01T00:32:50Z</time>
      </trkpt>
      <trkpt lat="42.28231" lon="2.18095">
        <ele>1301</ele>
        <time>2010-01-01T00:32:52Z</time>
      </trkpt>
      <trkpt lat="42.28231" lon="2.1809">
        <ele>1301</ele>
        <time>2010-01-01T00:32:53Z</time>
      </trkpt>
      <trkpt lat="42.2823" lon="2.18084">
        <ele>1299</ele>
        <time>2010-01-01T00:32:55Z</time>
      </trkpt>
      <trkpt lat="42.28228" lon="2.1808">
        <ele>1298</ele>
        <time>2010-01-01T00:32:57Z</time>
      </trkpt>
      <trkpt lat="42.28226" lon="2.18077">
        <ele>1297</ele>
        <time>2010-01-01T00:32:58Z</time>
      </trkpt>
      <trkpt lat="42.28224" lon="2.18075">
        <ele>1296</ele>
        <time>2010-01-01T00:32:59Z</time>
      </trkpt>
      <trkpt lat="42.28222" lon="2.18073">
        <ele>1295</ele>
        <time>2010-01-01T00:33:00Z</time>
      </trkpt>
      <trkpt lat="42.2822" lon="2.18071">
        <ele>1294</ele>
        <time>2010-01-01T00:33:01Z</time>
      </trkpt>
      <trkpt lat="42.28217" lon="2.18068">
        <ele>1293</ele>
        <time>2010-01-01T00:33:02Z</time>
      </trkpt>
      <trkpt lat="42.28216" lon="2.18065">
        <ele>1293</ele>
        <time>2010-01-01T00:33:03Z</time>
      </trkpt>
      <trkpt lat="42.28214" lon="2.18063">
        <ele>1292</ele>
        <time>2010-01-01T00:33:04Z</time>
      </trkpt>
      <trkpt lat="42.28212" lon="2.18061">
        <ele>1291</ele>
        <time>2010-01-01T00:33:05Z</time>
      </trkpt>
      <trkpt lat="42.28209" lon="2.18058">
        <ele>1290</ele>
        <time>2010-01-01T00:33:07Z</time>
      </trkpt>
      <trkpt lat="42.28207" lon="2.18054">
        <ele>1289</ele>
        <time>2010-01-01T00:33:08Z</time>
      </trkpt>
      <trkpt lat="42.28204" lon="2.18051">
        <ele>1288</ele>
        <time>2010-01-01T00:33:10Z</time>
      </trkpt>
      <trkpt lat="42.28201" lon="2.18048">
        <ele>1286</ele>
        <time>2010-01-01T00:33:11Z</time>
      </trkpt>
      <trkpt lat="42.28198" lon="2.18044">
        <ele>1285</ele>
        <time>2010-01-01T00:33:13Z</time>
      </trkpt>
      <trkpt lat="42.28195" lon="2.18041">
        <ele>1283</ele>
        <time>2010-01-01T00:33:14Z</time>
      </trkpt>
      <trkpt lat="42.28192" lon="2.18038">
        <ele>1282</ele>
        <time>2010-01-01T00:33:16Z</time>
      </trkpt>
      <trkpt lat="42.2819" lon="2.18034">
        <ele>1281</ele>
        <time>2010-01-01T00:33:17Z</time>
      </trkpt>
      <trkpt lat="42.28187" lon="2.18032">
        <ele>1279</ele>
        <time>2010-01-01T00:33:19Z</time>
      </trkpt>
      <trkpt lat="42.28183" lon="2.1803">
        <ele>1278</ele>
        <time>2010-01-01T00:33:20Z</time>
      </trkpt>
      <trkpt lat="42.2818" lon="2.18027">
        <ele>1277</ele>
        <time>2010-01-01T00:33:22Z</time>
      </trkpt>
      <trkpt lat="42.28178" lon="2.18024">
        <ele>1277</ele>
        <time>2010-01-01T00:33:23Z</time>
      </trkpt>
      <trkpt lat="42.28176" lon="2.18023">
        <ele>1276</ele>
        <time>2010-01-01T00:33:24Z</time>
      </trkpt>
      <trkpt lat="42.28174" lon="2.18022">
        <ele>1275</ele>
        <time>2010-01-01T00:33:25Z</time>
      </trkpt>
      <trkpt lat="42.28172" lon="2.18017">
        <ele>1274</ele>
        <time>2010-01-01T00:33:26Z</time>
      </trkpt>
      <trkpt lat="42.28169" lon="2.18012">
        <ele>1273</ele>
        <time>2010-01-01T00:33:28Z</time>
      </trkpt>
      <trkpt lat="42.28166" lon="2.1801">
        <ele>1273</ele>
        <time>2010-01-01T00:33:29Z</time>
      </trkpt>
      <trkpt lat="42.28162" lon="2.1801">
        <ele>1271</ele>
        <time>2010-01-01T00:33:31Z</time>
      </trkpt>
      <trkpt lat="42.28159" lon="2.18012">
        <ele>1271</ele>
        <time>2010-01-01T00:33:32Z</time>
      </trkpt>
      <trkpt lat="42.28157" lon="2.18015">
        <ele>1270</ele>
        <time>2010-01-01T00:33:34Z</time>
      </trkpt>
      <trkpt lat="42.28157" lon="2.18018">
        <ele>1271</ele>
        <time>2010-01-01T00:33:35Z</time>
      </trkpt>
      <trkpt lat="42.28156" lon="2.18022">
        <ele>1271</ele>
        <time>2010-01-01T00:33:36Z</time>
      </trkpt>
      <trkpt lat="42.28153" lon="2.18025">
        <ele>1270</ele>
        <time>2010-01-01T00:33:37Z</time>
      </trkpt>
      <trkpt lat="42.28147" lon="2.18028">
        <ele>1269</ele>
        <time>2010-01-01T00:33:40Z</time>
      </trkpt>
      <trkpt lat="42.28145" lon="2.18034">
        <ele>1268</ele>
        <time>2010-01-01T00:33:42Z</time>
      </trkpt>
      <trkpt lat="42.28144" lon="2.18041">
        <ele>1268</ele>
        <time>2010-01-01T00:33:44Z</time>
      </trkpt>
      <trkpt lat="42.28142" lon="2.18048">
        <ele>1267</ele>
        <time>2010-01-01T00:33:46Z</time>
      </trkpt>
      <trkpt lat="42.2814" lon="2.18054">
        <ele>1266</ele>
        <time>2010-01-01T00:33:48Z</time>
      </trkpt>
      <trkpt lat="42.28137" lon="2.1806">
        <ele>1265</ele>
        <time>2010-01-01T00:33:50Z</time>
      </trkpt>
      <trkpt lat="42.28134" lon="2.18065">
        <ele>1263</ele>
        <time>2010-01-01T00:33:52Z</time>
      </trkpt>
      <trkpt lat="42.28131" lon="2.18069">
        <ele>1261</ele>
        <time>2010-01-01T00:33:54Z</time>
      </trkpt>
      <trkpt lat="42.28127" lon="2.18072">
        <ele>1259</ele>
        <time>2010-01-01T00:33:56Z</time>
      </trkpt>
      <trkpt lat="42.28123" lon="2.18076">
        <ele>1257</ele>
        <time>2010-01-01T00:33:58Z</time>
      </trkpt>
      <trkpt lat="42.28119" lon="2.18081">
        <ele>1255</ele>
        <time>2010-01-01T00:34:00Z</time>
      </trkpt>
      <trkpt lat="42.28116" lon="2.18086">
        <ele>1253</ele>
        <time>2010-01-01T00:34:02Z</time>
      </trkpt>
      <trkpt lat="42.28113" lon="2.18092">
        <ele>1252</ele>
        <time>2010-01-01T00:34:04Z</time>
      </trkpt>
      <trkpt lat="42.28112" lon="2.18099">
        <ele>1252</ele>
        <time>2010-01-01T00:34:06Z</time>
      </trkpt>
      <trkpt lat="42.28111" lon="2.18106">
        <ele>1251</ele>
        <time>2010-01-01T00:34:08Z</time>
      </trkpt>
      <trkpt lat="42.2811" lon="2.18113">
        <ele>1251</ele>
        <time>2010-01-01T00:34:10Z</time>
      </trkpt>
      <trkpt lat="42.28107" lon="2.1812">
        <ele>1252</ele>
        <time>2010-01-01T00:34:12Z</time>
      </trkpt>
      <trkpt lat="42.28105" lon="2.18127">
        <ele>1252</ele>
        <time>2010-01-01T00:34:15Z</time>
      </trkpt>
      <trkpt lat="42.281" lon="2.18133">
        <ele>1251</ele>
        <time>2010-01-01T00:34:17Z</time>
      </trkpt>
      <trkpt lat="42.28096" lon="2.18136">
        <ele>1249</ele>
        <time>2010-01-01T00:34:19Z</time>
      </trkpt>
      <trkpt lat="42.28091" lon="2.18139">
        <ele>1246</ele>
        <time>2010-01-01T00:34:21Z</time>
      </trkpt>
      <trkpt lat="42.28088" lon="2.18143">
        <ele>1245</ele>
        <time>2010-01-01T00:34:23Z</time>
      </trkpt>
      <trkpt lat="42.28084" lon="2.18149">
        <ele>1244</ele>
        <time>2010-01-01T00:34:25Z</time>
      </trkpt>
      <trkpt lat="42.28082" lon="2.18155">
        <ele>1243</ele>
        <time>2010-01-01T00:34:27Z</time>
      </trkpt>
      <trkpt lat="42.28078" lon="2.18161">
        <ele>1242</ele>
        <time>2010-01-01T00:34:30Z</time>
      </trkpt>
      <trkpt lat="42.28074" lon="2.18167">
        <ele>1241</ele>
        <time>2010-01-01T00:34:32Z</time>
      </trkpt>
      <trkpt lat="42.28069" lon="2.18173">
        <ele>1240</ele>
        <time>2010-01-01T00:34:35Z</time>
      </trkpt>
      <trkpt lat="42.28064" lon="2.18178">
        <ele>1238</ele>
        <time>2010-01-01T00:34:37Z</time>
      </trkpt>
      <trkpt lat="42.28058" lon="2.18181">
        <ele>1236</ele>
        <time>2010-01-01T00:34:40Z</time>
      </trkpt>
      <trkpt lat="42.28053" lon="2.18185">
        <ele>1234</ele>
        <time>2010-01-01T00:34:42Z</time>
      </trkpt>
      <trkpt lat="42.28047" lon="2.18187">
        <ele>1233</ele>
        <time>2010-01-01T00:34:45Z</time>
      </trkpt>
      <trkpt lat="42.28042" lon="2.18191">
        <ele>1231</ele>
        <time>2010-01-01T00:34:47Z</time>
      </trkpt>
      <trkpt lat="42.2804" lon="2.18197">
        <ele>1231</ele>
        <time>2010-01-01T00:34:49Z</time>
      </trkpt>
      <trkpt lat="42.2804" lon="2.18205">
        <ele>1233</ele>
        <time>2010-01-01T00:34:51Z</time>
      </trkpt>
      <trkpt lat="42.2804" lon="2.18213">
        <ele>1234</ele>
        <time>2010-01-01T00:34:54Z</time>
      </trkpt>
      <trkpt lat="42.2804" lon="2.18222">
        <ele>1236</ele>
        <time>2010-01-01T00:34:56Z</time>
      </trkpt>
      <trkpt lat="42.28039" lon="2.1823">
        <ele>1237</ele>
        <time>2010-01-01T00:34:59Z</time>
      </trkpt>
      <trkpt lat="42.28035" lon="2.18235">
        <ele>1237</ele>
        <time>2010-01-01T00:35:01Z</time>
      </trkpt>
      <trkpt lat="42.28029" lon="2.18238">
        <ele>1235</ele>
        <time>2010-01-01T00:35:03Z</time>
      </trkpt>
      <trkpt lat="42.28023" lon="2.18239">
        <ele>1233</ele>
        <time>2010-01-01T00:35:06Z</time>
      </trkpt>
      <trkpt lat="42.28018" lon="2.1824">
        <ele>1232</ele>
        <time>2010-01-01T00:35:08Z</time>
      </trkpt>
      <trkpt lat="42.28013" lon="2.18241">
        <ele>1229</ele>
        <time>2010-01-01T00:35:10Z</time>
      </trkpt>
      <trkpt lat="42.28008" lon="2.18241">
        <ele>1227</ele>
        <time>2010-01-01T00:35:12Z</time>
      </trkpt>
      <trkpt lat="42.28003" lon="2.18242">
        <ele>1225</ele>
        <time>2010-01-01T00:35:14Z</time>
      </trkpt>
      <trkpt lat="42.27997" lon="2.18241">
        <ele>1222</ele>
        <time>2010-01-01T00:35:16Z</time>
      </trkpt>
      <trkpt lat="42.27991" lon="2.1824">
        <ele>1219</ele>
        <time>2010-01-01T00:35:19Z</time>
      </trkpt>
      <trkpt lat="42.27985" lon="2.18239">
        <ele>1216</ele>
        <time>2010-01-01T00:35:21Z</time>
      </trkpt>
      <trkpt lat="42.2798" lon="2.18238">
        <ele>1213</ele>
        <time>2010-01-01T00:35:23Z</time>
      </trkpt>
      <trkpt lat="42.27975" lon="2.1824">
        <ele>1211</ele>
        <time>2010-01-01T00:35:25Z</time>
      </trkpt>
      <trkpt lat="42.2797" lon="2.18242">
        <ele>1209</ele>
        <time>2010-01-01T00:35:27Z</time>
      </trkpt>
      <trkpt lat="42.27967" lon="2.18247">
        <ele>1208</ele>
        <time>2010-01-01T00:35:29Z</time>
      </trkpt>
      <trkpt lat="42.27965" lon="2.18254">
        <ele>1208</ele>
        <time>2010-01-01T00:35:31Z</time>
      </trkpt>
      <trkpt lat="42.27964" lon="2.18261">
        <ele>1208</ele>
        <time>2010-01-01T00:35:34Z</time>
      </trkpt>
      <trkpt lat="42.27964" lon="2.18269">
        <ele>1209</ele>
        <time>2010-01-01T00:35:36Z</time>
      </trkpt>
      <trkpt lat="42.27964" lon="2.18277">
        <ele>1209</ele>
        <time>2010-01-01T00:35:38Z</time>
      </trkpt>
      <trkpt lat="42.27964" lon="2.18284">
        <ele>1210</ele>
        <time>2010-01-01T00:35:40Z</time>
      </trkpt>
      <trkpt lat="42.27965" lon="2.18292">
        <ele>1210</ele>
        <time>2010-01-01T00:35:43Z</time>
      </trkpt>
      <trkpt lat="42.27966" lon="2.183">
        <ele>1210</ele>
        <time>2010-01-01T00:35:45Z</time>
      </trkpt>
      <trkpt lat="42.27966" lon="2.18307">
        <ele>1210</ele>
        <time>2010-01-01T00:35:47Z</time>
      </trkpt>
      <trkpt lat="42.27967" lon="2.18315">
        <ele>1209</ele>
        <time>2010-01-01T00:35:50Z</time>
      </trkpt>
      <trkpt lat="42.27969" lon="2.18323">
        <ele>1209</ele>
        <time>2010-01-01T00:35:52Z</time>
      </trkpt>
      <trkpt lat="42.27973" lon="2.18333">
        <ele>1210</ele>
        <time>2010-01-01T00:35:56Z</time>
      </trkpt>
      <trkpt lat="42.27975" lon="2.18341">
        <ele>1211</ele>
        <time>2010-01-01T00:35:58Z</time>
      </trkpt>
      <trkpt lat="42.27975" lon="2.18353">
        <ele>1210</ele>
        <time>2010-01-01T00:36:01Z</time>
      </trkpt>
      <trkpt lat="42.27973" lon="2.1836">
        <ele>1209</ele>
        <time>2010-01-01T00:36:04Z</time>
      </trkpt>
      <trkpt lat="42.27972" lon="2.18366">
        <ele>1208</ele>
        <time>2010-01-01T00:36:06Z</time>
      </trkpt>
      <trkpt lat="42.27969" lon="2.18372">
        <ele>1206</ele>
        <time>2010-01-01T00:36:08Z</time>
      </trkpt>
      <trkpt lat="42.27968" lon="2.18379">
        <ele>1204</ele>
        <time>2010-01-01T00:36:10Z</time>
      </trkpt>
      <trkpt lat="42.27967" lon="2.18386">
        <ele>1204</ele>
        <time>2010-01-01T00:36:12Z</time>
      </trkpt>
      <trkpt lat="42.27968" lon="2.18394">
        <ele>1203</ele>
        <time>2010-01-01T00:36:14Z</time>
      </trkpt>
      <trkpt lat="42.27968" lon="2.18402">
        <ele>1203</ele>
        <time>2010-01-01T00:36:16Z</time>
      </trkpt>
      <trkpt lat="42.27969" lon="2.18408">
        <ele>1204</ele>
        <time>2010-01-01T00:36:18Z</time>
      </trkpt>
      <trkpt lat="42.27972" lon="2.18415">
        <ele>1205</ele>
        <time>2010-01-01T00:36:21Z</time>
      </trkpt>
      <trkpt lat="42.27974" lon="2.18422">
        <ele>1207</ele>
        <time>2010-01-01T00:36:23Z</time>
      </trkpt>
      <trkpt lat="42.27975" lon="2.1843">
        <ele>1208</ele>
        <time>2010-01-01T00:36:25Z</time>
      </trkpt>
      <trkpt lat="42.27975" lon="2.18437">
        <ele>1209</ele>
        <time>2010-01-01T00:36:27Z</time>
      </trkpt>
      <trkpt lat="42.27974" lon="2.18443">
        <ele>1210</ele>
        <time>2010-01-01T00:36:29Z</time>
      </trkpt>
      <trkpt lat="42.27972" lon="2.18449">
        <ele>1210</ele>
        <time>2010-01-01T00:36:31Z</time>
      </trkpt>
      <trkpt lat="42.27968" lon="2.18454">
        <ele>1210</ele>
        <time>2010-01-01T00:36:33Z</time>
      </trkpt>
      <trkpt lat="42.27963" lon="2.18457">
        <ele>1210</ele>
        <time>2010-01-01T00:36:35Z</time>
      </trkpt>
      <trkpt lat="42.27959" lon="2.18459">
        <ele>1209</ele>
        <time>2010-01-01T00:36:37Z</time>
      </trkpt>
      <trkpt lat="42.27953" lon="2.18458">
        <ele>1208</ele>
        <time>2010-01-01T00:36:39Z</time>
      </trkpt>
      <trkpt lat="42.27949" lon="2.18454">
        <ele>1206</ele>
        <time>2010-01-01T00:36:42Z</time>
      </trkpt>
      <trkpt lat="42.27943" lon="2.18451">
        <ele>1204</ele>
        <time>2010-01-01T00:36:44Z</time>
      </trkpt>
      <trkpt lat="42.27937" lon="2.18449">
        <ele>1203</ele>
        <time>2010-01-01T00:36:47Z</time>
      </trkpt>
      <trkpt lat="42.27932" lon="2.18448">
        <ele>1203</ele>
        <time>2010-01-01T00:36:49Z</time>
      </trkpt>
      <trkpt lat="42.27927" lon="2.18449">
        <ele>1203</ele>
        <time>2010-01-01T00:36:51Z</time>
      </trkpt>
      <trkpt lat="42.27923" lon="2.18449">
        <ele>1203</ele>
        <time>2010-01-01T00:36:52Z</time>
      </trkpt>
      <trkpt lat="42.27918" lon="2.1845">
        <ele>1203</ele>
        <time>2010-01-01T00:36:54Z</time>
      </trkpt>
      <trkpt lat="42.27913" lon="2.18451">
        <ele>1202</ele>
        <time>2010-01-01T00:36:56Z</time>
      </trkpt>
      <trkpt lat="42.2791" lon="2.18452">
        <ele>1202</ele>
        <time>2010-01-01T00:36:58Z</time>
      </trkpt>
      <trkpt lat="42.27906" lon="2.18455">
        <ele>1202</ele>
        <time>2010-01-01T00:36:59Z</time>
      </trkpt>
      <trkpt lat="42.27902" lon="2.18458">
        <ele>1202</ele>
        <time>2010-01-01T00:37:01Z</time>
      </trkpt>
      <trkpt lat="42.27898" lon="2.18463">
        <ele>1203</ele>
        <time>2010-01-01T00:37:03Z</time>
      </trkpt>
      <trkpt lat="42.27895" lon="2.18468">
        <ele>1204</ele>
        <time>2010-01-01T00:37:05Z</time>
      </trkpt>
      <trkpt lat="42.27894" lon="2.18473">
        <ele>1204</ele>
        <time>2010-01-01T00:37:07Z</time>
      </trkpt>
      <trkpt lat="42.27892" lon="2.18475">
        <ele>1204</ele>
        <time>2010-01-01T00:37:08Z</time>
      </trkpt>
      <trkpt lat="42.27891" lon="2.18477">
        <ele>1205</ele>
        <time>2010-01-01T00:37:08Z</time>
      </trkpt>
      <trkpt lat="42.27889" lon="2.1848">
        <ele>1204</ele>
        <time>2010-01-01T00:37:10Z</time>
      </trkpt>
      <trkpt lat="42.27887" lon="2.18482">
        <ele>1204</ele>
        <time>2010-01-01T00:37:11Z</time>
      </trkpt>
      <trkpt lat="42.27885" lon="2.18485">
        <ele>1204</ele>
        <time>2010-01-01T00:37:12Z</time>
      </trkpt>
      <trkpt lat="42.27884" lon="2.18488">
        <ele>1203</ele>
        <time>2010-01-01T00:37:13Z</time>
      </trkpt>
      <trkpt lat="42.27882" lon="2.18491">
        <ele>1203</ele>
        <time>2010-01-01T00:37:14Z</time>
      </trkpt>
      <trkpt lat="42.27879" lon="2.18497">
        <ele>1202</ele>
        <time>2010-01-01T00:37:16Z</time>
      </trkpt>
      <trkpt lat="42.27877" lon="2.18502">
        <ele>1202</ele>
        <time>2010-01-01T00:37:18Z</time>
      </trkpt>
      <trkpt lat="42.27874" lon="2.18506">
        <ele>1202</ele>
        <time>2010-01-01T00:37:20Z</time>
      </trkpt>
      <trkpt lat="42.2787" lon="2.18511">
        <ele>1201</ele>
        <time>2010-01-01T00:37:21Z</time>
      </trkpt>
      <trkpt lat="42.27868" lon="2.18516">
        <ele>1201</ele>
        <time>2010-01-01T00:37:23Z</time>
      </trkpt>
      <trkpt lat="42.27865" lon="2.18521">
        <ele>1201</ele>
        <time>2010-01-01T00:37:25Z</time>
      </trkpt>
      <trkpt lat="42.27862" lon="2.18527">
        <ele>1201</ele>
        <time>2010-01-01T00:37:27Z</time>
      </trkpt>
      <trkpt lat="42.27859" lon="2.18533">
        <ele>1200</ele>
        <time>2010-01-01T00:37:29Z</time>
      </trkpt>
      <trkpt lat="42.27856" lon="2.18538">
        <ele>1199</ele>
        <time>2010-01-01T00:37:31Z</time>
      </trkpt>
      <trkpt lat="42.27851" lon="2.18543">
        <ele>1197</ele>
        <time>2010-01-01T00:37:34Z</time>
      </trkpt>
      <trkpt lat="42.27846" lon="2.18546">
        <ele>1194</ele>
        <time>2010-01-01T00:37:36Z</time>
      </trkpt>
      <trkpt lat="42.27841" lon="2.1855">
        <ele>1192</ele>
        <time>2010-01-01T00:37:38Z</time>
      </trkpt>
      <trkpt lat="42.27836" lon="2.18554">
        <ele>1190</ele>
        <time>2010-01-01T00:37:41Z</time>
      </trkpt>
      <trkpt lat="42.27832" lon="2.18559">
        <ele>1188</ele>
        <time>2010-01-01T00:37:43Z</time>
      </trkpt>
      <trkpt lat="42.27828" lon="2.18564">
        <ele>1187</ele>
        <time>2010-01-01T00:37:45Z</time>
      </trkpt>
      <trkpt lat="42.27824" lon="2.18569">
        <ele>1187</ele>
        <time>2010-01-01T00:37:47Z</time>
      </trkpt>
      <trkpt lat="42.27822" lon="2.18575">
        <ele>1187</ele>
        <time>2010-01-01T00:37:49Z</time>
      </trkpt>
      <trkpt lat="42.2782" lon="2.18581">
        <ele>1187</ele>
        <time>2010-01-01T00:37:51Z</time>
      </trkpt>
      <trkpt lat="42.27818" lon="2.18587">
        <ele>1188</ele>
        <time>2010-01-01T00:37:53Z</time>
      </trkpt>
      <trkpt lat="42.27816" lon="2.18595">
        <ele>1188</ele>
        <time>2010-01-01T00:37:55Z</time>
      </trkpt>
      <trkpt lat="42.27811" lon="2.18601">
        <ele>1188</ele>
        <time>2010-01-01T00:37:58Z</time>
      </trkpt>
      <trkpt lat="42.27806" lon="2.18604">
        <ele>1187</ele>
        <time>2010-01-01T00:38:00Z</time>
      </trkpt>
      <trkpt lat="42.27801" lon="2.18608">
        <ele>1188</ele>
        <time>2010-01-01T00:38:03Z</time>
      </trkpt>
      <trkpt lat="42.27797" lon="2.18612">
        <ele>1188</ele>
        <time>2010-01-01T00:38:05Z</time>
      </trkpt>
      <trkpt lat="42.27791" lon="2.18613">
        <ele>1187</ele>
        <time>2010-01-01T00:38:07Z</time>
      </trkpt>
      <trkpt lat="42.27785" lon="2.18609">
        <ele>1186</ele>
        <time>2010-01-01T00:38:10Z</time>
      </trkpt>
      <trkpt lat="42.2778" lon="2.18601">
        <ele>1184</ele>
        <time>2010-01-01T00:38:13Z</time>
      </trkpt>
      <trkpt lat="42.27778" lon="2.18593">
        <ele>1183</ele>
        <time>2010-01-01T00:38:15Z</time>
      </trkpt>
      <trkpt lat="42.27778" lon="2.18586">
        <ele>1182</ele>
        <time>2010-01-01T00:38:17Z</time>
      </trkpt>
      <trkpt lat="42.2778" lon="2.18578">
        <ele>1180</ele>
        <time>2010-01-01T00:38:20Z</time>
      </trkpt>
      <trkpt lat="42.27782" lon="2.1857">
        <ele>1178</ele>
        <time>2010-01-01T00:38:22Z</time>
      </trkpt>
      <trkpt lat="42.27783" lon="2.18564">
        <ele>1177</ele>
        <time>2010-01-01T00:38:24Z</time>
      </trkpt>
      <trkpt lat="42.27783" lon="2.18557">
        <ele>1175</ele>
        <time>2010-01-01T00:38:26Z</time>
      </trkpt>
      <trkpt lat="42.27779" lon="2.18551">
        <ele>1174</ele>
        <time>2010-01-01T00:38:28Z</time>
      </trkpt>
      <trkpt lat="42.27777" lon="2.18545">
        <ele>1172</ele>
        <time>2010-01-01T00:38:30Z</time>
      </trkpt>
      <trkpt lat="42.27774" lon="2.1854">
        <ele>1171</ele>
        <time>2010-01-01T00:38:32Z</time>
      </trkpt>
      <trkpt lat="42.2777" lon="2.18538">
        <ele>1171</ele>
        <time>2010-01-01T00:38:34Z</time>
      </trkpt>
      <trkpt lat="42.27765" lon="2.18539">
        <ele>1171</ele>
        <time>2010-01-01T00:38:36Z</time>
      </trkpt>
      <trkpt lat="42.2776" lon="2.1854">
        <ele>1171</ele>
        <time>2010-01-01T00:38:38Z</time>
      </trkpt>
      <trkpt lat="42.27754" lon="2.18542">
        <ele>1172</ele>
        <time>2010-01-01T00:38:40Z</time>
      </trkpt>
      <trkpt lat="42.27749" lon="2.18544">
        <ele>1172</ele>
        <time>2010-01-01T00:38:43Z</time>
      </trkpt>
      <trkpt lat="42.27745" lon="2.18546">
        <ele>1172</ele>
        <time>2010-01-01T00:38:44Z</time>
      </trkpt>
      <trkpt lat="42.2774" lon="2.18548">
        <ele>1173</ele>
        <time>2010-01-01T00:38:46Z</time>
      </trkpt>
      <trkpt lat="42.27735" lon="2.1855">
        <ele>1173</ele>
        <time>2010-01-01T00:38:48Z</time>
      </trkpt>
      <trkpt lat="42.2773" lon="2.18552">
        <ele>1174</ele>
        <time>2010-01-01T00:38:50Z</time>
      </trkpt>
      <trkpt lat="42.27726" lon="2.18557">
        <ele>1175</ele>
        <time>2010-01-01T00:38:53Z</time>
      </trkpt>
      <trkpt lat="42.27721" lon="2.18561">
        <ele>1175</ele>
        <time>2010-01-01T00:38:55Z</time>
      </trkpt>
      <trkpt lat="42.27716" lon="2.18567">
        <ele>1176</ele>
        <time>2010-01-01T00:38:58Z</time>
      </trkpt>
      <trkpt lat="42.27709" lon="2.18566">
        <ele>1176</ele>
        <time>2010-01-01T00:39:00Z</time>
      </trkpt>
      <trkpt lat="42.27703" lon="2.18561">
        <ele>1175</ele>
        <time>2010-01-01T00:39:03Z</time>
      </trkpt>
      <trkpt lat="42.27698" lon="2.18554">
        <ele>1173</ele>
        <time>2010-01-01T00:39:06Z</time>
      </trkpt>
      <trkpt lat="42.27693" lon="2.18549">
        <ele>1172</ele>
        <time>2010-01-01T00:39:09Z</time>
      </trkpt>
      <trkpt lat="42.27689" lon="2.18544">
        <ele>1171</ele>
        <time>2010-01-01T00:39:11Z</time>
      </trkpt>
      <trkpt lat="42.27686" lon="2.1854">
        <ele>1170</ele>
        <time>2010-01-01T00:39:13Z</time>
      </trkpt>
      <trkpt lat="42.27676" lon="2.1854">
        <ele>1171</ele>
        <time>2010-01-01T00:39:17Z</time>
      </trkpt>
      <trkpt lat="42.27669" lon="2.18543">
        <ele>1171</ele>
        <time>2010-01-01T00:39:20Z</time>
      </trkpt>
      <trkpt lat="42.27663" lon="2.18543">
        <ele>1171</ele>
        <time>2010-01-01T00:39:22Z</time>
      </trkpt>
      <trkpt lat="42.27657" lon="2.18541">
        <ele>1170</ele>
        <time>2010-01-01T00:39:24Z</time>
      </trkpt>
      <trkpt lat="42.27651" lon="2.18537">
        <ele>1169</ele>
        <time>2010-01-01T00:39:27Z</time>
      </trkpt>
      <trkpt lat="42.27647" lon="2.18533">
        <ele>1169</ele>
        <time>2010-01-01T00:39:29Z</time>
      </trkpt>
      <trkpt lat="42.27642" lon="2.18531">
        <ele>1168</ele>
        <time>2010-01-01T00:39:31Z</time>
      </trkpt>
      <trkpt lat="42.27637" lon="2.18532">
        <ele>1168</ele>
        <time>2010-01-01T00:39:33Z</time>
      </trkpt>
      <trkpt lat="42.27633" lon="2.18534">
        <ele>1168</ele>
        <time>2010-01-01T00:39:35Z</time>
      </trkpt>
      <trkpt lat="42.27628" lon="2.18538">
        <ele>1168</ele>
        <time>2010-01-01T00:39:37Z</time>
      </trkpt>
      <trkpt lat="42.27622" lon="2.18541">
        <ele>1167</ele>
        <time>2010-01-01T00:39:40Z</time>
      </trkpt>
      <trkpt lat="42.27617" lon="2.18545">
        <ele>1167</ele>
        <time>2010-01-01T00:39:42Z</time>
      </trkpt>
      <trkpt lat="42.27612" lon="2.18548">
        <ele>1166</ele>
        <time>2010-01-01T00:39:44Z</time>
      </trkpt>
      <trkpt lat="42.27608" lon="2.18553">
        <ele>1166</ele>
        <time>2010-01-01T00:39:46Z</time>
      </trkpt>
      <trkpt lat="42.27603" lon="2.18558">
        <ele>1165</ele>
        <time>2010-01-01T00:39:49Z</time>
      </trkpt>
      <trkpt lat="42.27593" lon="2.18565">
        <ele>1164</ele>
        <time>2010-01-01T00:39:54Z</time>
      </trkpt>
      <trkpt lat="42.27584" lon="2.18568">
        <ele>1162</ele>
        <time>2010-01-01T00:39:57Z</time>
      </trkpt>
      <trkpt lat="42.27574" lon="2.18567">
        <ele>1161</ele>
        <time>2010-01-01T00:40:01Z</time>
      </trkpt>
      <trkpt lat="42.27567" lon="2.18565">
        <ele>1160</ele>
        <time>2010-01-01T00:40:04Z</time>
      </trkpt>
      <trkpt lat="42.27561" lon="2.18562">
        <ele>1159</ele>
        <time>2010-01-01T00:40:06Z</time>
      </trkpt>
      <trkpt lat="42.27556" lon="2.18559">
        <ele>1158</ele>
        <time>2010-01-01T00:40:09Z</time>
      </trkpt>
      <trkpt lat="42.27548" lon="2.18556">
        <ele>1159</ele>
        <time>2010-01-01T00:40:12Z</time>
      </trkpt>
      <trkpt lat="42.2754" lon="2.18548">
        <ele>1161</ele>
        <time>2010-01-01T00:40:16Z</time>
      </trkpt>
      <trkpt lat="42.27531" lon="2.1854">
        <ele>1163</ele>
        <time>2010-01-01T00:40:21Z</time>
      </trkpt>
      <trkpt lat="42.27527" lon="2.18524">
        <ele>1163</ele>
        <time>2010-01-01T00:40:25Z</time>
      </trkpt>
      <trkpt lat="42.27524" lon="2.18509">
        <ele>1161</ele>
        <time>2010-01-01T00:40:30Z</time>
      </trkpt>
      <trkpt lat="42.2752" lon="2.18495">
        <ele>1159</ele>
        <time>2010-01-01T00:40:34Z</time>
      </trkpt>
      <trkpt lat="42.27516" lon="2.18484">
        <ele>1157</ele>
        <time>2010-01-01T00:40:38Z</time>
      </trkpt>
      <trkpt lat="42.27512" lon="2.18471">
        <ele>1155</ele>
        <time>2010-01-01T00:40:42Z</time>
      </trkpt>
      <trkpt lat="42.27504" lon="2.1846">
        <ele>1155</ele>
        <time>2010-01-01T00:40:47Z</time>
      </trkpt>
      <trkpt lat="42.27495" lon="2.18454">
        <ele>1155</ele>
        <time>2010-01-01T00:40:51Z</time>
      </trkpt>
      <trkpt lat="42.27486" lon="2.18444">
        <ele>1155</ele>
        <time>2010-01-01T00:40:55Z</time>
      </trkpt>
      <trkpt lat="42.27477" lon="2.1844">
        <ele>1156</ele>
        <time>2010-01-01T00:40:59Z</time>
      </trkpt>
      <trkpt lat="42.27469" lon="2.18434">
        <ele>1156</ele>
        <time>2010-01-01T00:41:03Z</time>
      </trkpt>
      <trkpt lat="42.2746" lon="2.18425">
        <ele>1156</ele>
        <time>2010-01-01T00:41:07Z</time>
      </trkpt>
      <trkpt lat="42.27455" lon="2.1842">
        <ele>1155</ele>
        <time>2010-01-01T00:41:10Z</time>
      </trkpt>
      <trkpt lat="42.27446" lon="2.18413">
        <ele>1155</ele>
        <time>2010-01-01T00:41:14Z</time>
      </trkpt>
      <trkpt lat="42.27434" lon="2.18412">
        <ele>1159</ele>
        <time>2010-01-01T00:41:19Z</time>
      </trkpt>
      <trkpt lat="42.27428" lon="2.18411">
        <ele>1161</ele>
        <time>2010-01-01T00:41:21Z</time>
      </trkpt>
      <trkpt lat="42.27423" lon="2.18408">
        <ele>1162</ele>
        <time>2010-01-01T00:41:23Z</time>
      </trkpt>
      <trkpt lat="42.27411" lon="2.18404">
        <ele>1164</ele>
        <time>2010-01-01T00:41:28Z</time>
      </trkpt>
      <trkpt lat="42.27402" lon="2.18401">
        <ele>1166</ele>
        <time>2010-01-01T00:41:32Z</time>
      </trkpt>
      <trkpt lat="42.27391" lon="2.18397">
        <ele>1169</ele>
        <time>2010-01-01T00:41:37Z</time>
      </trkpt>
      <trkpt lat="42.2738" lon="2.18393">
        <ele>1170</ele>
        <time>2010-01-01T00:41:41Z</time>
      </trkpt>
      <trkpt lat="42.2737" lon="2.18385">
        <ele>1170</ele>
        <time>2010-01-01T00:41:46Z</time>
      </trkpt>
      <trkpt lat="42.27372" lon="2.1837">
        <ele>1169</ele>
        <time>2010-01-01T00:41:50Z</time>
      </trkpt>
      <trkpt lat="42.27378" lon="2.18358">
        <ele>1166</ele>
        <time>2010-01-01T00:41:55Z</time>
      </trkpt>
      <trkpt lat="42.27383" lon="2.18346">
        <ele>1164</ele>
        <time>2010-01-01T00:41:59Z</time>
      </trkpt>
      <trkpt lat="42.27388" lon="2.18335">
        <ele>1163</ele>
        <time>2010-01-01T00:42:02Z</time>
      </trkpt>
      <trkpt lat="42.27387" lon="2.18325">
        <ele>1163</ele>
        <time>2010-01-01T00:42:06Z</time>
      </trkpt>
      <trkpt lat="42.27386" lon="2.18319">
        <ele>1163</ele>
        <time>2010-01-01T00:42:07Z</time>
      </trkpt>
      <trkpt lat="42.27381" lon="2.18305">
        <ele>1164</ele>
        <time>2010-01-01T00:42:12Z</time>
      </trkpt>
      <trkpt lat="42.2738" lon="2.183">
        <ele>1164</ele>
        <time>2010-01-01T00:42:13Z</time>
      </trkpt>
      <trkpt lat="42.27378" lon="2.18294">
        <ele>1164</ele>
        <time>2010-01-01T00:42:15Z</time>
      </trkpt>
      <trkpt lat="42.27376" lon="2.18289">
        <ele>1164</ele>
        <time>2010-01-01T00:42:17Z</time>
      </trkpt>
      <trkpt lat="42.27374" lon="2.18282">
        <ele>1164</ele>
        <time>2010-01-01T00:42:19Z</time>
      </trkpt>
      <trkpt lat="42.27372" lon="2.18276">
        <ele>1163</ele>
        <time>2010-01-01T00:42:21Z</time>
      </trkpt>
      <trkpt lat="42.2737" lon="2.1827">
        <ele>1162</ele>
        <time>2010-01-01T00:42:23Z</time>
      </trkpt>
      <trkpt lat="42.27365" lon="2.18253">
        <ele>1160</ele>
        <time>2010-01-01T00:42:28Z</time>
      </trkpt>
      <trkpt lat="42.27358" lon="2.18244">
        <ele>1160</ele>
        <time>2010-01-01T00:42:32Z</time>
      </trkpt>
      <trkpt lat="42.27347" lon="2.18246">
        <ele>1163</ele>
        <time>2010-01-01T00:42:37Z</time>
      </trkpt>
      <trkpt lat="42.27339" lon="2.18252">
        <ele>1166</ele>
        <time>2010-01-01T00:42:40Z</time>
      </trkpt>
      <trkpt lat="42.27336" lon="2.18257">
        <ele>1167</ele>
        <time>2010-01-01T00:42:42Z</time>
      </trkpt>
      <trkpt lat="42.27333" lon="2.18262">
        <ele>1169</ele>
        <time>2010-01-01T00:42:44Z</time>
      </trkpt>
      <trkpt lat="42.27325" lon="2.18268">
        <ele>1173</ele>
        <time>2010-01-01T00:42:48Z</time>
      </trkpt>
      <trkpt lat="42.27314" lon="2.18265">
        <ele>1175</ele>
        <time>2010-01-01T00:42:52Z</time>
      </trkpt>
      <trkpt lat="42.27305" lon="2.1826">
        <ele>1176</ele>
        <time>2010-01-01T00:42:56Z</time>
      </trkpt>
      <trkpt lat="42.27298" lon="2.18251">
        <ele>1177</ele>
        <time>2010-01-01T00:43:00Z</time>
      </trkpt>
      <trkpt lat="42.2729" lon="2.18241">
        <ele>1179</ele>
        <time>2010-01-01T00:43:05Z</time>
      </trkpt>
      <trkpt lat="42.27284" lon="2.18231">
        <ele>1181</ele>
        <time>2010-01-01T00:43:08Z</time>
      </trkpt>
      <trkpt lat="42.27274" lon="2.18227">
        <ele>1186</ele>
        <time>2010-01-01T00:43:12Z</time>
      </trkpt>
      <trkpt lat="42.27269" lon="2.18217">
        <ele>1190</ele>
        <time>2010-01-01T00:43:16Z</time>
      </trkpt>
      <trkpt lat="42.27266" lon="2.18212">
        <ele>1192</ele>
        <time>2010-01-01T00:43:18Z</time>
      </trkpt>
      <trkpt lat="42.27265" lon="2.18209">
        <ele>1192</ele>
        <time>2010-01-01T00:43:19Z</time>
      </trkpt>
      <trkpt lat="42.27263" lon="2.18206">
        <ele>1193</ele>
        <time>2010-01-01T00:43:20Z</time>
      </trkpt>
      <trkpt lat="42.27262" lon="2.18204">
        <ele>1194</ele>
        <time>2010-01-01T00:43:21Z</time>
      </trkpt>
      <trkpt lat="42.27255" lon="2.18196">
        <ele>1200</ele>
        <time>2010-01-01T00:43:24Z</time>
      </trkpt>
      <trkpt lat="42.27252" lon="2.1819">
        <ele>1202</ele>
        <time>2010-01-01T00:43:27Z</time>
      </trkpt>
      <trkpt lat="42.2725" lon="2.18189">
        <ele>1203</ele>
        <time>2010-01-01T00:43:27Z</time>
      </trkpt>
      <trkpt lat="42.27245" lon="2.18177">
        <ele>1205</ele>
        <time>2010-01-01T00:43:31Z</time>
      </trkpt>
      <trkpt lat="42.27238" lon="2.18169">
        <ele>1208</ele>
        <time>2010-01-01T00:43:35Z</time>
      </trkpt>
      <trkpt lat="42.27232" lon="2.18158">
        <ele>1210</ele>
        <time>2010-01-01T00:43:39Z</time>
      </trkpt>
      <trkpt lat="42.27228" lon="2.18146">
        <ele>1210</ele>
        <time>2010-01-01T00:43:43Z</time>
      </trkpt>
      <trkpt lat="42.27223" lon="2.18136">
        <ele>1213</ele>
        <time>2010-01-01T00:43:47Z</time>
      </trkpt>
      <trkpt lat="42.27216" lon="2.18126">
        <ele>1215</ele>
        <time>2010-01-01T00:43:51Z</time>
      </trkpt>
      <trkpt lat="42.27214" lon="2.18124">
        <ele>1216</ele>
        <time>2010-01-01T00:43:52Z</time>
      </trkpt>
      <trkpt lat="42.27213" lon="2.18116">
        <ele>1215</ele>
        <time>2010-01-01T00:43:54Z</time>
      </trkpt>
      <trkpt lat="42.27211" lon="2.18114">
        <ele>1216</ele>
        <time>2010-01-01T00:43:55Z</time>
      </trkpt>
      <trkpt lat="42.27203" lon="2.18106">
        <ele>1220</ele>
        <time>2010-01-01T00:43:59Z</time>
      </trkpt>
      <trkpt lat="42.27199" lon="2.18096">
        <ele>1222</ele>
        <time>2010-01-01T00:44:02Z</time>
      </trkpt>
      <trkpt lat="42.27192" lon="2.18088">
        <ele>1226</ele>
        <time>2010-01-01T00:44:06Z</time>
      </trkpt>
      <trkpt lat="42.27185" lon="2.18078">
        <ele>1231</ele>
        <time>2010-01-01T00:44:10Z</time>
      </trkpt>
      <trkpt lat="42.27179" lon="2.18067">
        <ele>1234</ele>
        <time>2010-01-01T00:44:14Z</time>
      </trkpt>
      <trkpt lat="42.27174" lon="2.18058">
        <ele>1237</ele>
        <time>2010-01-01T00:44:17Z</time>
      </trkpt>
      <trkpt lat="42.27171" lon="2.18057">
        <ele>1238</ele>
        <time>2010-01-01T00:44:19Z</time>
      </trkpt>
      <trkpt lat="42.2717" lon="2.18053">
        <ele>1239</ele>
        <time>2010-01-01T00:44:20Z</time>
      </trkpt>
      <trkpt lat="42.27168" lon="2.1805">
        <ele>1239</ele>
        <time>2010-01-01T00:44:21Z</time>
      </trkpt>
      <trkpt lat="42.27169" lon="2.18037">
        <ele>1236</ele>
        <time>2010-01-01T00:44:25Z</time>
      </trkpt>
      <trkpt lat="42.27169" lon="2.18029">
        <ele>1234</ele>
        <time>2010-01-01T00:44:27Z</time>
      </trkpt>
      <trkpt lat="42.27168" lon="2.18027">
        <ele>1234</ele>
        <time>2010-01-01T00:44:28Z</time>
      </trkpt>
      <trkpt lat="42.27166" lon="2.18024">
        <ele>1235</ele>
        <time>2010-01-01T00:44:29Z</time>
      </trkpt>
      <trkpt lat="42.27166" lon="2.18021">
        <ele>1235</ele>
        <time>2010-01-01T00:44:30Z</time>
      </trkpt>
      <trkpt lat="42.27166" lon="2.18018">
        <ele>1234</ele>
        <time>2010-01-01T00:44:30Z</time>
      </trkpt>
      <trkpt lat="42.27165" lon="2.18015">
        <ele>1234</ele>
        <time>2010-01-01T00:44:31Z</time>
      </trkpt>
      <trkpt lat="42.27164" lon="2.18013">
        <ele>1235</ele>
        <time>2010-01-01T00:44:32Z</time>
      </trkpt>
      <trkpt lat="42.27163" lon="2.18011">
        <ele>1235</ele>
        <time>2010-01-01T00:44:33Z</time>
      </trkpt>
      <trkpt lat="42.27161" lon="2.17998">
        <ele>1234</ele>
        <time>2010-01-01T00:44:37Z</time>
      </trkpt>
      <trkpt lat="42.27159" lon="2.17996">
        <ele>1235</ele>
        <time>2010-01-01T00:44:38Z</time>
      </trkpt>
      <trkpt lat="42.27156" lon="2.17994">
        <ele>1237</ele>
        <time>2010-01-01T00:44:39Z</time>
      </trkpt>
      <trkpt lat="42.27154" lon="2.17992">
        <ele>1238</ele>
        <time>2010-01-01T00:44:40Z</time>
      </trkpt>
      <trkpt lat="42.27154" lon="2.17989">
        <ele>1239</ele>
        <time>2010-01-01T00:44:41Z</time>
      </trkpt>
      <trkpt lat="42.27154" lon="2.17986">
        <ele>1238</ele>
        <time>2010-01-01T00:44:42Z</time>
      </trkpt>
      <trkpt lat="42.27153" lon="2.17983">
        <ele>1239</ele>
        <time>2010-01-01T00:44:43Z</time>
      </trkpt>
      <trkpt lat="42.27151" lon="2.17981">
        <ele>1240</ele>
        <time>2010-01-01T00:44:44Z</time>
      </trkpt>
      <trkpt lat="42.27149" lon="2.17979">
        <ele>1241</ele>
        <time>2010-01-01T00:44:45Z</time>
      </trkpt>
      <trkpt lat="42.27147" lon="2.17978">
        <ele>1244</ele>
        <time>2010-01-01T00:44:46Z</time>
      </trkpt>
      <trkpt lat="42.27145" lon="2.17975">
        <ele>1244</ele>
        <time>2010-01-01T00:44:47Z</time>
      </trkpt>
      <trkpt lat="42.27142" lon="2.17974">
        <ele>1247</ele>
        <time>2010-01-01T00:44:48Z</time>
      </trkpt>
      <trkpt lat="42.2714" lon="2.17973">
        <ele>1248</ele>
        <time>2010-01-01T00:44:49Z</time>
      </trkpt>
      <trkpt lat="42.27138" lon="2.17975">
        <ele>1250</ele>
        <time>2010-01-01T00:44:50Z</time>
      </trkpt>
      <trkpt lat="42.27136" lon="2.17976">
        <ele>1251</ele>
        <time>2010-01-01T00:44:51Z</time>
      </trkpt>
      <trkpt lat="42.27135" lon="2.17975">
        <ele>1251</ele>
        <time>2010-01-01T00:44:51Z</time>
      </trkpt>
      <trkpt lat="42.27133" lon="2.17974">
        <ele>1252</ele>
        <time>2010-01-01T00:44:52Z</time>
      </trkpt>
      <trkpt lat="42.27131" lon="2.17973">
        <ele>1252</ele>
        <time>2010-01-01T00:44:53Z</time>
      </trkpt>
      <trkpt lat="42.27129" lon="2.17971">
        <ele>1252</ele>
        <time>2010-01-01T00:44:54Z</time>
      </trkpt>
      <trkpt lat="42.27128" lon="2.17968">
        <ele>1253</ele>
        <time>2010-01-01T00:44:55Z</time>
      </trkpt>
      <trkpt lat="42.27126" lon="2.17966">
        <ele>1253</ele>
        <time>2010-01-01T00:44:56Z</time>
      </trkpt>
      <trkpt lat="42.27125" lon="2.17964">
        <ele>1253</ele>
        <time>2010-01-01T00:44:57Z</time>
      </trkpt>
      <trkpt lat="42.27124" lon="2.17961">
        <ele>1254</ele>
        <time>2010-01-01T00:44:57Z</time>
      </trkpt>
      <trkpt lat="42.27123" lon="2.17959">
        <ele>1254</ele>
        <time>2010-01-01T00:44:58Z</time>
      </trkpt>
      <trkpt lat="42.27122" lon="2.17956">
        <ele>1254</ele>
        <time>2010-01-01T00:44:59Z</time>
      </trkpt>
      <trkpt lat="42.27122" lon="2.17954">
        <ele>1254</ele>
        <time>2010-01-01T00:45:00Z</time>
      </trkpt>
      <trkpt lat="42.2712" lon="2.17951">
        <ele>1254</ele>
        <time>2010-01-01T00:45:01Z</time>
      </trkpt>
      <trkpt lat="42.27119" lon="2.1795">
        <ele>1254</ele>
        <time>2010-01-01T00:45:01Z</time>
      </trkpt>
      <trkpt lat="42.27117" lon="2.17948">
        <ele>1255</ele>
        <time>2010-01-01T00:45:02Z</time>
      </trkpt>
      <trkpt lat="42.27115" lon="2.17946">
        <ele>1256</ele>
        <time>2010-01-01T00:45:03Z</time>
      </trkpt>
      <trkpt lat="42.27113" lon="2.17945">
        <ele>1256</ele>
        <time>2010-01-01T00:45:04Z</time>
      </trkpt>
      <trkpt lat="42.27111" lon="2.17944">
        <ele>1256</ele>
        <time>2010-01-01T00:45:05Z</time>
      </trkpt>
      <trkpt lat="42.27109" lon="2.17941">
        <ele>1256</ele>
        <time>2010-01-01T00:45:06Z</time>
      </trkpt>
      <trkpt lat="42.27106" lon="2.17939">
        <ele>1256</ele>
        <time>2010-01-01T00:45:07Z</time>
      </trkpt>
      <trkpt lat="42.27104" lon="2.17938">
        <ele>1255</ele>
        <time>2010-01-01T00:45:08Z</time>
      </trkpt>
      <trkpt lat="42.27101" lon="2.17937">
        <ele>1254</ele>
        <time>2010-01-01T00:45:10Z</time>
      </trkpt>
      <trkpt lat="42.27099" lon="2.17936">
        <ele>1254</ele>
        <time>2010-01-01T00:45:11Z</time>
      </trkpt>
      <trkpt lat="42.27096" lon="2.17935">
        <ele>1253</ele>
        <time>2010-01-01T00:45:12Z</time>
      </trkpt>
      <trkpt lat="42.27093" lon="2.17935">
        <ele>1253</ele>
        <time>2010-01-01T00:45:13Z</time>
      </trkpt>
      <trkpt lat="42.2709" lon="2.17936">
        <ele>1252</ele>
        <time>2010-01-01T00:45:14Z</time>
      </trkpt>
      <trkpt lat="42.27087" lon="2.17937">
        <ele>1252</ele>
        <time>2010-01-01T00:45:15Z</time>
      </trkpt>
      <trkpt lat="42.27085" lon="2.17938">
        <ele>1252</ele>
        <time>2010-01-01T00:45:16Z</time>
      </trkpt>
      <trkpt lat="42.27081" lon="2.17937">
        <ele>1251</ele>
        <time>2010-01-01T00:45:18Z</time>
      </trkpt>
      <trkpt lat="42.27077" lon="2.17936">
        <ele>1250</ele>
        <time>2010-01-01T00:45:19Z</time>
      </trkpt>
      <trkpt lat="42.27072" lon="2.17936">
        <ele>1248</ele>
        <time>2010-01-01T00:45:22Z</time>
      </trkpt>
      <trkpt lat="42.27069" lon="2.17939">
        <ele>1247</ele>
        <time>2010-01-01T00:45:23Z</time>
      </trkpt>
      <trkpt lat="42.27066" lon="2.17942">
        <ele>1247</ele>
        <time>2010-01-01T00:45:24Z</time>
      </trkpt>
      <trkpt lat="42.27063" lon="2.17946">
        <ele>1247</ele>
        <time>2010-01-01T00:45:26Z</time>
      </trkpt>
      <trkpt lat="42.2706" lon="2.17949">
        <ele>1247</ele>
        <time>2010-01-01T00:45:28Z</time>
      </trkpt>
      <trkpt lat="42.27058" lon="2.17954">
        <ele>1247</ele>
        <time>2010-01-01T00:45:29Z</time>
      </trkpt>
      <trkpt lat="42.27056" lon="2.17961">
        <ele>1248</ele>
        <time>2010-01-01T00:45:31Z</time>
      </trkpt>
      <trkpt lat="42.27054" lon="2.17967">
        <ele>1249</ele>
        <time>2010-01-01T00:45:34Z</time>
      </trkpt>
      <trkpt lat="42.27053" lon="2.17974">
        <ele>1250</ele>
        <time>2010-01-01T00:45:36Z</time>
      </trkpt>
      <trkpt lat="42.27052" lon="2.1798">
        <ele>1250</ele>
        <time>2010-01-01T00:45:37Z</time>
      </trkpt>
      <trkpt lat="42.27051" lon="2.17986">
        <ele>1251</ele>
        <time>2010-01-01T00:45:39Z</time>
      </trkpt>
      <trkpt lat="42.2705" lon="2.17994">
        <ele>1253</ele>
        <time>2010-01-01T00:45:42Z</time>
      </trkpt>
      <trkpt lat="42.27049" lon="2.18003">
        <ele>1254</ele>
        <time>2010-01-01T00:45:44Z</time>
      </trkpt>
      <trkpt lat="42.27048" lon="2.18012">
        <ele>1255</ele>
        <time>2010-01-01T00:45:47Z</time>
      </trkpt>
      <trkpt lat="42.27046" lon="2.1802">
        <ele>1256</ele>
        <time>2010-01-01T00:45:49Z</time>
      </trkpt>
      <trkpt lat="42.27044" lon="2.18027">
        <ele>1257</ele>
        <time>2010-01-01T00:45:52Z</time>
      </trkpt>
      <trkpt lat="42.27041" lon="2.18034">
        <ele>1257</ele>
        <time>2010-01-01T00:45:54Z</time>
      </trkpt>
      <trkpt lat="42.27039" lon="2.18041">
        <ele>1257</ele>
        <time>2010-01-01T00:45:56Z</time>
      </trkpt>
      <trkpt lat="42.27036" lon="2.18049">
        <ele>1257</ele>
        <time>2010-01-01T00:45:59Z</time>
      </trkpt>
      <trkpt lat="42.27032" lon="2.18055">
        <ele>1257</ele>
        <time>2010-01-01T00:46:01Z</time>
      </trkpt>
      <trkpt lat="42.27027" lon="2.18062">
        <ele>1256</ele>
        <time>2010-01-01T00:46:04Z</time>
      </trkpt>
      <trkpt lat="42.27024" lon="2.18068">
        <ele>1255</ele>
        <time>2010-01-01T00:46:06Z</time>
      </trkpt>
      <trkpt lat="42.2702" lon="2.18075">
        <ele>1253</ele>
        <time>2010-01-01T00:46:09Z</time>
      </trkpt>
      <trkpt lat="42.27017" lon="2.18082">
        <ele>1253</ele>
        <time>2010-01-01T00:46:12Z</time>
      </trkpt>
      <trkpt lat="42.27013" lon="2.1809">
        <ele>1253</ele>
        <time>2010-01-01T00:46:14Z</time>
      </trkpt>
      <trkpt lat="42.2701" lon="2.18097">
        <ele>1253</ele>
        <time>2010-01-01T00:46:17Z</time>
      </trkpt>
      <trkpt lat="42.27007" lon="2.18103">
        <ele>1253</ele>
        <time>2010-01-01T00:46:19Z</time>
      </trkpt>
      <trkpt lat="42.27005" lon="2.18111">
        <ele>1253</ele>
        <time>2010-01-01T00:46:21Z</time>
      </trkpt>
      <trkpt lat="42.27003" lon="2.18118">
        <ele>1254</ele>
        <time>2010-01-01T00:46:24Z</time>
      </trkpt>
      <trkpt lat="42.27" lon="2.18126">
        <ele>1254</ele>
        <time>2010-01-01T00:46:26Z</time>
      </trkpt>
      <trkpt lat="42.26996" lon="2.18133">
        <ele>1253</ele>
        <time>2010-01-01T00:46:29Z</time>
      </trkpt>
      <trkpt lat="42.26992" lon="2.1814">
        <ele>1252</ele>
        <time>2010-01-01T00:46:31Z</time>
      </trkpt>
      <trkpt lat="42.26989" lon="2.18149">
        <ele>1252</ele>
        <time>2010-01-01T00:46:34Z</time>
      </trkpt>
      <trkpt lat="42.26987" lon="2.18158">
        <ele>1253</ele>
        <time>2010-01-01T00:46:37Z</time>
      </trkpt>
      <trkpt lat="42.26987" lon="2.18168">
        <ele>1254</ele>
        <time>2010-01-01T00:46:40Z</time>
      </trkpt>
      <trkpt lat="42.26987" lon="2.18177">
        <ele>1255</ele>
        <time>2010-01-01T00:46:43Z</time>
      </trkpt>
      <trkpt lat="42.26988" lon="2.18186">
        <ele>1255</ele>
        <time>2010-01-01T00:46:45Z</time>
      </trkpt>
      <trkpt lat="42.2699" lon="2.18195">
        <ele>1256</ele>
        <time>2010-01-01T00:46:48Z</time>
      </trkpt>
      <trkpt lat="42.2699" lon="2.18204">
        <ele>1256</ele>
        <time>2010-01-01T00:46:51Z</time>
      </trkpt>
      <trkpt lat="42.26991" lon="2.18212">
        <ele>1255</ele>
        <time>2010-01-01T00:46:53Z</time>
      </trkpt>
      <trkpt lat="42.26993" lon="2.18219">
        <ele>1255</ele>
        <time>2010-01-01T00:46:55Z</time>
      </trkpt>
      <trkpt lat="42.26994" lon="2.18227">
        <ele>1254</ele>
        <time>2010-01-01T00:46:58Z</time>
      </trkpt>
      <trkpt lat="42.26995" lon="2.18235">
        <ele>1253</ele>
        <time>2010-01-01T00:47:00Z</time>
      </trkpt>
      <trkpt lat="42.26996" lon="2.18244">
        <ele>1252</ele>
        <time>2010-01-01T00:47:03Z</time>
      </trkpt>
      <trkpt lat="42.26998" lon="2.18251">
        <ele>1251</ele>
        <time>2010-01-01T00:47:05Z</time>
      </trkpt>
      <trkpt lat="42.27" lon="2.18258">
        <ele>1252</ele>
        <time>2010-01-01T00:47:07Z</time>
      </trkpt>
      <trkpt lat="42.27001" lon="2.18266">
        <ele>1252</ele>
        <time>2010-01-01T00:47:10Z</time>
      </trkpt>
      <trkpt lat="42.27004" lon="2.18275">
        <ele>1253</ele>
        <time>2010-01-01T00:47:13Z</time>
      </trkpt>
      <trkpt lat="42.27004" lon="2.18284">
        <ele>1253</ele>
        <time>2010-01-01T00:47:15Z</time>
      </trkpt>
      <trkpt lat="42.27005" lon="2.18292">
        <ele>1252</ele>
        <time>2010-01-01T00:47:17Z</time>
      </trkpt>
      <trkpt lat="42.27006" lon="2.183">
        <ele>1253</ele>
        <time>2010-01-01T00:47:20Z</time>
      </trkpt>
      <trkpt lat="42.27006" lon="2.18309">
        <ele>1253</ele>
        <time>2010-01-01T00:47:23Z</time>
      </trkpt>
      <trkpt lat="42.27008" lon="2.18324">
        <ele>1254</ele>
        <time>2010-01-01T00:47:27Z</time>
      </trkpt>
      <trkpt lat="42.27006" lon="2.18333">
        <ele>1254</ele>
        <time>2010-01-01T00:47:30Z</time>
      </trkpt>
      <trkpt lat="42.27003" lon="2.18338">
        <ele>1253</ele>
        <time>2010-01-01T00:47:32Z</time>
      </trkpt>
      <trkpt lat="42.27" lon="2.18342">
        <ele>1252</ele>
        <time>2010-01-01T00:47:34Z</time>
      </trkpt>
      <trkpt lat="42.26995" lon="2.18346">
        <ele>1252</ele>
        <time>2010-01-01T00:47:36Z</time>
      </trkpt>
      <trkpt lat="42.2699" lon="2.1835">
        <ele>1251</ele>
        <time>2010-01-01T00:47:38Z</time>
      </trkpt>
      <trkpt lat="42.26985" lon="2.18352">
        <ele>1250</ele>
        <time>2010-01-01T00:47:40Z</time>
      </trkpt>
      <trkpt lat="42.2698" lon="2.18353">
        <ele>1249</ele>
        <time>2010-01-01T00:47:42Z</time>
      </trkpt>
      <trkpt lat="42.26976" lon="2.18354">
        <ele>1248</ele>
        <time>2010-01-01T00:47:44Z</time>
      </trkpt>
      <trkpt lat="42.26972" lon="2.18356">
        <ele>1248</ele>
        <time>2010-01-01T00:47:46Z</time>
      </trkpt>
      <trkpt lat="42.26968" lon="2.1836">
        <ele>1248</ele>
        <time>2010-01-01T00:47:48Z</time>
      </trkpt>
      <trkpt lat="42.26963" lon="2.18365">
        <ele>1249</ele>
        <time>2010-01-01T00:47:50Z</time>
      </trkpt>
      <trkpt lat="42.26959" lon="2.1837">
        <ele>1250</ele>
        <time>2010-01-01T00:47:52Z</time>
      </trkpt>
      <trkpt lat="42.26954" lon="2.18374">
        <ele>1251</ele>
        <time>2010-01-01T00:47:55Z</time>
      </trkpt>
      <trkpt lat="42.26949" lon="2.18379">
        <ele>1252</ele>
        <time>2010-01-01T00:47:57Z</time>
      </trkpt>
      <trkpt lat="42.26944" lon="2.18384">
        <ele>1253</ele>
        <time>2010-01-01T00:48:00Z</time>
      </trkpt>
      <trkpt lat="42.26939" lon="2.18389">
        <ele>1253</ele>
        <time>2010-01-01T00:48:02Z</time>
      </trkpt>
      <trkpt lat="42.26933" lon="2.18389">
        <ele>1252</ele>
        <time>2010-01-01T00:48:05Z</time>
      </trkpt>
      <trkpt lat="42.26928" lon="2.18385">
        <ele>1250</ele>
        <time>2010-01-01T00:48:07Z</time>
      </trkpt>
      <trkpt lat="42.26924" lon="2.18381">
        <ele>1248</ele>
        <time>2010-01-01T00:48:09Z</time>
      </trkpt>
      <trkpt lat="42.2692" lon="2.18376">
        <ele>1246</ele>
        <time>2010-01-01T00:48:11Z</time>
      </trkpt>
      <trkpt lat="42.26917" lon="2.18371">
        <ele>1244</ele>
        <time>2010-01-01T00:48:13Z</time>
      </trkpt>
      <trkpt lat="42.26915" lon="2.18365">
        <ele>1242</ele>
        <time>2010-01-01T00:48:15Z</time>
      </trkpt>
      <trkpt lat="42.26913" lon="2.18358">
        <ele>1240</ele>
        <time>2010-01-01T00:48:17Z</time>
      </trkpt>
      <trkpt lat="42.26911" lon="2.18351">
        <ele>1239</ele>
        <time>2010-01-01T00:48:19Z</time>
      </trkpt>
      <trkpt lat="42.26908" lon="2.18345">
        <ele>1239</ele>
        <time>2010-01-01T00:48:21Z</time>
      </trkpt>
      <trkpt lat="42.26904" lon="2.18342">
        <ele>1237</ele>
        <time>2010-01-01T00:48:23Z</time>
      </trkpt>
      <trkpt lat="42.269" lon="2.18343">
        <ele>1237</ele>
        <time>2010-01-01T00:48:25Z</time>
      </trkpt>
      <trkpt lat="42.26898" lon="2.18349">
        <ele>1237</ele>
        <time>2010-01-01T00:48:27Z</time>
      </trkpt>
      <trkpt lat="42.26896" lon="2.18357">
        <ele>1237</ele>
        <time>2010-01-01T00:48:29Z</time>
      </trkpt>
      <trkpt lat="42.26895" lon="2.18365">
        <ele>1237</ele>
        <time>2010-01-01T00:48:31Z</time>
      </trkpt>
      <trkpt lat="42.26892" lon="2.18372">
        <ele>1238</ele>
        <time>2010-01-01T00:48:34Z</time>
      </trkpt>
      <trkpt lat="42.26889" lon="2.18379">
        <ele>1239</ele>
        <time>2010-01-01T00:48:36Z</time>
      </trkpt>
      <trkpt lat="42.26886" lon="2.18387">
        <ele>1239</ele>
        <time>2010-01-01T00:48:39Z</time>
      </trkpt>
      <trkpt lat="42.26883" lon="2.18394">
        <ele>1240</ele>
        <time>2010-01-01T00:48:41Z</time>
      </trkpt>
      <trkpt lat="42.26882" lon="2.18402">
        <ele>1241</ele>
        <time>2010-01-01T00:48:44Z</time>
      </trkpt>
      <trkpt lat="42.2688" lon="2.18409">
        <ele>1242</ele>
        <time>2010-01-01T00:48:46Z</time>
      </trkpt>
      <trkpt lat="42.26879" lon="2.18418">
        <ele>1243</ele>
        <time>2010-01-01T00:48:49Z</time>
      </trkpt>
      <trkpt lat="42.26879" lon="2.18426">
        <ele>1244</ele>
        <time>2010-01-01T00:48:51Z</time>
      </trkpt>
      <trkpt lat="42.26878" lon="2.18434">
        <ele>1245</ele>
        <time>2010-01-01T00:48:53Z</time>
      </trkpt>
      <trkpt lat="42.26878" lon="2.18443">
        <ele>1246</ele>
        <time>2010-01-01T00:48:56Z</time>
      </trkpt>
      <trkpt lat="42.26878" lon="2.18452">
        <ele>1248</ele>
        <time>2010-01-01T00:48:59Z</time>
      </trkpt>
      <trkpt lat="42.26877" lon="2.1846">
        <ele>1249</ele>
        <time>2010-01-01T00:49:01Z</time>
      </trkpt>
      <trkpt lat="42.26876" lon="2.18467">
        <ele>1251</ele>
        <time>2010-01-01T00:49:03Z</time>
      </trkpt>
      <trkpt lat="42.26874" lon="2.18473">
        <ele>1252</ele>
        <time>2010-01-01T00:49:05Z</time>
      </trkpt>
      <trkpt lat="42.26871" lon="2.1848">
        <ele>1252</ele>
        <time>2010-01-01T00:49:08Z</time>
      </trkpt>
      <trkpt lat="42.26869" lon="2.18487">
        <ele>1254</ele>
        <time>2010-01-01T00:49:10Z</time>
      </trkpt>
      <trkpt lat="42.26868" lon="2.18494">
        <ele>1255</ele>
        <time>2010-01-01T00:49:12Z</time>
      </trkpt>
      <trkpt lat="42.26866" lon="2.18501">
        <ele>1257</ele>
        <time>2010-01-01T00:49:14Z</time>
      </trkpt>
      <trkpt lat="42.26863" lon="2.18506">
        <ele>1257</ele>
        <time>2010-01-01T00:49:16Z</time>
      </trkpt>
      <trkpt lat="42.26854" lon="2.18509">
        <ele>1257</ele>
        <time>2010-01-01T00:49:20Z</time>
      </trkpt>
      <trkpt lat="42.2685" lon="2.18504">
        <ele>1256</ele>
        <time>2010-01-01T00:49:22Z</time>
      </trkpt>
      <trkpt lat="42.26846" lon="2.185">
        <ele>1254</ele>
        <time>2010-01-01T00:49:24Z</time>
      </trkpt>
      <trkpt lat="42.26842" lon="2.18496">
        <ele>1253</ele>
        <time>2010-01-01T00:49:26Z</time>
      </trkpt>
      <trkpt lat="42.26838" lon="2.18494">
        <ele>1252</ele>
        <time>2010-01-01T00:49:28Z</time>
      </trkpt>
      <trkpt lat="42.26835" lon="2.18491">
        <ele>1251</ele>
        <time>2010-01-01T00:49:29Z</time>
      </trkpt>
      <trkpt lat="42.26831" lon="2.18488">
        <ele>1251</ele>
        <time>2010-01-01T00:49:31Z</time>
      </trkpt>
      <trkpt lat="42.26828" lon="2.18484">
        <ele>1251</ele>
        <time>2010-01-01T00:49:33Z</time>
      </trkpt>
      <trkpt lat="42.26825" lon="2.18478">
        <ele>1250</ele>
        <time>2010-01-01T00:49:35Z</time>
      </trkpt>
      <trkpt lat="42.26819" lon="2.18469">
        <ele>1250</ele>
        <time>2010-01-01T00:49:38Z</time>
      </trkpt>
      <trkpt lat="42.26817" lon="2.18462">
        <ele>1249</ele>
        <time>2010-01-01T00:49:41Z</time>
      </trkpt>
      <trkpt lat="42.26815" lon="2.18453">
        <ele>1248</ele>
        <time>2010-01-01T00:49:43Z</time>
      </trkpt>
      <trkpt lat="42.26813" lon="2.18445">
        <ele>1247</ele>
        <time>2010-01-01T00:49:46Z</time>
      </trkpt>
      <trkpt lat="42.26812" lon="2.18438">
        <ele>1246</ele>
        <time>2010-01-01T00:49:48Z</time>
      </trkpt>
      <trkpt lat="42.26811" lon="2.1843">
        <ele>1245</ele>
        <time>2010-01-01T00:49:51Z</time>
      </trkpt>
      <trkpt lat="42.26808" lon="2.18422">
        <ele>1244</ele>
        <time>2010-01-01T00:49:53Z</time>
      </trkpt>
      <trkpt lat="42.26805" lon="2.18416">
        <ele>1244</ele>
        <time>2010-01-01T00:49:55Z</time>
      </trkpt>
      <trkpt lat="42.26802" lon="2.1841">
        <ele>1244</ele>
        <time>2010-01-01T00:49:57Z</time>
      </trkpt>
      <trkpt lat="42.26798" lon="2.18405">
        <ele>1245</ele>
        <time>2010-01-01T00:49:59Z</time>
      </trkpt>
      <trkpt lat="42.26795" lon="2.18399">
        <ele>1245</ele>
        <time>2010-01-01T00:50:01Z</time>
      </trkpt>
      <trkpt lat="42.26792" lon="2.18395">
        <ele>1246</ele>
        <time>2010-01-01T00:50:03Z</time>
      </trkpt>
      <trkpt lat="42.26787" lon="2.1839">
        <ele>1247</ele>
        <time>2010-01-01T00:50:06Z</time>
      </trkpt>
      <trkpt lat="42.26783" lon="2.18385">
        <ele>1247</ele>
        <time>2010-01-01T00:50:08Z</time>
      </trkpt>
      <trkpt lat="42.26779" lon="2.1838">
        <ele>1246</ele>
        <time>2010-01-01T00:50:10Z</time>
      </trkpt>
      <trkpt lat="42.26774" lon="2.18375">
        <ele>1246</ele>
        <time>2010-01-01T00:50:13Z</time>
      </trkpt>
      <trkpt lat="42.26769" lon="2.18369">
        <ele>1247</ele>
        <time>2010-01-01T00:50:15Z</time>
      </trkpt>
      <trkpt lat="42.26764" lon="2.18365">
        <ele>1247</ele>
        <time>2010-01-01T00:50:18Z</time>
      </trkpt>
      <trkpt lat="42.2676" lon="2.18361">
        <ele>1247</ele>
        <time>2010-01-01T00:50:20Z</time>
      </trkpt>
      <trkpt lat="42.26755" lon="2.18356">
        <ele>1247</ele>
        <time>2010-01-01T00:50:22Z</time>
      </trkpt>
      <trkpt lat="42.2675" lon="2.18351">
        <ele>1246</ele>
        <time>2010-01-01T00:50:25Z</time>
      </trkpt>
      <trkpt lat="42.26746" lon="2.18345">
        <ele>1243</ele>
        <time>2010-01-01T00:50:27Z</time>
      </trkpt>
      <trkpt lat="42.26741" lon="2.1834">
        <ele>1242</ele>
        <time>2010-01-01T00:50:30Z</time>
      </trkpt>
      <trkpt lat="42.26735" lon="2.18337">
        <ele>1242</ele>
        <time>2010-01-01T00:50:32Z</time>
      </trkpt>
      <trkpt lat="42.26729" lon="2.18338">
        <ele>1243</ele>
        <time>2010-01-01T00:50:34Z</time>
      </trkpt>
      <trkpt lat="42.26723" lon="2.18338">
        <ele>1244</ele>
        <time>2010-01-01T00:50:37Z</time>
      </trkpt>
      <trkpt lat="42.26716" lon="2.18336">
        <ele>1244</ele>
        <time>2010-01-01T00:50:40Z</time>
      </trkpt>
      <trkpt lat="42.26709" lon="2.1833">
        <ele>1243</ele>
        <time>2010-01-01T00:50:43Z</time>
      </trkpt>
      <trkpt lat="42.26704" lon="2.18325">
        <ele>1242</ele>
        <time>2010-01-01T00:50:45Z</time>
      </trkpt>
      <trkpt lat="42.267" lon="2.18321">
        <ele>1242</ele>
        <time>2010-01-01T00:50:48Z</time>
      </trkpt>
      <trkpt lat="42.26694" lon="2.18318">
        <ele>1242</ele>
        <time>2010-01-01T00:50:50Z</time>
      </trkpt>
      <trkpt lat="42.26687" lon="2.18316">
        <ele>1242</ele>
        <time>2010-01-01T00:50:53Z</time>
      </trkpt>
      <trkpt lat="42.2668" lon="2.18315">
        <ele>1242</ele>
        <time>2010-01-01T00:50:56Z</time>
      </trkpt>
      <trkpt lat="42.26674" lon="2.18313">
        <ele>1242</ele>
        <time>2010-01-01T00:50:58Z</time>
      </trkpt>
      <trkpt lat="42.26667" lon="2.18312">
        <ele>1243</ele>
        <time>2010-01-01T00:51:01Z</time>
      </trkpt>
      <trkpt lat="42.2666" lon="2.18311">
        <ele>1242</ele>
        <time>2010-01-01T00:51:04Z</time>
      </trkpt>
      <trkpt lat="42.26653" lon="2.18309">
        <ele>1242</ele>
        <time>2010-01-01T00:51:07Z</time>
      </trkpt>
      <trkpt lat="42.26647" lon="2.18307">
        <ele>1241</ele>
        <time>2010-01-01T00:51:09Z</time>
      </trkpt>
      <trkpt lat="42.2664" lon="2.18305">
        <ele>1240</ele>
        <time>2010-01-01T00:51:12Z</time>
      </trkpt>
      <trkpt lat="42.26633" lon="2.18303">
        <ele>1240</ele>
        <time>2010-01-01T00:51:15Z</time>
      </trkpt>
      <trkpt lat="42.26623" lon="2.18301">
        <ele>1240</ele>
        <time>2010-01-01T00:51:19Z</time>
      </trkpt>
      <trkpt lat="42.26618" lon="2.18298">
        <ele>1240</ele>
        <time>2010-01-01T00:51:21Z</time>
      </trkpt>
      <trkpt lat="42.26613" lon="2.18296">
        <ele>1239</ele>
        <time>2010-01-01T00:51:23Z</time>
      </trkpt>
      <trkpt lat="42.266" lon="2.18289">
        <ele>1240</ele>
        <time>2010-01-01T00:51:29Z</time>
      </trkpt>
      <trkpt lat="42.26597" lon="2.18281">
        <ele>1239</ele>
        <time>2010-01-01T00:51:31Z</time>
      </trkpt>
      <trkpt lat="42.26597" lon="2.18278">
        <ele>1238</ele>
        <time>2010-01-01T00:51:32Z</time>
      </trkpt>
      <trkpt lat="42.26596" lon="2.18275">
        <ele>1238</ele>
        <time>2010-01-01T00:51:33Z</time>
      </trkpt>
      <trkpt lat="42.26595" lon="2.18271">
        <ele>1237</ele>
        <time>2010-01-01T00:51:35Z</time>
      </trkpt>
      <trkpt lat="42.26587" lon="2.18261">
        <ele>1237</ele>
        <time>2010-01-01T00:51:39Z</time>
      </trkpt>
      <trkpt lat="42.26581" lon="2.18252">
        <ele>1237</ele>
        <time>2010-01-01T00:51:43Z</time>
      </trkpt>
      <trkpt lat="42.26579" lon="2.18248">
        <ele>1238</ele>
        <time>2010-01-01T00:51:44Z</time>
      </trkpt>
      <trkpt lat="42.26572" lon="2.18235">
        <ele>1242</ele>
        <time>2010-01-01T00:51:48Z</time>
      </trkpt>
      <trkpt lat="42.26569" lon="2.18229">
        <ele>1243</ele>
        <time>2010-01-01T00:51:51Z</time>
      </trkpt>
      <trkpt lat="42.26568" lon="2.18225">
        <ele>1244</ele>
        <time>2010-01-01T00:51:52Z</time>
      </trkpt>
      <trkpt lat="42.26564" lon="2.18211">
        <ele>1244</ele>
        <time>2010-01-01T00:51:57Z</time>
      </trkpt>
      <trkpt lat="42.26565" lon="2.18196">
        <ele>1240</ele>
        <time>2010-01-01T00:52:01Z</time>
      </trkpt>
      <trkpt lat="42.26564" lon="2.18181">
        <ele>1238</ele>
        <time>2010-01-01T00:52:06Z</time>
      </trkpt>
      <trkpt lat="42.26558" lon="2.18169">
        <ele>1238</ele>
        <time>2010-01-01T00:52:10Z</time>
      </trkpt>
      <trkpt lat="42.26552" lon="2.1816">
        <ele>1238</ele>
        <time>2010-01-01T00:52:13Z</time>
      </trkpt>
      <trkpt lat="42.26549" lon="2.18154">
        <ele>1238</ele>
        <time>2010-01-01T00:52:16Z</time>
      </trkpt>
      <trkpt lat="42.26545" lon="2.1815">
        <ele>1238</ele>
        <time>2010-01-01T00:52:18Z</time>
      </trkpt>
      <trkpt lat="42.2654" lon="2.18147">
        <ele>1239</ele>
        <time>2010-01-01T00:52:20Z</time>
      </trkpt>
      <trkpt lat="42.26535" lon="2.18146">
        <ele>1240</ele>
        <time>2010-01-01T00:52:22Z</time>
      </trkpt>
      <trkpt lat="42.26531" lon="2.18144">
        <ele>1240</ele>
        <time>2010-01-01T00:52:23Z</time>
      </trkpt>
      <trkpt lat="42.26528" lon="2.18145">
        <ele>1242</ele>
        <time>2010-01-01T00:52:24Z</time>
      </trkpt>
      <trkpt lat="42.26525" lon="2.18145">
        <ele>1242</ele>
        <time>2010-01-01T00:52:26Z</time>
      </trkpt>
      <trkpt lat="42.26521" lon="2.18144">
        <ele>1241</ele>
        <time>2010-01-01T00:52:27Z</time>
      </trkpt>
      <trkpt lat="42.26517" lon="2.18145">
        <ele>1242</ele>
        <time>2010-01-01T00:52:29Z</time>
      </trkpt>
      <trkpt lat="42.26512" lon="2.18145">
        <ele>1242</ele>
        <time>2010-01-01T00:52:31Z</time>
      </trkpt>
      <trkpt lat="42.26508" lon="2.18146">
        <ele>1242</ele>
        <time>2010-01-01T00:52:33Z</time>
      </trkpt>
      <trkpt lat="42.26502" lon="2.18147">
        <ele>1242</ele>
        <time>2010-01-01T00:52:35Z</time>
      </trkpt>
      <trkpt lat="42.26497" lon="2.18149">
        <ele>1243</ele>
        <time>2010-01-01T00:52:37Z</time>
      </trkpt>
      <trkpt lat="42.26493" lon="2.18152">
        <ele>1243</ele>
        <time>2010-01-01T00:52:39Z</time>
      </trkpt>
      <trkpt lat="42.26488" lon="2.18156">
        <ele>1244</ele>
        <time>2010-01-01T00:52:41Z</time>
      </trkpt>
      <trkpt lat="42.26483" lon="2.18159">
        <ele>1245</ele>
        <time>2010-01-01T00:52:43Z</time>
      </trkpt>
      <trkpt lat="42.26479" lon="2.18163">
        <ele>1247</ele>
        <time>2010-01-01T00:52:46Z</time>
      </trkpt>
      <trkpt lat="42.26474" lon="2.18166">
        <ele>1247</ele>
        <time>2010-01-01T00:52:48Z</time>
      </trkpt>
      <trkpt lat="42.2647" lon="2.18169">
        <ele>1247</ele>
        <time>2010-01-01T00:52:50Z</time>
      </trkpt>
      <trkpt lat="42.26466" lon="2.1817">
        <ele>1246</ele>
        <time>2010-01-01T00:52:51Z</time>
      </trkpt>
      <trkpt lat="42.26461" lon="2.18173">
        <ele>1246</ele>
        <time>2010-01-01T00:52:53Z</time>
      </trkpt>
      <trkpt lat="42.26456" lon="2.18177">
        <ele>1246</ele>
        <time>2010-01-01T00:52:55Z</time>
      </trkpt>
      <trkpt lat="42.26453" lon="2.1818">
        <ele>1246</ele>
        <time>2010-01-01T00:52:57Z</time>
      </trkpt>
      <trkpt lat="42.26448" lon="2.18184">
        <ele>1246</ele>
        <time>2010-01-01T00:52:59Z</time>
      </trkpt>
      <trkpt lat="42.26443" lon="2.18189">
        <ele>1246</ele>
        <time>2010-01-01T00:53:02Z</time>
      </trkpt>
      <trkpt lat="42.26438" lon="2.18193">
        <ele>1246</ele>
        <time>2010-01-01T00:53:04Z</time>
      </trkpt>
      <trkpt lat="42.26433" lon="2.18197">
        <ele>1245</ele>
        <time>2010-01-01T00:53:07Z</time>
      </trkpt>
      <trkpt lat="42.2643" lon="2.18201">
        <ele>1245</ele>
        <time>2010-01-01T00:53:08Z</time>
      </trkpt>
      <trkpt lat="42.26427" lon="2.18206">
        <ele>1245</ele>
        <time>2010-01-01T00:53:10Z</time>
      </trkpt>
      <trkpt lat="42.26424" lon="2.18209">
        <ele>1245</ele>
        <time>2010-01-01T00:53:12Z</time>
      </trkpt>
      <trkpt lat="42.26421" lon="2.18214">
        <ele>1245</ele>
        <time>2010-01-01T00:53:14Z</time>
      </trkpt>
      <trkpt lat="42.26418" lon="2.18218">
        <ele>1246</ele>
        <time>2010-01-01T00:53:15Z</time>
      </trkpt>
      <trkpt lat="42.26414" lon="2.18224">
        <ele>1246</ele>
        <time>2010-01-01T00:53:18Z</time>
      </trkpt>
      <trkpt lat="42.26411" lon="2.18228">
        <ele>1245</ele>
        <time>2010-01-01T00:53:19Z</time>
      </trkpt>
      <trkpt lat="42.26408" lon="2.18232">
        <ele>1244</ele>
        <time>2010-01-01T00:53:21Z</time>
      </trkpt>
      <trkpt lat="42.26404" lon="2.18238">
        <ele>1243</ele>
        <time>2010-01-01T00:53:23Z</time>
      </trkpt>
      <trkpt lat="42.26401" lon="2.18244">
        <ele>1242</ele>
        <time>2010-01-01T00:53:26Z</time>
      </trkpt>
      <trkpt lat="42.26396" lon="2.18249">
        <ele>1241</ele>
        <time>2010-01-01T00:53:28Z</time>
      </trkpt>
      <trkpt lat="42.26393" lon="2.18254">
        <ele>1240</ele>
        <time>2010-01-01T00:53:30Z</time>
      </trkpt>
      <trkpt lat="42.2639" lon="2.1826">
        <ele>1239</ele>
        <time>2010-01-01T00:53:32Z</time>
      </trkpt>
      <trkpt lat="42.26388" lon="2.18266">
        <ele>1239</ele>
        <time>2010-01-01T00:53:34Z</time>
      </trkpt>
      <trkpt lat="42.26386" lon="2.18274">
        <ele>1240</ele>
        <time>2010-01-01T00:53:37Z</time>
      </trkpt>
      <trkpt lat="42.26383" lon="2.18281">
        <ele>1241</ele>
        <time>2010-01-01T00:53:39Z</time>
      </trkpt>
      <trkpt lat="42.2638" lon="2.18288">
        <ele>1241</ele>
        <time>2010-01-01T00:53:41Z</time>
      </trkpt>
      <trkpt lat="42.26378" lon="2.18295">
        <ele>1242</ele>
        <time>2010-01-01T00:53:43Z</time>
      </trkpt>
      <trkpt lat="42.26376" lon="2.18301">
        <ele>1242</ele>
        <time>2010-01-01T00:53:45Z</time>
      </trkpt>
      <trkpt lat="42.26373" lon="2.18307">
        <ele>1242</ele>
        <time>2010-01-01T00:53:47Z</time>
      </trkpt>
      <trkpt lat="42.26372" lon="2.18311">
        <ele>1242</ele>
        <time>2010-01-01T00:53:49Z</time>
      </trkpt>
      <trkpt lat="42.2637" lon="2.18316">
        <ele>1242</ele>
        <time>2010-01-01T00:53:51Z</time>
      </trkpt>
      <trkpt lat="42.26368" lon="2.18322">
        <ele>1242</ele>
        <time>2010-01-01T00:53:53Z</time>
      </trkpt>
      <trkpt lat="42.26365" lon="2.18328">
        <ele>1242</ele>
        <time>2010-01-01T00:53:55Z</time>
      </trkpt>
      <trkpt lat="42.26362" lon="2.18334">
        <ele>1241</ele>
        <time>2010-01-01T00:53:57Z</time>
      </trkpt>
      <trkpt lat="42.2636" lon="2.1834">
        <ele>1241</ele>
        <time>2010-01-01T00:53:59Z</time>
      </trkpt>
      <trkpt lat="42.26357" lon="2.18345">
        <ele>1241</ele>
        <time>2010-01-01T00:54:01Z</time>
      </trkpt>
      <trkpt lat="42.26354" lon="2.18351">
        <ele>1241</ele>
        <time>2010-01-01T00:54:03Z</time>
      </trkpt>
      <trkpt lat="42.26352" lon="2.18357">
        <ele>1242</ele>
        <time>2010-01-01T00:54:05Z</time>
      </trkpt>
      <trkpt lat="42.26351" lon="2.18363">
        <ele>1243</ele>
        <time>2010-01-01T00:54:07Z</time>
      </trkpt>
      <trkpt lat="42.2635" lon="2.18368">
        <ele>1243</ele>
        <time>2010-01-01T00:54:08Z</time>
      </trkpt>
      <trkpt lat="42.26349" lon="2.18373">
        <ele>1244</ele>
        <time>2010-01-01T00:54:10Z</time>
      </trkpt>
      <trkpt lat="42.26348" lon="2.18378">
        <ele>1245</ele>
        <time>2010-01-01T00:54:11Z</time>
      </trkpt>
      <trkpt lat="42.26348" lon="2.18384">
        <ele>1247</ele>
        <time>2010-01-01T00:54:13Z</time>
      </trkpt>
      <trkpt lat="42.26347" lon="2.18387">
        <ele>1247</ele>
        <time>2010-01-01T00:54:14Z</time>
      </trkpt>
      <trkpt lat="42.26346" lon="2.18395">
        <ele>1248</ele>
        <time>2010-01-01T00:54:16Z</time>
      </trkpt>
      <trkpt lat="42.26341" lon="2.18406">
        <ele>1248</ele>
        <time>2010-01-01T00:54:20Z</time>
      </trkpt>
      <trkpt lat="42.26338" lon="2.18412">
        <ele>1249</ele>
        <time>2010-01-01T00:54:22Z</time>
      </trkpt>
      <trkpt lat="42.26336" lon="2.18424">
        <ele>1250</ele>
        <time>2010-01-01T00:54:26Z</time>
      </trkpt>
      <trkpt lat="42.26335" lon="2.18428">
        <ele>1250</ele>
        <time>2010-01-01T00:54:27Z</time>
      </trkpt>
      <trkpt lat="42.26334" lon="2.18432">
        <ele>1250</ele>
        <time>2010-01-01T00:54:28Z</time>
      </trkpt>
      <trkpt lat="42.26331" lon="2.18436">
        <ele>1249</ele>
        <time>2010-01-01T00:54:30Z</time>
      </trkpt>
      <trkpt lat="42.26329" lon="2.18438">
        <ele>1248</ele>
        <time>2010-01-01T00:54:31Z</time>
      </trkpt>
      <trkpt lat="42.26326" lon="2.1844">
        <ele>1247</ele>
        <time>2010-01-01T00:54:32Z</time>
      </trkpt>
      <trkpt lat="42.26324" lon="2.18443">
        <ele>1246</ele>
        <time>2010-01-01T00:54:34Z</time>
      </trkpt>
      <trkpt lat="42.26321" lon="2.18447">
        <ele>1246</ele>
        <time>2010-01-01T00:54:35Z</time>
      </trkpt>
      <trkpt lat="42.2632" lon="2.1845">
        <ele>1246</ele>
        <time>2010-01-01T00:54:36Z</time>
      </trkpt>
      <trkpt lat="42.2632" lon="2.18453">
        <ele>1246</ele>
        <time>2010-01-01T00:54:37Z</time>
      </trkpt>
      <trkpt lat="42.26318" lon="2.18458">
        <ele>1246</ele>
        <time>2010-01-01T00:54:39Z</time>
      </trkpt>
      <trkpt lat="42.26316" lon="2.18463">
        <ele>1246</ele>
        <time>2010-01-01T00:54:40Z</time>
      </trkpt>
      <trkpt lat="42.26313" lon="2.18468">
        <ele>1245</ele>
        <time>2010-01-01T00:54:42Z</time>
      </trkpt>
      <trkpt lat="42.26311" lon="2.18473">
        <ele>1244</ele>
        <time>2010-01-01T00:54:44Z</time>
      </trkpt>
      <trkpt lat="42.26309" lon="2.18478">
        <ele>1243</ele>
        <time>2010-01-01T00:54:46Z</time>
      </trkpt>
      <trkpt lat="42.26308" lon="2.18483">
        <ele>1244</ele>
        <time>2010-01-01T00:54:47Z</time>
      </trkpt>
      <trkpt lat="42.26306" lon="2.18488">
        <ele>1243</ele>
        <time>2010-01-01T00:54:49Z</time>
      </trkpt>
      <trkpt lat="42.26306" lon="2.18492">
        <ele>1244</ele>
        <time>2010-01-01T00:54:50Z</time>
      </trkpt>
      <trkpt lat="42.26307" lon="2.18497">
        <ele>1245</ele>
        <time>2010-01-01T00:54:52Z</time>
      </trkpt>
      <trkpt lat="42.26307" lon="2.18502">
        <ele>1246</ele>
        <time>2010-01-01T00:54:53Z</time>
      </trkpt>
      <trkpt lat="42.26307" lon="2.18508">
        <ele>1248</ele>
        <time>2010-01-01T00:54:55Z</time>
      </trkpt>
      <trkpt lat="42.263" lon="2.18523">
        <ele>1248</ele>
        <time>2010-01-01T00:55:00Z</time>
      </trkpt>
      <trkpt lat="42.26294" lon="2.18536">
        <ele>1248</ele>
        <time>2010-01-01T00:55:04Z</time>
      </trkpt>
      <trkpt lat="42.26289" lon="2.18547">
        <ele>1249</ele>
        <time>2010-01-01T00:55:08Z</time>
      </trkpt>
      <trkpt lat="42.26283" lon="2.18559">
        <ele>1249</ele>
        <time>2010-01-01T00:55:13Z</time>
      </trkpt>
      <trkpt lat="42.26278" lon="2.1857">
        <ele>1250</ele>
        <time>2010-01-01T00:55:17Z</time>
      </trkpt>
      <trkpt lat="42.26274" lon="2.18576">
        <ele>1250</ele>
        <time>2010-01-01T00:55:19Z</time>
      </trkpt>
      <trkpt lat="42.26267" lon="2.1859">
        <ele>1249</ele>
        <time>2010-01-01T00:55:24Z</time>
      </trkpt>
      <trkpt lat="42.26264" lon="2.18596">
        <ele>1249</ele>
        <time>2010-01-01T00:55:26Z</time>
      </trkpt>
      <trkpt lat="42.26263" lon="2.18604">
        <ele>1251</ele>
        <time>2010-01-01T00:55:29Z</time>
      </trkpt>
      <trkpt lat="42.2626" lon="2.18617">
        <ele>1254</ele>
        <time>2010-01-01T00:55:33Z</time>
      </trkpt>
      <trkpt lat="42.26257" lon="2.18629">
        <ele>1256</ele>
        <time>2010-01-01T00:55:36Z</time>
      </trkpt>
      <trkpt lat="42.26254" lon="2.18641">
        <ele>1258</ele>
        <time>2010-01-01T00:55:40Z</time>
      </trkpt>
      <trkpt lat="42.26254" lon="2.18655">
        <ele>1260</ele>
        <time>2010-01-01T00:55:44Z</time>
      </trkpt>
      <trkpt lat="42.26252" lon="2.18667">
        <ele>1260</ele>
        <time>2010-01-01T00:55:48Z</time>
      </trkpt>
      <trkpt lat="42.26249" lon="2.18679">
        <ele>1261</ele>
        <time>2010-01-01T00:55:52Z</time>
      </trkpt>
      <trkpt lat="42.26243" lon="2.18693">
        <ele>1261</ele>
        <time>2010-01-01T00:55:56Z</time>
      </trkpt>
      <trkpt lat="42.26238" lon="2.18705">
        <ele>1262</ele>
        <time>2010-01-01T00:56:01Z</time>
      </trkpt>
      <trkpt lat="42.26233" lon="2.18717">
        <ele>1263</ele>
        <time>2010-01-01T00:56:05Z</time>
      </trkpt>
      <trkpt lat="42.26227" lon="2.18727">
        <ele>1264</ele>
        <time>2010-01-01T00:56:08Z</time>
      </trkpt>
      <trkpt lat="42.2622" lon="2.18736">
        <ele>1264</ele>
        <time>2010-01-01T00:56:12Z</time>
      </trkpt>
      <trkpt lat="42.26216" lon="2.18748">
        <ele>1267</ele>
        <time>2010-01-01T00:56:16Z</time>
      </trkpt>
      <trkpt lat="42.26215" lon="2.18761">
        <ele>1269</ele>
        <time>2010-01-01T00:56:20Z</time>
      </trkpt>
      <trkpt lat="42.2621" lon="2.18771">
        <ele>1270</ele>
        <time>2010-01-01T00:56:24Z</time>
      </trkpt>
      <trkpt lat="42.262" lon="2.18775">
        <ele>1270</ele>
        <time>2010-01-01T00:56:28Z</time>
      </trkpt>
      <trkpt lat="42.26191" lon="2.18771">
        <ele>1270</ele>
        <time>2010-01-01T00:56:31Z</time>
      </trkpt>
      <trkpt lat="42.26185" lon="2.18759">
        <ele>1270</ele>
        <time>2010-01-01T00:56:36Z</time>
      </trkpt>
      <trkpt lat="42.26181" lon="2.18748">
        <ele>1268</ele>
        <time>2010-01-01T00:56:40Z</time>
      </trkpt>
      <trkpt lat="42.26174" lon="2.18738">
        <ele>1269</ele>
        <time>2010-01-01T00:56:43Z</time>
      </trkpt>
      <trkpt lat="42.2617" lon="2.18727">
        <ele>1269</ele>
        <time>2010-01-01T00:56:47Z</time>
      </trkpt>
      <trkpt lat="42.26162" lon="2.18718">
        <ele>1272</ele>
        <time>2010-01-01T00:56:51Z</time>
      </trkpt>
      <trkpt lat="42.26158" lon="2.18707">
        <ele>1274</ele>
        <time>2010-01-01T00:56:55Z</time>
      </trkpt>
      <trkpt lat="42.26151" lon="2.18696">
        <ele>1276</ele>
        <time>2010-01-01T00:56:59Z</time>
      </trkpt>
      <trkpt lat="42.26147" lon="2.18685">
        <ele>1275</ele>
        <time>2010-01-01T00:57:03Z</time>
      </trkpt>
      <trkpt lat="42.26143" lon="2.18673">
        <ele>1274</ele>
        <time>2010-01-01T00:57:07Z</time>
      </trkpt>
      <trkpt lat="42.26135" lon="2.18664">
        <ele>1277</ele>
        <time>2010-01-01T00:57:11Z</time>
      </trkpt>
      <trkpt lat="42.26128" lon="2.18653">
        <ele>1279</ele>
        <time>2010-01-01T00:57:15Z</time>
      </trkpt>
      <trkpt lat="42.26126" lon="2.1864">
        <ele>1278</ele>
        <time>2010-01-01T00:57:19Z</time>
      </trkpt>
      <trkpt lat="42.26121" lon="2.18629">
        <ele>1278</ele>
        <time>2010-01-01T00:57:23Z</time>
      </trkpt>
      <trkpt lat="42.26114" lon="2.1862">
        <ele>1280</ele>
        <time>2010-01-01T00:57:27Z</time>
      </trkpt>
      <trkpt lat="42.26108" lon="2.18608">
        <ele>1283</ele>
        <time>2010-01-01T00:57:31Z</time>
      </trkpt>
      <trkpt lat="42.26107" lon="2.18601">
        <ele>1284</ele>
        <time>2010-01-01T00:57:33Z</time>
      </trkpt>
      <trkpt lat="42.26104" lon="2.18594">
        <ele>1287</ele>
        <time>2010-01-01T00:57:36Z</time>
      </trkpt>
      <trkpt lat="42.26102" lon="2.18593">
        <ele>1289</ele>
        <time>2010-01-01T00:57:37Z</time>
      </trkpt>
      <trkpt lat="42.26102" lon="2.18595">
        <ele>1289</ele>
        <time>2010-01-01T00:57:37Z</time>
      </trkpt>
      <trkpt lat="42.26102" lon="2.18598">
        <ele>1289</ele>
        <time>2010-01-01T00:57:38Z</time>
      </trkpt>
      <trkpt lat="42.26101" lon="2.18601">
        <ele>1290</ele>
        <time>2010-01-01T00:57:39Z</time>
      </trkpt>
      <trkpt lat="42.26101" lon="2.18604">
        <ele>1290</ele>
        <time>2010-01-01T00:57:40Z</time>
      </trkpt>
      <trkpt lat="42.26099" lon="2.18605">
        <ele>1291</ele>
        <time>2010-01-01T00:57:41Z</time>
      </trkpt>
      <trkpt lat="42.261" lon="2.18608">
        <ele>1291</ele>
        <time>2010-01-01T00:57:42Z</time>
      </trkpt>
      <trkpt lat="42.26099" lon="2.18611">
        <ele>1292</ele>
        <time>2010-01-01T00:57:42Z</time>
      </trkpt>
      <trkpt lat="42.26099" lon="2.18614">
        <ele>1292</ele>
        <time>2010-01-01T00:57:43Z</time>
      </trkpt>
      <trkpt lat="42.26097" lon="2.18615">
        <ele>1294</ele>
        <time>2010-01-01T00:57:44Z</time>
      </trkpt>
      <trkpt lat="42.26096" lon="2.18618">
        <ele>1295</ele>
        <time>2010-01-01T00:57:45Z</time>
      </trkpt>
      <trkpt lat="42.26097" lon="2.18622">
        <ele>1294</ele>
        <time>2010-01-01T00:57:46Z</time>
      </trkpt>
      <trkpt lat="42.26098" lon="2.18625">
        <ele>1294</ele>
        <time>2010-01-01T00:57:47Z</time>
      </trkpt>
      <trkpt lat="42.26097" lon="2.18628">
        <ele>1294</ele>
        <time>2010-01-01T00:57:48Z</time>
      </trkpt>
      <trkpt lat="42.26095" lon="2.18629">
        <ele>1296</ele>
        <time>2010-01-01T00:57:49Z</time>
      </trkpt>
      <trkpt lat="42.26093" lon="2.18629">
        <ele>1298</ele>
        <time>2010-01-01T00:57:50Z</time>
      </trkpt>
      <trkpt lat="42.26091" lon="2.18629">
        <ele>1300</ele>
        <time>2010-01-01T00:57:51Z</time>
      </trkpt>
      <trkpt lat="42.26088" lon="2.18628">
        <ele>1303</ele>
        <time>2010-01-01T00:57:52Z</time>
      </trkpt>
      <trkpt lat="42.26087" lon="2.18628">
        <ele>1304</ele>
        <time>2010-01-01T00:57:53Z</time>
      </trkpt>
      <trkpt lat="42.26084" lon="2.18628">
        <ele>1306</ele>
        <time>2010-01-01T00:57:54Z</time>
      </trkpt>
      <trkpt lat="42.26082" lon="2.18631">
        <ele>1308</ele>
        <time>2010-01-01T00:57:55Z</time>
      </trkpt>
      <trkpt lat="42.2608" lon="2.18632">
        <ele>1309</ele>
        <time>2010-01-01T00:57:56Z</time>
      </trkpt>
      <trkpt lat="42.26074" lon="2.18625">
        <ele>1313</ele>
        <time>2010-01-01T00:57:59Z</time>
      </trkpt>
      <trkpt lat="42.26072" lon="2.18622">
        <ele>1314</ele>
        <time>2010-01-01T00:58:00Z</time>
      </trkpt>
      <trkpt lat="42.26069" lon="2.18609">
        <ele>1315</ele>
        <time>2010-01-01T00:58:04Z</time>
      </trkpt>
      <trkpt lat="42.26064" lon="2.18598">
        <ele>1316</ele>
        <time>2010-01-01T00:58:08Z</time>
      </trkpt>
      <trkpt lat="42.26056" lon="2.18591">
        <ele>1319</ele>
        <time>2010-01-01T00:58:12Z</time>
      </trkpt>
      <trkpt lat="42.26055" lon="2.18593">
        <ele>1320</ele>
        <time>2010-01-01T00:58:13Z</time>
      </trkpt>
      <trkpt lat="42.26054" lon="2.18596">
        <ele>1321</ele>
        <time>2010-01-01T00:58:13Z</time>
      </trkpt>
      <trkpt lat="42.26054" lon="2.18598">
        <ele>1322</ele>
        <time>2010-01-01T00:58:14Z</time>
      </trkpt>
      <trkpt lat="42.2605" lon="2.18601">
        <ele>1326</ele>
        <time>2010-01-01T00:58:16Z</time>
      </trkpt>
      <trkpt lat="42.26047" lon="2.18601">
        <ele>1329</ele>
        <time>2010-01-01T00:58:17Z</time>
      </trkpt>
      <trkpt lat="42.26048" lon="2.18603">
        <ele>1328</ele>
        <time>2010-01-01T00:58:18Z</time>
      </trkpt>
      <trkpt lat="42.26048" lon="2.18607">
        <ele>1328</ele>
        <time>2010-01-01T00:58:19Z</time>
      </trkpt>
      <trkpt lat="42.26049" lon="2.18609">
        <ele>1328</ele>
        <time>2010-01-01T00:58:20Z</time>
      </trkpt>
      <trkpt lat="42.26051" lon="2.18612">
        <ele>1327</ele>
        <time>2010-01-01T00:58:21Z</time>
      </trkpt>
      <trkpt lat="42.2604" lon="2.1861">
        <ele>1336</ele>
        <time>2010-01-01T00:58:25Z</time>
      </trkpt>
      <trkpt lat="42.26036" lon="2.18599">
        <ele>1338</ele>
        <time>2010-01-01T00:58:29Z</time>
      </trkpt>
      <trkpt lat="42.26027" lon="2.18592">
        <ele>1346</ele>
        <time>2010-01-01T00:58:33Z</time>
      </trkpt>
      <trkpt lat="42.26022" lon="2.18582">
        <ele>1350</ele>
        <time>2010-01-01T00:58:36Z</time>
      </trkpt>
      <trkpt lat="42.26019" lon="2.18569">
        <ele>1351</ele>
        <time>2010-01-01T00:58:40Z</time>
      </trkpt>
      <trkpt lat="42.26019" lon="2.18563">
        <ele>1349</ele>
        <time>2010-01-01T00:58:42Z</time>
      </trkpt>
      <trkpt lat="42.2602" lon="2.1856">
        <ele>1348</ele>
        <time>2010-01-01T00:58:43Z</time>
      </trkpt>
      <trkpt lat="42.26019" lon="2.18557">
        <ele>1349</ele>
        <time>2010-01-01T00:58:44Z</time>
      </trkpt>
      <trkpt lat="42.26019" lon="2.18555">
        <ele>1348</ele>
        <time>2010-01-01T00:58:45Z</time>
      </trkpt>
      <trkpt lat="42.26019" lon="2.18552">
        <ele>1348</ele>
        <time>2010-01-01T00:58:45Z</time>
      </trkpt>
      <trkpt lat="42.26018" lon="2.18549">
        <ele>1349</ele>
        <time>2010-01-01T00:58:47Z</time>
      </trkpt>
      <trkpt lat="42.26018" lon="2.18546">
        <ele>1349</ele>
        <time>2010-01-01T00:58:47Z</time>
      </trkpt>
      <trkpt lat="42.26016" lon="2.18544">
        <ele>1350</ele>
        <time>2010-01-01T00:58:48Z</time>
      </trkpt>
      <trkpt lat="42.26016" lon="2.18542">
        <ele>1350</ele>
        <time>2010-01-01T00:58:49Z</time>
      </trkpt>
      <trkpt lat="42.26018" lon="2.18539">
        <ele>1348</ele>
        <time>2010-01-01T00:58:50Z</time>
      </trkpt>
      <trkpt lat="42.26019" lon="2.18537">
        <ele>1346</ele>
        <time>2010-01-01T00:58:51Z</time>
      </trkpt>
      <trkpt lat="42.2602" lon="2.18534">
        <ele>1344</ele>
        <time>2010-01-01T00:58:52Z</time>
      </trkpt>
      <trkpt lat="42.2602" lon="2.18531">
        <ele>1344</ele>
        <time>2010-01-01T00:58:53Z</time>
      </trkpt>
      <trkpt lat="42.2602" lon="2.18529">
        <ele>1344</ele>
        <time>2010-01-01T00:58:53Z</time>
      </trkpt>
      <trkpt lat="42.2602" lon="2.18525">
        <ele>1343</ele>
        <time>2010-01-01T00:58:54Z</time>
      </trkpt>
      <trkpt lat="42.26021" lon="2.18521">
        <ele>1342</ele>
        <time>2010-01-01T00:58:55Z</time>
      </trkpt>
      <trkpt lat="42.26021" lon="2.18517">
        <ele>1341</ele>
        <time>2010-01-01T00:58:57Z</time>
      </trkpt>
      <trkpt lat="42.2602" lon="2.18513">
        <ele>1342</ele>
        <time>2010-01-01T00:58:58Z</time>
      </trkpt>
      <trkpt lat="42.26017" lon="2.18507">
        <ele>1344</ele>
        <time>2010-01-01T00:59:00Z</time>
      </trkpt>
      <trkpt lat="42.26013" lon="2.18503">
        <ele>1348</ele>
        <time>2010-01-01T00:59:02Z</time>
      </trkpt>
      <trkpt lat="42.2601" lon="2.18499">
        <ele>1352</ele>
        <time>2010-01-01T00:59:04Z</time>
      </trkpt>
      <trkpt lat="42.26009" lon="2.18494">
        <ele>1352</ele>
        <time>2010-01-01T00:59:05Z</time>
      </trkpt>
      <trkpt lat="42.26008" lon="2.18489">
        <ele>1353</ele>
        <time>2010-01-01T00:59:07Z</time>
      </trkpt>
      <trkpt lat="42.26007" lon="2.18485">
        <ele>1353</ele>
        <time>2010-01-01T00:59:08Z</time>
      </trkpt>
      <trkpt lat="42.26007" lon="2.18481">
        <ele>1352</ele>
        <time>2010-01-01T00:59:09Z</time>
      </trkpt>
      <trkpt lat="42.26007" lon="2.18475">
        <ele>1351</ele>
        <time>2010-01-01T00:59:11Z</time>
      </trkpt>
      <trkpt lat="42.26007" lon="2.1847">
        <ele>1350</ele>
        <time>2010-01-01T00:59:13Z</time>
      </trkpt>
      <trkpt lat="42.26006" lon="2.18464">
        <ele>1350</ele>
        <time>2010-01-01T00:59:14Z</time>
      </trkpt>
      <trkpt lat="42.26004" lon="2.1846">
        <ele>1351</ele>
        <time>2010-01-01T00:59:16Z</time>
      </trkpt>
      <trkpt lat="42.26002" lon="2.18455">
        <ele>1352</ele>
        <time>2010-01-01T00:59:17Z</time>
      </trkpt>
      <trkpt lat="42.25998" lon="2.18444">
        <ele>1353</ele>
        <time>2010-01-01T00:59:21Z</time>
      </trkpt>
      <trkpt lat="42.25995" lon="2.18438">
        <ele>1351</ele>
        <time>2010-01-01T00:59:23Z</time>
      </trkpt>
      <trkpt lat="42.25993" lon="2.18433">
        <ele>1349</ele>
        <time>2010-01-01T00:59:25Z</time>
      </trkpt>
      <trkpt lat="42.25991" lon="2.18427">
        <ele>1348</ele>
        <time>2010-01-01T00:59:27Z</time>
      </trkpt>
      <trkpt lat="42.2599" lon="2.18424">
        <ele>1346</ele>
        <time>2010-01-01T00:59:28Z</time>
      </trkpt>
      <trkpt lat="42.2599" lon="2.18427">
        <ele>1347</ele>
        <time>2010-01-01T00:59:29Z</time>
      </trkpt>
      <trkpt lat="42.25989" lon="2.18429">
        <ele>1348</ele>
        <time>2010-01-01T00:59:30Z</time>
      </trkpt>
      <trkpt lat="42.25989" lon="2.18432">
        <ele>1348</ele>
        <time>2010-01-01T00:59:30Z</time>
      </trkpt>
      <trkpt lat="42.25986" lon="2.18432">
        <ele>1348</ele>
        <time>2010-01-01T00:59:31Z</time>
      </trkpt>
      <trkpt lat="42.25985" lon="2.18433">
        <ele>1348</ele>
        <time>2010-01-01T00:59:32Z</time>
      </trkpt>
      <trkpt lat="42.25983" lon="2.18433">
        <ele>1347</ele>
        <time>2010-01-01T00:59:33Z</time>
      </trkpt>
      <trkpt lat="42.2598" lon="2.18434">
        <ele>1347</ele>
        <time>2010-01-01T00:59:34Z</time>
      </trkpt>
      <trkpt lat="42.25978" lon="2.18434">
        <ele>1347</ele>
        <time>2010-01-01T00:59:35Z</time>
      </trkpt>
      <trkpt lat="42.25976" lon="2.18435">
        <ele>1346</ele>
        <time>2010-01-01T00:59:36Z</time>
      </trkpt>
      <trkpt lat="42.25974" lon="2.18438">
        <ele>1347</ele>
        <time>2010-01-01T00:59:37Z</time>
      </trkpt>
      <trkpt lat="42.25972" lon="2.18441">
        <ele>1348</ele>
        <time>2010-01-01T00:59:38Z</time>
      </trkpt>
      <trkpt lat="42.2597" lon="2.18444">
        <ele>1348</ele>
        <time>2010-01-01T00:59:39Z</time>
      </trkpt>
      <trkpt lat="42.25969" lon="2.18447">
        <ele>1349</ele>
        <time>2010-01-01T00:59:40Z</time>
      </trkpt>
      <trkpt lat="42.25968" lon="2.18451">
        <ele>1350</ele>
        <time>2010-01-01T00:59:41Z</time>
      </trkpt>
      <trkpt lat="42.25967" lon="2.18455">
        <ele>1350</ele>
        <time>2010-01-01T00:59:43Z</time>
      </trkpt>
      <trkpt lat="42.25966" lon="2.18458">
        <ele>1351</ele>
        <time>2010-01-01T00:59:44Z</time>
      </trkpt>
      <trkpt lat="42.25966" lon="2.18462">
        <ele>1351</ele>
        <time>2010-01-01T00:59:45Z</time>
      </trkpt>
      <trkpt lat="42.25965" lon="2.18466">
        <ele>1352</ele>
        <time>2010-01-01T00:59:46Z</time>
      </trkpt>
      <trkpt lat="42.25964" lon="2.1847">
        <ele>1353</ele>
        <time>2010-01-01T00:59:47Z</time>
      </trkpt>
      <trkpt lat="42.25963" lon="2.18473">
        <ele>1354</ele>
        <time>2010-01-01T00:59:48Z</time>
      </trkpt>
      <trkpt lat="42.25961" lon="2.18477">
        <ele>1355</ele>
        <time>2010-01-01T00:59:50Z</time>
      </trkpt>
      <trkpt lat="42.2596" lon="2.18481">
        <ele>1355</ele>
        <time>2010-01-01T00:59:51Z</time>
      </trkpt>
      <trkpt lat="42.25959" lon="2.18485">
        <ele>1356</ele>
        <time>2010-01-01T00:59:52Z</time>
      </trkpt>
      <trkpt lat="42.25957" lon="2.18489">
        <ele>1357</ele>
        <time>2010-01-01T00:59:53Z</time>
      </trkpt>
      <trkpt lat="42.25957" lon="2.18491">
        <ele>1357</ele>
        <time>2010-01-01T00:59:54Z</time>
      </trkpt>
      <trkpt lat="42.25955" lon="2.18495">
        <ele>1358</ele>
        <time>2010-01-01T00:59:56Z</time>
      </trkpt>
      <trkpt lat="42.25954" lon="2.18499">
        <ele>1358</ele>
        <time>2010-01-01T00:59:57Z</time>
      </trkpt>
      <trkpt lat="42.25953" lon="2.18503">
        <ele>1359</ele>
        <time>2010-01-01T00:59:58Z</time>
      </trkpt>
      <trkpt lat="42.25952" lon="2.18507">
        <ele>1360</ele>
        <time>2010-01-01T00:59:59Z</time>
      </trkpt>
      <trkpt lat="42.25951" lon="2.1851">
        <ele>1361</ele>
        <time>2010-01-01T01:00:00Z</time>
      </trkpt>
      <trkpt lat="42.25951" lon="2.18514">
        <ele>1362</ele>
        <time>2010-01-01T01:00:01Z</time>
      </trkpt>
      <trkpt lat="42.2595" lon="2.18517">
        <ele>1362</ele>
        <time>2010-01-01T01:00:02Z</time>
      </trkpt>
      <trkpt lat="42.25949" lon="2.1852">
        <ele>1363</ele>
        <time>2010-01-01T01:00:04Z</time>
      </trkpt>
      <trkpt lat="42.25947" lon="2.18524">
        <ele>1363</ele>
        <time>2010-01-01T01:00:05Z</time>
      </trkpt>
      <trkpt lat="42.25946" lon="2.18527">
        <ele>1364</ele>
        <time>2010-01-01T01:00:06Z</time>
      </trkpt>
      <trkpt lat="42.25944" lon="2.18531">
        <ele>1364</ele>
        <time>2010-01-01T01:00:07Z</time>
      </trkpt>
      <trkpt lat="42.25942" lon="2.18534">
        <ele>1363</ele>
        <time>2010-01-01T01:00:08Z</time>
      </trkpt>
      <trkpt lat="42.2594" lon="2.18536">
        <ele>1363</ele>
        <time>2010-01-01T01:00:09Z</time>
      </trkpt>
      <trkpt lat="42.25939" lon="2.18539">
        <ele>1362</ele>
        <time>2010-01-01T01:00:10Z</time>
      </trkpt>
      <trkpt lat="42.25937" lon="2.18542">
        <ele>1362</ele>
        <time>2010-01-01T01:00:12Z</time>
      </trkpt>
      <trkpt lat="42.25935" lon="2.18545">
        <ele>1361</ele>
        <time>2010-01-01T01:00:13Z</time>
      </trkpt>
      <trkpt lat="42.25933" lon="2.18549">
        <ele>1360</ele>
        <time>2010-01-01T01:00:14Z</time>
      </trkpt>
      <trkpt lat="42.25929" lon="2.18553">
        <ele>1359</ele>
        <time>2010-01-01T01:00:16Z</time>
      </trkpt>
      <trkpt lat="42.25927" lon="2.18558">
        <ele>1359</ele>
        <time>2010-01-01T01:00:18Z</time>
      </trkpt>
      <trkpt lat="42.25924" lon="2.18564">
        <ele>1358</ele>
        <time>2010-01-01T01:00:20Z</time>
      </trkpt>
      <trkpt lat="42.25921" lon="2.1857">
        <ele>1359</ele>
        <time>2010-01-01T01:00:22Z</time>
      </trkpt>
      <trkpt lat="42.25921" lon="2.18576">
        <ele>1360</ele>
        <time>2010-01-01T01:00:24Z</time>
      </trkpt>
      <trkpt lat="42.2592" lon="2.1858">
        <ele>1361</ele>
        <time>2010-01-01T01:00:25Z</time>
      </trkpt>
      <trkpt lat="42.25919" lon="2.18583">
        <ele>1361</ele>
        <time>2010-01-01T01:00:26Z</time>
      </trkpt>
      <trkpt lat="42.25918" lon="2.18587">
        <ele>1361</ele>
        <time>2010-01-01T01:00:27Z</time>
      </trkpt>
      <trkpt lat="42.25917" lon="2.18594">
        <ele>1363</ele>
        <time>2010-01-01T01:00:29Z</time>
      </trkpt>
      <trkpt lat="42.25917" lon="2.18599">
        <ele>1364</ele>
        <time>2010-01-01T01:00:31Z</time>
      </trkpt>
      <trkpt lat="42.25915" lon="2.18602">
        <ele>1364</ele>
        <time>2010-01-01T01:00:32Z</time>
      </trkpt>
      <trkpt lat="42.25914" lon="2.18607">
        <ele>1365</ele>
        <time>2010-01-01T01:00:33Z</time>
      </trkpt>
      <trkpt lat="42.25913" lon="2.18613">
        <ele>1365</ele>
        <time>2010-01-01T01:00:35Z</time>
      </trkpt>
      <trkpt lat="42.25912" lon="2.1862">
        <ele>1366</ele>
        <time>2010-01-01T01:00:37Z</time>
      </trkpt>
      <trkpt lat="42.2591" lon="2.18626">
        <ele>1367</ele>
        <time>2010-01-01T01:00:39Z</time>
      </trkpt>
      <trkpt lat="42.25909" lon="2.1863">
        <ele>1367</ele>
        <time>2010-01-01T01:00:41Z</time>
      </trkpt>
      <trkpt lat="42.25907" lon="2.18633">
        <ele>1367</ele>
        <time>2010-01-01T01:00:42Z</time>
      </trkpt>
      <trkpt lat="42.25905" lon="2.18638">
        <ele>1367</ele>
        <time>2010-01-01T01:00:43Z</time>
      </trkpt>
      <trkpt lat="42.25902" lon="2.18643">
        <ele>1366</ele>
        <time>2010-01-01T01:00:45Z</time>
      </trkpt>
      <trkpt lat="42.25898" lon="2.18648">
        <ele>1366</ele>
        <time>2010-01-01T01:00:47Z</time>
      </trkpt>
      <trkpt lat="42.25896" lon="2.18653">
        <ele>1366</ele>
        <time>2010-01-01T01:00:49Z</time>
      </trkpt>
      <trkpt lat="42.25893" lon="2.18658">
        <ele>1366</ele>
        <time>2010-01-01T01:00:51Z</time>
      </trkpt>
      <trkpt lat="42.25891" lon="2.18663">
        <ele>1367</ele>
        <time>2010-01-01T01:00:53Z</time>
      </trkpt>
      <trkpt lat="42.25889" lon="2.18669">
        <ele>1368</ele>
        <time>2010-01-01T01:00:55Z</time>
      </trkpt>
      <trkpt lat="42.25888" lon="2.18676">
        <ele>1371</ele>
        <time>2010-01-01T01:00:57Z</time>
      </trkpt>
      <trkpt lat="42.25887" lon="2.18682">
        <ele>1373</ele>
        <time>2010-01-01T01:00:59Z</time>
      </trkpt>
      <trkpt lat="42.25884" lon="2.18687">
        <ele>1373</ele>
        <time>2010-01-01T01:01:00Z</time>
      </trkpt>
      <trkpt lat="42.2588" lon="2.1869">
        <ele>1373</ele>
        <time>2010-01-01T01:01:02Z</time>
      </trkpt>
      <trkpt lat="42.25877" lon="2.18695">
        <ele>1372</ele>
        <time>2010-01-01T01:01:04Z</time>
      </trkpt>
      <trkpt lat="42.25872" lon="2.18698">
        <ele>1372</ele>
        <time>2010-01-01T01:01:06Z</time>
      </trkpt>
      <trkpt lat="42.25868" lon="2.18701">
        <ele>1370</ele>
        <time>2010-01-01T01:01:08Z</time>
      </trkpt>
      <trkpt lat="42.25863" lon="2.18704">
        <ele>1369</ele>
        <time>2010-01-01T01:01:10Z</time>
      </trkpt>
      <trkpt lat="42.25859" lon="2.18708">
        <ele>1368</ele>
        <time>2010-01-01T01:01:12Z</time>
      </trkpt>
      <trkpt lat="42.25855" lon="2.18712">
        <ele>1367</ele>
        <time>2010-01-01T01:01:15Z</time>
      </trkpt>
      <trkpt lat="42.25851" lon="2.18716">
        <ele>1366</ele>
        <time>2010-01-01T01:01:17Z</time>
      </trkpt>
      <trkpt lat="42.25846" lon="2.1872">
        <ele>1364</ele>
        <time>2010-01-01T01:01:19Z</time>
      </trkpt>
      <trkpt lat="42.25843" lon="2.18726">
        <ele>1364</ele>
        <time>2010-01-01T01:01:21Z</time>
      </trkpt>
      <trkpt lat="42.2584" lon="2.1873">
        <ele>1364</ele>
        <time>2010-01-01T01:01:22Z</time>
      </trkpt>
      <trkpt lat="42.25837" lon="2.18735">
        <ele>1363</ele>
        <time>2010-01-01T01:01:24Z</time>
      </trkpt>
      <trkpt lat="42.25829" lon="2.18746">
        <ele>1363</ele>
        <time>2010-01-01T01:01:29Z</time>
      </trkpt>
      <trkpt lat="42.25822" lon="2.18757">
        <ele>1364</ele>
        <time>2010-01-01T01:01:33Z</time>
      </trkpt>
      <trkpt lat="42.25819" lon="2.1876">
        <ele>1364</ele>
        <time>2010-01-01T01:01:35Z</time>
      </trkpt>
      <trkpt lat="42.25816" lon="2.18766">
        <ele>1365</ele>
        <time>2010-01-01T01:01:37Z</time>
      </trkpt>
      <trkpt lat="42.25815" lon="2.18769">
        <ele>1365</ele>
        <time>2010-01-01T01:01:38Z</time>
      </trkpt>
      <trkpt lat="42.25813" lon="2.18773">
        <ele>1366</ele>
        <time>2010-01-01T01:01:39Z</time>
      </trkpt>
      <trkpt lat="42.25811" lon="2.18777">
        <ele>1367</ele>
        <time>2010-01-01T01:01:41Z</time>
      </trkpt>
      <trkpt lat="42.25809" lon="2.1878">
        <ele>1367</ele>
        <time>2010-01-01T01:01:42Z</time>
      </trkpt>
      <trkpt lat="42.25808" lon="2.18782">
        <ele>1367</ele>
        <time>2010-01-01T01:01:43Z</time>
      </trkpt>
      <trkpt lat="42.25806" lon="2.18784">
        <ele>1367</ele>
        <time>2010-01-01T01:01:44Z</time>
      </trkpt>
      <trkpt lat="42.25805" lon="2.18787">
        <ele>1367</ele>
        <time>2010-01-01T01:01:45Z</time>
      </trkpt>
      <trkpt lat="42.25803" lon="2.18789">
        <ele>1367</ele>
        <time>2010-01-01T01:01:46Z</time>
      </trkpt>
      <trkpt lat="42.25801" lon="2.18791">
        <ele>1367</ele>
        <time>2010-01-01T01:01:47Z</time>
      </trkpt>
      <trkpt lat="42.25798" lon="2.18794">
        <ele>1367</ele>
        <time>2010-01-01T01:01:48Z</time>
      </trkpt>
      <trkpt lat="42.25796" lon="2.18796">
        <ele>1367</ele>
        <time>2010-01-01T01:01:49Z</time>
      </trkpt>
      <trkpt lat="42.25794" lon="2.18799">
        <ele>1366</ele>
        <time>2010-01-01T01:01:50Z</time>
      </trkpt>
      <trkpt lat="42.25792" lon="2.18802">
        <ele>1367</ele>
        <time>2010-01-01T01:01:51Z</time>
      </trkpt>
      <trkpt lat="42.25791" lon="2.18804">
        <ele>1367</ele>
        <time>2010-01-01T01:01:52Z</time>
      </trkpt>
      <trkpt lat="42.25789" lon="2.18807">
        <ele>1368</ele>
        <time>2010-01-01T01:01:53Z</time>
      </trkpt>
      <trkpt lat="42.25788" lon="2.1881">
        <ele>1368</ele>
        <time>2010-01-01T01:01:54Z</time>
      </trkpt>
      <trkpt lat="42.25786" lon="2.18813">
        <ele>1369</ele>
        <time>2010-01-01T01:01:56Z</time>
      </trkpt>
      <trkpt lat="42.25784" lon="2.18817">
        <ele>1369</ele>
        <time>2010-01-01T01:01:57Z</time>
      </trkpt>
      <trkpt lat="42.25782" lon="2.18819">
        <ele>1369</ele>
        <time>2010-01-01T01:01:58Z</time>
      </trkpt>
      <trkpt lat="42.25781" lon="2.18822">
        <ele>1370</ele>
        <time>2010-01-01T01:01:59Z</time>
      </trkpt>
      <trkpt lat="42.2578" lon="2.18825">
        <ele>1370</ele>
        <time>2010-01-01T01:02:00Z</time>
      </trkpt>
      <trkpt lat="42.25778" lon="2.18828">
        <ele>1370</ele>
        <time>2010-01-01T01:02:01Z</time>
      </trkpt>
      <trkpt lat="42.25776" lon="2.1883">
        <ele>1370</ele>
        <time>2010-01-01T01:02:02Z</time>
      </trkpt>
      <trkpt lat="42.25775" lon="2.18834">
        <ele>1371</ele>
        <time>2010-01-01T01:02:03Z</time>
      </trkpt>
      <trkpt lat="42.25773" lon="2.18838">
        <ele>1372</ele>
        <time>2010-01-01T01:02:05Z</time>
      </trkpt>
      <trkpt lat="42.25771" lon="2.18842">
        <ele>1373</ele>
        <time>2010-01-01T01:02:06Z</time>
      </trkpt>
      <trkpt lat="42.25769" lon="2.18846">
        <ele>1374</ele>
        <time>2010-01-01T01:02:08Z</time>
      </trkpt>
      <trkpt lat="42.25766" lon="2.1885">
        <ele>1374</ele>
        <time>2010-01-01T01:02:09Z</time>
      </trkpt>
      <trkpt lat="42.25763" lon="2.18855">
        <ele>1375</ele>
        <time>2010-01-01T01:02:11Z</time>
      </trkpt>
      <trkpt lat="42.25761" lon="2.18859">
        <ele>1376</ele>
        <time>2010-01-01T01:02:13Z</time>
      </trkpt>
      <trkpt lat="42.25758" lon="2.18865">
        <ele>1376</ele>
        <time>2010-01-01T01:02:15Z</time>
      </trkpt>
      <trkpt lat="42.25756" lon="2.18868">
        <ele>1377</ele>
        <time>2010-01-01T01:02:16Z</time>
      </trkpt>
      <trkpt lat="42.25754" lon="2.18873">
        <ele>1377</ele>
        <time>2010-01-01T01:02:18Z</time>
      </trkpt>
      <trkpt lat="42.25751" lon="2.18878">
        <ele>1378</ele>
        <time>2010-01-01T01:02:20Z</time>
      </trkpt>
      <trkpt lat="42.2575" lon="2.18882">
        <ele>1378</ele>
        <time>2010-01-01T01:02:21Z</time>
      </trkpt>
      <trkpt lat="42.25748" lon="2.18886">
        <ele>1379</ele>
        <time>2010-01-01T01:02:22Z</time>
      </trkpt>
      <trkpt lat="42.25746" lon="2.18891">
        <ele>1379</ele>
        <time>2010-01-01T01:02:24Z</time>
      </trkpt>
      <trkpt lat="42.25745" lon="2.18895">
        <ele>1379</ele>
        <time>2010-01-01T01:02:25Z</time>
      </trkpt>
      <trkpt lat="42.25742" lon="2.18899">
        <ele>1377</ele>
        <time>2010-01-01T01:02:27Z</time>
      </trkpt>
      <trkpt lat="42.2574" lon="2.18905">
        <ele>1377</ele>
        <time>2010-01-01T01:02:29Z</time>
      </trkpt>
      <trkpt lat="42.25739" lon="2.18911">
        <ele>1378</ele>
        <time>2010-01-01T01:02:31Z</time>
      </trkpt>
      <trkpt lat="42.25736" lon="2.18917">
        <ele>1378</ele>
        <time>2010-01-01T01:02:33Z</time>
      </trkpt>
      <trkpt lat="42.25735" lon="2.18921">
        <ele>1378</ele>
        <time>2010-01-01T01:02:34Z</time>
      </trkpt>
      <trkpt lat="42.25734" lon="2.18925">
        <ele>1379</ele>
        <time>2010-01-01T01:02:35Z</time>
      </trkpt>
      <trkpt lat="42.25733" lon="2.18929">
        <ele>1380</ele>
        <time>2010-01-01T01:02:36Z</time>
      </trkpt>
      <trkpt lat="42.25733" lon="2.18933">
        <ele>1381</ele>
        <time>2010-01-01T01:02:38Z</time>
      </trkpt>
      <trkpt lat="42.25731" lon="2.18937">
        <ele>1382</ele>
        <time>2010-01-01T01:02:39Z</time>
      </trkpt>
      <trkpt lat="42.2573" lon="2.18942">
        <ele>1382</ele>
        <time>2010-01-01T01:02:40Z</time>
      </trkpt>
      <trkpt lat="42.2573" lon="2.18946">
        <ele>1384</ele>
        <time>2010-01-01T01:02:42Z</time>
      </trkpt>
      <trkpt lat="42.25729" lon="2.18952">
        <ele>1384</ele>
        <time>2010-01-01T01:02:43Z</time>
      </trkpt>
      <trkpt lat="42.25727" lon="2.18956">
        <ele>1384</ele>
        <time>2010-01-01T01:02:45Z</time>
      </trkpt>
      <trkpt lat="42.25725" lon="2.18961">
        <ele>1384</ele>
        <time>2010-01-01T01:02:46Z</time>
      </trkpt>
      <trkpt lat="42.25723" lon="2.18967">
        <ele>1383</ele>
        <time>2010-01-01T01:02:48Z</time>
      </trkpt>
      <trkpt lat="42.25721" lon="2.18972">
        <ele>1383</ele>
        <time>2010-01-01T01:02:50Z</time>
      </trkpt>
      <trkpt lat="42.25719" lon="2.18978">
        <ele>1384</ele>
        <time>2010-01-01T01:02:52Z</time>
      </trkpt>
      <trkpt lat="42.25717" lon="2.18983">
        <ele>1384</ele>
        <time>2010-01-01T01:02:54Z</time>
      </trkpt>
      <trkpt lat="42.25716" lon="2.18988">
        <ele>1385</ele>
        <time>2010-01-01T01:02:55Z</time>
      </trkpt>
      <trkpt lat="42.25714" lon="2.18993">
        <ele>1385</ele>
        <time>2010-01-01T01:02:57Z</time>
      </trkpt>
      <trkpt lat="42.25712" lon="2.18999">
        <ele>1386</ele>
        <time>2010-01-01T01:02:59Z</time>
      </trkpt>
      <trkpt lat="42.25711" lon="2.19005">
        <ele>1386</ele>
        <time>2010-01-01T01:03:01Z</time>
      </trkpt>
      <trkpt lat="42.25709" lon="2.19011">
        <ele>1387</ele>
        <time>2010-01-01T01:03:03Z</time>
      </trkpt>
      <trkpt lat="42.25708" lon="2.19014">
        <ele>1388</ele>
        <time>2010-01-01T01:03:04Z</time>
      </trkpt>
      <trkpt lat="42.25706" lon="2.1902">
        <ele>1389</ele>
        <time>2010-01-01T01:03:05Z</time>
      </trkpt>
      <trkpt lat="42.25704" lon="2.19025">
        <ele>1389</ele>
        <time>2010-01-01T01:03:07Z</time>
      </trkpt>
      <trkpt lat="42.25701" lon="2.1903">
        <ele>1388</ele>
        <time>2010-01-01T01:03:09Z</time>
      </trkpt>
      <trkpt lat="42.25697" lon="2.19035">
        <ele>1388</ele>
        <time>2010-01-01T01:03:11Z</time>
      </trkpt>
      <trkpt lat="42.25694" lon="2.19042">
        <ele>1388</ele>
        <time>2010-01-01T01:03:14Z</time>
      </trkpt>
      <trkpt lat="42.25691" lon="2.19047">
        <ele>1389</ele>
        <time>2010-01-01T01:03:16Z</time>
      </trkpt>
      <trkpt lat="42.25687" lon="2.19052">
        <ele>1390</ele>
        <time>2010-01-01T01:03:18Z</time>
      </trkpt>
      <trkpt lat="42.25687" lon="2.19058">
        <ele>1392</ele>
        <time>2010-01-01T01:03:20Z</time>
      </trkpt>
      <trkpt lat="42.25686" lon="2.19064">
        <ele>1393</ele>
        <time>2010-01-01T01:03:21Z</time>
      </trkpt>
      <trkpt lat="42.25685" lon="2.19069">
        <ele>1394</ele>
        <time>2010-01-01T01:03:23Z</time>
      </trkpt>
      <trkpt lat="42.25684" lon="2.19074">
        <ele>1395</ele>
        <time>2010-01-01T01:03:24Z</time>
      </trkpt>
      <trkpt lat="42.25683" lon="2.1908">
        <ele>1396</ele>
        <time>2010-01-01T01:03:26Z</time>
      </trkpt>
      <trkpt lat="42.25683" lon="2.19084">
        <ele>1397</ele>
        <time>2010-01-01T01:03:27Z</time>
      </trkpt>
      <trkpt lat="42.25683" lon="2.19088">
        <ele>1399</ele>
        <time>2010-01-01T01:03:29Z</time>
      </trkpt>
      <trkpt lat="42.25682" lon="2.19093">
        <ele>1399</ele>
        <time>2010-01-01T01:03:30Z</time>
      </trkpt>
      <trkpt lat="42.25681" lon="2.19098">
        <ele>1400</ele>
        <time>2010-01-01T01:03:32Z</time>
      </trkpt>
      <trkpt lat="42.2568" lon="2.19104">
        <ele>1401</ele>
        <time>2010-01-01T01:03:33Z</time>
      </trkpt>
      <trkpt lat="42.25678" lon="2.19109">
        <ele>1401</ele>
        <time>2010-01-01T01:03:35Z</time>
      </trkpt>
      <trkpt lat="42.25675" lon="2.19115">
        <ele>1401</ele>
        <time>2010-01-01T01:03:37Z</time>
      </trkpt>
      <trkpt lat="42.25672" lon="2.19121">
        <ele>1400</ele>
        <time>2010-01-01T01:03:39Z</time>
      </trkpt>
      <trkpt lat="42.2567" lon="2.19126">
        <ele>1400</ele>
        <time>2010-01-01T01:03:41Z</time>
      </trkpt>
      <trkpt lat="42.25669" lon="2.19132">
        <ele>1400</ele>
        <time>2010-01-01T01:03:43Z</time>
      </trkpt>
      <trkpt lat="42.25669" lon="2.19138">
        <ele>1401</ele>
        <time>2010-01-01T01:03:45Z</time>
      </trkpt>
      <trkpt lat="42.2567" lon="2.19145">
        <ele>1401</ele>
        <time>2010-01-01T01:03:47Z</time>
      </trkpt>
      <trkpt lat="42.25668" lon="2.19149">
        <ele>1401</ele>
        <time>2010-01-01T01:03:48Z</time>
      </trkpt>
      <trkpt lat="42.25665" lon="2.19154">
        <ele>1401</ele>
        <time>2010-01-01T01:03:50Z</time>
      </trkpt>
      <trkpt lat="42.25662" lon="2.19159">
        <ele>1401</ele>
        <time>2010-01-01T01:03:52Z</time>
      </trkpt>
      <trkpt lat="42.2566" lon="2.19161">
        <ele>1401</ele>
        <time>2010-01-01T01:03:53Z</time>
      </trkpt>
      <trkpt lat="42.25659" lon="2.19162">
        <ele>1401</ele>
        <time>2010-01-01T01:03:54Z</time>
      </trkpt>
      <trkpt lat="42.25657" lon="2.19164">
        <ele>1401</ele>
        <time>2010-01-01T01:03:54Z</time>
      </trkpt>
      <trkpt lat="42.25656" lon="2.19166">
        <ele>1400</ele>
        <time>2010-01-01T01:03:55Z</time>
      </trkpt>
      <trkpt lat="42.25654" lon="2.19168">
        <ele>1400</ele>
        <time>2010-01-01T01:03:56Z</time>
      </trkpt>
      <trkpt lat="42.25654" lon="2.19171">
        <ele>1400</ele>
        <time>2010-01-01T01:03:57Z</time>
      </trkpt>
      <trkpt lat="42.25652" lon="2.19174">
        <ele>1400</ele>
        <time>2010-01-01T01:03:58Z</time>
      </trkpt>
      <trkpt lat="42.25652" lon="2.19177">
        <ele>1400</ele>
        <time>2010-01-01T01:03:59Z</time>
      </trkpt>
      <trkpt lat="42.25651" lon="2.19179">
        <ele>1400</ele>
        <time>2010-01-01T01:04:00Z</time>
      </trkpt>
      <trkpt lat="42.2565" lon="2.19182">
        <ele>1400</ele>
        <time>2010-01-01T01:04:01Z</time>
      </trkpt>
      <trkpt lat="42.2565" lon="2.19186">
        <ele>1401</ele>
        <time>2010-01-01T01:04:02Z</time>
      </trkpt>
      <trkpt lat="42.25649" lon="2.19189">
        <ele>1401</ele>
        <time>2010-01-01T01:04:03Z</time>
      </trkpt>
      <trkpt lat="42.25648" lon="2.19192">
        <ele>1401</ele>
        <time>2010-01-01T01:04:04Z</time>
      </trkpt>
      <trkpt lat="42.25647" lon="2.19195">
        <ele>1401</ele>
        <time>2010-01-01T01:04:05Z</time>
      </trkpt>
      <trkpt lat="42.25646" lon="2.19199">
        <ele>1400</ele>
        <time>2010-01-01T01:04:06Z</time>
      </trkpt>
      <trkpt lat="42.25646" lon="2.19202">
        <ele>1400</ele>
        <time>2010-01-01T01:04:07Z</time>
      </trkpt>
      <trkpt lat="42.25645" lon="2.19205">
        <ele>1399</ele>
        <time>2010-01-01T01:04:08Z</time>
      </trkpt>
      <trkpt lat="42.25645" lon="2.19208">
        <ele>1399</ele>
        <time>2010-01-01T01:04:09Z</time>
      </trkpt>
      <trkpt lat="42.25644" lon="2.19212">
        <ele>1398</ele>
        <time>2010-01-01T01:04:10Z</time>
      </trkpt>
      <trkpt lat="42.25644" lon="2.19216">
        <ele>1398</ele>
        <time>2010-01-01T01:04:11Z</time>
      </trkpt>
      <trkpt lat="42.25644" lon="2.1922">
        <ele>1398</ele>
        <time>2010-01-01T01:04:12Z</time>
      </trkpt>
      <trkpt lat="42.25645" lon="2.19223">
        <ele>1397</ele>
        <time>2010-01-01T01:04:13Z</time>
      </trkpt>
      <trkpt lat="42.25646" lon="2.19226">
        <ele>1397</ele>
        <time>2010-01-01T01:04:14Z</time>
      </trkpt>
      <trkpt lat="42.25647" lon="2.19228">
        <ele>1397</ele>
        <time>2010-01-01T01:04:15Z</time>
      </trkpt>
      <trkpt lat="42.25649" lon="2.1923">
        <ele>1397</ele>
        <time>2010-01-01T01:04:16Z</time>
      </trkpt>
      <trkpt lat="42.25651" lon="2.19232">
        <ele>1397</ele>
        <time>2010-01-01T01:04:17Z</time>
      </trkpt>
      <trkpt lat="42.25652" lon="2.19234">
        <ele>1397</ele>
        <time>2010-01-01T01:04:18Z</time>
      </trkpt>
      <trkpt lat="42.25654" lon="2.19236">
        <ele>1397</ele>
        <time>2010-01-01T01:04:19Z</time>
      </trkpt>
      <trkpt lat="42.25656" lon="2.19238">
        <ele>1397</ele>
        <time>2010-01-01T01:04:20Z</time>
      </trkpt>
      <trkpt lat="42.25658" lon="2.1924">
        <ele>1397</ele>
        <time>2010-01-01T01:04:21Z</time>
      </trkpt>
      <trkpt lat="42.25659" lon="2.19241">
        <ele>1397</ele>
        <time>2010-01-01T01:04:21Z</time>
      </trkpt>
      <trkpt lat="42.25661" lon="2.19245">
        <ele>1397</ele>
        <time>2010-01-01T01:04:23Z</time>
      </trkpt>
      <trkpt lat="42.25662" lon="2.19249">
        <ele>1397</ele>
        <time>2010-01-01T01:04:24Z</time>
      </trkpt>
      <trkpt lat="42.25664" lon="2.19252">
        <ele>1397</ele>
        <time>2010-01-01T01:04:25Z</time>
      </trkpt>
      <trkpt lat="42.25666" lon="2.19254">
        <ele>1398</ele>
        <time>2010-01-01T01:04:26Z</time>
      </trkpt>
      <trkpt lat="42.25669" lon="2.19257">
        <ele>1398</ele>
        <time>2010-01-01T01:04:27Z</time>
      </trkpt>
      <trkpt lat="42.25671" lon="2.1926">
        <ele>1399</ele>
        <time>2010-01-01T01:04:29Z</time>
      </trkpt>
      <trkpt lat="42.25673" lon="2.19262">
        <ele>1399</ele>
        <time>2010-01-01T01:04:30Z</time>
      </trkpt>
      <trkpt lat="42.25676" lon="2.19265">
        <ele>1400</ele>
        <time>2010-01-01T01:04:31Z</time>
      </trkpt>
      <trkpt lat="42.25678" lon="2.19267">
        <ele>1400</ele>
        <time>2010-01-01T01:04:32Z</time>
      </trkpt>
      <trkpt lat="42.25681" lon="2.1927">
        <ele>1401</ele>
        <time>2010-01-01T01:04:34Z</time>
      </trkpt>
      <trkpt lat="42.25683" lon="2.19272">
        <ele>1401</ele>
        <time>2010-01-01T01:04:35Z</time>
      </trkpt>
      <trkpt lat="42.25686" lon="2.19275">
        <ele>1402</ele>
        <time>2010-01-01T01:04:36Z</time>
      </trkpt>
      <trkpt lat="42.25689" lon="2.19276">
        <ele>1402</ele>
        <time>2010-01-01T01:04:37Z</time>
      </trkpt>
      <trkpt lat="42.25691" lon="2.19278">
        <ele>1402</ele>
        <time>2010-01-01T01:04:38Z</time>
      </trkpt>
      <trkpt lat="42.25694" lon="2.1928">
        <ele>1402</ele>
        <time>2010-01-01T01:04:40Z</time>
      </trkpt>
      <trkpt lat="42.25696" lon="2.19282">
        <ele>1402</ele>
        <time>2010-01-01T01:04:41Z</time>
      </trkpt>
      <trkpt lat="42.25699" lon="2.19284">
        <ele>1402</ele>
        <time>2010-01-01T01:04:42Z</time>
      </trkpt>
      <trkpt lat="42.25701" lon="2.19286">
        <ele>1402</ele>
        <time>2010-01-01T01:04:43Z</time>
      </trkpt>
      <trkpt lat="42.25704" lon="2.19287">
        <ele>1402</ele>
        <time>2010-01-01T01:04:44Z</time>
      </trkpt>
      <trkpt lat="42.25706" lon="2.1929">
        <ele>1402</ele>
        <time>2010-01-01T01:04:45Z</time>
      </trkpt>
      <trkpt lat="42.25708" lon="2.19293">
        <ele>1402</ele>
        <time>2010-01-01T01:04:47Z</time>
      </trkpt>
      <trkpt lat="42.2571" lon="2.19296">
        <ele>1402</ele>
        <time>2010-01-01T01:04:48Z</time>
      </trkpt>
      <trkpt lat="42.25711" lon="2.19299">
        <ele>1401</ele>
        <time>2010-01-01T01:04:49Z</time>
      </trkpt>
      <trkpt lat="42.25713" lon="2.19303">
        <ele>1401</ele>
        <time>2010-01-01T01:04:50Z</time>
      </trkpt>
      <trkpt lat="42.25715" lon="2.19307">
        <ele>1401</ele>
        <time>2010-01-01T01:04:52Z</time>
      </trkpt>
      <trkpt lat="42.25716" lon="2.19315">
        <ele>1400</ele>
        <time>2010-01-01T01:04:54Z</time>
      </trkpt>
      <trkpt lat="42.25716" lon="2.19321">
        <ele>1400</ele>
        <time>2010-01-01T01:04:56Z</time>
      </trkpt>
      <trkpt lat="42.25716" lon="2.19326">
        <ele>1399</ele>
        <time>2010-01-01T01:04:57Z</time>
      </trkpt>
      <trkpt lat="42.25716" lon="2.19332">
        <ele>1398</ele>
        <time>2010-01-01T01:04:59Z</time>
      </trkpt>
      <trkpt lat="42.25716" lon="2.19339">
        <ele>1398</ele>
        <time>2010-01-01T01:05:01Z</time>
      </trkpt>
      <trkpt lat="42.25717" lon="2.19345">
        <ele>1397</ele>
        <time>2010-01-01T01:05:03Z</time>
      </trkpt>
      <trkpt lat="42.25718" lon="2.19352">
        <ele>1397</ele>
        <time>2010-01-01T01:05:05Z</time>
      </trkpt>
      <trkpt lat="42.25719" lon="2.19358">
        <ele>1397</ele>
        <time>2010-01-01T01:05:07Z</time>
      </trkpt>
      <trkpt lat="42.25721" lon="2.19364">
        <ele>1398</ele>
        <time>2010-01-01T01:05:09Z</time>
      </trkpt>
      <trkpt lat="42.25724" lon="2.1937">
        <ele>1399</ele>
        <time>2010-01-01T01:05:11Z</time>
      </trkpt>
      <trkpt lat="42.25727" lon="2.19375">
        <ele>1401</ele>
        <time>2010-01-01T01:05:13Z</time>
      </trkpt>
      <trkpt lat="42.2573" lon="2.1938">
        <ele>1403</ele>
        <time>2010-01-01T01:05:15Z</time>
      </trkpt>
      <trkpt lat="42.25732" lon="2.19388">
        <ele>1404</ele>
        <time>2010-01-01T01:05:17Z</time>
      </trkpt>
      <trkpt lat="42.25732" lon="2.19395">
        <ele>1403</ele>
        <time>2010-01-01T01:05:19Z</time>
      </trkpt>
      <trkpt lat="42.25731" lon="2.19402">
        <ele>1402</ele>
        <time>2010-01-01T01:05:21Z</time>
      </trkpt>
      <trkpt lat="42.2573" lon="2.19408">
        <ele>1401</ele>
        <time>2010-01-01T01:05:23Z</time>
      </trkpt>
      <trkpt lat="42.2573" lon="2.19414">
        <ele>1400</ele>
        <time>2010-01-01T01:05:25Z</time>
      </trkpt>
      <trkpt lat="42.25729" lon="2.1942">
        <ele>1399</ele>
        <time>2010-01-01T01:05:27Z</time>
      </trkpt>
      <trkpt lat="42.25728" lon="2.19426">
        <ele>1398</ele>
        <time>2010-01-01T01:05:29Z</time>
      </trkpt>
      <trkpt lat="42.25727" lon="2.19433">
        <ele>1397</ele>
        <time>2010-01-01T01:05:31Z</time>
      </trkpt>
      <trkpt lat="42.25726" lon="2.1944">
        <ele>1396</ele>
        <time>2010-01-01T01:05:33Z</time>
      </trkpt>
      <trkpt lat="42.25726" lon="2.19446">
        <ele>1395</ele>
        <time>2010-01-01T01:05:35Z</time>
      </trkpt>
      <trkpt lat="42.25725" lon="2.19452">
        <ele>1395</ele>
        <time>2010-01-01T01:05:36Z</time>
      </trkpt>
      <trkpt lat="42.25724" lon="2.19457">
        <ele>1395</ele>
        <time>2010-01-01T01:05:38Z</time>
      </trkpt>
      <trkpt lat="42.25724" lon="2.19463">
        <ele>1395</ele>
        <time>2010-01-01T01:05:40Z</time>
      </trkpt>
      <trkpt lat="42.25723" lon="2.19469">
        <ele>1396</ele>
        <time>2010-01-01T01:05:42Z</time>
      </trkpt>
      <trkpt lat="42.25722" lon="2.19475">
        <ele>1396</ele>
        <time>2010-01-01T01:05:43Z</time>
      </trkpt>
      <trkpt lat="42.25722" lon="2.19482">
        <ele>1397</ele>
        <time>2010-01-01T01:05:45Z</time>
      </trkpt>
      <trkpt lat="42.25721" lon="2.19488">
        <ele>1398</ele>
        <time>2010-01-01T01:05:47Z</time>
      </trkpt>
      <trkpt lat="42.25721" lon="2.19494">
        <ele>1398</ele>
        <time>2010-01-01T01:05:49Z</time>
      </trkpt>
      <trkpt lat="42.25719" lon="2.195">
        <ele>1399</ele>
        <time>2010-01-01T01:05:51Z</time>
      </trkpt>
      <trkpt lat="42.25718" lon="2.19506">
        <ele>1399</ele>
        <time>2010-01-01T01:05:53Z</time>
      </trkpt>
      <trkpt lat="42.25717" lon="2.19511">
        <ele>1400</ele>
        <time>2010-01-01T01:05:54Z</time>
      </trkpt>
      <trkpt lat="42.25716" lon="2.19517">
        <ele>1400</ele>
        <time>2010-01-01T01:05:56Z</time>
      </trkpt>
      <trkpt lat="42.25714" lon="2.19523">
        <ele>1400</ele>
        <time>2010-01-01T01:05:58Z</time>
      </trkpt>
      <trkpt lat="42.25713" lon="2.19529">
        <ele>1400</ele>
        <time>2010-01-01T01:06:00Z</time>
      </trkpt>
      <trkpt lat="42.25711" lon="2.19535">
        <ele>1400</ele>
        <time>2010-01-01T01:06:02Z</time>
      </trkpt>
      <trkpt lat="42.2571" lon="2.19541">
        <ele>1399</ele>
        <time>2010-01-01T01:06:04Z</time>
      </trkpt>
      <trkpt lat="42.25709" lon="2.19547">
        <ele>1399</ele>
        <time>2010-01-01T01:06:06Z</time>
      </trkpt>
      <trkpt lat="42.25708" lon="2.19554">
        <ele>1398</ele>
        <time>2010-01-01T01:06:08Z</time>
      </trkpt>
      <trkpt lat="42.25706" lon="2.19561">
        <ele>1398</ele>
        <time>2010-01-01T01:06:10Z</time>
      </trkpt>
      <trkpt lat="42.25705" lon="2.19567">
        <ele>1397</ele>
        <time>2010-01-01T01:06:12Z</time>
      </trkpt>
      <trkpt lat="42.25704" lon="2.19573">
        <ele>1396</ele>
        <time>2010-01-01T01:06:13Z</time>
      </trkpt>
      <trkpt lat="42.25703" lon="2.1958">
        <ele>1396</ele>
        <time>2010-01-01T01:06:15Z</time>
      </trkpt>
      <trkpt lat="42.25705" lon="2.19581">
        <ele>1396</ele>
        <time>2010-01-01T01:06:16Z</time>
      </trkpt>
      <trkpt lat="42.25706" lon="2.19583">
        <ele>1397</ele>
        <time>2010-01-01T01:06:17Z</time>
      </trkpt>
      <trkpt lat="42.25708" lon="2.19585">
        <ele>1397</ele>
        <time>2010-01-01T01:06:18Z</time>
      </trkpt>
      <trkpt lat="42.25709" lon="2.19587">
        <ele>1398</ele>
        <time>2010-01-01T01:06:18Z</time>
      </trkpt>
      <trkpt lat="42.2571" lon="2.1959">
        <ele>1398</ele>
        <time>2010-01-01T01:06:19Z</time>
      </trkpt>
      <trkpt lat="42.25711" lon="2.19591">
        <ele>1398</ele>
        <time>2010-01-01T01:06:20Z</time>
      </trkpt>
      <trkpt lat="42.25713" lon="2.19594">
        <ele>1399</ele>
        <time>2010-01-01T01:06:21Z</time>
      </trkpt>
      <trkpt lat="42.25714" lon="2.19596">
        <ele>1399</ele>
        <time>2010-01-01T01:06:22Z</time>
      </trkpt>
      <trkpt lat="42.25716" lon="2.19597">
        <ele>1400</ele>
        <time>2010-01-01T01:06:23Z</time>
      </trkpt>
      <trkpt lat="42.25718" lon="2.19597">
        <ele>1401</ele>
        <time>2010-01-01T01:06:24Z</time>
      </trkpt>
      <trkpt lat="42.25721" lon="2.19597">
        <ele>1402</ele>
        <time>2010-01-01T01:06:25Z</time>
      </trkpt>
      <trkpt lat="42.25723" lon="2.19596">
        <ele>1402</ele>
        <time>2010-01-01T01:06:26Z</time>
      </trkpt>
      <trkpt lat="42.25725" lon="2.19594">
        <ele>1403</ele>
        <time>2010-01-01T01:06:27Z</time>
      </trkpt>
      <trkpt lat="42.25727" lon="2.19594">
        <ele>1405</ele>
        <time>2010-01-01T01:06:28Z</time>
      </trkpt>
      <trkpt lat="42.2573" lon="2.19595">
        <ele>1406</ele>
        <time>2010-01-01T01:06:28Z</time>
      </trkpt>
      <trkpt lat="42.25732" lon="2.19595">
        <ele>1407</ele>
        <time>2010-01-01T01:06:29Z</time>
      </trkpt>
      <trkpt lat="42.25734" lon="2.19596">
        <ele>1408</ele>
        <time>2010-01-01T01:06:30Z</time>
      </trkpt>
      <trkpt lat="42.25737" lon="2.19596">
        <ele>1409</ele>
        <time>2010-01-01T01:06:31Z</time>
      </trkpt>
      <trkpt lat="42.25739" lon="2.19598">
        <ele>1409</ele>
        <time>2010-01-01T01:06:32Z</time>
      </trkpt>
      <trkpt lat="42.2574" lon="2.19599">
        <ele>1410</ele>
        <time>2010-01-01T01:06:33Z</time>
      </trkpt>
      <trkpt lat="42.25742" lon="2.19602">
        <ele>1410</ele>
        <time>2010-01-01T01:06:34Z</time>
      </trkpt>
      <trkpt lat="42.25743" lon="2.19604">
        <ele>1411</ele>
        <time>2010-01-01T01:06:35Z</time>
      </trkpt>
      <trkpt lat="42.25745" lon="2.19607">
        <ele>1411</ele>
        <time>2010-01-01T01:06:36Z</time>
      </trkpt>
      <trkpt lat="42.25747" lon="2.19607">
        <ele>1412</ele>
        <time>2010-01-01T01:06:37Z</time>
      </trkpt>
      <trkpt lat="42.25749" lon="2.19608">
        <ele>1413</ele>
        <time>2010-01-01T01:06:38Z</time>
      </trkpt>
      <trkpt lat="42.25751" lon="2.1961">
        <ele>1414</ele>
        <time>2010-01-01T01:06:39Z</time>
      </trkpt>
      <trkpt lat="42.25754" lon="2.19611">
        <ele>1415</ele>
        <time>2010-01-01T01:06:40Z</time>
      </trkpt>
      <trkpt lat="42.25756" lon="2.19611">
        <ele>1416</ele>
        <time>2010-01-01T01:06:40Z</time>
      </trkpt>
      <trkpt lat="42.25758" lon="2.19612">
        <ele>1417</ele>
        <time>2010-01-01T01:06:41Z</time>
      </trkpt>
      <trkpt lat="42.2576" lon="2.19612">
        <ele>1419</ele>
        <time>2010-01-01T01:06:42Z</time>
      </trkpt>
      <trkpt lat="42.25762" lon="2.19613">
        <ele>1420</ele>
        <time>2010-01-01T01:06:43Z</time>
      </trkpt>
      <trkpt lat="42.25765" lon="2.19612">
        <ele>1421</ele>
        <time>2010-01-01T01:06:44Z</time>
      </trkpt>
      <trkpt lat="42.25767" lon="2.19614">
        <ele>1422</ele>
        <time>2010-01-01T01:06:45Z</time>
      </trkpt>
      <trkpt lat="42.25769" lon="2.19615">
        <ele>1424</ele>
        <time>2010-01-01T01:06:46Z</time>
      </trkpt>
      <trkpt lat="42.25771" lon="2.19616">
        <ele>1425</ele>
        <time>2010-01-01T01:06:47Z</time>
      </trkpt>
      <trkpt lat="42.25773" lon="2.19616">
        <ele>1426</ele>
        <time>2010-01-01T01:06:48Z</time>
      </trkpt>
      <trkpt lat="42.25775" lon="2.19618">
        <ele>1427</ele>
        <time>2010-01-01T01:06:48Z</time>
      </trkpt>
      <trkpt lat="42.25776" lon="2.19619">
        <ele>1427</ele>
        <time>2010-01-01T01:06:49Z</time>
      </trkpt>
      <trkpt lat="42.25778" lon="2.19619">
        <ele>1429</ele>
        <time>2010-01-01T01:06:50Z</time>
      </trkpt>
      <trkpt lat="42.2578" lon="2.19619">
        <ele>1430</ele>
        <time>2010-01-01T01:06:51Z</time>
      </trkpt>
      <trkpt lat="42.25782" lon="2.1962">
        <ele>1431</ele>
        <time>2010-01-01T01:06:52Z</time>
      </trkpt>
      <trkpt lat="42.25784" lon="2.19621">
        <ele>1432</ele>
        <time>2010-01-01T01:06:53Z</time>
      </trkpt>
      <trkpt lat="42.25786" lon="2.19623">
        <ele>1432</ele>
        <time>2010-01-01T01:06:53Z</time>
      </trkpt>
      <trkpt lat="42.25787" lon="2.19624">
        <ele>1433</ele>
        <time>2010-01-01T01:06:54Z</time>
      </trkpt>
      <trkpt lat="42.25789" lon="2.19627">
        <ele>1434</ele>
        <time>2010-01-01T01:06:55Z</time>
      </trkpt>
      <trkpt lat="42.2579" lon="2.19628">
        <ele>1434</ele>
        <time>2010-01-01T01:06:56Z</time>
      </trkpt>
      <trkpt lat="42.25792" lon="2.19631">
        <ele>1435</ele>
        <time>2010-01-01T01:06:57Z</time>
      </trkpt>
      <trkpt lat="42.25794" lon="2.19633">
        <ele>1436</ele>
        <time>2010-01-01T01:06:58Z</time>
      </trkpt>
      <trkpt lat="42.25795" lon="2.19635">
        <ele>1436</ele>
        <time>2010-01-01T01:06:58Z</time>
      </trkpt>
      <trkpt lat="42.25797" lon="2.19637">
        <ele>1437</ele>
        <time>2010-01-01T01:06:59Z</time>
      </trkpt>
      <trkpt lat="42.25799" lon="2.19639">
        <ele>1438</ele>
        <time>2010-01-01T01:07:00Z</time>
      </trkpt>
      <trkpt lat="42.25801" lon="2.19639">
        <ele>1439</ele>
        <time>2010-01-01T01:07:01Z</time>
      </trkpt>
      <trkpt lat="42.25803" lon="2.1964">
        <ele>1440</ele>
        <time>2010-01-01T01:07:02Z</time>
      </trkpt>
      <trkpt lat="42.25805" lon="2.19641">
        <ele>1441</ele>
        <time>2010-01-01T01:07:03Z</time>
      </trkpt>
      <trkpt lat="42.25807" lon="2.19643">
        <ele>1441</ele>
        <time>2010-01-01T01:07:04Z</time>
      </trkpt>
      <trkpt lat="42.25808" lon="2.19645">
        <ele>1442</ele>
        <time>2010-01-01T01:07:05Z</time>
      </trkpt>
      <trkpt lat="42.2581" lon="2.19647">
        <ele>1443</ele>
        <time>2010-01-01T01:07:05Z</time>
      </trkpt>
      <trkpt lat="42.25812" lon="2.19649">
        <ele>1443</ele>
        <time>2010-01-01T01:07:06Z</time>
      </trkpt>
      <trkpt lat="42.25814" lon="2.1965">
        <ele>1444</ele>
        <time>2010-01-01T01:07:08Z</time>
      </trkpt>
      <trkpt lat="42.25815" lon="2.19652">
        <ele>1445</ele>
        <time>2010-01-01T01:07:08Z</time>
      </trkpt>
      <trkpt lat="42.25816" lon="2.19654">
        <ele>1445</ele>
        <time>2010-01-01T01:07:09Z</time>
      </trkpt>
      <trkpt lat="42.25818" lon="2.19657">
        <ele>1445</ele>
        <time>2010-01-01T01:07:10Z</time>
      </trkpt>
      <trkpt lat="42.25818" lon="2.19661">
        <ele>1444</ele>
        <time>2010-01-01T01:07:11Z</time>
      </trkpt>
      <trkpt lat="42.2582" lon="2.19663">
        <ele>1445</ele>
        <time>2010-01-01T01:07:12Z</time>
      </trkpt>
      <trkpt lat="42.25822" lon="2.19666">
        <ele>1445</ele>
        <time>2010-01-01T01:07:13Z</time>
      </trkpt>
      <trkpt lat="42.25824" lon="2.19669">
        <ele>1445</ele>
        <time>2010-01-01T01:07:15Z</time>
      </trkpt>
      <trkpt lat="42.25826" lon="2.19672">
        <ele>1446</ele>
        <time>2010-01-01T01:07:16Z</time>
      </trkpt>
      <trkpt lat="42.25828" lon="2.19675">
        <ele>1447</ele>
        <time>2010-01-01T01:07:17Z</time>
      </trkpt>
      <trkpt lat="42.2583" lon="2.19677">
        <ele>1447</ele>
        <time>2010-01-01T01:07:18Z</time>
      </trkpt>
      <trkpt lat="42.25832" lon="2.1968">
        <ele>1448</ele>
        <time>2010-01-01T01:07:19Z</time>
      </trkpt>
      <trkpt lat="42.25835" lon="2.19682">
        <ele>1449</ele>
        <time>2010-01-01T01:07:20Z</time>
      </trkpt>
      <trkpt lat="42.25837" lon="2.19685">
        <ele>1449</ele>
        <time>2010-01-01T01:07:21Z</time>
      </trkpt>
      <trkpt lat="42.25839" lon="2.19687">
        <ele>1450</ele>
        <time>2010-01-01T01:07:22Z</time>
      </trkpt>
      <trkpt lat="42.25841" lon="2.1969">
        <ele>1451</ele>
        <time>2010-01-01T01:07:24Z</time>
      </trkpt>
      <trkpt lat="42.25843" lon="2.19691">
        <ele>1451</ele>
        <time>2010-01-01T01:07:25Z</time>
      </trkpt>
      <trkpt lat="42.25845" lon="2.19693">
        <ele>1452</ele>
        <time>2010-01-01T01:07:25Z</time>
      </trkpt>
      <trkpt lat="42.25847" lon="2.19695">
        <ele>1452</ele>
        <time>2010-01-01T01:07:27Z</time>
      </trkpt>
      <trkpt lat="42.2585" lon="2.19698">
        <ele>1453</ele>
        <time>2010-01-01T01:07:28Z</time>
      </trkpt>
      <trkpt lat="42.25852" lon="2.19701">
        <ele>1453</ele>
        <time>2010-01-01T01:07:29Z</time>
      </trkpt>
      <trkpt lat="42.25854" lon="2.19704">
        <ele>1453</ele>
        <time>2010-01-01T01:07:30Z</time>
      </trkpt>
      <trkpt lat="42.25857" lon="2.19706">
        <ele>1454</ele>
        <time>2010-01-01T01:07:32Z</time>
      </trkpt>
      <trkpt lat="42.25859" lon="2.19709">
        <ele>1454</ele>
        <time>2010-01-01T01:07:33Z</time>
      </trkpt>
      <trkpt lat="42.25861" lon="2.19711">
        <ele>1455</ele>
        <time>2010-01-01T01:07:34Z</time>
      </trkpt>
      <trkpt lat="42.25863" lon="2.19714">
        <ele>1454</ele>
        <time>2010-01-01T01:07:35Z</time>
      </trkpt>
      <trkpt lat="42.25864" lon="2.19716">
        <ele>1454</ele>
        <time>2010-01-01T01:07:36Z</time>
      </trkpt>
      <trkpt lat="42.25865" lon="2.19719">
        <ele>1453</ele>
        <time>2010-01-01T01:07:37Z</time>
      </trkpt>
      <trkpt lat="42.25867" lon="2.1972">
        <ele>1453</ele>
        <time>2010-01-01T01:07:38Z</time>
      </trkpt>
      <trkpt lat="42.2587" lon="2.19721">
        <ele>1454</ele>
        <time>2010-01-01T01:07:39Z</time>
      </trkpt>
      <trkpt lat="42.25872" lon="2.19722">
        <ele>1454</ele>
        <time>2010-01-01T01:07:40Z</time>
      </trkpt>
      <trkpt lat="42.25875" lon="2.19723">
        <ele>1454</ele>
        <time>2010-01-01T01:07:41Z</time>
      </trkpt>
      <trkpt lat="42.25877" lon="2.19724">
        <ele>1454</ele>
        <time>2010-01-01T01:07:42Z</time>
      </trkpt>
      <trkpt lat="42.2588" lon="2.19725">
        <ele>1453</ele>
        <time>2010-01-01T01:07:43Z</time>
      </trkpt>
      <trkpt lat="42.25882" lon="2.19725">
        <ele>1454</ele>
        <time>2010-01-01T01:07:44Z</time>
      </trkpt>
      <trkpt lat="42.25884" lon="2.19726">
        <ele>1454</ele>
        <time>2010-01-01T01:07:45Z</time>
      </trkpt>
      <trkpt lat="42.25887" lon="2.19728">
        <ele>1453</ele>
        <time>2010-01-01T01:07:46Z</time>
      </trkpt>
      <trkpt lat="42.2589" lon="2.1973">
        <ele>1453</ele>
        <time>2010-01-01T01:07:47Z</time>
      </trkpt>
      <trkpt lat="42.25893" lon="2.19731">
        <ele>1453</ele>
        <time>2010-01-01T01:07:49Z</time>
      </trkpt>
      <trkpt lat="42.25895" lon="2.19732">
        <ele>1453</ele>
        <time>2010-01-01T01:07:50Z</time>
      </trkpt>
      <trkpt lat="42.25898" lon="2.19734">
        <ele>1453</ele>
        <time>2010-01-01T01:07:51Z</time>
      </trkpt>
      <trkpt lat="42.259" lon="2.19734">
        <ele>1453</ele>
        <time>2010-01-01T01:07:52Z</time>
      </trkpt>
      <trkpt lat="42.25903" lon="2.19733">
        <ele>1454</ele>
        <time>2010-01-01T01:07:53Z</time>
      </trkpt>
      <trkpt lat="42.25906" lon="2.19733">
        <ele>1454</ele>
        <time>2010-01-01T01:07:54Z</time>
      </trkpt>
      <trkpt lat="42.25915" lon="2.19736">
        <ele>1454</ele>
        <time>2010-01-01T01:07:58Z</time>
      </trkpt>
      <trkpt lat="42.25925" lon="2.1974">
        <ele>1455</ele>
        <time>2010-01-01T01:08:02Z</time>
      </trkpt>
      <trkpt lat="42.25936" lon="2.19741">
        <ele>1457</ele>
        <time>2010-01-01T01:08:06Z</time>
      </trkpt>
      <trkpt lat="42.25944" lon="2.19744">
        <ele>1458</ele>
        <time>2010-01-01T01:08:10Z</time>
      </trkpt>
      <trkpt lat="42.25953" lon="2.19742">
        <ele>1462</ele>
        <time>2010-01-01T01:08:14Z</time>
      </trkpt>
      <trkpt lat="42.25957" lon="2.19742">
        <ele>1464</ele>
        <time>2010-01-01T01:08:15Z</time>
      </trkpt>
      <trkpt lat="42.2596" lon="2.19741">
        <ele>1465</ele>
        <time>2010-01-01T01:08:16Z</time>
      </trkpt>
      <trkpt lat="42.25962" lon="2.19741">
        <ele>1466</ele>
        <time>2010-01-01T01:08:17Z</time>
      </trkpt>
      <trkpt lat="42.25971" lon="2.19743">
        <ele>1469</ele>
        <time>2010-01-01T01:08:21Z</time>
      </trkpt>
      <trkpt lat="42.25981" lon="2.19744">
        <ele>1473</ele>
        <time>2010-01-01T01:08:25Z</time>
      </trkpt>
      <trkpt lat="42.25991" lon="2.19745">
        <ele>1478</ele>
        <time>2010-01-01T01:08:29Z</time>
      </trkpt>
      <trkpt lat="42.26001" lon="2.19743">
        <ele>1483</ele>
        <time>2010-01-01T01:08:33Z</time>
      </trkpt>
      <trkpt lat="42.26009" lon="2.19748">
        <ele>1485</ele>
        <time>2010-01-01T01:08:36Z</time>
      </trkpt>
      <trkpt lat="42.26015" lon="2.19758">
        <ele>1484</ele>
        <time>2010-01-01T01:08:40Z</time>
      </trkpt>
      <trkpt lat="42.26021" lon="2.19763">
        <ele>1486</ele>
        <time>2010-01-01T01:08:43Z</time>
      </trkpt>
      <trkpt lat="42.26026" lon="2.19774">
        <ele>1485</ele>
        <time>2010-01-01T01:08:47Z</time>
      </trkpt>
      <trkpt lat="42.26026" lon="2.19787">
        <ele>1483</ele>
        <time>2010-01-01T01:08:51Z</time>
      </trkpt>
      <trkpt lat="42.26025" lon="2.19793">
        <ele>1481</ele>
        <time>2010-01-01T01:08:53Z</time>
      </trkpt>
      <trkpt lat="42.26024" lon="2.19796">
        <ele>1480</ele>
        <time>2010-01-01T01:08:54Z</time>
      </trkpt>
      <trkpt lat="42.26024" lon="2.19799">
        <ele>1479</ele>
        <time>2010-01-01T01:08:55Z</time>
      </trkpt>
      <trkpt lat="42.26025" lon="2.19803">
        <ele>1479</ele>
        <time>2010-01-01T01:08:56Z</time>
      </trkpt>
      <trkpt lat="42.26025" lon="2.19807">
        <ele>1478</ele>
        <time>2010-01-01T01:08:57Z</time>
      </trkpt>
      <trkpt lat="42.26025" lon="2.19811">
        <ele>1477</ele>
        <time>2010-01-01T01:08:58Z</time>
      </trkpt>
      <trkpt lat="42.26025" lon="2.19815">
        <ele>1477</ele>
        <time>2010-01-01T01:08:59Z</time>
      </trkpt>
      <trkpt lat="42.26025" lon="2.19818">
        <ele>1476</ele>
        <time>2010-01-01T01:09:00Z</time>
      </trkpt>
      <trkpt lat="42.26026" lon="2.1982">
        <ele>1477</ele>
        <time>2010-01-01T01:09:01Z</time>
      </trkpt>
      <trkpt lat="42.26028" lon="2.19821">
        <ele>1477</ele>
        <time>2010-01-01T01:09:02Z</time>
      </trkpt>
      <trkpt lat="42.2603" lon="2.19823">
        <ele>1478</ele>
        <time>2010-01-01T01:09:03Z</time>
      </trkpt>
      <trkpt lat="42.26032" lon="2.19824">
        <ele>1480</ele>
        <time>2010-01-01T01:09:04Z</time>
      </trkpt>
      <trkpt lat="42.26034" lon="2.19825">
        <ele>1481</ele>
        <time>2010-01-01T01:09:04Z</time>
      </trkpt>
      <trkpt lat="42.26036" lon="2.19826">
        <ele>1482</ele>
        <time>2010-01-01T01:09:05Z</time>
      </trkpt>
      <trkpt lat="42.26038" lon="2.19827">
        <ele>1483</ele>
        <time>2010-01-01T01:09:06Z</time>
      </trkpt>
      <trkpt lat="42.2604" lon="2.19829">
        <ele>1484</ele>
        <time>2010-01-01T01:09:07Z</time>
      </trkpt>
      <trkpt lat="42.26042" lon="2.19831">
        <ele>1486</ele>
        <time>2010-01-01T01:09:08Z</time>
      </trkpt>
      <trkpt lat="42.26044" lon="2.19834">
        <ele>1487</ele>
        <time>2010-01-01T01:09:09Z</time>
      </trkpt>
      <trkpt lat="42.26046" lon="2.19837">
        <ele>1488</ele>
        <time>2010-01-01T01:09:11Z</time>
      </trkpt>
      <trkpt lat="42.26048" lon="2.1984">
        <ele>1489</ele>
        <time>2010-01-01T01:09:12Z</time>
      </trkpt>
      <trkpt lat="42.2605" lon="2.19843">
        <ele>1490</ele>
        <time>2010-01-01T01:09:13Z</time>
      </trkpt>
      <trkpt lat="42.26052" lon="2.19846">
        <ele>1491</ele>
        <time>2010-01-01T01:09:14Z</time>
      </trkpt>
      <trkpt lat="42.26053" lon="2.19848">
        <ele>1491</ele>
        <time>2010-01-01T01:09:15Z</time>
      </trkpt>
      <trkpt lat="42.26054" lon="2.19851">
        <ele>1492</ele>
        <time>2010-01-01T01:09:16Z</time>
      </trkpt>
      <trkpt lat="42.26055" lon="2.19854">
        <ele>1491</ele>
        <time>2010-01-01T01:09:17Z</time>
      </trkpt>
      <trkpt lat="42.26054" lon="2.19858">
        <ele>1491</ele>
        <time>2010-01-01T01:09:18Z</time>
      </trkpt>
      <trkpt lat="42.26055" lon="2.19862">
        <ele>1491</ele>
        <time>2010-01-01T01:09:19Z</time>
      </trkpt>
      <trkpt lat="42.26055" lon="2.19866">
        <ele>1491</ele>
        <time>2010-01-01T01:09:20Z</time>
      </trkpt>
      <trkpt lat="42.26054" lon="2.19869">
        <ele>1491</ele>
        <time>2010-01-01T01:09:21Z</time>
      </trkpt>
      <trkpt lat="42.26054" lon="2.19873">
        <ele>1491</ele>
        <time>2010-01-01T01:09:22Z</time>
      </trkpt>
      <trkpt lat="42.26054" lon="2.19877">
        <ele>1491</ele>
        <time>2010-01-01T01:09:24Z</time>
      </trkpt>
      <trkpt lat="42.26053" lon="2.19881">
        <ele>1490</ele>
        <time>2010-01-01T01:09:25Z</time>
      </trkpt>
      <trkpt lat="42.26052" lon="2.19884">
        <ele>1489</ele>
        <time>2010-01-01T01:09:26Z</time>
      </trkpt>
      <trkpt lat="42.26051" lon="2.19887">
        <ele>1488</ele>
        <time>2010-01-01T01:09:27Z</time>
      </trkpt>
      <trkpt lat="42.26049" lon="2.19889">
        <ele>1488</ele>
        <time>2010-01-01T01:09:28Z</time>
      </trkpt>
      <trkpt lat="42.26049" lon="2.19891">
        <ele>1488</ele>
        <time>2010-01-01T01:09:28Z</time>
      </trkpt>
      <trkpt lat="42.26047" lon="2.19895">
        <ele>1488</ele>
        <time>2010-01-01T01:09:29Z</time>
      </trkpt>
      <trkpt lat="42.26046" lon="2.19898">
        <ele>1488</ele>
        <time>2010-01-01T01:09:30Z</time>
      </trkpt>
      <trkpt lat="42.26047" lon="2.199">
        <ele>1488</ele>
        <time>2010-01-01T01:09:31Z</time>
      </trkpt>
      <trkpt lat="42.26047" lon="2.19903">
        <ele>1489</ele>
        <time>2010-01-01T01:09:32Z</time>
      </trkpt>
      <trkpt lat="42.26047" lon="2.19906">
        <ele>1490</ele>
        <time>2010-01-01T01:09:33Z</time>
      </trkpt>
      <trkpt lat="42.26047" lon="2.19909">
        <ele>1491</ele>
        <time>2010-01-01T01:09:34Z</time>
      </trkpt>
      <trkpt lat="42.26046" lon="2.19913">
        <ele>1491</ele>
        <time>2010-01-01T01:09:35Z</time>
      </trkpt>
      <trkpt lat="42.26046" lon="2.19916">
        <ele>1491</ele>
        <time>2010-01-01T01:09:36Z</time>
      </trkpt>
      <trkpt lat="42.26046" lon="2.19919">
        <ele>1492</ele>
        <time>2010-01-01T01:09:37Z</time>
      </trkpt>
      <trkpt lat="42.26046" lon="2.19922">
        <ele>1492</ele>
        <time>2010-01-01T01:09:38Z</time>
      </trkpt>
      <trkpt lat="42.26046" lon="2.19925">
        <ele>1493</ele>
        <time>2010-01-01T01:09:39Z</time>
      </trkpt>
      <trkpt lat="42.26046" lon="2.19928">
        <ele>1494</ele>
        <time>2010-01-01T01:09:39Z</time>
      </trkpt>
      <trkpt lat="42.26045" lon="2.19931">
        <ele>1494</ele>
        <time>2010-01-01T01:09:40Z</time>
      </trkpt>
      <trkpt lat="42.26045" lon="2.19934">
        <ele>1494</ele>
        <time>2010-01-01T01:09:41Z</time>
      </trkpt>
      <trkpt lat="42.26045" lon="2.19937">
        <ele>1495</ele>
        <time>2010-01-01T01:09:42Z</time>
      </trkpt>
      <trkpt lat="42.26045" lon="2.1994">
        <ele>1495</ele>
        <time>2010-01-01T01:09:43Z</time>
      </trkpt>
      <trkpt lat="42.26045" lon="2.19943">
        <ele>1496</ele>
        <time>2010-01-01T01:09:44Z</time>
      </trkpt>
      <trkpt lat="42.26045" lon="2.19949">
        <ele>1497</ele>
        <time>2010-01-01T01:09:46Z</time>
      </trkpt>
      <trkpt lat="42.26044" lon="2.19955">
        <ele>1497</ele>
        <time>2010-01-01T01:09:48Z</time>
      </trkpt>
      <trkpt lat="42.26044" lon="2.19958">
        <ele>1497</ele>
        <time>2010-01-01T01:09:48Z</time>
      </trkpt>
      <trkpt lat="42.26045" lon="2.19961">
        <ele>1498</ele>
        <time>2010-01-01T01:09:50Z</time>
      </trkpt>
      <trkpt lat="42.26045" lon="2.19965">
        <ele>1499</ele>
        <time>2010-01-01T01:09:50Z</time>
      </trkpt>
      <trkpt lat="42.26046" lon="2.19968">
        <ele>1500</ele>
        <time>2010-01-01T01:09:52Z</time>
      </trkpt>
      <trkpt lat="42.26048" lon="2.19971">
        <ele>1501</ele>
        <time>2010-01-01T01:09:53Z</time>
      </trkpt>
      <trkpt lat="42.26049" lon="2.19973">
        <ele>1502</ele>
        <time>2010-01-01T01:09:54Z</time>
      </trkpt>
      <trkpt lat="42.26051" lon="2.19975">
        <ele>1503</ele>
        <time>2010-01-01T01:09:54Z</time>
      </trkpt>
      <trkpt lat="42.26053" lon="2.19978">
        <ele>1505</ele>
        <time>2010-01-01T01:09:56Z</time>
      </trkpt>
      <trkpt lat="42.26054" lon="2.19982">
        <ele>1506</ele>
        <time>2010-01-01T01:09:57Z</time>
      </trkpt>
      <trkpt lat="42.26055" lon="2.19985">
        <ele>1507</ele>
        <time>2010-01-01T01:09:58Z</time>
      </trkpt>
      <trkpt lat="42.26056" lon="2.19988">
        <ele>1508</ele>
        <time>2010-01-01T01:09:59Z</time>
      </trkpt>
      <trkpt lat="42.26057" lon="2.19992">
        <ele>1509</ele>
        <time>2010-01-01T01:10:00Z</time>
      </trkpt>
      <trkpt lat="42.26059" lon="2.19995">
        <ele>1510</ele>
        <time>2010-01-01T01:10:01Z</time>
      </trkpt>
      <trkpt lat="42.2606" lon="2.19998">
        <ele>1510</ele>
        <time>2010-01-01T01:10:02Z</time>
      </trkpt>
      <trkpt lat="42.26061" lon="2.19999">
        <ele>1512</ele>
        <time>2010-01-01T01:10:03Z</time>
      </trkpt>
      <trkpt lat="42.26062" lon="2.20002">
        <ele>1512</ele>
        <time>2010-01-01T01:10:04Z</time>
      </trkpt>
      <trkpt lat="42.26064" lon="2.20005">
        <ele>1513</ele>
        <time>2010-01-01T01:10:05Z</time>
      </trkpt>
      <trkpt lat="42.26065" lon="2.20007">
        <ele>1514</ele>
        <time>2010-01-01T01:10:06Z</time>
      </trkpt>
      <trkpt lat="42.26066" lon="2.20011">
        <ele>1514</ele>
        <time>2010-01-01T01:10:07Z</time>
      </trkpt>
      <trkpt lat="42.26068" lon="2.20013">
        <ele>1515</ele>
        <time>2010-01-01T01:10:08Z</time>
      </trkpt>
      <trkpt lat="42.26069" lon="2.20016">
        <ele>1516</ele>
        <time>2010-01-01T01:10:09Z</time>
      </trkpt>
      <trkpt lat="42.2607" lon="2.20019">
        <ele>1516</ele>
        <time>2010-01-01T01:10:10Z</time>
      </trkpt>
      <trkpt lat="42.26072" lon="2.20021">
        <ele>1517</ele>
        <time>2010-01-01T01:10:11Z</time>
      </trkpt>
      <trkpt lat="42.26074" lon="2.20024">
        <ele>1518</ele>
        <time>2010-01-01T01:10:12Z</time>
      </trkpt>
      <trkpt lat="42.26075" lon="2.20027">
        <ele>1519</ele>
        <time>2010-01-01T01:10:13Z</time>
      </trkpt>
      <trkpt lat="42.26076" lon="2.20029">
        <ele>1519</ele>
        <time>2010-01-01T01:10:14Z</time>
      </trkpt>
      <trkpt lat="42.26078" lon="2.20031">
        <ele>1520</ele>
        <time>2010-01-01T01:10:14Z</time>
      </trkpt>
      <trkpt lat="42.26079" lon="2.20034">
        <ele>1521</ele>
        <time>2010-01-01T01:10:15Z</time>
      </trkpt>
      <trkpt lat="42.2608" lon="2.20037">
        <ele>1521</ele>
        <time>2010-01-01T01:10:16Z</time>
      </trkpt>
      <trkpt lat="42.26082" lon="2.20038">
        <ele>1522</ele>
        <time>2010-01-01T01:10:17Z</time>
      </trkpt>
      <trkpt lat="42.26084" lon="2.2004">
        <ele>1524</ele>
        <time>2010-01-01T01:10:18Z</time>
      </trkpt>
      <trkpt lat="42.26087" lon="2.20042">
        <ele>1525</ele>
        <time>2010-01-01T01:10:19Z</time>
      </trkpt>
      <trkpt lat="42.26088" lon="2.20045">
        <ele>1525</ele>
        <time>2010-01-01T01:10:21Z</time>
      </trkpt>
      <trkpt lat="42.26091" lon="2.2005">
        <ele>1526</ele>
        <time>2010-01-01T01:10:22Z</time>
      </trkpt>
      <trkpt lat="42.26093" lon="2.20052">
        <ele>1527</ele>
        <time>2010-01-01T01:10:23Z</time>
      </trkpt>
      <trkpt lat="42.26095" lon="2.20054">
        <ele>1528</ele>
        <time>2010-01-01T01:10:24Z</time>
      </trkpt>
      <trkpt lat="42.26097" lon="2.20056">
        <ele>1529</ele>
        <time>2010-01-01T01:10:25Z</time>
      </trkpt>
      <trkpt lat="42.26098" lon="2.20059">
        <ele>1530</ele>
        <time>2010-01-01T01:10:26Z</time>
      </trkpt>
      <trkpt lat="42.261" lon="2.2006">
        <ele>1531</ele>
        <time>2010-01-01T01:10:27Z</time>
      </trkpt>
      <trkpt lat="42.26101" lon="2.20063">
        <ele>1531</ele>
        <time>2010-01-01T01:10:28Z</time>
      </trkpt>
      <trkpt lat="42.26101" lon="2.20066">
        <ele>1531</ele>
        <time>2010-01-01T01:10:29Z</time>
      </trkpt>
      <trkpt lat="42.26103" lon="2.20069">
        <ele>1531</ele>
        <time>2010-01-01T01:10:30Z</time>
      </trkpt>
      <trkpt lat="42.26104" lon="2.20071">
        <ele>1532</ele>
        <time>2010-01-01T01:10:31Z</time>
      </trkpt>
      <trkpt lat="42.26106" lon="2.20073">
        <ele>1533</ele>
        <time>2010-01-01T01:10:32Z</time>
      </trkpt>
      <trkpt lat="42.26107" lon="2.20076">
        <ele>1533</ele>
        <time>2010-01-01T01:10:32Z</time>
      </trkpt>
      <trkpt lat="42.26109" lon="2.20078">
        <ele>1534</ele>
        <time>2010-01-01T01:10:34Z</time>
      </trkpt>
      <trkpt lat="42.2611" lon="2.20082">
        <ele>1534</ele>
        <time>2010-01-01T01:10:35Z</time>
      </trkpt>
      <trkpt lat="42.26111" lon="2.20085">
        <ele>1534</ele>
        <time>2010-01-01T01:10:36Z</time>
      </trkpt>
      <trkpt lat="42.26112" lon="2.20088">
        <ele>1536</ele>
        <time>2010-01-01T01:10:37Z</time>
      </trkpt>
      <trkpt lat="42.26114" lon="2.2009">
        <ele>1537</ele>
        <time>2010-01-01T01:10:38Z</time>
      </trkpt>
      <trkpt lat="42.26114" lon="2.20094">
        <ele>1537</ele>
        <time>2010-01-01T01:10:39Z</time>
      </trkpt>
      <trkpt lat="42.26114" lon="2.20097">
        <ele>1537</ele>
        <time>2010-01-01T01:10:40Z</time>
      </trkpt>
      <trkpt lat="42.26114" lon="2.20101">
        <ele>1537</ele>
        <time>2010-01-01T01:10:41Z</time>
      </trkpt>
      <trkpt lat="42.26113" lon="2.20105">
        <ele>1537</ele>
        <time>2010-01-01T01:10:42Z</time>
      </trkpt>
      <trkpt lat="42.26114" lon="2.20108">
        <ele>1538</ele>
        <time>2010-01-01T01:10:43Z</time>
      </trkpt>
      <trkpt lat="42.26114" lon="2.20112">
        <ele>1539</ele>
        <time>2010-01-01T01:10:44Z</time>
      </trkpt>
      <trkpt lat="42.26113" lon="2.20117">
        <ele>1540</ele>
        <time>2010-01-01T01:10:46Z</time>
      </trkpt>
      <trkpt lat="42.26113" lon="2.20121">
        <ele>1541</ele>
        <time>2010-01-01T01:10:47Z</time>
      </trkpt>
      <trkpt lat="42.26113" lon="2.20124">
        <ele>1542</ele>
        <time>2010-01-01T01:10:48Z</time>
      </trkpt>
      <trkpt lat="42.26112" lon="2.20127">
        <ele>1542</ele>
        <time>2010-01-01T01:10:49Z</time>
      </trkpt>
      <trkpt lat="42.26111" lon="2.2013">
        <ele>1542</ele>
        <time>2010-01-01T01:10:50Z</time>
      </trkpt>
      <trkpt lat="42.26111" lon="2.20133">
        <ele>1543</ele>
        <time>2010-01-01T01:10:51Z</time>
      </trkpt>
      <trkpt lat="42.26111" lon="2.20137">
        <ele>1544</ele>
        <time>2010-01-01T01:10:52Z</time>
      </trkpt>
      <trkpt lat="42.2611" lon="2.2014">
        <ele>1545</ele>
        <time>2010-01-01T01:10:53Z</time>
      </trkpt>
      <trkpt lat="42.26111" lon="2.20142">
        <ele>1546</ele>
        <time>2010-01-01T01:10:54Z</time>
      </trkpt>
      <trkpt lat="42.26111" lon="2.20145">
        <ele>1546</ele>
        <time>2010-01-01T01:10:54Z</time>
      </trkpt>
      <trkpt lat="42.26111" lon="2.20148">
        <ele>1546</ele>
        <time>2010-01-01T01:10:55Z</time>
      </trkpt>
      <trkpt lat="42.26112" lon="2.2015">
        <ele>1547</ele>
        <time>2010-01-01T01:10:56Z</time>
      </trkpt>
      <trkpt lat="42.26113" lon="2.20153">
        <ele>1548</ele>
        <time>2010-01-01T01:10:57Z</time>
      </trkpt>
      <trkpt lat="42.26113" lon="2.20155">
        <ele>1548</ele>
        <time>2010-01-01T01:10:58Z</time>
      </trkpt>
      <trkpt lat="42.26114" lon="2.20158">
        <ele>1550</ele>
        <time>2010-01-01T01:10:58Z</time>
      </trkpt>
      <trkpt lat="42.26115" lon="2.2016">
        <ele>1550</ele>
        <time>2010-01-01T01:10:59Z</time>
      </trkpt>
      <trkpt lat="42.26116" lon="2.20163">
        <ele>1551</ele>
        <time>2010-01-01T01:11:00Z</time>
      </trkpt>
      <trkpt lat="42.26116" lon="2.20166">
        <ele>1551</ele>
        <time>2010-01-01T01:11:01Z</time>
      </trkpt>
      <trkpt lat="42.26116" lon="2.20178">
        <ele>1552</ele>
        <time>2010-01-01T01:11:04Z</time>
      </trkpt>
      <trkpt lat="42.26118" lon="2.20181">
        <ele>1553</ele>
        <time>2010-01-01T01:11:06Z</time>
      </trkpt>
      <trkpt lat="42.26118" lon="2.20184">
        <ele>1554</ele>
        <time>2010-01-01T01:11:06Z</time>
      </trkpt>
      <trkpt lat="42.26119" lon="2.20185">
        <ele>1554</ele>
        <time>2010-01-01T01:11:07Z</time>
      </trkpt>
      <trkpt lat="42.2612" lon="2.20188">
        <ele>1555</ele>
        <time>2010-01-01T01:11:08Z</time>
      </trkpt>
      <trkpt lat="42.26122" lon="2.20187">
        <ele>1556</ele>
        <time>2010-01-01T01:11:09Z</time>
      </trkpt>
      <trkpt lat="42.26124" lon="2.20189">
        <ele>1557</ele>
        <time>2010-01-01T01:11:10Z</time>
      </trkpt>
      <trkpt lat="42.26125" lon="2.2019">
        <ele>1557</ele>
        <time>2010-01-01T01:11:10Z</time>
      </trkpt>
      <trkpt lat="42.26127" lon="2.20188">
        <ele>1558</ele>
        <time>2010-01-01T01:11:11Z</time>
      </trkpt>
      <trkpt lat="42.26128" lon="2.2019">
        <ele>1559</ele>
        <time>2010-01-01T01:11:12Z</time>
      </trkpt>
      <trkpt lat="42.26129" lon="2.20193">
        <ele>1559</ele>
        <time>2010-01-01T01:11:13Z</time>
      </trkpt>
      <trkpt lat="42.2613" lon="2.20195">
        <ele>1560</ele>
        <time>2010-01-01T01:11:13Z</time>
      </trkpt>
      <trkpt lat="42.26131" lon="2.20196">
        <ele>1560</ele>
        <time>2010-01-01T01:11:14Z</time>
      </trkpt>
      <trkpt lat="42.26133" lon="2.20198">
        <ele>1561</ele>
        <time>2010-01-01T01:11:15Z</time>
      </trkpt>
      <trkpt lat="42.26135" lon="2.20198">
        <ele>1562</ele>
        <time>2010-01-01T01:11:16Z</time>
      </trkpt>
      <trkpt lat="42.26137" lon="2.20197">
        <ele>1563</ele>
        <time>2010-01-01T01:11:17Z</time>
      </trkpt>
      <trkpt lat="42.2614" lon="2.20197">
        <ele>1564</ele>
        <time>2010-01-01T01:11:18Z</time>
      </trkpt>
      <trkpt lat="42.26142" lon="2.20198">
        <ele>1565</ele>
        <time>2010-01-01T01:11:19Z</time>
      </trkpt>
      <trkpt lat="42.26143" lon="2.20197">
        <ele>1566</ele>
        <time>2010-01-01T01:11:19Z</time>
      </trkpt>
      <trkpt lat="42.26145" lon="2.20197">
        <ele>1567</ele>
        <time>2010-01-01T01:11:20Z</time>
      </trkpt>
      <trkpt lat="42.26147" lon="2.20198">
        <ele>1568</ele>
        <time>2010-01-01T01:11:21Z</time>
      </trkpt>
      <trkpt lat="42.26149" lon="2.20199">
        <ele>1569</ele>
        <time>2010-01-01T01:11:22Z</time>
      </trkpt>
      <trkpt lat="42.2615" lon="2.20201">
        <ele>1569</ele>
        <time>2010-01-01T01:11:22Z</time>
      </trkpt>
      <trkpt lat="42.26151" lon="2.20203">
        <ele>1569</ele>
        <time>2010-01-01T01:11:23Z</time>
      </trkpt>
      <trkpt lat="42.26152" lon="2.20205">
        <ele>1570</ele>
        <time>2010-01-01T01:11:24Z</time>
      </trkpt>
      <trkpt lat="42.26154" lon="2.20207">
        <ele>1571</ele>
        <time>2010-01-01T01:11:25Z</time>
      </trkpt>
      <trkpt lat="42.26155" lon="2.2021">
        <ele>1571</ele>
        <time>2010-01-01T01:11:26Z</time>
      </trkpt>
      <trkpt lat="42.26157" lon="2.20212">
        <ele>1572</ele>
        <time>2010-01-01T01:11:27Z</time>
      </trkpt>
      <trkpt lat="42.26158" lon="2.20213">
        <ele>1573</ele>
        <time>2010-01-01T01:11:27Z</time>
      </trkpt>
      <trkpt lat="42.2616" lon="2.20214">
        <ele>1574</ele>
        <time>2010-01-01T01:11:28Z</time>
      </trkpt>
      <trkpt lat="42.26163" lon="2.20215">
        <ele>1575</ele>
        <time>2010-01-01T01:11:29Z</time>
      </trkpt>
      <trkpt lat="42.26165" lon="2.20216">
        <ele>1576</ele>
        <time>2010-01-01T01:11:30Z</time>
      </trkpt>
      <trkpt lat="42.26167" lon="2.20218">
        <ele>1577</ele>
        <time>2010-01-01T01:11:31Z</time>
      </trkpt>
      <trkpt lat="42.26168" lon="2.2022">
        <ele>1578</ele>
        <time>2010-01-01T01:11:32Z</time>
      </trkpt>
      <trkpt lat="42.2617" lon="2.20221">
        <ele>1579</ele>
        <time>2010-01-01T01:11:33Z</time>
      </trkpt>
      <trkpt lat="42.26171" lon="2.20223">
        <ele>1580</ele>
        <time>2010-01-01T01:11:34Z</time>
      </trkpt>
      <trkpt lat="42.26173" lon="2.20225">
        <ele>1581</ele>
        <time>2010-01-01T01:11:34Z</time>
      </trkpt>
      <trkpt lat="42.26175" lon="2.20225">
        <ele>1583</ele>
        <time>2010-01-01T01:11:35Z</time>
      </trkpt>
      <trkpt lat="42.26177" lon="2.20226">
        <ele>1584</ele>
        <time>2010-01-01T01:11:36Z</time>
      </trkpt>
      <trkpt lat="42.26179" lon="2.20229">
        <ele>1585</ele>
        <time>2010-01-01T01:11:37Z</time>
      </trkpt>
      <trkpt lat="42.2618" lon="2.20231">
        <ele>1586</ele>
        <time>2010-01-01T01:11:38Z</time>
      </trkpt>
      <trkpt lat="42.26181" lon="2.20234">
        <ele>1587</ele>
        <time>2010-01-01T01:11:39Z</time>
      </trkpt>
      <trkpt lat="42.26183" lon="2.20236">
        <ele>1588</ele>
        <time>2010-01-01T01:11:40Z</time>
      </trkpt>
      <trkpt lat="42.26185" lon="2.20237">
        <ele>1589</ele>
        <time>2010-01-01T01:11:41Z</time>
      </trkpt>
      <trkpt lat="42.26185" lon="2.2024">
        <ele>1590</ele>
        <time>2010-01-01T01:11:41Z</time>
      </trkpt>
      <trkpt lat="42.26186" lon="2.20242">
        <ele>1590</ele>
        <time>2010-01-01T01:11:42Z</time>
      </trkpt>
      <trkpt lat="42.26187" lon="2.20244">
        <ele>1591</ele>
        <time>2010-01-01T01:11:43Z</time>
      </trkpt>
      <trkpt lat="42.26188" lon="2.20247">
        <ele>1591</ele>
        <time>2010-01-01T01:11:44Z</time>
      </trkpt>
      <trkpt lat="42.26189" lon="2.20249">
        <ele>1591</ele>
        <time>2010-01-01T01:11:45Z</time>
      </trkpt>
      <trkpt lat="42.2619" lon="2.20252">
        <ele>1592</ele>
        <time>2010-01-01T01:11:46Z</time>
      </trkpt>
      <trkpt lat="42.26191" lon="2.20255">
        <ele>1593</ele>
        <time>2010-01-01T01:11:47Z</time>
      </trkpt>
      <trkpt lat="42.26192" lon="2.20258">
        <ele>1594</ele>
        <time>2010-01-01T01:11:47Z</time>
      </trkpt>
      <trkpt lat="42.26193" lon="2.2026">
        <ele>1595</ele>
        <time>2010-01-01T01:11:48Z</time>
      </trkpt>
      <trkpt lat="42.26194" lon="2.20262">
        <ele>1597</ele>
        <time>2010-01-01T01:11:49Z</time>
      </trkpt>
      <trkpt lat="42.26196" lon="2.20265">
        <ele>1598</ele>
        <time>2010-01-01T01:11:50Z</time>
      </trkpt>
      <trkpt lat="42.26196" lon="2.20269">
        <ele>1599</ele>
        <time>2010-01-01T01:11:51Z</time>
      </trkpt>
      <trkpt lat="42.26196" lon="2.20272">
        <ele>1600</ele>
        <time>2010-01-01T01:11:52Z</time>
      </trkpt>
      <trkpt lat="42.26196" lon="2.20275">
        <ele>1600</ele>
        <time>2010-01-01T01:11:53Z</time>
      </trkpt>
      <trkpt lat="42.26197" lon="2.20277">
        <ele>1601</ele>
        <time>2010-01-01T01:11:54Z</time>
      </trkpt>
      <trkpt lat="42.26198" lon="2.2028">
        <ele>1602</ele>
        <time>2010-01-01T01:11:55Z</time>
      </trkpt>
      <trkpt lat="42.26199" lon="2.20282">
        <ele>1602</ele>
        <time>2010-01-01T01:11:55Z</time>
      </trkpt>
      <trkpt lat="42.262" lon="2.20285">
        <ele>1603</ele>
        <time>2010-01-01T01:11:56Z</time>
      </trkpt>
      <trkpt lat="42.26199" lon="2.20289">
        <ele>1603</ele>
        <time>2010-01-01T01:11:58Z</time>
      </trkpt>
      <trkpt lat="42.26199" lon="2.20292">
        <ele>1603</ele>
        <time>2010-01-01T01:11:58Z</time>
      </trkpt>
      <trkpt lat="42.262" lon="2.20294">
        <ele>1603</ele>
        <time>2010-01-01T01:11:59Z</time>
      </trkpt>
      <trkpt lat="42.262" lon="2.20297">
        <ele>1604</ele>
        <time>2010-01-01T01:12:00Z</time>
      </trkpt>
      <trkpt lat="42.262" lon="2.203">
        <ele>1604</ele>
        <time>2010-01-01T01:12:01Z</time>
      </trkpt>
      <trkpt lat="42.26201" lon="2.20303">
        <ele>1604</ele>
        <time>2010-01-01T01:12:02Z</time>
      </trkpt>
      <trkpt lat="42.26201" lon="2.20307">
        <ele>1605</ele>
        <time>2010-01-01T01:12:03Z</time>
      </trkpt>
      <trkpt lat="42.26201" lon="2.20309">
        <ele>1604</ele>
        <time>2010-01-01T01:12:04Z</time>
      </trkpt>
      <trkpt lat="42.26203" lon="2.20311">
        <ele>1605</ele>
        <time>2010-01-01T01:12:05Z</time>
      </trkpt>
      <trkpt lat="42.26205" lon="2.20312">
        <ele>1606</ele>
        <time>2010-01-01T01:12:06Z</time>
      </trkpt>
      <trkpt lat="42.26207" lon="2.20312">
        <ele>1608</ele>
        <time>2010-01-01T01:12:07Z</time>
      </trkpt>
      <trkpt lat="42.26209" lon="2.20312">
        <ele>1609</ele>
        <time>2010-01-01T01:12:07Z</time>
      </trkpt>
      <trkpt lat="42.26211" lon="2.20311">
        <ele>1610</ele>
        <time>2010-01-01T01:12:08Z</time>
      </trkpt>
      <trkpt lat="42.26213" lon="2.20313">
        <ele>1611</ele>
        <time>2010-01-01T01:12:09Z</time>
      </trkpt>
      <trkpt lat="42.26215" lon="2.20315">
        <ele>1612</ele>
        <time>2010-01-01T01:12:10Z</time>
      </trkpt>
      <trkpt lat="42.26217" lon="2.20316">
        <ele>1613</ele>
        <time>2010-01-01T01:12:11Z</time>
      </trkpt>
      <trkpt lat="42.26218" lon="2.20318">
        <ele>1613</ele>
        <time>2010-01-01T01:12:12Z</time>
      </trkpt>
      <trkpt lat="42.2622" lon="2.20321">
        <ele>1614</ele>
        <time>2010-01-01T01:12:13Z</time>
      </trkpt>
      <trkpt lat="42.26222" lon="2.20323">
        <ele>1615</ele>
        <time>2010-01-01T01:12:14Z</time>
      </trkpt>
      <trkpt lat="42.26223" lon="2.20325">
        <ele>1615</ele>
        <time>2010-01-01T01:12:15Z</time>
      </trkpt>
      <trkpt lat="42.26225" lon="2.20327">
        <ele>1616</ele>
        <time>2010-01-01T01:12:16Z</time>
      </trkpt>
      <trkpt lat="42.26227" lon="2.20328">
        <ele>1617</ele>
        <time>2010-01-01T01:12:17Z</time>
      </trkpt>
      <trkpt lat="42.26229" lon="2.20329">
        <ele>1618</ele>
        <time>2010-01-01T01:12:17Z</time>
      </trkpt>
      <trkpt lat="42.26231" lon="2.20331">
        <ele>1619</ele>
        <time>2010-01-01T01:12:18Z</time>
      </trkpt>
      <trkpt lat="42.26233" lon="2.20333">
        <ele>1619</ele>
        <time>2010-01-01T01:12:19Z</time>
      </trkpt>
      <trkpt lat="42.26235" lon="2.20335">
        <ele>1621</ele>
        <time>2010-01-01T01:12:20Z</time>
      </trkpt>
      <trkpt lat="42.26237" lon="2.20336">
        <ele>1622</ele>
        <time>2010-01-01T01:12:21Z</time>
      </trkpt>
      <trkpt lat="42.26239" lon="2.20337">
        <ele>1623</ele>
        <time>2010-01-01T01:12:22Z</time>
      </trkpt>
      <trkpt lat="42.26241" lon="2.20339">
        <ele>1624</ele>
        <time>2010-01-01T01:12:23Z</time>
      </trkpt>
      <trkpt lat="42.26242" lon="2.20342">
        <ele>1624</ele>
        <time>2010-01-01T01:12:24Z</time>
      </trkpt>
      <trkpt lat="42.26242" lon="2.20344">
        <ele>1624</ele>
        <time>2010-01-01T01:12:25Z</time>
      </trkpt>
      <trkpt lat="42.26243" lon="2.20347">
        <ele>1624</ele>
        <time>2010-01-01T01:12:26Z</time>
      </trkpt>
      <trkpt lat="42.26244" lon="2.20351">
        <ele>1624</ele>
        <time>2010-01-01T01:12:27Z</time>
      </trkpt>
      <trkpt lat="42.26245" lon="2.20354">
        <ele>1625</ele>
        <time>2010-01-01T01:12:28Z</time>
      </trkpt>
      <trkpt lat="42.26245" lon="2.20356">
        <ele>1625</ele>
        <time>2010-01-01T01:12:28Z</time>
      </trkpt>
      <trkpt lat="42.26246" lon="2.2036">
        <ele>1625</ele>
        <time>2010-01-01T01:12:30Z</time>
      </trkpt>
      <trkpt lat="42.26246" lon="2.20364">
        <ele>1625</ele>
        <time>2010-01-01T01:12:31Z</time>
      </trkpt>
      <trkpt lat="42.26246" lon="2.20367">
        <ele>1626</ele>
        <time>2010-01-01T01:12:32Z</time>
      </trkpt>
      <trkpt lat="42.26246" lon="2.20371">
        <ele>1626</ele>
        <time>2010-01-01T01:12:33Z</time>
      </trkpt>
      <trkpt lat="42.26245" lon="2.20375">
        <ele>1626</ele>
        <time>2010-01-01T01:12:34Z</time>
      </trkpt>
      <trkpt lat="42.26246" lon="2.20379">
        <ele>1627</ele>
        <time>2010-01-01T01:12:35Z</time>
      </trkpt>
      <trkpt lat="42.26246" lon="2.20382">
        <ele>1627</ele>
        <time>2010-01-01T01:12:36Z</time>
      </trkpt>
      <trkpt lat="42.26245" lon="2.20385">
        <ele>1627</ele>
        <time>2010-01-01T01:12:37Z</time>
      </trkpt>
      <trkpt lat="42.26245" lon="2.20388">
        <ele>1627</ele>
        <time>2010-01-01T01:12:38Z</time>
      </trkpt>
      <trkpt lat="42.26245" lon="2.20391">
        <ele>1628</ele>
        <time>2010-01-01T01:12:39Z</time>
      </trkpt>
      <trkpt lat="42.26246" lon="2.20394">
        <ele>1628</ele>
        <time>2010-01-01T01:12:40Z</time>
      </trkpt>
      <trkpt lat="42.26247" lon="2.20397">
        <ele>1629</ele>
        <time>2010-01-01T01:12:41Z</time>
      </trkpt>
      <trkpt lat="42.26248" lon="2.204">
        <ele>1631</ele>
        <time>2010-01-01T01:12:42Z</time>
      </trkpt>
      <trkpt lat="42.26248" lon="2.20404">
        <ele>1631</ele>
        <time>2010-01-01T01:12:43Z</time>
      </trkpt>
      <trkpt lat="42.26249" lon="2.20407">
        <ele>1632</ele>
        <time>2010-01-01T01:12:44Z</time>
      </trkpt>
      <trkpt lat="42.26249" lon="2.20409">
        <ele>1632</ele>
        <time>2010-01-01T01:12:45Z</time>
      </trkpt>
      <trkpt lat="42.26251" lon="2.20412">
        <ele>1633</ele>
        <time>2010-01-01T01:12:46Z</time>
      </trkpt>
      <trkpt lat="42.26252" lon="2.20412">
        <ele>1635</ele>
        <time>2010-01-01T01:12:47Z</time>
      </trkpt>
      <trkpt lat="42.26255" lon="2.20414">
        <ele>1637</ele>
        <time>2010-01-01T01:12:48Z</time>
      </trkpt>
      <trkpt lat="42.26256" lon="2.20416">
        <ele>1638</ele>
        <time>2010-01-01T01:12:48Z</time>
      </trkpt>
      <trkpt lat="42.26257" lon="2.20418">
        <ele>1639</ele>
        <time>2010-01-01T01:12:49Z</time>
      </trkpt>
      <trkpt lat="42.26257" lon="2.20421">
        <ele>1639</ele>
        <time>2010-01-01T01:12:50Z</time>
      </trkpt>
      <trkpt lat="42.26257" lon="2.20424">
        <ele>1639</ele>
        <time>2010-01-01T01:12:51Z</time>
      </trkpt>
      <trkpt lat="42.26258" lon="2.20427">
        <ele>1640</ele>
        <time>2010-01-01T01:12:52Z</time>
      </trkpt>
      <trkpt lat="42.26258" lon="2.20431">
        <ele>1640</ele>
        <time>2010-01-01T01:12:53Z</time>
      </trkpt>
      <trkpt lat="42.26258" lon="2.20433">
        <ele>1641</ele>
        <time>2010-01-01T01:12:54Z</time>
      </trkpt>
      <trkpt lat="42.2626" lon="2.20435">
        <ele>1642</ele>
        <time>2010-01-01T01:12:55Z</time>
      </trkpt>
      <trkpt lat="42.26262" lon="2.20435">
        <ele>1644</ele>
        <time>2010-01-01T01:12:55Z</time>
      </trkpt>
      <trkpt lat="42.26264" lon="2.20433">
        <ele>1645</ele>
        <time>2010-01-01T01:12:56Z</time>
      </trkpt>
      <trkpt lat="42.26266" lon="2.20434">
        <ele>1647</ele>
        <time>2010-01-01T01:12:57Z</time>
      </trkpt>
      <trkpt lat="42.26268" lon="2.20435">
        <ele>1649</ele>
        <time>2010-01-01T01:12:58Z</time>
      </trkpt>
      <trkpt lat="42.2627" lon="2.20435">
        <ele>1651</ele>
        <time>2010-01-01T01:12:59Z</time>
      </trkpt>
      <trkpt lat="42.26272" lon="2.20434">
        <ele>1652</ele>
        <time>2010-01-01T01:13:00Z</time>
      </trkpt>
      <trkpt lat="42.26274" lon="2.20434">
        <ele>1654</ele>
        <time>2010-01-01T01:13:01Z</time>
      </trkpt>
      <trkpt lat="42.26274" lon="2.20437">
        <ele>1655</ele>
        <time>2010-01-01T01:13:02Z</time>
      </trkpt>
      <trkpt lat="42.26275" lon="2.20439">
        <ele>1656</ele>
        <time>2010-01-01T01:13:02Z</time>
      </trkpt>
      <trkpt lat="42.26276" lon="2.20442">
        <ele>1657</ele>
        <time>2010-01-01T01:13:03Z</time>
      </trkpt>
      <trkpt lat="42.26278" lon="2.20444">
        <ele>1658</ele>
        <time>2010-01-01T01:13:04Z</time>
      </trkpt>
      <trkpt lat="42.26279" lon="2.20446">
        <ele>1659</ele>
        <time>2010-01-01T01:13:05Z</time>
      </trkpt>
      <trkpt lat="42.26281" lon="2.20449">
        <ele>1661</ele>
        <time>2010-01-01T01:13:06Z</time>
      </trkpt>
      <trkpt lat="42.26282" lon="2.20451">
        <ele>1661</ele>
        <time>2010-01-01T01:13:07Z</time>
      </trkpt>
      <trkpt lat="42.26284" lon="2.20451">
        <ele>1663</ele>
        <time>2010-01-01T01:13:08Z</time>
      </trkpt>
      <trkpt lat="42.26286" lon="2.2045">
        <ele>1664</ele>
        <time>2010-01-01T01:13:09Z</time>
      </trkpt>
      <trkpt lat="42.26287" lon="2.20448">
        <ele>1665</ele>
        <time>2010-01-01T01:13:09Z</time>
      </trkpt>
      <trkpt lat="42.26288" lon="2.20446">
        <ele>1666</ele>
        <time>2010-01-01T01:13:10Z</time>
      </trkpt>
      <trkpt lat="42.2629" lon="2.20446">
        <ele>1667</ele>
        <time>2010-01-01T01:13:11Z</time>
      </trkpt>
      <trkpt lat="42.26292" lon="2.20447">
        <ele>1669</ele>
        <time>2010-01-01T01:13:12Z</time>
      </trkpt>
      <trkpt lat="42.26294" lon="2.20448">
        <ele>1670</ele>
        <time>2010-01-01T01:13:13Z</time>
      </trkpt>
      <trkpt lat="42.26295" lon="2.20451">
        <ele>1671</ele>
        <time>2010-01-01T01:13:14Z</time>
      </trkpt>
      <trkpt lat="42.26297" lon="2.20453">
        <ele>1672</ele>
        <time>2010-01-01T01:13:15Z</time>
      </trkpt>
      <trkpt lat="42.26298" lon="2.20454">
        <ele>1674</ele>
        <time>2010-01-01T01:13:15Z</time>
      </trkpt>
      <trkpt lat="42.263" lon="2.20455">
        <ele>1675</ele>
        <time>2010-01-01T01:13:16Z</time>
      </trkpt>
      <trkpt lat="42.26302" lon="2.20457">
        <ele>1677</ele>
        <time>2010-01-01T01:13:17Z</time>
      </trkpt>
      <trkpt lat="42.26304" lon="2.20459">
        <ele>1678</ele>
        <time>2010-01-01T01:13:18Z</time>
      </trkpt>
      <trkpt lat="42.26305" lon="2.20461">
        <ele>1680</ele>
        <time>2010-01-01T01:13:19Z</time>
      </trkpt>
      <trkpt lat="42.26307" lon="2.20461">
        <ele>1681</ele>
        <time>2010-01-01T01:13:20Z</time>
      </trkpt>
      <trkpt lat="42.26309" lon="2.2046">
        <ele>1682</ele>
        <time>2010-01-01T01:13:20Z</time>
      </trkpt>
      <trkpt lat="42.26311" lon="2.2046">
        <ele>1683</ele>
        <time>2010-01-01T01:13:21Z</time>
      </trkpt>
      <trkpt lat="42.26312" lon="2.20463">
        <ele>1684</ele>
        <time>2010-01-01T01:13:22Z</time>
      </trkpt>
      <trkpt lat="42.26313" lon="2.20466">
        <ele>1685</ele>
        <time>2010-01-01T01:13:23Z</time>
      </trkpt>
      <trkpt lat="42.26314" lon="2.20469">
        <ele>1685</ele>
        <time>2010-01-01T01:13:24Z</time>
      </trkpt>
      <trkpt lat="42.26315" lon="2.20471">
        <ele>1686</ele>
        <time>2010-01-01T01:13:25Z</time>
      </trkpt>
      <trkpt lat="42.26315" lon="2.20473">
        <ele>1687</ele>
        <time>2010-01-01T01:13:25Z</time>
      </trkpt>
      <trkpt lat="42.26316" lon="2.20476">
        <ele>1687</ele>
        <time>2010-01-01T01:13:26Z</time>
      </trkpt>
      <trkpt lat="42.26316" lon="2.20479">
        <ele>1687</ele>
        <time>2010-01-01T01:13:27Z</time>
      </trkpt>
      <trkpt lat="42.26318" lon="2.2048">
        <ele>1689</ele>
        <time>2010-01-01T01:13:28Z</time>
      </trkpt>
      <trkpt lat="42.2632" lon="2.20482">
        <ele>1690</ele>
        <time>2010-01-01T01:13:29Z</time>
      </trkpt>
      <trkpt lat="42.2632" lon="2.20485">
        <ele>1690</ele>
        <time>2010-01-01T01:13:30Z</time>
      </trkpt>
      <trkpt lat="42.2632" lon="2.20487">
        <ele>1690</ele>
        <time>2010-01-01T01:13:30Z</time>
      </trkpt>
      <trkpt lat="42.26322" lon="2.20489">
        <ele>1692</ele>
        <time>2010-01-01T01:13:31Z</time>
      </trkpt>
      <trkpt lat="42.26324" lon="2.20491">
        <ele>1692</ele>
        <time>2010-01-01T01:13:32Z</time>
      </trkpt>
      <trkpt lat="42.26325" lon="2.20493">
        <ele>1693</ele>
        <time>2010-01-01T01:13:33Z</time>
      </trkpt>
      <trkpt lat="42.26325" lon="2.20495">
        <ele>1694</ele>
        <time>2010-01-01T01:13:34Z</time>
      </trkpt>
      <trkpt lat="42.26326" lon="2.20498">
        <ele>1694</ele>
        <time>2010-01-01T01:13:35Z</time>
      </trkpt>
      <trkpt lat="42.26328" lon="2.20499">
        <ele>1695</ele>
        <time>2010-01-01T01:13:35Z</time>
      </trkpt>
      <trkpt lat="42.2633" lon="2.20502">
        <ele>1697</ele>
        <time>2010-01-01T01:13:36Z</time>
      </trkpt>
      <trkpt lat="42.26331" lon="2.20504">
        <ele>1698</ele>
        <time>2010-01-01T01:13:37Z</time>
      </trkpt>
      <trkpt lat="42.26333" lon="2.20504">
        <ele>1699</ele>
        <time>2010-01-01T01:13:38Z</time>
      </trkpt>
      <trkpt lat="42.26334" lon="2.20505">
        <ele>1700</ele>
        <time>2010-01-01T01:13:39Z</time>
      </trkpt>
      <trkpt lat="42.26334" lon="2.20508">
        <ele>1700</ele>
        <time>2010-01-01T01:13:40Z</time>
      </trkpt>
      <trkpt lat="42.26334" lon="2.20511">
        <ele>1701</ele>
        <time>2010-01-01T01:13:40Z</time>
      </trkpt>
      <trkpt lat="42.26334" lon="2.20513">
        <ele>1701</ele>
        <time>2010-01-01T01:13:41Z</time>
      </trkpt>
      <trkpt lat="42.26333" lon="2.20516">
        <ele>1701</ele>
        <time>2010-01-01T01:13:42Z</time>
      </trkpt>
      <trkpt lat="42.26333" lon="2.20519">
        <ele>1702</ele>
        <time>2010-01-01T01:13:43Z</time>
      </trkpt>
      <trkpt lat="42.26335" lon="2.20519">
        <ele>1703</ele>
        <time>2010-01-01T01:13:44Z</time>
      </trkpt>
      <trkpt lat="42.26337" lon="2.20517">
        <ele>1703</ele>
        <time>2010-01-01T01:13:44Z</time>
      </trkpt>
      <trkpt lat="42.26339" lon="2.20517">
        <ele>1705</ele>
        <time>2010-01-01T01:13:45Z</time>
      </trkpt>
      <trkpt lat="42.26341" lon="2.20516">
        <ele>1705</ele>
        <time>2010-01-01T01:13:46Z</time>
      </trkpt>
      <trkpt lat="42.26342" lon="2.20517">
        <ele>1707</ele>
        <time>2010-01-01T01:13:47Z</time>
      </trkpt>
      <trkpt lat="42.26344" lon="2.20518">
        <ele>1708</ele>
        <time>2010-01-01T01:13:48Z</time>
      </trkpt>
      <trkpt lat="42.26343" lon="2.20521">
        <ele>1708</ele>
        <time>2010-01-01T01:13:48Z</time>
      </trkpt>
      <trkpt lat="42.26342" lon="2.20523">
        <ele>1708</ele>
        <time>2010-01-01T01:13:49Z</time>
      </trkpt>
      <trkpt lat="42.26342" lon="2.20526">
        <ele>1708</ele>
        <time>2010-01-01T01:13:50Z</time>
      </trkpt>
      <trkpt lat="42.2634" lon="2.20528">
        <ele>1707</ele>
        <time>2010-01-01T01:13:51Z</time>
      </trkpt>
      <trkpt lat="42.2634" lon="2.2053">
        <ele>1708</ele>
        <time>2010-01-01T01:13:52Z</time>
      </trkpt>
      <trkpt lat="42.2634" lon="2.20533">
        <ele>1708</ele>
        <time>2010-01-01T01:13:52Z</time>
      </trkpt>
      <trkpt lat="42.26342" lon="2.20533">
        <ele>1710</ele>
        <time>2010-01-01T01:13:53Z</time>
      </trkpt>
      <trkpt lat="42.26344" lon="2.20532">
        <ele>1710</ele>
        <time>2010-01-01T01:13:54Z</time>
      </trkpt>
      <trkpt lat="42.26346" lon="2.20531">
        <ele>1711</ele>
        <time>2010-01-01T01:13:55Z</time>
      </trkpt>
      <trkpt lat="42.26348" lon="2.2053">
        <ele>1712</ele>
        <time>2010-01-01T01:13:56Z</time>
      </trkpt>
      <trkpt lat="42.2635" lon="2.2053">
        <ele>1713</ele>
        <time>2010-01-01T01:13:57Z</time>
      </trkpt>
      <trkpt lat="42.2635" lon="2.20533">
        <ele>1714</ele>
        <time>2010-01-01T01:13:57Z</time>
      </trkpt>
      <trkpt lat="42.26352" lon="2.20533">
        <ele>1715</ele>
        <time>2010-01-01T01:13:58Z</time>
      </trkpt>
      <trkpt lat="42.26354" lon="2.20532">
        <ele>1716</ele>
        <time>2010-01-01T01:13:59Z</time>
      </trkpt>
      <trkpt lat="42.26356" lon="2.2053">
        <ele>1716</ele>
        <time>2010-01-01T01:14:00Z</time>
      </trkpt>
      <trkpt lat="42.26358" lon="2.20528">
        <ele>1717</ele>
        <time>2010-01-01T01:14:01Z</time>
      </trkpt>
      <trkpt lat="42.26359" lon="2.2053">
        <ele>1718</ele>
        <time>2010-01-01T01:14:02Z</time>
      </trkpt>
      <trkpt lat="42.26361" lon="2.20532">
        <ele>1719</ele>
        <time>2010-01-01T01:14:02Z</time>
      </trkpt>
      <trkpt lat="42.26362" lon="2.20533">
        <ele>1721</ele>
        <time>2010-01-01T01:14:03Z</time>
      </trkpt>
      <trkpt lat="42.26365" lon="2.20533">
        <ele>1722</ele>
        <time>2010-01-01T01:14:04Z</time>
      </trkpt>
      <trkpt lat="42.26367" lon="2.20531">
        <ele>1723</ele>
        <time>2010-01-01T01:14:05Z</time>
      </trkpt>
      <trkpt lat="42.26369" lon="2.2053">
        <ele>1724</ele>
        <time>2010-01-01T01:14:06Z</time>
      </trkpt>
      <trkpt lat="42.26371" lon="2.20529">
        <ele>1725</ele>
        <time>2010-01-01T01:14:07Z</time>
      </trkpt>
      <trkpt lat="42.26374" lon="2.20528">
        <ele>1726</ele>
        <time>2010-01-01T01:14:08Z</time>
      </trkpt>
      <trkpt lat="42.26375" lon="2.20527">
        <ele>1727</ele>
        <time>2010-01-01T01:14:09Z</time>
      </trkpt>
      <trkpt lat="42.26377" lon="2.20527">
        <ele>1728</ele>
        <time>2010-01-01T01:14:09Z</time>
      </trkpt>
      <trkpt lat="42.26379" lon="2.20528">
        <ele>1729</ele>
        <time>2010-01-01T01:14:10Z</time>
      </trkpt>
      <trkpt lat="42.26381" lon="2.20529">
        <ele>1731</ele>
        <time>2010-01-01T01:14:11Z</time>
      </trkpt>
      <trkpt lat="42.26383" lon="2.20531">
        <ele>1733</ele>
        <time>2010-01-01T01:14:12Z</time>
      </trkpt>
      <trkpt lat="42.26385" lon="2.20534">
        <ele>1735</ele>
        <time>2010-01-01T01:14:13Z</time>
      </trkpt>
      <trkpt lat="42.26386" lon="2.20537">
        <ele>1736</ele>
        <time>2010-01-01T01:14:14Z</time>
      </trkpt>
      <trkpt lat="42.26387" lon="2.20539">
        <ele>1737</ele>
        <time>2010-01-01T01:14:15Z</time>
      </trkpt>
      <trkpt lat="42.26386" lon="2.20542">
        <ele>1738</ele>
        <time>2010-01-01T01:14:16Z</time>
      </trkpt>
      <trkpt lat="42.26385" lon="2.20545">
        <ele>1738</ele>
        <time>2010-01-01T01:14:17Z</time>
      </trkpt>
      <trkpt lat="42.26384" lon="2.20547">
        <ele>1737</ele>
        <time>2010-01-01T01:14:18Z</time>
      </trkpt>
      <trkpt lat="42.26382" lon="2.20549">
        <ele>1737</ele>
        <time>2010-01-01T01:14:18Z</time>
      </trkpt>
      <trkpt lat="42.26381" lon="2.20551">
        <ele>1737</ele>
        <time>2010-01-01T01:14:19Z</time>
      </trkpt>
      <trkpt lat="42.2638" lon="2.20555">
        <ele>1737</ele>
        <time>2010-01-01T01:14:20Z</time>
      </trkpt>
      <trkpt lat="42.26379" lon="2.20558">
        <ele>1737</ele>
        <time>2010-01-01T01:14:21Z</time>
      </trkpt>
      <trkpt lat="42.26377" lon="2.20561">
        <ele>1737</ele>
        <time>2010-01-01T01:14:22Z</time>
      </trkpt>
      <trkpt lat="42.26377" lon="2.20563">
        <ele>1737</ele>
        <time>2010-01-01T01:14:23Z</time>
      </trkpt>
      <trkpt lat="42.26376" lon="2.20566">
        <ele>1737</ele>
        <time>2010-01-01T01:14:24Z</time>
      </trkpt>
      <trkpt lat="42.26375" lon="2.20569">
        <ele>1737</ele>
        <time>2010-01-01T01:14:25Z</time>
      </trkpt>
      <trkpt lat="42.26374" lon="2.20572">
        <ele>1738</ele>
        <time>2010-01-01T01:14:26Z</time>
      </trkpt>
      <trkpt lat="42.26374" lon="2.20575">
        <ele>1738</ele>
        <time>2010-01-01T01:14:27Z</time>
      </trkpt>
      <trkpt lat="42.26372" lon="2.20578">
        <ele>1738</ele>
        <time>2010-01-01T01:14:28Z</time>
      </trkpt>
      <trkpt lat="42.2637" lon="2.20581">
        <ele>1737</ele>
        <time>2010-01-01T01:14:29Z</time>
      </trkpt>
      <trkpt lat="42.26369" lon="2.20583">
        <ele>1737</ele>
        <time>2010-01-01T01:14:30Z</time>
      </trkpt>
      <trkpt lat="42.26367" lon="2.20586">
        <ele>1737</ele>
        <time>2010-01-01T01:14:31Z</time>
      </trkpt>
      <trkpt lat="42.26366" lon="2.20589">
        <ele>1737</ele>
        <time>2010-01-01T01:14:32Z</time>
      </trkpt>
      <trkpt lat="42.26366" lon="2.20592">
        <ele>1738</ele>
        <time>2010-01-01T01:14:33Z</time>
      </trkpt>
      <trkpt lat="42.26365" lon="2.20594">
        <ele>1739</ele>
        <time>2010-01-01T01:14:34Z</time>
      </trkpt>
      <trkpt lat="42.26364" lon="2.20597">
        <ele>1739</ele>
        <time>2010-01-01T01:14:35Z</time>
      </trkpt>
      <trkpt lat="42.26363" lon="2.20599">
        <ele>1740</ele>
        <time>2010-01-01T01:14:35Z</time>
      </trkpt>
      <trkpt lat="42.26362" lon="2.20602">
        <ele>1740</ele>
        <time>2010-01-01T01:14:36Z</time>
      </trkpt>
      <trkpt lat="42.26362" lon="2.20604">
        <ele>1741</ele>
        <time>2010-01-01T01:14:37Z</time>
      </trkpt>
      <trkpt lat="42.26363" lon="2.20608">
        <ele>1743</ele>
        <time>2010-01-01T01:14:38Z</time>
      </trkpt>
      <trkpt lat="42.26364" lon="2.20611">
        <ele>1745</ele>
        <time>2010-01-01T01:14:39Z</time>
      </trkpt>
      <trkpt lat="42.26364" lon="2.20615">
        <ele>1746</ele>
        <time>2010-01-01T01:14:40Z</time>
      </trkpt>
      <trkpt lat="42.26365" lon="2.20618">
        <ele>1748</ele>
        <time>2010-01-01T01:14:41Z</time>
      </trkpt>
      <trkpt lat="42.26366" lon="2.2062">
        <ele>1749</ele>
        <time>2010-01-01T01:14:42Z</time>
      </trkpt>
      <trkpt lat="42.26367" lon="2.20624">
        <ele>1750</ele>
        <time>2010-01-01T01:14:43Z</time>
      </trkpt>
      <trkpt lat="42.26367" lon="2.20627">
        <ele>1752</ele>
        <time>2010-01-01T01:14:44Z</time>
      </trkpt>
      <trkpt lat="42.26368" lon="2.2063">
        <ele>1753</ele>
        <time>2010-01-01T01:14:45Z</time>
      </trkpt>
      <trkpt lat="42.26368" lon="2.20633">
        <ele>1754</ele>
        <time>2010-01-01T01:14:46Z</time>
      </trkpt>
      <trkpt lat="42.26368" lon="2.20636">
        <ele>1755</ele>
        <time>2010-01-01T01:14:47Z</time>
      </trkpt>
      <trkpt lat="42.26369" lon="2.20639">
        <ele>1756</ele>
        <time>2010-01-01T01:14:48Z</time>
      </trkpt>
      <trkpt lat="42.26369" lon="2.20642">
        <ele>1757</ele>
        <time>2010-01-01T01:14:48Z</time>
      </trkpt>
      <trkpt lat="42.26369" lon="2.20645">
        <ele>1758</ele>
        <time>2010-01-01T01:14:49Z</time>
      </trkpt>
      <trkpt lat="42.26369" lon="2.20647">
        <ele>1758</ele>
        <time>2010-01-01T01:14:50Z</time>
      </trkpt>
      <trkpt lat="42.26369" lon="2.20651">
        <ele>1759</ele>
        <time>2010-01-01T01:14:51Z</time>
      </trkpt>
      <trkpt lat="42.26369" lon="2.20654">
        <ele>1760</ele>
        <time>2010-01-01T01:14:52Z</time>
      </trkpt>
      <trkpt lat="42.26369" lon="2.20657">
        <ele>1761</ele>
        <time>2010-01-01T01:14:53Z</time>
      </trkpt>
      <trkpt lat="42.26369" lon="2.2066">
        <ele>1761</ele>
        <time>2010-01-01T01:14:54Z</time>
      </trkpt>
      <trkpt lat="42.26369" lon="2.20663">
        <ele>1762</ele>
        <time>2010-01-01T01:14:55Z</time>
      </trkpt>
      <trkpt lat="42.26368" lon="2.20666">
        <ele>1762</ele>
        <time>2010-01-01T01:14:56Z</time>
      </trkpt>
      <trkpt lat="42.26368" lon="2.20669">
        <ele>1763</ele>
        <time>2010-01-01T01:14:57Z</time>
      </trkpt>
      <trkpt lat="42.26368" lon="2.20673">
        <ele>1763</ele>
        <time>2010-01-01T01:14:58Z</time>
      </trkpt>
      <trkpt lat="42.26369" lon="2.20676">
        <ele>1764</ele>
        <time>2010-01-01T01:14:59Z</time>
      </trkpt>
      <trkpt lat="42.2637" lon="2.20678">
        <ele>1765</ele>
        <time>2010-01-01T01:15:00Z</time>
      </trkpt>
      <trkpt lat="42.26371" lon="2.2068">
        <ele>1766</ele>
        <time>2010-01-01T01:15:01Z</time>
      </trkpt>
      <trkpt lat="42.26373" lon="2.20683">
        <ele>1766</ele>
        <time>2010-01-01T01:15:01Z</time>
      </trkpt>
      <trkpt lat="42.26375" lon="2.20684">
        <ele>1767</ele>
        <time>2010-01-01T01:15:02Z</time>
      </trkpt>
      <trkpt lat="42.26377" lon="2.20687">
        <ele>1768</ele>
        <time>2010-01-01T01:15:03Z</time>
      </trkpt>
      <trkpt lat="42.26378" lon="2.20687">
        <ele>1769</ele>
        <time>2010-01-01T01:15:04Z</time>
      </trkpt>
      <trkpt lat="42.2638" lon="2.20689">
        <ele>1770</ele>
        <time>2010-01-01T01:15:05Z</time>
      </trkpt>
      <trkpt lat="42.26382" lon="2.20691">
        <ele>1771</ele>
        <time>2010-01-01T01:15:06Z</time>
      </trkpt>
      <trkpt lat="42.26383" lon="2.20693">
        <ele>1771</ele>
        <time>2010-01-01T01:15:07Z</time>
      </trkpt>
      <trkpt lat="42.26384" lon="2.20696">
        <ele>1773</ele>
        <time>2010-01-01T01:15:08Z</time>
      </trkpt>
      <trkpt lat="42.26385" lon="2.20698">
        <ele>1774</ele>
        <time>2010-01-01T01:15:08Z</time>
      </trkpt>
      <trkpt lat="42.26386" lon="2.20702">
        <ele>1775</ele>
        <time>2010-01-01T01:15:10Z</time>
      </trkpt>
      <trkpt lat="42.26386" lon="2.20705">
        <ele>1776</ele>
        <time>2010-01-01T01:15:10Z</time>
      </trkpt>
      <trkpt lat="42.26387" lon="2.20707">
        <ele>1777</ele>
        <time>2010-01-01T01:15:11Z</time>
      </trkpt>
      <trkpt lat="42.26388" lon="2.2071">
        <ele>1779</ele>
        <time>2010-01-01T01:15:12Z</time>
      </trkpt>
      <trkpt lat="42.2639" lon="2.20712">
        <ele>1780</ele>
        <time>2010-01-01T01:15:13Z</time>
      </trkpt>
      <trkpt lat="42.26393" lon="2.20713">
        <ele>1783</ele>
        <time>2010-01-01T01:15:14Z</time>
      </trkpt>
      <trkpt lat="42.26396" lon="2.20713">
        <ele>1784</ele>
        <time>2010-01-01T01:15:15Z</time>
      </trkpt>
      <trkpt lat="42.26398" lon="2.20714">
        <ele>1786</ele>
        <time>2010-01-01T01:15:16Z</time>
      </trkpt>
      <trkpt lat="42.264" lon="2.20715">
        <ele>1787</ele>
        <time>2010-01-01T01:15:17Z</time>
      </trkpt>
      <trkpt lat="42.26402" lon="2.20714">
        <ele>1788</ele>
        <time>2010-01-01T01:15:18Z</time>
      </trkpt>
      <trkpt lat="42.26404" lon="2.20714">
        <ele>1790</ele>
        <time>2010-01-01T01:15:19Z</time>
      </trkpt>
      <trkpt lat="42.26406" lon="2.20715">
        <ele>1791</ele>
        <time>2010-01-01T01:15:20Z</time>
      </trkpt>
      <trkpt lat="42.26409" lon="2.20715">
        <ele>1793</ele>
        <time>2010-01-01T01:15:21Z</time>
      </trkpt>
      <trkpt lat="42.26411" lon="2.20715">
        <ele>1794</ele>
        <time>2010-01-01T01:15:22Z</time>
      </trkpt>
      <trkpt lat="42.26413" lon="2.20713">
        <ele>1795</ele>
        <time>2010-01-01T01:15:22Z</time>
      </trkpt>
      <trkpt lat="42.26414" lon="2.20712">
        <ele>1795</ele>
        <time>2010-01-01T01:15:23Z</time>
      </trkpt>
      <trkpt lat="42.26415" lon="2.20709">
        <ele>1795</ele>
        <time>2010-01-01T01:15:24Z</time>
      </trkpt>
      <trkpt lat="42.26417" lon="2.20708">
        <ele>1795</ele>
        <time>2010-01-01T01:15:25Z</time>
      </trkpt>
      <trkpt lat="42.2642" lon="2.20708">
        <ele>1796</ele>
        <time>2010-01-01T01:15:26Z</time>
      </trkpt>
      <trkpt lat="42.26422" lon="2.20708">
        <ele>1797</ele>
        <time>2010-01-01T01:15:27Z</time>
      </trkpt>
      <trkpt lat="42.26423" lon="2.20706">
        <ele>1797</ele>
        <time>2010-01-01T01:15:28Z</time>
      </trkpt>
      <trkpt lat="42.26426" lon="2.20705">
        <ele>1798</ele>
        <time>2010-01-01T01:15:28Z</time>
      </trkpt>
      <trkpt lat="42.26427" lon="2.20705">
        <ele>1799</ele>
        <time>2010-01-01T01:15:29Z</time>
      </trkpt>
      <trkpt lat="42.26429" lon="2.20703">
        <ele>1799</ele>
        <time>2010-01-01T01:15:30Z</time>
      </trkpt>
      <trkpt lat="42.26431" lon="2.20702">
        <ele>1799</ele>
        <time>2010-01-01T01:15:31Z</time>
      </trkpt>
      <trkpt lat="42.26433" lon="2.20702">
        <ele>1800</ele>
        <time>2010-01-01T01:15:32Z</time>
      </trkpt>
      <trkpt lat="42.26435" lon="2.20701">
        <ele>1801</ele>
        <time>2010-01-01T01:15:33Z</time>
      </trkpt>
      <trkpt lat="42.26437" lon="2.20703">
        <ele>1803</ele>
        <time>2010-01-01T01:15:34Z</time>
      </trkpt>
      <trkpt lat="42.26439" lon="2.20705">
        <ele>1805</ele>
        <time>2010-01-01T01:15:35Z</time>
      </trkpt>
      <trkpt lat="42.26442" lon="2.20703">
        <ele>1805</ele>
        <time>2010-01-01T01:15:36Z</time>
      </trkpt>
      <trkpt lat="42.26444" lon="2.20704">
        <ele>1807</ele>
        <time>2010-01-01T01:15:37Z</time>
      </trkpt>
      <trkpt lat="42.26446" lon="2.20705">
        <ele>1808</ele>
        <time>2010-01-01T01:15:37Z</time>
      </trkpt>
      <trkpt lat="42.26448" lon="2.20706">
        <ele>1809</ele>
        <time>2010-01-01T01:15:38Z</time>
      </trkpt>
      <trkpt lat="42.2645" lon="2.20707">
        <ele>1811</ele>
        <time>2010-01-01T01:15:39Z</time>
      </trkpt>
      <trkpt lat="42.2645" lon="2.2071">
        <ele>1812</ele>
        <time>2010-01-01T01:15:40Z</time>
      </trkpt>
      <trkpt lat="42.26451" lon="2.20712">
        <ele>1814</ele>
        <time>2010-01-01T01:15:41Z</time>
      </trkpt>
      <trkpt lat="42.26452" lon="2.20715">
        <ele>1815</ele>
        <time>2010-01-01T01:15:42Z</time>
      </trkpt>
      <trkpt lat="42.26454" lon="2.20715">
        <ele>1817</ele>
        <time>2010-01-01T01:15:42Z</time>
      </trkpt>
      <trkpt lat="42.26456" lon="2.20717">
        <ele>1818</ele>
        <time>2010-01-01T01:15:43Z</time>
      </trkpt>
      <trkpt lat="42.26458" lon="2.20718">
        <ele>1820</ele>
        <time>2010-01-01T01:15:44Z</time>
      </trkpt>
      <trkpt lat="42.2646" lon="2.20719">
        <ele>1821</ele>
        <time>2010-01-01T01:15:45Z</time>
      </trkpt>
      <trkpt lat="42.2646" lon="2.20722">
        <ele>1822</ele>
        <time>2010-01-01T01:15:46Z</time>
      </trkpt>
      <trkpt lat="42.2646" lon="2.20724">
        <ele>1823</ele>
        <time>2010-01-01T01:15:46Z</time>
      </trkpt>
      <trkpt lat="42.26459" lon="2.20727">
        <ele>1823</ele>
        <time>2010-01-01T01:15:47Z</time>
      </trkpt>
      <trkpt lat="42.26459" lon="2.2073">
        <ele>1824</ele>
        <time>2010-01-01T01:15:48Z</time>
      </trkpt>
      <trkpt lat="42.26458" lon="2.20732">
        <ele>1824</ele>
        <time>2010-01-01T01:15:49Z</time>
      </trkpt>
      <trkpt lat="42.26458" lon="2.20735">
        <ele>1824</ele>
        <time>2010-01-01T01:15:50Z</time>
      </trkpt>
      <trkpt lat="42.26456" lon="2.20737">
        <ele>1824</ele>
        <time>2010-01-01T01:15:51Z</time>
      </trkpt>
      <trkpt lat="42.26456" lon="2.2074">
        <ele>1825</ele>
        <time>2010-01-01T01:15:52Z</time>
      </trkpt>
      <trkpt lat="42.26455" lon="2.20742">
        <ele>1825</ele>
        <time>2010-01-01T01:15:52Z</time>
      </trkpt>
      <trkpt lat="42.26455" lon="2.20745">
        <ele>1825</ele>
        <time>2010-01-01T01:15:53Z</time>
      </trkpt>
      <trkpt lat="42.26454" lon="2.20748">
        <ele>1826</ele>
        <time>2010-01-01T01:15:54Z</time>
      </trkpt>
      <trkpt lat="42.26455" lon="2.20751">
        <ele>1827</ele>
        <time>2010-01-01T01:15:55Z</time>
      </trkpt>
      <trkpt lat="42.26454" lon="2.20754">
        <ele>1827</ele>
        <time>2010-01-01T01:15:56Z</time>
      </trkpt>
      <trkpt lat="42.26455" lon="2.20757">
        <ele>1828</ele>
        <time>2010-01-01T01:15:57Z</time>
      </trkpt>
      <trkpt lat="42.26456" lon="2.20759">
        <ele>1829</ele>
        <time>2010-01-01T01:15:58Z</time>
      </trkpt>
      <trkpt lat="42.26456" lon="2.20761">
        <ele>1829</ele>
        <time>2010-01-01T01:15:58Z</time>
      </trkpt>
      <trkpt lat="42.26458" lon="2.20764">
        <ele>1830</ele>
        <time>2010-01-01T01:15:59Z</time>
      </trkpt>
      <trkpt lat="42.26459" lon="2.20767">
        <ele>1831</ele>
        <time>2010-01-01T01:16:00Z</time>
      </trkpt>
      <trkpt lat="42.2646" lon="2.20769">
        <ele>1832</ele>
        <time>2010-01-01T01:16:01Z</time>
      </trkpt>
      <trkpt lat="42.2646" lon="2.20772">
        <ele>1832</ele>
        <time>2010-01-01T01:16:02Z</time>
      </trkpt>
      <trkpt lat="42.26461" lon="2.20775">
        <ele>1833</ele>
        <time>2010-01-01T01:16:03Z</time>
      </trkpt>
      <trkpt lat="42.26462" lon="2.20777">
        <ele>1834</ele>
        <time>2010-01-01T01:16:04Z</time>
      </trkpt>
      <trkpt lat="42.26463" lon="2.20781">
        <ele>1835</ele>
        <time>2010-01-01T01:16:05Z</time>
      </trkpt>
      <trkpt lat="42.26463" lon="2.20783">
        <ele>1835</ele>
        <time>2010-01-01T01:16:06Z</time>
      </trkpt>
      <trkpt lat="42.26465" lon="2.20787">
        <ele>1835</ele>
        <time>2010-01-01T01:16:07Z</time>
      </trkpt>
      <trkpt lat="42.26464" lon="2.20789">
        <ele>1835</ele>
        <time>2010-01-01T01:16:07Z</time>
      </trkpt>
      <trkpt lat="42.26463" lon="2.20792">
        <ele>1835</ele>
        <time>2010-01-01T01:16:08Z</time>
      </trkpt>
      <trkpt lat="42.26462" lon="2.20794">
        <ele>1835</ele>
        <time>2010-01-01T01:16:09Z</time>
      </trkpt>
      <trkpt lat="42.26462" lon="2.20796">
        <ele>1834</ele>
        <time>2010-01-01T01:16:10Z</time>
      </trkpt>
      <trkpt lat="42.2646" lon="2.20799">
        <ele>1834</ele>
        <time>2010-01-01T01:16:11Z</time>
      </trkpt>
      <trkpt lat="42.26459" lon="2.208">
        <ele>1833</ele>
        <time>2010-01-01T01:16:11Z</time>
      </trkpt>
      <trkpt lat="42.26457" lon="2.208">
        <ele>1833</ele>
        <time>2010-01-01T01:16:12Z</time>
      </trkpt>
      <trkpt lat="42.26455" lon="2.20799">
        <ele>1832</ele>
        <time>2010-01-01T01:16:13Z</time>
      </trkpt>
      <trkpt lat="42.26453" lon="2.20799">
        <ele>1831</ele>
        <time>2010-01-01T01:16:14Z</time>
      </trkpt>
      <trkpt lat="42.26451" lon="2.20797">
        <ele>1830</ele>
        <time>2010-01-01T01:16:15Z</time>
      </trkpt>
      <trkpt lat="42.26449" lon="2.20799">
        <ele>1830</ele>
        <time>2010-01-01T01:16:15Z</time>
      </trkpt>
      <trkpt lat="42.26448" lon="2.20801">
        <ele>1830</ele>
        <time>2010-01-01T01:16:16Z</time>
      </trkpt>
      <trkpt lat="42.26448" lon="2.20804">
        <ele>1830</ele>
        <time>2010-01-01T01:16:17Z</time>
      </trkpt>
      <trkpt lat="42.26449" lon="2.20806">
        <ele>1830</ele>
        <time>2010-01-01T01:16:18Z</time>
      </trkpt>
      <trkpt lat="42.2645" lon="2.20808">
        <ele>1831</ele>
        <time>2010-01-01T01:16:19Z</time>
      </trkpt>
      <trkpt lat="42.26452" lon="2.20809">
        <ele>1831</ele>
        <time>2010-01-01T01:16:19Z</time>
      </trkpt>
      <trkpt lat="42.26455" lon="2.20809">
        <ele>1832</ele>
        <time>2010-01-01T01:16:20Z</time>
      </trkpt>
      <trkpt lat="42.26457" lon="2.20808">
        <ele>1833</ele>
        <time>2010-01-01T01:16:21Z</time>
      </trkpt>
      <trkpt lat="42.26459" lon="2.20807">
        <ele>1834</ele>
        <time>2010-01-01T01:16:22Z</time>
      </trkpt>
      <trkpt lat="42.26462" lon="2.20808">
        <ele>1835</ele>
        <time>2010-01-01T01:16:24Z</time>
      </trkpt>
      <trkpt lat="42.26465" lon="2.20809">
        <ele>1836</ele>
        <time>2010-01-01T01:16:25Z</time>
      </trkpt>
      <trkpt lat="42.26464" lon="2.20812">
        <ele>1836</ele>
        <time>2010-01-01T01:16:25Z</time>
      </trkpt>
      <trkpt lat="42.26464" lon="2.20815">
        <ele>1836</ele>
        <time>2010-01-01T01:16:26Z</time>
      </trkpt>
      <trkpt lat="42.26463" lon="2.20817">
        <ele>1835</ele>
        <time>2010-01-01T01:16:27Z</time>
      </trkpt>
      <trkpt lat="42.26463" lon="2.2082">
        <ele>1835</ele>
        <time>2010-01-01T01:16:28Z</time>
      </trkpt>
      <trkpt lat="42.26463" lon="2.20822">
        <ele>1835</ele>
        <time>2010-01-01T01:16:29Z</time>
      </trkpt>
      <trkpt lat="42.26463" lon="2.20825">
        <ele>1835</ele>
        <time>2010-01-01T01:16:29Z</time>
      </trkpt>
      <trkpt lat="42.26464" lon="2.20829">
        <ele>1835</ele>
        <time>2010-01-01T01:16:31Z</time>
      </trkpt>
      <trkpt lat="42.26465" lon="2.20833">
        <ele>1836</ele>
        <time>2010-01-01T01:16:32Z</time>
      </trkpt>
      <trkpt lat="42.26467" lon="2.20839">
        <ele>1837</ele>
        <time>2010-01-01T01:16:34Z</time>
      </trkpt>
      <trkpt lat="42.26469" lon="2.20844">
        <ele>1838</ele>
        <time>2010-01-01T01:16:36Z</time>
      </trkpt>
      <trkpt lat="42.26471" lon="2.20849">
        <ele>1838</ele>
        <time>2010-01-01T01:16:37Z</time>
      </trkpt>
      <trkpt lat="42.26472" lon="2.20854">
        <ele>1839</ele>
        <time>2010-01-01T01:16:39Z</time>
      </trkpt>
      <trkpt lat="42.26475" lon="2.2086">
        <ele>1839</ele>
        <time>2010-01-01T01:16:41Z</time>
      </trkpt>
      <trkpt lat="42.26478" lon="2.20866">
        <ele>1840</ele>
        <time>2010-01-01T01:16:43Z</time>
      </trkpt>
      <trkpt lat="42.26479" lon="2.20872">
        <ele>1840</ele>
        <time>2010-01-01T01:16:45Z</time>
      </trkpt>
      <trkpt lat="42.26481" lon="2.20878">
        <ele>1841</ele>
        <time>2010-01-01T01:16:47Z</time>
      </trkpt>
      <trkpt lat="42.26481" lon="2.20884">
        <ele>1840</ele>
        <time>2010-01-01T01:16:49Z</time>
      </trkpt>
      <trkpt lat="42.26481" lon="2.2089">
        <ele>1840</ele>
        <time>2010-01-01T01:16:50Z</time>
      </trkpt>
      <trkpt lat="42.26482" lon="2.20897">
        <ele>1840</ele>
        <time>2010-01-01T01:16:52Z</time>
      </trkpt>
      <trkpt lat="42.26483" lon="2.20902">
        <ele>1841</ele>
        <time>2010-01-01T01:16:54Z</time>
      </trkpt>
      <trkpt lat="42.26484" lon="2.20909">
        <ele>1840</ele>
        <time>2010-01-01T01:16:56Z</time>
      </trkpt>
      <trkpt lat="42.26485" lon="2.20916">
        <ele>1840</ele>
        <time>2010-01-01T01:16:58Z</time>
      </trkpt>
      <trkpt lat="42.26486" lon="2.20922">
        <ele>1840</ele>
        <time>2010-01-01T01:17:00Z</time>
      </trkpt>
      <trkpt lat="42.26488" lon="2.20928">
        <ele>1840</ele>
        <time>2010-01-01T01:17:02Z</time>
      </trkpt>
      <trkpt lat="42.26489" lon="2.20935">
        <ele>1839</ele>
        <time>2010-01-01T01:17:04Z</time>
      </trkpt>
      <trkpt lat="42.26489" lon="2.20942">
        <ele>1839</ele>
        <time>2010-01-01T01:17:06Z</time>
      </trkpt>
      <trkpt lat="42.26488" lon="2.20949">
        <ele>1837</ele>
        <time>2010-01-01T01:17:08Z</time>
      </trkpt>
      <trkpt lat="42.26487" lon="2.20954">
        <ele>1836</ele>
        <time>2010-01-01T01:17:10Z</time>
      </trkpt>
      <trkpt lat="42.26486" lon="2.20961">
        <ele>1834</ele>
        <time>2010-01-01T01:17:12Z</time>
      </trkpt>
      <trkpt lat="42.26486" lon="2.20968">
        <ele>1832</ele>
        <time>2010-01-01T01:17:14Z</time>
      </trkpt>
      <trkpt lat="42.26486" lon="2.20973">
        <ele>1831</ele>
        <time>2010-01-01T01:17:15Z</time>
      </trkpt>
      <trkpt lat="42.26485" lon="2.20979">
        <ele>1830</ele>
        <time>2010-01-01T01:17:17Z</time>
      </trkpt>
      <trkpt lat="42.26485" lon="2.20985">
        <ele>1829</ele>
        <time>2010-01-01T01:17:19Z</time>
      </trkpt>
      <trkpt lat="42.26485" lon="2.2099">
        <ele>1828</ele>
        <time>2010-01-01T01:17:21Z</time>
      </trkpt>
      <trkpt lat="42.26486" lon="2.20995">
        <ele>1827</ele>
        <time>2010-01-01T01:17:22Z</time>
      </trkpt>
      <trkpt lat="42.26486" lon="2.21">
        <ele>1827</ele>
        <time>2010-01-01T01:17:23Z</time>
      </trkpt>
      <trkpt lat="42.26487" lon="2.21004">
        <ele>1824</ele>
        <time>2010-01-01T01:17:25Z</time>
      </trkpt>
      <trkpt lat="42.26486" lon="2.2101">
        <ele>1822</ele>
        <time>2010-01-01T01:17:26Z</time>
      </trkpt>
      <trkpt lat="42.26483" lon="2.21015">
        <ele>1820</ele>
        <time>2010-01-01T01:17:29Z</time>
      </trkpt>
      <trkpt lat="42.2648" lon="2.21021">
        <ele>1818</ele>
        <time>2010-01-01T01:17:31Z</time>
      </trkpt>
      <trkpt lat="42.26475" lon="2.21025">
        <ele>1818</ele>
        <time>2010-01-01T01:17:33Z</time>
      </trkpt>
      <trkpt lat="42.26473" lon="2.21026">
        <ele>1818</ele>
        <time>2010-01-01T01:17:34Z</time>
      </trkpt>
      <trkpt lat="42.26471" lon="2.21027">
        <ele>1817</ele>
        <time>2010-01-01T01:17:35Z</time>
      </trkpt>
      <trkpt lat="42.26469" lon="2.21029">
        <ele>1816</ele>
        <time>2010-01-01T01:17:36Z</time>
      </trkpt>
      <trkpt lat="42.26467" lon="2.21031">
        <ele>1815</ele>
        <time>2010-01-01T01:17:37Z</time>
      </trkpt>
      <trkpt lat="42.26465" lon="2.21034">
        <ele>1813</ele>
        <time>2010-01-01T01:17:38Z</time>
      </trkpt>
      <trkpt lat="42.26464" lon="2.2104">
        <ele>1809</ele>
        <time>2010-01-01T01:17:40Z</time>
      </trkpt>
      <trkpt lat="42.26463" lon="2.21043">
        <ele>1807</ele>
        <time>2010-01-01T01:17:41Z</time>
      </trkpt>
      <trkpt lat="42.2646" lon="2.21046">
        <ele>1806</ele>
        <time>2010-01-01T01:17:42Z</time>
      </trkpt>
      <trkpt lat="42.26456" lon="2.21044">
        <ele>1807</ele>
        <time>2010-01-01T01:17:44Z</time>
      </trkpt>
      <trkpt lat="42.26456" lon="2.21041">
        <ele>1808</ele>
        <time>2010-01-01T01:17:44Z</time>
      </trkpt>
      <trkpt lat="42.26456" lon="2.21039">
        <ele>1810</ele>
        <time>2010-01-01T01:17:45Z</time>
      </trkpt>
      <trkpt lat="42.26455" lon="2.21036">
        <ele>1811</ele>
        <time>2010-01-01T01:17:46Z</time>
      </trkpt>
      <trkpt lat="42.26453" lon="2.21035">
        <ele>1811</ele>
        <time>2010-01-01T01:17:47Z</time>
      </trkpt>
      <trkpt lat="42.26451" lon="2.21036">
        <ele>1811</ele>
        <time>2010-01-01T01:17:48Z</time>
      </trkpt>
      <trkpt lat="42.26449" lon="2.21038">
        <ele>1810</ele>
        <time>2010-01-01T01:17:49Z</time>
      </trkpt>
      <trkpt lat="42.26447" lon="2.21037">
        <ele>1810</ele>
        <time>2010-01-01T01:17:50Z</time>
      </trkpt>
      <trkpt lat="42.26445" lon="2.21037">
        <ele>1810</ele>
        <time>2010-01-01T01:17:50Z</time>
      </trkpt>
      <trkpt lat="42.26443" lon="2.21034">
        <ele>1811</ele>
        <time>2010-01-01T01:17:51Z</time>
      </trkpt>
      <trkpt lat="42.26442" lon="2.21033">
        <ele>1811</ele>
        <time>2010-01-01T01:17:52Z</time>
      </trkpt>
      <trkpt lat="42.26439" lon="2.21032">
        <ele>1811</ele>
        <time>2010-01-01T01:17:53Z</time>
      </trkpt>
      <trkpt lat="42.26436" lon="2.21031">
        <ele>1809</ele>
        <time>2010-01-01T01:17:54Z</time>
      </trkpt>
      <trkpt lat="42.26433" lon="2.2103">
        <ele>1809</ele>
        <time>2010-01-01T01:17:56Z</time>
      </trkpt>
      <trkpt lat="42.26431" lon="2.21028">
        <ele>1809</ele>
        <time>2010-01-01T01:17:56Z</time>
      </trkpt>
      <trkpt lat="42.26429" lon="2.21027">
        <ele>1808</ele>
        <time>2010-01-01T01:17:57Z</time>
      </trkpt>
      <trkpt lat="42.26426" lon="2.21027">
        <ele>1807</ele>
        <time>2010-01-01T01:17:59Z</time>
      </trkpt>
      <trkpt lat="42.26424" lon="2.21024">
        <ele>1806</ele>
        <time>2010-01-01T01:18:00Z</time>
      </trkpt>
      <trkpt lat="42.26421" lon="2.21023">
        <ele>1805</ele>
        <time>2010-01-01T01:18:01Z</time>
      </trkpt>
      <trkpt lat="42.26417" lon="2.21023">
        <ele>1804</ele>
        <time>2010-01-01T01:18:02Z</time>
      </trkpt>
      <trkpt lat="42.26413" lon="2.21022">
        <ele>1801</ele>
        <time>2010-01-01T01:18:04Z</time>
      </trkpt>
      <trkpt lat="42.26409" lon="2.21021">
        <ele>1799</ele>
        <time>2010-01-01T01:18:06Z</time>
      </trkpt>
      <trkpt lat="42.26405" lon="2.2102">
        <ele>1796</ele>
        <time>2010-01-01T01:18:08Z</time>
      </trkpt>
      <trkpt lat="42.26399" lon="2.2102">
        <ele>1792</ele>
        <time>2010-01-01T01:18:10Z</time>
      </trkpt>
      <trkpt lat="42.26397" lon="2.21022">
        <ele>1791</ele>
        <time>2010-01-01T01:18:11Z</time>
      </trkpt>
      <trkpt lat="42.26396" lon="2.21025">
        <ele>1790</ele>
        <time>2010-01-01T01:18:12Z</time>
      </trkpt>
      <trkpt lat="42.26394" lon="2.21028">
        <ele>1789</ele>
        <time>2010-01-01T01:18:13Z</time>
      </trkpt>
      <trkpt lat="42.26391" lon="2.21034">
        <ele>1786</ele>
        <time>2010-01-01T01:18:15Z</time>
      </trkpt>
      <trkpt lat="42.26392" lon="2.2104">
        <ele>1787</ele>
        <time>2010-01-01T01:18:17Z</time>
      </trkpt>
      <trkpt lat="42.26396" lon="2.21044">
        <ele>1788</ele>
        <time>2010-01-01T01:18:19Z</time>
      </trkpt>
      <trkpt lat="42.264" lon="2.2105">
        <ele>1789</ele>
        <time>2010-01-01T01:18:21Z</time>
      </trkpt>
      <trkpt lat="42.26401" lon="2.21054">
        <ele>1789</ele>
        <time>2010-01-01T01:18:23Z</time>
      </trkpt>
      <trkpt lat="42.26403" lon="2.21057">
        <ele>1790</ele>
        <time>2010-01-01T01:18:24Z</time>
      </trkpt>
      <trkpt lat="42.26406" lon="2.21061">
        <ele>1791</ele>
        <time>2010-01-01T01:18:26Z</time>
      </trkpt>
      <trkpt lat="42.26409" lon="2.21065">
        <ele>1791</ele>
        <time>2010-01-01T01:18:27Z</time>
      </trkpt>
      <trkpt lat="42.26412" lon="2.2107">
        <ele>1791</ele>
        <time>2010-01-01T01:18:29Z</time>
      </trkpt>
      <trkpt lat="42.26415" lon="2.21075">
        <ele>1791</ele>
        <time>2010-01-01T01:18:31Z</time>
      </trkpt>
      <trkpt lat="42.26416" lon="2.2108">
        <ele>1790</ele>
        <time>2010-01-01T01:18:33Z</time>
      </trkpt>
      <trkpt lat="42.26417" lon="2.21086">
        <ele>1789</ele>
        <time>2010-01-01T01:18:34Z</time>
      </trkpt>
      <trkpt lat="42.26418" lon="2.21089">
        <ele>1788</ele>
        <time>2010-01-01T01:18:35Z</time>
      </trkpt>
      <trkpt lat="42.26418" lon="2.21094">
        <ele>1786</ele>
        <time>2010-01-01T01:18:37Z</time>
      </trkpt>
      <trkpt lat="42.2642" lon="2.21097">
        <ele>1785</ele>
        <time>2010-01-01T01:18:38Z</time>
      </trkpt>
      <trkpt lat="42.2642" lon="2.21101">
        <ele>1784</ele>
        <time>2010-01-01T01:18:39Z</time>
      </trkpt>
      <trkpt lat="42.2642" lon="2.21107">
        <ele>1782</ele>
        <time>2010-01-01T01:18:41Z</time>
      </trkpt>
      <trkpt lat="42.26422" lon="2.21111">
        <ele>1781</ele>
        <time>2010-01-01T01:18:42Z</time>
      </trkpt>
      <trkpt lat="42.26424" lon="2.21115">
        <ele>1779</ele>
        <time>2010-01-01T01:18:44Z</time>
      </trkpt>
      <trkpt lat="42.26427" lon="2.2112">
        <ele>1777</ele>
        <time>2010-01-01T01:18:45Z</time>
      </trkpt>
      <trkpt lat="42.26428" lon="2.21125">
        <ele>1775</ele>
        <time>2010-01-01T01:18:47Z</time>
      </trkpt>
      <trkpt lat="42.2643" lon="2.2113">
        <ele>1773</ele>
        <time>2010-01-01T01:18:49Z</time>
      </trkpt>
      <trkpt lat="42.26434" lon="2.21134">
        <ele>1770</ele>
        <time>2010-01-01T01:18:51Z</time>
      </trkpt>
      <trkpt lat="42.26437" lon="2.21139">
        <ele>1768</ele>
        <time>2010-01-01T01:18:53Z</time>
      </trkpt>
      <trkpt lat="42.2644" lon="2.21145">
        <ele>1765</ele>
        <time>2010-01-01T01:18:55Z</time>
      </trkpt>
      <trkpt lat="42.26443" lon="2.21149">
        <ele>1764</ele>
        <time>2010-01-01T01:18:56Z</time>
      </trkpt>
      <trkpt lat="42.26447" lon="2.21152">
        <ele>1762</ele>
        <time>2010-01-01T01:18:58Z</time>
      </trkpt>
      <trkpt lat="42.2645" lon="2.21158">
        <ele>1759</ele>
        <time>2010-01-01T01:19:00Z</time>
      </trkpt>
      <trkpt lat="42.2645" lon="2.21162">
        <ele>1758</ele>
        <time>2010-01-01T01:19:01Z</time>
      </trkpt>
      <trkpt lat="42.26452" lon="2.21169">
        <ele>1756</ele>
        <time>2010-01-01T01:19:04Z</time>
      </trkpt>
      <trkpt lat="42.26454" lon="2.21173">
        <ele>1755</ele>
        <time>2010-01-01T01:19:05Z</time>
      </trkpt>
      <trkpt lat="42.26456" lon="2.21179">
        <ele>1753</ele>
        <time>2010-01-01T01:19:07Z</time>
      </trkpt>
      <trkpt lat="42.26458" lon="2.21184">
        <ele>1752</ele>
        <time>2010-01-01T01:19:09Z</time>
      </trkpt>
      <trkpt lat="42.26459" lon="2.2119">
        <ele>1751</ele>
        <time>2010-01-01T01:19:11Z</time>
      </trkpt>
      <trkpt lat="42.26462" lon="2.21201">
        <ele>1749</ele>
        <time>2010-01-01T01:19:14Z</time>
      </trkpt>
      <trkpt lat="42.26464" lon="2.21207">
        <ele>1749</ele>
        <time>2010-01-01T01:19:16Z</time>
      </trkpt>
      <trkpt lat="42.26465" lon="2.21211">
        <ele>1748</ele>
        <time>2010-01-01T01:19:17Z</time>
      </trkpt>
      <trkpt lat="42.26466" lon="2.21215">
        <ele>1748</ele>
        <time>2010-01-01T01:19:18Z</time>
      </trkpt>
      <trkpt lat="42.26465" lon="2.21218">
        <ele>1748</ele>
        <time>2010-01-01T01:19:19Z</time>
      </trkpt>
      <trkpt lat="42.26465" lon="2.21221">
        <ele>1747</ele>
        <time>2010-01-01T01:19:20Z</time>
      </trkpt>
      <trkpt lat="42.26464" lon="2.21224">
        <ele>1747</ele>
        <time>2010-01-01T01:19:21Z</time>
      </trkpt>
      <trkpt lat="42.26463" lon="2.21226">
        <ele>1747</ele>
        <time>2010-01-01T01:19:22Z</time>
      </trkpt>
      <trkpt lat="42.26463" lon="2.21229">
        <ele>1746</ele>
        <time>2010-01-01T01:19:23Z</time>
      </trkpt>
      <trkpt lat="42.26463" lon="2.21232">
        <ele>1746</ele>
        <time>2010-01-01T01:19:24Z</time>
      </trkpt>
      <trkpt lat="42.26463" lon="2.21237">
        <ele>1745</ele>
        <time>2010-01-01T01:19:25Z</time>
      </trkpt>
      <trkpt lat="42.26463" lon="2.21242">
        <ele>1744</ele>
        <time>2010-01-01T01:19:27Z</time>
      </trkpt>
      <trkpt lat="42.26465" lon="2.21248">
        <ele>1742</ele>
        <time>2010-01-01T01:19:29Z</time>
      </trkpt>
      <trkpt lat="42.26466" lon="2.21253">
        <ele>1740</ele>
        <time>2010-01-01T01:19:30Z</time>
      </trkpt>
      <trkpt lat="42.26467" lon="2.21259">
        <ele>1739</ele>
        <time>2010-01-01T01:19:32Z</time>
      </trkpt>
      <trkpt lat="42.26468" lon="2.21266">
        <ele>1737</ele>
        <time>2010-01-01T01:19:34Z</time>
      </trkpt>
      <trkpt lat="42.2647" lon="2.21273">
        <ele>1735</ele>
        <time>2010-01-01T01:19:36Z</time>
      </trkpt>
      <trkpt lat="42.26473" lon="2.21279">
        <ele>1733</ele>
        <time>2010-01-01T01:19:38Z</time>
      </trkpt>
      <trkpt lat="42.26474" lon="2.21284">
        <ele>1733</ele>
        <time>2010-01-01T01:19:40Z</time>
      </trkpt>
      <trkpt lat="42.26475" lon="2.21287">
        <ele>1733</ele>
        <time>2010-01-01T01:19:41Z</time>
      </trkpt>
      <trkpt lat="42.26475" lon="2.21291">
        <ele>1732</ele>
        <time>2010-01-01T01:19:42Z</time>
      </trkpt>
      <trkpt lat="42.26474" lon="2.21296">
        <ele>1732</ele>
        <time>2010-01-01T01:19:44Z</time>
      </trkpt>
      <trkpt lat="42.26472" lon="2.21299">
        <ele>1732</ele>
        <time>2010-01-01T01:19:45Z</time>
      </trkpt>
      <trkpt lat="42.26471" lon="2.21303">
        <ele>1732</ele>
        <time>2010-01-01T01:19:46Z</time>
      </trkpt>
      <trkpt lat="42.2647" lon="2.21306">
        <ele>1732</ele>
        <time>2010-01-01T01:19:47Z</time>
      </trkpt>
      <trkpt lat="42.26469" lon="2.2131">
        <ele>1732</ele>
        <time>2010-01-01T01:19:48Z</time>
      </trkpt>
      <trkpt lat="42.26469" lon="2.21315">
        <ele>1732</ele>
        <time>2010-01-01T01:19:50Z</time>
      </trkpt>
      <trkpt lat="42.26469" lon="2.2132">
        <ele>1731</ele>
        <time>2010-01-01T01:19:51Z</time>
      </trkpt>
      <trkpt lat="42.26469" lon="2.21325">
        <ele>1731</ele>
        <time>2010-01-01T01:19:53Z</time>
      </trkpt>
      <trkpt lat="42.26469" lon="2.2133">
        <ele>1730</ele>
        <time>2010-01-01T01:19:54Z</time>
      </trkpt>
      <trkpt lat="42.26468" lon="2.21337">
        <ele>1730</ele>
        <time>2010-01-01T01:19:56Z</time>
      </trkpt>
      <trkpt lat="42.26467" lon="2.21342">
        <ele>1730</ele>
        <time>2010-01-01T01:19:58Z</time>
      </trkpt>
      <trkpt lat="42.26466" lon="2.21347">
        <ele>1730</ele>
        <time>2010-01-01T01:19:59Z</time>
      </trkpt>
      <trkpt lat="42.26466" lon="2.21351">
        <ele>1729</ele>
        <time>2010-01-01T01:20:01Z</time>
      </trkpt>
      <trkpt lat="42.26467" lon="2.21358">
        <ele>1729</ele>
        <time>2010-01-01T01:20:03Z</time>
      </trkpt>
      <trkpt lat="42.26467" lon="2.21366">
        <ele>1728</ele>
        <time>2010-01-01T01:20:05Z</time>
      </trkpt>
      <trkpt lat="42.26468" lon="2.21372">
        <ele>1727</ele>
        <time>2010-01-01T01:20:07Z</time>
      </trkpt>
      <trkpt lat="42.26467" lon="2.21379">
        <ele>1726</ele>
        <time>2010-01-01T01:20:09Z</time>
      </trkpt>
      <trkpt lat="42.26467" lon="2.21383">
        <ele>1725</ele>
        <time>2010-01-01T01:20:10Z</time>
      </trkpt>
      <trkpt lat="42.26467" lon="2.21389">
        <ele>1725</ele>
        <time>2010-01-01T01:20:12Z</time>
      </trkpt>
      <trkpt lat="42.26468" lon="2.21396">
        <ele>1723</ele>
        <time>2010-01-01T01:20:14Z</time>
      </trkpt>
      <trkpt lat="42.2647" lon="2.21401">
        <ele>1722</ele>
        <time>2010-01-01T01:20:16Z</time>
      </trkpt>
      <trkpt lat="42.26471" lon="2.21406">
        <ele>1721</ele>
        <time>2010-01-01T01:20:17Z</time>
      </trkpt>
      <trkpt lat="42.26471" lon="2.21412">
        <ele>1720</ele>
        <time>2010-01-01T01:20:19Z</time>
      </trkpt>
      <trkpt lat="42.26472" lon="2.21419">
        <ele>1718</ele>
        <time>2010-01-01T01:20:21Z</time>
      </trkpt>
      <trkpt lat="42.26472" lon="2.21425">
        <ele>1717</ele>
        <time>2010-01-01T01:20:23Z</time>
      </trkpt>
      <trkpt lat="42.26474" lon="2.21432">
        <ele>1716</ele>
        <time>2010-01-01T01:20:25Z</time>
      </trkpt>
      <trkpt lat="42.26475" lon="2.2144">
        <ele>1715</ele>
        <time>2010-01-01T01:20:28Z</time>
      </trkpt>
      <trkpt lat="42.26475" lon="2.21448">
        <ele>1715</ele>
        <time>2010-01-01T01:20:30Z</time>
      </trkpt>
      <trkpt lat="42.26476" lon="2.21455">
        <ele>1714</ele>
        <time>2010-01-01T01:20:32Z</time>
      </trkpt>
      <trkpt lat="42.26476" lon="2.21462">
        <ele>1714</ele>
        <time>2010-01-01T01:20:34Z</time>
      </trkpt>
      <trkpt lat="42.26477" lon="2.21467">
        <ele>1714</ele>
        <time>2010-01-01T01:20:36Z</time>
      </trkpt>
      <trkpt lat="42.26478" lon="2.21472">
        <ele>1713</ele>
        <time>2010-01-01T01:20:37Z</time>
      </trkpt>
      <trkpt lat="42.2648" lon="2.21477">
        <ele>1712</ele>
        <time>2010-01-01T01:20:39Z</time>
      </trkpt>
      <trkpt lat="42.26481" lon="2.21482">
        <ele>1711</ele>
        <time>2010-01-01T01:20:40Z</time>
      </trkpt>
      <trkpt lat="42.26483" lon="2.21488">
        <ele>1710</ele>
        <time>2010-01-01T01:20:42Z</time>
      </trkpt>
      <trkpt lat="42.26486" lon="2.215">
        <ele>1708</ele>
        <time>2010-01-01T01:20:46Z</time>
      </trkpt>
      <trkpt lat="42.26488" lon="2.21508">
        <ele>1707</ele>
        <time>2010-01-01T01:20:48Z</time>
      </trkpt>
      <trkpt lat="42.2649" lon="2.21521">
        <ele>1706</ele>
        <time>2010-01-01T01:20:52Z</time>
      </trkpt>
      <trkpt lat="42.26491" lon="2.21528">
        <ele>1706</ele>
        <time>2010-01-01T01:20:55Z</time>
      </trkpt>
      <trkpt lat="42.26492" lon="2.21535">
        <ele>1705</ele>
        <time>2010-01-01T01:20:57Z</time>
      </trkpt>
      <trkpt lat="42.26493" lon="2.21538">
        <ele>1705</ele>
        <time>2010-01-01T01:20:58Z</time>
      </trkpt>
      <trkpt lat="42.26495" lon="2.21539">
        <ele>1704</ele>
        <time>2010-01-01T01:20:59Z</time>
      </trkpt>
      <trkpt lat="42.26497" lon="2.21542">
        <ele>1703</ele>
        <time>2010-01-01T01:21:00Z</time>
      </trkpt>
      <trkpt lat="42.26499" lon="2.21544">
        <ele>1702</ele>
        <time>2010-01-01T01:21:01Z</time>
      </trkpt>
      <trkpt lat="42.26502" lon="2.21545">
        <ele>1702</ele>
        <time>2010-01-01T01:21:02Z</time>
      </trkpt>
      <trkpt lat="42.26504" lon="2.21548">
        <ele>1701</ele>
        <time>2010-01-01T01:21:03Z</time>
      </trkpt>
      <trkpt lat="42.26505" lon="2.21551">
        <ele>1701</ele>
        <time>2010-01-01T01:21:04Z</time>
      </trkpt>
      <trkpt lat="42.26504" lon="2.21555">
        <ele>1701</ele>
        <time>2010-01-01T01:21:05Z</time>
      </trkpt>
      <trkpt lat="42.26504" lon="2.21558">
        <ele>1701</ele>
        <time>2010-01-01T01:21:06Z</time>
      </trkpt>
      <trkpt lat="42.26504" lon="2.21561">
        <ele>1701</ele>
        <time>2010-01-01T01:21:07Z</time>
      </trkpt>
      <trkpt lat="42.26504" lon="2.21565">
        <ele>1700</ele>
        <time>2010-01-01T01:21:08Z</time>
      </trkpt>
      <trkpt lat="42.26507" lon="2.21566">
        <ele>1700</ele>
        <time>2010-01-01T01:21:09Z</time>
      </trkpt>
      <trkpt lat="42.26509" lon="2.21568">
        <ele>1699</ele>
        <time>2010-01-01T01:21:10Z</time>
      </trkpt>
      <trkpt lat="42.26509" lon="2.21572">
        <ele>1699</ele>
        <time>2010-01-01T01:21:11Z</time>
      </trkpt>
      <trkpt lat="42.26509" lon="2.21577">
        <ele>1699</ele>
        <time>2010-01-01T01:21:13Z</time>
      </trkpt>
      <trkpt lat="42.26511" lon="2.21585">
        <ele>1698</ele>
        <time>2010-01-01T01:21:15Z</time>
      </trkpt>
      <trkpt lat="42.26512" lon="2.2159">
        <ele>1697</ele>
        <time>2010-01-01T01:21:17Z</time>
      </trkpt>
      <trkpt lat="42.26515" lon="2.21597">
        <ele>1695</ele>
        <time>2010-01-01T01:21:19Z</time>
      </trkpt>
      <trkpt lat="42.26516" lon="2.21601">
        <ele>1694</ele>
        <time>2010-01-01T01:21:21Z</time>
      </trkpt>
      <trkpt lat="42.26518" lon="2.21606">
        <ele>1693</ele>
        <time>2010-01-01T01:21:22Z</time>
      </trkpt>
      <trkpt lat="42.26519" lon="2.21611">
        <ele>1692</ele>
        <time>2010-01-01T01:21:24Z</time>
      </trkpt>
      <trkpt lat="42.2652" lon="2.21617">
        <ele>1691</ele>
        <time>2010-01-01T01:21:26Z</time>
      </trkpt>
      <trkpt lat="42.26521" lon="2.21623">
        <ele>1691</ele>
        <time>2010-01-01T01:21:27Z</time>
      </trkpt>
      <trkpt lat="42.26522" lon="2.21627">
        <ele>1690</ele>
        <time>2010-01-01T01:21:29Z</time>
      </trkpt>
      <trkpt lat="42.26524" lon="2.21629">
        <ele>1690</ele>
        <time>2010-01-01T01:21:29Z</time>
      </trkpt>
      <trkpt lat="42.26524" lon="2.21633">
        <ele>1690</ele>
        <time>2010-01-01T01:21:31Z</time>
      </trkpt>
      <trkpt lat="42.26525" lon="2.21636">
        <ele>1689</ele>
        <time>2010-01-01T01:21:32Z</time>
      </trkpt>
      <trkpt lat="42.26527" lon="2.21639">
        <ele>1689</ele>
        <time>2010-01-01T01:21:33Z</time>
      </trkpt>
      <trkpt lat="42.26529" lon="2.21642">
        <ele>1688</ele>
        <time>2010-01-01T01:21:34Z</time>
      </trkpt>
      <trkpt lat="42.26531" lon="2.21645">
        <ele>1688</ele>
        <time>2010-01-01T01:21:35Z</time>
      </trkpt>
      <trkpt lat="42.26531" lon="2.21649">
        <ele>1688</ele>
        <time>2010-01-01T01:21:36Z</time>
      </trkpt>
      <trkpt lat="42.26533" lon="2.21654">
        <ele>1687</ele>
        <time>2010-01-01T01:21:38Z</time>
      </trkpt>
      <trkpt lat="42.26534" lon="2.21658">
        <ele>1687</ele>
        <time>2010-01-01T01:21:39Z</time>
      </trkpt>
      <trkpt lat="42.26535" lon="2.21664">
        <ele>1687</ele>
        <time>2010-01-01T01:21:41Z</time>
      </trkpt>
      <trkpt lat="42.26536" lon="2.21671">
        <ele>1686</ele>
        <time>2010-01-01T01:21:43Z</time>
      </trkpt>
      <trkpt lat="42.26538" lon="2.21677">
        <ele>1684</ele>
        <time>2010-01-01T01:21:45Z</time>
      </trkpt>
      <trkpt lat="42.26541" lon="2.21684">
        <ele>1682</ele>
        <time>2010-01-01T01:21:47Z</time>
      </trkpt>
      <trkpt lat="42.26543" lon="2.21689">
        <ele>1681</ele>
        <time>2010-01-01T01:21:49Z</time>
      </trkpt>
      <trkpt lat="42.26545" lon="2.21694">
        <ele>1679</ele>
        <time>2010-01-01T01:21:51Z</time>
      </trkpt>
      <trkpt lat="42.26548" lon="2.217">
        <ele>1678</ele>
        <time>2010-01-01T01:21:53Z</time>
      </trkpt>
      <trkpt lat="42.26549" lon="2.21706">
        <ele>1678</ele>
        <time>2010-01-01T01:21:55Z</time>
      </trkpt>
      <trkpt lat="42.26551" lon="2.21713">
        <ele>1678</ele>
        <time>2010-01-01T01:21:57Z</time>
      </trkpt>
      <trkpt lat="42.26552" lon="2.2172">
        <ele>1678</ele>
        <time>2010-01-01T01:21:59Z</time>
      </trkpt>
      <trkpt lat="42.26551" lon="2.21727">
        <ele>1679</ele>
        <time>2010-01-01T01:22:01Z</time>
      </trkpt>
      <trkpt lat="42.26551" lon="2.21735">
        <ele>1681</ele>
        <time>2010-01-01T01:22:03Z</time>
      </trkpt>
      <trkpt lat="42.26552" lon="2.2174">
        <ele>1682</ele>
        <time>2010-01-01T01:22:05Z</time>
      </trkpt>
      <trkpt lat="42.26553" lon="2.21756">
        <ele>1683</ele>
        <time>2010-01-01T01:22:10Z</time>
      </trkpt>
      <trkpt lat="42.26555" lon="2.21762">
        <ele>1683</ele>
        <time>2010-01-01T01:22:12Z</time>
      </trkpt>
      <trkpt lat="42.26555" lon="2.21769">
        <ele>1682</ele>
        <time>2010-01-01T01:22:14Z</time>
      </trkpt>
      <trkpt lat="42.26555" lon="2.21773">
        <ele>1682</ele>
        <time>2010-01-01T01:22:15Z</time>
      </trkpt>
      <trkpt lat="42.26556" lon="2.21777">
        <ele>1682</ele>
        <time>2010-01-01T01:22:16Z</time>
      </trkpt>
      <trkpt lat="42.26556" lon="2.21781">
        <ele>1681</ele>
        <time>2010-01-01T01:22:17Z</time>
      </trkpt>
      <trkpt lat="42.26557" lon="2.21784">
        <ele>1680</ele>
        <time>2010-01-01T01:22:18Z</time>
      </trkpt>
      <trkpt lat="42.26557" lon="2.21787">
        <ele>1680</ele>
        <time>2010-01-01T01:22:19Z</time>
      </trkpt>
      <trkpt lat="42.26557" lon="2.21791">
        <ele>1680</ele>
        <time>2010-01-01T01:22:20Z</time>
      </trkpt>
      <trkpt lat="42.26557" lon="2.21795">
        <ele>1679</ele>
        <time>2010-01-01T01:22:21Z</time>
      </trkpt>
      <trkpt lat="42.26558" lon="2.21799">
        <ele>1678</ele>
        <time>2010-01-01T01:22:23Z</time>
      </trkpt>
      <trkpt lat="42.26557" lon="2.21804">
        <ele>1678</ele>
        <time>2010-01-01T01:22:24Z</time>
      </trkpt>
      <trkpt lat="42.26556" lon="2.21812">
        <ele>1677</ele>
        <time>2010-01-01T01:22:27Z</time>
      </trkpt>
      <trkpt lat="42.26555" lon="2.21816">
        <ele>1676</ele>
        <time>2010-01-01T01:22:28Z</time>
      </trkpt>
      <trkpt lat="42.26555" lon="2.2182">
        <ele>1675</ele>
        <time>2010-01-01T01:22:29Z</time>
      </trkpt>
      <trkpt lat="42.26556" lon="2.21824">
        <ele>1673</ele>
        <time>2010-01-01T01:22:30Z</time>
      </trkpt>
      <trkpt lat="42.26555" lon="2.21828">
        <ele>1672</ele>
        <time>2010-01-01T01:22:31Z</time>
      </trkpt>
      <trkpt lat="42.26554" lon="2.21832">
        <ele>1671</ele>
        <time>2010-01-01T01:22:33Z</time>
      </trkpt>
      <trkpt lat="42.26554" lon="2.21836">
        <ele>1670</ele>
        <time>2010-01-01T01:22:34Z</time>
      </trkpt>
      <trkpt lat="42.26554" lon="2.21839">
        <ele>1669</ele>
        <time>2010-01-01T01:22:35Z</time>
      </trkpt>
      <trkpt lat="42.26552" lon="2.21842">
        <ele>1669</ele>
        <time>2010-01-01T01:22:36Z</time>
      </trkpt>
      <trkpt lat="42.2655" lon="2.21843">
        <ele>1669</ele>
        <time>2010-01-01T01:22:37Z</time>
      </trkpt>
      <trkpt lat="42.26548" lon="2.21844">
        <ele>1669</ele>
        <time>2010-01-01T01:22:38Z</time>
      </trkpt>
      <trkpt lat="42.26546" lon="2.21845">
        <ele>1670</ele>
        <time>2010-01-01T01:22:39Z</time>
      </trkpt>
      <trkpt lat="42.26543" lon="2.21847">
        <ele>1670</ele>
        <time>2010-01-01T01:22:40Z</time>
      </trkpt>
      <trkpt lat="42.26541" lon="2.21848">
        <ele>1670</ele>
        <time>2010-01-01T01:22:41Z</time>
      </trkpt>
      <trkpt lat="42.2654" lon="2.21851">
        <ele>1670</ele>
        <time>2010-01-01T01:22:42Z</time>
      </trkpt>
      <trkpt lat="42.2654" lon="2.21855">
        <ele>1669</ele>
        <time>2010-01-01T01:22:43Z</time>
      </trkpt>
      <trkpt lat="42.26539" lon="2.21862">
        <ele>1667</ele>
        <time>2010-01-01T01:22:45Z</time>
      </trkpt>
      <trkpt lat="42.26538" lon="2.21867">
        <ele>1665</ele>
        <time>2010-01-01T01:22:46Z</time>
      </trkpt>
      <trkpt lat="42.26537" lon="2.21872">
        <ele>1663</ele>
        <time>2010-01-01T01:22:48Z</time>
      </trkpt>
      <trkpt lat="42.26534" lon="2.21879">
        <ele>1661</ele>
        <time>2010-01-01T01:22:50Z</time>
      </trkpt>
      <trkpt lat="42.26529" lon="2.21883">
        <ele>1661</ele>
        <time>2010-01-01T01:22:53Z</time>
      </trkpt>
      <trkpt lat="42.26525" lon="2.21888">
        <ele>1660</ele>
        <time>2010-01-01T01:22:55Z</time>
      </trkpt>
      <trkpt lat="42.26522" lon="2.21892">
        <ele>1659</ele>
        <time>2010-01-01T01:22:57Z</time>
      </trkpt>
      <trkpt lat="42.26518" lon="2.21894">
        <ele>1658</ele>
        <time>2010-01-01T01:22:58Z</time>
      </trkpt>
      <trkpt lat="42.26514" lon="2.21895">
        <ele>1658</ele>
        <time>2010-01-01T01:23:00Z</time>
      </trkpt>
      <trkpt lat="42.26511" lon="2.21895">
        <ele>1658</ele>
        <time>2010-01-01T01:23:01Z</time>
      </trkpt>
      <trkpt lat="42.2651" lon="2.21898">
        <ele>1657</ele>
        <time>2010-01-01T01:23:02Z</time>
      </trkpt>
      <trkpt lat="42.26507" lon="2.21901">
        <ele>1656</ele>
        <time>2010-01-01T01:23:04Z</time>
      </trkpt>
      <trkpt lat="42.26502" lon="2.21903">
        <ele>1656</ele>
        <time>2010-01-01T01:23:05Z</time>
      </trkpt>
      <trkpt lat="42.26498" lon="2.21904">
        <ele>1655</ele>
        <time>2010-01-01T01:23:07Z</time>
      </trkpt>
      <trkpt lat="42.26496" lon="2.21904">
        <ele>1654</ele>
        <time>2010-01-01T01:23:08Z</time>
      </trkpt>
      <trkpt lat="42.26494" lon="2.21904">
        <ele>1654</ele>
        <time>2010-01-01T01:23:09Z</time>
      </trkpt>
      <trkpt lat="42.26492" lon="2.21904">
        <ele>1654</ele>
        <time>2010-01-01T01:23:10Z</time>
      </trkpt>
      <trkpt lat="42.2649" lon="2.21905">
        <ele>1653</ele>
        <time>2010-01-01T01:23:10Z</time>
      </trkpt>
      <trkpt lat="42.26488" lon="2.21907">
        <ele>1652</ele>
        <time>2010-01-01T01:23:12Z</time>
      </trkpt>
      <trkpt lat="42.26485" lon="2.21909">
        <ele>1650</ele>
        <time>2010-01-01T01:23:13Z</time>
      </trkpt>
      <trkpt lat="42.26479" lon="2.21911">
        <ele>1649</ele>
        <time>2010-01-01T01:23:15Z</time>
      </trkpt>
      <trkpt lat="42.26475" lon="2.2191">
        <ele>1648</ele>
        <time>2010-01-01T01:23:17Z</time>
      </trkpt>
      <trkpt lat="42.26472" lon="2.21908">
        <ele>1648</ele>
        <time>2010-01-01T01:23:18Z</time>
      </trkpt>
      <trkpt lat="42.2647" lon="2.21908">
        <ele>1648</ele>
        <time>2010-01-01T01:23:19Z</time>
      </trkpt>
      <trkpt lat="42.26468" lon="2.2191">
        <ele>1647</ele>
        <time>2010-01-01T01:23:20Z</time>
      </trkpt>
      <trkpt lat="42.26463" lon="2.21912">
        <ele>1646</ele>
        <time>2010-01-01T01:23:22Z</time>
      </trkpt>
      <trkpt lat="42.26459" lon="2.21915">
        <ele>1645</ele>
        <time>2010-01-01T01:23:24Z</time>
      </trkpt>
      <trkpt lat="42.26461" lon="2.21917">
        <ele>1645</ele>
        <time>2010-01-01T01:23:25Z</time>
      </trkpt>
      <trkpt lat="42.26461" lon="2.21921">
        <ele>1645</ele>
        <time>2010-01-01T01:23:26Z</time>
      </trkpt>
      <trkpt lat="42.26462" lon="2.21923">
        <ele>1645</ele>
        <time>2010-01-01T01:23:26Z</time>
      </trkpt>
      <trkpt lat="42.26463" lon="2.21926">
        <ele>1644</ele>
        <time>2010-01-01T01:23:27Z</time>
      </trkpt>
      <trkpt lat="42.26464" lon="2.21929">
        <ele>1644</ele>
        <time>2010-01-01T01:23:28Z</time>
      </trkpt>
      <trkpt lat="42.26465" lon="2.21931">
        <ele>1644</ele>
        <time>2010-01-01T01:23:29Z</time>
      </trkpt>
      <trkpt lat="42.26465" lon="2.21936">
        <ele>1643</ele>
        <time>2010-01-01T01:23:31Z</time>
      </trkpt>
      <trkpt lat="42.26465" lon="2.21939">
        <ele>1643</ele>
        <time>2010-01-01T01:23:32Z</time>
      </trkpt>
      <trkpt lat="42.26466" lon="2.21942">
        <ele>1642</ele>
        <time>2010-01-01T01:23:32Z</time>
      </trkpt>
      <trkpt lat="42.26469" lon="2.21944">
        <ele>1641</ele>
        <time>2010-01-01T01:23:34Z</time>
      </trkpt>
      <trkpt lat="42.2647" lon="2.21947">
        <ele>1640</ele>
        <time>2010-01-01T01:23:35Z</time>
      </trkpt>
      <trkpt lat="42.26471" lon="2.21951">
        <ele>1640</ele>
        <time>2010-01-01T01:23:36Z</time>
      </trkpt>
      <trkpt lat="42.26472" lon="2.21955">
        <ele>1639</ele>
        <time>2010-01-01T01:23:37Z</time>
      </trkpt>
      <trkpt lat="42.26473" lon="2.21958">
        <ele>1638</ele>
        <time>2010-01-01T01:23:38Z</time>
      </trkpt>
      <trkpt lat="42.26475" lon="2.21961">
        <ele>1637</ele>
        <time>2010-01-01T01:23:39Z</time>
      </trkpt>
      <trkpt lat="42.26482" lon="2.21973">
        <ele>1633</ele>
        <time>2010-01-01T01:23:44Z</time>
      </trkpt>
      <trkpt lat="42.26489" lon="2.21982">
        <ele>1629</ele>
        <time>2010-01-01T01:23:48Z</time>
      </trkpt>
      <trkpt lat="42.26496" lon="2.21991">
        <ele>1625</ele>
        <time>2010-01-01T01:23:52Z</time>
      </trkpt>
      <trkpt lat="42.26499" lon="2.22003">
        <ele>1622</ele>
        <time>2010-01-01T01:23:55Z</time>
      </trkpt>
      <trkpt lat="42.26503" lon="2.22005">
        <ele>1620</ele>
        <time>2010-01-01T01:23:57Z</time>
      </trkpt>
      <trkpt lat="42.2651" lon="2.22015">
        <ele>1615</ele>
        <time>2010-01-01T01:24:01Z</time>
      </trkpt>
      <trkpt lat="42.26514" lon="2.22017">
        <ele>1613</ele>
        <time>2010-01-01T01:24:03Z</time>
      </trkpt>
      <trkpt lat="42.26517" lon="2.22018">
        <ele>1612</ele>
        <time>2010-01-01T01:24:04Z</time>
      </trkpt>
      <trkpt lat="42.26524" lon="2.22029">
        <ele>1606</ele>
        <time>2010-01-01T01:24:08Z</time>
      </trkpt>
      <trkpt lat="42.26526" lon="2.22043">
        <ele>1600</ele>
        <time>2010-01-01T01:24:13Z</time>
      </trkpt>
      <trkpt lat="42.26527" lon="2.22056">
        <ele>1596</ele>
        <time>2010-01-01T01:24:16Z</time>
      </trkpt>
      <trkpt lat="42.26524" lon="2.2207">
        <ele>1591</ele>
        <time>2010-01-01T01:24:20Z</time>
      </trkpt>
      <trkpt lat="42.26521" lon="2.22081">
        <ele>1586</ele>
        <time>2010-01-01T01:24:24Z</time>
      </trkpt>
      <trkpt lat="42.26517" lon="2.22086">
        <ele>1586</ele>
        <time>2010-01-01T01:24:26Z</time>
      </trkpt>
      <trkpt lat="42.26513" lon="2.22089">
        <ele>1586</ele>
        <time>2010-01-01T01:24:28Z</time>
      </trkpt>
      <trkpt lat="42.26509" lon="2.22094">
        <ele>1586</ele>
        <time>2010-01-01T01:24:30Z</time>
      </trkpt>
      <trkpt lat="42.26505" lon="2.22098">
        <ele>1586</ele>
        <time>2010-01-01T01:24:32Z</time>
      </trkpt>
      <trkpt lat="42.26501" lon="2.22101">
        <ele>1587</ele>
        <time>2010-01-01T01:24:34Z</time>
      </trkpt>
      <trkpt lat="42.26496" lon="2.22105">
        <ele>1587</ele>
        <time>2010-01-01T01:24:36Z</time>
      </trkpt>
      <trkpt lat="42.26492" lon="2.22108">
        <ele>1587</ele>
        <time>2010-01-01T01:24:38Z</time>
      </trkpt>
      <trkpt lat="42.26489" lon="2.22111">
        <ele>1588</ele>
        <time>2010-01-01T01:24:40Z</time>
      </trkpt>
      <trkpt lat="42.26486" lon="2.22114">
        <ele>1588</ele>
        <time>2010-01-01T01:24:41Z</time>
      </trkpt>
      <trkpt lat="42.2648" lon="2.22118">
        <ele>1590</ele>
        <time>2010-01-01T01:24:44Z</time>
      </trkpt>
      <trkpt lat="42.26477" lon="2.2212">
        <ele>1590</ele>
        <time>2010-01-01T01:24:45Z</time>
      </trkpt>
      <trkpt lat="42.26474" lon="2.22122">
        <ele>1591</ele>
        <time>2010-01-01T01:24:47Z</time>
      </trkpt>
      <trkpt lat="42.2647" lon="2.22125">
        <ele>1591</ele>
        <time>2010-01-01T01:24:48Z</time>
      </trkpt>
      <trkpt lat="42.26466" lon="2.22128">
        <ele>1591</ele>
        <time>2010-01-01T01:24:50Z</time>
      </trkpt>
      <trkpt lat="42.26462" lon="2.22131">
        <ele>1591</ele>
        <time>2010-01-01T01:24:52Z</time>
      </trkpt>
      <trkpt lat="42.26457" lon="2.22136">
        <ele>1590</ele>
        <time>2010-01-01T01:24:54Z</time>
      </trkpt>
      <trkpt lat="42.26452" lon="2.22139">
        <ele>1590</ele>
        <time>2010-01-01T01:24:57Z</time>
      </trkpt>
      <trkpt lat="42.26448" lon="2.22143">
        <ele>1590</ele>
        <time>2010-01-01T01:24:59Z</time>
      </trkpt>
      <trkpt lat="42.26444" lon="2.22148">
        <ele>1590</ele>
        <time>2010-01-01T01:25:01Z</time>
      </trkpt>
      <trkpt lat="42.2644" lon="2.22155">
        <ele>1590</ele>
        <time>2010-01-01T01:25:04Z</time>
      </trkpt>
      <trkpt lat="42.26434" lon="2.22158">
        <ele>1589</ele>
        <time>2010-01-01T01:25:06Z</time>
      </trkpt>
      <trkpt lat="42.26429" lon="2.2216">
        <ele>1588</ele>
        <time>2010-01-01T01:25:08Z</time>
      </trkpt>
      <trkpt lat="42.26424" lon="2.22162">
        <ele>1587</ele>
        <time>2010-01-01T01:25:10Z</time>
      </trkpt>
      <trkpt lat="42.26419" lon="2.22164">
        <ele>1586</ele>
        <time>2010-01-01T01:25:12Z</time>
      </trkpt>
      <trkpt lat="42.26415" lon="2.22166">
        <ele>1585</ele>
        <time>2010-01-01T01:25:14Z</time>
      </trkpt>
      <trkpt lat="42.2641" lon="2.22165">
        <ele>1584</ele>
        <time>2010-01-01T01:25:16Z</time>
      </trkpt>
      <trkpt lat="42.26406" lon="2.22166">
        <ele>1583</ele>
        <time>2010-01-01T01:25:18Z</time>
      </trkpt>
      <trkpt lat="42.26401" lon="2.2217">
        <ele>1581</ele>
        <time>2010-01-01T01:25:20Z</time>
      </trkpt>
      <trkpt lat="42.26397" lon="2.22173">
        <ele>1580</ele>
        <time>2010-01-01T01:25:22Z</time>
      </trkpt>
      <trkpt lat="42.26393" lon="2.22177">
        <ele>1579</ele>
        <time>2010-01-01T01:25:24Z</time>
      </trkpt>
      <trkpt lat="42.2639" lon="2.22181">
        <ele>1577</ele>
        <time>2010-01-01T01:25:25Z</time>
      </trkpt>
      <trkpt lat="42.26385" lon="2.22187">
        <ele>1575</ele>
        <time>2010-01-01T01:25:28Z</time>
      </trkpt>
      <trkpt lat="42.26382" lon="2.22191">
        <ele>1573</ele>
        <time>2010-01-01T01:25:30Z</time>
      </trkpt>
      <trkpt lat="42.26378" lon="2.22193">
        <ele>1571</ele>
        <time>2010-01-01T01:25:32Z</time>
      </trkpt>
      <trkpt lat="42.26373" lon="2.22195">
        <ele>1568</ele>
        <time>2010-01-01T01:25:34Z</time>
      </trkpt>
      <trkpt lat="42.26368" lon="2.22198">
        <ele>1566</ele>
        <time>2010-01-01T01:25:36Z</time>
      </trkpt>
      <trkpt lat="42.26364" lon="2.222">
        <ele>1565</ele>
        <time>2010-01-01T01:25:37Z</time>
      </trkpt>
      <trkpt lat="42.26361" lon="2.22203">
        <ele>1563</ele>
        <time>2010-01-01T01:25:39Z</time>
      </trkpt>
      <trkpt lat="42.26357" lon="2.22206">
        <ele>1562</ele>
        <time>2010-01-01T01:25:41Z</time>
      </trkpt>
      <trkpt lat="42.26353" lon="2.2221">
        <ele>1560</ele>
        <time>2010-01-01T01:25:43Z</time>
      </trkpt>
      <trkpt lat="42.26349" lon="2.22213">
        <ele>1559</ele>
        <time>2010-01-01T01:25:45Z</time>
      </trkpt>
      <trkpt lat="42.26347" lon="2.22218">
        <ele>1558</ele>
        <time>2010-01-01T01:25:46Z</time>
      </trkpt>
      <trkpt lat="42.26346" lon="2.22224">
        <ele>1558</ele>
        <time>2010-01-01T01:25:48Z</time>
      </trkpt>
      <trkpt lat="42.26344" lon="2.2223">
        <ele>1558</ele>
        <time>2010-01-01T01:25:50Z</time>
      </trkpt>
      <trkpt lat="42.26341" lon="2.22234">
        <ele>1558</ele>
        <time>2010-01-01T01:25:52Z</time>
      </trkpt>
      <trkpt lat="42.26338" lon="2.22237">
        <ele>1557</ele>
        <time>2010-01-01T01:25:53Z</time>
      </trkpt>
      <trkpt lat="42.26335" lon="2.22239">
        <ele>1557</ele>
        <time>2010-01-01T01:25:54Z</time>
      </trkpt>
      <trkpt lat="42.26334" lon="2.22242">
        <ele>1557</ele>
        <time>2010-01-01T01:25:56Z</time>
      </trkpt>
      <trkpt lat="42.26333" lon="2.22245">
        <ele>1557</ele>
        <time>2010-01-01T01:25:57Z</time>
      </trkpt>
      <trkpt lat="42.26331" lon="2.22247">
        <ele>1557</ele>
        <time>2010-01-01T01:25:57Z</time>
      </trkpt>
      <trkpt lat="42.26329" lon="2.2225">
        <ele>1556</ele>
        <time>2010-01-01T01:25:59Z</time>
      </trkpt>
      <trkpt lat="42.26328" lon="2.22252">
        <ele>1556</ele>
        <time>2010-01-01T01:26:00Z</time>
      </trkpt>
      <trkpt lat="42.26325" lon="2.22255">
        <ele>1555</ele>
        <time>2010-01-01T01:26:01Z</time>
      </trkpt>
      <trkpt lat="42.26323" lon="2.22259">
        <ele>1554</ele>
        <time>2010-01-01T01:26:02Z</time>
      </trkpt>
      <trkpt lat="42.26321" lon="2.22265">
        <ele>1553</ele>
        <time>2010-01-01T01:26:04Z</time>
      </trkpt>
      <trkpt lat="42.26319" lon="2.22269">
        <ele>1553</ele>
        <time>2010-01-01T01:26:06Z</time>
      </trkpt>
      <trkpt lat="42.26317" lon="2.22273">
        <ele>1552</ele>
        <time>2010-01-01T01:26:07Z</time>
      </trkpt>
      <trkpt lat="42.26314" lon="2.22279">
        <ele>1551</ele>
        <time>2010-01-01T01:26:09Z</time>
      </trkpt>
      <trkpt lat="42.26308" lon="2.22287">
        <ele>1550</ele>
        <time>2010-01-01T01:26:12Z</time>
      </trkpt>
      <trkpt lat="42.26305" lon="2.22294">
        <ele>1549</ele>
        <time>2010-01-01T01:26:15Z</time>
      </trkpt>
      <trkpt lat="42.26304" lon="2.223">
        <ele>1549</ele>
        <time>2010-01-01T01:26:17Z</time>
      </trkpt>
      <trkpt lat="42.26302" lon="2.22307">
        <ele>1549</ele>
        <time>2010-01-01T01:26:19Z</time>
      </trkpt>
      <trkpt lat="42.26299" lon="2.22314">
        <ele>1549</ele>
        <time>2010-01-01T01:26:21Z</time>
      </trkpt>
      <trkpt lat="42.26298" lon="2.2232">
        <ele>1548</ele>
        <time>2010-01-01T01:26:23Z</time>
      </trkpt>
      <trkpt lat="42.26295" lon="2.22328">
        <ele>1548</ele>
        <time>2010-01-01T01:26:26Z</time>
      </trkpt>
      <trkpt lat="42.26292" lon="2.22333">
        <ele>1547</ele>
        <time>2010-01-01T01:26:28Z</time>
      </trkpt>
      <trkpt lat="42.26289" lon="2.22335">
        <ele>1545</ele>
        <time>2010-01-01T01:26:29Z</time>
      </trkpt>
      <trkpt lat="42.26285" lon="2.22338">
        <ele>1544</ele>
        <time>2010-01-01T01:26:31Z</time>
      </trkpt>
      <trkpt lat="42.26281" lon="2.22344">
        <ele>1542</ele>
        <time>2010-01-01T01:26:33Z</time>
      </trkpt>
      <trkpt lat="42.26277" lon="2.22348">
        <ele>1540</ele>
        <time>2010-01-01T01:26:35Z</time>
      </trkpt>
      <trkpt lat="42.26272" lon="2.22354">
        <ele>1538</ele>
        <time>2010-01-01T01:26:38Z</time>
      </trkpt>
      <trkpt lat="42.26269" lon="2.2236">
        <ele>1536</ele>
        <time>2010-01-01T01:26:40Z</time>
      </trkpt>
      <trkpt lat="42.26266" lon="2.22366">
        <ele>1535</ele>
        <time>2010-01-01T01:26:42Z</time>
      </trkpt>
      <trkpt lat="42.26265" lon="2.22372">
        <ele>1534</ele>
        <time>2010-01-01T01:26:44Z</time>
      </trkpt>
      <trkpt lat="42.26263" lon="2.22375">
        <ele>1533</ele>
        <time>2010-01-01T01:26:45Z</time>
      </trkpt>
      <trkpt lat="42.26262" lon="2.22378">
        <ele>1533</ele>
        <time>2010-01-01T01:26:46Z</time>
      </trkpt>
      <trkpt lat="42.26261" lon="2.22381">
        <ele>1532</ele>
        <time>2010-01-01T01:26:47Z</time>
      </trkpt>
      <trkpt lat="42.26259" lon="2.22384">
        <ele>1531</ele>
        <time>2010-01-01T01:26:48Z</time>
      </trkpt>
      <trkpt lat="42.26259" lon="2.22388">
        <ele>1531</ele>
        <time>2010-01-01T01:26:49Z</time>
      </trkpt>
      <trkpt lat="42.26258" lon="2.22391">
        <ele>1530</ele>
        <time>2010-01-01T01:26:50Z</time>
      </trkpt>
      <trkpt lat="42.26256" lon="2.22393">
        <ele>1529</ele>
        <time>2010-01-01T01:26:51Z</time>
      </trkpt>
      <trkpt lat="42.26255" lon="2.22398">
        <ele>1528</ele>
        <time>2010-01-01T01:26:53Z</time>
      </trkpt>
      <trkpt lat="42.26255" lon="2.22404">
        <ele>1527</ele>
        <time>2010-01-01T01:26:55Z</time>
      </trkpt>
      <trkpt lat="42.26255" lon="2.22409">
        <ele>1527</ele>
        <time>2010-01-01T01:26:56Z</time>
      </trkpt>
      <trkpt lat="42.26257" lon="2.22412">
        <ele>1527</ele>
        <time>2010-01-01T01:26:57Z</time>
      </trkpt>
      <trkpt lat="42.26258" lon="2.22413">
        <ele>1527</ele>
        <time>2010-01-01T01:26:58Z</time>
      </trkpt>
      <trkpt lat="42.2626" lon="2.22415">
        <ele>1528</ele>
        <time>2010-01-01T01:26:59Z</time>
      </trkpt>
      <trkpt lat="42.26258" lon="2.22418">
        <ele>1527</ele>
        <time>2010-01-01T01:27:00Z</time>
      </trkpt>
      <trkpt lat="42.26259" lon="2.22422">
        <ele>1527</ele>
        <time>2010-01-01T01:27:01Z</time>
      </trkpt>
      <trkpt lat="42.26259" lon="2.22427">
        <ele>1527</ele>
        <time>2010-01-01T01:27:02Z</time>
      </trkpt>
      <trkpt lat="42.26259" lon="2.22431">
        <ele>1526</ele>
        <time>2010-01-01T01:27:03Z</time>
      </trkpt>
      <trkpt lat="42.26259" lon="2.22436">
        <ele>1525</ele>
        <time>2010-01-01T01:27:05Z</time>
      </trkpt>
      <trkpt lat="42.26258" lon="2.22441">
        <ele>1524</ele>
        <time>2010-01-01T01:27:06Z</time>
      </trkpt>
      <trkpt lat="42.26259" lon="2.22459">
        <ele>1524</ele>
        <time>2010-01-01T01:27:12Z</time>
      </trkpt>
      <trkpt lat="42.26258" lon="2.22474">
        <ele>1523</ele>
        <time>2010-01-01T01:27:16Z</time>
      </trkpt>
      <trkpt lat="42.26255" lon="2.22488">
        <ele>1520</ele>
        <time>2010-01-01T01:27:21Z</time>
      </trkpt>
      <trkpt lat="42.26253" lon="2.22503">
        <ele>1516</ele>
        <time>2010-01-01T01:27:25Z</time>
      </trkpt>
      <trkpt lat="42.26255" lon="2.22515">
        <ele>1515</ele>
        <time>2010-01-01T01:27:29Z</time>
      </trkpt>
      <trkpt lat="42.26255" lon="2.22528">
        <ele>1512</ele>
        <time>2010-01-01T01:27:33Z</time>
      </trkpt>
      <trkpt lat="42.26255" lon="2.22541">
        <ele>1509</ele>
        <time>2010-01-01T01:27:36Z</time>
      </trkpt>
      <trkpt lat="42.2625" lon="2.22553">
        <ele>1505</ele>
        <time>2010-01-01T01:27:41Z</time>
      </trkpt>
      <trkpt lat="42.26247" lon="2.22566">
        <ele>1501</ele>
        <time>2010-01-01T01:27:45Z</time>
      </trkpt>
      <trkpt lat="42.26246" lon="2.22579">
        <ele>1498</ele>
        <time>2010-01-01T01:27:49Z</time>
      </trkpt>
      <trkpt lat="42.26247" lon="2.22594">
        <ele>1496</ele>
        <time>2010-01-01T01:27:53Z</time>
      </trkpt>
      <trkpt lat="42.26249" lon="2.22607">
        <ele>1495</ele>
        <time>2010-01-01T01:27:57Z</time>
      </trkpt>
      <trkpt lat="42.26251" lon="2.22621">
        <ele>1494</ele>
        <time>2010-01-01T01:28:01Z</time>
      </trkpt>
      <trkpt lat="42.26252" lon="2.22635">
        <ele>1492</ele>
        <time>2010-01-01T01:28:05Z</time>
      </trkpt>
      <trkpt lat="42.26248" lon="2.22648">
        <ele>1489</ele>
        <time>2010-01-01T01:28:09Z</time>
      </trkpt>
      <trkpt lat="42.26248" lon="2.22651">
        <ele>1489</ele>
        <time>2010-01-01T01:28:10Z</time>
      </trkpt>
      <trkpt lat="42.26251" lon="2.22659">
        <ele>1488</ele>
        <time>2010-01-01T01:28:13Z</time>
      </trkpt>
      <trkpt lat="42.2625" lon="2.22662">
        <ele>1487</ele>
        <time>2010-01-01T01:28:14Z</time>
      </trkpt>
      <trkpt lat="42.26249" lon="2.22665">
        <ele>1487</ele>
        <time>2010-01-01T01:28:15Z</time>
      </trkpt>
      <trkpt lat="42.26246" lon="2.22667">
        <ele>1486</ele>
        <time>2010-01-01T01:28:16Z</time>
      </trkpt>
      <trkpt lat="42.26245" lon="2.22668">
        <ele>1485</ele>
        <time>2010-01-01T01:28:17Z</time>
      </trkpt>
      <trkpt lat="42.26244" lon="2.22671">
        <ele>1485</ele>
        <time>2010-01-01T01:28:18Z</time>
      </trkpt>
      <trkpt lat="42.26245" lon="2.22675">
        <ele>1485</ele>
        <time>2010-01-01T01:28:19Z</time>
      </trkpt>
      <trkpt lat="42.26244" lon="2.22678">
        <ele>1485</ele>
        <time>2010-01-01T01:28:20Z</time>
      </trkpt>
      <trkpt lat="42.26246" lon="2.22679">
        <ele>1485</ele>
        <time>2010-01-01T01:28:20Z</time>
      </trkpt>
      <trkpt lat="42.26248" lon="2.2268">
        <ele>1485</ele>
        <time>2010-01-01T01:28:21Z</time>
      </trkpt>
      <trkpt lat="42.26249" lon="2.22682">
        <ele>1485</ele>
        <time>2010-01-01T01:28:22Z</time>
      </trkpt>
      <trkpt lat="42.26251" lon="2.22684">
        <ele>1485</ele>
        <time>2010-01-01T01:28:23Z</time>
      </trkpt>
      <trkpt lat="42.26252" lon="2.22686">
        <ele>1485</ele>
        <time>2010-01-01T01:28:24Z</time>
      </trkpt>
      <trkpt lat="42.26253" lon="2.22689">
        <ele>1485</ele>
        <time>2010-01-01T01:28:25Z</time>
      </trkpt>
      <trkpt lat="42.26253" lon="2.22693">
        <ele>1484</ele>
        <time>2010-01-01T01:28:26Z</time>
      </trkpt>
      <trkpt lat="42.26253" lon="2.22697">
        <ele>1484</ele>
        <time>2010-01-01T01:28:27Z</time>
      </trkpt>
      <trkpt lat="42.26254" lon="2.227">
        <ele>1483</ele>
        <time>2010-01-01T01:28:28Z</time>
      </trkpt>
      <trkpt lat="42.26255" lon="2.22703">
        <ele>1482</ele>
        <time>2010-01-01T01:28:29Z</time>
      </trkpt>
      <trkpt lat="42.26257" lon="2.22705">
        <ele>1482</ele>
        <time>2010-01-01T01:28:30Z</time>
      </trkpt>
      <trkpt lat="42.26259" lon="2.22708">
        <ele>1481</ele>
        <time>2010-01-01T01:28:31Z</time>
      </trkpt>
      <trkpt lat="42.26262" lon="2.22709">
        <ele>1480</ele>
        <time>2010-01-01T01:28:32Z</time>
      </trkpt>
      <trkpt lat="42.26263" lon="2.2271">
        <ele>1480</ele>
        <time>2010-01-01T01:28:33Z</time>
      </trkpt>
      <trkpt lat="42.26265" lon="2.22711">
        <ele>1479</ele>
        <time>2010-01-01T01:28:34Z</time>
      </trkpt>
      <trkpt lat="42.26268" lon="2.22711">
        <ele>1478</ele>
        <time>2010-01-01T01:28:35Z</time>
      </trkpt>
      <trkpt lat="42.2627" lon="2.22709">
        <ele>1478</ele>
        <time>2010-01-01T01:28:36Z</time>
      </trkpt>
      <trkpt lat="42.26273" lon="2.2271">
        <ele>1477</ele>
        <time>2010-01-01T01:28:37Z</time>
      </trkpt>
      <trkpt lat="42.26277" lon="2.22715">
        <ele>1476</ele>
        <time>2010-01-01T01:28:39Z</time>
      </trkpt>
      <trkpt lat="42.2628" lon="2.22721">
        <ele>1473</ele>
        <time>2010-01-01T01:28:41Z</time>
      </trkpt>
      <trkpt lat="42.26283" lon="2.22724">
        <ele>1472</ele>
        <time>2010-01-01T01:28:43Z</time>
      </trkpt>
      <trkpt lat="42.26285" lon="2.22726">
        <ele>1471</ele>
        <time>2010-01-01T01:28:44Z</time>
      </trkpt>
      <trkpt lat="42.26288" lon="2.22728">
        <ele>1470</ele>
        <time>2010-01-01T01:28:45Z</time>
      </trkpt>
      <trkpt lat="42.2629" lon="2.22732">
        <ele>1469</ele>
        <time>2010-01-01T01:28:47Z</time>
      </trkpt>
      <trkpt lat="42.26288" lon="2.22735">
        <ele>1469</ele>
        <time>2010-01-01T01:28:48Z</time>
      </trkpt>
      <trkpt lat="42.26286" lon="2.22736">
        <ele>1470</ele>
        <time>2010-01-01T01:28:49Z</time>
      </trkpt>
      <trkpt lat="42.26285" lon="2.22739">
        <ele>1470</ele>
        <time>2010-01-01T01:28:50Z</time>
      </trkpt>
      <trkpt lat="42.26284" lon="2.22742">
        <ele>1470</ele>
        <time>2010-01-01T01:28:51Z</time>
      </trkpt>
      <trkpt lat="42.26283" lon="2.22747">
        <ele>1470</ele>
        <time>2010-01-01T01:28:52Z</time>
      </trkpt>
      <trkpt lat="42.26281" lon="2.22753">
        <ele>1469</ele>
        <time>2010-01-01T01:28:54Z</time>
      </trkpt>
      <trkpt lat="42.2628" lon="2.22759">
        <ele>1469</ele>
        <time>2010-01-01T01:28:56Z</time>
      </trkpt>
      <trkpt lat="42.2628" lon="2.22765">
        <ele>1469</ele>
        <time>2010-01-01T01:28:58Z</time>
      </trkpt>
      <trkpt lat="42.26282" lon="2.22771">
        <ele>1469</ele>
        <time>2010-01-01T01:29:00Z</time>
      </trkpt>
      <trkpt lat="42.26284" lon="2.22786">
        <ele>1467</ele>
        <time>2010-01-01T01:29:04Z</time>
      </trkpt>
      <trkpt lat="42.26285" lon="2.22793">
        <ele>1467</ele>
        <time>2010-01-01T01:29:06Z</time>
      </trkpt>
      <trkpt lat="42.26285" lon="2.22799">
        <ele>1466</ele>
        <time>2010-01-01T01:29:08Z</time>
      </trkpt>
      <trkpt lat="42.26285" lon="2.22804">
        <ele>1466</ele>
        <time>2010-01-01T01:29:10Z</time>
      </trkpt>
      <trkpt lat="42.26286" lon="2.22812">
        <ele>1465</ele>
        <time>2010-01-01T01:29:12Z</time>
      </trkpt>
      <trkpt lat="42.26283" lon="2.22817">
        <ele>1465</ele>
        <time>2010-01-01T01:29:14Z</time>
      </trkpt>
      <trkpt lat="42.26281" lon="2.22821">
        <ele>1465</ele>
        <time>2010-01-01T01:29:15Z</time>
      </trkpt>
      <trkpt lat="42.26279" lon="2.22824">
        <ele>1465</ele>
        <time>2010-01-01T01:29:17Z</time>
      </trkpt>
      <trkpt lat="42.26277" lon="2.22824">
        <ele>1465</ele>
        <time>2010-01-01T01:29:17Z</time>
      </trkpt>
      <trkpt lat="42.26275" lon="2.22827">
        <ele>1465</ele>
        <time>2010-01-01T01:29:18Z</time>
      </trkpt>
      <trkpt lat="42.26273" lon="2.22831">
        <ele>1464</ele>
        <time>2010-01-01T01:29:20Z</time>
      </trkpt>
      <trkpt lat="42.2627" lon="2.22834">
        <ele>1464</ele>
        <time>2010-01-01T01:29:21Z</time>
      </trkpt>
      <trkpt lat="42.26265" lon="2.22836">
        <ele>1464</ele>
        <time>2010-01-01T01:29:23Z</time>
      </trkpt>
      <trkpt lat="42.26261" lon="2.22838">
        <ele>1464</ele>
        <time>2010-01-01T01:29:25Z</time>
      </trkpt>
      <trkpt lat="42.26257" lon="2.22839">
        <ele>1464</ele>
        <time>2010-01-01T01:29:27Z</time>
      </trkpt>
      <trkpt lat="42.26253" lon="2.2284">
        <ele>1464</ele>
        <time>2010-01-01T01:29:28Z</time>
      </trkpt>
      <trkpt lat="42.26248" lon="2.22841">
        <ele>1464</ele>
        <time>2010-01-01T01:29:30Z</time>
      </trkpt>
      <trkpt lat="42.26243" lon="2.22843">
        <ele>1463</ele>
        <time>2010-01-01T01:29:33Z</time>
      </trkpt>
      <trkpt lat="42.26238" lon="2.22844">
        <ele>1463</ele>
        <time>2010-01-01T01:29:35Z</time>
      </trkpt>
      <trkpt lat="42.26233" lon="2.22847">
        <ele>1463</ele>
        <time>2010-01-01T01:29:37Z</time>
      </trkpt>
      <trkpt lat="42.26229" lon="2.22848">
        <ele>1462</ele>
        <time>2010-01-01T01:29:38Z</time>
      </trkpt>
      <trkpt lat="42.26227" lon="2.2285">
        <ele>1462</ele>
        <time>2010-01-01T01:29:39Z</time>
      </trkpt>
      <trkpt lat="42.26225" lon="2.22852">
        <ele>1462</ele>
        <time>2010-01-01T01:29:40Z</time>
      </trkpt>
      <trkpt lat="42.26223" lon="2.22853">
        <ele>1462</ele>
        <time>2010-01-01T01:29:41Z</time>
      </trkpt>
      <trkpt lat="42.26221" lon="2.22854">
        <ele>1461</ele>
        <time>2010-01-01T01:29:42Z</time>
      </trkpt>
      <trkpt lat="42.26219" lon="2.22855">
        <ele>1461</ele>
        <time>2010-01-01T01:29:43Z</time>
      </trkpt>
      <trkpt lat="42.26218" lon="2.22857">
        <ele>1461</ele>
        <time>2010-01-01T01:29:43Z</time>
      </trkpt>
      <trkpt lat="42.26219" lon="2.22854">
        <ele>1461</ele>
        <time>2010-01-01T01:29:44Z</time>
      </trkpt>
      <trkpt lat="42.26218" lon="2.22852">
        <ele>1462</ele>
        <time>2010-01-01T01:29:45Z</time>
      </trkpt>
      <trkpt lat="42.26216" lon="2.22853">
        <ele>1462</ele>
        <time>2010-01-01T01:29:46Z</time>
      </trkpt>
      <trkpt lat="42.26215" lon="2.22856">
        <ele>1461</ele>
        <time>2010-01-01T01:29:47Z</time>
      </trkpt>
      <trkpt lat="42.26217" lon="2.22853">
        <ele>1462</ele>
        <time>2010-01-01T01:29:47Z</time>
      </trkpt>
      <trkpt lat="42.26219" lon="2.22853">
        <ele>1462</ele>
        <time>2010-01-01T01:29:48Z</time>
      </trkpt>
      <trkpt lat="42.2622" lon="2.22851">
        <ele>1462</ele>
        <time>2010-01-01T01:29:49Z</time>
      </trkpt>
      <trkpt lat="42.26224" lon="2.22847">
        <ele>1463</ele>
        <time>2010-01-01T01:29:51Z</time>
      </trkpt>
      <trkpt lat="42.26224" lon="2.22845">
        <ele>1464</ele>
        <time>2010-01-01T01:29:52Z</time>
      </trkpt>
      <trkpt lat="42.26226" lon="2.22847">
        <ele>1463</ele>
        <time>2010-01-01T01:29:53Z</time>
      </trkpt>
      <trkpt lat="42.26228" lon="2.2285">
        <ele>1462</ele>
        <time>2010-01-01T01:29:54Z</time>
      </trkpt>
      <trkpt lat="42.26229" lon="2.22853">
        <ele>1461</ele>
        <time>2010-01-01T01:29:55Z</time>
      </trkpt>
      <trkpt lat="42.26229" lon="2.22857">
        <ele>1460</ele>
        <time>2010-01-01T01:29:56Z</time>
      </trkpt>
      <trkpt lat="42.26229" lon="2.22863">
        <ele>1459</ele>
        <time>2010-01-01T01:29:58Z</time>
      </trkpt>
      <trkpt lat="42.26229" lon="2.22869">
        <ele>1458</ele>
        <time>2010-01-01T01:29:59Z</time>
      </trkpt>
      <trkpt lat="42.26229" lon="2.22873">
        <ele>1457</ele>
        <time>2010-01-01T01:30:01Z</time>
      </trkpt>
      <trkpt lat="42.26229" lon="2.22878">
        <ele>1456</ele>
        <time>2010-01-01T01:30:02Z</time>
      </trkpt>
      <trkpt lat="42.2623" lon="2.22881">
        <ele>1455</ele>
        <time>2010-01-01T01:30:03Z</time>
      </trkpt>
      <trkpt lat="42.26233" lon="2.22882">
        <ele>1455</ele>
        <time>2010-01-01T01:30:04Z</time>
      </trkpt>
      <trkpt lat="42.26237" lon="2.22886">
        <ele>1454</ele>
        <time>2010-01-01T01:30:06Z</time>
      </trkpt>
      <trkpt lat="42.2624" lon="2.2289">
        <ele>1453</ele>
        <time>2010-01-01T01:30:08Z</time>
      </trkpt>
      <trkpt lat="42.26247" lon="2.22899">
        <ele>1451</ele>
        <time>2010-01-01T01:30:12Z</time>
      </trkpt>
      <trkpt lat="42.26251" lon="2.22902">
        <ele>1450</ele>
        <time>2010-01-01T01:30:13Z</time>
      </trkpt>
      <trkpt lat="42.26255" lon="2.22906">
        <ele>1448</ele>
        <time>2010-01-01T01:30:16Z</time>
      </trkpt>
      <trkpt lat="42.26258" lon="2.22911">
        <ele>1447</ele>
        <time>2010-01-01T01:30:17Z</time>
      </trkpt>
      <trkpt lat="42.26258" lon="2.22915">
        <ele>1446</ele>
        <time>2010-01-01T01:30:19Z</time>
      </trkpt>
      <trkpt lat="42.26257" lon="2.22922">
        <ele>1444</ele>
        <time>2010-01-01T01:30:21Z</time>
      </trkpt>
      <trkpt lat="42.26255" lon="2.22928">
        <ele>1442</ele>
        <time>2010-01-01T01:30:23Z</time>
      </trkpt>
      <trkpt lat="42.26255" lon="2.22941">
        <ele>1438</ele>
        <time>2010-01-01T01:30:26Z</time>
      </trkpt>
      <trkpt lat="42.26256" lon="2.22943">
        <ele>1437</ele>
        <time>2010-01-01T01:30:27Z</time>
      </trkpt>
      <trkpt lat="42.26258" lon="2.22946">
        <ele>1436</ele>
        <time>2010-01-01T01:30:28Z</time>
      </trkpt>
      <trkpt lat="42.26259" lon="2.22949">
        <ele>1435</ele>
        <time>2010-01-01T01:30:29Z</time>
      </trkpt>
      <trkpt lat="42.26261" lon="2.22951">
        <ele>1434</ele>
        <time>2010-01-01T01:30:31Z</time>
      </trkpt>
      <trkpt lat="42.26267" lon="2.22959">
        <ele>1431</ele>
        <time>2010-01-01T01:30:34Z</time>
      </trkpt>
      <trkpt lat="42.26271" lon="2.22964">
        <ele>1429</ele>
        <time>2010-01-01T01:30:36Z</time>
      </trkpt>
      <trkpt lat="42.26275" lon="2.22967">
        <ele>1428</ele>
        <time>2010-01-01T01:30:38Z</time>
      </trkpt>
      <trkpt lat="42.26276" lon="2.22971">
        <ele>1426</ele>
        <time>2010-01-01T01:30:39Z</time>
      </trkpt>
      <trkpt lat="42.26278" lon="2.22977">
        <ele>1425</ele>
        <time>2010-01-01T01:30:41Z</time>
      </trkpt>
      <trkpt lat="42.26285" lon="2.22983">
        <ele>1423</ele>
        <time>2010-01-01T01:30:44Z</time>
      </trkpt>
      <trkpt lat="42.26288" lon="2.22986">
        <ele>1422</ele>
        <time>2010-01-01T01:30:46Z</time>
      </trkpt>
      <trkpt lat="42.2629" lon="2.22991">
        <ele>1421</ele>
        <time>2010-01-01T01:30:48Z</time>
      </trkpt>
      <trkpt lat="42.26292" lon="2.22997">
        <ele>1419</ele>
        <time>2010-01-01T01:30:49Z</time>
      </trkpt>
      <trkpt lat="42.26292" lon="2.23002">
        <ele>1418</ele>
        <time>2010-01-01T01:30:51Z</time>
      </trkpt>
      <trkpt lat="42.26287" lon="2.23016">
        <ele>1417</ele>
        <time>2010-01-01T01:30:55Z</time>
      </trkpt>
      <trkpt lat="42.26284" lon="2.23026">
        <ele>1416</ele>
        <time>2010-01-01T01:30:59Z</time>
      </trkpt>
      <trkpt lat="42.26282" lon="2.23025">
        <ele>1417</ele>
        <time>2010-01-01T01:30:59Z</time>
      </trkpt>
      <trkpt lat="42.26284" lon="2.23023">
        <ele>1417</ele>
        <time>2010-01-01T01:31:01Z</time>
      </trkpt>
      <trkpt lat="42.26287" lon="2.23022">
        <ele>1416</ele>
        <time>2010-01-01T01:31:02Z</time>
      </trkpt>
      <trkpt lat="42.2629" lon="2.23023">
        <ele>1416</ele>
        <time>2010-01-01T01:31:03Z</time>
      </trkpt>
      <trkpt lat="42.26294" lon="2.23025">
        <ele>1416</ele>
        <time>2010-01-01T01:31:04Z</time>
      </trkpt>
      <trkpt lat="42.26295" lon="2.23028">
        <ele>1415</ele>
        <time>2010-01-01T01:31:05Z</time>
      </trkpt>
      <trkpt lat="42.26296" lon="2.23031">
        <ele>1415</ele>
        <time>2010-01-01T01:31:06Z</time>
      </trkpt>
      <trkpt lat="42.26296" lon="2.23034">
        <ele>1414</ele>
        <time>2010-01-01T01:31:07Z</time>
      </trkpt>
      <trkpt lat="42.26298" lon="2.23036">
        <ele>1413</ele>
        <time>2010-01-01T01:31:08Z</time>
      </trkpt>
      <trkpt lat="42.26301" lon="2.23039">
        <ele>1412</ele>
        <time>2010-01-01T01:31:10Z</time>
      </trkpt>
      <trkpt lat="42.26304" lon="2.23043">
        <ele>1411</ele>
        <time>2010-01-01T01:31:11Z</time>
      </trkpt>
      <trkpt lat="42.26305" lon="2.23049">
        <ele>1409</ele>
        <time>2010-01-01T01:31:13Z</time>
      </trkpt>
      <trkpt lat="42.26307" lon="2.23057">
        <ele>1407</ele>
        <time>2010-01-01T01:31:16Z</time>
      </trkpt>
      <trkpt lat="42.26307" lon="2.23062">
        <ele>1406</ele>
        <time>2010-01-01T01:31:17Z</time>
      </trkpt>
      <trkpt lat="42.26308" lon="2.23064">
        <ele>1405</ele>
        <time>2010-01-01T01:31:18Z</time>
      </trkpt>
      <trkpt lat="42.26309" lon="2.23066">
        <ele>1404</ele>
        <time>2010-01-01T01:31:19Z</time>
      </trkpt>
      <trkpt lat="42.2631" lon="2.23069">
        <ele>1404</ele>
        <time>2010-01-01T01:31:20Z</time>
      </trkpt>
      <trkpt lat="42.26311" lon="2.23072">
        <ele>1403</ele>
        <time>2010-01-01T01:31:21Z</time>
      </trkpt>
      <trkpt lat="42.2631" lon="2.23076">
        <ele>1403</ele>
        <time>2010-01-01T01:31:22Z</time>
      </trkpt>
      <trkpt lat="42.26308" lon="2.23076">
        <ele>1403</ele>
        <time>2010-01-01T01:31:22Z</time>
      </trkpt>
      <trkpt lat="42.26307" lon="2.23079">
        <ele>1403</ele>
        <time>2010-01-01T01:31:23Z</time>
      </trkpt>
      <trkpt lat="42.26306" lon="2.23081">
        <ele>1403</ele>
        <time>2010-01-01T01:31:24Z</time>
      </trkpt>
      <trkpt lat="42.26305" lon="2.23083">
        <ele>1403</ele>
        <time>2010-01-01T01:31:25Z</time>
      </trkpt>
      <trkpt lat="42.26304" lon="2.23086">
        <ele>1402</ele>
        <time>2010-01-01T01:31:26Z</time>
      </trkpt>
      <trkpt lat="42.26303" lon="2.23089">
        <ele>1402</ele>
        <time>2010-01-01T01:31:27Z</time>
      </trkpt>
      <trkpt lat="42.26302" lon="2.23091">
        <ele>1401</ele>
        <time>2010-01-01T01:31:28Z</time>
      </trkpt>
      <trkpt lat="42.26301" lon="2.23094">
        <ele>1401</ele>
        <time>2010-01-01T01:31:29Z</time>
      </trkpt>
      <trkpt lat="42.26302" lon="2.23097">
        <ele>1400</ele>
        <time>2010-01-01T01:31:29Z</time>
      </trkpt>
      <trkpt lat="42.26302" lon="2.23099">
        <ele>1399</ele>
        <time>2010-01-01T01:31:30Z</time>
      </trkpt>
      <trkpt lat="42.263" lon="2.23099">
        <ele>1400</ele>
        <time>2010-01-01T01:31:31Z</time>
      </trkpt>
      <trkpt lat="42.26298" lon="2.23097">
        <ele>1400</ele>
        <time>2010-01-01T01:31:32Z</time>
      </trkpt>
      <trkpt lat="42.26297" lon="2.23096">
        <ele>1401</ele>
        <time>2010-01-01T01:31:33Z</time>
      </trkpt>
      <trkpt lat="42.26296" lon="2.23093">
        <ele>1401</ele>
        <time>2010-01-01T01:31:33Z</time>
      </trkpt>
      <trkpt lat="42.26297" lon="2.23091">
        <ele>1402</ele>
        <time>2010-01-01T01:31:34Z</time>
      </trkpt>
      <trkpt lat="42.26295" lon="2.23089">
        <ele>1402</ele>
        <time>2010-01-01T01:31:35Z</time>
      </trkpt>
      <trkpt lat="42.26294" lon="2.23088">
        <ele>1403</ele>
        <time>2010-01-01T01:31:36Z</time>
      </trkpt>
      <trkpt lat="42.26294" lon="2.23086">
        <ele>1403</ele>
        <time>2010-01-01T01:31:36Z</time>
      </trkpt>
      <trkpt lat="42.26294" lon="2.23083">
        <ele>1404</ele>
        <time>2010-01-01T01:31:37Z</time>
      </trkpt>
      <trkpt lat="42.26294" lon="2.2308">
        <ele>1404</ele>
        <time>2010-01-01T01:31:38Z</time>
      </trkpt>
      <trkpt lat="42.26292" lon="2.2308">
        <ele>1405</ele>
        <time>2010-01-01T01:31:39Z</time>
      </trkpt>
      <trkpt lat="42.26289" lon="2.23081">
        <ele>1405</ele>
        <time>2010-01-01T01:31:40Z</time>
      </trkpt>
      <trkpt lat="42.26288" lon="2.23082">
        <ele>1405</ele>
        <time>2010-01-01T01:31:41Z</time>
      </trkpt>
      <trkpt lat="42.26286" lon="2.23082">
        <ele>1405</ele>
        <time>2010-01-01T01:31:41Z</time>
      </trkpt>
      <trkpt lat="42.26284" lon="2.2308">
        <ele>1406</ele>
        <time>2010-01-01T01:31:42Z</time>
      </trkpt>
      <trkpt lat="42.26283" lon="2.23078">
        <ele>1406</ele>
        <time>2010-01-01T01:31:43Z</time>
      </trkpt>
      <trkpt lat="42.26281" lon="2.23075">
        <ele>1407</ele>
        <time>2010-01-01T01:31:44Z</time>
      </trkpt>
      <trkpt lat="42.26279" lon="2.23075">
        <ele>1407</ele>
        <time>2010-01-01T01:31:45Z</time>
      </trkpt>
      <trkpt lat="42.26277" lon="2.23075">
        <ele>1407</ele>
        <time>2010-01-01T01:31:46Z</time>
      </trkpt>
      <trkpt lat="42.26275" lon="2.23074">
        <ele>1407</ele>
        <time>2010-01-01T01:31:47Z</time>
      </trkpt>
      <trkpt lat="42.26274" lon="2.23072">
        <ele>1408</ele>
        <time>2010-01-01T01:31:47Z</time>
      </trkpt>
      <trkpt lat="42.26272" lon="2.23071">
        <ele>1408</ele>
        <time>2010-01-01T01:31:48Z</time>
      </trkpt>
      <trkpt lat="42.2627" lon="2.23069">
        <ele>1408</ele>
        <time>2010-01-01T01:31:49Z</time>
      </trkpt>
      <trkpt lat="42.26268" lon="2.23067">
        <ele>1408</ele>
        <time>2010-01-01T01:31:50Z</time>
      </trkpt>
      <trkpt lat="42.26268" lon="2.23064">
        <ele>1409</ele>
        <time>2010-01-01T01:31:51Z</time>
      </trkpt>
      <trkpt lat="42.26269" lon="2.23061">
        <ele>1410</ele>
        <time>2010-01-01T01:31:52Z</time>
      </trkpt>
      <trkpt lat="42.26268" lon="2.23059">
        <ele>1410</ele>
        <time>2010-01-01T01:31:53Z</time>
      </trkpt>
      <trkpt lat="42.26266" lon="2.23056">
        <ele>1411</ele>
        <time>2010-01-01T01:31:54Z</time>
      </trkpt>
      <trkpt lat="42.26265" lon="2.23053">
        <ele>1411</ele>
        <time>2010-01-01T01:31:55Z</time>
      </trkpt>
      <trkpt lat="42.26267" lon="2.2305">
        <ele>1412</ele>
        <time>2010-01-01T01:31:56Z</time>
      </trkpt>
      <trkpt lat="42.26269" lon="2.23046">
        <ele>1413</ele>
        <time>2010-01-01T01:31:58Z</time>
      </trkpt>
      <trkpt lat="42.26271" lon="2.23044">
        <ele>1413</ele>
        <time>2010-01-01T01:31:58Z</time>
      </trkpt>
      <trkpt lat="42.26274" lon="2.23043">
        <ele>1414</ele>
        <time>2010-01-01T01:31:59Z</time>
      </trkpt>
      <trkpt lat="42.26276" lon="2.23043">
        <ele>1414</ele>
        <time>2010-01-01T01:32:00Z</time>
      </trkpt>
      <trkpt lat="42.26277" lon="2.23041">
        <ele>1415</ele>
        <time>2010-01-01T01:32:01Z</time>
      </trkpt>
      <trkpt lat="42.26277" lon="2.23038">
        <ele>1415</ele>
        <time>2010-01-01T01:32:02Z</time>
      </trkpt>
      <trkpt lat="42.26278" lon="2.23034">
        <ele>1416</ele>
        <time>2010-01-01T01:32:03Z</time>
      </trkpt>
      <trkpt lat="42.26279" lon="2.2303">
        <ele>1416</ele>
        <time>2010-01-01T01:32:05Z</time>
      </trkpt>
      <trkpt lat="42.26281" lon="2.23027">
        <ele>1416</ele>
        <time>2010-01-01T01:32:06Z</time>
      </trkpt>
      <trkpt lat="42.26284" lon="2.23024">
        <ele>1416</ele>
        <time>2010-01-01T01:32:07Z</time>
      </trkpt>
      <trkpt lat="42.26287" lon="2.23022">
        <ele>1416</ele>
        <time>2010-01-01T01:32:09Z</time>
      </trkpt>
      <trkpt lat="42.2629" lon="2.2302">
        <ele>1416</ele>
        <time>2010-01-01T01:32:10Z</time>
      </trkpt>
      <trkpt lat="42.26292" lon="2.23018">
        <ele>1417</ele>
        <time>2010-01-01T01:32:11Z</time>
      </trkpt>
      <trkpt lat="42.26294" lon="2.23016">
        <ele>1417</ele>
        <time>2010-01-01T01:32:12Z</time>
      </trkpt>
      <trkpt lat="42.26296" lon="2.23014">
        <ele>1417</ele>
        <time>2010-01-01T01:32:13Z</time>
      </trkpt>
      <trkpt lat="42.26298" lon="2.23014">
        <ele>1417</ele>
        <time>2010-01-01T01:32:14Z</time>
      </trkpt>
      <trkpt lat="42.263" lon="2.23012">
        <ele>1417</ele>
        <time>2010-01-01T01:32:15Z</time>
      </trkpt>
      <trkpt lat="42.26303" lon="2.2301">
        <ele>1417</ele>
        <time>2010-01-01T01:32:16Z</time>
      </trkpt>
      <trkpt lat="42.26305" lon="2.23007">
        <ele>1417</ele>
        <time>2010-01-01T01:32:17Z</time>
      </trkpt>
      <trkpt lat="42.26309" lon="2.23005">
        <ele>1416</ele>
        <time>2010-01-01T01:32:19Z</time>
      </trkpt>
      <trkpt lat="42.26311" lon="2.23003">
        <ele>1416</ele>
        <time>2010-01-01T01:32:20Z</time>
      </trkpt>
      <trkpt lat="42.26312" lon="2.23002">
        <ele>1415</ele>
        <time>2010-01-01T01:32:20Z</time>
      </trkpt>
      <trkpt lat="42.26314" lon="2.23001">
        <ele>1415</ele>
        <time>2010-01-01T01:32:21Z</time>
      </trkpt>
      <trkpt lat="42.26315" lon="2.22999">
        <ele>1415</ele>
        <time>2010-01-01T01:32:22Z</time>
      </trkpt>
      <trkpt lat="42.26317" lon="2.22997">
        <ele>1414</ele>
        <time>2010-01-01T01:32:23Z</time>
      </trkpt>
      <trkpt lat="42.26319" lon="2.22996">
        <ele>1414</ele>
        <time>2010-01-01T01:32:24Z</time>
      </trkpt>
      <trkpt lat="42.26321" lon="2.22993">
        <ele>1414</ele>
        <time>2010-01-01T01:32:25Z</time>
      </trkpt>
      <trkpt lat="42.26323" lon="2.22991">
        <ele>1414</ele>
        <time>2010-01-01T01:32:26Z</time>
      </trkpt>
      <trkpt lat="42.26325" lon="2.22992">
        <ele>1413</ele>
        <time>2010-01-01T01:32:27Z</time>
      </trkpt>
      <trkpt lat="42.26328" lon="2.22994">
        <ele>1412</ele>
        <time>2010-01-01T01:32:28Z</time>
      </trkpt>
      <trkpt lat="42.2633" lon="2.22995">
        <ele>1411</ele>
        <time>2010-01-01T01:32:29Z</time>
      </trkpt>
      <trkpt lat="42.26333" lon="2.22997">
        <ele>1409</ele>
        <time>2010-01-01T01:32:30Z</time>
      </trkpt>
      <trkpt lat="42.26335" lon="2.22998">
        <ele>1408</ele>
        <time>2010-01-01T01:32:31Z</time>
      </trkpt>
      <trkpt lat="42.26337" lon="2.22998">
        <ele>1407</ele>
        <time>2010-01-01T01:32:32Z</time>
      </trkpt>
      <trkpt lat="42.26339" lon="2.23">
        <ele>1405</ele>
        <time>2010-01-01T01:32:33Z</time>
      </trkpt>
      <trkpt lat="42.26341" lon="2.22999">
        <ele>1405</ele>
        <time>2010-01-01T01:32:34Z</time>
      </trkpt>
      <trkpt lat="42.26343" lon="2.22997">
        <ele>1404</ele>
        <time>2010-01-01T01:32:34Z</time>
      </trkpt>
      <trkpt lat="42.26345" lon="2.22997">
        <ele>1403</ele>
        <time>2010-01-01T01:32:35Z</time>
      </trkpt>
      <trkpt lat="42.26347" lon="2.22995">
        <ele>1402</ele>
        <time>2010-01-01T01:32:36Z</time>
      </trkpt>
      <trkpt lat="42.26349" lon="2.22994">
        <ele>1401</ele>
        <time>2010-01-01T01:32:37Z</time>
      </trkpt>
      <trkpt lat="42.26351" lon="2.22995">
        <ele>1400</ele>
        <time>2010-01-01T01:32:38Z</time>
      </trkpt>
      <trkpt lat="42.26354" lon="2.22995">
        <ele>1398</ele>
        <time>2010-01-01T01:32:39Z</time>
      </trkpt>
      <trkpt lat="42.26356" lon="2.22995">
        <ele>1397</ele>
        <time>2010-01-01T01:32:40Z</time>
      </trkpt>
      <trkpt lat="42.26357" lon="2.22994">
        <ele>1397</ele>
        <time>2010-01-01T01:32:41Z</time>
      </trkpt>
      <trkpt lat="42.26359" lon="2.22993">
        <ele>1396</ele>
        <time>2010-01-01T01:32:42Z</time>
      </trkpt>
      <trkpt lat="42.26361" lon="2.22994">
        <ele>1395</ele>
        <time>2010-01-01T01:32:42Z</time>
      </trkpt>
      <trkpt lat="42.26363" lon="2.22995">
        <ele>1393</ele>
        <time>2010-01-01T01:32:43Z</time>
      </trkpt>
      <trkpt lat="42.26365" lon="2.22995">
        <ele>1392</ele>
        <time>2010-01-01T01:32:44Z</time>
      </trkpt>
      <trkpt lat="42.26367" lon="2.22995">
        <ele>1391</ele>
        <time>2010-01-01T01:32:45Z</time>
      </trkpt>
      <trkpt lat="42.26368" lon="2.22996">
        <ele>1390</ele>
        <time>2010-01-01T01:32:46Z</time>
      </trkpt>
      <trkpt lat="42.2637" lon="2.22994">
        <ele>1389</ele>
        <time>2010-01-01T01:32:46Z</time>
      </trkpt>
      <trkpt lat="42.26371" lon="2.22996">
        <ele>1388</ele>
        <time>2010-01-01T01:32:47Z</time>
      </trkpt>
      <trkpt lat="42.26372" lon="2.22998">
        <ele>1387</ele>
        <time>2010-01-01T01:32:48Z</time>
      </trkpt>
      <trkpt lat="42.26373" lon="2.23004">
        <ele>1385</ele>
        <time>2010-01-01T01:32:50Z</time>
      </trkpt>
      <trkpt lat="42.26374" lon="2.23001">
        <ele>1385</ele>
        <time>2010-01-01T01:32:51Z</time>
      </trkpt>
      <trkpt lat="42.26376" lon="2.23003">
        <ele>1383</ele>
        <time>2010-01-01T01:32:51Z</time>
      </trkpt>
      <trkpt lat="42.26377" lon="2.23006">
        <ele>1383</ele>
        <time>2010-01-01T01:32:52Z</time>
      </trkpt>
      <trkpt lat="42.26378" lon="2.23008">
        <ele>1382</ele>
        <time>2010-01-01T01:32:53Z</time>
      </trkpt>
      <trkpt lat="42.26378" lon="2.23011">
        <ele>1381</ele>
        <time>2010-01-01T01:32:54Z</time>
      </trkpt>
      <trkpt lat="42.2638" lon="2.23012">
        <ele>1380</ele>
        <time>2010-01-01T01:32:55Z</time>
      </trkpt>
      <trkpt lat="42.26382" lon="2.23011">
        <ele>1379</ele>
        <time>2010-01-01T01:32:56Z</time>
      </trkpt>
      <trkpt lat="42.26384" lon="2.23013">
        <ele>1377</ele>
        <time>2010-01-01T01:32:56Z</time>
      </trkpt>
      <trkpt lat="42.26384" lon="2.23016">
        <ele>1376</ele>
        <time>2010-01-01T01:32:57Z</time>
      </trkpt>
      <trkpt lat="42.26386" lon="2.23014">
        <ele>1375</ele>
        <time>2010-01-01T01:32:58Z</time>
      </trkpt>
      <trkpt lat="42.26387" lon="2.23012">
        <ele>1375</ele>
        <time>2010-01-01T01:32:59Z</time>
      </trkpt>
      <trkpt lat="42.26389" lon="2.23013">
        <ele>1373</ele>
        <time>2010-01-01T01:33:00Z</time>
      </trkpt>
      <trkpt lat="42.26394" lon="2.23017">
        <ele>1369</ele>
        <time>2010-01-01T01:33:02Z</time>
      </trkpt>
      <trkpt lat="42.26396" lon="2.23016">
        <ele>1368</ele>
        <time>2010-01-01T01:33:03Z</time>
      </trkpt>
      <trkpt lat="42.26397" lon="2.23018">
        <ele>1367</ele>
        <time>2010-01-01T01:33:03Z</time>
      </trkpt>
      <trkpt lat="42.26398" lon="2.2302">
        <ele>1366</ele>
        <time>2010-01-01T01:33:04Z</time>
      </trkpt>
      <trkpt lat="42.264" lon="2.23019">
        <ele>1365</ele>
        <time>2010-01-01T01:33:05Z</time>
      </trkpt>
      <trkpt lat="42.26402" lon="2.23018">
        <ele>1364</ele>
        <time>2010-01-01T01:33:06Z</time>
      </trkpt>
      <trkpt lat="42.26402" lon="2.23016">
        <ele>1364</ele>
        <time>2010-01-01T01:33:07Z</time>
      </trkpt>
      <trkpt lat="42.26404" lon="2.23014">
        <ele>1363</ele>
        <time>2010-01-01T01:33:07Z</time>
      </trkpt>
      <trkpt lat="42.26406" lon="2.23014">
        <ele>1362</ele>
        <time>2010-01-01T01:33:08Z</time>
      </trkpt>
      <trkpt lat="42.26407" lon="2.23012">
        <ele>1361</ele>
        <time>2010-01-01T01:33:09Z</time>
      </trkpt>
      <trkpt lat="42.26409" lon="2.23012">
        <ele>1359</ele>
        <time>2010-01-01T01:33:10Z</time>
      </trkpt>
      <trkpt lat="42.26412" lon="2.23012">
        <ele>1358</ele>
        <time>2010-01-01T01:33:11Z</time>
      </trkpt>
      <trkpt lat="42.26414" lon="2.2301">
        <ele>1357</ele>
        <time>2010-01-01T01:33:12Z</time>
      </trkpt>
      <trkpt lat="42.26416" lon="2.2301">
        <ele>1355</ele>
        <time>2010-01-01T01:33:12Z</time>
      </trkpt>
      <trkpt lat="42.26419" lon="2.23011">
        <ele>1353</ele>
        <time>2010-01-01T01:33:14Z</time>
      </trkpt>
      <trkpt lat="42.26422" lon="2.23011">
        <ele>1352</ele>
        <time>2010-01-01T01:33:15Z</time>
      </trkpt>
      <trkpt lat="42.26423" lon="2.23009">
        <ele>1351</ele>
        <time>2010-01-01T01:33:16Z</time>
      </trkpt>
      <trkpt lat="42.26425" lon="2.23009">
        <ele>1350</ele>
        <time>2010-01-01T01:33:16Z</time>
      </trkpt>
      <trkpt lat="42.26434" lon="2.23012">
        <ele>1345</ele>
        <time>2010-01-01T01:33:20Z</time>
      </trkpt>
      <trkpt lat="42.26434" lon="2.23009">
        <ele>1345</ele>
        <time>2010-01-01T01:33:21Z</time>
      </trkpt>
      <trkpt lat="42.26435" lon="2.23012">
        <ele>1344</ele>
        <time>2010-01-01T01:33:22Z</time>
      </trkpt>
      <trkpt lat="42.26437" lon="2.23017">
        <ele>1342</ele>
        <time>2010-01-01T01:33:23Z</time>
      </trkpt>
      <trkpt lat="42.26443" lon="2.23024">
        <ele>1339</ele>
        <time>2010-01-01T01:33:27Z</time>
      </trkpt>
      <trkpt lat="42.26442" lon="2.23027">
        <ele>1339</ele>
        <time>2010-01-01T01:33:27Z</time>
      </trkpt>
      <trkpt lat="42.26444" lon="2.23026">
        <ele>1338</ele>
        <time>2010-01-01T01:33:28Z</time>
      </trkpt>
      <trkpt lat="42.26445" lon="2.23028">
        <ele>1337</ele>
        <time>2010-01-01T01:33:29Z</time>
      </trkpt>
      <trkpt lat="42.26446" lon="2.23027">
        <ele>1336</ele>
        <time>2010-01-01T01:33:30Z</time>
      </trkpt>
      <trkpt lat="42.26448" lon="2.23028">
        <ele>1335</ele>
        <time>2010-01-01T01:33:31Z</time>
      </trkpt>
      <trkpt lat="42.2645" lon="2.23027">
        <ele>1334</ele>
        <time>2010-01-01T01:33:32Z</time>
      </trkpt>
      <trkpt lat="42.26452" lon="2.23027">
        <ele>1333</ele>
        <time>2010-01-01T01:33:32Z</time>
      </trkpt>
      <trkpt lat="42.26457" lon="2.23029">
        <ele>1330</ele>
        <time>2010-01-01T01:33:34Z</time>
      </trkpt>
      <trkpt lat="42.26454" lon="2.2303">
        <ele>1331</ele>
        <time>2010-01-01T01:33:35Z</time>
      </trkpt>
      <trkpt lat="42.26452" lon="2.23031">
        <ele>1332</ele>
        <time>2010-01-01T01:33:36Z</time>
      </trkpt>
      <trkpt lat="42.26454" lon="2.23032">
        <ele>1331</ele>
        <time>2010-01-01T01:33:37Z</time>
      </trkpt>
      <trkpt lat="42.26454" lon="2.23035">
        <ele>1330</ele>
        <time>2010-01-01T01:33:38Z</time>
      </trkpt>
      <trkpt lat="42.26455" lon="2.23038">
        <ele>1329</ele>
        <time>2010-01-01T01:33:38Z</time>
      </trkpt>
      <trkpt lat="42.26455" lon="2.23041">
        <ele>1329</ele>
        <time>2010-01-01T01:33:39Z</time>
      </trkpt>
      <trkpt lat="42.26455" lon="2.23044">
        <ele>1328</ele>
        <time>2010-01-01T01:33:40Z</time>
      </trkpt>
      <trkpt lat="42.26455" lon="2.23047">
        <ele>1328</ele>
        <time>2010-01-01T01:33:41Z</time>
      </trkpt>
      <trkpt lat="42.26455" lon="2.2305">
        <ele>1327</ele>
        <time>2010-01-01T01:33:42Z</time>
      </trkpt>
      <trkpt lat="42.26455" lon="2.23053">
        <ele>1327</ele>
        <time>2010-01-01T01:33:43Z</time>
      </trkpt>
      <trkpt lat="42.26455" lon="2.23056">
        <ele>1326</ele>
        <time>2010-01-01T01:33:44Z</time>
      </trkpt>
      <trkpt lat="42.26454" lon="2.2306">
        <ele>1325</ele>
        <time>2010-01-01T01:33:45Z</time>
      </trkpt>
      <trkpt lat="42.26455" lon="2.23066">
        <ele>1324</ele>
        <time>2010-01-01T01:33:47Z</time>
      </trkpt>
      <trkpt lat="42.26456" lon="2.23072">
        <ele>1322</ele>
        <time>2010-01-01T01:33:48Z</time>
      </trkpt>
      <trkpt lat="42.26457" lon="2.23078">
        <ele>1320</ele>
        <time>2010-01-01T01:33:50Z</time>
      </trkpt>
      <trkpt lat="42.26458" lon="2.23083">
        <ele>1318</ele>
        <time>2010-01-01T01:33:52Z</time>
      </trkpt>
      <trkpt lat="42.26457" lon="2.2309">
        <ele>1318</ele>
        <time>2010-01-01T01:33:54Z</time>
      </trkpt>
      <trkpt lat="42.26458" lon="2.23101">
        <ele>1317</ele>
        <time>2010-01-01T01:33:57Z</time>
      </trkpt>
      <trkpt lat="42.26455" lon="2.23104">
        <ele>1319</ele>
        <time>2010-01-01T01:33:59Z</time>
      </trkpt>
      <trkpt lat="42.26455" lon="2.23108">
        <ele>1319</ele>
        <time>2010-01-01T01:34:00Z</time>
      </trkpt>
      <trkpt lat="42.26454" lon="2.23112">
        <ele>1319</ele>
        <time>2010-01-01T01:34:01Z</time>
      </trkpt>
      <trkpt lat="42.26452" lon="2.23117">
        <ele>1320</ele>
        <time>2010-01-01T01:34:03Z</time>
      </trkpt>
      <trkpt lat="42.2645" lon="2.23122">
        <ele>1322</ele>
        <time>2010-01-01T01:34:04Z</time>
      </trkpt>
      <trkpt lat="42.26448" lon="2.23126">
        <ele>1323</ele>
        <time>2010-01-01T01:34:06Z</time>
      </trkpt>
      <trkpt lat="42.26446" lon="2.2313">
        <ele>1325</ele>
        <time>2010-01-01T01:34:08Z</time>
      </trkpt>
      <trkpt lat="42.26444" lon="2.23135">
        <ele>1326</ele>
        <time>2010-01-01T01:34:09Z</time>
      </trkpt>
      <trkpt lat="42.26442" lon="2.23141">
        <ele>1327</ele>
        <time>2010-01-01T01:34:11Z</time>
      </trkpt>
      <trkpt lat="42.26439" lon="2.23148">
        <ele>1327</ele>
        <time>2010-01-01T01:34:13Z</time>
      </trkpt>
      <trkpt lat="42.26436" lon="2.23153">
        <ele>1327</ele>
        <time>2010-01-01T01:34:15Z</time>
      </trkpt>
      <trkpt lat="42.26433" lon="2.23158">
        <ele>1327</ele>
        <time>2010-01-01T01:34:17Z</time>
      </trkpt>
      <trkpt lat="42.26432" lon="2.23162">
        <ele>1327</ele>
        <time>2010-01-01T01:34:19Z</time>
      </trkpt>
      <trkpt lat="42.2643" lon="2.23169">
        <ele>1326</ele>
        <time>2010-01-01T01:34:21Z</time>
      </trkpt>
      <trkpt lat="42.26428" lon="2.23174">
        <ele>1326</ele>
        <time>2010-01-01T01:34:23Z</time>
      </trkpt>
      <trkpt lat="42.26426" lon="2.2318">
        <ele>1326</ele>
        <time>2010-01-01T01:34:24Z</time>
      </trkpt>
      <trkpt lat="42.26422" lon="2.23186">
        <ele>1327</ele>
        <time>2010-01-01T01:34:27Z</time>
      </trkpt>
      <trkpt lat="42.2642" lon="2.2319">
        <ele>1328</ele>
        <time>2010-01-01T01:34:28Z</time>
      </trkpt>
      <trkpt lat="42.26416" lon="2.23195">
        <ele>1329</ele>
        <time>2010-01-01T01:34:30Z</time>
      </trkpt>
      <trkpt lat="42.26414" lon="2.23199">
        <ele>1328</ele>
        <time>2010-01-01T01:34:32Z</time>
      </trkpt>
      <trkpt lat="42.2641" lon="2.23203">
        <ele>1328</ele>
        <time>2010-01-01T01:34:34Z</time>
      </trkpt>
      <trkpt lat="42.26409" lon="2.23205">
        <ele>1328</ele>
        <time>2010-01-01T01:34:35Z</time>
      </trkpt>
      <trkpt lat="42.26406" lon="2.23208">
        <ele>1329</ele>
        <time>2010-01-01T01:34:36Z</time>
      </trkpt>
      <trkpt lat="42.26401" lon="2.23212">
        <ele>1329</ele>
        <time>2010-01-01T01:34:38Z</time>
      </trkpt>
      <trkpt lat="42.26398" lon="2.23215">
        <ele>1330</ele>
        <time>2010-01-01T01:34:40Z</time>
      </trkpt>
      <trkpt lat="42.26387" lon="2.23218">
        <ele>1334</ele>
        <time>2010-01-01T01:34:44Z</time>
      </trkpt>
      <trkpt lat="42.26383" lon="2.23223">
        <ele>1334</ele>
        <time>2010-01-01T01:34:46Z</time>
      </trkpt>
      <trkpt lat="42.26375" lon="2.23228">
        <ele>1337</ele>
        <time>2010-01-01T01:34:50Z</time>
      </trkpt>
      <trkpt lat="42.2637" lon="2.23233">
        <ele>1338</ele>
        <time>2010-01-01T01:34:52Z</time>
      </trkpt>
      <trkpt lat="42.26366" lon="2.23239">
        <ele>1338</ele>
        <time>2010-01-01T01:34:55Z</time>
      </trkpt>
      <trkpt lat="42.26362" lon="2.23242">
        <ele>1339</ele>
        <time>2010-01-01T01:34:57Z</time>
      </trkpt>
      <trkpt lat="42.26358" lon="2.23245">
        <ele>1340</ele>
        <time>2010-01-01T01:34:59Z</time>
      </trkpt>
      <trkpt lat="42.26354" lon="2.2325">
        <ele>1340</ele>
        <time>2010-01-01T01:35:01Z</time>
      </trkpt>
      <trkpt lat="42.2635" lon="2.23255">
        <ele>1340</ele>
        <time>2010-01-01T01:35:03Z</time>
      </trkpt>
      <trkpt lat="42.26347" lon="2.2326">
        <ele>1339</ele>
        <time>2010-01-01T01:35:05Z</time>
      </trkpt>
      <trkpt lat="42.26343" lon="2.23265">
        <ele>1339</ele>
        <time>2010-01-01T01:35:07Z</time>
      </trkpt>
      <trkpt lat="42.26339" lon="2.23269">
        <ele>1338</ele>
        <time>2010-01-01T01:35:09Z</time>
      </trkpt>
      <trkpt lat="42.26334" lon="2.23274">
        <ele>1338</ele>
        <time>2010-01-01T01:35:11Z</time>
      </trkpt>
      <trkpt lat="42.26331" lon="2.23279">
        <ele>1337</ele>
        <time>2010-01-01T01:35:13Z</time>
      </trkpt>
      <trkpt lat="42.26326" lon="2.23285">
        <ele>1336</ele>
        <time>2010-01-01T01:35:16Z</time>
      </trkpt>
      <trkpt lat="42.26321" lon="2.23289">
        <ele>1335</ele>
        <time>2010-01-01T01:35:18Z</time>
      </trkpt>
      <trkpt lat="42.26317" lon="2.23293">
        <ele>1334</ele>
        <time>2010-01-01T01:35:20Z</time>
      </trkpt>
      <trkpt lat="42.26313" lon="2.23298">
        <ele>1333</ele>
        <time>2010-01-01T01:35:22Z</time>
      </trkpt>
      <trkpt lat="42.26309" lon="2.23302">
        <ele>1332</ele>
        <time>2010-01-01T01:35:25Z</time>
      </trkpt>
      <trkpt lat="42.26305" lon="2.23305">
        <ele>1332</ele>
        <time>2010-01-01T01:35:26Z</time>
      </trkpt>
      <trkpt lat="42.263" lon="2.23306">
        <ele>1332</ele>
        <time>2010-01-01T01:35:28Z</time>
      </trkpt>
      <trkpt lat="42.2629" lon="2.23311">
        <ele>1332</ele>
        <time>2010-01-01T01:35:33Z</time>
      </trkpt>
      <trkpt lat="42.26286" lon="2.23319">
        <ele>1331</ele>
        <time>2010-01-01T01:35:35Z</time>
      </trkpt>
      <trkpt lat="42.26283" lon="2.23323">
        <ele>1330</ele>
        <time>2010-01-01T01:35:37Z</time>
      </trkpt>
      <trkpt lat="42.26281" lon="2.23328">
        <ele>1329</ele>
        <time>2010-01-01T01:35:39Z</time>
      </trkpt>
      <trkpt lat="42.26278" lon="2.23334">
        <ele>1328</ele>
        <time>2010-01-01T01:35:41Z</time>
      </trkpt>
      <trkpt lat="42.26273" lon="2.23339">
        <ele>1328</ele>
        <time>2010-01-01T01:35:43Z</time>
      </trkpt>
      <trkpt lat="42.26269" lon="2.23343">
        <ele>1328</ele>
        <time>2010-01-01T01:35:45Z</time>
      </trkpt>
      <trkpt lat="42.26264" lon="2.23346">
        <ele>1329</ele>
        <time>2010-01-01T01:35:48Z</time>
      </trkpt>
      <trkpt lat="42.26259" lon="2.23349">
        <ele>1329</ele>
        <time>2010-01-01T01:35:50Z</time>
      </trkpt>
      <trkpt lat="42.26255" lon="2.2335">
        <ele>1329</ele>
        <time>2010-01-01T01:35:51Z</time>
      </trkpt>
      <trkpt lat="42.26251" lon="2.23351">
        <ele>1330</ele>
        <time>2010-01-01T01:35:53Z</time>
      </trkpt>
      <trkpt lat="42.26246" lon="2.23353">
        <ele>1330</ele>
        <time>2010-01-01T01:35:55Z</time>
      </trkpt>
      <trkpt lat="42.2624" lon="2.23355">
        <ele>1330</ele>
        <time>2010-01-01T01:35:57Z</time>
      </trkpt>
      <trkpt lat="42.26235" lon="2.23357">
        <ele>1329</ele>
        <time>2010-01-01T01:36:00Z</time>
      </trkpt>
      <trkpt lat="42.2623" lon="2.23358">
        <ele>1329</ele>
        <time>2010-01-01T01:36:02Z</time>
      </trkpt>
      <trkpt lat="42.26224" lon="2.23359">
        <ele>1330</ele>
        <time>2010-01-01T01:36:04Z</time>
      </trkpt>
      <trkpt lat="42.26217" lon="2.2336">
        <ele>1330</ele>
        <time>2010-01-01T01:36:07Z</time>
      </trkpt>
      <trkpt lat="42.26205" lon="2.23362">
        <ele>1329</ele>
        <time>2010-01-01T01:36:12Z</time>
      </trkpt>
      <trkpt lat="42.26199" lon="2.23361">
        <ele>1330</ele>
        <time>2010-01-01T01:36:14Z</time>
      </trkpt>
      <trkpt lat="42.26192" lon="2.23361">
        <ele>1330</ele>
        <time>2010-01-01T01:36:17Z</time>
      </trkpt>
      <trkpt lat="42.26186" lon="2.23361">
        <ele>1330</ele>
        <time>2010-01-01T01:36:19Z</time>
      </trkpt>
      <trkpt lat="42.26181" lon="2.23364">
        <ele>1330</ele>
        <time>2010-01-01T01:36:21Z</time>
      </trkpt>
      <trkpt lat="42.26178" lon="2.2337">
        <ele>1330</ele>
        <time>2010-01-01T01:36:24Z</time>
      </trkpt>
      <trkpt lat="42.26178" lon="2.23376">
        <ele>1329</ele>
        <time>2010-01-01T01:36:25Z</time>
      </trkpt>
      <trkpt lat="42.26179" lon="2.2338">
        <ele>1329</ele>
        <time>2010-01-01T01:36:27Z</time>
      </trkpt>
      <trkpt lat="42.26181" lon="2.23386">
        <ele>1328</ele>
        <time>2010-01-01T01:36:29Z</time>
      </trkpt>
      <trkpt lat="42.26184" lon="2.23392">
        <ele>1327</ele>
        <time>2010-01-01T01:36:31Z</time>
      </trkpt>
      <trkpt lat="42.26186" lon="2.23399">
        <ele>1326</ele>
        <time>2010-01-01T01:36:33Z</time>
      </trkpt>
      <trkpt lat="42.26188" lon="2.23405">
        <ele>1326</ele>
        <time>2010-01-01T01:36:35Z</time>
      </trkpt>
      <trkpt lat="42.26195" lon="2.23418">
        <ele>1325</ele>
        <time>2010-01-01T01:36:40Z</time>
      </trkpt>
      <trkpt lat="42.26202" lon="2.23426">
        <ele>1324</ele>
        <time>2010-01-01T01:36:43Z</time>
      </trkpt>
      <trkpt lat="42.26206" lon="2.2343">
        <ele>1323</ele>
        <time>2010-01-01T01:36:46Z</time>
      </trkpt>
      <trkpt lat="42.26212" lon="2.23434">
        <ele>1322</ele>
        <time>2010-01-01T01:36:48Z</time>
      </trkpt>
      <trkpt lat="42.26217" lon="2.23436">
        <ele>1320</ele>
        <time>2010-01-01T01:36:50Z</time>
      </trkpt>
      <trkpt lat="42.26223" lon="2.23439">
        <ele>1318</ele>
        <time>2010-01-01T01:36:53Z</time>
      </trkpt>
      <trkpt lat="42.26229" lon="2.23441">
        <ele>1316</ele>
        <time>2010-01-01T01:36:55Z</time>
      </trkpt>
      <trkpt lat="42.26234" lon="2.23444">
        <ele>1315</ele>
        <time>2010-01-01T01:36:57Z</time>
      </trkpt>
      <trkpt lat="42.2624" lon="2.23445">
        <ele>1313</ele>
        <time>2010-01-01T01:37:00Z</time>
      </trkpt>
      <trkpt lat="42.26246" lon="2.23446">
        <ele>1311</ele>
        <time>2010-01-01T01:37:02Z</time>
      </trkpt>
      <trkpt lat="42.26253" lon="2.23446">
        <ele>1309</ele>
        <time>2010-01-01T01:37:05Z</time>
      </trkpt>
      <trkpt lat="42.2626" lon="2.23446">
        <ele>1308</ele>
        <time>2010-01-01T01:37:08Z</time>
      </trkpt>
      <trkpt lat="42.26266" lon="2.23447">
        <ele>1306</ele>
        <time>2010-01-01T01:37:10Z</time>
      </trkpt>
      <trkpt lat="42.26273" lon="2.23448">
        <ele>1305</ele>
        <time>2010-01-01T01:37:13Z</time>
      </trkpt>
      <trkpt lat="42.26279" lon="2.23448">
        <ele>1304</ele>
        <time>2010-01-01T01:37:16Z</time>
      </trkpt>
      <trkpt lat="42.26285" lon="2.23449">
        <ele>1303</ele>
        <time>2010-01-01T01:37:18Z</time>
      </trkpt>
      <trkpt lat="42.26291" lon="2.23451">
        <ele>1303</ele>
        <time>2010-01-01T01:37:20Z</time>
      </trkpt>
      <trkpt lat="42.26297" lon="2.23454">
        <ele>1302</ele>
        <time>2010-01-01T01:37:23Z</time>
      </trkpt>
      <trkpt lat="42.26303" lon="2.23457">
        <ele>1301</ele>
        <time>2010-01-01T01:37:25Z</time>
      </trkpt>
      <trkpt lat="42.26309" lon="2.23459">
        <ele>1300</ele>
        <time>2010-01-01T01:37:28Z</time>
      </trkpt>
      <trkpt lat="42.26315" lon="2.23459">
        <ele>1300</ele>
        <time>2010-01-01T01:37:30Z</time>
      </trkpt>
      <trkpt lat="42.2632" lon="2.23456">
        <ele>1301</ele>
        <time>2010-01-01T01:37:33Z</time>
      </trkpt>
      <trkpt lat="42.26324" lon="2.23453">
        <ele>1302</ele>
        <time>2010-01-01T01:37:35Z</time>
      </trkpt>
      <trkpt lat="42.26328" lon="2.23447">
        <ele>1303</ele>
        <time>2010-01-01T01:37:37Z</time>
      </trkpt>
      <trkpt lat="42.26332" lon="2.23442">
        <ele>1304</ele>
        <time>2010-01-01T01:37:39Z</time>
      </trkpt>
      <trkpt lat="42.26335" lon="2.23437">
        <ele>1304</ele>
        <time>2010-01-01T01:37:41Z</time>
      </trkpt>
      <trkpt lat="42.26339" lon="2.23432">
        <ele>1304</ele>
        <time>2010-01-01T01:37:43Z</time>
      </trkpt>
      <trkpt lat="42.2634" lon="2.2343">
        <ele>1304</ele>
        <time>2010-01-01T01:37:44Z</time>
      </trkpt>
      <trkpt lat="42.26343" lon="2.23428">
        <ele>1303</ele>
        <time>2010-01-01T01:37:45Z</time>
      </trkpt>
      <trkpt lat="42.26345" lon="2.23426">
        <ele>1303</ele>
        <time>2010-01-01T01:37:46Z</time>
      </trkpt>
      <trkpt lat="42.26349" lon="2.23425">
        <ele>1302</ele>
        <time>2010-01-01T01:37:48Z</time>
      </trkpt>
      <trkpt lat="42.26351" lon="2.23424">
        <ele>1301</ele>
        <time>2010-01-01T01:37:49Z</time>
      </trkpt>
      <trkpt lat="42.26354" lon="2.23423">
        <ele>1300</ele>
        <time>2010-01-01T01:37:50Z</time>
      </trkpt>
      <trkpt lat="42.26355" lon="2.2342">
        <ele>1300</ele>
        <time>2010-01-01T01:37:51Z</time>
      </trkpt>
      <trkpt lat="42.26357" lon="2.23419">
        <ele>1299</ele>
        <time>2010-01-01T01:37:52Z</time>
      </trkpt>
      <trkpt lat="42.26359" lon="2.23418">
        <ele>1299</ele>
        <time>2010-01-01T01:37:52Z</time>
      </trkpt>
      <trkpt lat="42.26361" lon="2.2342">
        <ele>1298</ele>
        <time>2010-01-01T01:37:53Z</time>
      </trkpt>
      <trkpt lat="42.26362" lon="2.23413">
        <ele>1299</ele>
        <time>2010-01-01T01:37:55Z</time>
      </trkpt>
      <trkpt lat="42.26362" lon="2.23415">
        <ele>1298</ele>
        <time>2010-01-01T01:37:56Z</time>
      </trkpt>
      <trkpt lat="42.26359" lon="2.23415">
        <ele>1300</ele>
        <time>2010-01-01T01:37:57Z</time>
      </trkpt>
      <trkpt lat="42.26359" lon="2.23418">
        <ele>1299</ele>
        <time>2010-01-01T01:37:58Z</time>
      </trkpt>
      <trkpt lat="42.26357" lon="2.2342">
        <ele>1299</ele>
        <time>2010-01-01T01:37:59Z</time>
      </trkpt>
      <trkpt lat="42.26357" lon="2.23423">
        <ele>1299</ele>
        <time>2010-01-01T01:38:00Z</time>
      </trkpt>
      <trkpt lat="42.26357" lon="2.23425">
        <ele>1298</ele>
        <time>2010-01-01T01:38:01Z</time>
      </trkpt>
      <trkpt lat="42.26358" lon="2.23422">
        <ele>1299</ele>
        <time>2010-01-01T01:38:02Z</time>
      </trkpt>
      <trkpt lat="42.2636" lon="2.23421">
        <ele>1298</ele>
        <time>2010-01-01T01:38:03Z</time>
      </trkpt>
      <trkpt lat="42.26362" lon="2.23419">
        <ele>1297</ele>
        <time>2010-01-01T01:38:04Z</time>
      </trkpt>
      <trkpt lat="42.26365" lon="2.23418">
        <ele>1296</ele>
        <time>2010-01-01T01:38:05Z</time>
      </trkpt>
      <trkpt lat="42.26367" lon="2.23417">
        <ele>1295</ele>
        <time>2010-01-01T01:38:06Z</time>
      </trkpt>
      <trkpt lat="42.26368" lon="2.23417">
        <ele>1294</ele>
        <time>2010-01-01T01:38:07Z</time>
      </trkpt>
      <trkpt lat="42.26371" lon="2.23416">
        <ele>1292</ele>
        <time>2010-01-01T01:38:08Z</time>
      </trkpt>
      <trkpt lat="42.26374" lon="2.23414">
        <ele>1291</ele>
        <time>2010-01-01T01:38:09Z</time>
      </trkpt>
      <trkpt lat="42.26377" lon="2.23412">
        <ele>1289</ele>
        <time>2010-01-01T01:38:10Z</time>
      </trkpt>
      <trkpt lat="42.2638" lon="2.23412">
        <ele>1287</ele>
        <time>2010-01-01T01:38:11Z</time>
      </trkpt>
      <trkpt lat="42.26383" lon="2.2341">
        <ele>1285</ele>
        <time>2010-01-01T01:38:13Z</time>
      </trkpt>
      <trkpt lat="42.26387" lon="2.23409">
        <ele>1283</ele>
        <time>2010-01-01T01:38:14Z</time>
      </trkpt>
      <trkpt lat="42.26389" lon="2.23407">
        <ele>1282</ele>
        <time>2010-01-01T01:38:15Z</time>
      </trkpt>
      <trkpt lat="42.26392" lon="2.23408">
        <ele>1280</ele>
        <time>2010-01-01T01:38:16Z</time>
      </trkpt>
      <trkpt lat="42.26394" lon="2.23408">
        <ele>1279</ele>
        <time>2010-01-01T01:38:17Z</time>
      </trkpt>
      <trkpt lat="42.26397" lon="2.23406">
        <ele>1278</ele>
        <time>2010-01-01T01:38:19Z</time>
      </trkpt>
      <trkpt lat="42.26401" lon="2.23405">
        <ele>1276</ele>
        <time>2010-01-01T01:38:20Z</time>
      </trkpt>
      <trkpt lat="42.26404" lon="2.23404">
        <ele>1274</ele>
        <time>2010-01-01T01:38:22Z</time>
      </trkpt>
      <trkpt lat="42.26414" lon="2.23399">
        <ele>1269</ele>
        <time>2010-01-01T01:38:26Z</time>
      </trkpt>
      <trkpt lat="42.26422" lon="2.23392">
        <ele>1265</ele>
        <time>2010-01-01T01:38:30Z</time>
      </trkpt>
      <trkpt lat="42.26429" lon="2.23384">
        <ele>1260</ele>
        <time>2010-01-01T01:38:33Z</time>
      </trkpt>
      <trkpt lat="42.26438" lon="2.23376">
        <ele>1255</ele>
        <time>2010-01-01T01:38:38Z</time>
      </trkpt>
      <trkpt lat="42.26449" lon="2.2337">
        <ele>1251</ele>
        <time>2010-01-01T01:38:42Z</time>
      </trkpt>
      <trkpt lat="42.26458" lon="2.23365">
        <ele>1248</ele>
        <time>2010-01-01T01:38:46Z</time>
      </trkpt>
      <trkpt lat="42.26468" lon="2.2336">
        <ele>1246</ele>
        <time>2010-01-01T01:38:50Z</time>
      </trkpt>
      <trkpt lat="42.26476" lon="2.23356">
        <ele>1243</ele>
        <time>2010-01-01T01:38:54Z</time>
      </trkpt>
      <trkpt lat="42.26481" lon="2.23356">
        <ele>1242</ele>
        <time>2010-01-01T01:38:56Z</time>
      </trkpt>
      <trkpt lat="42.26491" lon="2.23352">
        <ele>1238</ele>
        <time>2010-01-01T01:39:00Z</time>
      </trkpt>
      <trkpt lat="42.26501" lon="2.23348">
        <ele>1236</ele>
        <time>2010-01-01T01:39:04Z</time>
      </trkpt>
      <trkpt lat="42.26511" lon="2.23345">
        <ele>1231</ele>
        <time>2010-01-01T01:39:09Z</time>
      </trkpt>
      <trkpt lat="42.26523" lon="2.23351">
        <ele>1222</ele>
        <time>2010-01-01T01:39:14Z</time>
      </trkpt>
      <trkpt lat="42.26532" lon="2.23344">
        <ele>1220</ele>
        <time>2010-01-01T01:39:18Z</time>
      </trkpt>
      <trkpt lat="42.26539" lon="2.23339">
        <ele>1218</ele>
        <time>2010-01-01T01:39:21Z</time>
      </trkpt>
      <trkpt lat="42.26547" lon="2.23333">
        <ele>1215</ele>
        <time>2010-01-01T01:39:25Z</time>
      </trkpt>
      <trkpt lat="42.26555" lon="2.23325">
        <ele>1213</ele>
        <time>2010-01-01T01:39:28Z</time>
      </trkpt>
      <trkpt lat="42.26558" lon="2.23322">
        <ele>1211</ele>
        <time>2010-01-01T01:39:30Z</time>
      </trkpt>
      <trkpt lat="42.26571" lon="2.23315">
        <ele>1204</ele>
        <time>2010-01-01T01:39:36Z</time>
      </trkpt>
      <trkpt lat="42.2658" lon="2.23308">
        <ele>1200</ele>
        <time>2010-01-01T01:39:40Z</time>
      </trkpt>
      <trkpt lat="42.26589" lon="2.23306">
        <ele>1196</ele>
        <time>2010-01-01T01:39:44Z</time>
      </trkpt>
      <trkpt lat="42.266" lon="2.23312">
        <ele>1190</ele>
        <time>2010-01-01T01:39:48Z</time>
      </trkpt>
      <trkpt lat="42.26603" lon="2.23323">
        <ele>1186</ele>
        <time>2010-01-01T01:39:52Z</time>
      </trkpt>
      <trkpt lat="42.26609" lon="2.23329">
        <ele>1182</ele>
        <time>2010-01-01T01:39:54Z</time>
      </trkpt>
      <trkpt lat="42.26611" lon="2.23331">
        <ele>1181</ele>
        <time>2010-01-01T01:39:56Z</time>
      </trkpt>
      <trkpt lat="42.26614" lon="2.23335">
        <ele>1179</ele>
        <time>2010-01-01T01:39:57Z</time>
      </trkpt>
      <trkpt lat="42.26618" lon="2.23352">
        <ele>1173</ele>
        <time>2010-01-01T01:40:03Z</time>
      </trkpt>
      <trkpt lat="42.26624" lon="2.23362">
        <ele>1169</ele>
        <time>2010-01-01T01:40:06Z</time>
      </trkpt>
      <trkpt lat="42.26632" lon="2.2337">
        <ele>1164</ele>
        <time>2010-01-01T01:40:10Z</time>
      </trkpt>
      <trkpt lat="42.26639" lon="2.23382">
        <ele>1158</ele>
        <time>2010-01-01T01:40:15Z</time>
      </trkpt>
      <trkpt lat="42.26647" lon="2.23392">
        <ele>1153</ele>
        <time>2010-01-01T01:40:19Z</time>
      </trkpt>
      <trkpt lat="42.26655" lon="2.234">
        <ele>1149</ele>
        <time>2010-01-01T01:40:23Z</time>
      </trkpt>
      <trkpt lat="42.26664" lon="2.23394">
        <ele>1148</ele>
        <time>2010-01-01T01:40:27Z</time>
      </trkpt>
      <trkpt lat="42.26673" lon="2.234">
        <ele>1146</ele>
        <time>2010-01-01T01:40:31Z</time>
      </trkpt>
      <trkpt lat="42.26675" lon="2.23399">
        <ele>1145</ele>
        <time>2010-01-01T01:40:32Z</time>
      </trkpt>
      <trkpt lat="42.26675" lon="2.23396">
        <ele>1146</ele>
        <time>2010-01-01T01:40:33Z</time>
      </trkpt>
      <trkpt lat="42.26676" lon="2.23393">
        <ele>1146</ele>
        <time>2010-01-01T01:40:34Z</time>
      </trkpt>
      <trkpt lat="42.26675" lon="2.2339">
        <ele>1147</ele>
        <time>2010-01-01T01:40:34Z</time>
      </trkpt>
      <trkpt lat="42.26675" lon="2.23387">
        <ele>1147</ele>
        <time>2010-01-01T01:40:35Z</time>
      </trkpt>
      <trkpt lat="42.26677" lon="2.23383">
        <ele>1147</ele>
        <time>2010-01-01T01:40:37Z</time>
      </trkpt>
      <trkpt lat="42.26678" lon="2.23381">
        <ele>1147</ele>
        <time>2010-01-01T01:40:38Z</time>
      </trkpt>
      <trkpt lat="42.2668" lon="2.23379">
        <ele>1147</ele>
        <time>2010-01-01T01:40:38Z</time>
      </trkpt>
      <trkpt lat="42.26682" lon="2.23378">
        <ele>1147</ele>
        <time>2010-01-01T01:40:39Z</time>
      </trkpt>
      <trkpt lat="42.26684" lon="2.23378">
        <ele>1146</ele>
        <time>2010-01-01T01:40:40Z</time>
      </trkpt>
      <trkpt lat="42.26686" lon="2.23379">
        <ele>1146</ele>
        <time>2010-01-01T01:40:41Z</time>
      </trkpt>
      <trkpt lat="42.26688" lon="2.23382">
        <ele>1145</ele>
        <time>2010-01-01T01:40:42Z</time>
      </trkpt>
      <trkpt lat="42.26689" lon="2.23385">
        <ele>1144</ele>
        <time>2010-01-01T01:40:43Z</time>
      </trkpt>
      <trkpt lat="42.26691" lon="2.23387">
        <ele>1144</ele>
        <time>2010-01-01T01:40:44Z</time>
      </trkpt>
      <trkpt lat="42.26692" lon="2.23388">
        <ele>1143</ele>
        <time>2010-01-01T01:40:45Z</time>
      </trkpt>
      <trkpt lat="42.26692" lon="2.23391">
        <ele>1143</ele>
        <time>2010-01-01T01:40:46Z</time>
      </trkpt>
      <trkpt lat="42.26695" lon="2.23404">
        <ele>1143</ele>
        <time>2010-01-01T01:40:49Z</time>
      </trkpt>
      <trkpt lat="42.26695" lon="2.23417">
        <ele>1143</ele>
        <time>2010-01-01T01:40:53Z</time>
      </trkpt>
      <trkpt lat="42.26695" lon="2.23429">
        <ele>1142</ele>
        <time>2010-01-01T01:40:57Z</time>
      </trkpt>
      <trkpt lat="42.26696" lon="2.23439">
        <ele>1142</ele>
        <time>2010-01-01T01:41:00Z</time>
      </trkpt>
      <trkpt lat="42.26698" lon="2.23451">
        <ele>1142</ele>
        <time>2010-01-01T01:41:03Z</time>
      </trkpt>
      <trkpt lat="42.26699" lon="2.23463">
        <ele>1143</ele>
        <time>2010-01-01T01:41:07Z</time>
      </trkpt>
      <trkpt lat="42.26699" lon="2.23466">
        <ele>1143</ele>
        <time>2010-01-01T01:41:08Z</time>
      </trkpt>
      <trkpt lat="42.26697" lon="2.23467">
        <ele>1142</ele>
        <time>2010-01-01T01:41:09Z</time>
      </trkpt>
      <trkpt lat="42.26695" lon="2.23468">
        <ele>1142</ele>
        <time>2010-01-01T01:41:10Z</time>
      </trkpt>
      <trkpt lat="42.26693" lon="2.23469">
        <ele>1141</ele>
        <time>2010-01-01T01:41:11Z</time>
      </trkpt>
      <trkpt lat="42.26691" lon="2.2347">
        <ele>1141</ele>
        <time>2010-01-01T01:41:11Z</time>
      </trkpt>
      <trkpt lat="42.26689" lon="2.23471">
        <ele>1141</ele>
        <time>2010-01-01T01:41:12Z</time>
      </trkpt>
      <trkpt lat="42.26686" lon="2.2347">
        <ele>1140</ele>
        <time>2010-01-01T01:41:14Z</time>
      </trkpt>
      <trkpt lat="42.26681" lon="2.23469">
        <ele>1139</ele>
        <time>2010-01-01T01:41:15Z</time>
      </trkpt>
      <trkpt lat="42.26672" lon="2.23466">
        <ele>1138</ele>
        <time>2010-01-01T01:41:19Z</time>
      </trkpt>
      <trkpt lat="42.2667" lon="2.23464">
        <ele>1138</ele>
        <time>2010-01-01T01:41:20Z</time>
      </trkpt>
      <trkpt lat="42.26668" lon="2.23465">
        <ele>1137</ele>
        <time>2010-01-01T01:41:21Z</time>
      </trkpt>
      <trkpt lat="42.26665" lon="2.23465">
        <ele>1137</ele>
        <time>2010-01-01T01:41:22Z</time>
      </trkpt>
      <trkpt lat="42.26663" lon="2.23465">
        <ele>1137</ele>
        <time>2010-01-01T01:41:23Z</time>
      </trkpt>
      <trkpt lat="42.2666" lon="2.23467">
        <ele>1137</ele>
        <time>2010-01-01T01:41:25Z</time>
      </trkpt>
      <trkpt lat="42.26656" lon="2.2347">
        <ele>1136</ele>
        <time>2010-01-01T01:41:26Z</time>
      </trkpt>
      <trkpt lat="42.26654" lon="2.23472">
        <ele>1136</ele>
        <time>2010-01-01T01:41:27Z</time>
      </trkpt>
      <trkpt lat="42.26652" lon="2.23476">
        <ele>1135</ele>
        <time>2010-01-01T01:41:29Z</time>
      </trkpt>
      <trkpt lat="42.2665" lon="2.2348">
        <ele>1135</ele>
        <time>2010-01-01T01:41:30Z</time>
      </trkpt>
      <trkpt lat="42.26647" lon="2.23485">
        <ele>1134</ele>
        <time>2010-01-01T01:41:32Z</time>
      </trkpt>
      <trkpt lat="42.26643" lon="2.23489">
        <ele>1133</ele>
        <time>2010-01-01T01:41:34Z</time>
      </trkpt>
      <trkpt lat="42.26641" lon="2.23492">
        <ele>1132</ele>
        <time>2010-01-01T01:41:35Z</time>
      </trkpt>
      <trkpt lat="42.26638" lon="2.23492">
        <ele>1132</ele>
        <time>2010-01-01T01:41:36Z</time>
      </trkpt>
      <trkpt lat="42.26636" lon="2.23494">
        <ele>1132</ele>
        <time>2010-01-01T01:41:37Z</time>
      </trkpt>
      <trkpt lat="42.26634" lon="2.23497">
        <ele>1132</ele>
        <time>2010-01-01T01:41:38Z</time>
      </trkpt>
      <trkpt lat="42.26634" lon="2.23499">
        <ele>1131</ele>
        <time>2010-01-01T01:41:39Z</time>
      </trkpt>
      <trkpt lat="42.26634" lon="2.23502">
        <ele>1131</ele>
        <time>2010-01-01T01:41:40Z</time>
      </trkpt>
      <trkpt lat="42.26632" lon="2.23502">
        <ele>1131</ele>
        <time>2010-01-01T01:41:41Z</time>
      </trkpt>
      <trkpt lat="42.26631" lon="2.235">
        <ele>1132</ele>
        <time>2010-01-01T01:41:41Z</time>
      </trkpt>
      <trkpt lat="42.26632" lon="2.23497">
        <ele>1132</ele>
        <time>2010-01-01T01:41:42Z</time>
      </trkpt>
      <trkpt lat="42.26634" lon="2.23495">
        <ele>1132</ele>
        <time>2010-01-01T01:41:43Z</time>
      </trkpt>
      <trkpt lat="42.26636" lon="2.23494">
        <ele>1132</ele>
        <time>2010-01-01T01:41:44Z</time>
      </trkpt>
      <trkpt lat="42.26638" lon="2.23491">
        <ele>1132</ele>
        <time>2010-01-01T01:41:45Z</time>
      </trkpt>
      <trkpt lat="42.26639" lon="2.2349">
        <ele>1132</ele>
        <time>2010-01-01T01:41:46Z</time>
      </trkpt>
      <trkpt lat="42.26641" lon="2.23488">
        <ele>1133</ele>
        <time>2010-01-01T01:41:47Z</time>
      </trkpt>
      <trkpt lat="42.26643" lon="2.23485">
        <ele>1133</ele>
        <time>2010-01-01T01:41:48Z</time>
      </trkpt>
      <trkpt lat="42.26642" lon="2.23483">
        <ele>1133</ele>
        <time>2010-01-01T01:41:49Z</time>
      </trkpt>
      <trkpt lat="42.26644" lon="2.2348">
        <ele>1134</ele>
        <time>2010-01-01T01:41:50Z</time>
      </trkpt>
      <trkpt lat="42.26646" lon="2.23478">
        <ele>1134</ele>
        <time>2010-01-01T01:41:51Z</time>
      </trkpt>
      <trkpt lat="42.26648" lon="2.23478">
        <ele>1135</ele>
        <time>2010-01-01T01:41:51Z</time>
      </trkpt>
      <trkpt lat="42.26649" lon="2.2348">
        <ele>1134</ele>
        <time>2010-01-01T01:41:52Z</time>
      </trkpt>
      <trkpt lat="42.26648" lon="2.23482">
        <ele>1134</ele>
        <time>2010-01-01T01:41:53Z</time>
      </trkpt>
      <trkpt lat="42.26647" lon="2.23485">
        <ele>1134</ele>
        <time>2010-01-01T01:41:54Z</time>
      </trkpt>
      <trkpt lat="42.26646" lon="2.23487">
        <ele>1133</ele>
        <time>2010-01-01T01:41:55Z</time>
      </trkpt>
      <trkpt lat="42.26644" lon="2.23488">
        <ele>1133</ele>
        <time>2010-01-01T01:41:55Z</time>
      </trkpt>
      <trkpt lat="42.26637" lon="2.23497">
        <ele>1131</ele>
        <time>2010-01-01T01:41:59Z</time>
      </trkpt>
      <trkpt lat="42.26633" lon="2.23509">
        <ele>1129</ele>
        <time>2010-01-01T01:42:03Z</time>
      </trkpt>
      <trkpt lat="42.26633" lon="2.23521">
        <ele>1126</ele>
        <time>2010-01-01T01:42:06Z</time>
      </trkpt>
      <trkpt lat="42.26634" lon="2.23527">
        <ele>1125</ele>
        <time>2010-01-01T01:42:08Z</time>
      </trkpt>
      <trkpt lat="42.26635" lon="2.2353">
        <ele>1124</ele>
        <time>2010-01-01T01:42:09Z</time>
      </trkpt>
      <trkpt lat="42.26636" lon="2.23533">
        <ele>1124</ele>
        <time>2010-01-01T01:42:10Z</time>
      </trkpt>
      <trkpt lat="42.26636" lon="2.23535">
        <ele>1123</ele>
        <time>2010-01-01T01:42:11Z</time>
      </trkpt>
      <trkpt lat="42.26636" lon="2.23539">
        <ele>1123</ele>
        <time>2010-01-01T01:42:12Z</time>
      </trkpt>
      <trkpt lat="42.26638" lon="2.23542">
        <ele>1122</ele>
        <time>2010-01-01T01:42:13Z</time>
      </trkpt>
      <trkpt lat="42.26639" lon="2.23547">
        <ele>1121</ele>
        <time>2010-01-01T01:42:15Z</time>
      </trkpt>
      <trkpt lat="42.2664" lon="2.23553">
        <ele>1120</ele>
        <time>2010-01-01T01:42:16Z</time>
      </trkpt>
      <trkpt lat="42.2664" lon="2.23556">
        <ele>1120</ele>
        <time>2010-01-01T01:42:18Z</time>
      </trkpt>
      <trkpt lat="42.2664" lon="2.23559">
        <ele>1120</ele>
        <time>2010-01-01T01:42:18Z</time>
      </trkpt>
      <trkpt lat="42.26641" lon="2.23562">
        <ele>1120</ele>
        <time>2010-01-01T01:42:19Z</time>
      </trkpt>
      <trkpt lat="42.2664" lon="2.23566">
        <ele>1119</ele>
        <time>2010-01-01T01:42:20Z</time>
      </trkpt>
      <trkpt lat="42.26637" lon="2.23582">
        <ele>1118</ele>
        <time>2010-01-01T01:42:25Z</time>
      </trkpt>
      <trkpt lat="42.26638" lon="2.23596">
        <ele>1117</ele>
        <time>2010-01-01T01:42:30Z</time>
      </trkpt>
      <trkpt lat="42.26635" lon="2.2361">
        <ele>1115</ele>
        <time>2010-01-01T01:42:34Z</time>
      </trkpt>
      <trkpt lat="42.26629" lon="2.2362">
        <ele>1114</ele>
        <time>2010-01-01T01:42:38Z</time>
      </trkpt>
      <trkpt lat="42.26627" lon="2.23633">
        <ele>1112</ele>
        <time>2010-01-01T01:42:41Z</time>
      </trkpt>
      <trkpt lat="42.26627" lon="2.23647">
        <ele>1111</ele>
        <time>2010-01-01T01:42:46Z</time>
      </trkpt>
      <trkpt lat="42.26625" lon="2.2366">
        <ele>1110</ele>
        <time>2010-01-01T01:42:50Z</time>
      </trkpt>
      <trkpt lat="42.2662" lon="2.23665">
        <ele>1109</ele>
        <time>2010-01-01T01:42:52Z</time>
      </trkpt>
      <trkpt lat="42.2662" lon="2.23668">
        <ele>1109</ele>
        <time>2010-01-01T01:42:53Z</time>
      </trkpt>
      <trkpt lat="42.26619" lon="2.2368">
        <ele>1109</ele>
        <time>2010-01-01T01:42:56Z</time>
      </trkpt>
      <trkpt lat="42.26618" lon="2.23683">
        <ele>1109</ele>
        <time>2010-01-01T01:42:57Z</time>
      </trkpt>
      <trkpt lat="42.26616" lon="2.23685">
        <ele>1108</ele>
        <time>2010-01-01T01:42:58Z</time>
      </trkpt>
      <trkpt lat="42.26616" lon="2.23688">
        <ele>1108</ele>
        <time>2010-01-01T01:42:59Z</time>
      </trkpt>
      <trkpt lat="42.26615" lon="2.23691">
        <ele>1108</ele>
        <time>2010-01-01T01:43:00Z</time>
      </trkpt>
      <trkpt lat="42.26614" lon="2.23693">
        <ele>1108</ele>
        <time>2010-01-01T01:43:01Z</time>
      </trkpt>
      <trkpt lat="42.26612" lon="2.23695">
        <ele>1108</ele>
        <time>2010-01-01T01:43:02Z</time>
      </trkpt>
      <trkpt lat="42.26611" lon="2.23698">
        <ele>1107</ele>
        <time>2010-01-01T01:43:03Z</time>
      </trkpt>
      <trkpt lat="42.26612" lon="2.23701">
        <ele>1107</ele>
        <time>2010-01-01T01:43:04Z</time>
      </trkpt>
      <trkpt lat="42.26612" lon="2.23703">
        <ele>1107</ele>
        <time>2010-01-01T01:43:04Z</time>
      </trkpt>
      <trkpt lat="42.2661" lon="2.23707">
        <ele>1107</ele>
        <time>2010-01-01T01:43:06Z</time>
      </trkpt>
      <trkpt lat="42.26608" lon="2.23713">
        <ele>1106</ele>
        <time>2010-01-01T01:43:07Z</time>
      </trkpt>
      <trkpt lat="42.26607" lon="2.23718">
        <ele>1106</ele>
        <time>2010-01-01T01:43:09Z</time>
      </trkpt>
      <trkpt lat="42.26598" lon="2.23733">
        <ele>1104</ele>
        <time>2010-01-01T01:43:15Z</time>
      </trkpt>
      <trkpt lat="42.26593" lon="2.23744">
        <ele>1102</ele>
        <time>2010-01-01T01:43:19Z</time>
      </trkpt>
      <trkpt lat="42.26587" lon="2.23756">
        <ele>1099</ele>
        <time>2010-01-01T01:43:23Z</time>
      </trkpt>
      <trkpt lat="42.2658" lon="2.23772">
        <ele>1098</ele>
        <time>2010-01-01T01:43:28Z</time>
      </trkpt>
      <trkpt lat="42.26579" lon="2.23785">
        <ele>1097</ele>
        <time>2010-01-01T01:43:32Z</time>
      </trkpt>
      <trkpt lat="42.26574" lon="2.23798">
        <ele>1097</ele>
        <time>2010-01-01T01:43:36Z</time>
      </trkpt>
      <trkpt lat="42.26569" lon="2.23808">
        <ele>1097</ele>
        <time>2010-01-01T01:43:40Z</time>
      </trkpt>
      <trkpt lat="42.26565" lon="2.23819">
        <ele>1095</ele>
        <time>2010-01-01T01:43:44Z</time>
      </trkpt>
      <trkpt lat="42.26562" lon="2.23832">
        <ele>1091</ele>
        <time>2010-01-01T01:43:48Z</time>
      </trkpt>
      <trkpt lat="42.26561" lon="2.23848">
        <ele>1090</ele>
        <time>2010-01-01T01:43:53Z</time>
      </trkpt>
      <trkpt lat="42.26563" lon="2.23863">
        <ele>1089</ele>
        <time>2010-01-01T01:43:57Z</time>
      </trkpt>
      <trkpt lat="42.2656" lon="2.23875">
        <ele>1087</ele>
        <time>2010-01-01T01:44:01Z</time>
      </trkpt>
      <trkpt lat="42.26563" lon="2.23887">
        <ele>1086</ele>
        <time>2010-01-01T01:44:05Z</time>
      </trkpt>
      <trkpt lat="42.26568" lon="2.23896">
        <ele>1085</ele>
        <time>2010-01-01T01:44:08Z</time>
      </trkpt>
      <trkpt lat="42.26569" lon="2.23898">
        <ele>1085</ele>
        <time>2010-01-01T01:44:09Z</time>
      </trkpt>
      <trkpt lat="42.26568" lon="2.23901">
        <ele>1085</ele>
        <time>2010-01-01T01:44:10Z</time>
      </trkpt>
      <trkpt lat="42.26569" lon="2.23904">
        <ele>1085</ele>
        <time>2010-01-01T01:44:10Z</time>
      </trkpt>
      <trkpt lat="42.26571" lon="2.23906">
        <ele>1085</ele>
        <time>2010-01-01T01:44:11Z</time>
      </trkpt>
      <trkpt lat="42.26569" lon="2.23908">
        <ele>1085</ele>
        <time>2010-01-01T01:44:12Z</time>
      </trkpt>
      <trkpt lat="42.26572" lon="2.23909">
        <ele>1085</ele>
        <time>2010-01-01T01:44:13Z</time>
      </trkpt>
      <trkpt lat="42.26577" lon="2.23921">
        <ele>1084</ele>
        <time>2010-01-01T01:44:17Z</time>
      </trkpt>
      <trkpt lat="42.26577" lon="2.23934">
        <ele>1081</ele>
        <time>2010-01-01T01:44:21Z</time>
      </trkpt>
      <trkpt lat="42.26572" lon="2.23946">
        <ele>1080</ele>
        <time>2010-01-01T01:44:25Z</time>
      </trkpt>
      <trkpt lat="42.26572" lon="2.2396">
        <ele>1078</ele>
        <time>2010-01-01T01:44:29Z</time>
      </trkpt>
      <trkpt lat="42.26571" lon="2.23975">
        <ele>1076</ele>
        <time>2010-01-01T01:44:33Z</time>
      </trkpt>
      <trkpt lat="42.26572" lon="2.23988">
        <ele>1076</ele>
        <time>2010-01-01T01:44:37Z</time>
      </trkpt>
      <trkpt lat="42.26571" lon="2.24003">
        <ele>1076</ele>
        <time>2010-01-01T01:44:42Z</time>
      </trkpt>
      <trkpt lat="42.26566" lon="2.24017">
        <ele>1075</ele>
        <time>2010-01-01T01:44:46Z</time>
      </trkpt>
      <trkpt lat="42.26563" lon="2.24034">
        <ele>1075</ele>
        <time>2010-01-01T01:44:52Z</time>
      </trkpt>
      <trkpt lat="42.26558" lon="2.24045">
        <ele>1073</ele>
        <time>2010-01-01T01:44:55Z</time>
      </trkpt>
      <trkpt lat="42.26553" lon="2.24056">
        <ele>1072</ele>
        <time>2010-01-01T01:44:59Z</time>
      </trkpt>
      <trkpt lat="42.26547" lon="2.24066">
        <ele>1071</ele>
        <time>2010-01-01T01:45:03Z</time>
      </trkpt>
      <trkpt lat="42.26544" lon="2.24073">
        <ele>1070</ele>
        <time>2010-01-01T01:45:05Z</time>
      </trkpt>
      <trkpt lat="42.26543" lon="2.24076">
        <ele>1070</ele>
        <time>2010-01-01T01:45:06Z</time>
      </trkpt>
      <trkpt lat="42.26542" lon="2.2408">
        <ele>1069</ele>
        <time>2010-01-01T01:45:08Z</time>
      </trkpt>
      <trkpt lat="42.26541" lon="2.24083">
        <ele>1068</ele>
        <time>2010-01-01T01:45:09Z</time>
      </trkpt>
      <trkpt lat="42.2654" lon="2.24086">
        <ele>1068</ele>
        <time>2010-01-01T01:45:10Z</time>
      </trkpt>
      <trkpt lat="42.26537" lon="2.24088">
        <ele>1067</ele>
        <time>2010-01-01T01:45:11Z</time>
      </trkpt>
      <trkpt lat="42.26536" lon="2.24091">
        <ele>1066</ele>
        <time>2010-01-01T01:45:12Z</time>
      </trkpt>
      <trkpt lat="42.26535" lon="2.24105">
        <ele>1064</ele>
        <time>2010-01-01T01:45:16Z</time>
      </trkpt>
      <trkpt lat="42.26534" lon="2.24117">
        <ele>1062</ele>
        <time>2010-01-01T01:45:20Z</time>
      </trkpt>
      <trkpt lat="42.26534" lon="2.2413">
        <ele>1060</ele>
        <time>2010-01-01T01:45:23Z</time>
      </trkpt>
      <trkpt lat="42.26534" lon="2.24144">
        <ele>1058</ele>
        <time>2010-01-01T01:45:28Z</time>
      </trkpt>
      <trkpt lat="42.26533" lon="2.24156">
        <ele>1057</ele>
        <time>2010-01-01T01:45:31Z</time>
      </trkpt>
      <trkpt lat="42.2654" lon="2.24165">
        <ele>1059</ele>
        <time>2010-01-01T01:45:35Z</time>
      </trkpt>
      <trkpt lat="42.26536" lon="2.24176">
        <ele>1058</ele>
        <time>2010-01-01T01:45:39Z</time>
      </trkpt>
      <trkpt lat="42.26529" lon="2.24187">
        <ele>1056</ele>
        <time>2010-01-01T01:45:43Z</time>
      </trkpt>
      <trkpt lat="42.26523" lon="2.24197">
        <ele>1054</ele>
        <time>2010-01-01T01:45:47Z</time>
      </trkpt>
      <trkpt lat="42.26515" lon="2.24205">
        <ele>1053</ele>
        <time>2010-01-01T01:45:51Z</time>
      </trkpt>
      <trkpt lat="42.26505" lon="2.24212">
        <ele>1050</ele>
        <time>2010-01-01T01:45:55Z</time>
      </trkpt>
      <trkpt lat="42.26497" lon="2.24219">
        <ele>1049</ele>
        <time>2010-01-01T01:45:59Z</time>
      </trkpt>
      <trkpt lat="42.26493" lon="2.2423">
        <ele>1048</ele>
        <time>2010-01-01T01:46:03Z</time>
      </trkpt>
      <trkpt lat="42.26488" lon="2.24241">
        <ele>1046</ele>
        <time>2010-01-01T01:46:07Z</time>
      </trkpt>
      <trkpt lat="42.26484" lon="2.24255">
        <ele>1046</ele>
        <time>2010-01-01T01:46:11Z</time>
      </trkpt>
      <trkpt lat="42.26482" lon="2.24268">
        <ele>1045</ele>
        <time>2010-01-01T01:46:15Z</time>
      </trkpt>
      <trkpt lat="42.2648" lon="2.24281">
        <ele>1044</ele>
        <time>2010-01-01T01:46:19Z</time>
      </trkpt>
      <trkpt lat="42.26474" lon="2.24292">
        <ele>1041</ele>
        <time>2010-01-01T01:46:23Z</time>
      </trkpt>
      <trkpt lat="42.26467" lon="2.24303">
        <ele>1039</ele>
        <time>2010-01-01T01:46:27Z</time>
      </trkpt>
      <trkpt lat="42.26464" lon="2.24317">
        <ele>1038</ele>
        <time>2010-01-01T01:46:32Z</time>
      </trkpt>
      <trkpt lat="42.26466" lon="2.24331">
        <ele>1040</ele>
        <time>2010-01-01T01:46:36Z</time>
      </trkpt>
      <trkpt lat="42.26468" lon="2.24344">
        <ele>1040</ele>
        <time>2010-01-01T01:46:40Z</time>
      </trkpt>
      <trkpt lat="42.26472" lon="2.24357">
        <ele>1041</ele>
        <time>2010-01-01T01:46:44Z</time>
      </trkpt>
      <trkpt lat="42.26475" lon="2.2437">
        <ele>1042</ele>
        <time>2010-01-01T01:46:48Z</time>
      </trkpt>
      <trkpt lat="42.26469" lon="2.24379">
        <ele>1040</ele>
        <time>2010-01-01T01:46:52Z</time>
      </trkpt>
      <trkpt lat="42.26459" lon="2.2438">
        <ele>1037</ele>
        <time>2010-01-01T01:46:56Z</time>
      </trkpt>
      <trkpt lat="42.26461" lon="2.24382">
        <ele>1038</ele>
        <time>2010-01-01T01:46:57Z</time>
      </trkpt>
      <trkpt lat="42.26462" lon="2.24386">
        <ele>1038</ele>
        <time>2010-01-01T01:46:58Z</time>
      </trkpt>
      <trkpt lat="42.26462" lon="2.2439">
        <ele>1038</ele>
        <time>2010-01-01T01:46:59Z</time>
      </trkpt>
      <trkpt lat="42.26462" lon="2.24392">
        <ele>1039</ele>
        <time>2010-01-01T01:47:00Z</time>
      </trkpt>
      <trkpt lat="42.26462" lon="2.24395">
        <ele>1039</ele>
        <time>2010-01-01T01:47:00Z</time>
      </trkpt>
      <trkpt lat="42.26461" lon="2.24398">
        <ele>1039</ele>
        <time>2010-01-01T01:47:01Z</time>
      </trkpt>
      <trkpt lat="42.26462" lon="2.24401">
        <ele>1040</ele>
        <time>2010-01-01T01:47:02Z</time>
      </trkpt>
      <trkpt lat="42.26459" lon="2.24403">
        <ele>1039</ele>
        <time>2010-01-01T01:47:03Z</time>
      </trkpt>
      <trkpt lat="42.26457" lon="2.24404">
        <ele>1039</ele>
        <time>2010-01-01T01:47:04Z</time>
      </trkpt>
      <trkpt lat="42.26455" lon="2.24405">
        <ele>1038</ele>
        <time>2010-01-01T01:47:05Z</time>
      </trkpt>
      <trkpt lat="42.26453" lon="2.24407">
        <ele>1038</ele>
        <time>2010-01-01T01:47:06Z</time>
      </trkpt>
      <trkpt lat="42.26452" lon="2.2441">
        <ele>1038</ele>
        <time>2010-01-01T01:47:07Z</time>
      </trkpt>
      <trkpt lat="42.26453" lon="2.24412">
        <ele>1039</ele>
        <time>2010-01-01T01:47:08Z</time>
      </trkpt>
      <trkpt lat="42.26453" lon="2.24415">
        <ele>1039</ele>
        <time>2010-01-01T01:47:09Z</time>
      </trkpt>
      <trkpt lat="42.26454" lon="2.24418">
        <ele>1040</ele>
        <time>2010-01-01T01:47:09Z</time>
      </trkpt>
      <trkpt lat="42.26455" lon="2.2442">
        <ele>1041</ele>
        <time>2010-01-01T01:47:10Z</time>
      </trkpt>
      <trkpt lat="42.26454" lon="2.24423">
        <ele>1041</ele>
        <time>2010-01-01T01:47:11Z</time>
      </trkpt>
      <trkpt lat="42.26453" lon="2.24425">
        <ele>1041</ele>
        <time>2010-01-01T01:47:12Z</time>
      </trkpt>
      <trkpt lat="42.2645" lon="2.24424">
        <ele>1040</ele>
        <time>2010-01-01T01:47:13Z</time>
      </trkpt>
      <trkpt lat="42.26448" lon="2.24425">
        <ele>1040</ele>
        <time>2010-01-01T01:47:14Z</time>
      </trkpt>
      <trkpt lat="42.26446" lon="2.24427">
        <ele>1039</ele>
        <time>2010-01-01T01:47:15Z</time>
      </trkpt>
      <trkpt lat="42.26444" lon="2.24429">
        <ele>1039</ele>
        <time>2010-01-01T01:47:16Z</time>
      </trkpt>
      <trkpt lat="42.26442" lon="2.24431">
        <ele>1039</ele>
        <time>2010-01-01T01:47:17Z</time>
      </trkpt>
      <trkpt lat="42.26441" lon="2.24436">
        <ele>1040</ele>
        <time>2010-01-01T01:47:18Z</time>
      </trkpt>
      <trkpt lat="42.26441" lon="2.24439">
        <ele>1041</ele>
        <time>2010-01-01T01:47:19Z</time>
      </trkpt>
      <trkpt lat="42.26441" lon="2.24442">
        <ele>1041</ele>
        <time>2010-01-01T01:47:20Z</time>
      </trkpt>
      <trkpt lat="42.26441" lon="2.24446">
        <ele>1042</ele>
        <time>2010-01-01T01:47:21Z</time>
      </trkpt>
      <trkpt lat="42.26441" lon="2.24451">
        <ele>1043</ele>
        <time>2010-01-01T01:47:23Z</time>
      </trkpt>
      <trkpt lat="42.26441" lon="2.24455">
        <ele>1043</ele>
        <time>2010-01-01T01:47:24Z</time>
      </trkpt>
      <trkpt lat="42.26441" lon="2.24459">
        <ele>1044</ele>
        <time>2010-01-01T01:47:25Z</time>
      </trkpt>
      <trkpt lat="42.26441" lon="2.24465">
        <ele>1045</ele>
        <time>2010-01-01T01:47:27Z</time>
      </trkpt>
      <trkpt lat="42.26444" lon="2.24479">
        <ele>1048</ele>
        <time>2010-01-01T01:47:31Z</time>
      </trkpt>
      <trkpt lat="42.26446" lon="2.24486">
        <ele>1049</ele>
        <time>2010-01-01T01:47:33Z</time>
      </trkpt>
      <trkpt lat="42.26453" lon="2.24497">
        <ele>1051</ele>
        <time>2010-01-01T01:47:38Z</time>
      </trkpt>
      <trkpt lat="42.26458" lon="2.24508">
        <ele>1054</ele>
        <time>2010-01-01T01:47:41Z</time>
      </trkpt>
      <trkpt lat="42.26463" lon="2.2452">
        <ele>1058</ele>
        <time>2010-01-01T01:47:46Z</time>
      </trkpt>
      <trkpt lat="42.26465" lon="2.24525">
        <ele>1059</ele>
        <time>2010-01-01T01:47:47Z</time>
      </trkpt>
      <trkpt lat="42.26467" lon="2.24529">
        <ele>1060</ele>
        <time>2010-01-01T01:47:49Z</time>
      </trkpt>
      <trkpt lat="42.26471" lon="2.24535">
        <ele>1062</ele>
        <time>2010-01-01T01:47:51Z</time>
      </trkpt>
      <trkpt lat="42.26478" lon="2.24544">
        <ele>1065</ele>
        <time>2010-01-01T01:47:55Z</time>
      </trkpt>
      <trkpt lat="42.26491" lon="2.24546">
        <ele>1065</ele>
        <time>2010-01-01T01:48:00Z</time>
      </trkpt>
      <trkpt lat="42.265" lon="2.24546">
        <ele>1066</ele>
        <time>2010-01-01T01:48:04Z</time>
      </trkpt>
      <trkpt lat="42.26511" lon="2.24549">
        <ele>1066</ele>
        <time>2010-01-01T01:48:08Z</time>
      </trkpt>
      <trkpt lat="42.26522" lon="2.24549">
        <ele>1066</ele>
        <time>2010-01-01T01:48:13Z</time>
      </trkpt>
      <trkpt lat="42.26529" lon="2.24548">
        <ele>1066</ele>
        <time>2010-01-01T01:48:16Z</time>
      </trkpt>
      <trkpt lat="42.26533" lon="2.24548">
        <ele>1066</ele>
        <time>2010-01-01T01:48:17Z</time>
      </trkpt>
      <trkpt lat="42.26537" lon="2.24549">
        <ele>1067</ele>
        <time>2010-01-01T01:48:19Z</time>
      </trkpt>
      <trkpt lat="42.26541" lon="2.24551">
        <ele>1068</ele>
        <time>2010-01-01T01:48:21Z</time>
      </trkpt>
      <trkpt lat="42.26543" lon="2.24555">
        <ele>1068</ele>
        <time>2010-01-01T01:48:22Z</time>
      </trkpt>
      <trkpt lat="42.26541" lon="2.24562">
        <ele>1070</ele>
        <time>2010-01-01T01:48:24Z</time>
      </trkpt>
      <trkpt lat="42.26538" lon="2.24564">
        <ele>1070</ele>
        <time>2010-01-01T01:48:26Z</time>
      </trkpt>
      <trkpt lat="42.26534" lon="2.24566">
        <ele>1070</ele>
        <time>2010-01-01T01:48:27Z</time>
      </trkpt>
      <trkpt lat="42.2653" lon="2.24569">
        <ele>1071</ele>
        <time>2010-01-01T01:48:29Z</time>
      </trkpt>
      <trkpt lat="42.26525" lon="2.24572">
        <ele>1071</ele>
        <time>2010-01-01T01:48:31Z</time>
      </trkpt>
      <trkpt lat="42.26521" lon="2.24572">
        <ele>1072</ele>
        <time>2010-01-01T01:48:33Z</time>
      </trkpt>
      <trkpt lat="42.26517" lon="2.24573">
        <ele>1072</ele>
        <time>2010-01-01T01:48:34Z</time>
      </trkpt>
      <trkpt lat="42.26512" lon="2.24574">
        <ele>1073</ele>
        <time>2010-01-01T01:48:37Z</time>
      </trkpt>
      <trkpt lat="42.26501" lon="2.24575">
        <ele>1074</ele>
        <time>2010-01-01T01:48:41Z</time>
      </trkpt>
      <trkpt lat="42.26492" lon="2.24575">
        <ele>1074</ele>
        <time>2010-01-01T01:48:45Z</time>
      </trkpt>
      <trkpt lat="42.26482" lon="2.24577">
        <ele>1076</ele>
        <time>2010-01-01T01:48:49Z</time>
      </trkpt>
      <trkpt lat="42.26473" lon="2.24581">
        <ele>1078</ele>
        <time>2010-01-01T01:48:53Z</time>
      </trkpt>
      <trkpt lat="42.26462" lon="2.24582">
        <ele>1079</ele>
        <time>2010-01-01T01:48:57Z</time>
      </trkpt>
      <trkpt lat="42.26453" lon="2.24584">
        <ele>1080</ele>
        <time>2010-01-01T01:49:00Z</time>
      </trkpt>
      <trkpt lat="42.26443" lon="2.24583">
        <ele>1080</ele>
        <time>2010-01-01T01:49:04Z</time>
      </trkpt>
      <trkpt lat="42.26439" lon="2.24581">
        <ele>1080</ele>
        <time>2010-01-01T01:49:06Z</time>
      </trkpt>
      <trkpt lat="42.26435" lon="2.2458">
        <ele>1079</ele>
        <time>2010-01-01T01:49:08Z</time>
      </trkpt>
      <trkpt lat="42.26431" lon="2.24578">
        <ele>1078</ele>
        <time>2010-01-01T01:49:10Z</time>
      </trkpt>
      <trkpt lat="42.26427" lon="2.24577">
        <ele>1078</ele>
        <time>2010-01-01T01:49:11Z</time>
      </trkpt>
      <trkpt lat="42.26423" lon="2.24577">
        <ele>1078</ele>
        <time>2010-01-01T01:49:13Z</time>
      </trkpt>
      <trkpt lat="42.2642" lon="2.24577">
        <ele>1078</ele>
        <time>2010-01-01T01:49:14Z</time>
      </trkpt>
      <trkpt lat="42.26417" lon="2.24578">
        <ele>1078</ele>
        <time>2010-01-01T01:49:15Z</time>
      </trkpt>
      <trkpt lat="42.26415" lon="2.24579">
        <ele>1078</ele>
        <time>2010-01-01T01:49:16Z</time>
      </trkpt>
      <trkpt lat="42.26413" lon="2.2458">
        <ele>1078</ele>
        <time>2010-01-01T01:49:17Z</time>
      </trkpt>
      <trkpt lat="42.26413" lon="2.24583">
        <ele>1078</ele>
        <time>2010-01-01T01:49:18Z</time>
      </trkpt>
      <trkpt lat="42.26414" lon="2.24586">
        <ele>1079</ele>
        <time>2010-01-01T01:49:19Z</time>
      </trkpt>
      <trkpt lat="42.26416" lon="2.24586">
        <ele>1080</ele>
        <time>2010-01-01T01:49:20Z</time>
      </trkpt>
      <trkpt lat="42.26417" lon="2.2459">
        <ele>1081</ele>
        <time>2010-01-01T01:49:21Z</time>
      </trkpt>
      <trkpt lat="42.26417" lon="2.24593">
        <ele>1082</ele>
        <time>2010-01-01T01:49:22Z</time>
      </trkpt>
      <trkpt lat="42.26419" lon="2.24594">
        <ele>1082</ele>
        <time>2010-01-01T01:49:22Z</time>
      </trkpt>
      <trkpt lat="42.26421" lon="2.24595">
        <ele>1083</ele>
        <time>2010-01-01T01:49:23Z</time>
      </trkpt>
      <trkpt lat="42.26421" lon="2.24597">
        <ele>1083</ele>
        <time>2010-01-01T01:49:24Z</time>
      </trkpt>
      <trkpt lat="42.26421" lon="2.246">
        <ele>1084</ele>
        <time>2010-01-01T01:49:25Z</time>
      </trkpt>
      <trkpt lat="42.26421" lon="2.24604">
        <ele>1085</ele>
        <time>2010-01-01T01:49:26Z</time>
      </trkpt>
      <trkpt lat="42.26422" lon="2.24607">
        <ele>1086</ele>
        <time>2010-01-01T01:49:27Z</time>
      </trkpt>
      <trkpt lat="42.26423" lon="2.24611">
        <ele>1087</ele>
        <time>2010-01-01T01:49:28Z</time>
      </trkpt>
      <trkpt lat="42.26423" lon="2.24614">
        <ele>1088</ele>
        <time>2010-01-01T01:49:29Z</time>
      </trkpt>
      <trkpt lat="42.26424" lon="2.24617">
        <ele>1089</ele>
        <time>2010-01-01T01:49:30Z</time>
      </trkpt>
      <trkpt lat="42.26425" lon="2.2462">
        <ele>1089</ele>
        <time>2010-01-01T01:49:31Z</time>
      </trkpt>
      <trkpt lat="42.26426" lon="2.24623">
        <ele>1090</ele>
        <time>2010-01-01T01:49:32Z</time>
      </trkpt>
      <trkpt lat="42.26426" lon="2.24626">
        <ele>1091</ele>
        <time>2010-01-01T01:49:33Z</time>
      </trkpt>
      <trkpt lat="42.26427" lon="2.24629">
        <ele>1092</ele>
        <time>2010-01-01T01:49:34Z</time>
      </trkpt>
      <trkpt lat="42.26427" lon="2.24632">
        <ele>1092</ele>
        <time>2010-01-01T01:49:35Z</time>
      </trkpt>
      <trkpt lat="42.26427" lon="2.24636">
        <ele>1093</ele>
        <time>2010-01-01T01:49:36Z</time>
      </trkpt>
      <trkpt lat="42.26426" lon="2.24639">
        <ele>1093</ele>
        <time>2010-01-01T01:49:37Z</time>
      </trkpt>
      <trkpt lat="42.26426" lon="2.24643">
        <ele>1094</ele>
        <time>2010-01-01T01:49:38Z</time>
      </trkpt>
      <trkpt lat="42.26427" lon="2.24646">
        <ele>1094</ele>
        <time>2010-01-01T01:49:39Z</time>
      </trkpt>
      <trkpt lat="42.26427" lon="2.24649">
        <ele>1095</ele>
        <time>2010-01-01T01:49:40Z</time>
      </trkpt>
      <trkpt lat="42.26426" lon="2.24652">
        <ele>1095</ele>
        <time>2010-01-01T01:49:41Z</time>
      </trkpt>
      <trkpt lat="42.26425" lon="2.24654">
        <ele>1095</ele>
        <time>2010-01-01T01:49:41Z</time>
      </trkpt>
      <trkpt lat="42.26425" lon="2.24657">
        <ele>1096</ele>
        <time>2010-01-01T01:49:42Z</time>
      </trkpt>
      <trkpt lat="42.26425" lon="2.24661">
        <ele>1096</ele>
        <time>2010-01-01T01:49:43Z</time>
      </trkpt>
      <trkpt lat="42.26425" lon="2.24664">
        <ele>1097</ele>
        <time>2010-01-01T01:49:44Z</time>
      </trkpt>
      <trkpt lat="42.26425" lon="2.24666">
        <ele>1097</ele>
        <time>2010-01-01T01:49:45Z</time>
      </trkpt>
      <trkpt lat="42.26425" lon="2.24671">
        <ele>1099</ele>
        <time>2010-01-01T01:49:46Z</time>
      </trkpt>
      <trkpt lat="42.26425" lon="2.24674">
        <ele>1100</ele>
        <time>2010-01-01T01:49:47Z</time>
      </trkpt>
      <trkpt lat="42.26425" lon="2.24677">
        <ele>1100</ele>
        <time>2010-01-01T01:49:48Z</time>
      </trkpt>
      <trkpt lat="42.26426" lon="2.2468">
        <ele>1102</ele>
        <time>2010-01-01T01:49:49Z</time>
      </trkpt>
      <trkpt lat="42.26427" lon="2.24682">
        <ele>1103</ele>
        <time>2010-01-01T01:49:50Z</time>
      </trkpt>
      <trkpt lat="42.26429" lon="2.24681">
        <ele>1104</ele>
        <time>2010-01-01T01:49:51Z</time>
      </trkpt>
      <trkpt lat="42.2643" lon="2.24679">
        <ele>1103</ele>
        <time>2010-01-01T01:49:51Z</time>
      </trkpt>
      <trkpt lat="42.26432" lon="2.24676">
        <ele>1103</ele>
        <time>2010-01-01T01:49:53Z</time>
      </trkpt>
      <trkpt lat="42.26433" lon="2.24674">
        <ele>1103</ele>
        <time>2010-01-01T01:49:53Z</time>
      </trkpt>
      <trkpt lat="42.26436" lon="2.24672">
        <ele>1104</ele>
        <time>2010-01-01T01:49:54Z</time>
      </trkpt>
      <trkpt lat="42.26437" lon="2.24671">
        <ele>1104</ele>
        <time>2010-01-01T01:49:55Z</time>
      </trkpt>
      <trkpt lat="42.2644" lon="2.24669">
        <ele>1104</ele>
        <time>2010-01-01T01:49:56Z</time>
      </trkpt>
      <trkpt lat="42.26442" lon="2.24668">
        <ele>1105</ele>
        <time>2010-01-01T01:49:57Z</time>
      </trkpt>
      <trkpt lat="42.26444" lon="2.24668">
        <ele>1106</ele>
        <time>2010-01-01T01:49:58Z</time>
      </trkpt>
      <trkpt lat="42.26446" lon="2.24667">
        <ele>1106</ele>
        <time>2010-01-01T01:49:59Z</time>
      </trkpt>
      <trkpt lat="42.26448" lon="2.24666">
        <ele>1106</ele>
        <time>2010-01-01T01:50:00Z</time>
      </trkpt>
      <trkpt lat="42.2645" lon="2.24666">
        <ele>1107</ele>
        <time>2010-01-01T01:50:00Z</time>
      </trkpt>
      <trkpt lat="42.26452" lon="2.24667">
        <ele>1107</ele>
        <time>2010-01-01T01:50:01Z</time>
      </trkpt>
      <trkpt lat="42.26454" lon="2.24668">
        <ele>1108</ele>
        <time>2010-01-01T01:50:02Z</time>
      </trkpt>
      <trkpt lat="42.26456" lon="2.24668">
        <ele>1108</ele>
        <time>2010-01-01T01:50:03Z</time>
      </trkpt>
      <trkpt lat="42.26458" lon="2.24668">
        <ele>1109</ele>
        <time>2010-01-01T01:50:04Z</time>
      </trkpt>
      <trkpt lat="42.26461" lon="2.24667">
        <ele>1109</ele>
        <time>2010-01-01T01:50:05Z</time>
      </trkpt>
      <trkpt lat="42.26464" lon="2.24668">
        <ele>1110</ele>
        <time>2010-01-01T01:50:06Z</time>
      </trkpt>
      <trkpt lat="42.26466" lon="2.24669">
        <ele>1111</ele>
        <time>2010-01-01T01:50:07Z</time>
      </trkpt>
      <trkpt lat="42.26469" lon="2.24668">
        <ele>1112</ele>
        <time>2010-01-01T01:50:08Z</time>
      </trkpt>
      <trkpt lat="42.26472" lon="2.24668">
        <ele>1112</ele>
        <time>2010-01-01T01:50:09Z</time>
      </trkpt>
      <trkpt lat="42.26474" lon="2.24667">
        <ele>1112</ele>
        <time>2010-01-01T01:50:10Z</time>
      </trkpt>
      <trkpt lat="42.26477" lon="2.24666">
        <ele>1112</ele>
        <time>2010-01-01T01:50:12Z</time>
      </trkpt>
      <trkpt lat="42.26479" lon="2.24665">
        <ele>1112</ele>
        <time>2010-01-01T01:50:12Z</time>
      </trkpt>
      <trkpt lat="42.26481" lon="2.24665">
        <ele>1112</ele>
        <time>2010-01-01T01:50:13Z</time>
      </trkpt>
      <trkpt lat="42.26483" lon="2.24663">
        <ele>1111</ele>
        <time>2010-01-01T01:50:14Z</time>
      </trkpt>
      <trkpt lat="42.26485" lon="2.24662">
        <ele>1111</ele>
        <time>2010-01-01T01:50:15Z</time>
      </trkpt>
      <trkpt lat="42.26488" lon="2.2466">
        <ele>1111</ele>
        <time>2010-01-01T01:50:16Z</time>
      </trkpt>
      <trkpt lat="42.2649" lon="2.24659">
        <ele>1110</ele>
        <time>2010-01-01T01:50:17Z</time>
      </trkpt>
      <trkpt lat="42.26493" lon="2.24658">
        <ele>1110</ele>
        <time>2010-01-01T01:50:19Z</time>
      </trkpt>
      <trkpt lat="42.26496" lon="2.24656">
        <ele>1110</ele>
        <time>2010-01-01T01:50:20Z</time>
      </trkpt>
      <trkpt lat="42.26501" lon="2.24653">
        <ele>1109</ele>
        <time>2010-01-01T01:50:22Z</time>
      </trkpt>
      <trkpt lat="42.26505" lon="2.24651">
        <ele>1109</ele>
        <time>2010-01-01T01:50:24Z</time>
      </trkpt>
      <trkpt lat="42.2651" lon="2.2465">
        <ele>1108</ele>
        <time>2010-01-01T01:50:26Z</time>
      </trkpt>
      <trkpt lat="42.26514" lon="2.24647">
        <ele>1108</ele>
        <time>2010-01-01T01:50:27Z</time>
      </trkpt>
      <trkpt lat="42.26519" lon="2.24644">
        <ele>1106</ele>
        <time>2010-01-01T01:50:30Z</time>
      </trkpt>
      <trkpt lat="42.26524" lon="2.24643">
        <ele>1107</ele>
        <time>2010-01-01T01:50:32Z</time>
      </trkpt>
      <trkpt lat="42.2653" lon="2.24644">
        <ele>1108</ele>
        <time>2010-01-01T01:50:34Z</time>
      </trkpt>
      <trkpt lat="42.26535" lon="2.24644">
        <ele>1108</ele>
        <time>2010-01-01T01:50:36Z</time>
      </trkpt>
      <trkpt lat="42.2654" lon="2.24645">
        <ele>1109</ele>
        <time>2010-01-01T01:50:38Z</time>
      </trkpt>
      <trkpt lat="42.26544" lon="2.24644">
        <ele>1109</ele>
        <time>2010-01-01T01:50:40Z</time>
      </trkpt>
      <trkpt lat="42.2655" lon="2.24645">
        <ele>1110</ele>
        <time>2010-01-01T01:50:42Z</time>
      </trkpt>
      <trkpt lat="42.26555" lon="2.24646">
        <ele>1111</ele>
        <time>2010-01-01T01:50:44Z</time>
      </trkpt>
      <trkpt lat="42.2656" lon="2.24647">
        <ele>1111</ele>
        <time>2010-01-01T01:50:46Z</time>
      </trkpt>
      <trkpt lat="42.26566" lon="2.24649">
        <ele>1111</ele>
        <time>2010-01-01T01:50:49Z</time>
      </trkpt>
      <trkpt lat="42.2657" lon="2.2465">
        <ele>1110</ele>
        <time>2010-01-01T01:50:50Z</time>
      </trkpt>
      <trkpt lat="42.26574" lon="2.24653">
        <ele>1112</ele>
        <time>2010-01-01T01:50:52Z</time>
      </trkpt>
      <trkpt lat="42.26578" lon="2.24658">
        <ele>1114</ele>
        <time>2010-01-01T01:50:54Z</time>
      </trkpt>
      <trkpt lat="42.26581" lon="2.24661">
        <ele>1114</ele>
        <time>2010-01-01T01:50:56Z</time>
      </trkpt>
      <trkpt lat="42.26585" lon="2.24664">
        <ele>1115</ele>
        <time>2010-01-01T01:50:58Z</time>
      </trkpt>
      <trkpt lat="42.26589" lon="2.24667">
        <ele>1114</ele>
        <time>2010-01-01T01:51:00Z</time>
      </trkpt>
      <trkpt lat="42.26595" lon="2.2467">
        <ele>1114</ele>
        <time>2010-01-01T01:51:02Z</time>
      </trkpt>
      <trkpt lat="42.26599" lon="2.24673">
        <ele>1113</ele>
        <time>2010-01-01T01:51:04Z</time>
      </trkpt>
      <trkpt lat="42.26605" lon="2.24677">
        <ele>1112</ele>
        <time>2010-01-01T01:51:07Z</time>
      </trkpt>
      <trkpt lat="42.26613" lon="2.2468">
        <ele>1110</ele>
        <time>2010-01-01T01:51:10Z</time>
      </trkpt>
      <trkpt lat="42.26616" lon="2.24681">
        <ele>1110</ele>
        <time>2010-01-01T01:51:11Z</time>
      </trkpt>
      <trkpt lat="42.26619" lon="2.2468">
        <ele>1109</ele>
        <time>2010-01-01T01:51:12Z</time>
      </trkpt>
      <trkpt lat="42.26623" lon="2.24679">
        <ele>1107</ele>
        <time>2010-01-01T01:51:14Z</time>
      </trkpt>
      <trkpt lat="42.26629" lon="2.24681">
        <ele>1107</ele>
        <time>2010-01-01T01:51:16Z</time>
      </trkpt>
      <trkpt lat="42.26632" lon="2.24687">
        <ele>1108</ele>
        <time>2010-01-01T01:51:19Z</time>
      </trkpt>
      <trkpt lat="42.26634" lon="2.24692">
        <ele>1109</ele>
        <time>2010-01-01T01:51:20Z</time>
      </trkpt>
      <trkpt lat="42.26637" lon="2.24697">
        <ele>1110</ele>
        <time>2010-01-01T01:51:22Z</time>
      </trkpt>
      <trkpt lat="42.26638" lon="2.24702">
        <ele>1112</ele>
        <time>2010-01-01T01:51:24Z</time>
      </trkpt>
      <trkpt lat="42.26641" lon="2.24708">
        <ele>1114</ele>
        <time>2010-01-01T01:51:26Z</time>
      </trkpt>
      <trkpt lat="42.26644" lon="2.24712">
        <ele>1116</ele>
        <time>2010-01-01T01:51:27Z</time>
      </trkpt>
      <trkpt lat="42.26646" lon="2.24718">
        <ele>1118</ele>
        <time>2010-01-01T01:51:29Z</time>
      </trkpt>
      <trkpt lat="42.26648" lon="2.24722">
        <ele>1119</ele>
        <time>2010-01-01T01:51:31Z</time>
      </trkpt>
      <trkpt lat="42.2665" lon="2.24725">
        <ele>1120</ele>
        <time>2010-01-01T01:51:32Z</time>
      </trkpt>
      <trkpt lat="42.26653" lon="2.24728">
        <ele>1121</ele>
        <time>2010-01-01T01:51:33Z</time>
      </trkpt>
      <trkpt lat="42.26656" lon="2.2473">
        <ele>1120</ele>
        <time>2010-01-01T01:51:35Z</time>
      </trkpt>
      <trkpt lat="42.26658" lon="2.24735">
        <ele>1121</ele>
        <time>2010-01-01T01:51:36Z</time>
      </trkpt>
      <trkpt lat="42.26663" lon="2.24744">
        <ele>1123</ele>
        <time>2010-01-01T01:51:40Z</time>
      </trkpt>
      <trkpt lat="42.26665" lon="2.2475">
        <ele>1124</ele>
        <time>2010-01-01T01:51:42Z</time>
      </trkpt>
      <trkpt lat="42.26666" lon="2.24756">
        <ele>1125</ele>
        <time>2010-01-01T01:51:44Z</time>
      </trkpt>
      <trkpt lat="42.26666" lon="2.24759">
        <ele>1126</ele>
        <time>2010-01-01T01:51:44Z</time>
      </trkpt>
      <trkpt lat="42.2667" lon="2.24759">
        <ele>1125</ele>
        <time>2010-01-01T01:51:46Z</time>
      </trkpt>
      <trkpt lat="42.26674" lon="2.24759">
        <ele>1125</ele>
        <time>2010-01-01T01:51:48Z</time>
      </trkpt>
      <trkpt lat="42.26674" lon="2.24757">
        <ele>1124</ele>
        <time>2010-01-01T01:51:48Z</time>
      </trkpt>
      <trkpt lat="42.26675" lon="2.24753">
        <ele>1123</ele>
        <time>2010-01-01T01:51:50Z</time>
      </trkpt>
      <trkpt lat="42.26676" lon="2.2475">
        <ele>1123</ele>
        <time>2010-01-01T01:51:50Z</time>
      </trkpt>
      <trkpt lat="42.26677" lon="2.24749">
        <ele>1122</ele>
        <time>2010-01-01T01:51:51Z</time>
      </trkpt>
      <trkpt lat="42.26678" lon="2.24751">
        <ele>1123</ele>
        <time>2010-01-01T01:51:52Z</time>
      </trkpt>
      <trkpt lat="42.2668" lon="2.24753">
        <ele>1123</ele>
        <time>2010-01-01T01:51:53Z</time>
      </trkpt>
      <trkpt lat="42.26681" lon="2.24755">
        <ele>1123</ele>
        <time>2010-01-01T01:51:54Z</time>
      </trkpt>
      <trkpt lat="42.26682" lon="2.24752">
        <ele>1123</ele>
        <time>2010-01-01T01:51:54Z</time>
      </trkpt>
      <trkpt lat="42.26684" lon="2.24752">
        <ele>1123</ele>
        <time>2010-01-01T01:51:55Z</time>
      </trkpt>
      <trkpt lat="42.26685" lon="2.2475">
        <ele>1122</ele>
        <time>2010-01-01T01:51:56Z</time>
      </trkpt>
      <trkpt lat="42.26687" lon="2.24749">
        <ele>1122</ele>
        <time>2010-01-01T01:51:57Z</time>
      </trkpt>
      <trkpt lat="42.26689" lon="2.24751">
        <ele>1122</ele>
        <time>2010-01-01T01:51:58Z</time>
      </trkpt>
      <trkpt lat="42.26691" lon="2.24751">
        <ele>1122</ele>
        <time>2010-01-01T01:51:59Z</time>
      </trkpt>
      <trkpt lat="42.26694" lon="2.24751">
        <ele>1122</ele>
        <time>2010-01-01T01:52:00Z</time>
      </trkpt>
      <trkpt lat="42.26696" lon="2.2475">
        <ele>1122</ele>
        <time>2010-01-01T01:52:01Z</time>
      </trkpt>
      <trkpt lat="42.26698" lon="2.24748">
        <ele>1122</ele>
        <time>2010-01-01T01:52:02Z</time>
      </trkpt>
      <trkpt lat="42.26701" lon="2.24749">
        <ele>1123</ele>
        <time>2010-01-01T01:52:03Z</time>
      </trkpt>
      <trkpt lat="42.26703" lon="2.24753">
        <ele>1124</ele>
        <time>2010-01-01T01:52:04Z</time>
      </trkpt>
      <trkpt lat="42.26704" lon="2.24756">
        <ele>1125</ele>
        <time>2010-01-01T01:52:05Z</time>
      </trkpt>
      <trkpt lat="42.26706" lon="2.24759">
        <ele>1126</ele>
        <time>2010-01-01T01:52:07Z</time>
      </trkpt>
      <trkpt lat="42.26708" lon="2.24763">
        <ele>1127</ele>
        <time>2010-01-01T01:52:08Z</time>
      </trkpt>
      <trkpt lat="42.26709" lon="2.24766">
        <ele>1128</ele>
        <time>2010-01-01T01:52:09Z</time>
      </trkpt>
      <trkpt lat="42.2671" lon="2.24768">
        <ele>1129</ele>
        <time>2010-01-01T01:52:10Z</time>
      </trkpt>
      <trkpt lat="42.26713" lon="2.2477">
        <ele>1130</ele>
        <time>2010-01-01T01:52:11Z</time>
      </trkpt>
      <trkpt lat="42.26714" lon="2.24772">
        <ele>1131</ele>
        <time>2010-01-01T01:52:12Z</time>
      </trkpt>
      <trkpt lat="42.26715" lon="2.24775">
        <ele>1132</ele>
        <time>2010-01-01T01:52:13Z</time>
      </trkpt>
      <trkpt lat="42.26717" lon="2.24776">
        <ele>1133</ele>
        <time>2010-01-01T01:52:13Z</time>
      </trkpt>
      <trkpt lat="42.26719" lon="2.24779">
        <ele>1134</ele>
        <time>2010-01-01T01:52:14Z</time>
      </trkpt>
      <trkpt lat="42.26721" lon="2.2478">
        <ele>1134</ele>
        <time>2010-01-01T01:52:15Z</time>
      </trkpt>
      <trkpt lat="42.26722" lon="2.24784">
        <ele>1135</ele>
        <time>2010-01-01T01:52:17Z</time>
      </trkpt>
      <trkpt lat="42.26724" lon="2.24786">
        <ele>1136</ele>
        <time>2010-01-01T01:52:18Z</time>
      </trkpt>
      <trkpt lat="42.26727" lon="2.24788">
        <ele>1137</ele>
        <time>2010-01-01T01:52:19Z</time>
      </trkpt>
      <trkpt lat="42.26729" lon="2.24789">
        <ele>1138</ele>
        <time>2010-01-01T01:52:20Z</time>
      </trkpt>
      <trkpt lat="42.26731" lon="2.2479">
        <ele>1139</ele>
        <time>2010-01-01T01:52:21Z</time>
      </trkpt>
      <trkpt lat="42.26733" lon="2.24792">
        <ele>1140</ele>
        <time>2010-01-01T01:52:22Z</time>
      </trkpt>
      <trkpt lat="42.26735" lon="2.24794">
        <ele>1141</ele>
        <time>2010-01-01T01:52:23Z</time>
      </trkpt>
      <trkpt lat="42.26737" lon="2.24796">
        <ele>1142</ele>
        <time>2010-01-01T01:52:23Z</time>
      </trkpt>
      <trkpt lat="42.26738" lon="2.24799">
        <ele>1143</ele>
        <time>2010-01-01T01:52:24Z</time>
      </trkpt>
      <trkpt lat="42.26737" lon="2.24802">
        <ele>1143</ele>
        <time>2010-01-01T01:52:25Z</time>
      </trkpt>
      <trkpt lat="42.26738" lon="2.24805">
        <ele>1143</ele>
        <time>2010-01-01T01:52:26Z</time>
      </trkpt>
      <trkpt lat="42.26738" lon="2.24809">
        <ele>1144</ele>
        <time>2010-01-01T01:52:27Z</time>
      </trkpt>
      <trkpt lat="42.26739" lon="2.24813">
        <ele>1144</ele>
        <time>2010-01-01T01:52:28Z</time>
      </trkpt>
      <trkpt lat="42.26739" lon="2.24816">
        <ele>1145</ele>
        <time>2010-01-01T01:52:29Z</time>
      </trkpt>
      <trkpt lat="42.26741" lon="2.24819">
        <ele>1145</ele>
        <time>2010-01-01T01:52:31Z</time>
      </trkpt>
      <trkpt lat="42.26741" lon="2.24823">
        <ele>1146</ele>
        <time>2010-01-01T01:52:32Z</time>
      </trkpt>
      <trkpt lat="42.26742" lon="2.24826">
        <ele>1146</ele>
        <time>2010-01-01T01:52:33Z</time>
      </trkpt>
      <trkpt lat="42.26742" lon="2.24829">
        <ele>1146</ele>
        <time>2010-01-01T01:52:34Z</time>
      </trkpt>
      <trkpt lat="42.26743" lon="2.24833">
        <ele>1147</ele>
        <time>2010-01-01T01:52:35Z</time>
      </trkpt>
      <trkpt lat="42.26744" lon="2.24836">
        <ele>1147</ele>
        <time>2010-01-01T01:52:36Z</time>
      </trkpt>
      <trkpt lat="42.26744" lon="2.2484">
        <ele>1147</ele>
        <time>2010-01-01T01:52:37Z</time>
      </trkpt>
      <trkpt lat="42.26744" lon="2.24843">
        <ele>1147</ele>
        <time>2010-01-01T01:52:38Z</time>
      </trkpt>
      <trkpt lat="42.26744" lon="2.24846">
        <ele>1147</ele>
        <time>2010-01-01T01:52:39Z</time>
      </trkpt>
      <trkpt lat="42.26745" lon="2.2485">
        <ele>1146</ele>
        <time>2010-01-01T01:52:40Z</time>
      </trkpt>
      <trkpt lat="42.26745" lon="2.24855">
        <ele>1146</ele>
        <time>2010-01-01T01:52:41Z</time>
      </trkpt>
      <trkpt lat="42.26745" lon="2.24859">
        <ele>1146</ele>
        <time>2010-01-01T01:52:43Z</time>
      </trkpt>
      <trkpt lat="42.26745" lon="2.24863">
        <ele>1147</ele>
        <time>2010-01-01T01:52:44Z</time>
      </trkpt>
      <trkpt lat="42.26746" lon="2.24866">
        <ele>1147</ele>
        <time>2010-01-01T01:52:45Z</time>
      </trkpt>
      <trkpt lat="42.26745" lon="2.24869">
        <ele>1148</ele>
        <time>2010-01-01T01:52:46Z</time>
      </trkpt>
      <trkpt lat="42.26746" lon="2.24872">
        <ele>1149</ele>
        <time>2010-01-01T01:52:46Z</time>
      </trkpt>
      <trkpt lat="42.26746" lon="2.24876">
        <ele>1150</ele>
        <time>2010-01-01T01:52:48Z</time>
      </trkpt>
      <trkpt lat="42.26747" lon="2.24882">
        <ele>1151</ele>
        <time>2010-01-01T01:52:50Z</time>
      </trkpt>
      <trkpt lat="42.26747" lon="2.24885">
        <ele>1152</ele>
        <time>2010-01-01T01:52:50Z</time>
      </trkpt>
      <trkpt lat="42.26748" lon="2.24888">
        <ele>1153</ele>
        <time>2010-01-01T01:52:51Z</time>
      </trkpt>
      <trkpt lat="42.26748" lon="2.24891">
        <ele>1153</ele>
        <time>2010-01-01T01:52:52Z</time>
      </trkpt>
      <trkpt lat="42.26748" lon="2.24894">
        <ele>1153</ele>
        <time>2010-01-01T01:52:53Z</time>
      </trkpt>
      <trkpt lat="42.26749" lon="2.24897">
        <ele>1153</ele>
        <time>2010-01-01T01:52:54Z</time>
      </trkpt>
      <trkpt lat="42.26748" lon="2.24901">
        <ele>1154</ele>
        <time>2010-01-01T01:52:55Z</time>
      </trkpt>
      <trkpt lat="42.26748" lon="2.24905">
        <ele>1154</ele>
        <time>2010-01-01T01:52:57Z</time>
      </trkpt>
      <trkpt lat="42.26749" lon="2.24909">
        <ele>1154</ele>
        <time>2010-01-01T01:52:58Z</time>
      </trkpt>
      <trkpt lat="42.26749" lon="2.24913">
        <ele>1154</ele>
        <time>2010-01-01T01:52:59Z</time>
      </trkpt>
      <trkpt lat="42.26748" lon="2.24917">
        <ele>1154</ele>
        <time>2010-01-01T01:53:00Z</time>
      </trkpt>
      <trkpt lat="42.26748" lon="2.24921">
        <ele>1155</ele>
        <time>2010-01-01T01:53:01Z</time>
      </trkpt>
      <trkpt lat="42.26747" lon="2.24924">
        <ele>1155</ele>
        <time>2010-01-01T01:53:02Z</time>
      </trkpt>
      <trkpt lat="42.26747" lon="2.24927">
        <ele>1156</ele>
        <time>2010-01-01T01:53:03Z</time>
      </trkpt>
      <trkpt lat="42.26747" lon="2.24931">
        <ele>1156</ele>
        <time>2010-01-01T01:53:04Z</time>
      </trkpt>
      <trkpt lat="42.26747" lon="2.24935">
        <ele>1157</ele>
        <time>2010-01-01T01:53:05Z</time>
      </trkpt>
      <trkpt lat="42.26748" lon="2.24939">
        <ele>1157</ele>
        <time>2010-01-01T01:53:07Z</time>
      </trkpt>
      <trkpt lat="42.26749" lon="2.24943">
        <ele>1158</ele>
        <time>2010-01-01T01:53:08Z</time>
      </trkpt>
      <trkpt lat="42.2675" lon="2.24946">
        <ele>1159</ele>
        <time>2010-01-01T01:53:09Z</time>
      </trkpt>
      <trkpt lat="42.26751" lon="2.24949">
        <ele>1160</ele>
        <time>2010-01-01T01:53:10Z</time>
      </trkpt>
      <trkpt lat="42.26751" lon="2.24952">
        <ele>1160</ele>
        <time>2010-01-01T01:53:11Z</time>
      </trkpt>
      <trkpt lat="42.26752" lon="2.24956">
        <ele>1161</ele>
        <time>2010-01-01T01:53:12Z</time>
      </trkpt>
      <trkpt lat="42.26753" lon="2.24959">
        <ele>1161</ele>
        <time>2010-01-01T01:53:13Z</time>
      </trkpt>
      <trkpt lat="42.26753" lon="2.24962">
        <ele>1162</ele>
        <time>2010-01-01T01:53:14Z</time>
      </trkpt>
      <trkpt lat="42.26754" lon="2.24965">
        <ele>1163</ele>
        <time>2010-01-01T01:53:15Z</time>
      </trkpt>
      <trkpt lat="42.26755" lon="2.24969">
        <ele>1163</ele>
        <time>2010-01-01T01:53:16Z</time>
      </trkpt>
      <trkpt lat="42.26755" lon="2.24973">
        <ele>1164</ele>
        <time>2010-01-01T01:53:17Z</time>
      </trkpt>
      <trkpt lat="42.26757" lon="2.24985">
        <ele>1166</ele>
        <time>2010-01-01T01:53:21Z</time>
      </trkpt>
      <trkpt lat="42.2676" lon="2.24995">
        <ele>1168</ele>
        <time>2010-01-01T01:53:24Z</time>
      </trkpt>
      <trkpt lat="42.2676" lon="2.25001">
        <ele>1169</ele>
        <time>2010-01-01T01:53:26Z</time>
      </trkpt>
      <trkpt lat="42.26761" lon="2.25004">
        <ele>1169</ele>
        <time>2010-01-01T01:53:27Z</time>
      </trkpt>
      <trkpt lat="42.26761" lon="2.25008">
        <ele>1169</ele>
        <time>2010-01-01T01:53:28Z</time>
      </trkpt>
      <trkpt lat="42.26761" lon="2.25011">
        <ele>1169</ele>
        <time>2010-01-01T01:53:29Z</time>
      </trkpt>
      <trkpt lat="42.26763" lon="2.25014">
        <ele>1169</ele>
        <time>2010-01-01T01:53:30Z</time>
      </trkpt>
      <trkpt lat="42.26764" lon="2.25016">
        <ele>1170</ele>
        <time>2010-01-01T01:53:31Z</time>
      </trkpt>
      <trkpt lat="42.26764" lon="2.25013">
        <ele>1170</ele>
        <time>2010-01-01T01:53:32Z</time>
      </trkpt>
      <trkpt lat="42.26764" lon="2.25009">
        <ele>1170</ele>
        <time>2010-01-01T01:53:33Z</time>
      </trkpt>
      <trkpt lat="42.26766" lon="2.25004">
        <ele>1170</ele>
        <time>2010-01-01T01:53:34Z</time>
      </trkpt>
      <trkpt lat="42.26768" lon="2.24992">
        <ele>1170</ele>
        <time>2010-01-01T01:53:38Z</time>
      </trkpt>
      <trkpt lat="42.26768" lon="2.24988">
        <ele>1170</ele>
        <time>2010-01-01T01:53:39Z</time>
      </trkpt>
      <trkpt lat="42.26768" lon="2.24973">
        <ele>1169</ele>
        <time>2010-01-01T01:53:44Z</time>
      </trkpt>
      <trkpt lat="42.26767" lon="2.24959">
        <ele>1168</ele>
        <time>2010-01-01T01:53:48Z</time>
      </trkpt>
      <trkpt lat="42.26769" lon="2.24944">
        <ele>1167</ele>
        <time>2010-01-01T01:53:52Z</time>
      </trkpt>
      <trkpt lat="42.26774" lon="2.2493">
        <ele>1168</ele>
        <time>2010-01-01T01:53:57Z</time>
      </trkpt>
      <trkpt lat="42.26775" lon="2.24925">
        <ele>1169</ele>
        <time>2010-01-01T01:53:59Z</time>
      </trkpt>
      <trkpt lat="42.26778" lon="2.24924">
        <ele>1170</ele>
        <time>2010-01-01T01:54:00Z</time>
      </trkpt>
      <trkpt lat="42.26781" lon="2.24924">
        <ele>1171</ele>
        <time>2010-01-01T01:54:01Z</time>
      </trkpt>
      <trkpt lat="42.26782" lon="2.24925">
        <ele>1172</ele>
        <time>2010-01-01T01:54:02Z</time>
      </trkpt>
      <trkpt lat="42.26785" lon="2.24936">
        <ele>1174</ele>
        <time>2010-01-01T01:54:05Z</time>
      </trkpt>
      <trkpt lat="42.26785" lon="2.24938">
        <ele>1175</ele>
        <time>2010-01-01T01:54:06Z</time>
      </trkpt>
      <trkpt lat="42.26785" lon="2.24943">
        <ele>1175</ele>
        <time>2010-01-01T01:54:07Z</time>
      </trkpt>
      <trkpt lat="42.26784" lon="2.24946">
        <ele>1175</ele>
        <time>2010-01-01T01:54:08Z</time>
      </trkpt>
      <trkpt lat="42.26785" lon="2.24949">
        <ele>1175</ele>
        <time>2010-01-01T01:54:09Z</time>
      </trkpt>
      <trkpt lat="42.26785" lon="2.24953">
        <ele>1176</ele>
        <time>2010-01-01T01:54:10Z</time>
      </trkpt>
      <trkpt lat="42.26785" lon="2.24957">
        <ele>1176</ele>
        <time>2010-01-01T01:54:11Z</time>
      </trkpt>
      <trkpt lat="42.26786" lon="2.24961">
        <ele>1177</ele>
        <time>2010-01-01T01:54:13Z</time>
      </trkpt>
      <trkpt lat="42.26786" lon="2.24965">
        <ele>1177</ele>
        <time>2010-01-01T01:54:14Z</time>
      </trkpt>
      <trkpt lat="42.26787" lon="2.24969">
        <ele>1178</ele>
        <time>2010-01-01T01:54:15Z</time>
      </trkpt>
      <trkpt lat="42.26787" lon="2.24973">
        <ele>1178</ele>
        <time>2010-01-01T01:54:16Z</time>
      </trkpt>
      <trkpt lat="42.26788" lon="2.24977">
        <ele>1179</ele>
        <time>2010-01-01T01:54:17Z</time>
      </trkpt>
      <trkpt lat="42.26789" lon="2.24981">
        <ele>1179</ele>
        <time>2010-01-01T01:54:19Z</time>
      </trkpt>
      <trkpt lat="42.2679" lon="2.24985">
        <ele>1179</ele>
        <time>2010-01-01T01:54:20Z</time>
      </trkpt>
      <trkpt lat="42.26791" lon="2.24988">
        <ele>1179</ele>
        <time>2010-01-01T01:54:21Z</time>
      </trkpt>
      <trkpt lat="42.26793" lon="2.24992">
        <ele>1180</ele>
        <time>2010-01-01T01:54:22Z</time>
      </trkpt>
      <trkpt lat="42.26796" lon="2.24995">
        <ele>1181</ele>
        <time>2010-01-01T01:54:24Z</time>
      </trkpt>
      <trkpt lat="42.268" lon="2.24999">
        <ele>1182</ele>
        <time>2010-01-01T01:54:25Z</time>
      </trkpt>
      <trkpt lat="42.26803" lon="2.25003">
        <ele>1183</ele>
        <time>2010-01-01T01:54:27Z</time>
      </trkpt>
      <trkpt lat="42.26807" lon="2.25016">
        <ele>1185</ele>
        <time>2010-01-01T01:54:32Z</time>
      </trkpt>
      <trkpt lat="42.2681" lon="2.2503">
        <ele>1186</ele>
        <time>2010-01-01T01:54:36Z</time>
      </trkpt>
      <trkpt lat="42.2681" lon="2.25036">
        <ele>1186</ele>
        <time>2010-01-01T01:54:38Z</time>
      </trkpt>
      <trkpt lat="42.26811" lon="2.2504">
        <ele>1186</ele>
        <time>2010-01-01T01:54:39Z</time>
      </trkpt>
      <trkpt lat="42.26812" lon="2.25044">
        <ele>1186</ele>
        <time>2010-01-01T01:54:40Z</time>
      </trkpt>
      <trkpt lat="42.26812" lon="2.25047">
        <ele>1187</ele>
        <time>2010-01-01T01:54:41Z</time>
      </trkpt>
      <trkpt lat="42.26814" lon="2.2505">
        <ele>1187</ele>
        <time>2010-01-01T01:54:42Z</time>
      </trkpt>
      <trkpt lat="42.26815" lon="2.25053">
        <ele>1187</ele>
        <time>2010-01-01T01:54:43Z</time>
      </trkpt>
      <trkpt lat="42.26816" lon="2.25055">
        <ele>1188</ele>
        <time>2010-01-01T01:54:44Z</time>
      </trkpt>
      <trkpt lat="42.26817" lon="2.25058">
        <ele>1188</ele>
        <time>2010-01-01T01:54:45Z</time>
      </trkpt>
      <trkpt lat="42.26817" lon="2.25061">
        <ele>1188</ele>
        <time>2010-01-01T01:54:46Z</time>
      </trkpt>
      <trkpt lat="42.26818" lon="2.25064">
        <ele>1188</ele>
        <time>2010-01-01T01:54:47Z</time>
      </trkpt>
      <trkpt lat="42.2682" lon="2.25067">
        <ele>1189</ele>
        <time>2010-01-01T01:54:48Z</time>
      </trkpt>
      <trkpt lat="42.26821" lon="2.2507">
        <ele>1189</ele>
        <time>2010-01-01T01:54:49Z</time>
      </trkpt>
      <trkpt lat="42.26822" lon="2.25073">
        <ele>1190</ele>
        <time>2010-01-01T01:54:50Z</time>
      </trkpt>
      <trkpt lat="42.26823" lon="2.25076">
        <ele>1190</ele>
        <time>2010-01-01T01:54:51Z</time>
      </trkpt>
      <trkpt lat="42.26824" lon="2.25079">
        <ele>1191</ele>
        <time>2010-01-01T01:54:52Z</time>
      </trkpt>
      <trkpt lat="42.26825" lon="2.25084">
        <ele>1191</ele>
        <time>2010-01-01T01:54:53Z</time>
      </trkpt>
      <trkpt lat="42.26824" lon="2.25088">
        <ele>1191</ele>
        <time>2010-01-01T01:54:55Z</time>
      </trkpt>
      <trkpt lat="42.26823" lon="2.25092">
        <ele>1191</ele>
        <time>2010-01-01T01:54:56Z</time>
      </trkpt>
      <trkpt lat="42.26822" lon="2.25096">
        <ele>1191</ele>
        <time>2010-01-01T01:54:57Z</time>
      </trkpt>
      <trkpt lat="42.2682" lon="2.251">
        <ele>1190</ele>
        <time>2010-01-01T01:54:59Z</time>
      </trkpt>
      <trkpt lat="42.26817" lon="2.25105">
        <ele>1190</ele>
        <time>2010-01-01T01:55:00Z</time>
      </trkpt>
      <trkpt lat="42.26813" lon="2.25111">
        <ele>1188</ele>
        <time>2010-01-01T01:55:03Z</time>
      </trkpt>
      <trkpt lat="42.26811" lon="2.25115">
        <ele>1188</ele>
        <time>2010-01-01T01:55:04Z</time>
      </trkpt>
      <trkpt lat="42.26808" lon="2.2512">
        <ele>1189</ele>
        <time>2010-01-01T01:55:06Z</time>
      </trkpt>
      <trkpt lat="42.26808" lon="2.25124">
        <ele>1190</ele>
        <time>2010-01-01T01:55:07Z</time>
      </trkpt>
      <trkpt lat="42.26808" lon="2.25128">
        <ele>1191</ele>
        <time>2010-01-01T01:55:08Z</time>
      </trkpt>
      <trkpt lat="42.26808" lon="2.25131">
        <ele>1191</ele>
        <time>2010-01-01T01:55:09Z</time>
      </trkpt>
      <trkpt lat="42.26808" lon="2.25135">
        <ele>1192</ele>
        <time>2010-01-01T01:55:11Z</time>
      </trkpt>
      <trkpt lat="42.26808" lon="2.25139">
        <ele>1193</ele>
        <time>2010-01-01T01:55:12Z</time>
      </trkpt>
      <trkpt lat="42.26808" lon="2.25142">
        <ele>1194</ele>
        <time>2010-01-01T01:55:13Z</time>
      </trkpt>
      <trkpt lat="42.26807" lon="2.25146">
        <ele>1194</ele>
        <time>2010-01-01T01:55:14Z</time>
      </trkpt>
      <trkpt lat="42.26807" lon="2.25149">
        <ele>1195</ele>
        <time>2010-01-01T01:55:15Z</time>
      </trkpt>
      <trkpt lat="42.26807" lon="2.25152">
        <ele>1195</ele>
        <time>2010-01-01T01:55:16Z</time>
      </trkpt>
      <trkpt lat="42.26807" lon="2.25156">
        <ele>1196</ele>
        <time>2010-01-01T01:55:17Z</time>
      </trkpt>
      <trkpt lat="42.26807" lon="2.25159">
        <ele>1197</ele>
        <time>2010-01-01T01:55:18Z</time>
      </trkpt>
      <trkpt lat="42.26805" lon="2.25161">
        <ele>1196</ele>
        <time>2010-01-01T01:55:18Z</time>
      </trkpt>
      <trkpt lat="42.26804" lon="2.25162">
        <ele>1196</ele>
        <time>2010-01-01T01:55:19Z</time>
      </trkpt>
      <trkpt lat="42.26803" lon="2.25165">
        <ele>1196</ele>
        <time>2010-01-01T01:55:20Z</time>
      </trkpt>
      <trkpt lat="42.26801" lon="2.25167">
        <ele>1196</ele>
        <time>2010-01-01T01:55:21Z</time>
      </trkpt>
      <trkpt lat="42.26799" lon="2.25169">
        <ele>1197</ele>
        <time>2010-01-01T01:55:22Z</time>
      </trkpt>
      <trkpt lat="42.26798" lon="2.25172">
        <ele>1197</ele>
        <time>2010-01-01T01:55:23Z</time>
      </trkpt>
      <trkpt lat="42.26796" lon="2.25174">
        <ele>1197</ele>
        <time>2010-01-01T01:55:24Z</time>
      </trkpt>
      <trkpt lat="42.26794" lon="2.25176">
        <ele>1197</ele>
        <time>2010-01-01T01:55:25Z</time>
      </trkpt>
      <trkpt lat="42.26793" lon="2.25179">
        <ele>1198</ele>
        <time>2010-01-01T01:55:26Z</time>
      </trkpt>
      <trkpt lat="42.26792" lon="2.25183">
        <ele>1198</ele>
        <time>2010-01-01T01:55:27Z</time>
      </trkpt>
      <trkpt lat="42.2679" lon="2.25187">
        <ele>1199</ele>
        <time>2010-01-01T01:55:28Z</time>
      </trkpt>
      <trkpt lat="42.2679" lon="2.2519">
        <ele>1199</ele>
        <time>2010-01-01T01:55:30Z</time>
      </trkpt>
      <trkpt lat="42.2679" lon="2.25194">
        <ele>1200</ele>
        <time>2010-01-01T01:55:31Z</time>
      </trkpt>
      <trkpt lat="42.26789" lon="2.25198">
        <ele>1201</ele>
        <time>2010-01-01T01:55:32Z</time>
      </trkpt>
      <trkpt lat="42.26787" lon="2.25202">
        <ele>1202</ele>
        <time>2010-01-01T01:55:33Z</time>
      </trkpt>
      <trkpt lat="42.26786" lon="2.25205">
        <ele>1202</ele>
        <time>2010-01-01T01:55:34Z</time>
      </trkpt>
      <trkpt lat="42.26784" lon="2.25207">
        <ele>1202</ele>
        <time>2010-01-01T01:55:35Z</time>
      </trkpt>
      <trkpt lat="42.26782" lon="2.25208">
        <ele>1201</ele>
        <time>2010-01-01T01:55:36Z</time>
      </trkpt>
      <trkpt lat="42.26781" lon="2.25211">
        <ele>1202</ele>
        <time>2010-01-01T01:55:37Z</time>
      </trkpt>
      <trkpt lat="42.2678" lon="2.25212">
        <ele>1202</ele>
        <time>2010-01-01T01:55:38Z</time>
      </trkpt>
      <trkpt lat="42.26778" lon="2.25215">
        <ele>1202</ele>
        <time>2010-01-01T01:55:39Z</time>
      </trkpt>
      <trkpt lat="42.26775" lon="2.25218">
        <ele>1202</ele>
        <time>2010-01-01T01:55:40Z</time>
      </trkpt>
      <trkpt lat="42.26774" lon="2.2522">
        <ele>1202</ele>
        <time>2010-01-01T01:55:41Z</time>
      </trkpt>
      <trkpt lat="42.26771" lon="2.25223">
        <ele>1203</ele>
        <time>2010-01-01T01:55:42Z</time>
      </trkpt>
      <trkpt lat="42.26769" lon="2.25224">
        <ele>1203</ele>
        <time>2010-01-01T01:55:43Z</time>
      </trkpt>
      <trkpt lat="42.26767" lon="2.25226">
        <ele>1203</ele>
        <time>2010-01-01T01:55:44Z</time>
      </trkpt>
      <trkpt lat="42.26765" lon="2.25227">
        <ele>1203</ele>
        <time>2010-01-01T01:55:45Z</time>
      </trkpt>
      <trkpt lat="42.26763" lon="2.25229">
        <ele>1203</ele>
        <time>2010-01-01T01:55:46Z</time>
      </trkpt>
      <trkpt lat="42.26761" lon="2.2523">
        <ele>1203</ele>
        <time>2010-01-01T01:55:47Z</time>
      </trkpt>
      <trkpt lat="42.26758" lon="2.25231">
        <ele>1203</ele>
        <time>2010-01-01T01:55:48Z</time>
      </trkpt>
      <trkpt lat="42.26756" lon="2.25233">
        <ele>1203</ele>
        <time>2010-01-01T01:55:49Z</time>
      </trkpt>
      <trkpt lat="42.26753" lon="2.25235">
        <ele>1203</ele>
        <time>2010-01-01T01:55:50Z</time>
      </trkpt>
      <trkpt lat="42.26749" lon="2.25236">
        <ele>1202</ele>
        <time>2010-01-01T01:55:52Z</time>
      </trkpt>
      <trkpt lat="42.26746" lon="2.25238">
        <ele>1203</ele>
        <time>2010-01-01T01:55:53Z</time>
      </trkpt>
      <trkpt lat="42.26742" lon="2.25239">
        <ele>1203</ele>
        <time>2010-01-01T01:55:55Z</time>
      </trkpt>
      <trkpt lat="42.2674" lon="2.2524">
        <ele>1203</ele>
        <time>2010-01-01T01:55:56Z</time>
      </trkpt>
      <trkpt lat="42.26736" lon="2.25243">
        <ele>1204</ele>
        <time>2010-01-01T01:55:58Z</time>
      </trkpt>
      <trkpt lat="42.26733" lon="2.25246">
        <ele>1204</ele>
        <time>2010-01-01T01:55:59Z</time>
      </trkpt>
      <trkpt lat="42.26731" lon="2.25249">
        <ele>1205</ele>
        <time>2010-01-01T01:56:00Z</time>
      </trkpt>
      <trkpt lat="42.2673" lon="2.25252">
        <ele>1205</ele>
        <time>2010-01-01T01:56:01Z</time>
      </trkpt>
      <trkpt lat="42.26728" lon="2.25255">
        <ele>1206</ele>
        <time>2010-01-01T01:56:03Z</time>
      </trkpt>
      <trkpt lat="42.26727" lon="2.25259">
        <ele>1206</ele>
        <time>2010-01-01T01:56:04Z</time>
      </trkpt>
      <trkpt lat="42.26725" lon="2.25263">
        <ele>1207</ele>
        <time>2010-01-01T01:56:05Z</time>
      </trkpt>
      <trkpt lat="42.26725" lon="2.25267">
        <ele>1208</ele>
        <time>2010-01-01T01:56:06Z</time>
      </trkpt>
      <trkpt lat="42.26724" lon="2.25271">
        <ele>1208</ele>
        <time>2010-01-01T01:56:07Z</time>
      </trkpt>
      <trkpt lat="42.26723" lon="2.25275">
        <ele>1209</ele>
        <time>2010-01-01T01:56:09Z</time>
      </trkpt>
      <trkpt lat="42.26722" lon="2.25278">
        <ele>1210</ele>
        <time>2010-01-01T01:56:10Z</time>
      </trkpt>
      <trkpt lat="42.26722" lon="2.25281">
        <ele>1210</ele>
        <time>2010-01-01T01:56:11Z</time>
      </trkpt>
      <trkpt lat="42.26721" lon="2.25285">
        <ele>1210</ele>
        <time>2010-01-01T01:56:12Z</time>
      </trkpt>
      <trkpt lat="42.2672" lon="2.2529">
        <ele>1211</ele>
        <time>2010-01-01T01:56:13Z</time>
      </trkpt>
      <trkpt lat="42.26719" lon="2.25293">
        <ele>1212</ele>
        <time>2010-01-01T01:56:14Z</time>
      </trkpt>
      <trkpt lat="42.2672" lon="2.25296">
        <ele>1212</ele>
        <time>2010-01-01T01:56:15Z</time>
      </trkpt>
      <trkpt lat="42.26721" lon="2.25298">
        <ele>1212</ele>
        <time>2010-01-01T01:56:16Z</time>
      </trkpt>
      <trkpt lat="42.26722" lon="2.25302">
        <ele>1212</ele>
        <time>2010-01-01T01:56:17Z</time>
      </trkpt>
      <trkpt lat="42.26724" lon="2.25305">
        <ele>1213</ele>
        <time>2010-01-01T01:56:18Z</time>
      </trkpt>
      <trkpt lat="42.26726" lon="2.25308">
        <ele>1213</ele>
        <time>2010-01-01T01:56:19Z</time>
      </trkpt>
      <trkpt lat="42.26726" lon="2.2531">
        <ele>1214</ele>
        <time>2010-01-01T01:56:20Z</time>
      </trkpt>
      <trkpt lat="42.26727" lon="2.25313">
        <ele>1214</ele>
        <time>2010-01-01T01:56:21Z</time>
      </trkpt>
      <trkpt lat="42.26729" lon="2.25315">
        <ele>1215</ele>
        <time>2010-01-01T01:56:22Z</time>
      </trkpt>
      <trkpt lat="42.26731" lon="2.25319">
        <ele>1215</ele>
        <time>2010-01-01T01:56:23Z</time>
      </trkpt>
      <trkpt lat="42.26733" lon="2.25324">
        <ele>1216</ele>
        <time>2010-01-01T01:56:25Z</time>
      </trkpt>
      <trkpt lat="42.26736" lon="2.2533">
        <ele>1217</ele>
        <time>2010-01-01T01:56:27Z</time>
      </trkpt>
      <trkpt lat="42.26738" lon="2.25336">
        <ele>1218</ele>
        <time>2010-01-01T01:56:29Z</time>
      </trkpt>
      <trkpt lat="42.2674" lon="2.25342">
        <ele>1218</ele>
        <time>2010-01-01T01:56:31Z</time>
      </trkpt>
      <trkpt lat="42.26742" lon="2.25347">
        <ele>1218</ele>
        <time>2010-01-01T01:56:33Z</time>
      </trkpt>
      <trkpt lat="42.26745" lon="2.25353">
        <ele>1218</ele>
        <time>2010-01-01T01:56:35Z</time>
      </trkpt>
      <trkpt lat="42.26747" lon="2.25358">
        <ele>1218</ele>
        <time>2010-01-01T01:56:36Z</time>
      </trkpt>
      <trkpt lat="42.26749" lon="2.25363">
        <ele>1219</ele>
        <time>2010-01-01T01:56:38Z</time>
      </trkpt>
      <trkpt lat="42.26753" lon="2.25366">
        <ele>1219</ele>
        <time>2010-01-01T01:56:40Z</time>
      </trkpt>
      <trkpt lat="42.26756" lon="2.25368">
        <ele>1220</ele>
        <time>2010-01-01T01:56:42Z</time>
      </trkpt>
      <trkpt lat="42.26759" lon="2.25371">
        <ele>1221</ele>
        <time>2010-01-01T01:56:43Z</time>
      </trkpt>
      <trkpt lat="42.26764" lon="2.25374">
        <ele>1221</ele>
        <time>2010-01-01T01:56:45Z</time>
      </trkpt>
      <trkpt lat="42.26766" lon="2.25376">
        <ele>1222</ele>
        <time>2010-01-01T01:56:46Z</time>
      </trkpt>
      <trkpt lat="42.26768" lon="2.25378">
        <ele>1222</ele>
        <time>2010-01-01T01:56:47Z</time>
      </trkpt>
      <trkpt lat="42.2677" lon="2.2538">
        <ele>1223</ele>
        <time>2010-01-01T01:56:48Z</time>
      </trkpt>
      <trkpt lat="42.26772" lon="2.25383">
        <ele>1223</ele>
        <time>2010-01-01T01:56:49Z</time>
      </trkpt>
      <trkpt lat="42.26774" lon="2.25385">
        <ele>1223</ele>
        <time>2010-01-01T01:56:51Z</time>
      </trkpt>
      <trkpt lat="42.26777" lon="2.25386">
        <ele>1224</ele>
        <time>2010-01-01T01:56:52Z</time>
      </trkpt>
      <trkpt lat="42.26779" lon="2.25389">
        <ele>1224</ele>
        <time>2010-01-01T01:56:53Z</time>
      </trkpt>
      <trkpt lat="42.26781" lon="2.25392">
        <ele>1224</ele>
        <time>2010-01-01T01:56:54Z</time>
      </trkpt>
      <trkpt lat="42.26783" lon="2.25395">
        <ele>1225</ele>
        <time>2010-01-01T01:56:55Z</time>
      </trkpt>
      <trkpt lat="42.26785" lon="2.25399">
        <ele>1225</ele>
        <time>2010-01-01T01:56:57Z</time>
      </trkpt>
      <trkpt lat="42.26787" lon="2.25401">
        <ele>1225</ele>
        <time>2010-01-01T01:56:58Z</time>
      </trkpt>
      <trkpt lat="42.2679" lon="2.25404">
        <ele>1225</ele>
        <time>2010-01-01T01:56:59Z</time>
      </trkpt>
      <trkpt lat="42.26792" lon="2.25406">
        <ele>1226</ele>
        <time>2010-01-01T01:57:00Z</time>
      </trkpt>
      <trkpt lat="42.26794" lon="2.25407">
        <ele>1226</ele>
        <time>2010-01-01T01:57:01Z</time>
      </trkpt>
      <trkpt lat="42.26796" lon="2.25408">
        <ele>1227</ele>
        <time>2010-01-01T01:57:02Z</time>
      </trkpt>
      <trkpt lat="42.26798" lon="2.2541">
        <ele>1227</ele>
        <time>2010-01-01T01:57:03Z</time>
      </trkpt>
      <trkpt lat="42.268" lon="2.25411">
        <ele>1227</ele>
        <time>2010-01-01T01:57:04Z</time>
      </trkpt>
      <trkpt lat="42.26802" lon="2.25414">
        <ele>1227</ele>
        <time>2010-01-01T01:57:05Z</time>
      </trkpt>
      <trkpt lat="42.26804" lon="2.25416">
        <ele>1227</ele>
        <time>2010-01-01T01:57:06Z</time>
      </trkpt>
      <trkpt lat="42.26807" lon="2.2542">
        <ele>1227</ele>
        <time>2010-01-01T01:57:08Z</time>
      </trkpt>
      <trkpt lat="42.26809" lon="2.25423">
        <ele>1227</ele>
        <time>2010-01-01T01:57:09Z</time>
      </trkpt>
      <trkpt lat="42.26812" lon="2.25429">
        <ele>1227</ele>
        <time>2010-01-01T01:57:11Z</time>
      </trkpt>
      <trkpt lat="42.26811" lon="2.25433">
        <ele>1226</ele>
        <time>2010-01-01T01:57:12Z</time>
      </trkpt>
      <trkpt lat="42.26811" lon="2.25437">
        <ele>1225</ele>
        <time>2010-01-01T01:57:13Z</time>
      </trkpt>
      <trkpt lat="42.2681" lon="2.25441">
        <ele>1225</ele>
        <time>2010-01-01T01:57:14Z</time>
      </trkpt>
      <trkpt lat="42.26808" lon="2.25446">
        <ele>1224</ele>
        <time>2010-01-01T01:57:16Z</time>
      </trkpt>
      <trkpt lat="42.26807" lon="2.25451">
        <ele>1223</ele>
        <time>2010-01-01T01:57:18Z</time>
      </trkpt>
      <trkpt lat="42.26807" lon="2.25454">
        <ele>1223</ele>
        <time>2010-01-01T01:57:19Z</time>
      </trkpt>
      <trkpt lat="42.26807" lon="2.25458">
        <ele>1223</ele>
        <time>2010-01-01T01:57:20Z</time>
      </trkpt>
      <trkpt lat="42.26807" lon="2.25462">
        <ele>1223</ele>
        <time>2010-01-01T01:57:21Z</time>
      </trkpt>
      <trkpt lat="42.26807" lon="2.25465">
        <ele>1223</ele>
        <time>2010-01-01T01:57:22Z</time>
      </trkpt>
      <trkpt lat="42.26807" lon="2.25468">
        <ele>1223</ele>
        <time>2010-01-01T01:57:23Z</time>
      </trkpt>
      <trkpt lat="42.26807" lon="2.25471">
        <ele>1223</ele>
        <time>2010-01-01T01:57:24Z</time>
      </trkpt>
      <trkpt lat="42.26807" lon="2.25474">
        <ele>1223</ele>
        <time>2010-01-01T01:57:25Z</time>
      </trkpt>
      <trkpt lat="42.26806" lon="2.25477">
        <ele>1223</ele>
        <time>2010-01-01T01:57:26Z</time>
      </trkpt>
      <trkpt lat="42.26805" lon="2.25481">
        <ele>1223</ele>
        <time>2010-01-01T01:57:27Z</time>
      </trkpt>
      <trkpt lat="42.26805" lon="2.25483">
        <ele>1223</ele>
        <time>2010-01-01T01:57:28Z</time>
      </trkpt>
      <trkpt lat="42.26804" lon="2.25486">
        <ele>1223</ele>
        <time>2010-01-01T01:57:29Z</time>
      </trkpt>
      <trkpt lat="42.26801" lon="2.25489">
        <ele>1223</ele>
        <time>2010-01-01T01:57:30Z</time>
      </trkpt>
      <trkpt lat="42.26799" lon="2.25491">
        <ele>1223</ele>
        <time>2010-01-01T01:57:31Z</time>
      </trkpt>
      <trkpt lat="42.26796" lon="2.25493">
        <ele>1223</ele>
        <time>2010-01-01T01:57:32Z</time>
      </trkpt>
      <trkpt lat="42.26794" lon="2.25496">
        <ele>1223</ele>
        <time>2010-01-01T01:57:33Z</time>
      </trkpt>
      <trkpt lat="42.26792" lon="2.25498">
        <ele>1223</ele>
        <time>2010-01-01T01:57:34Z</time>
      </trkpt>
      <trkpt lat="42.26791" lon="2.25501">
        <ele>1223</ele>
        <time>2010-01-01T01:57:35Z</time>
      </trkpt>
      <trkpt lat="42.2679" lon="2.25504">
        <ele>1224</ele>
        <time>2010-01-01T01:57:36Z</time>
      </trkpt>
      <trkpt lat="42.26789" lon="2.25508">
        <ele>1224</ele>
        <time>2010-01-01T01:57:37Z</time>
      </trkpt>
      <trkpt lat="42.2679" lon="2.25512">
        <ele>1224</ele>
        <time>2010-01-01T01:57:39Z</time>
      </trkpt>
      <trkpt lat="42.26791" lon="2.25516">
        <ele>1225</ele>
        <time>2010-01-01T01:57:40Z</time>
      </trkpt>
      <trkpt lat="42.26792" lon="2.25519">
        <ele>1225</ele>
        <time>2010-01-01T01:57:41Z</time>
      </trkpt>
      <trkpt lat="42.26793" lon="2.25523">
        <ele>1226</ele>
        <time>2010-01-01T01:57:42Z</time>
      </trkpt>
      <trkpt lat="42.26795" lon="2.25526">
        <ele>1226</ele>
        <time>2010-01-01T01:57:43Z</time>
      </trkpt>
      <trkpt lat="42.26797" lon="2.25529">
        <ele>1226</ele>
        <time>2010-01-01T01:57:45Z</time>
      </trkpt>
      <trkpt lat="42.26799" lon="2.25533">
        <ele>1227</ele>
        <time>2010-01-01T01:57:46Z</time>
      </trkpt>
      <trkpt lat="42.268" lon="2.25536">
        <ele>1227</ele>
        <time>2010-01-01T01:57:47Z</time>
      </trkpt>
      <trkpt lat="42.26802" lon="2.25539">
        <ele>1227</ele>
        <time>2010-01-01T01:57:48Z</time>
      </trkpt>
      <trkpt lat="42.26804" lon="2.25542">
        <ele>1227</ele>
        <time>2010-01-01T01:57:49Z</time>
      </trkpt>
      <trkpt lat="42.26806" lon="2.25545">
        <ele>1228</ele>
        <time>2010-01-01T01:57:51Z</time>
      </trkpt>
      <trkpt lat="42.26807" lon="2.25549">
        <ele>1228</ele>
        <time>2010-01-01T01:57:52Z</time>
      </trkpt>
      <trkpt lat="42.26809" lon="2.25552">
        <ele>1229</ele>
        <time>2010-01-01T01:57:53Z</time>
      </trkpt>
      <trkpt lat="42.26811" lon="2.25556">
        <ele>1230</ele>
        <time>2010-01-01T01:57:54Z</time>
      </trkpt>
      <trkpt lat="42.26812" lon="2.25561">
        <ele>1231</ele>
        <time>2010-01-01T01:57:56Z</time>
      </trkpt>
      <trkpt lat="42.26814" lon="2.25566">
        <ele>1232</ele>
        <time>2010-01-01T01:57:57Z</time>
      </trkpt>
      <trkpt lat="42.26816" lon="2.25571">
        <ele>1233</ele>
        <time>2010-01-01T01:57:59Z</time>
      </trkpt>
      <trkpt lat="42.26818" lon="2.25576">
        <ele>1234</ele>
        <time>2010-01-01T01:58:01Z</time>
      </trkpt>
      <trkpt lat="42.26819" lon="2.2558">
        <ele>1235</ele>
        <time>2010-01-01T01:58:02Z</time>
      </trkpt>
      <trkpt lat="42.26821" lon="2.25584">
        <ele>1236</ele>
        <time>2010-01-01T01:58:04Z</time>
      </trkpt>
      <trkpt lat="42.26823" lon="2.25589">
        <ele>1236</ele>
        <time>2010-01-01T01:58:05Z</time>
      </trkpt>
      <trkpt lat="42.26825" lon="2.25594">
        <ele>1237</ele>
        <time>2010-01-01T01:58:07Z</time>
      </trkpt>
      <trkpt lat="42.26827" lon="2.25597">
        <ele>1238</ele>
        <time>2010-01-01T01:58:08Z</time>
      </trkpt>
      <trkpt lat="42.2683" lon="2.25604">
        <ele>1239</ele>
        <time>2010-01-01T01:58:10Z</time>
      </trkpt>
      <trkpt lat="42.26832" lon="2.25609">
        <ele>1240</ele>
        <time>2010-01-01T01:58:12Z</time>
      </trkpt>
      <trkpt lat="42.26834" lon="2.25616">
        <ele>1241</ele>
        <time>2010-01-01T01:58:14Z</time>
      </trkpt>
      <trkpt lat="42.26833" lon="2.2562">
        <ele>1241</ele>
        <time>2010-01-01T01:58:16Z</time>
      </trkpt>
      <trkpt lat="42.26832" lon="2.25626">
        <ele>1240</ele>
        <time>2010-01-01T01:58:17Z</time>
      </trkpt>
      <trkpt lat="42.26831" lon="2.25631">
        <ele>1240</ele>
        <time>2010-01-01T01:58:19Z</time>
      </trkpt>
      <trkpt lat="42.26829" lon="2.25637">
        <ele>1239</ele>
        <time>2010-01-01T01:58:21Z</time>
      </trkpt>
      <trkpt lat="42.26826" lon="2.25642">
        <ele>1239</ele>
        <time>2010-01-01T01:58:23Z</time>
      </trkpt>
      <trkpt lat="42.26823" lon="2.25646">
        <ele>1239</ele>
        <time>2010-01-01T01:58:24Z</time>
      </trkpt>
      <trkpt lat="42.26821" lon="2.25651">
        <ele>1239</ele>
        <time>2010-01-01T01:58:26Z</time>
      </trkpt>
      <trkpt lat="42.2682" lon="2.25656">
        <ele>1239</ele>
        <time>2010-01-01T01:58:28Z</time>
      </trkpt>
      <trkpt lat="42.26818" lon="2.25662">
        <ele>1238</ele>
        <time>2010-01-01T01:58:30Z</time>
      </trkpt>
      <trkpt lat="42.26816" lon="2.25668">
        <ele>1239</ele>
        <time>2010-01-01T01:58:31Z</time>
      </trkpt>
      <trkpt lat="42.26815" lon="2.25672">
        <ele>1239</ele>
        <time>2010-01-01T01:58:33Z</time>
      </trkpt>
      <trkpt lat="42.26814" lon="2.25674">
        <ele>1239</ele>
        <time>2010-01-01T01:58:34Z</time>
      </trkpt>
      <trkpt lat="42.26814" lon="2.25678">
        <ele>1240</ele>
        <time>2010-01-01T01:58:35Z</time>
      </trkpt>
      <trkpt lat="42.26813" lon="2.25682">
        <ele>1240</ele>
        <time>2010-01-01T01:58:36Z</time>
      </trkpt>
      <trkpt lat="42.26811" lon="2.25686">
        <ele>1240</ele>
        <time>2010-01-01T01:58:37Z</time>
      </trkpt>
      <trkpt lat="42.26808" lon="2.25693">
        <ele>1241</ele>
        <time>2010-01-01T01:58:39Z</time>
      </trkpt>
      <trkpt lat="42.26806" lon="2.25698">
        <ele>1241</ele>
        <time>2010-01-01T01:58:41Z</time>
      </trkpt>
      <trkpt lat="42.26804" lon="2.25704">
        <ele>1241</ele>
        <time>2010-01-01T01:58:43Z</time>
      </trkpt>
      <trkpt lat="42.26801" lon="2.25711">
        <ele>1242</ele>
        <time>2010-01-01T01:58:45Z</time>
      </trkpt>
      <trkpt lat="42.26799" lon="2.25716">
        <ele>1242</ele>
        <time>2010-01-01T01:58:47Z</time>
      </trkpt>
      <trkpt lat="42.26798" lon="2.25723">
        <ele>1243</ele>
        <time>2010-01-01T01:58:49Z</time>
      </trkpt>
      <trkpt lat="42.26797" lon="2.2573">
        <ele>1244</ele>
        <time>2010-01-01T01:58:52Z</time>
      </trkpt>
      <trkpt lat="42.26797" lon="2.25736">
        <ele>1244</ele>
        <time>2010-01-01T01:58:54Z</time>
      </trkpt>
      <trkpt lat="42.26797" lon="2.25743">
        <ele>1245</ele>
        <time>2010-01-01T01:58:55Z</time>
      </trkpt>
      <trkpt lat="42.26797" lon="2.25749">
        <ele>1245</ele>
        <time>2010-01-01T01:58:57Z</time>
      </trkpt>
      <trkpt lat="42.26797" lon="2.25755">
        <ele>1246</ele>
        <time>2010-01-01T01:58:59Z</time>
      </trkpt>
      <trkpt lat="42.268" lon="2.25761">
        <ele>1246</ele>
        <time>2010-01-01T01:59:01Z</time>
      </trkpt>
      <trkpt lat="42.26801" lon="2.25765">
        <ele>1246</ele>
        <time>2010-01-01T01:59:02Z</time>
      </trkpt>
      <trkpt lat="42.26803" lon="2.2577">
        <ele>1246</ele>
        <time>2010-01-01T01:59:04Z</time>
      </trkpt>
      <trkpt lat="42.26805" lon="2.25774">
        <ele>1246</ele>
        <time>2010-01-01T01:59:05Z</time>
      </trkpt>
      <trkpt lat="42.26807" lon="2.25778">
        <ele>1247</ele>
        <time>2010-01-01T01:59:07Z</time>
      </trkpt>
      <trkpt lat="42.26808" lon="2.25782">
        <ele>1247</ele>
        <time>2010-01-01T01:59:08Z</time>
      </trkpt>
      <trkpt lat="42.2681" lon="2.25788">
        <ele>1247</ele>
        <time>2010-01-01T01:59:10Z</time>
      </trkpt>
      <trkpt lat="42.26811" lon="2.25795">
        <ele>1247</ele>
        <time>2010-01-01T01:59:12Z</time>
      </trkpt>
      <trkpt lat="42.26813" lon="2.258">
        <ele>1247</ele>
        <time>2010-01-01T01:59:14Z</time>
      </trkpt>
      <trkpt lat="42.26815" lon="2.25805">
        <ele>1247</ele>
        <time>2010-01-01T01:59:16Z</time>
      </trkpt>
      <trkpt lat="42.26819" lon="2.25809">
        <ele>1248</ele>
        <time>2010-01-01T01:59:17Z</time>
      </trkpt>
      <trkpt lat="42.2682" lon="2.25812">
        <ele>1248</ele>
        <time>2010-01-01T01:59:18Z</time>
      </trkpt>
      <trkpt lat="42.26821" lon="2.25815">
        <ele>1248</ele>
        <time>2010-01-01T01:59:19Z</time>
      </trkpt>
      <trkpt lat="42.26822" lon="2.25818">
        <ele>1249</ele>
        <time>2010-01-01T01:59:20Z</time>
      </trkpt>
      <trkpt lat="42.26825" lon="2.25823">
        <ele>1249</ele>
        <time>2010-01-01T01:59:22Z</time>
      </trkpt>
      <trkpt lat="42.26827" lon="2.25824">
        <ele>1249</ele>
        <time>2010-01-01T01:59:23Z</time>
      </trkpt>
      <trkpt lat="42.26829" lon="2.25825">
        <ele>1250</ele>
        <time>2010-01-01T01:59:24Z</time>
      </trkpt>
      <trkpt lat="42.2683" lon="2.25826">
        <ele>1250</ele>
        <time>2010-01-01T01:59:25Z</time>
      </trkpt>
      <trkpt lat="42.26831" lon="2.25829">
        <ele>1250</ele>
        <time>2010-01-01T01:59:25Z</time>
      </trkpt>
      <trkpt lat="42.26831" lon="2.25832">
        <ele>1250</ele>
        <time>2010-01-01T01:59:27Z</time>
      </trkpt>
      <trkpt lat="42.26831" lon="2.25835">
        <ele>1250</ele>
        <time>2010-01-01T01:59:27Z</time>
      </trkpt>
      <trkpt lat="42.26833" lon="2.25837">
        <ele>1250</ele>
        <time>2010-01-01T01:59:28Z</time>
      </trkpt>
      <trkpt lat="42.26835" lon="2.25838">
        <ele>1251</ele>
        <time>2010-01-01T01:59:29Z</time>
      </trkpt>
      <trkpt lat="42.26837" lon="2.2584">
        <ele>1251</ele>
        <time>2010-01-01T01:59:30Z</time>
      </trkpt>
      <trkpt lat="42.26838" lon="2.25843">
        <ele>1251</ele>
        <time>2010-01-01T01:59:31Z</time>
      </trkpt>
      <trkpt lat="42.2684" lon="2.25846">
        <ele>1252</ele>
        <time>2010-01-01T01:59:32Z</time>
      </trkpt>
      <trkpt lat="42.2684" lon="2.25849">
        <ele>1252</ele>
        <time>2010-01-01T01:59:33Z</time>
      </trkpt>
      <trkpt lat="42.2684" lon="2.25853">
        <ele>1251</ele>
        <time>2010-01-01T01:59:34Z</time>
      </trkpt>
      <trkpt lat="42.26841" lon="2.25857">
        <ele>1251</ele>
        <time>2010-01-01T01:59:36Z</time>
      </trkpt>
      <trkpt lat="42.26843" lon="2.25863">
        <ele>1251</ele>
        <time>2010-01-01T01:59:37Z</time>
      </trkpt>
      <trkpt lat="42.26843" lon="2.25867">
        <ele>1251</ele>
        <time>2010-01-01T01:59:39Z</time>
      </trkpt>
      <trkpt lat="42.26844" lon="2.25871">
        <ele>1251</ele>
        <time>2010-01-01T01:59:40Z</time>
      </trkpt>
      <trkpt lat="42.26845" lon="2.25874">
        <ele>1251</ele>
        <time>2010-01-01T01:59:41Z</time>
      </trkpt>
      <trkpt lat="42.26845" lon="2.25879">
        <ele>1251</ele>
        <time>2010-01-01T01:59:42Z</time>
      </trkpt>
      <trkpt lat="42.26846" lon="2.25882">
        <ele>1251</ele>
        <time>2010-01-01T01:59:43Z</time>
      </trkpt>
      <trkpt lat="42.26849" lon="2.25885">
        <ele>1251</ele>
        <time>2010-01-01T01:59:44Z</time>
      </trkpt>
      <trkpt lat="42.26851" lon="2.25891">
        <ele>1252</ele>
        <time>2010-01-01T01:59:46Z</time>
      </trkpt>
      <trkpt lat="42.26853" lon="2.25893">
        <ele>1252</ele>
        <time>2010-01-01T01:59:48Z</time>
      </trkpt>
      <trkpt lat="42.26855" lon="2.25896">
        <ele>1252</ele>
        <time>2010-01-01T01:59:48Z</time>
      </trkpt>
      <trkpt lat="42.26855" lon="2.25898">
        <ele>1252</ele>
        <time>2010-01-01T01:59:49Z</time>
      </trkpt>
      <trkpt lat="42.26855" lon="2.25901">
        <ele>1252</ele>
        <time>2010-01-01T01:59:50Z</time>
      </trkpt>
      <trkpt lat="42.26855" lon="2.25905">
        <ele>1252</ele>
        <time>2010-01-01T01:59:51Z</time>
      </trkpt>
      <trkpt lat="42.26855" lon="2.25908">
        <ele>1253</ele>
        <time>2010-01-01T01:59:52Z</time>
      </trkpt>
      <trkpt lat="42.26855" lon="2.25911">
        <ele>1253</ele>
        <time>2010-01-01T01:59:53Z</time>
      </trkpt>
      <trkpt lat="42.26854" lon="2.25915">
        <ele>1253</ele>
        <time>2010-01-01T01:59:54Z</time>
      </trkpt>
      <trkpt lat="42.26853" lon="2.25918">
        <ele>1253</ele>
        <time>2010-01-01T01:59:55Z</time>
      </trkpt>
      <trkpt lat="42.26852" lon="2.25921">
        <ele>1253</ele>
        <time>2010-01-01T01:59:56Z</time>
      </trkpt>
      <trkpt lat="42.26851" lon="2.25926">
        <ele>1253</ele>
        <time>2010-01-01T01:59:58Z</time>
      </trkpt>
      <trkpt lat="42.26849" lon="2.25931">
        <ele>1253</ele>
        <time>2010-01-01T01:59:59Z</time>
      </trkpt>
      <trkpt lat="42.26848" lon="2.25935">
        <ele>1254</ele>
        <time>2010-01-01T02:00:01Z</time>
      </trkpt>
      <trkpt lat="42.26848" lon="2.25938">
        <ele>1254</ele>
        <time>2010-01-01T02:00:02Z</time>
      </trkpt>
      <trkpt lat="42.26849" lon="2.25941">
        <ele>1254</ele>
        <time>2010-01-01T02:00:03Z</time>
      </trkpt>
      <trkpt lat="42.26849" lon="2.25946">
        <ele>1255</ele>
        <time>2010-01-01T02:00:04Z</time>
      </trkpt>
      <trkpt lat="42.26849" lon="2.25949">
        <ele>1255</ele>
        <time>2010-01-01T02:00:05Z</time>
      </trkpt>
      <trkpt lat="42.2685" lon="2.25953">
        <ele>1255</ele>
        <time>2010-01-01T02:00:06Z</time>
      </trkpt>
      <trkpt lat="42.2685" lon="2.25957">
        <ele>1256</ele>
        <time>2010-01-01T02:00:07Z</time>
      </trkpt>
      <trkpt lat="42.26851" lon="2.2596">
        <ele>1256</ele>
        <time>2010-01-01T02:00:08Z</time>
      </trkpt>
      <trkpt lat="42.26852" lon="2.25964">
        <ele>1256</ele>
        <time>2010-01-01T02:00:10Z</time>
      </trkpt>
      <trkpt lat="42.26852" lon="2.25968">
        <ele>1257</ele>
        <time>2010-01-01T02:00:11Z</time>
      </trkpt>
      <trkpt lat="42.26853" lon="2.25973">
        <ele>1257</ele>
        <time>2010-01-01T02:00:12Z</time>
      </trkpt>
      <trkpt lat="42.26853" lon="2.25978">
        <ele>1257</ele>
        <time>2010-01-01T02:00:14Z</time>
      </trkpt>
      <trkpt lat="42.26853" lon="2.25983">
        <ele>1257</ele>
        <time>2010-01-01T02:00:15Z</time>
      </trkpt>
      <trkpt lat="42.26852" lon="2.25988">
        <ele>1258</ele>
        <time>2010-01-01T02:00:17Z</time>
      </trkpt>
      <trkpt lat="42.26853" lon="2.25995">
        <ele>1258</ele>
        <time>2010-01-01T02:00:19Z</time>
      </trkpt>
      <trkpt lat="42.26853" lon="2.26001">
        <ele>1258</ele>
        <time>2010-01-01T02:00:21Z</time>
      </trkpt>
      <trkpt lat="42.26854" lon="2.26008">
        <ele>1258</ele>
        <time>2010-01-01T02:00:23Z</time>
      </trkpt>
      <trkpt lat="42.26855" lon="2.26015">
        <ele>1258</ele>
        <time>2010-01-01T02:00:25Z</time>
      </trkpt>
      <trkpt lat="42.26856" lon="2.26023">
        <ele>1258</ele>
        <time>2010-01-01T02:00:27Z</time>
      </trkpt>
      <trkpt lat="42.26857" lon="2.2603">
        <ele>1258</ele>
        <time>2010-01-01T02:00:29Z</time>
      </trkpt>
      <trkpt lat="42.26859" lon="2.26036">
        <ele>1258</ele>
        <time>2010-01-01T02:00:31Z</time>
      </trkpt>
      <trkpt lat="42.2686" lon="2.26043">
        <ele>1258</ele>
        <time>2010-01-01T02:00:33Z</time>
      </trkpt>
      <trkpt lat="42.26862" lon="2.26049">
        <ele>1258</ele>
        <time>2010-01-01T02:00:35Z</time>
      </trkpt>
      <trkpt lat="42.26864" lon="2.26056">
        <ele>1258</ele>
        <time>2010-01-01T02:00:38Z</time>
      </trkpt>
      <trkpt lat="42.26866" lon="2.26063">
        <ele>1257</ele>
        <time>2010-01-01T02:00:40Z</time>
      </trkpt>
      <trkpt lat="42.26868" lon="2.2607">
        <ele>1256</ele>
        <time>2010-01-01T02:00:42Z</time>
      </trkpt>
      <trkpt lat="42.2687" lon="2.26077">
        <ele>1255</ele>
        <time>2010-01-01T02:00:44Z</time>
      </trkpt>
      <trkpt lat="42.26871" lon="2.26083">
        <ele>1254</ele>
        <time>2010-01-01T02:00:46Z</time>
      </trkpt>
      <trkpt lat="42.26873" lon="2.26091">
        <ele>1253</ele>
        <time>2010-01-01T02:00:48Z</time>
      </trkpt>
      <trkpt lat="42.26874" lon="2.26099">
        <ele>1253</ele>
        <time>2010-01-01T02:00:51Z</time>
      </trkpt>
      <trkpt lat="42.26876" lon="2.26106">
        <ele>1252</ele>
        <time>2010-01-01T02:00:53Z</time>
      </trkpt>
      <trkpt lat="42.26879" lon="2.26113">
        <ele>1251</ele>
        <time>2010-01-01T02:00:56Z</time>
      </trkpt>
      <trkpt lat="42.26884" lon="2.26119">
        <ele>1251</ele>
        <time>2010-01-01T02:00:58Z</time>
      </trkpt>
      <trkpt lat="42.26889" lon="2.26124">
        <ele>1250</ele>
        <time>2010-01-01T02:01:01Z</time>
      </trkpt>
      <trkpt lat="42.26892" lon="2.2613">
        <ele>1250</ele>
        <time>2010-01-01T02:01:03Z</time>
      </trkpt>
      <trkpt lat="42.2689" lon="2.26131">
        <ele>1249</ele>
        <time>2010-01-01T02:01:04Z</time>
      </trkpt>
      <trkpt lat="42.26889" lon="2.26134">
        <ele>1249</ele>
        <time>2010-01-01T02:01:04Z</time>
      </trkpt>
      <trkpt lat="42.26888" lon="2.26137">
        <ele>1249</ele>
        <time>2010-01-01T02:01:06Z</time>
      </trkpt>
      <trkpt lat="42.26888" lon="2.26141">
        <ele>1248</ele>
        <time>2010-01-01T02:01:07Z</time>
      </trkpt>
      <trkpt lat="42.2689" lon="2.26142">
        <ele>1248</ele>
        <time>2010-01-01T02:01:08Z</time>
      </trkpt>
      <trkpt lat="42.26895" lon="2.26142">
        <ele>1249</ele>
        <time>2010-01-01T02:01:09Z</time>
      </trkpt>
      <trkpt lat="42.26894" lon="2.26145">
        <ele>1248</ele>
        <time>2010-01-01T02:01:11Z</time>
      </trkpt>
      <trkpt lat="42.26893" lon="2.26147">
        <ele>1248</ele>
        <time>2010-01-01T02:01:11Z</time>
      </trkpt>
      <trkpt lat="42.26892" lon="2.26149">
        <ele>1248</ele>
        <time>2010-01-01T02:01:12Z</time>
      </trkpt>
      <trkpt lat="42.2689" lon="2.26151">
        <ele>1247</ele>
        <time>2010-01-01T02:01:13Z</time>
      </trkpt>
      <trkpt lat="42.26889" lon="2.26154">
        <ele>1247</ele>
        <time>2010-01-01T02:01:14Z</time>
      </trkpt>
      <trkpt lat="42.26889" lon="2.26156">
        <ele>1247</ele>
        <time>2010-01-01T02:01:14Z</time>
      </trkpt>
      <trkpt lat="42.26889" lon="2.2616">
        <ele>1246</ele>
        <time>2010-01-01T02:01:16Z</time>
      </trkpt>
      <trkpt lat="42.26889" lon="2.26163">
        <ele>1246</ele>
        <time>2010-01-01T02:01:17Z</time>
      </trkpt>
      <trkpt lat="42.2689" lon="2.26166">
        <ele>1246</ele>
        <time>2010-01-01T02:01:17Z</time>
      </trkpt>
      <trkpt lat="42.26892" lon="2.26169">
        <ele>1245</ele>
        <time>2010-01-01T02:01:18Z</time>
      </trkpt>
      <trkpt lat="42.26893" lon="2.26171">
        <ele>1245</ele>
        <time>2010-01-01T02:01:19Z</time>
      </trkpt>
      <trkpt lat="42.26894" lon="2.26174">
        <ele>1245</ele>
        <time>2010-01-01T02:01:20Z</time>
      </trkpt>
      <trkpt lat="42.26895" lon="2.26176">
        <ele>1244</ele>
        <time>2010-01-01T02:01:21Z</time>
      </trkpt>
      <trkpt lat="42.26895" lon="2.26179">
        <ele>1244</ele>
        <time>2010-01-01T02:01:22Z</time>
      </trkpt>
      <trkpt lat="42.26895" lon="2.26183">
        <ele>1244</ele>
        <time>2010-01-01T02:01:23Z</time>
      </trkpt>
      <trkpt lat="42.26895" lon="2.26186">
        <ele>1243</ele>
        <time>2010-01-01T02:01:24Z</time>
      </trkpt>
      <trkpt lat="42.26893" lon="2.2619">
        <ele>1243</ele>
        <time>2010-01-01T02:01:25Z</time>
      </trkpt>
      <trkpt lat="42.26892" lon="2.26193">
        <ele>1242</ele>
        <time>2010-01-01T02:01:26Z</time>
      </trkpt>
      <trkpt lat="42.2689" lon="2.26195">
        <ele>1242</ele>
        <time>2010-01-01T02:01:27Z</time>
      </trkpt>
      <trkpt lat="42.26888" lon="2.26196">
        <ele>1242</ele>
        <time>2010-01-01T02:01:28Z</time>
      </trkpt>
      <trkpt lat="42.26886" lon="2.26198">
        <ele>1242</ele>
        <time>2010-01-01T02:01:29Z</time>
      </trkpt>
      <trkpt lat="42.26884" lon="2.262">
        <ele>1241</ele>
        <time>2010-01-01T02:01:30Z</time>
      </trkpt>
      <trkpt lat="42.26883" lon="2.26202">
        <ele>1241</ele>
        <time>2010-01-01T02:01:31Z</time>
      </trkpt>
      <trkpt lat="42.26884" lon="2.26206">
        <ele>1240</ele>
        <time>2010-01-01T02:01:32Z</time>
      </trkpt>
      <trkpt lat="42.26885" lon="2.2621">
        <ele>1239</ele>
        <time>2010-01-01T02:01:33Z</time>
      </trkpt>
      <trkpt lat="42.26886" lon="2.26214">
        <ele>1238</ele>
        <time>2010-01-01T02:01:35Z</time>
      </trkpt>
      <trkpt lat="42.26886" lon="2.2622">
        <ele>1237</ele>
        <time>2010-01-01T02:01:36Z</time>
      </trkpt>
      <trkpt lat="42.26883" lon="2.26225">
        <ele>1237</ele>
        <time>2010-01-01T02:01:38Z</time>
      </trkpt>
      <trkpt lat="42.26879" lon="2.26227">
        <ele>1237</ele>
        <time>2010-01-01T02:01:40Z</time>
      </trkpt>
      <trkpt lat="42.26873" lon="2.26228">
        <ele>1237</ele>
        <time>2010-01-01T02:01:42Z</time>
      </trkpt>
      <trkpt lat="42.26869" lon="2.26227">
        <ele>1238</ele>
        <time>2010-01-01T02:01:44Z</time>
      </trkpt>
      <trkpt lat="42.26864" lon="2.26226">
        <ele>1238</ele>
        <time>2010-01-01T02:01:46Z</time>
      </trkpt>
      <trkpt lat="42.2686" lon="2.26224">
        <ele>1239</ele>
        <time>2010-01-01T02:01:48Z</time>
      </trkpt>
      <trkpt lat="42.26856" lon="2.26224">
        <ele>1240</ele>
        <time>2010-01-01T02:01:49Z</time>
      </trkpt>
      <trkpt lat="42.26854" lon="2.26227">
        <ele>1239</ele>
        <time>2010-01-01T02:01:51Z</time>
      </trkpt>
      <trkpt lat="42.26852" lon="2.26233">
        <ele>1238</ele>
        <time>2010-01-01T02:01:53Z</time>
      </trkpt>
      <trkpt lat="42.26852" lon="2.26236">
        <ele>1237</ele>
        <time>2010-01-01T02:01:53Z</time>
      </trkpt>
      <trkpt lat="42.26851" lon="2.26239">
        <ele>1237</ele>
        <time>2010-01-01T02:01:54Z</time>
      </trkpt>
      <trkpt lat="42.26851" lon="2.26243">
        <ele>1236</ele>
        <time>2010-01-01T02:01:55Z</time>
      </trkpt>
      <trkpt lat="42.2685" lon="2.26245">
        <ele>1235</ele>
        <time>2010-01-01T02:01:56Z</time>
      </trkpt>
      <trkpt lat="42.26849" lon="2.26248">
        <ele>1235</ele>
        <time>2010-01-01T02:01:57Z</time>
      </trkpt>
      <trkpt lat="42.26848" lon="2.26251">
        <ele>1234</ele>
        <time>2010-01-01T02:01:58Z</time>
      </trkpt>
      <trkpt lat="42.26849" lon="2.26254">
        <ele>1233</ele>
        <time>2010-01-01T02:01:59Z</time>
      </trkpt>
      <trkpt lat="42.2685" lon="2.26256">
        <ele>1233</ele>
        <time>2010-01-01T02:02:00Z</time>
      </trkpt>
      <trkpt lat="42.26852" lon="2.26256">
        <ele>1232</ele>
        <time>2010-01-01T02:02:01Z</time>
      </trkpt>
      <trkpt lat="42.26855" lon="2.26256">
        <ele>1232</ele>
        <time>2010-01-01T02:02:02Z</time>
      </trkpt>
      <trkpt lat="42.26855" lon="2.26259">
        <ele>1231</ele>
        <time>2010-01-01T02:02:02Z</time>
      </trkpt>
      <trkpt lat="42.26854" lon="2.26261">
        <ele>1231</ele>
        <time>2010-01-01T02:02:03Z</time>
      </trkpt>
      <trkpt lat="42.26854" lon="2.26264">
        <ele>1230</ele>
        <time>2010-01-01T02:02:04Z</time>
      </trkpt>
      <trkpt lat="42.26853" lon="2.26267">
        <ele>1229</ele>
        <time>2010-01-01T02:02:05Z</time>
      </trkpt>
      <trkpt lat="42.26852" lon="2.2627">
        <ele>1228</ele>
        <time>2010-01-01T02:02:06Z</time>
      </trkpt>
      <trkpt lat="42.2685" lon="2.26274">
        <ele>1227</ele>
        <time>2010-01-01T02:02:08Z</time>
      </trkpt>
      <trkpt lat="42.26849" lon="2.26277">
        <ele>1227</ele>
        <time>2010-01-01T02:02:09Z</time>
      </trkpt>
      <trkpt lat="42.26846" lon="2.26278">
        <ele>1226</ele>
        <time>2010-01-01T02:02:09Z</time>
      </trkpt>
      <trkpt lat="42.26844" lon="2.26279">
        <ele>1226</ele>
        <time>2010-01-01T02:02:10Z</time>
      </trkpt>
      <trkpt lat="42.26842" lon="2.2628">
        <ele>1226</ele>
        <time>2010-01-01T02:02:11Z</time>
      </trkpt>
      <trkpt lat="42.2684" lon="2.26282">
        <ele>1226</ele>
        <time>2010-01-01T02:02:12Z</time>
      </trkpt>
      <trkpt lat="42.26838" lon="2.26283">
        <ele>1226</ele>
        <time>2010-01-01T02:02:13Z</time>
      </trkpt>
      <trkpt lat="42.26839" lon="2.26286">
        <ele>1226</ele>
        <time>2010-01-01T02:02:14Z</time>
      </trkpt>
      <trkpt lat="42.2684" lon="2.26289">
        <ele>1225</ele>
        <time>2010-01-01T02:02:15Z</time>
      </trkpt>
      <trkpt lat="42.26841" lon="2.26292">
        <ele>1225</ele>
        <time>2010-01-01T02:02:16Z</time>
      </trkpt>
      <trkpt lat="42.26842" lon="2.26294">
        <ele>1224</ele>
        <time>2010-01-01T02:02:17Z</time>
      </trkpt>
      <trkpt lat="42.26845" lon="2.26294">
        <ele>1224</ele>
        <time>2010-01-01T02:02:18Z</time>
      </trkpt>
      <trkpt lat="42.26847" lon="2.26297">
        <ele>1223</ele>
        <time>2010-01-01T02:02:19Z</time>
      </trkpt>
      <trkpt lat="42.26846" lon="2.26303">
        <ele>1222</ele>
        <time>2010-01-01T02:02:21Z</time>
      </trkpt>
      <trkpt lat="42.26847" lon="2.26309">
        <ele>1222</ele>
        <time>2010-01-01T02:02:22Z</time>
      </trkpt>
      <trkpt lat="42.26848" lon="2.26314">
        <ele>1221</ele>
        <time>2010-01-01T02:02:24Z</time>
      </trkpt>
      <trkpt lat="42.26848" lon="2.2632">
        <ele>1220</ele>
        <time>2010-01-01T02:02:26Z</time>
      </trkpt>
      <trkpt lat="42.26848" lon="2.26326">
        <ele>1219</ele>
        <time>2010-01-01T02:02:28Z</time>
      </trkpt>
      <trkpt lat="42.26846" lon="2.26333">
        <ele>1218</ele>
        <time>2010-01-01T02:02:30Z</time>
      </trkpt>
      <trkpt lat="42.26846" lon="2.26338">
        <ele>1217</ele>
        <time>2010-01-01T02:02:31Z</time>
      </trkpt>
      <trkpt lat="42.26847" lon="2.26344">
        <ele>1216</ele>
        <time>2010-01-01T02:02:33Z</time>
      </trkpt>
      <trkpt lat="42.26848" lon="2.2635">
        <ele>1214</ele>
        <time>2010-01-01T02:02:35Z</time>
      </trkpt>
      <trkpt lat="42.26849" lon="2.26357">
        <ele>1213</ele>
        <time>2010-01-01T02:02:37Z</time>
      </trkpt>
      <trkpt lat="42.26848" lon="2.26363">
        <ele>1211</ele>
        <time>2010-01-01T02:02:39Z</time>
      </trkpt>
      <trkpt lat="42.26845" lon="2.26372">
        <ele>1210</ele>
        <time>2010-01-01T02:02:41Z</time>
      </trkpt>
      <trkpt lat="42.26842" lon="2.26379">
        <ele>1209</ele>
        <time>2010-01-01T02:02:44Z</time>
      </trkpt>
      <trkpt lat="42.26839" lon="2.26385">
        <ele>1208</ele>
        <time>2010-01-01T02:02:46Z</time>
      </trkpt>
      <trkpt lat="42.26836" lon="2.2639">
        <ele>1207</ele>
        <time>2010-01-01T02:02:48Z</time>
      </trkpt>
      <trkpt lat="42.26832" lon="2.26397">
        <ele>1205</ele>
        <time>2010-01-01T02:02:51Z</time>
      </trkpt>
      <trkpt lat="42.26827" lon="2.26401">
        <ele>1205</ele>
        <time>2010-01-01T02:02:53Z</time>
      </trkpt>
      <trkpt lat="42.26822" lon="2.26405">
        <ele>1204</ele>
        <time>2010-01-01T02:02:55Z</time>
      </trkpt>
      <trkpt lat="42.26818" lon="2.26411">
        <ele>1202</ele>
        <time>2010-01-01T02:02:58Z</time>
      </trkpt>
      <trkpt lat="42.26816" lon="2.26419">
        <ele>1199</ele>
        <time>2010-01-01T02:03:00Z</time>
      </trkpt>
      <trkpt lat="42.26814" lon="2.26426">
        <ele>1197</ele>
        <time>2010-01-01T02:03:03Z</time>
      </trkpt>
      <trkpt lat="42.26815" lon="2.26432">
        <ele>1195</ele>
        <time>2010-01-01T02:03:04Z</time>
      </trkpt>
      <trkpt lat="42.26816" lon="2.26434">
        <ele>1194</ele>
        <time>2010-01-01T02:03:05Z</time>
      </trkpt>
      <trkpt lat="42.26819" lon="2.26436">
        <ele>1194</ele>
        <time>2010-01-01T02:03:06Z</time>
      </trkpt>
      <trkpt lat="42.26825" lon="2.2644">
        <ele>1192</ele>
        <time>2010-01-01T02:03:09Z</time>
      </trkpt>
      <trkpt lat="42.26829" lon="2.26442">
        <ele>1192</ele>
        <time>2010-01-01T02:03:11Z</time>
      </trkpt>
      <trkpt lat="42.26833" lon="2.26444">
        <ele>1191</ele>
        <time>2010-01-01T02:03:12Z</time>
      </trkpt>
      <trkpt lat="42.26836" lon="2.26448">
        <ele>1191</ele>
        <time>2010-01-01T02:03:14Z</time>
      </trkpt>
      <trkpt lat="42.26837" lon="2.26454">
        <ele>1190</ele>
        <time>2010-01-01T02:03:16Z</time>
      </trkpt>
      <trkpt lat="42.26835" lon="2.26462">
        <ele>1189</ele>
        <time>2010-01-01T02:03:18Z</time>
      </trkpt>
      <trkpt lat="42.26833" lon="2.2647">
        <ele>1188</ele>
        <time>2010-01-01T02:03:21Z</time>
      </trkpt>
      <trkpt lat="42.26831" lon="2.26478">
        <ele>1186</ele>
        <time>2010-01-01T02:03:24Z</time>
      </trkpt>
      <trkpt lat="42.26829" lon="2.26486">
        <ele>1184</ele>
        <time>2010-01-01T02:03:26Z</time>
      </trkpt>
      <trkpt lat="42.26826" lon="2.26492">
        <ele>1183</ele>
        <time>2010-01-01T02:03:28Z</time>
      </trkpt>
      <trkpt lat="42.26825" lon="2.26498">
        <ele>1182</ele>
        <time>2010-01-01T02:03:30Z</time>
      </trkpt>
      <trkpt lat="42.26823" lon="2.26504">
        <ele>1181</ele>
        <time>2010-01-01T02:03:32Z</time>
      </trkpt>
      <trkpt lat="42.26821" lon="2.2651">
        <ele>1179</ele>
        <time>2010-01-01T02:03:34Z</time>
      </trkpt>
      <trkpt lat="42.2682" lon="2.26516">
        <ele>1178</ele>
        <time>2010-01-01T02:03:36Z</time>
      </trkpt>
      <trkpt lat="42.26817" lon="2.26522">
        <ele>1177</ele>
        <time>2010-01-01T02:03:38Z</time>
      </trkpt>
      <trkpt lat="42.26813" lon="2.26527">
        <ele>1176</ele>
        <time>2010-01-01T02:03:40Z</time>
      </trkpt>
      <trkpt lat="42.26811" lon="2.26533">
        <ele>1175</ele>
        <time>2010-01-01T02:03:42Z</time>
      </trkpt>
      <trkpt lat="42.2681" lon="2.26539">
        <ele>1174</ele>
        <time>2010-01-01T02:03:44Z</time>
      </trkpt>
      <trkpt lat="42.26807" lon="2.26545">
        <ele>1173</ele>
        <time>2010-01-01T02:03:46Z</time>
      </trkpt>
      <trkpt lat="42.26804" lon="2.26549">
        <ele>1172</ele>
        <time>2010-01-01T02:03:47Z</time>
      </trkpt>
      <trkpt lat="42.26801" lon="2.26552">
        <ele>1171</ele>
        <time>2010-01-01T02:03:49Z</time>
      </trkpt>
      <trkpt lat="42.26799" lon="2.26555">
        <ele>1171</ele>
        <time>2010-01-01T02:03:50Z</time>
      </trkpt>
      <trkpt lat="42.26798" lon="2.2656">
        <ele>1170</ele>
        <time>2010-01-01T02:03:52Z</time>
      </trkpt>
      <trkpt lat="42.26797" lon="2.26568">
        <ele>1169</ele>
        <time>2010-01-01T02:03:54Z</time>
      </trkpt>
      <trkpt lat="42.26794" lon="2.26576">
        <ele>1167</ele>
        <time>2010-01-01T02:03:57Z</time>
      </trkpt>
      <trkpt lat="42.26792" lon="2.26581">
        <ele>1166</ele>
        <time>2010-01-01T02:03:59Z</time>
      </trkpt>
      <trkpt lat="42.26791" lon="2.26587">
        <ele>1165</ele>
        <time>2010-01-01T02:04:00Z</time>
      </trkpt>
      <trkpt lat="42.2679" lon="2.26594">
        <ele>1164</ele>
        <time>2010-01-01T02:04:03Z</time>
      </trkpt>
      <trkpt lat="42.26788" lon="2.26599">
        <ele>1164</ele>
        <time>2010-01-01T02:04:04Z</time>
      </trkpt>
      <trkpt lat="42.26785" lon="2.26604">
        <ele>1163</ele>
        <time>2010-01-01T02:04:06Z</time>
      </trkpt>
      <trkpt lat="42.26784" lon="2.2661">
        <ele>1162</ele>
        <time>2010-01-01T02:04:08Z</time>
      </trkpt>
      <trkpt lat="42.26784" lon="2.26615">
        <ele>1161</ele>
        <time>2010-01-01T02:04:09Z</time>
      </trkpt>
      <trkpt lat="42.26783" lon="2.2662">
        <ele>1160</ele>
        <time>2010-01-01T02:04:11Z</time>
      </trkpt>
      <trkpt lat="42.2678" lon="2.26623">
        <ele>1159</ele>
        <time>2010-01-01T02:04:12Z</time>
      </trkpt>
      <trkpt lat="42.26776" lon="2.26624">
        <ele>1159</ele>
        <time>2010-01-01T02:04:14Z</time>
      </trkpt>
      <trkpt lat="42.26773" lon="2.26624">
        <ele>1158</ele>
        <time>2010-01-01T02:04:15Z</time>
      </trkpt>
      <trkpt lat="42.2677" lon="2.26626">
        <ele>1158</ele>
        <time>2010-01-01T02:04:17Z</time>
      </trkpt>
      <trkpt lat="42.26765" lon="2.26624">
        <ele>1158</ele>
        <time>2010-01-01T02:04:19Z</time>
      </trkpt>
      <trkpt lat="42.2676" lon="2.26621">
        <ele>1158</ele>
        <time>2010-01-01T02:04:21Z</time>
      </trkpt>
      <trkpt lat="42.26754" lon="2.26621">
        <ele>1158</ele>
        <time>2010-01-01T02:04:23Z</time>
      </trkpt>
      <trkpt lat="42.26749" lon="2.26624">
        <ele>1157</ele>
        <time>2010-01-01T02:04:25Z</time>
      </trkpt>
      <trkpt lat="42.26744" lon="2.26627">
        <ele>1156</ele>
        <time>2010-01-01T02:04:28Z</time>
      </trkpt>
      <trkpt lat="42.26739" lon="2.2663">
        <ele>1155</ele>
        <time>2010-01-01T02:04:30Z</time>
      </trkpt>
      <trkpt lat="42.26734" lon="2.2663">
        <ele>1154</ele>
        <time>2010-01-01T02:04:32Z</time>
      </trkpt>
      <trkpt lat="42.26729" lon="2.2663">
        <ele>1154</ele>
        <time>2010-01-01T02:04:34Z</time>
      </trkpt>
      <trkpt lat="42.26722" lon="2.26629">
        <ele>1154</ele>
        <time>2010-01-01T02:04:36Z</time>
      </trkpt>
      <trkpt lat="42.26718" lon="2.2663">
        <ele>1154</ele>
        <time>2010-01-01T02:04:38Z</time>
      </trkpt>
      <trkpt lat="42.26715" lon="2.26635">
        <ele>1153</ele>
        <time>2010-01-01T02:04:40Z</time>
      </trkpt>
      <trkpt lat="42.26712" lon="2.26641">
        <ele>1152</ele>
        <time>2010-01-01T02:04:42Z</time>
      </trkpt>
      <trkpt lat="42.26708" lon="2.26648">
        <ele>1152</ele>
        <time>2010-01-01T02:04:45Z</time>
      </trkpt>
      <trkpt lat="42.26702" lon="2.26653">
        <ele>1152</ele>
        <time>2010-01-01T02:04:48Z</time>
      </trkpt>
      <trkpt lat="42.26695" lon="2.26658">
        <ele>1152</ele>
        <time>2010-01-01T02:04:51Z</time>
      </trkpt>
      <trkpt lat="42.26691" lon="2.26664">
        <ele>1152</ele>
        <time>2010-01-01T02:04:53Z</time>
      </trkpt>
      <trkpt lat="42.26688" lon="2.26671">
        <ele>1151</ele>
        <time>2010-01-01T02:04:56Z</time>
      </trkpt>
      <trkpt lat="42.26686" lon="2.26677">
        <ele>1150</ele>
        <time>2010-01-01T02:04:58Z</time>
      </trkpt>
      <trkpt lat="42.26684" lon="2.26681">
        <ele>1150</ele>
        <time>2010-01-01T02:04:59Z</time>
      </trkpt>
      <trkpt lat="42.26682" lon="2.26687">
        <ele>1149</ele>
        <time>2010-01-01T02:05:01Z</time>
      </trkpt>
      <trkpt lat="42.26682" lon="2.26694">
        <ele>1148</ele>
        <time>2010-01-01T02:05:03Z</time>
      </trkpt>
      <trkpt lat="42.26682" lon="2.267">
        <ele>1147</ele>
        <time>2010-01-01T02:05:05Z</time>
      </trkpt>
      <trkpt lat="42.26682" lon="2.26705">
        <ele>1146</ele>
        <time>2010-01-01T02:05:06Z</time>
      </trkpt>
      <trkpt lat="42.2668" lon="2.26709">
        <ele>1146</ele>
        <time>2010-01-01T02:05:08Z</time>
      </trkpt>
      <trkpt lat="42.26678" lon="2.26714">
        <ele>1146</ele>
        <time>2010-01-01T02:05:10Z</time>
      </trkpt>
      <trkpt lat="42.26678" lon="2.26718">
        <ele>1146</ele>
        <time>2010-01-01T02:05:11Z</time>
      </trkpt>
      <trkpt lat="42.26677" lon="2.26722">
        <ele>1146</ele>
        <time>2010-01-01T02:05:12Z</time>
      </trkpt>
      <trkpt lat="42.26676" lon="2.26727">
        <ele>1145</ele>
        <time>2010-01-01T02:05:13Z</time>
      </trkpt>
      <trkpt lat="42.26675" lon="2.26732">
        <ele>1145</ele>
        <time>2010-01-01T02:05:15Z</time>
      </trkpt>
      <trkpt lat="42.26674" lon="2.26738">
        <ele>1145</ele>
        <time>2010-01-01T02:05:17Z</time>
      </trkpt>
      <trkpt lat="42.2667" lon="2.26742">
        <ele>1145</ele>
        <time>2010-01-01T02:05:19Z</time>
      </trkpt>
      <trkpt lat="42.26667" lon="2.26746">
        <ele>1146</ele>
        <time>2010-01-01T02:05:20Z</time>
      </trkpt>
      <trkpt lat="42.26663" lon="2.2675">
        <ele>1146</ele>
        <time>2010-01-01T02:05:22Z</time>
      </trkpt>
      <trkpt lat="42.26658" lon="2.26755">
        <ele>1146</ele>
        <time>2010-01-01T02:05:25Z</time>
      </trkpt>
      <trkpt lat="42.26654" lon="2.26759">
        <ele>1147</ele>
        <time>2010-01-01T02:05:27Z</time>
      </trkpt>
      <trkpt lat="42.26653" lon="2.26761">
        <ele>1147</ele>
        <time>2010-01-01T02:05:28Z</time>
      </trkpt>
      <trkpt lat="42.2665" lon="2.26762">
        <ele>1147</ele>
        <time>2010-01-01T02:05:29Z</time>
      </trkpt>
      <trkpt lat="42.26648" lon="2.26763">
        <ele>1147</ele>
        <time>2010-01-01T02:05:30Z</time>
      </trkpt>
      <trkpt lat="42.26646" lon="2.26763">
        <ele>1147</ele>
        <time>2010-01-01T02:05:30Z</time>
      </trkpt>
      <trkpt lat="42.26644" lon="2.26763">
        <ele>1148</ele>
        <time>2010-01-01T02:05:31Z</time>
      </trkpt>
      <trkpt lat="42.26641" lon="2.26761">
        <ele>1148</ele>
        <time>2010-01-01T02:05:32Z</time>
      </trkpt>
      <trkpt lat="42.26639" lon="2.26761">
        <ele>1149</ele>
        <time>2010-01-01T02:05:33Z</time>
      </trkpt>
      <trkpt lat="42.26637" lon="2.26761">
        <ele>1149</ele>
        <time>2010-01-01T02:05:34Z</time>
      </trkpt>
      <trkpt lat="42.26634" lon="2.26761">
        <ele>1149</ele>
        <time>2010-01-01T02:05:35Z</time>
      </trkpt>
      <trkpt lat="42.26631" lon="2.26762">
        <ele>1149</ele>
        <time>2010-01-01T02:05:36Z</time>
      </trkpt>
      <trkpt lat="42.26629" lon="2.26762">
        <ele>1149</ele>
        <time>2010-01-01T02:05:37Z</time>
      </trkpt>
      <trkpt lat="42.26627" lon="2.26763">
        <ele>1149</ele>
        <time>2010-01-01T02:05:38Z</time>
      </trkpt>
      <trkpt lat="42.26624" lon="2.26764">
        <ele>1149</ele>
        <time>2010-01-01T02:05:39Z</time>
      </trkpt>
      <trkpt lat="42.26624" lon="2.26767">
        <ele>1149</ele>
        <time>2010-01-01T02:05:40Z</time>
      </trkpt>
      <trkpt lat="42.26623" lon="2.26771">
        <ele>1148</ele>
        <time>2010-01-01T02:05:41Z</time>
      </trkpt>
      <trkpt lat="42.26623" lon="2.26776">
        <ele>1148</ele>
        <time>2010-01-01T02:05:43Z</time>
      </trkpt>
      <trkpt lat="42.26621" lon="2.26782">
        <ele>1148</ele>
        <time>2010-01-01T02:05:45Z</time>
      </trkpt>
      <trkpt lat="42.2662" lon="2.2679">
        <ele>1147</ele>
        <time>2010-01-01T02:05:47Z</time>
      </trkpt>
      <trkpt lat="42.2662" lon="2.26797">
        <ele>1146</ele>
        <time>2010-01-01T02:05:49Z</time>
      </trkpt>
      <trkpt lat="42.26622" lon="2.26798">
        <ele>1146</ele>
        <time>2010-01-01T02:05:50Z</time>
      </trkpt>
      <trkpt lat="42.26624" lon="2.26799">
        <ele>1146</ele>
        <time>2010-01-01T02:05:51Z</time>
      </trkpt>
      <trkpt lat="42.26624" lon="2.26802">
        <ele>1145</ele>
        <time>2010-01-01T02:05:52Z</time>
      </trkpt>
      <trkpt lat="42.26623" lon="2.26805">
        <ele>1145</ele>
        <time>2010-01-01T02:05:53Z</time>
      </trkpt>
      <trkpt lat="42.2662" lon="2.26808">
        <ele>1145</ele>
        <time>2010-01-01T02:05:54Z</time>
      </trkpt>
      <trkpt lat="42.26618" lon="2.2681">
        <ele>1144</ele>
        <time>2010-01-01T02:05:55Z</time>
      </trkpt>
      <trkpt lat="42.26615" lon="2.26812">
        <ele>1144</ele>
        <time>2010-01-01T02:05:56Z</time>
      </trkpt>
      <trkpt lat="42.26613" lon="2.26812">
        <ele>1144</ele>
        <time>2010-01-01T02:05:57Z</time>
      </trkpt>
      <trkpt lat="42.26612" lon="2.26814">
        <ele>1144</ele>
        <time>2010-01-01T02:05:58Z</time>
      </trkpt>
      <trkpt lat="42.2661" lon="2.26817">
        <ele>1143</ele>
        <time>2010-01-01T02:05:59Z</time>
      </trkpt>
      <trkpt lat="42.26607" lon="2.26816">
        <ele>1143</ele>
        <time>2010-01-01T02:06:00Z</time>
      </trkpt>
      <trkpt lat="42.26606" lon="2.2682">
        <ele>1142</ele>
        <time>2010-01-01T02:06:01Z</time>
      </trkpt>
      <trkpt lat="42.26604" lon="2.26823">
        <ele>1141</ele>
        <time>2010-01-01T02:06:02Z</time>
      </trkpt>
      <trkpt lat="42.26602" lon="2.26822">
        <ele>1141</ele>
        <time>2010-01-01T02:06:03Z</time>
      </trkpt>
      <trkpt lat="42.26599" lon="2.26821">
        <ele>1141</ele>
        <time>2010-01-01T02:06:05Z</time>
      </trkpt>
      <trkpt lat="42.26597" lon="2.26819">
        <ele>1141</ele>
        <time>2010-01-01T02:06:06Z</time>
      </trkpt>
      <trkpt lat="42.26594" lon="2.26818">
        <ele>1141</ele>
        <time>2010-01-01T02:06:07Z</time>
      </trkpt>
      <trkpt lat="42.26592" lon="2.26819">
        <ele>1140</ele>
        <time>2010-01-01T02:06:07Z</time>
      </trkpt>
      <trkpt lat="42.2659" lon="2.26821">
        <ele>1139</ele>
        <time>2010-01-01T02:06:08Z</time>
      </trkpt>
      <trkpt lat="42.26588" lon="2.26823">
        <ele>1139</ele>
        <time>2010-01-01T02:06:10Z</time>
      </trkpt>
      <trkpt lat="42.26589" lon="2.26826">
        <ele>1138</ele>
        <time>2010-01-01T02:06:10Z</time>
      </trkpt>
      <trkpt lat="42.2659" lon="2.2683">
        <ele>1137</ele>
        <time>2010-01-01T02:06:12Z</time>
      </trkpt>
      <trkpt lat="42.26591" lon="2.26832">
        <ele>1137</ele>
        <time>2010-01-01T02:06:12Z</time>
      </trkpt>
      <trkpt lat="42.26592" lon="2.26835">
        <ele>1137</ele>
        <time>2010-01-01T02:06:13Z</time>
      </trkpt>
      <trkpt lat="42.26593" lon="2.26839">
        <ele>1136</ele>
        <time>2010-01-01T02:06:15Z</time>
      </trkpt>
      <trkpt lat="42.26594" lon="2.26842">
        <ele>1135</ele>
        <time>2010-01-01T02:06:16Z</time>
      </trkpt>
      <trkpt lat="42.26594" lon="2.26846">
        <ele>1135</ele>
        <time>2010-01-01T02:06:17Z</time>
      </trkpt>
      <trkpt lat="42.26596" lon="2.26849">
        <ele>1134</ele>
        <time>2010-01-01T02:06:18Z</time>
      </trkpt>
      <trkpt lat="42.26597" lon="2.26854">
        <ele>1133</ele>
        <time>2010-01-01T02:06:19Z</time>
      </trkpt>
      <trkpt lat="42.26599" lon="2.26858">
        <ele>1133</ele>
        <time>2010-01-01T02:06:21Z</time>
      </trkpt>
      <trkpt lat="42.266" lon="2.26863">
        <ele>1131</ele>
        <time>2010-01-01T02:06:22Z</time>
      </trkpt>
      <trkpt lat="42.26602" lon="2.2687">
        <ele>1130</ele>
        <time>2010-01-01T02:06:24Z</time>
      </trkpt>
      <trkpt lat="42.26603" lon="2.26876">
        <ele>1128</ele>
        <time>2010-01-01T02:06:26Z</time>
      </trkpt>
      <trkpt lat="42.26604" lon="2.26883">
        <ele>1126</ele>
        <time>2010-01-01T02:06:28Z</time>
      </trkpt>
      <trkpt lat="42.26605" lon="2.26889">
        <ele>1125</ele>
        <time>2010-01-01T02:06:30Z</time>
      </trkpt>
      <trkpt lat="42.26607" lon="2.26895">
        <ele>1123</ele>
        <time>2010-01-01T02:06:32Z</time>
      </trkpt>
      <trkpt lat="42.26607" lon="2.26907">
        <ele>1119</ele>
        <time>2010-01-01T02:06:36Z</time>
      </trkpt>
      <trkpt lat="42.26605" lon="2.26909">
        <ele>1118</ele>
        <time>2010-01-01T02:06:37Z</time>
      </trkpt>
      <trkpt lat="42.26606" lon="2.26913">
        <ele>1117</ele>
        <time>2010-01-01T02:06:38Z</time>
      </trkpt>
      <trkpt lat="42.26607" lon="2.26916">
        <ele>1116</ele>
        <time>2010-01-01T02:06:39Z</time>
      </trkpt>
      <trkpt lat="42.26608" lon="2.26919">
        <ele>1116</ele>
        <time>2010-01-01T02:06:40Z</time>
      </trkpt>
      <trkpt lat="42.2661" lon="2.26923">
        <ele>1115</ele>
        <time>2010-01-01T02:06:41Z</time>
      </trkpt>
      <trkpt lat="42.26611" lon="2.26926">
        <ele>1114</ele>
        <time>2010-01-01T02:06:42Z</time>
      </trkpt>
      <trkpt lat="42.26613" lon="2.2693">
        <ele>1112</ele>
        <time>2010-01-01T02:06:44Z</time>
      </trkpt>
      <trkpt lat="42.26615" lon="2.26934">
        <ele>1111</ele>
        <time>2010-01-01T02:06:45Z</time>
      </trkpt>
      <trkpt lat="42.26616" lon="2.26938">
        <ele>1110</ele>
        <time>2010-01-01T02:06:46Z</time>
      </trkpt>
      <trkpt lat="42.26617" lon="2.26943">
        <ele>1108</ele>
        <time>2010-01-01T02:06:48Z</time>
      </trkpt>
      <trkpt lat="42.26617" lon="2.26947">
        <ele>1107</ele>
        <time>2010-01-01T02:06:49Z</time>
      </trkpt>
      <trkpt lat="42.2662" lon="2.26954">
        <ele>1105</ele>
        <time>2010-01-01T02:06:51Z</time>
      </trkpt>
      <trkpt lat="42.26622" lon="2.26966">
        <ele>1102</ele>
        <time>2010-01-01T02:06:55Z</time>
      </trkpt>
      <trkpt lat="42.26623" lon="2.26971">
        <ele>1101</ele>
        <time>2010-01-01T02:06:56Z</time>
      </trkpt>
      <trkpt lat="42.26624" lon="2.2698">
        <ele>1099</ele>
        <time>2010-01-01T02:06:59Z</time>
      </trkpt>
      <trkpt lat="42.26625" lon="2.26985">
        <ele>1098</ele>
        <time>2010-01-01T02:07:01Z</time>
      </trkpt>
      <trkpt lat="42.26625" lon="2.26991">
        <ele>1097</ele>
        <time>2010-01-01T02:07:02Z</time>
      </trkpt>
      <trkpt lat="42.26624" lon="2.26996">
        <ele>1096</ele>
        <time>2010-01-01T02:07:04Z</time>
      </trkpt>
      <trkpt lat="42.26623" lon="2.27">
        <ele>1095</ele>
        <time>2010-01-01T02:07:05Z</time>
      </trkpt>
      <trkpt lat="42.26621" lon="2.27003">
        <ele>1095</ele>
        <time>2010-01-01T02:07:07Z</time>
      </trkpt>
      <trkpt lat="42.2662" lon="2.27006">
        <ele>1094</ele>
        <time>2010-01-01T02:07:08Z</time>
      </trkpt>
      <trkpt lat="42.26618" lon="2.27013">
        <ele>1093</ele>
        <time>2010-01-01T02:07:10Z</time>
      </trkpt>
      <trkpt lat="42.26618" lon="2.27021">
        <ele>1092</ele>
        <time>2010-01-01T02:07:12Z</time>
      </trkpt>
      <trkpt lat="42.2662" lon="2.27022">
        <ele>1091</ele>
        <time>2010-01-01T02:07:13Z</time>
      </trkpt>
      <trkpt lat="42.26625" lon="2.27023">
        <ele>1091</ele>
        <time>2010-01-01T02:07:15Z</time>
      </trkpt>
      <trkpt lat="42.26627" lon="2.27026">
        <ele>1090</ele>
        <time>2010-01-01T02:07:16Z</time>
      </trkpt>
      <trkpt lat="42.26627" lon="2.27029">
        <ele>1090</ele>
        <time>2010-01-01T02:07:17Z</time>
      </trkpt>
      <trkpt lat="42.26627" lon="2.27033">
        <ele>1089</ele>
        <time>2010-01-01T02:07:18Z</time>
      </trkpt>
      <trkpt lat="42.26627" lon="2.27036">
        <ele>1089</ele>
        <time>2010-01-01T02:07:19Z</time>
      </trkpt>
      <trkpt lat="42.26629" lon="2.27039">
        <ele>1089</ele>
        <time>2010-01-01T02:07:20Z</time>
      </trkpt>
      <trkpt lat="42.26629" lon="2.27042">
        <ele>1089</ele>
        <time>2010-01-01T02:07:21Z</time>
      </trkpt>
      <trkpt lat="42.26629" lon="2.27045">
        <ele>1088</ele>
        <time>2010-01-01T02:07:22Z</time>
      </trkpt>
      <trkpt lat="42.26629" lon="2.27049">
        <ele>1088</ele>
        <time>2010-01-01T02:07:23Z</time>
      </trkpt>
      <trkpt lat="42.26632" lon="2.27053">
        <ele>1088</ele>
        <time>2010-01-01T02:07:24Z</time>
      </trkpt>
      <trkpt lat="42.26633" lon="2.27053">
        <ele>1088</ele>
        <time>2010-01-01T02:07:25Z</time>
      </trkpt>
      <trkpt lat="42.26635" lon="2.27054">
        <ele>1088</ele>
        <time>2010-01-01T02:07:26Z</time>
      </trkpt>
      <trkpt lat="42.26636" lon="2.27057">
        <ele>1087</ele>
        <time>2010-01-01T02:07:27Z</time>
      </trkpt>
      <trkpt lat="42.26636" lon="2.2706">
        <ele>1087</ele>
        <time>2010-01-01T02:07:28Z</time>
      </trkpt>
      <trkpt lat="42.26635" lon="2.27063">
        <ele>1086</ele>
        <time>2010-01-01T02:07:29Z</time>
      </trkpt>
      <trkpt lat="42.26635" lon="2.27067">
        <ele>1085</ele>
        <time>2010-01-01T02:07:30Z</time>
      </trkpt>
      <trkpt lat="42.26634" lon="2.27071">
        <ele>1084</ele>
        <time>2010-01-01T02:07:31Z</time>
      </trkpt>
      <trkpt lat="42.26632" lon="2.27075">
        <ele>1084</ele>
        <time>2010-01-01T02:07:33Z</time>
      </trkpt>
      <trkpt lat="42.26629" lon="2.2708">
        <ele>1083</ele>
        <time>2010-01-01T02:07:34Z</time>
      </trkpt>
      <trkpt lat="42.26628" lon="2.27085">
        <ele>1082</ele>
        <time>2010-01-01T02:07:36Z</time>
      </trkpt>
      <trkpt lat="42.26626" lon="2.27091">
        <ele>1081</ele>
        <time>2010-01-01T02:07:38Z</time>
      </trkpt>
      <trkpt lat="42.26624" lon="2.27099">
        <ele>1079</ele>
        <time>2010-01-01T02:07:40Z</time>
      </trkpt>
      <trkpt lat="42.26622" lon="2.27105">
        <ele>1077</ele>
        <time>2010-01-01T02:07:43Z</time>
      </trkpt>
      <trkpt lat="42.2662" lon="2.27113">
        <ele>1076</ele>
        <time>2010-01-01T02:07:45Z</time>
      </trkpt>
      <trkpt lat="42.26617" lon="2.27118">
        <ele>1074</ele>
        <time>2010-01-01T02:07:47Z</time>
      </trkpt>
      <trkpt lat="42.26615" lon="2.27123">
        <ele>1072</ele>
        <time>2010-01-01T02:07:48Z</time>
      </trkpt>
      <trkpt lat="42.26615" lon="2.27128">
        <ele>1071</ele>
        <time>2010-01-01T02:07:50Z</time>
      </trkpt>
      <trkpt lat="42.26614" lon="2.27135">
        <ele>1069</ele>
        <time>2010-01-01T02:07:52Z</time>
      </trkpt>
      <trkpt lat="42.26613" lon="2.27141">
        <ele>1067</ele>
        <time>2010-01-01T02:07:54Z</time>
      </trkpt>
      <trkpt lat="42.26612" lon="2.27148">
        <ele>1065</ele>
        <time>2010-01-01T02:07:56Z</time>
      </trkpt>
      <trkpt lat="42.26612" lon="2.27155">
        <ele>1064</ele>
        <time>2010-01-01T02:07:58Z</time>
      </trkpt>
      <trkpt lat="42.26612" lon="2.27163">
        <ele>1062</ele>
        <time>2010-01-01T02:08:00Z</time>
      </trkpt>
      <trkpt lat="42.26613" lon="2.27167">
        <ele>1061</ele>
        <time>2010-01-01T02:08:02Z</time>
      </trkpt>
      <trkpt lat="42.26613" lon="2.27172">
        <ele>1061</ele>
        <time>2010-01-01T02:08:03Z</time>
      </trkpt>
      <trkpt lat="42.26616" lon="2.27177">
        <ele>1061</ele>
        <time>2010-01-01T02:08:05Z</time>
      </trkpt>
      <trkpt lat="42.26618" lon="2.2718">
        <ele>1060</ele>
        <time>2010-01-01T02:08:06Z</time>
      </trkpt>
      <trkpt lat="42.26619" lon="2.27182">
        <ele>1060</ele>
        <time>2010-01-01T02:08:07Z</time>
      </trkpt>
      <trkpt lat="42.26617" lon="2.27185">
        <ele>1060</ele>
        <time>2010-01-01T02:08:08Z</time>
      </trkpt>
      <trkpt lat="42.26616" lon="2.27188">
        <ele>1060</ele>
        <time>2010-01-01T02:08:09Z</time>
      </trkpt>
      <trkpt lat="42.26616" lon="2.27191">
        <ele>1060</ele>
        <time>2010-01-01T02:08:10Z</time>
      </trkpt>
      <trkpt lat="42.26616" lon="2.27195">
        <ele>1059</ele>
        <time>2010-01-01T02:08:11Z</time>
      </trkpt>
      <trkpt lat="42.26615" lon="2.27199">
        <ele>1059</ele>
        <time>2010-01-01T02:08:12Z</time>
      </trkpt>
      <trkpt lat="42.26616" lon="2.27203">
        <ele>1058</ele>
        <time>2010-01-01T02:08:13Z</time>
      </trkpt>
      <trkpt lat="42.26616" lon="2.27208">
        <ele>1058</ele>
        <time>2010-01-01T02:08:15Z</time>
      </trkpt>
      <trkpt lat="42.26616" lon="2.27215">
        <ele>1057</ele>
        <time>2010-01-01T02:08:17Z</time>
      </trkpt>
      <trkpt lat="42.26616" lon="2.27222">
        <ele>1056</ele>
        <time>2010-01-01T02:08:19Z</time>
      </trkpt>
      <trkpt lat="42.26616" lon="2.27226">
        <ele>1056</ele>
        <time>2010-01-01T02:08:20Z</time>
      </trkpt>
      <trkpt lat="42.26615" lon="2.27231">
        <ele>1055</ele>
        <time>2010-01-01T02:08:22Z</time>
      </trkpt>
      <trkpt lat="42.26618" lon="2.27245">
        <ele>1052</ele>
        <time>2010-01-01T02:08:26Z</time>
      </trkpt>
      <trkpt lat="42.26615" lon="2.27258">
        <ele>1050</ele>
        <time>2010-01-01T02:08:30Z</time>
      </trkpt>
      <trkpt lat="42.26618" lon="2.27272">
        <ele>1046</ele>
        <time>2010-01-01T02:08:35Z</time>
      </trkpt>
      <trkpt lat="42.26622" lon="2.27284">
        <ele>1042</ele>
        <time>2010-01-01T02:08:38Z</time>
      </trkpt>
      <trkpt lat="42.26623" lon="2.2729">
        <ele>1040</ele>
        <time>2010-01-01T02:08:40Z</time>
      </trkpt>
      <trkpt lat="42.26624" lon="2.27297">
        <ele>1037</ele>
        <time>2010-01-01T02:08:42Z</time>
      </trkpt>
      <trkpt lat="42.26624" lon="2.27305">
        <ele>1034</ele>
        <time>2010-01-01T02:08:45Z</time>
      </trkpt>
      <trkpt lat="42.26626" lon="2.27314">
        <ele>1030</ele>
        <time>2010-01-01T02:08:47Z</time>
      </trkpt>
      <trkpt lat="42.26628" lon="2.2732">
        <ele>1027</ele>
        <time>2010-01-01T02:08:49Z</time>
      </trkpt>
      <trkpt lat="42.26631" lon="2.27324">
        <ele>1025</ele>
        <time>2010-01-01T02:08:51Z</time>
      </trkpt>
      <trkpt lat="42.26634" lon="2.2733">
        <ele>1023</ele>
        <time>2010-01-01T02:08:53Z</time>
      </trkpt>
      <trkpt lat="42.26636" lon="2.27335">
        <ele>1022</ele>
        <time>2010-01-01T02:08:55Z</time>
      </trkpt>
      <trkpt lat="42.26638" lon="2.27339">
        <ele>1021</ele>
        <time>2010-01-01T02:08:56Z</time>
      </trkpt>
      <trkpt lat="42.26641" lon="2.27345">
        <ele>1019</ele>
        <time>2010-01-01T02:08:59Z</time>
      </trkpt>
      <trkpt lat="42.26638" lon="2.27349">
        <ele>1017</ele>
        <time>2010-01-01T02:09:00Z</time>
      </trkpt>
      <trkpt lat="42.26638" lon="2.27351">
        <ele>1017</ele>
        <time>2010-01-01T02:09:01Z</time>
      </trkpt>
      <trkpt lat="42.26639" lon="2.27354">
        <ele>1016</ele>
        <time>2010-01-01T02:09:02Z</time>
      </trkpt>
      <trkpt lat="42.26643" lon="2.27356">
        <ele>1015</ele>
        <time>2010-01-01T02:09:04Z</time>
      </trkpt>
      <trkpt lat="42.26646" lon="2.2736">
        <ele>1014</ele>
        <time>2010-01-01T02:09:05Z</time>
      </trkpt>
      <trkpt lat="42.26649" lon="2.27365">
        <ele>1013</ele>
        <time>2010-01-01T02:09:07Z</time>
      </trkpt>
      <trkpt lat="42.26651" lon="2.27369">
        <ele>1011</ele>
        <time>2010-01-01T02:09:09Z</time>
      </trkpt>
      <trkpt lat="42.26648" lon="2.27372">
        <ele>1010</ele>
        <time>2010-01-01T02:09:10Z</time>
      </trkpt>
      <trkpt lat="42.26646" lon="2.27374">
        <ele>1010</ele>
        <time>2010-01-01T02:09:11Z</time>
      </trkpt>
      <trkpt lat="42.26648" lon="2.27377">
        <ele>1009</ele>
        <time>2010-01-01T02:09:12Z</time>
      </trkpt>
      <trkpt lat="42.26651" lon="2.27384">
        <ele>1007</ele>
        <time>2010-01-01T02:09:14Z</time>
      </trkpt>
      <trkpt lat="42.26652" lon="2.27388">
        <ele>1005</ele>
        <time>2010-01-01T02:09:16Z</time>
      </trkpt>
      <trkpt lat="42.26653" lon="2.27392">
        <ele>1004</ele>
        <time>2010-01-01T02:09:17Z</time>
      </trkpt>
      <trkpt lat="42.26652" lon="2.27395">
        <ele>1003</ele>
        <time>2010-01-01T02:09:18Z</time>
      </trkpt>
      <trkpt lat="42.26651" lon="2.27398">
        <ele>1002</ele>
        <time>2010-01-01T02:09:19Z</time>
      </trkpt>
      <trkpt lat="42.2665" lon="2.27402">
        <ele>1001</ele>
        <time>2010-01-01T02:09:20Z</time>
      </trkpt>
      <trkpt lat="42.2665" lon="2.27407">
        <ele>999</ele>
        <time>2010-01-01T02:09:22Z</time>
      </trkpt>
      <trkpt lat="42.2665" lon="2.27413">
        <ele>998</ele>
        <time>2010-01-01T02:09:23Z</time>
      </trkpt>
      <trkpt lat="42.26651" lon="2.27419">
        <ele>996</ele>
        <time>2010-01-01T02:09:25Z</time>
      </trkpt>
      <trkpt lat="42.26652" lon="2.27423">
        <ele>995</ele>
        <time>2010-01-01T02:09:26Z</time>
      </trkpt>
      <trkpt lat="42.26652" lon="2.27426">
        <ele>994</ele>
        <time>2010-01-01T02:09:27Z</time>
      </trkpt>
      <trkpt lat="42.26653" lon="2.2743">
        <ele>994</ele>
        <time>2010-01-01T02:09:29Z</time>
      </trkpt>
      <trkpt lat="42.26654" lon="2.27432">
        <ele>993</ele>
        <time>2010-01-01T02:09:30Z</time>
      </trkpt>
      <trkpt lat="42.26657" lon="2.27434">
        <ele>993</ele>
        <time>2010-01-01T02:09:31Z</time>
      </trkpt>
      <trkpt lat="42.26659" lon="2.27435">
        <ele>992</ele>
        <time>2010-01-01T02:09:32Z</time>
      </trkpt>
      <trkpt lat="42.2666" lon="2.27438">
        <ele>991</ele>
        <time>2010-01-01T02:09:33Z</time>
      </trkpt>
      <trkpt lat="42.26658" lon="2.27442">
        <ele>991</ele>
        <time>2010-01-01T02:09:34Z</time>
      </trkpt>
      <trkpt lat="42.26657" lon="2.27446">
        <ele>990</ele>
        <time>2010-01-01T02:09:35Z</time>
      </trkpt>
      <trkpt lat="42.26656" lon="2.2745">
        <ele>989</ele>
        <time>2010-01-01T02:09:36Z</time>
      </trkpt>
      <trkpt lat="42.26655" lon="2.27454">
        <ele>989</ele>
        <time>2010-01-01T02:09:38Z</time>
      </trkpt>
      <trkpt lat="42.26654" lon="2.27459">
        <ele>988</ele>
        <time>2010-01-01T02:09:39Z</time>
      </trkpt>
      <trkpt lat="42.26654" lon="2.27465">
        <ele>988</ele>
        <time>2010-01-01T02:09:41Z</time>
      </trkpt>
      <trkpt lat="42.26657" lon="2.27464">
        <ele>987</ele>
        <time>2010-01-01T02:09:42Z</time>
      </trkpt>
      <trkpt lat="42.26659" lon="2.27469">
        <ele>986</ele>
        <time>2010-01-01T02:09:44Z</time>
      </trkpt>
      <trkpt lat="42.26658" lon="2.27474">
        <ele>986</ele>
        <time>2010-01-01T02:09:45Z</time>
      </trkpt>
      <trkpt lat="42.26659" lon="2.27479">
        <ele>985</ele>
        <time>2010-01-01T02:09:47Z</time>
      </trkpt>
      <trkpt lat="42.26659" lon="2.27485">
        <ele>984</ele>
        <time>2010-01-01T02:09:48Z</time>
      </trkpt>
      <trkpt lat="42.26658" lon="2.27492">
        <ele>982</ele>
        <time>2010-01-01T02:09:50Z</time>
      </trkpt>
      <trkpt lat="42.26659" lon="2.27497">
        <ele>981</ele>
        <time>2010-01-01T02:09:52Z</time>
      </trkpt>
      <trkpt lat="42.26658" lon="2.27503">
        <ele>980</ele>
        <time>2010-01-01T02:09:54Z</time>
      </trkpt>
      <trkpt lat="42.2666" lon="2.27503">
        <ele>980</ele>
        <time>2010-01-01T02:09:55Z</time>
      </trkpt>
      <trkpt lat="42.26664" lon="2.27502">
        <ele>980</ele>
        <time>2010-01-01T02:09:56Z</time>
      </trkpt>
      <trkpt lat="42.26667" lon="2.275">
        <ele>981</ele>
        <time>2010-01-01T02:09:58Z</time>
      </trkpt>
      <trkpt lat="42.26671" lon="2.27497">
        <ele>981</ele>
        <time>2010-01-01T02:10:00Z</time>
      </trkpt>
      <trkpt lat="42.26673" lon="2.27499">
        <ele>981</ele>
        <time>2010-01-01T02:10:00Z</time>
      </trkpt>
      <trkpt lat="42.26673" lon="2.27504">
        <ele>980</ele>
        <time>2010-01-01T02:10:02Z</time>
      </trkpt>
      <trkpt lat="42.26673" lon="2.27517">
        <ele>978</ele>
        <time>2010-01-01T02:10:06Z</time>
      </trkpt>
      <trkpt lat="42.26669" lon="2.27528">
        <ele>974</ele>
        <time>2010-01-01T02:10:10Z</time>
      </trkpt>
      <trkpt lat="42.26666" lon="2.2754">
        <ele>972</ele>
        <time>2010-01-01T02:10:13Z</time>
      </trkpt>
      <trkpt lat="42.26661" lon="2.2755">
        <ele>969</ele>
        <time>2010-01-01T02:10:17Z</time>
      </trkpt>
      <trkpt lat="42.26654" lon="2.27559">
        <ele>967</ele>
        <time>2010-01-01T02:10:21Z</time>
      </trkpt>
      <trkpt lat="42.26651" lon="2.27565">
        <ele>967</ele>
        <time>2010-01-01T02:10:23Z</time>
      </trkpt>
      <trkpt lat="42.26647" lon="2.27571">
        <ele>966</ele>
        <time>2010-01-01T02:10:25Z</time>
      </trkpt>
      <trkpt lat="42.2664" lon="2.27576">
        <ele>965</ele>
        <time>2010-01-01T02:10:28Z</time>
      </trkpt>
      <trkpt lat="42.26634" lon="2.27581">
        <ele>965</ele>
        <time>2010-01-01T02:10:31Z</time>
      </trkpt>
      <trkpt lat="42.26629" lon="2.27586">
        <ele>965</ele>
        <time>2010-01-01T02:10:34Z</time>
      </trkpt>
      <trkpt lat="42.26626" lon="2.2759">
        <ele>965</ele>
        <time>2010-01-01T02:10:35Z</time>
      </trkpt>
      <trkpt lat="42.26624" lon="2.27596">
        <ele>965</ele>
        <time>2010-01-01T02:10:37Z</time>
      </trkpt>
      <trkpt lat="42.26622" lon="2.27598">
        <ele>965</ele>
        <time>2010-01-01T02:10:38Z</time>
      </trkpt>
      <trkpt lat="42.2662" lon="2.27598">
        <ele>965</ele>
        <time>2010-01-01T02:10:39Z</time>
      </trkpt>
      <trkpt lat="42.26619" lon="2.276">
        <ele>965</ele>
        <time>2010-01-01T02:10:40Z</time>
      </trkpt>
      <trkpt lat="42.26619" lon="2.27603">
        <ele>965</ele>
        <time>2010-01-01T02:10:41Z</time>
      </trkpt>
      <trkpt lat="42.26618" lon="2.27606">
        <ele>965</ele>
        <time>2010-01-01T02:10:42Z</time>
      </trkpt>
      <trkpt lat="42.26618" lon="2.27609">
        <ele>965</ele>
        <time>2010-01-01T02:10:42Z</time>
      </trkpt>
      <trkpt lat="42.26617" lon="2.27613">
        <ele>965</ele>
        <time>2010-01-01T02:10:44Z</time>
      </trkpt>
      <trkpt lat="42.26617" lon="2.27617">
        <ele>965</ele>
        <time>2010-01-01T02:10:45Z</time>
      </trkpt>
      <trkpt lat="42.26616" lon="2.27621">
        <ele>966</ele>
        <time>2010-01-01T02:10:46Z</time>
      </trkpt>
      <trkpt lat="42.26616" lon="2.27625">
        <ele>966</ele>
        <time>2010-01-01T02:10:47Z</time>
      </trkpt>
      <trkpt lat="42.26615" lon="2.27629">
        <ele>966</ele>
        <time>2010-01-01T02:10:49Z</time>
      </trkpt>
      <trkpt lat="42.26614" lon="2.27634">
        <ele>967</ele>
        <time>2010-01-01T02:10:50Z</time>
      </trkpt>
      <trkpt lat="42.26614" lon="2.27638">
        <ele>967</ele>
        <time>2010-01-01T02:10:51Z</time>
      </trkpt>
      <trkpt lat="42.26614" lon="2.27642">
        <ele>967</ele>
        <time>2010-01-01T02:10:52Z</time>
      </trkpt>
      <trkpt lat="42.26613" lon="2.27646">
        <ele>967</ele>
        <time>2010-01-01T02:10:53Z</time>
      </trkpt>
      <trkpt lat="42.26613" lon="2.27649">
        <ele>967</ele>
        <time>2010-01-01T02:10:55Z</time>
      </trkpt>
      <trkpt lat="42.26613" lon="2.27654">
        <ele>967</ele>
        <time>2010-01-01T02:10:56Z</time>
      </trkpt>
      <trkpt lat="42.26612" lon="2.27657">
        <ele>967</ele>
        <time>2010-01-01T02:10:57Z</time>
      </trkpt>
      <trkpt lat="42.2661" lon="2.2766">
        <ele>966</ele>
        <time>2010-01-01T02:10:58Z</time>
      </trkpt>
      <trkpt lat="42.26609" lon="2.27664">
        <ele>966</ele>
        <time>2010-01-01T02:10:59Z</time>
      </trkpt>
      <trkpt lat="42.26608" lon="2.27667">
        <ele>966</ele>
        <time>2010-01-01T02:11:00Z</time>
      </trkpt>
      <trkpt lat="42.26607" lon="2.2767">
        <ele>965</ele>
        <time>2010-01-01T02:11:01Z</time>
      </trkpt>
      <trkpt lat="42.26604" lon="2.27672">
        <ele>965</ele>
        <time>2010-01-01T02:11:03Z</time>
      </trkpt>
      <trkpt lat="42.26602" lon="2.27672">
        <ele>964</ele>
        <time>2010-01-01T02:11:04Z</time>
      </trkpt>
      <trkpt lat="42.26599" lon="2.27672">
        <ele>964</ele>
        <time>2010-01-01T02:11:05Z</time>
      </trkpt>
      <trkpt lat="42.26594" lon="2.27672">
        <ele>963</ele>
        <time>2010-01-01T02:11:07Z</time>
      </trkpt>
      <trkpt lat="42.26592" lon="2.27672">
        <ele>963</ele>
        <time>2010-01-01T02:11:07Z</time>
      </trkpt>
      <trkpt lat="42.26593" lon="2.27675">
        <ele>962</ele>
        <time>2010-01-01T02:11:08Z</time>
      </trkpt>
      <trkpt lat="42.26593" lon="2.27678">
        <ele>962</ele>
        <time>2010-01-01T02:11:09Z</time>
      </trkpt>
      <trkpt lat="42.26591" lon="2.2768">
        <ele>962</ele>
        <time>2010-01-01T02:11:10Z</time>
      </trkpt>
      <trkpt lat="42.2659" lon="2.27682">
        <ele>961</ele>
        <time>2010-01-01T02:11:11Z</time>
      </trkpt>
      <trkpt lat="42.26588" lon="2.27684">
        <ele>961</ele>
        <time>2010-01-01T02:11:12Z</time>
      </trkpt>
      <trkpt lat="42.2659" lon="2.27683">
        <ele>961</ele>
        <time>2010-01-01T02:11:12Z</time>
      </trkpt>
      <trkpt lat="42.26588" lon="2.27683">
        <ele>961</ele>
        <time>2010-01-01T02:11:13Z</time>
      </trkpt>
      <trkpt lat="42.26589" lon="2.27681">
        <ele>961</ele>
        <time>2010-01-01T02:11:14Z</time>
      </trkpt>
      <trkpt lat="42.26592" lon="2.27678">
        <ele>962</ele>
        <time>2010-01-01T02:11:16Z</time>
      </trkpt>
      <trkpt lat="42.2659" lon="2.27677">
        <ele>962</ele>
        <time>2010-01-01T02:11:16Z</time>
      </trkpt>
      <trkpt lat="42.26588" lon="2.27678">
        <ele>962</ele>
        <time>2010-01-01T02:11:17Z</time>
      </trkpt>
      <trkpt lat="42.26588" lon="2.2768">
        <ele>961</ele>
        <time>2010-01-01T02:11:18Z</time>
      </trkpt>
      <trkpt lat="42.26586" lon="2.27682">
        <ele>961</ele>
        <time>2010-01-01T02:11:19Z</time>
      </trkpt>
      <trkpt lat="42.26587" lon="2.2768">
        <ele>961</ele>
        <time>2010-01-01T02:11:20Z</time>
      </trkpt>
      <trkpt lat="42.26588" lon="2.27678">
        <ele>961</ele>
        <time>2010-01-01T02:11:20Z</time>
      </trkpt>
      <trkpt lat="42.2659" lon="2.27676">
        <ele>962</ele>
        <time>2010-01-01T02:11:21Z</time>
      </trkpt>
      <trkpt lat="42.26593" lon="2.27676">
        <ele>962</ele>
        <time>2010-01-01T02:11:22Z</time>
      </trkpt>
      <trkpt lat="42.26595" lon="2.27676">
        <ele>963</ele>
        <time>2010-01-01T02:11:23Z</time>
      </trkpt>
      <trkpt lat="42.26597" lon="2.27676">
        <ele>963</ele>
        <time>2010-01-01T02:11:24Z</time>
      </trkpt>
      <trkpt lat="42.26596" lon="2.27675">
        <ele>963</ele>
        <time>2010-01-01T02:11:25Z</time>
      </trkpt>
      <trkpt lat="42.26594" lon="2.27676">
        <ele>963</ele>
        <time>2010-01-01T02:11:26Z</time>
      </trkpt>
      <trkpt lat="42.26592" lon="2.27674">
        <ele>962</ele>
        <time>2010-01-01T02:11:26Z</time>
      </trkpt>
      <trkpt lat="42.26594" lon="2.27673">
        <ele>963</ele>
        <time>2010-01-01T02:11:27Z</time>
      </trkpt>
      <trkpt lat="42.26596" lon="2.27672">
        <ele>963</ele>
        <time>2010-01-01T02:11:28Z</time>
      </trkpt>
      <trkpt lat="42.26597" lon="2.27674">
        <ele>963</ele>
        <time>2010-01-01T02:11:29Z</time>
      </trkpt>
      <trkpt lat="42.26598" lon="2.27677">
        <ele>963</ele>
        <time>2010-01-01T02:11:29Z</time>
      </trkpt>
      <trkpt lat="42.26598" lon="2.2768">
        <ele>963</ele>
        <time>2010-01-01T02:11:31Z</time>
      </trkpt>
      <trkpt lat="42.26599" lon="2.27684">
        <ele>963</ele>
        <time>2010-01-01T02:11:32Z</time>
      </trkpt>
      <trkpt lat="42.266" lon="2.27687">
        <ele>963</ele>
        <time>2010-01-01T02:11:33Z</time>
      </trkpt>
      <trkpt lat="42.266" lon="2.2769">
        <ele>962</ele>
        <time>2010-01-01T02:11:34Z</time>
      </trkpt>
      <trkpt lat="42.266" lon="2.27693">
        <ele>962</ele>
        <time>2010-01-01T02:11:35Z</time>
      </trkpt>
      <trkpt lat="42.26601" lon="2.27696">
        <ele>962</ele>
        <time>2010-01-01T02:11:36Z</time>
      </trkpt>
      <trkpt lat="42.26602" lon="2.277">
        <ele>962</ele>
        <time>2010-01-01T02:11:37Z</time>
      </trkpt>
      <trkpt lat="42.26603" lon="2.27704">
        <ele>961</ele>
        <time>2010-01-01T02:11:38Z</time>
      </trkpt>
      <trkpt lat="42.26602" lon="2.27708">
        <ele>961</ele>
        <time>2010-01-01T02:11:39Z</time>
      </trkpt>
      <trkpt lat="42.26601" lon="2.27713">
        <ele>961</ele>
        <time>2010-01-01T02:11:41Z</time>
      </trkpt>
      <trkpt lat="42.26599" lon="2.27718">
        <ele>960</ele>
        <time>2010-01-01T02:11:42Z</time>
      </trkpt>
      <trkpt lat="42.26596" lon="2.27723">
        <ele>959</ele>
        <time>2010-01-01T02:11:44Z</time>
      </trkpt>
      <trkpt lat="42.26593" lon="2.27729">
        <ele>958</ele>
        <time>2010-01-01T02:11:46Z</time>
      </trkpt>
      <trkpt lat="42.26591" lon="2.27734">
        <ele>957</ele>
        <time>2010-01-01T02:11:48Z</time>
      </trkpt>
      <trkpt lat="42.26589" lon="2.27741">
        <ele>956</ele>
        <time>2010-01-01T02:11:50Z</time>
      </trkpt>
      <trkpt lat="42.26587" lon="2.27748">
        <ele>956</ele>
        <time>2010-01-01T02:11:53Z</time>
      </trkpt>
      <trkpt lat="42.26587" lon="2.27755">
        <ele>955</ele>
        <time>2010-01-01T02:11:54Z</time>
      </trkpt>
      <trkpt lat="42.26585" lon="2.27761">
        <ele>955</ele>
        <time>2010-01-01T02:11:57Z</time>
      </trkpt>
      <trkpt lat="42.26583" lon="2.27767">
        <ele>955</ele>
        <time>2010-01-01T02:11:58Z</time>
      </trkpt>
      <trkpt lat="42.26582" lon="2.27773">
        <ele>954</ele>
        <time>2010-01-01T02:12:00Z</time>
      </trkpt>
      <trkpt lat="42.2658" lon="2.27779">
        <ele>954</ele>
        <time>2010-01-01T02:12:02Z</time>
      </trkpt>
      <trkpt lat="42.26578" lon="2.27786">
        <ele>954</ele>
        <time>2010-01-01T02:12:04Z</time>
      </trkpt>
      <trkpt lat="42.26577" lon="2.27792">
        <ele>954</ele>
        <time>2010-01-01T02:12:06Z</time>
      </trkpt>
      <trkpt lat="42.26575" lon="2.27799">
        <ele>953</ele>
        <time>2010-01-01T02:12:08Z</time>
      </trkpt>
      <trkpt lat="42.26573" lon="2.27805">
        <ele>953</ele>
        <time>2010-01-01T02:12:11Z</time>
      </trkpt>
      <trkpt lat="42.26571" lon="2.27812">
        <ele>952</ele>
        <time>2010-01-01T02:12:13Z</time>
      </trkpt>
      <trkpt lat="42.2657" lon="2.27819">
        <ele>951</ele>
        <time>2010-01-01T02:12:15Z</time>
      </trkpt>
      <trkpt lat="42.26568" lon="2.27825">
        <ele>951</ele>
        <time>2010-01-01T02:12:17Z</time>
      </trkpt>
      <trkpt lat="42.26566" lon="2.27831">
        <ele>950</ele>
        <time>2010-01-01T02:12:18Z</time>
      </trkpt>
      <trkpt lat="42.26565" lon="2.27836">
        <ele>950</ele>
        <time>2010-01-01T02:12:20Z</time>
      </trkpt>
      <trkpt lat="42.26562" lon="2.27842">
        <ele>949</ele>
        <time>2010-01-01T02:12:22Z</time>
      </trkpt>
      <trkpt lat="42.26561" lon="2.27849">
        <ele>948</ele>
        <time>2010-01-01T02:12:24Z</time>
      </trkpt>
      <trkpt lat="42.2656" lon="2.27856">
        <ele>948</ele>
        <time>2010-01-01T02:12:27Z</time>
      </trkpt>
      <trkpt lat="42.26562" lon="2.27862">
        <ele>948</ele>
        <time>2010-01-01T02:12:29Z</time>
      </trkpt>
      <trkpt lat="42.26566" lon="2.27868">
        <ele>948</ele>
        <time>2010-01-01T02:12:31Z</time>
      </trkpt>
      <trkpt lat="42.2657" lon="2.27872">
        <ele>948</ele>
        <time>2010-01-01T02:12:33Z</time>
      </trkpt>
      <trkpt lat="42.26573" lon="2.27877">
        <ele>948</ele>
        <time>2010-01-01T02:12:35Z</time>
      </trkpt>
      <trkpt lat="42.26574" lon="2.27883">
        <ele>948</ele>
        <time>2010-01-01T02:12:37Z</time>
      </trkpt>
      <trkpt lat="42.26577" lon="2.27888">
        <ele>948</ele>
        <time>2010-01-01T02:12:38Z</time>
      </trkpt>
      <trkpt lat="42.2658" lon="2.27893">
        <ele>947</ele>
        <time>2010-01-01T02:12:40Z</time>
      </trkpt>
      <trkpt lat="42.26582" lon="2.27898">
        <ele>947</ele>
        <time>2010-01-01T02:12:42Z</time>
      </trkpt>
      <trkpt lat="42.26586" lon="2.27903">
        <ele>948</ele>
        <time>2010-01-01T02:12:44Z</time>
      </trkpt>
      <trkpt lat="42.26589" lon="2.27908">
        <ele>948</ele>
        <time>2010-01-01T02:12:46Z</time>
      </trkpt>
      <trkpt lat="42.26592" lon="2.27913">
        <ele>948</ele>
        <time>2010-01-01T02:12:48Z</time>
      </trkpt>
      <trkpt lat="42.26595" lon="2.27918">
        <ele>949</ele>
        <time>2010-01-01T02:12:50Z</time>
      </trkpt>
      <trkpt lat="42.26598" lon="2.27923">
        <ele>949</ele>
        <time>2010-01-01T02:12:52Z</time>
      </trkpt>
      <trkpt lat="42.26601" lon="2.27928">
        <ele>950</ele>
        <time>2010-01-01T02:12:53Z</time>
      </trkpt>
      <trkpt lat="42.26603" lon="2.27932">
        <ele>950</ele>
        <time>2010-01-01T02:12:55Z</time>
      </trkpt>
      <trkpt lat="42.26607" lon="2.27936">
        <ele>950</ele>
        <time>2010-01-01T02:12:57Z</time>
      </trkpt>
      <trkpt lat="42.26611" lon="2.27941">
        <ele>951</ele>
        <time>2010-01-01T02:12:59Z</time>
      </trkpt>
      <trkpt lat="42.26616" lon="2.27945">
        <ele>952</ele>
        <time>2010-01-01T02:13:02Z</time>
      </trkpt>
      <trkpt lat="42.26622" lon="2.27948">
        <ele>954</ele>
        <time>2010-01-01T02:13:04Z</time>
      </trkpt>
      <trkpt lat="42.26626" lon="2.27951">
        <ele>955</ele>
        <time>2010-01-01T02:13:06Z</time>
      </trkpt>
      <trkpt lat="42.26631" lon="2.27955">
        <ele>956</ele>
        <time>2010-01-01T02:13:08Z</time>
      </trkpt>
      <trkpt lat="42.26635" lon="2.27959">
        <ele>957</ele>
        <time>2010-01-01T02:13:10Z</time>
      </trkpt>
      <trkpt lat="42.26639" lon="2.27964">
        <ele>957</ele>
        <time>2010-01-01T02:13:12Z</time>
      </trkpt>
      <trkpt lat="42.26642" lon="2.27968">
        <ele>958</ele>
        <time>2010-01-01T02:13:14Z</time>
      </trkpt>
      <trkpt lat="42.26645" lon="2.27974">
        <ele>959</ele>
        <time>2010-01-01T02:13:16Z</time>
      </trkpt>
      <trkpt lat="42.26646" lon="2.27978">
        <ele>960</ele>
        <time>2010-01-01T02:13:18Z</time>
      </trkpt>
      <trkpt lat="42.26647" lon="2.27984">
        <ele>960</ele>
        <time>2010-01-01T02:13:19Z</time>
      </trkpt>
      <trkpt lat="42.26648" lon="2.27989">
        <ele>961</ele>
        <time>2010-01-01T02:13:21Z</time>
      </trkpt>
      <trkpt lat="42.2665" lon="2.27995">
        <ele>961</ele>
        <time>2010-01-01T02:13:23Z</time>
      </trkpt>
      <trkpt lat="42.26653" lon="2.28">
        <ele>962</ele>
        <time>2010-01-01T02:13:25Z</time>
      </trkpt>
      <trkpt lat="42.26656" lon="2.28005">
        <ele>963</ele>
        <time>2010-01-01T02:13:27Z</time>
      </trkpt>
      <trkpt lat="42.26658" lon="2.2801">
        <ele>963</ele>
        <time>2010-01-01T02:13:28Z</time>
      </trkpt>
      <trkpt lat="42.26661" lon="2.28015">
        <ele>964</ele>
        <time>2010-01-01T02:13:30Z</time>
      </trkpt>
      <trkpt lat="42.26664" lon="2.2802">
        <ele>964</ele>
        <time>2010-01-01T02:13:32Z</time>
      </trkpt>
      <trkpt lat="42.26667" lon="2.28024">
        <ele>965</ele>
        <time>2010-01-01T02:13:34Z</time>
      </trkpt>
      <trkpt lat="42.26669" lon="2.2803">
        <ele>965</ele>
        <time>2010-01-01T02:13:35Z</time>
      </trkpt>
      <trkpt lat="42.2667" lon="2.28035">
        <ele>965</ele>
        <time>2010-01-01T02:13:37Z</time>
      </trkpt>
      <trkpt lat="42.26669" lon="2.2804">
        <ele>964</ele>
        <time>2010-01-01T02:13:39Z</time>
      </trkpt>
      <trkpt lat="42.26669" lon="2.28046">
        <ele>964</ele>
        <time>2010-01-01T02:13:40Z</time>
      </trkpt>
      <trkpt lat="42.26665" lon="2.28063">
        <ele>964</ele>
        <time>2010-01-01T02:13:46Z</time>
      </trkpt>
      <trkpt lat="42.26666" lon="2.28075">
        <ele>965</ele>
        <time>2010-01-01T02:13:49Z</time>
      </trkpt>
      <trkpt lat="42.26671" lon="2.28085">
        <ele>967</ele>
        <time>2010-01-01T02:13:53Z</time>
      </trkpt>
      <trkpt lat="42.26667" lon="2.28097">
        <ele>968</ele>
        <time>2010-01-01T02:13:57Z</time>
      </trkpt>
      <trkpt lat="42.26665" lon="2.28113">
        <ele>970</ele>
        <time>2010-01-01T02:14:02Z</time>
      </trkpt>
      <trkpt lat="42.26663" lon="2.28127">
        <ele>972</ele>
        <time>2010-01-01T02:14:06Z</time>
      </trkpt>
      <trkpt lat="42.26663" lon="2.2814">
        <ele>973</ele>
        <time>2010-01-01T02:14:10Z</time>
      </trkpt>
      <trkpt lat="42.26663" lon="2.28153">
        <ele>973</ele>
        <time>2010-01-01T02:14:13Z</time>
      </trkpt>
      <trkpt lat="42.26666" lon="2.28164">
        <ele>973</ele>
        <time>2010-01-01T02:14:17Z</time>
      </trkpt>
      <trkpt lat="42.26668" lon="2.28178">
        <ele>974</ele>
        <time>2010-01-01T02:14:21Z</time>
      </trkpt>
      <trkpt lat="42.26667" lon="2.28191">
        <ele>974</ele>
        <time>2010-01-01T02:14:25Z</time>
      </trkpt>
      <trkpt lat="42.26656" lon="2.28194">
        <ele>974</ele>
        <time>2010-01-01T02:14:29Z</time>
      </trkpt>
      <trkpt lat="42.26648" lon="2.28186">
        <ele>974</ele>
        <time>2010-01-01T02:14:33Z</time>
      </trkpt>
      <trkpt lat="42.2664" lon="2.28181">
        <ele>973</ele>
        <time>2010-01-01T02:14:37Z</time>
      </trkpt>
      <trkpt lat="42.26635" lon="2.28171">
        <ele>973</ele>
        <time>2010-01-01T02:14:40Z</time>
      </trkpt>
      <trkpt lat="42.26631" lon="2.2816">
        <ele>974</ele>
        <time>2010-01-01T02:14:44Z</time>
      </trkpt>
      <trkpt lat="42.26626" lon="2.28149">
        <ele>975</ele>
        <time>2010-01-01T02:14:48Z</time>
      </trkpt>
      <trkpt lat="42.26623" lon="2.28144">
        <ele>976</ele>
        <time>2010-01-01T02:14:50Z</time>
      </trkpt>
      <trkpt lat="42.26618" lon="2.28133">
        <ele>977</ele>
        <time>2010-01-01T02:14:54Z</time>
      </trkpt>
      <trkpt lat="42.26614" lon="2.28121">
        <ele>977</ele>
        <time>2010-01-01T02:14:57Z</time>
      </trkpt>
      <trkpt lat="42.26612" lon="2.28117">
        <ele>977</ele>
        <time>2010-01-01T02:14:59Z</time>
      </trkpt>
      <trkpt lat="42.26611" lon="2.28112">
        <ele>977</ele>
        <time>2010-01-01T02:15:00Z</time>
      </trkpt>
      <trkpt lat="42.26607" lon="2.28106">
        <ele>977</ele>
        <time>2010-01-01T02:15:03Z</time>
      </trkpt>
      <trkpt lat="42.266" lon="2.28097">
        <ele>977</ele>
        <time>2010-01-01T02:15:07Z</time>
      </trkpt>
      <trkpt lat="42.26593" lon="2.28088">
        <ele>977</ele>
        <time>2010-01-01T02:15:10Z</time>
      </trkpt>
      <trkpt lat="42.2659" lon="2.28088">
        <ele>978</ele>
        <time>2010-01-01T02:15:12Z</time>
      </trkpt>
      <trkpt lat="42.26591" lon="2.28101">
        <ele>979</ele>
        <time>2010-01-01T02:15:15Z</time>
      </trkpt>
      <trkpt lat="42.26594" lon="2.28108">
        <ele>980</ele>
        <time>2010-01-01T02:15:18Z</time>
      </trkpt>
      <trkpt lat="42.26597" lon="2.28113">
        <ele>980</ele>
        <time>2010-01-01T02:15:20Z</time>
      </trkpt>
      <trkpt lat="42.26599" lon="2.28115">
        <ele>980</ele>
        <time>2010-01-01T02:15:21Z</time>
      </trkpt>
      <trkpt lat="42.266" lon="2.28119">
        <ele>980</ele>
        <time>2010-01-01T02:15:22Z</time>
      </trkpt>
      <trkpt lat="42.26601" lon="2.28123">
        <ele>980</ele>
        <time>2010-01-01T02:15:23Z</time>
      </trkpt>
      <trkpt lat="42.26603" lon="2.28126">
        <ele>980</ele>
        <time>2010-01-01T02:15:24Z</time>
      </trkpt>
      <trkpt lat="42.26604" lon="2.28129">
        <ele>980</ele>
        <time>2010-01-01T02:15:25Z</time>
      </trkpt>
      <trkpt lat="42.26605" lon="2.28133">
        <ele>980</ele>
        <time>2010-01-01T02:15:27Z</time>
      </trkpt>
      <trkpt lat="42.26606" lon="2.28137">
        <ele>980</ele>
        <time>2010-01-01T02:15:28Z</time>
      </trkpt>
      <trkpt lat="42.26606" lon="2.2814">
        <ele>980</ele>
        <time>2010-01-01T02:15:29Z</time>
      </trkpt>
      <trkpt lat="42.26606" lon="2.28145">
        <ele>980</ele>
        <time>2010-01-01T02:15:30Z</time>
      </trkpt>
      <trkpt lat="42.26607" lon="2.28148">
        <ele>981</ele>
        <time>2010-01-01T02:15:31Z</time>
      </trkpt>
      <trkpt lat="42.26607" lon="2.28152">
        <ele>981</ele>
        <time>2010-01-01T02:15:32Z</time>
      </trkpt>
      <trkpt lat="42.26607" lon="2.28155">
        <ele>981</ele>
        <time>2010-01-01T02:15:33Z</time>
      </trkpt>
      <trkpt lat="42.26607" lon="2.28159">
        <ele>981</ele>
        <time>2010-01-01T02:15:34Z</time>
      </trkpt>
      <trkpt lat="42.26606" lon="2.28163">
        <ele>982</ele>
        <time>2010-01-01T02:15:36Z</time>
      </trkpt>
      <trkpt lat="42.26607" lon="2.28167">
        <ele>982</ele>
        <time>2010-01-01T02:15:37Z</time>
      </trkpt>
      <trkpt lat="42.26607" lon="2.28171">
        <ele>983</ele>
        <time>2010-01-01T02:15:38Z</time>
      </trkpt>
      <trkpt lat="42.26607" lon="2.28175">
        <ele>984</ele>
        <time>2010-01-01T02:15:39Z</time>
      </trkpt>
      <trkpt lat="42.26607" lon="2.28182">
        <ele>985</ele>
        <time>2010-01-01T02:15:41Z</time>
      </trkpt>
      <trkpt lat="42.26608" lon="2.28187">
        <ele>986</ele>
        <time>2010-01-01T02:15:43Z</time>
      </trkpt>
      <trkpt lat="42.26608" lon="2.28191">
        <ele>987</ele>
        <time>2010-01-01T02:15:44Z</time>
      </trkpt>
      <trkpt lat="42.26608" lon="2.28199">
        <ele>989</ele>
        <time>2010-01-01T02:15:46Z</time>
      </trkpt>
      <trkpt lat="42.26609" lon="2.28204">
        <ele>989</ele>
        <time>2010-01-01T02:15:48Z</time>
      </trkpt>
      <trkpt lat="42.26609" lon="2.28208">
        <ele>990</ele>
        <time>2010-01-01T02:15:49Z</time>
      </trkpt>
      <trkpt lat="42.26609" lon="2.28214">
        <ele>991</ele>
        <time>2010-01-01T02:15:51Z</time>
      </trkpt>
      <trkpt lat="42.2661" lon="2.2822">
        <ele>993</ele>
        <time>2010-01-01T02:15:53Z</time>
      </trkpt>
      <trkpt lat="42.2661" lon="2.28224">
        <ele>993</ele>
        <time>2010-01-01T02:15:54Z</time>
      </trkpt>
      <trkpt lat="42.2661" lon="2.28229">
        <ele>994</ele>
        <time>2010-01-01T02:15:55Z</time>
      </trkpt>
      <trkpt lat="42.26611" lon="2.28233">
        <ele>995</ele>
        <time>2010-01-01T02:15:56Z</time>
      </trkpt>
      <trkpt lat="42.26611" lon="2.28237">
        <ele>996</ele>
        <time>2010-01-01T02:15:58Z</time>
      </trkpt>
      <trkpt lat="42.26611" lon="2.28241">
        <ele>996</ele>
        <time>2010-01-01T02:15:59Z</time>
      </trkpt>
      <trkpt lat="42.26614" lon="2.28253">
        <ele>997</ele>
        <time>2010-01-01T02:16:03Z</time>
      </trkpt>
      <trkpt lat="42.26616" lon="2.28267">
        <ele>997</ele>
        <time>2010-01-01T02:16:07Z</time>
      </trkpt>
      <trkpt lat="42.26619" lon="2.2828">
        <ele>997</ele>
        <time>2010-01-01T02:16:11Z</time>
      </trkpt>
      <trkpt lat="42.26622" lon="2.28292">
        <ele>998</ele>
        <time>2010-01-01T02:16:15Z</time>
      </trkpt>
      <trkpt lat="42.26622" lon="2.28296">
        <ele>999</ele>
        <time>2010-01-01T02:16:16Z</time>
      </trkpt>
      <trkpt lat="42.26623" lon="2.283">
        <ele>999</ele>
        <time>2010-01-01T02:16:17Z</time>
      </trkpt>
      <trkpt lat="42.26623" lon="2.28304">
        <ele>1000</ele>
        <time>2010-01-01T02:16:18Z</time>
      </trkpt>
      <trkpt lat="42.26624" lon="2.2831">
        <ele>1001</ele>
        <time>2010-01-01T02:16:20Z</time>
      </trkpt>
      <trkpt lat="42.26625" lon="2.28314">
        <ele>1001</ele>
        <time>2010-01-01T02:16:21Z</time>
      </trkpt>
      <trkpt lat="42.26624" lon="2.28327">
        <ele>1005</ele>
        <time>2010-01-01T02:16:25Z</time>
      </trkpt>
      <trkpt lat="42.26625" lon="2.28341">
        <ele>1007</ele>
        <time>2010-01-01T02:16:29Z</time>
      </trkpt>
      <trkpt lat="42.26629" lon="2.28354">
        <ele>1008</ele>
        <time>2010-01-01T02:16:33Z</time>
      </trkpt>
      <trkpt lat="42.26633" lon="2.28365">
        <ele>1008</ele>
        <time>2010-01-01T02:16:37Z</time>
      </trkpt>
      <trkpt lat="42.26633" lon="2.28378">
        <ele>1012</ele>
        <time>2010-01-01T02:16:41Z</time>
      </trkpt>
      <trkpt lat="42.26633" lon="2.28391">
        <ele>1016</ele>
        <time>2010-01-01T02:16:45Z</time>
      </trkpt>
      <trkpt lat="42.26637" lon="2.28403">
        <ele>1016</ele>
        <time>2010-01-01T02:16:49Z</time>
      </trkpt>
      <trkpt lat="42.26644" lon="2.28414">
        <ele>1015</ele>
        <time>2010-01-01T02:16:53Z</time>
      </trkpt>
      <trkpt lat="42.2665" lon="2.28423">
        <ele>1014</ele>
        <time>2010-01-01T02:16:56Z</time>
      </trkpt>
      <trkpt lat="42.26656" lon="2.2843">
        <ele>1012</ele>
        <time>2010-01-01T02:17:00Z</time>
      </trkpt>
      <trkpt lat="42.26661" lon="2.28436">
        <ele>1011</ele>
        <time>2010-01-01T02:17:02Z</time>
      </trkpt>
      <trkpt lat="42.26662" lon="2.2844">
        <ele>1011</ele>
        <time>2010-01-01T02:17:04Z</time>
      </trkpt>
      <trkpt lat="42.26663" lon="2.28444">
        <ele>1012</ele>
        <time>2010-01-01T02:17:05Z</time>
      </trkpt>
      <trkpt lat="42.26663" lon="2.28448">
        <ele>1013</ele>
        <time>2010-01-01T02:17:06Z</time>
      </trkpt>
      <trkpt lat="42.26663" lon="2.28451">
        <ele>1014</ele>
        <time>2010-01-01T02:17:07Z</time>
      </trkpt>
      <trkpt lat="42.26663" lon="2.28455">
        <ele>1014</ele>
        <time>2010-01-01T02:17:08Z</time>
      </trkpt>
      <trkpt lat="42.26665" lon="2.28464">
        <ele>1014</ele>
        <time>2010-01-01T02:17:11Z</time>
      </trkpt>
      <trkpt lat="42.26665" lon="2.28467">
        <ele>1015</ele>
        <time>2010-01-01T02:17:12Z</time>
      </trkpt>
      <trkpt lat="42.26667" lon="2.28481">
        <ele>1017</ele>
        <time>2010-01-01T02:17:16Z</time>
      </trkpt>
      <trkpt lat="42.26669" lon="2.28494">
        <ele>1020</ele>
        <time>2010-01-01T02:17:20Z</time>
      </trkpt>
      <trkpt lat="42.26672" lon="2.28506">
        <ele>1021</ele>
        <time>2010-01-01T02:17:24Z</time>
      </trkpt>
      <trkpt lat="42.26675" lon="2.2852">
        <ele>1024</ele>
        <time>2010-01-01T02:17:28Z</time>
      </trkpt>
      <trkpt lat="42.26679" lon="2.28531">
        <ele>1024</ele>
        <time>2010-01-01T02:17:32Z</time>
      </trkpt>
      <trkpt lat="42.26684" lon="2.28543">
        <ele>1023</ele>
        <time>2010-01-01T02:17:36Z</time>
      </trkpt>
      <trkpt lat="42.26684" lon="2.28557">
        <ele>1028</ele>
        <time>2010-01-01T02:17:40Z</time>
      </trkpt>
      <trkpt lat="42.26687" lon="2.2857">
        <ele>1029</ele>
        <time>2010-01-01T02:17:44Z</time>
      </trkpt>
      <trkpt lat="42.26689" lon="2.28572">
        <ele>1028</ele>
        <time>2010-01-01T02:17:45Z</time>
      </trkpt>
      <trkpt lat="42.2669" lon="2.28575">
        <ele>1028</ele>
        <time>2010-01-01T02:17:46Z</time>
      </trkpt>
      <trkpt lat="42.2669" lon="2.28579">
        <ele>1029</ele>
        <time>2010-01-01T02:17:47Z</time>
      </trkpt>
      <trkpt lat="42.26691" lon="2.28582">
        <ele>1029</ele>
        <time>2010-01-01T02:17:48Z</time>
      </trkpt>
      <trkpt lat="42.26692" lon="2.28585">
        <ele>1029</ele>
        <time>2010-01-01T02:17:49Z</time>
      </trkpt>
      <trkpt lat="42.26692" lon="2.28588">
        <ele>1029</ele>
        <time>2010-01-01T02:17:50Z</time>
      </trkpt>
      <trkpt lat="42.26693" lon="2.28592">
        <ele>1028</ele>
        <time>2010-01-01T02:17:51Z</time>
      </trkpt>
      <trkpt lat="42.26694" lon="2.28596">
        <ele>1028</ele>
        <time>2010-01-01T02:17:52Z</time>
      </trkpt>
      <trkpt lat="42.26694" lon="2.28599">
        <ele>1028</ele>
        <time>2010-01-01T02:17:53Z</time>
      </trkpt>
      <trkpt lat="42.26694" lon="2.28603">
        <ele>1028</ele>
        <time>2010-01-01T02:17:54Z</time>
      </trkpt>
      <trkpt lat="42.26694" lon="2.28607">
        <ele>1028</ele>
        <time>2010-01-01T02:17:56Z</time>
      </trkpt>
      <trkpt lat="42.26695" lon="2.28612">
        <ele>1028</ele>
        <time>2010-01-01T02:17:57Z</time>
      </trkpt>
      <trkpt lat="42.26695" lon="2.28616">
        <ele>1028</ele>
        <time>2010-01-01T02:17:58Z</time>
      </trkpt>
      <trkpt lat="42.26695" lon="2.2862">
        <ele>1028</ele>
        <time>2010-01-01T02:17:59Z</time>
      </trkpt>
      <trkpt lat="42.26695" lon="2.28624">
        <ele>1028</ele>
        <time>2010-01-01T02:18:01Z</time>
      </trkpt>
      <trkpt lat="42.26694" lon="2.28628">
        <ele>1028</ele>
        <time>2010-01-01T02:18:02Z</time>
      </trkpt>
      <trkpt lat="42.26693" lon="2.28632">
        <ele>1028</ele>
        <time>2010-01-01T02:18:03Z</time>
      </trkpt>
      <trkpt lat="42.26692" lon="2.28636">
        <ele>1028</ele>
        <time>2010-01-01T02:18:04Z</time>
      </trkpt>
      <trkpt lat="42.26692" lon="2.2864">
        <ele>1029</ele>
        <time>2010-01-01T02:18:05Z</time>
      </trkpt>
      <trkpt lat="42.26692" lon="2.28643">
        <ele>1029</ele>
        <time>2010-01-01T02:18:06Z</time>
      </trkpt>
      <trkpt lat="42.26691" lon="2.28646">
        <ele>1030</ele>
        <time>2010-01-01T02:18:07Z</time>
      </trkpt>
      <trkpt lat="42.26689" lon="2.28649">
        <ele>1031</ele>
        <time>2010-01-01T02:18:08Z</time>
      </trkpt>
      <trkpt lat="42.26687" lon="2.28652">
        <ele>1031</ele>
        <time>2010-01-01T02:18:10Z</time>
      </trkpt>
      <trkpt lat="42.26684" lon="2.28657">
        <ele>1033</ele>
        <time>2010-01-01T02:18:11Z</time>
      </trkpt>
      <trkpt lat="42.26678" lon="2.28666">
        <ele>1035</ele>
        <time>2010-01-01T02:18:15Z</time>
      </trkpt>
      <trkpt lat="42.26675" lon="2.28669">
        <ele>1035</ele>
        <time>2010-01-01T02:18:17Z</time>
      </trkpt>
      <trkpt lat="42.2667" lon="2.2867">
        <ele>1037</ele>
        <time>2010-01-01T02:18:19Z</time>
      </trkpt>
      <trkpt lat="42.26667" lon="2.28669">
        <ele>1037</ele>
        <time>2010-01-01T02:18:20Z</time>
      </trkpt>
      <trkpt lat="42.26664" lon="2.28668">
        <ele>1038</ele>
        <time>2010-01-01T02:18:21Z</time>
      </trkpt>
      <trkpt lat="42.26661" lon="2.28667">
        <ele>1039</ele>
        <time>2010-01-01T02:18:22Z</time>
      </trkpt>
      <trkpt lat="42.26659" lon="2.28665">
        <ele>1040</ele>
        <time>2010-01-01T02:18:23Z</time>
      </trkpt>
      <trkpt lat="42.26657" lon="2.28664">
        <ele>1041</ele>
        <time>2010-01-01T02:18:24Z</time>
      </trkpt>
      <trkpt lat="42.26655" lon="2.28662">
        <ele>1042</ele>
        <time>2010-01-01T02:18:25Z</time>
      </trkpt>
      <trkpt lat="42.26654" lon="2.28659">
        <ele>1042</ele>
        <time>2010-01-01T02:18:26Z</time>
      </trkpt>
      <trkpt lat="42.26652" lon="2.28657">
        <ele>1043</ele>
        <time>2010-01-01T02:18:27Z</time>
      </trkpt>
      <trkpt lat="42.2665" lon="2.28656">
        <ele>1044</ele>
        <time>2010-01-01T02:18:28Z</time>
      </trkpt>
      <trkpt lat="42.26648" lon="2.28655">
        <ele>1045</ele>
        <time>2010-01-01T02:18:29Z</time>
      </trkpt>
      <trkpt lat="42.26646" lon="2.28653">
        <ele>1046</ele>
        <time>2010-01-01T02:18:30Z</time>
      </trkpt>
      <trkpt lat="42.26645" lon="2.28651">
        <ele>1046</ele>
        <time>2010-01-01T02:18:31Z</time>
      </trkpt>
      <trkpt lat="42.26643" lon="2.28649">
        <ele>1047</ele>
        <time>2010-01-01T02:18:32Z</time>
      </trkpt>
      <trkpt lat="42.26642" lon="2.28647">
        <ele>1048</ele>
        <time>2010-01-01T02:18:32Z</time>
      </trkpt>
      <trkpt lat="42.2664" lon="2.28645">
        <ele>1048</ele>
        <time>2010-01-01T02:18:33Z</time>
      </trkpt>
      <trkpt lat="42.26639" lon="2.28643">
        <ele>1049</ele>
        <time>2010-01-01T02:18:34Z</time>
      </trkpt>
      <trkpt lat="42.26638" lon="2.2864">
        <ele>1050</ele>
        <time>2010-01-01T02:18:35Z</time>
      </trkpt>
      <trkpt lat="42.26635" lon="2.28639">
        <ele>1051</ele>
        <time>2010-01-01T02:18:36Z</time>
      </trkpt>
      <trkpt lat="42.26634" lon="2.28636">
        <ele>1052</ele>
        <time>2010-01-01T02:18:37Z</time>
      </trkpt>
      <trkpt lat="42.26634" lon="2.28633">
        <ele>1053</ele>
        <time>2010-01-01T02:18:38Z</time>
      </trkpt>
      <trkpt lat="42.26633" lon="2.2863">
        <ele>1054</ele>
        <time>2010-01-01T02:18:39Z</time>
      </trkpt>
      <trkpt lat="42.26632" lon="2.28628">
        <ele>1055</ele>
        <time>2010-01-01T02:18:40Z</time>
      </trkpt>
      <trkpt lat="42.2663" lon="2.28626">
        <ele>1056</ele>
        <time>2010-01-01T02:18:41Z</time>
      </trkpt>
      <trkpt lat="42.26628" lon="2.28623">
        <ele>1057</ele>
        <time>2010-01-01T02:18:42Z</time>
      </trkpt>
      <trkpt lat="42.26627" lon="2.28621">
        <ele>1058</ele>
        <time>2010-01-01T02:18:42Z</time>
      </trkpt>
      <trkpt lat="42.26627" lon="2.28618">
        <ele>1059</ele>
        <time>2010-01-01T02:18:43Z</time>
      </trkpt>
      <trkpt lat="42.26625" lon="2.28617">
        <ele>1060</ele>
        <time>2010-01-01T02:18:44Z</time>
      </trkpt>
      <trkpt lat="42.26623" lon="2.28616">
        <ele>1060</ele>
        <time>2010-01-01T02:18:45Z</time>
      </trkpt>
      <trkpt lat="42.26622" lon="2.28614">
        <ele>1061</ele>
        <time>2010-01-01T02:18:46Z</time>
      </trkpt>
      <trkpt lat="42.2662" lon="2.28612">
        <ele>1063</ele>
        <time>2010-01-01T02:18:47Z</time>
      </trkpt>
      <trkpt lat="42.26617" lon="2.2861">
        <ele>1064</ele>
        <time>2010-01-01T02:18:48Z</time>
      </trkpt>
      <trkpt lat="42.26616" lon="2.28609">
        <ele>1064</ele>
        <time>2010-01-01T02:18:48Z</time>
      </trkpt>
      <trkpt lat="42.26613" lon="2.28608">
        <ele>1065</ele>
        <time>2010-01-01T02:18:49Z</time>
      </trkpt>
      <trkpt lat="42.26613" lon="2.28606">
        <ele>1065</ele>
        <time>2010-01-01T02:18:50Z</time>
      </trkpt>
      <trkpt lat="42.26611" lon="2.28603">
        <ele>1066</ele>
        <time>2010-01-01T02:18:51Z</time>
      </trkpt>
      <trkpt lat="42.2661" lon="2.286">
        <ele>1066</ele>
        <time>2010-01-01T02:18:52Z</time>
      </trkpt>
      <trkpt lat="42.26609" lon="2.28599">
        <ele>1067</ele>
        <time>2010-01-01T02:18:53Z</time>
      </trkpt>
      <trkpt lat="42.26607" lon="2.28597">
        <ele>1067</ele>
        <time>2010-01-01T02:18:54Z</time>
      </trkpt>
      <trkpt lat="42.26605" lon="2.28597">
        <ele>1068</ele>
        <time>2010-01-01T02:18:54Z</time>
      </trkpt>
      <trkpt lat="42.26603" lon="2.28596">
        <ele>1068</ele>
        <time>2010-01-01T02:18:55Z</time>
      </trkpt>
      <trkpt lat="42.26601" lon="2.28595">
        <ele>1069</ele>
        <time>2010-01-01T02:18:56Z</time>
      </trkpt>
      <trkpt lat="42.26599" lon="2.28595">
        <ele>1069</ele>
        <time>2010-01-01T02:18:57Z</time>
      </trkpt>
      <trkpt lat="42.26596" lon="2.28595">
        <ele>1070</ele>
        <time>2010-01-01T02:18:58Z</time>
      </trkpt>
      <trkpt lat="42.26594" lon="2.28597">
        <ele>1070</ele>
        <time>2010-01-01T02:18:59Z</time>
      </trkpt>
      <trkpt lat="42.26592" lon="2.28594">
        <ele>1071</ele>
        <time>2010-01-01T02:19:00Z</time>
      </trkpt>
      <trkpt lat="42.2659" lon="2.28593">
        <ele>1071</ele>
        <time>2010-01-01T02:19:01Z</time>
      </trkpt>
      <trkpt lat="42.26588" lon="2.28592">
        <ele>1072</ele>
        <time>2010-01-01T02:19:02Z</time>
      </trkpt>
      <trkpt lat="42.26586" lon="2.2859">
        <ele>1072</ele>
        <time>2010-01-01T02:19:03Z</time>
      </trkpt>
      <trkpt lat="42.26584" lon="2.28589">
        <ele>1073</ele>
        <time>2010-01-01T02:19:04Z</time>
      </trkpt>
      <trkpt lat="42.26581" lon="2.28588">
        <ele>1074</ele>
        <time>2010-01-01T02:19:05Z</time>
      </trkpt>
      <trkpt lat="42.2658" lon="2.28587">
        <ele>1074</ele>
        <time>2010-01-01T02:19:05Z</time>
      </trkpt>
      <trkpt lat="42.26578" lon="2.28586">
        <ele>1075</ele>
        <time>2010-01-01T02:19:06Z</time>
      </trkpt>
      <trkpt lat="42.26576" lon="2.28584">
        <ele>1075</ele>
        <time>2010-01-01T02:19:07Z</time>
      </trkpt>
      <trkpt lat="42.26574" lon="2.28583">
        <ele>1076</ele>
        <time>2010-01-01T02:19:08Z</time>
      </trkpt>
      <trkpt lat="42.26572" lon="2.28583">
        <ele>1077</ele>
        <time>2010-01-01T02:19:09Z</time>
      </trkpt>
      <trkpt lat="42.2657" lon="2.28584">
        <ele>1077</ele>
        <time>2010-01-01T02:19:10Z</time>
      </trkpt>
      <trkpt lat="42.26568" lon="2.28585">
        <ele>1078</ele>
        <time>2010-01-01T02:19:10Z</time>
      </trkpt>
      <trkpt lat="42.26566" lon="2.28586">
        <ele>1078</ele>
        <time>2010-01-01T02:19:11Z</time>
      </trkpt>
      <trkpt lat="42.26564" lon="2.28587">
        <ele>1079</ele>
        <time>2010-01-01T02:19:12Z</time>
      </trkpt>
      <trkpt lat="42.26561" lon="2.28587">
        <ele>1079</ele>
        <time>2010-01-01T02:19:13Z</time>
      </trkpt>
      <trkpt lat="42.26558" lon="2.28588">
        <ele>1080</ele>
        <time>2010-01-01T02:19:14Z</time>
      </trkpt>
      <trkpt lat="42.26556" lon="2.28589">
        <ele>1081</ele>
        <time>2010-01-01T02:19:16Z</time>
      </trkpt>
      <trkpt lat="42.26552" lon="2.2859">
        <ele>1082</ele>
        <time>2010-01-01T02:19:17Z</time>
      </trkpt>
      <trkpt lat="42.26548" lon="2.28591">
        <ele>1084</ele>
        <time>2010-01-01T02:19:19Z</time>
      </trkpt>
      <trkpt lat="42.26544" lon="2.28593">
        <ele>1086</ele>
        <time>2010-01-01T02:19:20Z</time>
      </trkpt>
      <trkpt lat="42.26536" lon="2.286">
        <ele>1089</ele>
        <time>2010-01-01T02:19:24Z</time>
      </trkpt>
      <trkpt lat="42.26527" lon="2.28607">
        <ele>1091</ele>
        <time>2010-01-01T02:19:28Z</time>
      </trkpt>
      <trkpt lat="42.26523" lon="2.28611">
        <ele>1093</ele>
        <time>2010-01-01T02:19:30Z</time>
      </trkpt>
      <trkpt lat="42.2652" lon="2.28613">
        <ele>1094</ele>
        <time>2010-01-01T02:19:32Z</time>
      </trkpt>
      <trkpt lat="42.26517" lon="2.28615">
        <ele>1095</ele>
        <time>2010-01-01T02:19:33Z</time>
      </trkpt>
      <trkpt lat="42.26509" lon="2.28623">
        <ele>1099</ele>
        <time>2010-01-01T02:19:37Z</time>
      </trkpt>
      <trkpt lat="42.26501" lon="2.2863">
        <ele>1102</ele>
        <time>2010-01-01T02:19:41Z</time>
      </trkpt>
      <trkpt lat="42.26491" lon="2.28634">
        <ele>1104</ele>
        <time>2010-01-01T02:19:45Z</time>
      </trkpt>
      <trkpt lat="42.26485" lon="2.28645">
        <ele>1104</ele>
        <time>2010-01-01T02:19:49Z</time>
      </trkpt>
      <trkpt lat="42.26485" lon="2.28658">
        <ele>1101</ele>
        <time>2010-01-01T02:19:53Z</time>
      </trkpt>
      <trkpt lat="42.26482" lon="2.28663">
        <ele>1102</ele>
        <time>2010-01-01T02:19:55Z</time>
      </trkpt>
      <trkpt lat="42.26481" lon="2.28666">
        <ele>1102</ele>
        <time>2010-01-01T02:19:56Z</time>
      </trkpt>
      <trkpt lat="42.2648" lon="2.28668">
        <ele>1102</ele>
        <time>2010-01-01T02:19:57Z</time>
      </trkpt>
      <trkpt lat="42.26479" lon="2.2867">
        <ele>1102</ele>
        <time>2010-01-01T02:19:57Z</time>
      </trkpt>
      <trkpt lat="42.26478" lon="2.28672">
        <ele>1103</ele>
        <time>2010-01-01T02:19:58Z</time>
      </trkpt>
      <trkpt lat="42.26477" lon="2.28675">
        <ele>1103</ele>
        <time>2010-01-01T02:19:59Z</time>
      </trkpt>
      <trkpt lat="42.26476" lon="2.28677">
        <ele>1103</ele>
        <time>2010-01-01T02:20:00Z</time>
      </trkpt>
      <trkpt lat="42.26475" lon="2.2868">
        <ele>1103</ele>
        <time>2010-01-01T02:20:01Z</time>
      </trkpt>
      <trkpt lat="42.26475" lon="2.28684">
        <ele>1103</ele>
        <time>2010-01-01T02:20:02Z</time>
      </trkpt>
      <trkpt lat="42.26477" lon="2.28685">
        <ele>1102</ele>
        <time>2010-01-01T02:20:02Z</time>
      </trkpt>
      <trkpt lat="42.26478" lon="2.28688">
        <ele>1101</ele>
        <time>2010-01-01T02:20:03Z</time>
      </trkpt>
      <trkpt lat="42.26476" lon="2.28691">
        <ele>1101</ele>
        <time>2010-01-01T02:20:04Z</time>
      </trkpt>
      <trkpt lat="42.26475" lon="2.28694">
        <ele>1102</ele>
        <time>2010-01-01T02:20:05Z</time>
      </trkpt>
      <trkpt lat="42.26473" lon="2.28696">
        <ele>1103</ele>
        <time>2010-01-01T02:20:07Z</time>
      </trkpt>
      <trkpt lat="42.26471" lon="2.287">
        <ele>1104</ele>
        <time>2010-01-01T02:20:08Z</time>
      </trkpt>
      <trkpt lat="42.26471" lon="2.28703">
        <ele>1104</ele>
        <time>2010-01-01T02:20:09Z</time>
      </trkpt>
      <trkpt lat="42.26473" lon="2.28705">
        <ele>1103</ele>
        <time>2010-01-01T02:20:10Z</time>
      </trkpt>
      <trkpt lat="42.26475" lon="2.28706">
        <ele>1102</ele>
        <time>2010-01-01T02:20:11Z</time>
      </trkpt>
      <trkpt lat="42.26476" lon="2.2871">
        <ele>1101</ele>
        <time>2010-01-01T02:20:12Z</time>
      </trkpt>
      <trkpt lat="42.26477" lon="2.28715">
        <ele>1101</ele>
        <time>2010-01-01T02:20:13Z</time>
      </trkpt>
      <trkpt lat="42.26478" lon="2.28721">
        <ele>1100</ele>
        <time>2010-01-01T02:20:15Z</time>
      </trkpt>
      <trkpt lat="42.26479" lon="2.28726">
        <ele>1100</ele>
        <time>2010-01-01T02:20:17Z</time>
      </trkpt>
      <trkpt lat="42.2648" lon="2.28732">
        <ele>1099</ele>
        <time>2010-01-01T02:20:19Z</time>
      </trkpt>
      <trkpt lat="42.26478" lon="2.28738">
        <ele>1099</ele>
        <time>2010-01-01T02:20:20Z</time>
      </trkpt>
      <trkpt lat="42.26476" lon="2.28743">
        <ele>1100</ele>
        <time>2010-01-01T02:20:22Z</time>
      </trkpt>
      <trkpt lat="42.26474" lon="2.28749">
        <ele>1101</ele>
        <time>2010-01-01T02:20:24Z</time>
      </trkpt>
      <trkpt lat="42.26473" lon="2.28753">
        <ele>1102</ele>
        <time>2010-01-01T02:20:25Z</time>
      </trkpt>
      <trkpt lat="42.26471" lon="2.28756">
        <ele>1103</ele>
        <time>2010-01-01T02:20:26Z</time>
      </trkpt>
      <trkpt lat="42.2647" lon="2.28759">
        <ele>1103</ele>
        <time>2010-01-01T02:20:28Z</time>
      </trkpt>
      <trkpt lat="42.26469" lon="2.28763">
        <ele>1104</ele>
        <time>2010-01-01T02:20:29Z</time>
      </trkpt>
      <trkpt lat="42.26468" lon="2.28768">
        <ele>1104</ele>
        <time>2010-01-01T02:20:30Z</time>
      </trkpt>
      <trkpt lat="42.26467" lon="2.28772">
        <ele>1104</ele>
        <time>2010-01-01T02:20:31Z</time>
      </trkpt>
      <trkpt lat="42.26466" lon="2.28775">
        <ele>1104</ele>
        <time>2010-01-01T02:20:33Z</time>
      </trkpt>
      <trkpt lat="42.26465" lon="2.28779">
        <ele>1105</ele>
        <time>2010-01-01T02:20:34Z</time>
      </trkpt>
      <trkpt lat="42.26462" lon="2.28782">
        <ele>1105</ele>
        <time>2010-01-01T02:20:35Z</time>
      </trkpt>
      <trkpt lat="42.26461" lon="2.28785">
        <ele>1105</ele>
        <time>2010-01-01T02:20:36Z</time>
      </trkpt>
      <trkpt lat="42.26459" lon="2.28788">
        <ele>1105</ele>
        <time>2010-01-01T02:20:38Z</time>
      </trkpt>
      <trkpt lat="42.26456" lon="2.28792">
        <ele>1105</ele>
        <time>2010-01-01T02:20:39Z</time>
      </trkpt>
      <trkpt lat="42.26454" lon="2.28795">
        <ele>1105</ele>
        <time>2010-01-01T02:20:40Z</time>
      </trkpt>
      <trkpt lat="42.26452" lon="2.28799">
        <ele>1106</ele>
        <time>2010-01-01T02:20:42Z</time>
      </trkpt>
      <trkpt lat="42.26449" lon="2.28801">
        <ele>1106</ele>
        <time>2010-01-01T02:20:43Z</time>
      </trkpt>
      <trkpt lat="42.26446" lon="2.28803">
        <ele>1107</ele>
        <time>2010-01-01T02:20:44Z</time>
      </trkpt>
      <trkpt lat="42.26441" lon="2.28803">
        <ele>1107</ele>
        <time>2010-01-01T02:20:46Z</time>
      </trkpt>
      <trkpt lat="42.26438" lon="2.28804">
        <ele>1107</ele>
        <time>2010-01-01T02:20:47Z</time>
      </trkpt>
      <trkpt lat="42.26436" lon="2.28807">
        <ele>1107</ele>
        <time>2010-01-01T02:20:49Z</time>
      </trkpt>
      <trkpt lat="42.26432" lon="2.2881">
        <ele>1107</ele>
        <time>2010-01-01T02:20:51Z</time>
      </trkpt>
      <trkpt lat="42.26429" lon="2.28814">
        <ele>1107</ele>
        <time>2010-01-01T02:20:52Z</time>
      </trkpt>
      <trkpt lat="42.26426" lon="2.28818">
        <ele>1108</ele>
        <time>2010-01-01T02:20:54Z</time>
      </trkpt>
      <trkpt lat="42.26424" lon="2.28821">
        <ele>1108</ele>
        <time>2010-01-01T02:20:55Z</time>
      </trkpt>
      <trkpt lat="42.26422" lon="2.28823">
        <ele>1108</ele>
        <time>2010-01-01T02:20:56Z</time>
      </trkpt>
      <trkpt lat="42.26419" lon="2.28824">
        <ele>1108</ele>
        <time>2010-01-01T02:20:57Z</time>
      </trkpt>
      <trkpt lat="42.26416" lon="2.28824">
        <ele>1108</ele>
        <time>2010-01-01T02:20:58Z</time>
      </trkpt>
      <trkpt lat="42.26414" lon="2.28824">
        <ele>1108</ele>
        <time>2010-01-01T02:20:59Z</time>
      </trkpt>
      <trkpt lat="42.26411" lon="2.28824">
        <ele>1108</ele>
        <time>2010-01-01T02:21:01Z</time>
      </trkpt>
      <trkpt lat="42.26408" lon="2.28826">
        <ele>1108</ele>
        <time>2010-01-01T02:21:02Z</time>
      </trkpt>
      <trkpt lat="42.26406" lon="2.28828">
        <ele>1108</ele>
        <time>2010-01-01T02:21:03Z</time>
      </trkpt>
      <trkpt lat="42.26404" lon="2.2883">
        <ele>1108</ele>
        <time>2010-01-01T02:21:04Z</time>
      </trkpt>
      <trkpt lat="42.26402" lon="2.28832">
        <ele>1108</ele>
        <time>2010-01-01T02:21:05Z</time>
      </trkpt>
      <trkpt lat="42.26399" lon="2.28833">
        <ele>1108</ele>
        <time>2010-01-01T02:21:06Z</time>
      </trkpt>
      <trkpt lat="42.26396" lon="2.28835">
        <ele>1108</ele>
        <time>2010-01-01T02:21:07Z</time>
      </trkpt>
      <trkpt lat="42.26392" lon="2.28837">
        <ele>1108</ele>
        <time>2010-01-01T02:21:09Z</time>
      </trkpt>
      <trkpt lat="42.26387" lon="2.2884">
        <ele>1108</ele>
        <time>2010-01-01T02:21:11Z</time>
      </trkpt>
      <trkpt lat="42.26383" lon="2.28841">
        <ele>1108</ele>
        <time>2010-01-01T02:21:13Z</time>
      </trkpt>
      <trkpt lat="42.26378" lon="2.28842">
        <ele>1107</ele>
        <time>2010-01-01T02:21:15Z</time>
      </trkpt>
      <trkpt lat="42.26374" lon="2.28842">
        <ele>1107</ele>
        <time>2010-01-01T02:21:16Z</time>
      </trkpt>
      <trkpt lat="42.2637" lon="2.28842">
        <ele>1106</ele>
        <time>2010-01-01T02:21:18Z</time>
      </trkpt>
      <trkpt lat="42.26368" lon="2.28844">
        <ele>1106</ele>
        <time>2010-01-01T02:21:19Z</time>
      </trkpt>
      <trkpt lat="42.26366" lon="2.28845">
        <ele>1106</ele>
        <time>2010-01-01T02:21:20Z</time>
      </trkpt>
      <trkpt lat="42.26364" lon="2.28845">
        <ele>1106</ele>
        <time>2010-01-01T02:21:21Z</time>
      </trkpt>
      <trkpt lat="42.26362" lon="2.28844">
        <ele>1105</ele>
        <time>2010-01-01T02:21:21Z</time>
      </trkpt>
      <trkpt lat="42.26361" lon="2.28847">
        <ele>1105</ele>
        <time>2010-01-01T02:21:23Z</time>
      </trkpt>
      <trkpt lat="42.26362" lon="2.28845">
        <ele>1105</ele>
        <time>2010-01-01T02:21:23Z</time>
      </trkpt>
      <trkpt lat="42.2636" lon="2.28842">
        <ele>1104</ele>
        <time>2010-01-01T02:21:24Z</time>
      </trkpt>
      <trkpt lat="42.26358" lon="2.28841">
        <ele>1104</ele>
        <time>2010-01-01T02:21:25Z</time>
      </trkpt>
      <trkpt lat="42.26355" lon="2.2884">
        <ele>1103</ele>
        <time>2010-01-01T02:21:26Z</time>
      </trkpt>
      <trkpt lat="42.26351" lon="2.28838">
        <ele>1102</ele>
        <time>2010-01-01T02:21:28Z</time>
      </trkpt>
      <trkpt lat="42.26347" lon="2.28837">
        <ele>1101</ele>
        <time>2010-01-01T02:21:30Z</time>
      </trkpt>
      <trkpt lat="42.26343" lon="2.2884">
        <ele>1101</ele>
        <time>2010-01-01T02:21:32Z</time>
      </trkpt>
      <trkpt lat="42.26338" lon="2.28845">
        <ele>1102</ele>
        <time>2010-01-01T02:21:34Z</time>
      </trkpt>
      <trkpt lat="42.26335" lon="2.28848">
        <ele>1102</ele>
        <time>2010-01-01T02:21:35Z</time>
      </trkpt>
      <trkpt lat="42.26331" lon="2.28853">
        <ele>1102</ele>
        <time>2010-01-01T02:21:38Z</time>
      </trkpt>
      <trkpt lat="42.26328" lon="2.28855">
        <ele>1102</ele>
        <time>2010-01-01T02:21:39Z</time>
      </trkpt>
      <trkpt lat="42.26325" lon="2.28858">
        <ele>1102</ele>
        <time>2010-01-01T02:21:40Z</time>
      </trkpt>
      <trkpt lat="42.26322" lon="2.28861">
        <ele>1102</ele>
        <time>2010-01-01T02:21:42Z</time>
      </trkpt>
      <trkpt lat="42.26319" lon="2.28864">
        <ele>1102</ele>
        <time>2010-01-01T02:21:44Z</time>
      </trkpt>
      <trkpt lat="42.26316" lon="2.28868">
        <ele>1103</ele>
        <time>2010-01-01T02:21:45Z</time>
      </trkpt>
      <trkpt lat="42.26313" lon="2.28873">
        <ele>1104</ele>
        <time>2010-01-01T02:21:47Z</time>
      </trkpt>
      <trkpt lat="42.2631" lon="2.28877">
        <ele>1105</ele>
        <time>2010-01-01T02:21:49Z</time>
      </trkpt>
      <trkpt lat="42.26312" lon="2.28875">
        <ele>1105</ele>
        <time>2010-01-01T02:21:50Z</time>
      </trkpt>
      <trkpt lat="42.26314" lon="2.28875">
        <ele>1105</ele>
        <time>2010-01-01T02:21:50Z</time>
      </trkpt>
      <trkpt lat="42.26315" lon="2.28874">
        <ele>1105</ele>
        <time>2010-01-01T02:21:51Z</time>
      </trkpt>
      <trkpt lat="42.26317" lon="2.28873">
        <ele>1105</ele>
        <time>2010-01-01T02:21:52Z</time>
      </trkpt>
      <trkpt lat="42.26319" lon="2.28871">
        <ele>1105</ele>
        <time>2010-01-01T02:21:53Z</time>
      </trkpt>
      <trkpt lat="42.26321" lon="2.2887">
        <ele>1105</ele>
        <time>2010-01-01T02:21:54Z</time>
      </trkpt>
      <trkpt lat="42.26323" lon="2.2887">
        <ele>1106</ele>
        <time>2010-01-01T02:21:55Z</time>
      </trkpt>
      <trkpt lat="42.26325" lon="2.28869">
        <ele>1106</ele>
        <time>2010-01-01T02:21:56Z</time>
      </trkpt>
      <trkpt lat="42.26328" lon="2.28868">
        <ele>1106</ele>
        <time>2010-01-01T02:21:56Z</time>
      </trkpt>
      <trkpt lat="42.26329" lon="2.28867">
        <ele>1106</ele>
        <time>2010-01-01T02:21:57Z</time>
      </trkpt>
      <trkpt lat="42.26331" lon="2.28866">
        <ele>1106</ele>
        <time>2010-01-01T02:21:58Z</time>
      </trkpt>
      <trkpt lat="42.26334" lon="2.28867">
        <ele>1107</ele>
        <time>2010-01-01T02:21:59Z</time>
      </trkpt>
      <trkpt lat="42.26332" lon="2.2887">
        <ele>1108</ele>
        <time>2010-01-01T02:22:00Z</time>
      </trkpt>
      <trkpt lat="42.2633" lon="2.2887">
        <ele>1107</ele>
        <time>2010-01-01T02:22:01Z</time>
      </trkpt>
      <trkpt lat="42.26326" lon="2.28871">
        <ele>1107</ele>
        <time>2010-01-01T02:22:02Z</time>
      </trkpt>
      <trkpt lat="42.26324" lon="2.28872">
        <ele>1107</ele>
        <time>2010-01-01T02:22:04Z</time>
      </trkpt>
      <trkpt lat="42.2632" lon="2.28877">
        <ele>1108</ele>
        <time>2010-01-01T02:22:06Z</time>
      </trkpt>
      <trkpt lat="42.26318" lon="2.28879">
        <ele>1108</ele>
        <time>2010-01-01T02:22:07Z</time>
      </trkpt>
      <trkpt lat="42.26317" lon="2.28882">
        <ele>1109</ele>
        <time>2010-01-01T02:22:07Z</time>
      </trkpt>
      <trkpt lat="42.26316" lon="2.28883">
        <ele>1109</ele>
        <time>2010-01-01T02:22:08Z</time>
      </trkpt>
      <trkpt lat="42.26314" lon="2.28886">
        <ele>1110</ele>
        <time>2010-01-01T02:22:09Z</time>
      </trkpt>
      <trkpt lat="42.26313" lon="2.28887">
        <ele>1110</ele>
        <time>2010-01-01T02:22:10Z</time>
      </trkpt>
      <trkpt lat="42.26309" lon="2.2889">
        <ele>1110</ele>
        <time>2010-01-01T02:22:11Z</time>
      </trkpt>
      <trkpt lat="42.26307" lon="2.28892">
        <ele>1110</ele>
        <time>2010-01-01T02:22:12Z</time>
      </trkpt>
      <trkpt lat="42.26306" lon="2.28894">
        <ele>1111</ele>
        <time>2010-01-01T02:22:13Z</time>
      </trkpt>
      <trkpt lat="42.26304" lon="2.28896">
        <ele>1111</ele>
        <time>2010-01-01T02:22:14Z</time>
      </trkpt>
      <trkpt lat="42.26302" lon="2.28899">
        <ele>1111</ele>
        <time>2010-01-01T02:22:15Z</time>
      </trkpt>
      <trkpt lat="42.26301" lon="2.28901">
        <ele>1112</ele>
        <time>2010-01-01T02:22:16Z</time>
      </trkpt>
      <trkpt lat="42.263" lon="2.28905">
        <ele>1113</ele>
        <time>2010-01-01T02:22:17Z</time>
      </trkpt>
      <trkpt lat="42.26299" lon="2.28908">
        <ele>1114</ele>
        <time>2010-01-01T02:22:18Z</time>
      </trkpt>
      <trkpt lat="42.263" lon="2.28911">
        <ele>1116</ele>
        <time>2010-01-01T02:22:19Z</time>
      </trkpt>
      <trkpt lat="42.263" lon="2.28913">
        <ele>1117</ele>
        <time>2010-01-01T02:22:20Z</time>
      </trkpt>
      <trkpt lat="42.26299" lon="2.28916">
        <ele>1118</ele>
        <time>2010-01-01T02:22:21Z</time>
      </trkpt>
      <trkpt lat="42.263" lon="2.28919">
        <ele>1119</ele>
        <time>2010-01-01T02:22:22Z</time>
      </trkpt>
      <trkpt lat="42.263" lon="2.28921">
        <ele>1121</ele>
        <time>2010-01-01T02:22:22Z</time>
      </trkpt>
      <trkpt lat="42.26301" lon="2.28923">
        <ele>1122</ele>
        <time>2010-01-01T02:22:23Z</time>
      </trkpt>
      <trkpt lat="42.26303" lon="2.28924">
        <ele>1123</ele>
        <time>2010-01-01T02:22:24Z</time>
      </trkpt>
      <trkpt lat="42.26305" lon="2.28924">
        <ele>1124</ele>
        <time>2010-01-01T02:22:25Z</time>
      </trkpt>
      <trkpt lat="42.26307" lon="2.28925">
        <ele>1125</ele>
        <time>2010-01-01T02:22:26Z</time>
      </trkpt>
      <trkpt lat="42.26308" lon="2.28938">
        <ele>1132</ele>
        <time>2010-01-01T02:22:30Z</time>
      </trkpt>
      <trkpt lat="42.26305" lon="2.2895">
        <ele>1136</ele>
        <time>2010-01-01T02:22:33Z</time>
      </trkpt>
      <trkpt lat="42.26305" lon="2.28955">
        <ele>1137</ele>
        <time>2010-01-01T02:22:35Z</time>
      </trkpt>
      <trkpt lat="42.26306" lon="2.2896">
        <ele>1140</ele>
        <time>2010-01-01T02:22:36Z</time>
      </trkpt>
      <trkpt lat="42.26306" lon="2.28963">
        <ele>1141</ele>
        <time>2010-01-01T02:22:37Z</time>
      </trkpt>
      <trkpt lat="42.26306" lon="2.28966">
        <ele>1142</ele>
        <time>2010-01-01T02:22:38Z</time>
      </trkpt>
      <trkpt lat="42.26306" lon="2.28971">
        <ele>1143</ele>
        <time>2010-01-01T02:22:40Z</time>
      </trkpt>
      <trkpt lat="42.26305" lon="2.28984">
        <ele>1146</ele>
        <time>2010-01-01T02:22:43Z</time>
      </trkpt>
      <trkpt lat="42.26306" lon="2.28987">
        <ele>1147</ele>
        <time>2010-01-01T02:22:45Z</time>
      </trkpt>
      <trkpt lat="42.26297" lon="2.28987">
        <ele>1143</ele>
        <time>2010-01-01T02:22:48Z</time>
      </trkpt>
      <trkpt lat="42.26293" lon="2.28991">
        <ele>1142</ele>
        <time>2010-01-01T02:22:50Z</time>
      </trkpt>
      <trkpt lat="42.26292" lon="2.28989">
        <ele>1141</ele>
        <time>2010-01-01T02:22:51Z</time>
      </trkpt>
      <trkpt lat="42.26294" lon="2.2899">
        <ele>1142</ele>
        <time>2010-01-01T02:22:52Z</time>
      </trkpt>
      <trkpt lat="42.26296" lon="2.28992">
        <ele>1144</ele>
        <time>2010-01-01T02:22:53Z</time>
      </trkpt>
      <trkpt lat="42.26297" lon="2.28994">
        <ele>1145</ele>
        <time>2010-01-01T02:22:54Z</time>
      </trkpt>
      <trkpt lat="42.26301" lon="2.29002">
        <ele>1149</ele>
        <time>2010-01-01T02:22:57Z</time>
      </trkpt>
      <trkpt lat="42.26302" lon="2.29004">
        <ele>1150</ele>
        <time>2010-01-01T02:22:57Z</time>
      </trkpt>
      <trkpt lat="42.26304" lon="2.29004">
        <ele>1151</ele>
        <time>2010-01-01T02:22:58Z</time>
      </trkpt>
      <trkpt lat="42.26305" lon="2.29006">
        <ele>1152</ele>
        <time>2010-01-01T02:22:59Z</time>
      </trkpt>
      <trkpt lat="42.26307" lon="2.29015">
        <ele>1156</ele>
        <time>2010-01-01T02:23:02Z</time>
      </trkpt>
      <trkpt lat="42.26306" lon="2.2902">
        <ele>1157</ele>
        <time>2010-01-01T02:23:04Z</time>
      </trkpt>
      <trkpt lat="42.26304" lon="2.29022">
        <ele>1157</ele>
        <time>2010-01-01T02:23:05Z</time>
      </trkpt>
      <trkpt lat="42.26302" lon="2.29023">
        <ele>1156</ele>
        <time>2010-01-01T02:23:05Z</time>
      </trkpt>
      <trkpt lat="42.26299" lon="2.29024">
        <ele>1156</ele>
        <time>2010-01-01T02:23:06Z</time>
      </trkpt>
      <trkpt lat="42.26298" lon="2.29026">
        <ele>1156</ele>
        <time>2010-01-01T02:23:07Z</time>
      </trkpt>
      <trkpt lat="42.26296" lon="2.29028">
        <ele>1156</ele>
        <time>2010-01-01T02:23:08Z</time>
      </trkpt>
      <trkpt lat="42.26295" lon="2.29031">
        <ele>1156</ele>
        <time>2010-01-01T02:23:09Z</time>
      </trkpt>
      <trkpt lat="42.26297" lon="2.29031">
        <ele>1157</ele>
        <time>2010-01-01T02:23:10Z</time>
      </trkpt>
      <trkpt lat="42.26297" lon="2.29034">
        <ele>1158</ele>
        <time>2010-01-01T02:23:11Z</time>
      </trkpt>
      <trkpt lat="42.26296" lon="2.29037">
        <ele>1159</ele>
        <time>2010-01-01T02:23:12Z</time>
      </trkpt>
      <trkpt lat="42.26295" lon="2.29039">
        <ele>1160</ele>
        <time>2010-01-01T02:23:13Z</time>
      </trkpt>
      <trkpt lat="42.26294" lon="2.29042">
        <ele>1160</ele>
        <time>2010-01-01T02:23:14Z</time>
      </trkpt>
      <trkpt lat="42.26291" lon="2.29044">
        <ele>1160</ele>
        <time>2010-01-01T02:23:15Z</time>
      </trkpt>
      <trkpt lat="42.2629" lon="2.29046">
        <ele>1160</ele>
        <time>2010-01-01T02:23:16Z</time>
      </trkpt>
      <trkpt lat="42.26288" lon="2.29047">
        <ele>1160</ele>
        <time>2010-01-01T02:23:16Z</time>
      </trkpt>
      <trkpt lat="42.26287" lon="2.2905">
        <ele>1161</ele>
        <time>2010-01-01T02:23:17Z</time>
      </trkpt>
      <trkpt lat="42.26285" lon="2.29051">
        <ele>1160</ele>
        <time>2010-01-01T02:23:18Z</time>
      </trkpt>
      <trkpt lat="42.26284" lon="2.29054">
        <ele>1161</ele>
        <time>2010-01-01T02:23:19Z</time>
      </trkpt>
      <trkpt lat="42.26282" lon="2.29056">
        <ele>1161</ele>
        <time>2010-01-01T02:23:20Z</time>
      </trkpt>
      <trkpt lat="42.26281" lon="2.29058">
        <ele>1161</ele>
        <time>2010-01-01T02:23:21Z</time>
      </trkpt>
      <trkpt lat="42.26281" lon="2.29061">
        <ele>1162</ele>
        <time>2010-01-01T02:23:22Z</time>
      </trkpt>
      <trkpt lat="42.26281" lon="2.29064">
        <ele>1163</ele>
        <time>2010-01-01T02:23:23Z</time>
      </trkpt>
      <trkpt lat="42.26281" lon="2.29066">
        <ele>1163</ele>
        <time>2010-01-01T02:23:23Z</time>
      </trkpt>
      <trkpt lat="42.2628" lon="2.2907">
        <ele>1163</ele>
        <time>2010-01-01T02:23:24Z</time>
      </trkpt>
      <trkpt lat="42.26279" lon="2.29073">
        <ele>1164</ele>
        <time>2010-01-01T02:23:25Z</time>
      </trkpt>
      <trkpt lat="42.2628" lon="2.29076">
        <ele>1165</ele>
        <time>2010-01-01T02:23:26Z</time>
      </trkpt>
      <trkpt lat="42.26279" lon="2.29079">
        <ele>1165</ele>
        <time>2010-01-01T02:23:27Z</time>
      </trkpt>
      <trkpt lat="42.26279" lon="2.29081">
        <ele>1166</ele>
        <time>2010-01-01T02:23:28Z</time>
      </trkpt>
      <trkpt lat="42.26279" lon="2.29084">
        <ele>1166</ele>
        <time>2010-01-01T02:23:29Z</time>
      </trkpt>
      <trkpt lat="42.2628" lon="2.29087">
        <ele>1167</ele>
        <time>2010-01-01T02:23:30Z</time>
      </trkpt>
      <trkpt lat="42.2628" lon="2.2909">
        <ele>1168</ele>
        <time>2010-01-01T02:23:31Z</time>
      </trkpt>
      <trkpt lat="42.26281" lon="2.29093">
        <ele>1169</ele>
        <time>2010-01-01T02:23:32Z</time>
      </trkpt>
      <trkpt lat="42.26282" lon="2.29096">
        <ele>1169</ele>
        <time>2010-01-01T02:23:33Z</time>
      </trkpt>
      <trkpt lat="42.26282" lon="2.29099">
        <ele>1170</ele>
        <time>2010-01-01T02:23:33Z</time>
      </trkpt>
      <trkpt lat="42.26281" lon="2.29102">
        <ele>1170</ele>
        <time>2010-01-01T02:23:34Z</time>
      </trkpt>
      <trkpt lat="42.26282" lon="2.29105">
        <ele>1171</ele>
        <time>2010-01-01T02:23:35Z</time>
      </trkpt>
      <trkpt lat="42.26284" lon="2.29107">
        <ele>1173</ele>
        <time>2010-01-01T02:23:36Z</time>
      </trkpt>
      <trkpt lat="42.26286" lon="2.2911">
        <ele>1174</ele>
        <time>2010-01-01T02:23:37Z</time>
      </trkpt>
      <trkpt lat="42.26288" lon="2.29112">
        <ele>1175</ele>
        <time>2010-01-01T02:23:38Z</time>
      </trkpt>
      <trkpt lat="42.2629" lon="2.29114">
        <ele>1176</ele>
        <time>2010-01-01T02:23:39Z</time>
      </trkpt>
      <trkpt lat="42.26292" lon="2.29115">
        <ele>1177</ele>
        <time>2010-01-01T02:23:40Z</time>
      </trkpt>
      <trkpt lat="42.26295" lon="2.29116">
        <ele>1179</ele>
        <time>2010-01-01T02:23:41Z</time>
      </trkpt>
      <trkpt lat="42.26297" lon="2.29117">
        <ele>1180</ele>
        <time>2010-01-01T02:23:42Z</time>
      </trkpt>
      <trkpt lat="42.26299" lon="2.29119">
        <ele>1182</ele>
        <time>2010-01-01T02:23:43Z</time>
      </trkpt>
      <trkpt lat="42.26301" lon="2.29121">
        <ele>1183</ele>
        <time>2010-01-01T02:23:44Z</time>
      </trkpt>
      <trkpt lat="42.26302" lon="2.29124">
        <ele>1184</ele>
        <time>2010-01-01T02:23:45Z</time>
      </trkpt>
      <trkpt lat="42.26304" lon="2.29127">
        <ele>1185</ele>
        <time>2010-01-01T02:23:46Z</time>
      </trkpt>
      <trkpt lat="42.26306" lon="2.29129">
        <ele>1186</ele>
        <time>2010-01-01T02:23:47Z</time>
      </trkpt>
      <trkpt lat="42.26308" lon="2.2913">
        <ele>1187</ele>
        <time>2010-01-01T02:23:48Z</time>
      </trkpt>
      <trkpt lat="42.26311" lon="2.29131">
        <ele>1187</ele>
        <time>2010-01-01T02:23:49Z</time>
      </trkpt>
      <trkpt lat="42.26313" lon="2.29132">
        <ele>1188</ele>
        <time>2010-01-01T02:23:50Z</time>
      </trkpt>
      <trkpt lat="42.26315" lon="2.29133">
        <ele>1188</ele>
        <time>2010-01-01T02:23:51Z</time>
      </trkpt>
      <trkpt lat="42.26317" lon="2.29135">
        <ele>1189</ele>
        <time>2010-01-01T02:23:52Z</time>
      </trkpt>
      <trkpt lat="42.2632" lon="2.29136">
        <ele>1189</ele>
        <time>2010-01-01T02:23:53Z</time>
      </trkpt>
      <trkpt lat="42.26322" lon="2.29137">
        <ele>1190</ele>
        <time>2010-01-01T02:23:54Z</time>
      </trkpt>
      <trkpt lat="42.26324" lon="2.29139">
        <ele>1190</ele>
        <time>2010-01-01T02:23:55Z</time>
      </trkpt>
      <trkpt lat="42.26326" lon="2.29141">
        <ele>1191</ele>
        <time>2010-01-01T02:23:56Z</time>
      </trkpt>
      <trkpt lat="42.26328" lon="2.29143">
        <ele>1191</ele>
        <time>2010-01-01T02:23:57Z</time>
      </trkpt>
      <trkpt lat="42.2633" lon="2.29144">
        <ele>1192</ele>
        <time>2010-01-01T02:23:58Z</time>
      </trkpt>
      <trkpt lat="42.26333" lon="2.29145">
        <ele>1192</ele>
        <time>2010-01-01T02:23:59Z</time>
      </trkpt>
      <trkpt lat="42.26335" lon="2.29147">
        <ele>1192</ele>
        <time>2010-01-01T02:24:00Z</time>
      </trkpt>
      <trkpt lat="42.26337" lon="2.29146">
        <ele>1192</ele>
        <time>2010-01-01T02:24:01Z</time>
      </trkpt>
      <trkpt lat="42.26339" lon="2.29146">
        <ele>1192</ele>
        <time>2010-01-01T02:24:02Z</time>
      </trkpt>
      <trkpt lat="42.26341" lon="2.29146">
        <ele>1192</ele>
        <time>2010-01-01T02:24:03Z</time>
      </trkpt>
      <trkpt lat="42.26343" lon="2.29147">
        <ele>1192</ele>
        <time>2010-01-01T02:24:03Z</time>
      </trkpt>
      <trkpt lat="42.26345" lon="2.29148">
        <ele>1193</ele>
        <time>2010-01-01T02:24:04Z</time>
      </trkpt>
      <trkpt lat="42.26346" lon="2.29149">
        <ele>1193</ele>
        <time>2010-01-01T02:24:05Z</time>
      </trkpt>
      <trkpt lat="42.26348" lon="2.2915">
        <ele>1193</ele>
        <time>2010-01-01T02:24:06Z</time>
      </trkpt>
      <trkpt lat="42.26351" lon="2.2915">
        <ele>1193</ele>
        <time>2010-01-01T02:24:07Z</time>
      </trkpt>
      <trkpt lat="42.26353" lon="2.29148">
        <ele>1192</ele>
        <time>2010-01-01T02:24:08Z</time>
      </trkpt>
      <trkpt lat="42.26354" lon="2.29149">
        <ele>1193</ele>
        <time>2010-01-01T02:24:09Z</time>
      </trkpt>
      <trkpt lat="42.26357" lon="2.29152">
        <ele>1193</ele>
        <time>2010-01-01T02:24:10Z</time>
      </trkpt>
      <trkpt lat="42.26361" lon="2.29155">
        <ele>1193</ele>
        <time>2010-01-01T02:24:12Z</time>
      </trkpt>
      <trkpt lat="42.26365" lon="2.29159">
        <ele>1193</ele>
        <time>2010-01-01T02:24:14Z</time>
      </trkpt>
      <trkpt lat="42.26368" lon="2.29164">
        <ele>1193</ele>
        <time>2010-01-01T02:24:16Z</time>
      </trkpt>
      <trkpt lat="42.2637" lon="2.29168">
        <ele>1193</ele>
        <time>2010-01-01T02:24:17Z</time>
      </trkpt>
      <trkpt lat="42.26371" lon="2.29173">
        <ele>1192</ele>
        <time>2010-01-01T02:24:19Z</time>
      </trkpt>
      <trkpt lat="42.26372" lon="2.29176">
        <ele>1192</ele>
        <time>2010-01-01T02:24:20Z</time>
      </trkpt>
      <trkpt lat="42.26374" lon="2.2918">
        <ele>1192</ele>
        <time>2010-01-01T02:24:21Z</time>
      </trkpt>
      <trkpt lat="42.26376" lon="2.29184">
        <ele>1192</ele>
        <time>2010-01-01T02:24:22Z</time>
      </trkpt>
      <trkpt lat="42.26378" lon="2.29189">
        <ele>1192</ele>
        <time>2010-01-01T02:24:24Z</time>
      </trkpt>
      <trkpt lat="42.2638" lon="2.29194">
        <ele>1191</ele>
        <time>2010-01-01T02:24:26Z</time>
      </trkpt>
      <trkpt lat="42.26383" lon="2.29199">
        <ele>1192</ele>
        <time>2010-01-01T02:24:28Z</time>
      </trkpt>
      <trkpt lat="42.26387" lon="2.29203">
        <ele>1192</ele>
        <time>2010-01-01T02:24:30Z</time>
      </trkpt>
      <trkpt lat="42.26391" lon="2.29208">
        <ele>1192</ele>
        <time>2010-01-01T02:24:32Z</time>
      </trkpt>
      <trkpt lat="42.26395" lon="2.29213">
        <ele>1192</ele>
        <time>2010-01-01T02:24:34Z</time>
      </trkpt>
      <trkpt lat="42.26399" lon="2.29217">
        <ele>1191</ele>
        <time>2010-01-01T02:24:36Z</time>
      </trkpt>
      <trkpt lat="42.26401" lon="2.29221">
        <ele>1191</ele>
        <time>2010-01-01T02:24:38Z</time>
      </trkpt>
      <trkpt lat="42.26404" lon="2.29226">
        <ele>1191</ele>
        <time>2010-01-01T02:24:39Z</time>
      </trkpt>
      <trkpt lat="42.26407" lon="2.29233">
        <ele>1192</ele>
        <time>2010-01-01T02:24:42Z</time>
      </trkpt>
      <trkpt lat="42.26412" lon="2.29244">
        <ele>1194</ele>
        <time>2010-01-01T02:24:46Z</time>
      </trkpt>
      <trkpt lat="42.26414" lon="2.29254">
        <ele>1196</ele>
        <time>2010-01-01T02:24:49Z</time>
      </trkpt>
      <trkpt lat="42.26414" lon="2.2926">
        <ele>1196</ele>
        <time>2010-01-01T02:24:50Z</time>
      </trkpt>
      <trkpt lat="42.26415" lon="2.29265">
        <ele>1197</ele>
        <time>2010-01-01T02:24:52Z</time>
      </trkpt>
      <trkpt lat="42.26414" lon="2.2927">
        <ele>1197</ele>
        <time>2010-01-01T02:24:54Z</time>
      </trkpt>
      <trkpt lat="42.26415" lon="2.29278">
        <ele>1197</ele>
        <time>2010-01-01T02:24:56Z</time>
      </trkpt>
      <trkpt lat="42.26417" lon="2.29283">
        <ele>1198</ele>
        <time>2010-01-01T02:24:58Z</time>
      </trkpt>
      <trkpt lat="42.26419" lon="2.2929">
        <ele>1198</ele>
        <time>2010-01-01T02:25:00Z</time>
      </trkpt>
      <trkpt lat="42.2642" lon="2.29295">
        <ele>1198</ele>
        <time>2010-01-01T02:25:01Z</time>
      </trkpt>
      <trkpt lat="42.2642" lon="2.293">
        <ele>1198</ele>
        <time>2010-01-01T02:25:03Z</time>
      </trkpt>
      <trkpt lat="42.2642" lon="2.29307">
        <ele>1198</ele>
        <time>2010-01-01T02:25:05Z</time>
      </trkpt>
      <trkpt lat="42.26421" lon="2.29312">
        <ele>1198</ele>
        <time>2010-01-01T02:25:07Z</time>
      </trkpt>
      <trkpt lat="42.26422" lon="2.29318">
        <ele>1198</ele>
        <time>2010-01-01T02:25:08Z</time>
      </trkpt>
      <trkpt lat="42.26421" lon="2.29325">
        <ele>1198</ele>
        <time>2010-01-01T02:25:10Z</time>
      </trkpt>
      <trkpt lat="42.26422" lon="2.2933">
        <ele>1198</ele>
        <time>2010-01-01T02:25:12Z</time>
      </trkpt>
      <trkpt lat="42.26422" lon="2.29336">
        <ele>1198</ele>
        <time>2010-01-01T02:25:14Z</time>
      </trkpt>
      <trkpt lat="42.2642" lon="2.29347">
        <ele>1200</ele>
        <time>2010-01-01T02:25:17Z</time>
      </trkpt>
      <trkpt lat="42.26419" lon="2.29351">
        <ele>1201</ele>
        <time>2010-01-01T02:25:18Z</time>
      </trkpt>
      <trkpt lat="42.2642" lon="2.29356">
        <ele>1201</ele>
        <time>2010-01-01T02:25:20Z</time>
      </trkpt>
      <trkpt lat="42.2642" lon="2.29362">
        <ele>1202</ele>
        <time>2010-01-01T02:25:22Z</time>
      </trkpt>
      <trkpt lat="42.26422" lon="2.29366">
        <ele>1202</ele>
        <time>2010-01-01T02:25:23Z</time>
      </trkpt>
      <trkpt lat="42.26422" lon="2.29371">
        <ele>1202</ele>
        <time>2010-01-01T02:25:24Z</time>
      </trkpt>
      <trkpt lat="42.26421" lon="2.29375">
        <ele>1203</ele>
        <time>2010-01-01T02:25:26Z</time>
      </trkpt>
      <trkpt lat="42.26422" lon="2.2938">
        <ele>1203</ele>
        <time>2010-01-01T02:25:27Z</time>
      </trkpt>
      <trkpt lat="42.26424" lon="2.29383">
        <ele>1203</ele>
        <time>2010-01-01T02:25:28Z</time>
      </trkpt>
      <trkpt lat="42.26425" lon="2.29386">
        <ele>1203</ele>
        <time>2010-01-01T02:25:29Z</time>
      </trkpt>
      <trkpt lat="42.26427" lon="2.2939">
        <ele>1204</ele>
        <time>2010-01-01T02:25:31Z</time>
      </trkpt>
      <trkpt lat="42.26429" lon="2.29393">
        <ele>1204</ele>
        <time>2010-01-01T02:25:32Z</time>
      </trkpt>
      <trkpt lat="42.26432" lon="2.29398">
        <ele>1205</ele>
        <time>2010-01-01T02:25:34Z</time>
      </trkpt>
      <trkpt lat="42.26437" lon="2.29404">
        <ele>1206</ele>
        <time>2010-01-01T02:25:36Z</time>
      </trkpt>
      <trkpt lat="42.26441" lon="2.29411">
        <ele>1207</ele>
        <time>2010-01-01T02:25:39Z</time>
      </trkpt>
      <trkpt lat="42.26446" lon="2.29419">
        <ele>1208</ele>
        <time>2010-01-01T02:25:42Z</time>
      </trkpt>
      <trkpt lat="42.26448" lon="2.29424">
        <ele>1208</ele>
        <time>2010-01-01T02:25:44Z</time>
      </trkpt>
      <trkpt lat="42.2645" lon="2.2943">
        <ele>1208</ele>
        <time>2010-01-01T02:25:46Z</time>
      </trkpt>
      <trkpt lat="42.26452" lon="2.29434">
        <ele>1208</ele>
        <time>2010-01-01T02:25:47Z</time>
      </trkpt>
      <trkpt lat="42.26456" lon="2.29438">
        <ele>1207</ele>
        <time>2010-01-01T02:25:49Z</time>
      </trkpt>
      <trkpt lat="42.26459" lon="2.29441">
        <ele>1207</ele>
        <time>2010-01-01T02:25:51Z</time>
      </trkpt>
      <trkpt lat="42.26463" lon="2.29446">
        <ele>1207</ele>
        <time>2010-01-01T02:25:53Z</time>
      </trkpt>
      <trkpt lat="42.26468" lon="2.29451">
        <ele>1207</ele>
        <time>2010-01-01T02:25:55Z</time>
      </trkpt>
      <trkpt lat="42.26472" lon="2.29456">
        <ele>1207</ele>
        <time>2010-01-01T02:25:58Z</time>
      </trkpt>
      <trkpt lat="42.26476" lon="2.29462">
        <ele>1207</ele>
        <time>2010-01-01T02:26:00Z</time>
      </trkpt>
      <trkpt lat="42.26481" lon="2.29464">
        <ele>1206</ele>
        <time>2010-01-01T02:26:02Z</time>
      </trkpt>
      <trkpt lat="42.26484" lon="2.29469">
        <ele>1205</ele>
        <time>2010-01-01T02:26:04Z</time>
      </trkpt>
      <trkpt lat="42.26488" lon="2.29473">
        <ele>1205</ele>
        <time>2010-01-01T02:26:06Z</time>
      </trkpt>
      <trkpt lat="42.26493" lon="2.29477">
        <ele>1205</ele>
        <time>2010-01-01T02:26:08Z</time>
      </trkpt>
      <trkpt lat="42.26497" lon="2.29479">
        <ele>1205</ele>
        <time>2010-01-01T02:26:10Z</time>
      </trkpt>
      <trkpt lat="42.265" lon="2.29484">
        <ele>1206</ele>
        <time>2010-01-01T02:26:12Z</time>
      </trkpt>
      <trkpt lat="42.26503" lon="2.29489">
        <ele>1207</ele>
        <time>2010-01-01T02:26:14Z</time>
      </trkpt>
      <trkpt lat="42.26505" lon="2.29493">
        <ele>1208</ele>
        <time>2010-01-01T02:26:15Z</time>
      </trkpt>
      <trkpt lat="42.26511" lon="2.29504">
        <ele>1210</ele>
        <time>2010-01-01T02:26:19Z</time>
      </trkpt>
      <trkpt lat="42.26514" lon="2.29506">
        <ele>1210</ele>
        <time>2010-01-01T02:26:20Z</time>
      </trkpt>
      <trkpt lat="42.26517" lon="2.29509">
        <ele>1210</ele>
        <time>2010-01-01T02:26:22Z</time>
      </trkpt>
      <trkpt lat="42.2652" lon="2.29512">
        <ele>1211</ele>
        <time>2010-01-01T02:26:24Z</time>
      </trkpt>
      <trkpt lat="42.26524" lon="2.29517">
        <ele>1211</ele>
        <time>2010-01-01T02:26:26Z</time>
      </trkpt>
      <trkpt lat="42.26528" lon="2.29519">
        <ele>1211</ele>
        <time>2010-01-01T02:26:27Z</time>
      </trkpt>
      <trkpt lat="42.26531" lon="2.29519">
        <ele>1211</ele>
        <time>2010-01-01T02:26:28Z</time>
      </trkpt>
      <trkpt lat="42.26534" lon="2.29519">
        <ele>1210</ele>
        <time>2010-01-01T02:26:30Z</time>
      </trkpt>
      <trkpt lat="42.26539" lon="2.29521">
        <ele>1209</ele>
        <time>2010-01-01T02:26:32Z</time>
      </trkpt>
      <trkpt lat="42.26544" lon="2.29524">
        <ele>1209</ele>
        <time>2010-01-01T02:26:34Z</time>
      </trkpt>
      <trkpt lat="42.26546" lon="2.29526">
        <ele>1209</ele>
        <time>2010-01-01T02:26:35Z</time>
      </trkpt>
      <trkpt lat="42.2655" lon="2.29529">
        <ele>1209</ele>
        <time>2010-01-01T02:26:37Z</time>
      </trkpt>
      <trkpt lat="42.26553" lon="2.2953">
        <ele>1208</ele>
        <time>2010-01-01T02:26:38Z</time>
      </trkpt>
      <trkpt lat="42.26558" lon="2.29532">
        <ele>1206</ele>
        <time>2010-01-01T02:26:40Z</time>
      </trkpt>
      <trkpt lat="42.26563" lon="2.29536">
        <ele>1205</ele>
        <time>2010-01-01T02:26:43Z</time>
      </trkpt>
      <trkpt lat="42.26568" lon="2.29539">
        <ele>1204</ele>
        <time>2010-01-01T02:26:45Z</time>
      </trkpt>
      <trkpt lat="42.26571" lon="2.29541">
        <ele>1203</ele>
        <time>2010-01-01T02:26:46Z</time>
      </trkpt>
      <trkpt lat="42.26574" lon="2.29543">
        <ele>1203</ele>
        <time>2010-01-01T02:26:47Z</time>
      </trkpt>
      <trkpt lat="42.26577" lon="2.29546">
        <ele>1202</ele>
        <time>2010-01-01T02:26:49Z</time>
      </trkpt>
      <trkpt lat="42.26581" lon="2.29549">
        <ele>1202</ele>
        <time>2010-01-01T02:26:51Z</time>
      </trkpt>
      <trkpt lat="42.26584" lon="2.29548">
        <ele>1200</ele>
        <time>2010-01-01T02:26:52Z</time>
      </trkpt>
      <trkpt lat="42.26587" lon="2.29547">
        <ele>1199</ele>
        <time>2010-01-01T02:26:53Z</time>
      </trkpt>
      <trkpt lat="42.26595" lon="2.29547">
        <ele>1196</ele>
        <time>2010-01-01T02:26:56Z</time>
      </trkpt>
      <trkpt lat="42.266" lon="2.29549">
        <ele>1195</ele>
        <time>2010-01-01T02:26:58Z</time>
      </trkpt>
      <trkpt lat="42.26604" lon="2.2955">
        <ele>1194</ele>
        <time>2010-01-01T02:27:00Z</time>
      </trkpt>
      <trkpt lat="42.26612" lon="2.29553">
        <ele>1193</ele>
        <time>2010-01-01T02:27:03Z</time>
      </trkpt>
      <trkpt lat="42.26616" lon="2.29552">
        <ele>1192</ele>
        <time>2010-01-01T02:27:05Z</time>
      </trkpt>
      <trkpt lat="42.2662" lon="2.29553">
        <ele>1191</ele>
        <time>2010-01-01T02:27:07Z</time>
      </trkpt>
      <trkpt lat="42.26624" lon="2.29556">
        <ele>1191</ele>
        <time>2010-01-01T02:27:08Z</time>
      </trkpt>
      <trkpt lat="42.26626" lon="2.2956">
        <ele>1192</ele>
        <time>2010-01-01T02:27:10Z</time>
      </trkpt>
      <trkpt lat="42.26627" lon="2.29566">
        <ele>1193</ele>
        <time>2010-01-01T02:27:12Z</time>
      </trkpt>
      <trkpt lat="42.26629" lon="2.29571">
        <ele>1194</ele>
        <time>2010-01-01T02:27:13Z</time>
      </trkpt>
      <trkpt lat="42.26632" lon="2.29574">
        <ele>1193</ele>
        <time>2010-01-01T02:27:15Z</time>
      </trkpt>
      <trkpt lat="42.26635" lon="2.29576">
        <ele>1193</ele>
        <time>2010-01-01T02:27:16Z</time>
      </trkpt>
      <trkpt lat="42.2664" lon="2.29581">
        <ele>1193</ele>
        <time>2010-01-01T02:27:19Z</time>
      </trkpt>
      <trkpt lat="42.26643" lon="2.29584">
        <ele>1192</ele>
        <time>2010-01-01T02:27:20Z</time>
      </trkpt>
      <trkpt lat="42.26647" lon="2.29587">
        <ele>1192</ele>
        <time>2010-01-01T02:27:22Z</time>
      </trkpt>
      <trkpt lat="42.2665" lon="2.29593">
        <ele>1193</ele>
        <time>2010-01-01T02:27:24Z</time>
      </trkpt>
      <trkpt lat="42.26652" lon="2.29597">
        <ele>1193</ele>
        <time>2010-01-01T02:27:26Z</time>
      </trkpt>
      <trkpt lat="42.26655" lon="2.29601">
        <ele>1193</ele>
        <time>2010-01-01T02:27:27Z</time>
      </trkpt>
      <trkpt lat="42.26657" lon="2.29605">
        <ele>1194</ele>
        <time>2010-01-01T02:27:29Z</time>
      </trkpt>
      <trkpt lat="42.26661" lon="2.29609">
        <ele>1193</ele>
        <time>2010-01-01T02:27:31Z</time>
      </trkpt>
      <trkpt lat="42.26663" lon="2.29613">
        <ele>1194</ele>
        <time>2010-01-01T02:27:32Z</time>
      </trkpt>
      <trkpt lat="42.26667" lon="2.29615">
        <ele>1193</ele>
        <time>2010-01-01T02:27:34Z</time>
      </trkpt>
      <trkpt lat="42.26671" lon="2.29619">
        <ele>1192</ele>
        <time>2010-01-01T02:27:36Z</time>
      </trkpt>
      <trkpt lat="42.26675" lon="2.29624">
        <ele>1192</ele>
        <time>2010-01-01T02:27:38Z</time>
      </trkpt>
      <trkpt lat="42.26679" lon="2.29629">
        <ele>1192</ele>
        <time>2010-01-01T02:27:40Z</time>
      </trkpt>
      <trkpt lat="42.26683" lon="2.29634">
        <ele>1192</ele>
        <time>2010-01-01T02:27:43Z</time>
      </trkpt>
      <trkpt lat="42.26688" lon="2.29641">
        <ele>1192</ele>
        <time>2010-01-01T02:27:45Z</time>
      </trkpt>
      <trkpt lat="42.26692" lon="2.29645">
        <ele>1193</ele>
        <time>2010-01-01T02:27:47Z</time>
      </trkpt>
      <trkpt lat="42.26693" lon="2.2965">
        <ele>1193</ele>
        <time>2010-01-01T02:27:49Z</time>
      </trkpt>
      <trkpt lat="42.26696" lon="2.29655">
        <ele>1194</ele>
        <time>2010-01-01T02:27:51Z</time>
      </trkpt>
      <trkpt lat="42.267" lon="2.2966">
        <ele>1193</ele>
        <time>2010-01-01T02:27:53Z</time>
      </trkpt>
      <trkpt lat="42.26705" lon="2.29665">
        <ele>1193</ele>
        <time>2010-01-01T02:27:55Z</time>
      </trkpt>
      <trkpt lat="42.2671" lon="2.2967">
        <ele>1192</ele>
        <time>2010-01-01T02:27:58Z</time>
      </trkpt>
      <trkpt lat="42.26714" lon="2.29675">
        <ele>1192</ele>
        <time>2010-01-01T02:28:00Z</time>
      </trkpt>
      <trkpt lat="42.26718" lon="2.29681">
        <ele>1191</ele>
        <time>2010-01-01T02:28:02Z</time>
      </trkpt>
      <trkpt lat="42.26719" lon="2.29687">
        <ele>1191</ele>
        <time>2010-01-01T02:28:04Z</time>
      </trkpt>
      <trkpt lat="42.26721" lon="2.29693">
        <ele>1192</ele>
        <time>2010-01-01T02:28:06Z</time>
      </trkpt>
      <trkpt lat="42.26724" lon="2.29697">
        <ele>1191</ele>
        <time>2010-01-01T02:28:08Z</time>
      </trkpt>
      <trkpt lat="42.26727" lon="2.29703">
        <ele>1190</ele>
        <time>2010-01-01T02:28:10Z</time>
      </trkpt>
      <trkpt lat="42.2673" lon="2.29706">
        <ele>1190</ele>
        <time>2010-01-01T02:28:11Z</time>
      </trkpt>
      <trkpt lat="42.26732" lon="2.29707">
        <ele>1189</ele>
        <time>2010-01-01T02:28:12Z</time>
      </trkpt>
      <trkpt lat="42.26735" lon="2.29707">
        <ele>1188</ele>
        <time>2010-01-01T02:28:14Z</time>
      </trkpt>
      <trkpt lat="42.26739" lon="2.29709">
        <ele>1188</ele>
        <time>2010-01-01T02:28:15Z</time>
      </trkpt>
      <trkpt lat="42.26741" lon="2.29713">
        <ele>1187</ele>
        <time>2010-01-01T02:28:17Z</time>
      </trkpt>
      <trkpt lat="42.26745" lon="2.29715">
        <ele>1187</ele>
        <time>2010-01-01T02:28:18Z</time>
      </trkpt>
      <trkpt lat="42.26749" lon="2.29716">
        <ele>1186</ele>
        <time>2010-01-01T02:28:20Z</time>
      </trkpt>
      <trkpt lat="42.26754" lon="2.29717">
        <ele>1185</ele>
        <time>2010-01-01T02:28:22Z</time>
      </trkpt>
      <trkpt lat="42.2676" lon="2.2972">
        <ele>1185</ele>
        <time>2010-01-01T02:28:24Z</time>
      </trkpt>
      <trkpt lat="42.26764" lon="2.29725">
        <ele>1185</ele>
        <time>2010-01-01T02:28:27Z</time>
      </trkpt>
      <trkpt lat="42.26768" lon="2.29728">
        <ele>1185</ele>
        <time>2010-01-01T02:28:29Z</time>
      </trkpt>
      <trkpt lat="42.26774" lon="2.29731">
        <ele>1185</ele>
        <time>2010-01-01T02:28:31Z</time>
      </trkpt>
      <trkpt lat="42.26781" lon="2.29734">
        <ele>1185</ele>
        <time>2010-01-01T02:28:34Z</time>
      </trkpt>
      <trkpt lat="42.26788" lon="2.29736">
        <ele>1185</ele>
        <time>2010-01-01T02:28:37Z</time>
      </trkpt>
      <trkpt lat="42.26793" lon="2.29737">
        <ele>1184</ele>
        <time>2010-01-01T02:28:39Z</time>
      </trkpt>
      <trkpt lat="42.26799" lon="2.29737">
        <ele>1184</ele>
        <time>2010-01-01T02:28:41Z</time>
      </trkpt>
      <trkpt lat="42.26803" lon="2.29736">
        <ele>1183</ele>
        <time>2010-01-01T02:28:43Z</time>
      </trkpt>
      <trkpt lat="42.26808" lon="2.29734">
        <ele>1182</ele>
        <time>2010-01-01T02:28:45Z</time>
      </trkpt>
      <trkpt lat="42.26813" lon="2.29733">
        <ele>1182</ele>
        <time>2010-01-01T02:28:47Z</time>
      </trkpt>
      <trkpt lat="42.26819" lon="2.29733">
        <ele>1181</ele>
        <time>2010-01-01T02:28:49Z</time>
      </trkpt>
      <trkpt lat="42.26824" lon="2.29734">
        <ele>1180</ele>
        <time>2010-01-01T02:28:51Z</time>
      </trkpt>
      <trkpt lat="42.26829" lon="2.29735">
        <ele>1180</ele>
        <time>2010-01-01T02:28:53Z</time>
      </trkpt>
      <trkpt lat="42.26835" lon="2.29736">
        <ele>1179</ele>
        <time>2010-01-01T02:28:56Z</time>
      </trkpt>
      <trkpt lat="42.2684" lon="2.29738">
        <ele>1178</ele>
        <time>2010-01-01T02:28:58Z</time>
      </trkpt>
      <trkpt lat="42.26846" lon="2.29741">
        <ele>1177</ele>
        <time>2010-01-01T02:29:00Z</time>
      </trkpt>
      <trkpt lat="42.26851" lon="2.29743">
        <ele>1177</ele>
        <time>2010-01-01T02:29:03Z</time>
      </trkpt>
      <trkpt lat="42.26856" lon="2.29744">
        <ele>1176</ele>
        <time>2010-01-01T02:29:05Z</time>
      </trkpt>
      <trkpt lat="42.26862" lon="2.29745">
        <ele>1175</ele>
        <time>2010-01-01T02:29:07Z</time>
      </trkpt>
      <trkpt lat="42.26867" lon="2.29745">
        <ele>1176</ele>
        <time>2010-01-01T02:29:09Z</time>
      </trkpt>
      <trkpt lat="42.26872" lon="2.29746">
        <ele>1177</ele>
        <time>2010-01-01T02:29:11Z</time>
      </trkpt>
      <trkpt lat="42.26876" lon="2.29745">
        <ele>1177</ele>
        <time>2010-01-01T02:29:12Z</time>
      </trkpt>
      <trkpt lat="42.26879" lon="2.29742">
        <ele>1177</ele>
        <time>2010-01-01T02:29:14Z</time>
      </trkpt>
      <trkpt lat="42.26882" lon="2.29741">
        <ele>1178</ele>
        <time>2010-01-01T02:29:15Z</time>
      </trkpt>
      <trkpt lat="42.26884" lon="2.2974">
        <ele>1178</ele>
        <time>2010-01-01T02:29:16Z</time>
      </trkpt>
      <trkpt lat="42.26884" lon="2.29743">
        <ele>1178</ele>
        <time>2010-01-01T02:29:17Z</time>
      </trkpt>
      <trkpt lat="42.26886" lon="2.29745">
        <ele>1179</ele>
        <time>2010-01-01T02:29:18Z</time>
      </trkpt>
      <trkpt lat="42.26887" lon="2.29748">
        <ele>1180</ele>
        <time>2010-01-01T02:29:19Z</time>
      </trkpt>
      <trkpt lat="42.2689" lon="2.2975">
        <ele>1181</ele>
        <time>2010-01-01T02:29:20Z</time>
      </trkpt>
      <trkpt lat="42.26893" lon="2.29752">
        <ele>1181</ele>
        <time>2010-01-01T02:29:22Z</time>
      </trkpt>
      <trkpt lat="42.26896" lon="2.29757">
        <ele>1182</ele>
        <time>2010-01-01T02:29:23Z</time>
      </trkpt>
      <trkpt lat="42.269" lon="2.29762">
        <ele>1183</ele>
        <time>2010-01-01T02:29:25Z</time>
      </trkpt>
      <trkpt lat="42.26903" lon="2.29763">
        <ele>1184</ele>
        <time>2010-01-01T02:29:27Z</time>
      </trkpt>
      <trkpt lat="42.26907" lon="2.29763">
        <ele>1184</ele>
        <time>2010-01-01T02:29:28Z</time>
      </trkpt>
      <trkpt lat="42.26911" lon="2.29764">
        <ele>1185</ele>
        <time>2010-01-01T02:29:30Z</time>
      </trkpt>
      <trkpt lat="42.26914" lon="2.29765">
        <ele>1186</ele>
        <time>2010-01-01T02:29:31Z</time>
      </trkpt>
      <trkpt lat="42.26918" lon="2.29767">
        <ele>1187</ele>
        <time>2010-01-01T02:29:33Z</time>
      </trkpt>
      <trkpt lat="42.26921" lon="2.29769">
        <ele>1187</ele>
        <time>2010-01-01T02:29:34Z</time>
      </trkpt>
      <trkpt lat="42.26924" lon="2.29771">
        <ele>1188</ele>
        <time>2010-01-01T02:29:36Z</time>
      </trkpt>
      <trkpt lat="42.26926" lon="2.29772">
        <ele>1188</ele>
        <time>2010-01-01T02:29:37Z</time>
      </trkpt>
      <trkpt lat="42.26929" lon="2.29772">
        <ele>1188</ele>
        <time>2010-01-01T02:29:38Z</time>
      </trkpt>
      <trkpt lat="42.26931" lon="2.29773">
        <ele>1189</ele>
        <time>2010-01-01T02:29:38Z</time>
      </trkpt>
      <trkpt lat="42.26933" lon="2.29774">
        <ele>1189</ele>
        <time>2010-01-01T02:29:40Z</time>
      </trkpt>
      <trkpt lat="42.26936" lon="2.29775">
        <ele>1189</ele>
        <time>2010-01-01T02:29:41Z</time>
      </trkpt>
      <trkpt lat="42.26938" lon="2.29774">
        <ele>1190</ele>
        <time>2010-01-01T02:29:41Z</time>
      </trkpt>
      <trkpt lat="42.2694" lon="2.29773">
        <ele>1190</ele>
        <time>2010-01-01T02:29:42Z</time>
      </trkpt>
      <trkpt lat="42.26943" lon="2.29773">
        <ele>1190</ele>
        <time>2010-01-01T02:29:43Z</time>
      </trkpt>
      <trkpt lat="42.26945" lon="2.29772">
        <ele>1190</ele>
        <time>2010-01-01T02:29:44Z</time>
      </trkpt>
      <trkpt lat="42.26948" lon="2.29773">
        <ele>1190</ele>
        <time>2010-01-01T02:29:45Z</time>
      </trkpt>
      <trkpt lat="42.26951" lon="2.29774">
        <ele>1191</ele>
        <time>2010-01-01T02:29:47Z</time>
      </trkpt>
      <trkpt lat="42.26954" lon="2.29774">
        <ele>1192</ele>
        <time>2010-01-01T02:29:48Z</time>
      </trkpt>
      <trkpt lat="42.26956" lon="2.29774">
        <ele>1192</ele>
        <time>2010-01-01T02:29:49Z</time>
      </trkpt>
      <trkpt lat="42.26959" lon="2.29773">
        <ele>1193</ele>
        <time>2010-01-01T02:29:50Z</time>
      </trkpt>
      <trkpt lat="42.26961" lon="2.29772">
        <ele>1193</ele>
        <time>2010-01-01T02:29:51Z</time>
      </trkpt>
      <trkpt lat="42.26964" lon="2.29773">
        <ele>1194</ele>
        <time>2010-01-01T02:29:52Z</time>
      </trkpt>
      <trkpt lat="42.26967" lon="2.29773">
        <ele>1194</ele>
        <time>2010-01-01T02:29:53Z</time>
      </trkpt>
      <trkpt lat="42.26969" lon="2.29772">
        <ele>1195</ele>
        <time>2010-01-01T02:29:54Z</time>
      </trkpt>
      <trkpt lat="42.26971" lon="2.2977">
        <ele>1195</ele>
        <time>2010-01-01T02:29:55Z</time>
      </trkpt>
      <trkpt lat="42.26973" lon="2.29769">
        <ele>1195</ele>
        <time>2010-01-01T02:29:56Z</time>
      </trkpt>
      <trkpt lat="42.26975" lon="2.29769">
        <ele>1196</ele>
        <time>2010-01-01T02:29:57Z</time>
      </trkpt>
      <trkpt lat="42.26977" lon="2.29769">
        <ele>1197</ele>
        <time>2010-01-01T02:29:58Z</time>
      </trkpt>
      <trkpt lat="42.2698" lon="2.2977">
        <ele>1197</ele>
        <time>2010-01-01T02:29:59Z</time>
      </trkpt>
      <trkpt lat="42.26982" lon="2.29771">
        <ele>1198</ele>
        <time>2010-01-01T02:30:00Z</time>
      </trkpt>
      <trkpt lat="42.26984" lon="2.29772">
        <ele>1199</ele>
        <time>2010-01-01T02:30:01Z</time>
      </trkpt>
      <trkpt lat="42.26987" lon="2.29774">
        <ele>1200</ele>
        <time>2010-01-01T02:30:02Z</time>
      </trkpt>
      <trkpt lat="42.2699" lon="2.29776">
        <ele>1200</ele>
        <time>2010-01-01T02:30:03Z</time>
      </trkpt>
      <trkpt lat="42.26992" lon="2.29778">
        <ele>1201</ele>
        <time>2010-01-01T02:30:04Z</time>
      </trkpt>
      <trkpt lat="42.26994" lon="2.2978">
        <ele>1202</ele>
        <time>2010-01-01T02:30:05Z</time>
      </trkpt>
      <trkpt lat="42.26996" lon="2.29781">
        <ele>1202</ele>
        <time>2010-01-01T02:30:06Z</time>
      </trkpt>
      <trkpt lat="42.26998" lon="2.29783">
        <ele>1203</ele>
        <time>2010-01-01T02:30:07Z</time>
      </trkpt>
      <trkpt lat="42.27" lon="2.29785">
        <ele>1203</ele>
        <time>2010-01-01T02:30:08Z</time>
      </trkpt>
      <trkpt lat="42.27002" lon="2.29787">
        <ele>1203</ele>
        <time>2010-01-01T02:30:09Z</time>
      </trkpt>
      <trkpt lat="42.27004" lon="2.29789">
        <ele>1203</ele>
        <time>2010-01-01T02:30:10Z</time>
      </trkpt>
      <trkpt lat="42.27008" lon="2.29788">
        <ele>1204</ele>
        <time>2010-01-01T02:30:11Z</time>
      </trkpt>
      <trkpt lat="42.2701" lon="2.29789">
        <ele>1204</ele>
        <time>2010-01-01T02:30:12Z</time>
      </trkpt>
      <trkpt lat="42.27011" lon="2.29791">
        <ele>1204</ele>
        <time>2010-01-01T02:30:13Z</time>
      </trkpt>
      <trkpt lat="42.27014" lon="2.29792">
        <ele>1205</ele>
        <time>2010-01-01T02:30:14Z</time>
      </trkpt>
      <trkpt lat="42.27016" lon="2.29792">
        <ele>1205</ele>
        <time>2010-01-01T02:30:15Z</time>
      </trkpt>
      <trkpt lat="42.27017" lon="2.2979">
        <ele>1206</ele>
        <time>2010-01-01T02:30:16Z</time>
      </trkpt>
      <trkpt lat="42.27018" lon="2.29788">
        <ele>1206</ele>
        <time>2010-01-01T02:30:17Z</time>
      </trkpt>
      <trkpt lat="42.27019" lon="2.29786">
        <ele>1206</ele>
        <time>2010-01-01T02:30:17Z</time>
      </trkpt>
      <trkpt lat="42.2702" lon="2.29783">
        <ele>1207</ele>
        <time>2010-01-01T02:30:18Z</time>
      </trkpt>
      <trkpt lat="42.2702" lon="2.29781">
        <ele>1207</ele>
        <time>2010-01-01T02:30:19Z</time>
      </trkpt>
      <trkpt lat="42.27021" lon="2.29779">
        <ele>1207</ele>
        <time>2010-01-01T02:30:20Z</time>
      </trkpt>
      <trkpt lat="42.27023" lon="2.29777">
        <ele>1208</ele>
        <time>2010-01-01T02:30:21Z</time>
      </trkpt>
      <trkpt lat="42.27025" lon="2.29778">
        <ele>1208</ele>
        <time>2010-01-01T02:30:21Z</time>
      </trkpt>
      <trkpt lat="42.27028" lon="2.29777">
        <ele>1208</ele>
        <time>2010-01-01T02:30:22Z</time>
      </trkpt>
      <trkpt lat="42.2703" lon="2.29776">
        <ele>1209</ele>
        <time>2010-01-01T02:30:23Z</time>
      </trkpt>
      <trkpt lat="42.27032" lon="2.29776">
        <ele>1209</ele>
        <time>2010-01-01T02:30:24Z</time>
      </trkpt>
      <trkpt lat="42.27035" lon="2.29778">
        <ele>1209</ele>
        <time>2010-01-01T02:30:25Z</time>
      </trkpt>
      <trkpt lat="42.27036" lon="2.29781">
        <ele>1209</ele>
        <time>2010-01-01T02:30:26Z</time>
      </trkpt>
      <trkpt lat="42.27038" lon="2.29784">
        <ele>1209</ele>
        <time>2010-01-01T02:30:27Z</time>
      </trkpt>
      <trkpt lat="42.27041" lon="2.29786">
        <ele>1210</ele>
        <time>2010-01-01T02:30:29Z</time>
      </trkpt>
      <trkpt lat="42.27044" lon="2.29786">
        <ele>1210</ele>
        <time>2010-01-01T02:30:30Z</time>
      </trkpt>
      <trkpt lat="42.27049" lon="2.29785">
        <ele>1211</ele>
        <time>2010-01-01T02:30:32Z</time>
      </trkpt>
      <trkpt lat="42.27051" lon="2.29785">
        <ele>1211</ele>
        <time>2010-01-01T02:30:33Z</time>
      </trkpt>
      <trkpt lat="42.27053" lon="2.29785">
        <ele>1211</ele>
        <time>2010-01-01T02:30:34Z</time>
      </trkpt>
      <trkpt lat="42.27057" lon="2.29786">
        <ele>1212</ele>
        <time>2010-01-01T02:30:35Z</time>
      </trkpt>
      <trkpt lat="42.27061" lon="2.29786">
        <ele>1213</ele>
        <time>2010-01-01T02:30:37Z</time>
      </trkpt>
      <trkpt lat="42.27065" lon="2.29785">
        <ele>1214</ele>
        <time>2010-01-01T02:30:39Z</time>
      </trkpt>
      <trkpt lat="42.2707" lon="2.29783">
        <ele>1214</ele>
        <time>2010-01-01T02:30:41Z</time>
      </trkpt>
      <trkpt lat="42.27075" lon="2.29781">
        <ele>1215</ele>
        <time>2010-01-01T02:30:43Z</time>
      </trkpt>
      <trkpt lat="42.27078" lon="2.2978">
        <ele>1216</ele>
        <time>2010-01-01T02:30:44Z</time>
      </trkpt>
      <trkpt lat="42.2708" lon="2.29779">
        <ele>1216</ele>
        <time>2010-01-01T02:30:45Z</time>
      </trkpt>
      <trkpt lat="42.27086" lon="2.29778">
        <ele>1217</ele>
        <time>2010-01-01T02:30:47Z</time>
      </trkpt>
      <trkpt lat="42.27088" lon="2.29778">
        <ele>1218</ele>
        <time>2010-01-01T02:30:48Z</time>
      </trkpt>
      <trkpt lat="42.2709" lon="2.29776">
        <ele>1218</ele>
        <time>2010-01-01T02:30:49Z</time>
      </trkpt>
      <trkpt lat="42.27091" lon="2.29775">
        <ele>1218</ele>
        <time>2010-01-01T02:30:50Z</time>
      </trkpt>
      <trkpt lat="42.27092" lon="2.29772">
        <ele>1217</ele>
        <time>2010-01-01T02:30:50Z</time>
      </trkpt>
      <trkpt lat="42.27094" lon="2.2977">
        <ele>1218</ele>
        <time>2010-01-01T02:30:51Z</time>
      </trkpt>
      <trkpt lat="42.27096" lon="2.29769">
        <ele>1218</ele>
        <time>2010-01-01T02:30:52Z</time>
      </trkpt>
      <trkpt lat="42.27098" lon="2.2977">
        <ele>1219</ele>
        <time>2010-01-01T02:30:53Z</time>
      </trkpt>
      <trkpt lat="42.271" lon="2.29769">
        <ele>1219</ele>
        <time>2010-01-01T02:30:54Z</time>
      </trkpt>
      <trkpt lat="42.27102" lon="2.29769">
        <ele>1219</ele>
        <time>2010-01-01T02:30:55Z</time>
      </trkpt>
      <trkpt lat="42.27105" lon="2.29768">
        <ele>1220</ele>
        <time>2010-01-01T02:30:56Z</time>
      </trkpt>
      <trkpt lat="42.27107" lon="2.29768">
        <ele>1220</ele>
        <time>2010-01-01T02:30:57Z</time>
      </trkpt>
      <trkpt lat="42.27109" lon="2.29769">
        <ele>1221</ele>
        <time>2010-01-01T02:30:58Z</time>
      </trkpt>
      <trkpt lat="42.27112" lon="2.29772">
        <ele>1222</ele>
        <time>2010-01-01T02:30:59Z</time>
      </trkpt>
      <trkpt lat="42.27112" lon="2.29775">
        <ele>1222</ele>
        <time>2010-01-01T02:31:00Z</time>
      </trkpt>
      <trkpt lat="42.27113" lon="2.29777">
        <ele>1223</ele>
        <time>2010-01-01T02:31:01Z</time>
      </trkpt>
      <trkpt lat="42.27114" lon="2.2978">
        <ele>1223</ele>
        <time>2010-01-01T02:31:02Z</time>
      </trkpt>
      <trkpt lat="42.27115" lon="2.29783">
        <ele>1224</ele>
        <time>2010-01-01T02:31:03Z</time>
      </trkpt>
      <trkpt lat="42.27116" lon="2.29786">
        <ele>1224</ele>
        <time>2010-01-01T02:31:03Z</time>
      </trkpt>
      <trkpt lat="42.27117" lon="2.29788">
        <ele>1225</ele>
        <time>2010-01-01T02:31:04Z</time>
      </trkpt>
      <trkpt lat="42.27118" lon="2.29791">
        <ele>1225</ele>
        <time>2010-01-01T02:31:05Z</time>
      </trkpt>
      <trkpt lat="42.27119" lon="2.29794">
        <ele>1226</ele>
        <time>2010-01-01T02:31:06Z</time>
      </trkpt>
      <trkpt lat="42.2712" lon="2.29796">
        <ele>1226</ele>
        <time>2010-01-01T02:31:07Z</time>
      </trkpt>
      <trkpt lat="42.27122" lon="2.29798">
        <ele>1227</ele>
        <time>2010-01-01T02:31:08Z</time>
      </trkpt>
      <trkpt lat="42.27125" lon="2.29799">
        <ele>1228</ele>
        <time>2010-01-01T02:31:09Z</time>
      </trkpt>
      <trkpt lat="42.27127" lon="2.29799">
        <ele>1228</ele>
        <time>2010-01-01T02:31:10Z</time>
      </trkpt>
      <trkpt lat="42.27129" lon="2.29799">
        <ele>1229</ele>
        <time>2010-01-01T02:31:11Z</time>
      </trkpt>
      <trkpt lat="42.27131" lon="2.29799">
        <ele>1230</ele>
        <time>2010-01-01T02:31:12Z</time>
      </trkpt>
      <trkpt lat="42.27134" lon="2.29799">
        <ele>1230</ele>
        <time>2010-01-01T02:31:13Z</time>
      </trkpt>
      <trkpt lat="42.27135" lon="2.29798">
        <ele>1231</ele>
        <time>2010-01-01T02:31:14Z</time>
      </trkpt>
      <trkpt lat="42.27138" lon="2.29798">
        <ele>1231</ele>
        <time>2010-01-01T02:31:15Z</time>
      </trkpt>
      <trkpt lat="42.2714" lon="2.29798">
        <ele>1232</ele>
        <time>2010-01-01T02:31:16Z</time>
      </trkpt>
      <trkpt lat="42.27142" lon="2.29798">
        <ele>1232</ele>
        <time>2010-01-01T02:31:16Z</time>
      </trkpt>
      <trkpt lat="42.27144" lon="2.29797">
        <ele>1233</ele>
        <time>2010-01-01T02:31:17Z</time>
      </trkpt>
      <trkpt lat="42.27147" lon="2.29798">
        <ele>1233</ele>
        <time>2010-01-01T02:31:18Z</time>
      </trkpt>
      <trkpt lat="42.27149" lon="2.298">
        <ele>1234</ele>
        <time>2010-01-01T02:31:19Z</time>
      </trkpt>
      <trkpt lat="42.27151" lon="2.29801">
        <ele>1234</ele>
        <time>2010-01-01T02:31:20Z</time>
      </trkpt>
      <trkpt lat="42.27153" lon="2.29802">
        <ele>1234</ele>
        <time>2010-01-01T02:31:21Z</time>
      </trkpt>
      <trkpt lat="42.27155" lon="2.29804">
        <ele>1235</ele>
        <time>2010-01-01T02:31:22Z</time>
      </trkpt>
      <trkpt lat="42.27157" lon="2.29804">
        <ele>1235</ele>
        <time>2010-01-01T02:31:23Z</time>
      </trkpt>
      <trkpt lat="42.27159" lon="2.29804">
        <ele>1235</ele>
        <time>2010-01-01T02:31:24Z</time>
      </trkpt>
      <trkpt lat="42.27161" lon="2.29803">
        <ele>1236</ele>
        <time>2010-01-01T02:31:24Z</time>
      </trkpt>
      <trkpt lat="42.27163" lon="2.29804">
        <ele>1236</ele>
        <time>2010-01-01T02:31:25Z</time>
      </trkpt>
      <trkpt lat="42.27166" lon="2.29804">
        <ele>1236</ele>
        <time>2010-01-01T02:31:26Z</time>
      </trkpt>
      <trkpt lat="42.27168" lon="2.29805">
        <ele>1237</ele>
        <time>2010-01-01T02:31:27Z</time>
      </trkpt>
      <trkpt lat="42.2717" lon="2.29807">
        <ele>1237</ele>
        <time>2010-01-01T02:31:28Z</time>
      </trkpt>
      <trkpt lat="42.27172" lon="2.29808">
        <ele>1238</ele>
        <time>2010-01-01T02:31:29Z</time>
      </trkpt>
      <trkpt lat="42.27175" lon="2.29809">
        <ele>1238</ele>
        <time>2010-01-01T02:31:30Z</time>
      </trkpt>
      <trkpt lat="42.27176" lon="2.29811">
        <ele>1238</ele>
        <time>2010-01-01T02:31:31Z</time>
      </trkpt>
      <trkpt lat="42.27178" lon="2.29813">
        <ele>1239</ele>
        <time>2010-01-01T02:31:32Z</time>
      </trkpt>
      <trkpt lat="42.2718" lon="2.29815">
        <ele>1239</ele>
        <time>2010-01-01T02:31:33Z</time>
      </trkpt>
      <trkpt lat="42.27182" lon="2.29816">
        <ele>1239</ele>
        <time>2010-01-01T02:31:34Z</time>
      </trkpt>
      <trkpt lat="42.27185" lon="2.29817">
        <ele>1239</ele>
        <time>2010-01-01T02:31:35Z</time>
      </trkpt>
      <trkpt lat="42.27187" lon="2.29819">
        <ele>1239</ele>
        <time>2010-01-01T02:31:36Z</time>
      </trkpt>
      <trkpt lat="42.27188" lon="2.2982">
        <ele>1240</ele>
        <time>2010-01-01T02:31:37Z</time>
      </trkpt>
      <trkpt lat="42.27191" lon="2.2982">
        <ele>1240</ele>
        <time>2010-01-01T02:31:37Z</time>
      </trkpt>
      <trkpt lat="42.27192" lon="2.29819">
        <ele>1240</ele>
        <time>2010-01-01T02:31:38Z</time>
      </trkpt>
      <trkpt lat="42.27194" lon="2.2982">
        <ele>1240</ele>
        <time>2010-01-01T02:31:39Z</time>
      </trkpt>
      <trkpt lat="42.27197" lon="2.29822">
        <ele>1241</ele>
        <time>2010-01-01T02:31:40Z</time>
      </trkpt>
      <trkpt lat="42.27199" lon="2.29823">
        <ele>1241</ele>
        <time>2010-01-01T02:31:41Z</time>
      </trkpt>
      <trkpt lat="42.27201" lon="2.29825">
        <ele>1241</ele>
        <time>2010-01-01T02:31:42Z</time>
      </trkpt>
      <trkpt lat="42.27203" lon="2.29827">
        <ele>1241</ele>
        <time>2010-01-01T02:31:43Z</time>
      </trkpt>
      <trkpt lat="42.27206" lon="2.29827">
        <ele>1241</ele>
        <time>2010-01-01T02:31:44Z</time>
      </trkpt>
      <trkpt lat="42.27208" lon="2.29828">
        <ele>1242</ele>
        <time>2010-01-01T02:31:45Z</time>
      </trkpt>
      <trkpt lat="42.2721" lon="2.2983">
        <ele>1242</ele>
        <time>2010-01-01T02:31:46Z</time>
      </trkpt>
      <trkpt lat="42.27211" lon="2.29832">
        <ele>1242</ele>
        <time>2010-01-01T02:31:47Z</time>
      </trkpt>
      <trkpt lat="42.27214" lon="2.29833">
        <ele>1242</ele>
        <time>2010-01-01T02:31:48Z</time>
      </trkpt>
      <trkpt lat="42.27217" lon="2.29834">
        <ele>1242</ele>
        <time>2010-01-01T02:31:49Z</time>
      </trkpt>
      <trkpt lat="42.27219" lon="2.29833">
        <ele>1243</ele>
        <time>2010-01-01T02:31:50Z</time>
      </trkpt>
      <trkpt lat="42.27222" lon="2.29831">
        <ele>1244</ele>
        <time>2010-01-01T02:31:51Z</time>
      </trkpt>
      <trkpt lat="42.27223" lon="2.29829">
        <ele>1244</ele>
        <time>2010-01-01T02:31:52Z</time>
      </trkpt>
      <trkpt lat="42.27225" lon="2.29828">
        <ele>1244</ele>
        <time>2010-01-01T02:31:53Z</time>
      </trkpt>
      <trkpt lat="42.27227" lon="2.29828">
        <ele>1244</ele>
        <time>2010-01-01T02:31:54Z</time>
      </trkpt>
      <trkpt lat="42.2723" lon="2.29828">
        <ele>1243</ele>
        <time>2010-01-01T02:31:55Z</time>
      </trkpt>
      <trkpt lat="42.27232" lon="2.29827">
        <ele>1243</ele>
        <time>2010-01-01T02:31:56Z</time>
      </trkpt>
      <trkpt lat="42.27234" lon="2.29826">
        <ele>1243</ele>
        <time>2010-01-01T02:31:57Z</time>
      </trkpt>
      <trkpt lat="42.27236" lon="2.29825">
        <ele>1243</ele>
        <time>2010-01-01T02:31:57Z</time>
      </trkpt>
      <trkpt lat="42.27239" lon="2.29823">
        <ele>1243</ele>
        <time>2010-01-01T02:31:59Z</time>
      </trkpt>
      <trkpt lat="42.27241" lon="2.29821">
        <ele>1243</ele>
        <time>2010-01-01T02:32:00Z</time>
      </trkpt>
      <trkpt lat="42.27243" lon="2.29818">
        <ele>1244</ele>
        <time>2010-01-01T02:32:01Z</time>
      </trkpt>
      <trkpt lat="42.27244" lon="2.29815">
        <ele>1244</ele>
        <time>2010-01-01T02:32:02Z</time>
      </trkpt>
      <trkpt lat="42.27248" lon="2.29811">
        <ele>1245</ele>
        <time>2010-01-01T02:32:04Z</time>
      </trkpt>
      <trkpt lat="42.27251" lon="2.29807">
        <ele>1245</ele>
        <time>2010-01-01T02:32:05Z</time>
      </trkpt>
      <trkpt lat="42.27253" lon="2.29803">
        <ele>1245</ele>
        <time>2010-01-01T02:32:07Z</time>
      </trkpt>
      <trkpt lat="42.27255" lon="2.29801">
        <ele>1245</ele>
        <time>2010-01-01T02:32:08Z</time>
      </trkpt>
      <trkpt lat="42.27259" lon="2.29796">
        <ele>1246</ele>
        <time>2010-01-01T02:32:10Z</time>
      </trkpt>
      <trkpt lat="42.27261" lon="2.29791">
        <ele>1246</ele>
        <time>2010-01-01T02:32:12Z</time>
      </trkpt>
      <trkpt lat="42.27264" lon="2.29787">
        <ele>1246</ele>
        <time>2010-01-01T02:32:13Z</time>
      </trkpt>
      <trkpt lat="42.27268" lon="2.29784">
        <ele>1246</ele>
        <time>2010-01-01T02:32:15Z</time>
      </trkpt>
      <trkpt lat="42.27273" lon="2.2978">
        <ele>1246</ele>
        <time>2010-01-01T02:32:17Z</time>
      </trkpt>
      <trkpt lat="42.27276" lon="2.29777">
        <ele>1246</ele>
        <time>2010-01-01T02:32:19Z</time>
      </trkpt>
      <trkpt lat="42.2728" lon="2.29774">
        <ele>1246</ele>
        <time>2010-01-01T02:32:21Z</time>
      </trkpt>
      <trkpt lat="42.27284" lon="2.2977">
        <ele>1245</ele>
        <time>2010-01-01T02:32:23Z</time>
      </trkpt>
      <trkpt lat="42.27288" lon="2.29766">
        <ele>1245</ele>
        <time>2010-01-01T02:32:25Z</time>
      </trkpt>
      <trkpt lat="42.27291" lon="2.29763">
        <ele>1244</ele>
        <time>2010-01-01T02:32:27Z</time>
      </trkpt>
      <trkpt lat="42.27295" lon="2.29759">
        <ele>1244</ele>
        <time>2010-01-01T02:32:28Z</time>
      </trkpt>
      <trkpt lat="42.27298" lon="2.29755">
        <ele>1244</ele>
        <time>2010-01-01T02:32:30Z</time>
      </trkpt>
      <trkpt lat="42.27301" lon="2.29752">
        <ele>1243</ele>
        <time>2010-01-01T02:32:32Z</time>
      </trkpt>
      <trkpt lat="42.27306" lon="2.29749">
        <ele>1242</ele>
        <time>2010-01-01T02:32:34Z</time>
      </trkpt>
      <trkpt lat="42.27309" lon="2.29747">
        <ele>1242</ele>
        <time>2010-01-01T02:32:35Z</time>
      </trkpt>
      <trkpt lat="42.27311" lon="2.29744">
        <ele>1242</ele>
        <time>2010-01-01T02:32:36Z</time>
      </trkpt>
      <trkpt lat="42.27313" lon="2.29741">
        <ele>1242</ele>
        <time>2010-01-01T02:32:37Z</time>
      </trkpt>
      <trkpt lat="42.27316" lon="2.29737">
        <ele>1241</ele>
        <time>2010-01-01T02:32:39Z</time>
      </trkpt>
      <trkpt lat="42.27318" lon="2.29733">
        <ele>1241</ele>
        <time>2010-01-01T02:32:41Z</time>
      </trkpt>
      <trkpt lat="42.27322" lon="2.2973">
        <ele>1241</ele>
        <time>2010-01-01T02:32:42Z</time>
      </trkpt>
      <trkpt lat="42.27325" lon="2.29728">
        <ele>1240</ele>
        <time>2010-01-01T02:32:44Z</time>
      </trkpt>
      <trkpt lat="42.27329" lon="2.29726">
        <ele>1240</ele>
        <time>2010-01-01T02:32:46Z</time>
      </trkpt>
      <trkpt lat="42.27334" lon="2.29725">
        <ele>1240</ele>
        <time>2010-01-01T02:32:48Z</time>
      </trkpt>
      <trkpt lat="42.27339" lon="2.29724">
        <ele>1239</ele>
        <time>2010-01-01T02:32:50Z</time>
      </trkpt>
      <trkpt lat="42.27344" lon="2.29723">
        <ele>1239</ele>
        <time>2010-01-01T02:32:51Z</time>
      </trkpt>
      <trkpt lat="42.27349" lon="2.29722">
        <ele>1238</ele>
        <time>2010-01-01T02:32:53Z</time>
      </trkpt>
      <trkpt lat="42.27353" lon="2.29724">
        <ele>1238</ele>
        <time>2010-01-01T02:32:55Z</time>
      </trkpt>
      <trkpt lat="42.27357" lon="2.29727">
        <ele>1238</ele>
        <time>2010-01-01T02:32:57Z</time>
      </trkpt>
      <trkpt lat="42.27361" lon="2.29728">
        <ele>1238</ele>
        <time>2010-01-01T02:32:59Z</time>
      </trkpt>
      <trkpt lat="42.27365" lon="2.29726">
        <ele>1238</ele>
        <time>2010-01-01T02:33:00Z</time>
      </trkpt>
      <trkpt lat="42.2737" lon="2.29724">
        <ele>1238</ele>
        <time>2010-01-01T02:33:02Z</time>
      </trkpt>
      <trkpt lat="42.27374" lon="2.29722">
        <ele>1238</ele>
        <time>2010-01-01T02:33:04Z</time>
      </trkpt>
      <trkpt lat="42.27377" lon="2.29721">
        <ele>1238</ele>
        <time>2010-01-01T02:33:06Z</time>
      </trkpt>
      <trkpt lat="42.27383" lon="2.29718">
        <ele>1238</ele>
        <time>2010-01-01T02:33:08Z</time>
      </trkpt>
      <trkpt lat="42.27386" lon="2.29718">
        <ele>1239</ele>
        <time>2010-01-01T02:33:09Z</time>
      </trkpt>
      <trkpt lat="42.27389" lon="2.29716">
        <ele>1239</ele>
        <time>2010-01-01T02:33:10Z</time>
      </trkpt>
      <trkpt lat="42.27391" lon="2.29715">
        <ele>1239</ele>
        <time>2010-01-01T02:33:11Z</time>
      </trkpt>
      <trkpt lat="42.27393" lon="2.29714">
        <ele>1240</ele>
        <time>2010-01-01T02:33:12Z</time>
      </trkpt>
      <trkpt lat="42.27396" lon="2.29713">
        <ele>1240</ele>
        <time>2010-01-01T02:33:13Z</time>
      </trkpt>
      <trkpt lat="42.27399" lon="2.29713">
        <ele>1240</ele>
        <time>2010-01-01T02:33:14Z</time>
      </trkpt>
      <trkpt lat="42.27402" lon="2.29713">
        <ele>1241</ele>
        <time>2010-01-01T02:33:16Z</time>
      </trkpt>
      <trkpt lat="42.27405" lon="2.29713">
        <ele>1241</ele>
        <time>2010-01-01T02:33:17Z</time>
      </trkpt>
      <trkpt lat="42.27408" lon="2.29712">
        <ele>1242</ele>
        <time>2010-01-01T02:33:18Z</time>
      </trkpt>
      <trkpt lat="42.27411" lon="2.29711">
        <ele>1242</ele>
        <time>2010-01-01T02:33:19Z</time>
      </trkpt>
      <trkpt lat="42.27415" lon="2.2971">
        <ele>1243</ele>
        <time>2010-01-01T02:33:21Z</time>
      </trkpt>
      <trkpt lat="42.27418" lon="2.2971">
        <ele>1244</ele>
        <time>2010-01-01T02:33:22Z</time>
      </trkpt>
      <trkpt lat="42.27422" lon="2.29709">
        <ele>1245</ele>
        <time>2010-01-01T02:33:24Z</time>
      </trkpt>
      <trkpt lat="42.27425" lon="2.29708">
        <ele>1246</ele>
        <time>2010-01-01T02:33:25Z</time>
      </trkpt>
      <trkpt lat="42.27428" lon="2.29708">
        <ele>1247</ele>
        <time>2010-01-01T02:33:26Z</time>
      </trkpt>
      <trkpt lat="42.27433" lon="2.29707">
        <ele>1248</ele>
        <time>2010-01-01T02:33:28Z</time>
      </trkpt>
      <trkpt lat="42.27437" lon="2.29708">
        <ele>1249</ele>
        <time>2010-01-01T02:33:30Z</time>
      </trkpt>
      <trkpt lat="42.27441" lon="2.29708">
        <ele>1250</ele>
        <time>2010-01-01T02:33:32Z</time>
      </trkpt>
      <trkpt lat="42.27444" lon="2.2971">
        <ele>1250</ele>
        <time>2010-01-01T02:33:33Z</time>
      </trkpt>
      <trkpt lat="42.27447" lon="2.29711">
        <ele>1251</ele>
        <time>2010-01-01T02:33:34Z</time>
      </trkpt>
      <trkpt lat="42.27452" lon="2.29712">
        <ele>1252</ele>
        <time>2010-01-01T02:33:36Z</time>
      </trkpt>
      <trkpt lat="42.27455" lon="2.29713">
        <ele>1252</ele>
        <time>2010-01-01T02:33:37Z</time>
      </trkpt>
      <trkpt lat="42.27457" lon="2.29713">
        <ele>1253</ele>
        <time>2010-01-01T02:33:38Z</time>
      </trkpt>
      <trkpt lat="42.2746" lon="2.29713">
        <ele>1254</ele>
        <time>2010-01-01T02:33:39Z</time>
      </trkpt>
      <trkpt lat="42.27462" lon="2.29713">
        <ele>1254</ele>
        <time>2010-01-01T02:33:40Z</time>
      </trkpt>
      <trkpt lat="42.27464" lon="2.29716">
        <ele>1255</ele>
        <time>2010-01-01T02:33:41Z</time>
      </trkpt>
      <trkpt lat="42.27466" lon="2.29718">
        <ele>1254</ele>
        <time>2010-01-01T02:33:42Z</time>
      </trkpt>
      <trkpt lat="42.27467" lon="2.29721">
        <ele>1254</ele>
        <time>2010-01-01T02:33:43Z</time>
      </trkpt>
      <trkpt lat="42.27468" lon="2.29725">
        <ele>1254</ele>
        <time>2010-01-01T02:33:45Z</time>
      </trkpt>
      <trkpt lat="42.27468" lon="2.29729">
        <ele>1253</ele>
        <time>2010-01-01T02:33:46Z</time>
      </trkpt>
      <trkpt lat="42.27469" lon="2.29733">
        <ele>1252</ele>
        <time>2010-01-01T02:33:47Z</time>
      </trkpt>
      <trkpt lat="42.27472" lon="2.29739">
        <ele>1252</ele>
        <time>2010-01-01T02:33:49Z</time>
      </trkpt>
      <trkpt lat="42.27474" lon="2.29741">
        <ele>1252</ele>
        <time>2010-01-01T02:33:50Z</time>
      </trkpt>
      <trkpt lat="42.27476" lon="2.29744">
        <ele>1253</ele>
        <time>2010-01-01T02:33:51Z</time>
      </trkpt>
      <trkpt lat="42.27478" lon="2.29746">
        <ele>1253</ele>
        <time>2010-01-01T02:33:52Z</time>
      </trkpt>
      <trkpt lat="42.2748" lon="2.29748">
        <ele>1253</ele>
        <time>2010-01-01T02:33:53Z</time>
      </trkpt>
      <trkpt lat="42.27483" lon="2.2975">
        <ele>1254</ele>
        <time>2010-01-01T02:33:55Z</time>
      </trkpt>
      <trkpt lat="42.27486" lon="2.29753">
        <ele>1255</ele>
        <time>2010-01-01T02:33:56Z</time>
      </trkpt>
      <trkpt lat="42.27488" lon="2.29756">
        <ele>1255</ele>
        <time>2010-01-01T02:33:57Z</time>
      </trkpt>
      <trkpt lat="42.27491" lon="2.29757">
        <ele>1256</ele>
        <time>2010-01-01T02:33:58Z</time>
      </trkpt>
      <trkpt lat="42.27494" lon="2.29759">
        <ele>1257</ele>
        <time>2010-01-01T02:34:00Z</time>
      </trkpt>
      <trkpt lat="42.27496" lon="2.2976">
        <ele>1258</ele>
        <time>2010-01-01T02:34:01Z</time>
      </trkpt>
      <trkpt lat="42.27499" lon="2.29763">
        <ele>1259</ele>
        <time>2010-01-01T02:34:02Z</time>
      </trkpt>
      <trkpt lat="42.27501" lon="2.29766">
        <ele>1260</ele>
        <time>2010-01-01T02:34:03Z</time>
      </trkpt>
      <trkpt lat="42.27503" lon="2.29769">
        <ele>1260</ele>
        <time>2010-01-01T02:34:05Z</time>
      </trkpt>
      <trkpt lat="42.27505" lon="2.29773">
        <ele>1260</ele>
        <time>2010-01-01T02:34:06Z</time>
      </trkpt>
      <trkpt lat="42.27506" lon="2.29777">
        <ele>1259</ele>
        <time>2010-01-01T02:34:07Z</time>
      </trkpt>
      <trkpt lat="42.27508" lon="2.29781">
        <ele>1259</ele>
        <time>2010-01-01T02:34:09Z</time>
      </trkpt>
      <trkpt lat="42.2751" lon="2.29784">
        <ele>1259</ele>
        <time>2010-01-01T02:34:10Z</time>
      </trkpt>
      <trkpt lat="42.27512" lon="2.29789">
        <ele>1258</ele>
        <time>2010-01-01T02:34:11Z</time>
      </trkpt>
      <trkpt lat="42.27516" lon="2.29793">
        <ele>1258</ele>
        <time>2010-01-01T02:34:13Z</time>
      </trkpt>
      <trkpt lat="42.27518" lon="2.29796">
        <ele>1258</ele>
        <time>2010-01-01T02:34:15Z</time>
      </trkpt>
      <trkpt lat="42.27522" lon="2.29799">
        <ele>1259</ele>
        <time>2010-01-01T02:34:16Z</time>
      </trkpt>
      <trkpt lat="42.27526" lon="2.29804">
        <ele>1259</ele>
        <time>2010-01-01T02:34:18Z</time>
      </trkpt>
      <trkpt lat="42.27527" lon="2.29807">
        <ele>1259</ele>
        <time>2010-01-01T02:34:20Z</time>
      </trkpt>
      <trkpt lat="42.27529" lon="2.29811">
        <ele>1257</ele>
        <time>2010-01-01T02:34:21Z</time>
      </trkpt>
      <trkpt lat="42.27531" lon="2.29815">
        <ele>1256</ele>
        <time>2010-01-01T02:34:22Z</time>
      </trkpt>
      <trkpt lat="42.27532" lon="2.29817">
        <ele>1255</ele>
        <time>2010-01-01T02:34:23Z</time>
      </trkpt>
      <trkpt lat="42.27535" lon="2.29818">
        <ele>1255</ele>
        <time>2010-01-01T02:34:24Z</time>
      </trkpt>
      <trkpt lat="42.27537" lon="2.2982">
        <ele>1254</ele>
        <time>2010-01-01T02:34:25Z</time>
      </trkpt>
      <trkpt lat="42.2754" lon="2.2982">
        <ele>1254</ele>
        <time>2010-01-01T02:34:27Z</time>
      </trkpt>
      <trkpt lat="42.27543" lon="2.2982">
        <ele>1254</ele>
        <time>2010-01-01T02:34:28Z</time>
      </trkpt>
      <trkpt lat="42.27544" lon="2.29822">
        <ele>1254</ele>
        <time>2010-01-01T02:34:28Z</time>
      </trkpt>
      <trkpt lat="42.27546" lon="2.29822">
        <ele>1254</ele>
        <time>2010-01-01T02:34:29Z</time>
      </trkpt>
      <trkpt lat="42.27548" lon="2.29823">
        <ele>1254</ele>
        <time>2010-01-01T02:34:30Z</time>
      </trkpt>
      <trkpt lat="42.2755" lon="2.29824">
        <ele>1254</ele>
        <time>2010-01-01T02:34:31Z</time>
      </trkpt>
      <trkpt lat="42.27553" lon="2.29823">
        <ele>1254</ele>
        <time>2010-01-01T02:34:32Z</time>
      </trkpt>
      <trkpt lat="42.27555" lon="2.29821">
        <ele>1254</ele>
        <time>2010-01-01T02:34:33Z</time>
      </trkpt>
      <trkpt lat="42.27557" lon="2.2982">
        <ele>1255</ele>
        <time>2010-01-01T02:34:34Z</time>
      </trkpt>
      <trkpt lat="42.27559" lon="2.29818">
        <ele>1255</ele>
        <time>2010-01-01T02:34:35Z</time>
      </trkpt>
      <trkpt lat="42.27562" lon="2.29816">
        <ele>1255</ele>
        <time>2010-01-01T02:34:36Z</time>
      </trkpt>
      <trkpt lat="42.27563" lon="2.29815">
        <ele>1255</ele>
        <time>2010-01-01T02:34:37Z</time>
      </trkpt>
      <trkpt lat="42.27565" lon="2.29812">
        <ele>1255</ele>
        <time>2010-01-01T02:34:38Z</time>
      </trkpt>
      <trkpt lat="42.27566" lon="2.29811">
        <ele>1256</ele>
        <time>2010-01-01T02:34:38Z</time>
      </trkpt>
      <trkpt lat="42.27569" lon="2.29809">
        <ele>1256</ele>
        <time>2010-01-01T02:34:40Z</time>
      </trkpt>
      <trkpt lat="42.2757" lon="2.29807">
        <ele>1256</ele>
        <time>2010-01-01T02:34:40Z</time>
      </trkpt>
      <trkpt lat="42.27571" lon="2.29805">
        <ele>1256</ele>
        <time>2010-01-01T02:34:41Z</time>
      </trkpt>
      <trkpt lat="42.27572" lon="2.29803">
        <ele>1257</ele>
        <time>2010-01-01T02:34:42Z</time>
      </trkpt>
      <trkpt lat="42.27574" lon="2.298">
        <ele>1257</ele>
        <time>2010-01-01T02:34:43Z</time>
      </trkpt>
      <trkpt lat="42.27576" lon="2.29797">
        <ele>1257</ele>
        <time>2010-01-01T02:34:44Z</time>
      </trkpt>
      <trkpt lat="42.27577" lon="2.29794">
        <ele>1257</ele>
        <time>2010-01-01T02:34:45Z</time>
      </trkpt>
      <trkpt lat="42.27578" lon="2.2979">
        <ele>1258</ele>
        <time>2010-01-01T02:34:46Z</time>
      </trkpt>
      <trkpt lat="42.27578" lon="2.29787">
        <ele>1258</ele>
        <time>2010-01-01T02:34:47Z</time>
      </trkpt>
      <trkpt lat="42.27579" lon="2.29784">
        <ele>1258</ele>
        <time>2010-01-01T02:34:48Z</time>
      </trkpt>
      <trkpt lat="42.27581" lon="2.29782">
        <ele>1258</ele>
        <time>2010-01-01T02:34:49Z</time>
      </trkpt>
      <trkpt lat="42.27582" lon="2.29779">
        <ele>1258</ele>
        <time>2010-01-01T02:34:50Z</time>
      </trkpt>
      <trkpt lat="42.27584" lon="2.29778">
        <ele>1257</ele>
        <time>2010-01-01T02:34:51Z</time>
      </trkpt>
      <trkpt lat="42.27587" lon="2.29775">
        <ele>1258</ele>
        <time>2010-01-01T02:34:52Z</time>
      </trkpt>
      <trkpt lat="42.27589" lon="2.29772">
        <ele>1259</ele>
        <time>2010-01-01T02:34:53Z</time>
      </trkpt>
      <trkpt lat="42.27591" lon="2.29769">
        <ele>1260</ele>
        <time>2010-01-01T02:34:55Z</time>
      </trkpt>
      <trkpt lat="42.27592" lon="2.29765">
        <ele>1260</ele>
        <time>2010-01-01T02:34:56Z</time>
      </trkpt>
      <trkpt lat="42.27593" lon="2.29762">
        <ele>1261</ele>
        <time>2010-01-01T02:34:57Z</time>
      </trkpt>
      <trkpt lat="42.27595" lon="2.29758">
        <ele>1262</ele>
        <time>2010-01-01T02:34:58Z</time>
      </trkpt>
      <trkpt lat="42.27598" lon="2.29754">
        <ele>1263</ele>
        <time>2010-01-01T02:35:00Z</time>
      </trkpt>
      <trkpt lat="42.27601" lon="2.29749">
        <ele>1263</ele>
        <time>2010-01-01T02:35:02Z</time>
      </trkpt>
      <trkpt lat="42.27603" lon="2.29746">
        <ele>1264</ele>
        <time>2010-01-01T02:35:03Z</time>
      </trkpt>
      <trkpt lat="42.27604" lon="2.29743">
        <ele>1264</ele>
        <time>2010-01-01T02:35:04Z</time>
      </trkpt>
      <trkpt lat="42.27605" lon="2.2974">
        <ele>1265</ele>
        <time>2010-01-01T02:35:05Z</time>
      </trkpt>
      <trkpt lat="42.27608" lon="2.29737">
        <ele>1265</ele>
        <time>2010-01-01T02:35:06Z</time>
      </trkpt>
      <trkpt lat="42.2761" lon="2.29734">
        <ele>1266</ele>
        <time>2010-01-01T02:35:08Z</time>
      </trkpt>
      <trkpt lat="42.27613" lon="2.2973">
        <ele>1266</ele>
        <time>2010-01-01T02:35:09Z</time>
      </trkpt>
      <trkpt lat="42.27616" lon="2.29726">
        <ele>1267</ele>
        <time>2010-01-01T02:35:11Z</time>
      </trkpt>
      <trkpt lat="42.27618" lon="2.29721">
        <ele>1268</ele>
        <time>2010-01-01T02:35:13Z</time>
      </trkpt>
      <trkpt lat="42.2762" lon="2.29717">
        <ele>1268</ele>
        <time>2010-01-01T02:35:14Z</time>
      </trkpt>
      <trkpt lat="42.27621" lon="2.2971">
        <ele>1269</ele>
        <time>2010-01-01T02:35:16Z</time>
      </trkpt>
      <trkpt lat="42.27622" lon="2.29707">
        <ele>1270</ele>
        <time>2010-01-01T02:35:17Z</time>
      </trkpt>
      <trkpt lat="42.27622" lon="2.29704">
        <ele>1270</ele>
        <time>2010-01-01T02:35:18Z</time>
      </trkpt>
      <trkpt lat="42.27624" lon="2.29701">
        <ele>1270</ele>
        <time>2010-01-01T02:35:19Z</time>
      </trkpt>
      <trkpt lat="42.27625" lon="2.29698">
        <ele>1270</ele>
        <time>2010-01-01T02:35:20Z</time>
      </trkpt>
      <trkpt lat="42.27627" lon="2.29695">
        <ele>1270</ele>
        <time>2010-01-01T02:35:21Z</time>
      </trkpt>
      <trkpt lat="42.27628" lon="2.29692">
        <ele>1270</ele>
        <time>2010-01-01T02:35:22Z</time>
      </trkpt>
      <trkpt lat="42.27629" lon="2.29688">
        <ele>1271</ele>
        <time>2010-01-01T02:35:24Z</time>
      </trkpt>
      <trkpt lat="42.2763" lon="2.29685">
        <ele>1271</ele>
        <time>2010-01-01T02:35:25Z</time>
      </trkpt>
      <trkpt lat="42.27631" lon="2.29681">
        <ele>1271</ele>
        <time>2010-01-01T02:35:26Z</time>
      </trkpt>
      <trkpt lat="42.27632" lon="2.29679">
        <ele>1271</ele>
        <time>2010-01-01T02:35:27Z</time>
      </trkpt>
      <trkpt lat="42.27634" lon="2.29676">
        <ele>1271</ele>
        <time>2010-01-01T02:35:28Z</time>
      </trkpt>
      <trkpt lat="42.27635" lon="2.29674">
        <ele>1271</ele>
        <time>2010-01-01T02:35:28Z</time>
      </trkpt>
      <trkpt lat="42.27636" lon="2.29672">
        <ele>1271</ele>
        <time>2010-01-01T02:35:29Z</time>
      </trkpt>
      <trkpt lat="42.27638" lon="2.29671">
        <ele>1270</ele>
        <time>2010-01-01T02:35:30Z</time>
      </trkpt>
      <trkpt lat="42.2764" lon="2.29669">
        <ele>1270</ele>
        <time>2010-01-01T02:35:31Z</time>
      </trkpt>
      <trkpt lat="42.27641" lon="2.29667">
        <ele>1269</ele>
        <time>2010-01-01T02:35:32Z</time>
      </trkpt>
      <trkpt lat="42.27644" lon="2.29666">
        <ele>1269</ele>
        <time>2010-01-01T02:35:33Z</time>
      </trkpt>
      <trkpt lat="42.27647" lon="2.29664">
        <ele>1268</ele>
        <time>2010-01-01T02:35:34Z</time>
      </trkpt>
      <trkpt lat="42.2765" lon="2.29662">
        <ele>1267</ele>
        <time>2010-01-01T02:35:35Z</time>
      </trkpt>
      <trkpt lat="42.27652" lon="2.29658">
        <ele>1266</ele>
        <time>2010-01-01T02:35:37Z</time>
      </trkpt>
      <trkpt lat="42.27656" lon="2.29657">
        <ele>1265</ele>
        <time>2010-01-01T02:35:39Z</time>
      </trkpt>
      <trkpt lat="42.2766" lon="2.29657">
        <ele>1264</ele>
        <time>2010-01-01T02:35:40Z</time>
      </trkpt>
      <trkpt lat="42.27662" lon="2.29657">
        <ele>1263</ele>
        <time>2010-01-01T02:35:41Z</time>
      </trkpt>
      <trkpt lat="42.27666" lon="2.29655">
        <ele>1262</ele>
        <time>2010-01-01T02:35:42Z</time>
      </trkpt>
      <trkpt lat="42.2767" lon="2.29651">
        <ele>1262</ele>
        <time>2010-01-01T02:35:45Z</time>
      </trkpt>
      <trkpt lat="42.27675" lon="2.29648">
        <ele>1262</ele>
        <time>2010-01-01T02:35:47Z</time>
      </trkpt>
      <trkpt lat="42.27679" lon="2.29647">
        <ele>1262</ele>
        <time>2010-01-01T02:35:48Z</time>
      </trkpt>
      <trkpt lat="42.27682" lon="2.29646">
        <ele>1262</ele>
        <time>2010-01-01T02:35:50Z</time>
      </trkpt>
      <trkpt lat="42.27687" lon="2.29642">
        <ele>1262</ele>
        <time>2010-01-01T02:35:52Z</time>
      </trkpt>
      <trkpt lat="42.2769" lon="2.2964">
        <ele>1262</ele>
        <time>2010-01-01T02:35:53Z</time>
      </trkpt>
      <trkpt lat="42.27694" lon="2.29637">
        <ele>1263</ele>
        <time>2010-01-01T02:35:55Z</time>
      </trkpt>
      <trkpt lat="42.27697" lon="2.29633">
        <ele>1263</ele>
        <time>2010-01-01T02:35:57Z</time>
      </trkpt>
      <trkpt lat="42.277" lon="2.29629">
        <ele>1264</ele>
        <time>2010-01-01T02:35:58Z</time>
      </trkpt>
      <trkpt lat="42.27703" lon="2.29626">
        <ele>1264</ele>
        <time>2010-01-01T02:36:00Z</time>
      </trkpt>
      <trkpt lat="42.27707" lon="2.29623">
        <ele>1265</ele>
        <time>2010-01-01T02:36:02Z</time>
      </trkpt>
      <trkpt lat="42.2771" lon="2.29621">
        <ele>1265</ele>
        <time>2010-01-01T02:36:03Z</time>
      </trkpt>
      <trkpt lat="42.27715" lon="2.29619">
        <ele>1266</ele>
        <time>2010-01-01T02:36:05Z</time>
      </trkpt>
      <trkpt lat="42.27719" lon="2.29616">
        <ele>1266</ele>
        <time>2010-01-01T02:36:07Z</time>
      </trkpt>
      <trkpt lat="42.27722" lon="2.29613">
        <ele>1266</ele>
        <time>2010-01-01T02:36:09Z</time>
      </trkpt>
      <trkpt lat="42.27726" lon="2.2961">
        <ele>1267</ele>
        <time>2010-01-01T02:36:10Z</time>
      </trkpt>
      <trkpt lat="42.2773" lon="2.29608">
        <ele>1268</ele>
        <time>2010-01-01T02:36:12Z</time>
      </trkpt>
      <trkpt lat="42.27731" lon="2.29605">
        <ele>1268</ele>
        <time>2010-01-01T02:36:13Z</time>
      </trkpt>
      <trkpt lat="42.27733" lon="2.29603">
        <ele>1269</ele>
        <time>2010-01-01T02:36:14Z</time>
      </trkpt>
      <trkpt lat="42.27735" lon="2.29604">
        <ele>1269</ele>
        <time>2010-01-01T02:36:15Z</time>
      </trkpt>
      <trkpt lat="42.27736" lon="2.29606">
        <ele>1269</ele>
        <time>2010-01-01T02:36:16Z</time>
      </trkpt>
      <trkpt lat="42.27738" lon="2.29608">
        <ele>1270</ele>
        <time>2010-01-01T02:36:17Z</time>
      </trkpt>
      <trkpt lat="42.27741" lon="2.29608">
        <ele>1270</ele>
        <time>2010-01-01T02:36:18Z</time>
      </trkpt>
      <trkpt lat="42.27743" lon="2.29608">
        <ele>1270</ele>
        <time>2010-01-01T02:36:18Z</time>
      </trkpt>
      <trkpt lat="42.27745" lon="2.29606">
        <ele>1271</ele>
        <time>2010-01-01T02:36:19Z</time>
      </trkpt>
      <trkpt lat="42.27747" lon="2.29604">
        <ele>1271</ele>
        <time>2010-01-01T02:36:21Z</time>
      </trkpt>
      <trkpt lat="42.2775" lon="2.29603">
        <ele>1272</ele>
        <time>2010-01-01T02:36:22Z</time>
      </trkpt>
      <trkpt lat="42.27752" lon="2.29602">
        <ele>1272</ele>
        <time>2010-01-01T02:36:22Z</time>
      </trkpt>
      <trkpt lat="42.27753" lon="2.29599">
        <ele>1273</ele>
        <time>2010-01-01T02:36:24Z</time>
      </trkpt>
      <trkpt lat="42.27754" lon="2.29595">
        <ele>1273</ele>
        <time>2010-01-01T02:36:25Z</time>
      </trkpt>
      <trkpt lat="42.27756" lon="2.29594">
        <ele>1274</ele>
        <time>2010-01-01T02:36:26Z</time>
      </trkpt>
      <trkpt lat="42.27758" lon="2.29591">
        <ele>1274</ele>
        <time>2010-01-01T02:36:27Z</time>
      </trkpt>
      <trkpt lat="42.2776" lon="2.29589">
        <ele>1275</ele>
        <time>2010-01-01T02:36:28Z</time>
      </trkpt>
      <trkpt lat="42.27761" lon="2.29587">
        <ele>1276</ele>
        <time>2010-01-01T02:36:28Z</time>
      </trkpt>
      <trkpt lat="42.27764" lon="2.29586">
        <ele>1276</ele>
        <time>2010-01-01T02:36:29Z</time>
      </trkpt>
      <trkpt lat="42.27766" lon="2.29585">
        <ele>1277</ele>
        <time>2010-01-01T02:36:31Z</time>
      </trkpt>
      <trkpt lat="42.27769" lon="2.29585">
        <ele>1278</ele>
        <time>2010-01-01T02:36:32Z</time>
      </trkpt>
      <trkpt lat="42.27772" lon="2.29584">
        <ele>1279</ele>
        <time>2010-01-01T02:36:33Z</time>
      </trkpt>
      <trkpt lat="42.27773" lon="2.29582">
        <ele>1279</ele>
        <time>2010-01-01T02:36:34Z</time>
      </trkpt>
      <trkpt lat="42.27774" lon="2.2958">
        <ele>1280</ele>
        <time>2010-01-01T02:36:34Z</time>
      </trkpt>
      <trkpt lat="42.27776" lon="2.29577">
        <ele>1281</ele>
        <time>2010-01-01T02:36:35Z</time>
      </trkpt>
      <trkpt lat="42.27779" lon="2.29574">
        <ele>1282</ele>
        <time>2010-01-01T02:36:37Z</time>
      </trkpt>
      <trkpt lat="42.27781" lon="2.29573">
        <ele>1282</ele>
        <time>2010-01-01T02:36:38Z</time>
      </trkpt>
      <trkpt lat="42.27783" lon="2.29571">
        <ele>1283</ele>
        <time>2010-01-01T02:36:39Z</time>
      </trkpt>
      <trkpt lat="42.27785" lon="2.2957">
        <ele>1284</ele>
        <time>2010-01-01T02:36:40Z</time>
      </trkpt>
      <trkpt lat="42.27787" lon="2.29568">
        <ele>1284</ele>
        <time>2010-01-01T02:36:41Z</time>
      </trkpt>
      <trkpt lat="42.27789" lon="2.29566">
        <ele>1285</ele>
        <time>2010-01-01T02:36:42Z</time>
      </trkpt>
      <trkpt lat="42.27791" lon="2.29564">
        <ele>1285</ele>
        <time>2010-01-01T02:36:43Z</time>
      </trkpt>
      <trkpt lat="42.27794" lon="2.29563">
        <ele>1286</ele>
        <time>2010-01-01T02:36:44Z</time>
      </trkpt>
      <trkpt lat="42.27796" lon="2.29563">
        <ele>1287</ele>
        <time>2010-01-01T02:36:44Z</time>
      </trkpt>
      <trkpt lat="42.27798" lon="2.29563">
        <ele>1287</ele>
        <time>2010-01-01T02:36:45Z</time>
      </trkpt>
      <trkpt lat="42.27801" lon="2.29562">
        <ele>1288</ele>
        <time>2010-01-01T02:36:46Z</time>
      </trkpt>
      <trkpt lat="42.27802" lon="2.29561">
        <ele>1288</ele>
        <time>2010-01-01T02:36:47Z</time>
      </trkpt>
      <trkpt lat="42.27804" lon="2.29559">
        <ele>1289</ele>
        <time>2010-01-01T02:36:48Z</time>
      </trkpt>
      <trkpt lat="42.27806" lon="2.29558">
        <ele>1289</ele>
        <time>2010-01-01T02:36:49Z</time>
      </trkpt>
      <trkpt lat="42.27808" lon="2.29557">
        <ele>1290</ele>
        <time>2010-01-01T02:36:50Z</time>
      </trkpt>
      <trkpt lat="42.2781" lon="2.29556">
        <ele>1291</ele>
        <time>2010-01-01T02:36:51Z</time>
      </trkpt>
      <trkpt lat="42.27812" lon="2.29555">
        <ele>1292</ele>
        <time>2010-01-01T02:36:52Z</time>
      </trkpt>
      <trkpt lat="42.27815" lon="2.29554">
        <ele>1293</ele>
        <time>2010-01-01T02:36:52Z</time>
      </trkpt>
      <trkpt lat="42.27817" lon="2.29553">
        <ele>1294</ele>
        <time>2010-01-01T02:36:53Z</time>
      </trkpt>
      <trkpt lat="42.27819" lon="2.29552">
        <ele>1294</ele>
        <time>2010-01-01T02:36:54Z</time>
      </trkpt>
      <trkpt lat="42.27821" lon="2.29549">
        <ele>1295</ele>
        <time>2010-01-01T02:36:55Z</time>
      </trkpt>
      <trkpt lat="42.27822" lon="2.29547">
        <ele>1296</ele>
        <time>2010-01-01T02:36:56Z</time>
      </trkpt>
      <trkpt lat="42.27825" lon="2.29547">
        <ele>1297</ele>
        <time>2010-01-01T02:36:57Z</time>
      </trkpt>
      <trkpt lat="42.27827" lon="2.29546">
        <ele>1298</ele>
        <time>2010-01-01T02:36:58Z</time>
      </trkpt>
      <trkpt lat="42.27829" lon="2.29544">
        <ele>1299</ele>
        <time>2010-01-01T02:36:59Z</time>
      </trkpt>
      <trkpt lat="42.2783" lon="2.29541">
        <ele>1300</ele>
        <time>2010-01-01T02:37:00Z</time>
      </trkpt>
      <trkpt lat="42.27831" lon="2.29538">
        <ele>1300</ele>
        <time>2010-01-01T02:37:01Z</time>
      </trkpt>
      <trkpt lat="42.27832" lon="2.29534">
        <ele>1301</ele>
        <time>2010-01-01T02:37:02Z</time>
      </trkpt>
      <trkpt lat="42.27832" lon="2.29531">
        <ele>1302</ele>
        <time>2010-01-01T02:37:03Z</time>
      </trkpt>
      <trkpt lat="42.27834" lon="2.29528">
        <ele>1303</ele>
        <time>2010-01-01T02:37:04Z</time>
      </trkpt>
      <trkpt lat="42.27834" lon="2.29525">
        <ele>1303</ele>
        <time>2010-01-01T02:37:05Z</time>
      </trkpt>
      <trkpt lat="42.27834" lon="2.29522">
        <ele>1304</ele>
        <time>2010-01-01T02:37:06Z</time>
      </trkpt>
      <trkpt lat="42.27835" lon="2.29518">
        <ele>1305</ele>
        <time>2010-01-01T02:37:07Z</time>
      </trkpt>
      <trkpt lat="42.27835" lon="2.29516">
        <ele>1305</ele>
        <time>2010-01-01T02:37:08Z</time>
      </trkpt>
      <trkpt lat="42.27835" lon="2.29513">
        <ele>1305</ele>
        <time>2010-01-01T02:37:09Z</time>
      </trkpt>
      <trkpt lat="42.27834" lon="2.2951">
        <ele>1306</ele>
        <time>2010-01-01T02:37:10Z</time>
      </trkpt>
      <trkpt lat="42.27835" lon="2.29507">
        <ele>1306</ele>
        <time>2010-01-01T02:37:11Z</time>
      </trkpt>
      <trkpt lat="42.27835" lon="2.29505">
        <ele>1307</ele>
        <time>2010-01-01T02:37:11Z</time>
      </trkpt>
      <trkpt lat="42.27837" lon="2.29503">
        <ele>1308</ele>
        <time>2010-01-01T02:37:12Z</time>
      </trkpt>
      <trkpt lat="42.27838" lon="2.29501">
        <ele>1309</ele>
        <time>2010-01-01T02:37:13Z</time>
      </trkpt>
      <trkpt lat="42.27839" lon="2.29499">
        <ele>1309</ele>
        <time>2010-01-01T02:37:14Z</time>
      </trkpt>
      <trkpt lat="42.27841" lon="2.29496">
        <ele>1311</ele>
        <time>2010-01-01T02:37:15Z</time>
      </trkpt>
      <trkpt lat="42.27842" lon="2.29493">
        <ele>1311</ele>
        <time>2010-01-01T02:37:16Z</time>
      </trkpt>
      <trkpt lat="42.27842" lon="2.2949">
        <ele>1312</ele>
        <time>2010-01-01T02:37:17Z</time>
      </trkpt>
      <trkpt lat="42.27841" lon="2.29488">
        <ele>1312</ele>
        <time>2010-01-01T02:37:17Z</time>
      </trkpt>
      <trkpt lat="42.27841" lon="2.29484">
        <ele>1312</ele>
        <time>2010-01-01T02:37:18Z</time>
      </trkpt>
      <trkpt lat="42.27841" lon="2.29481">
        <ele>1312</ele>
        <time>2010-01-01T02:37:19Z</time>
      </trkpt>
      <trkpt lat="42.27842" lon="2.29479">
        <ele>1313</ele>
        <time>2010-01-01T02:37:20Z</time>
      </trkpt>
      <trkpt lat="42.27843" lon="2.29477">
        <ele>1314</ele>
        <time>2010-01-01T02:37:21Z</time>
      </trkpt>
      <trkpt lat="42.27845" lon="2.29475">
        <ele>1315</ele>
        <time>2010-01-01T02:37:22Z</time>
      </trkpt>
      <trkpt lat="42.27846" lon="2.29472">
        <ele>1316</ele>
        <time>2010-01-01T02:37:23Z</time>
      </trkpt>
      <trkpt lat="42.27848" lon="2.2947">
        <ele>1317</ele>
        <time>2010-01-01T02:37:24Z</time>
      </trkpt>
      <trkpt lat="42.27849" lon="2.29468">
        <ele>1317</ele>
        <time>2010-01-01T02:37:24Z</time>
      </trkpt>
      <trkpt lat="42.2785" lon="2.29466">
        <ele>1318</ele>
        <time>2010-01-01T02:37:25Z</time>
      </trkpt>
      <trkpt lat="42.27852" lon="2.29463">
        <ele>1319</ele>
        <time>2010-01-01T02:37:26Z</time>
      </trkpt>
      <trkpt lat="42.27853" lon="2.29459">
        <ele>1319</ele>
        <time>2010-01-01T02:37:27Z</time>
      </trkpt>
      <trkpt lat="42.27853" lon="2.29456">
        <ele>1320</ele>
        <time>2010-01-01T02:37:28Z</time>
      </trkpt>
      <trkpt lat="42.27854" lon="2.29453">
        <ele>1320</ele>
        <time>2010-01-01T02:37:29Z</time>
      </trkpt>
      <trkpt lat="42.27855" lon="2.29451">
        <ele>1321</ele>
        <time>2010-01-01T02:37:30Z</time>
      </trkpt>
      <trkpt lat="42.27857" lon="2.2945">
        <ele>1321</ele>
        <time>2010-01-01T02:37:31Z</time>
      </trkpt>
      <trkpt lat="42.27859" lon="2.29449">
        <ele>1322</ele>
        <time>2010-01-01T02:37:32Z</time>
      </trkpt>
      <trkpt lat="42.27861" lon="2.29449">
        <ele>1323</ele>
        <time>2010-01-01T02:37:33Z</time>
      </trkpt>
      <trkpt lat="42.27863" lon="2.29447">
        <ele>1324</ele>
        <time>2010-01-01T02:37:33Z</time>
      </trkpt>
      <trkpt lat="42.27863" lon="2.29444">
        <ele>1325</ele>
        <time>2010-01-01T02:37:34Z</time>
      </trkpt>
      <trkpt lat="42.27864" lon="2.29442">
        <ele>1325</ele>
        <time>2010-01-01T02:37:35Z</time>
      </trkpt>
      <trkpt lat="42.27867" lon="2.29441">
        <ele>1327</ele>
        <time>2010-01-01T02:37:36Z</time>
      </trkpt>
      <trkpt lat="42.2787" lon="2.29442">
        <ele>1328</ele>
        <time>2010-01-01T02:37:37Z</time>
      </trkpt>
      <trkpt lat="42.27872" lon="2.29441">
        <ele>1329</ele>
        <time>2010-01-01T02:37:38Z</time>
      </trkpt>
      <trkpt lat="42.27874" lon="2.2944">
        <ele>1330</ele>
        <time>2010-01-01T02:37:39Z</time>
      </trkpt>
      <trkpt lat="42.27875" lon="2.29438">
        <ele>1331</ele>
        <time>2010-01-01T02:37:40Z</time>
      </trkpt>
      <trkpt lat="42.27876" lon="2.29435">
        <ele>1331</ele>
        <time>2010-01-01T02:37:40Z</time>
      </trkpt>
      <trkpt lat="42.27877" lon="2.29432">
        <ele>1332</ele>
        <time>2010-01-01T02:37:41Z</time>
      </trkpt>
      <trkpt lat="42.27878" lon="2.29431">
        <ele>1333</ele>
        <time>2010-01-01T02:37:42Z</time>
      </trkpt>
      <trkpt lat="42.2788" lon="2.29428">
        <ele>1334</ele>
        <time>2010-01-01T02:37:43Z</time>
      </trkpt>
      <trkpt lat="42.27882" lon="2.29427">
        <ele>1335</ele>
        <time>2010-01-01T02:37:44Z</time>
      </trkpt>
      <trkpt lat="42.27883" lon="2.29425">
        <ele>1336</ele>
        <time>2010-01-01T02:37:45Z</time>
      </trkpt>
      <trkpt lat="42.27885" lon="2.29425">
        <ele>1337</ele>
        <time>2010-01-01T02:37:46Z</time>
      </trkpt>
      <trkpt lat="42.27888" lon="2.29426">
        <ele>1338</ele>
        <time>2010-01-01T02:37:47Z</time>
      </trkpt>
      <trkpt lat="42.2789" lon="2.29425">
        <ele>1339</ele>
        <time>2010-01-01T02:37:47Z</time>
      </trkpt>
      <trkpt lat="42.27892" lon="2.29426">
        <ele>1340</ele>
        <time>2010-01-01T02:37:48Z</time>
      </trkpt>
      <trkpt lat="42.2789" lon="2.29424">
        <ele>1339</ele>
        <time>2010-01-01T02:37:49Z</time>
      </trkpt>
      <trkpt lat="42.27891" lon="2.29426">
        <ele>1340</ele>
        <time>2010-01-01T02:37:50Z</time>
      </trkpt>
      <trkpt lat="42.27893" lon="2.29429">
        <ele>1340</ele>
        <time>2010-01-01T02:37:51Z</time>
      </trkpt>
      <trkpt lat="42.27894" lon="2.29432">
        <ele>1340</ele>
        <time>2010-01-01T02:37:52Z</time>
      </trkpt>
      <trkpt lat="42.27895" lon="2.29435">
        <ele>1340</ele>
        <time>2010-01-01T02:37:53Z</time>
      </trkpt>
      <trkpt lat="42.27897" lon="2.29438">
        <ele>1341</ele>
        <time>2010-01-01T02:37:54Z</time>
      </trkpt>
      <trkpt lat="42.27898" lon="2.29441">
        <ele>1341</ele>
        <time>2010-01-01T02:37:55Z</time>
      </trkpt>
      <trkpt lat="42.27899" lon="2.29443">
        <ele>1341</ele>
        <time>2010-01-01T02:37:56Z</time>
      </trkpt>
      <trkpt lat="42.279" lon="2.29446">
        <ele>1341</ele>
        <time>2010-01-01T02:37:57Z</time>
      </trkpt>
      <trkpt lat="42.27901" lon="2.29448">
        <ele>1341</ele>
        <time>2010-01-01T02:37:57Z</time>
      </trkpt>
      <trkpt lat="42.27903" lon="2.29451">
        <ele>1342</ele>
        <time>2010-01-01T02:37:59Z</time>
      </trkpt>
      <trkpt lat="42.27904" lon="2.29454">
        <ele>1342</ele>
        <time>2010-01-01T02:38:00Z</time>
      </trkpt>
      <trkpt lat="42.27904" lon="2.29458">
        <ele>1341</ele>
        <time>2010-01-01T02:38:01Z</time>
      </trkpt>
      <trkpt lat="42.27904" lon="2.2946">
        <ele>1341</ele>
        <time>2010-01-01T02:38:01Z</time>
      </trkpt>
      <trkpt lat="42.27906" lon="2.29463">
        <ele>1342</ele>
        <time>2010-01-01T02:38:02Z</time>
      </trkpt>
      <trkpt lat="42.27907" lon="2.29465">
        <ele>1342</ele>
        <time>2010-01-01T02:38:03Z</time>
      </trkpt>
      <trkpt lat="42.27908" lon="2.29467">
        <ele>1342</ele>
        <time>2010-01-01T02:38:04Z</time>
      </trkpt>
      <trkpt lat="42.27909" lon="2.2947">
        <ele>1342</ele>
        <time>2010-01-01T02:38:05Z</time>
      </trkpt>
      <trkpt lat="42.27911" lon="2.29472">
        <ele>1343</ele>
        <time>2010-01-01T02:38:06Z</time>
      </trkpt>
      <trkpt lat="42.27913" lon="2.29474">
        <ele>1344</ele>
        <time>2010-01-01T02:38:07Z</time>
      </trkpt>
      <trkpt lat="42.27914" lon="2.29477">
        <ele>1344</ele>
        <time>2010-01-01T02:38:08Z</time>
      </trkpt>
      <trkpt lat="42.27915" lon="2.29478">
        <ele>1344</ele>
        <time>2010-01-01T02:38:08Z</time>
      </trkpt>
      <trkpt lat="42.27917" lon="2.29481">
        <ele>1345</ele>
        <time>2010-01-01T02:38:09Z</time>
      </trkpt>
      <trkpt lat="42.27918" lon="2.29483">
        <ele>1345</ele>
        <time>2010-01-01T02:38:10Z</time>
      </trkpt>
      <trkpt lat="42.27919" lon="2.29485">
        <ele>1345</ele>
        <time>2010-01-01T02:38:11Z</time>
      </trkpt>
      <trkpt lat="42.27921" lon="2.29487">
        <ele>1346</ele>
        <time>2010-01-01T02:38:12Z</time>
      </trkpt>
      <trkpt lat="42.27923" lon="2.29489">
        <ele>1346</ele>
        <time>2010-01-01T02:38:13Z</time>
      </trkpt>
      <trkpt lat="42.27924" lon="2.29491">
        <ele>1347</ele>
        <time>2010-01-01T02:38:14Z</time>
      </trkpt>
      <trkpt lat="42.27926" lon="2.29493">
        <ele>1347</ele>
        <time>2010-01-01T02:38:14Z</time>
      </trkpt>
      <trkpt lat="42.27927" lon="2.29493">
        <ele>1347</ele>
        <time>2010-01-01T02:38:15Z</time>
      </trkpt>
      <trkpt lat="42.27929" lon="2.29495">
        <ele>1348</ele>
        <time>2010-01-01T02:38:16Z</time>
      </trkpt>
      <trkpt lat="42.27927" lon="2.29493">
        <ele>1347</ele>
        <time>2010-01-01T02:38:17Z</time>
      </trkpt>
      <trkpt lat="42.27925" lon="2.29491">
        <ele>1347</ele>
        <time>2010-01-01T02:38:18Z</time>
      </trkpt>
      <trkpt lat="42.27923" lon="2.29489">
        <ele>1346</ele>
        <time>2010-01-01T02:38:19Z</time>
      </trkpt>
      <trkpt lat="42.27925" lon="2.2949">
        <ele>1347</ele>
        <time>2010-01-01T02:38:20Z</time>
      </trkpt>
      <trkpt lat="42.27927" lon="2.29491">
        <ele>1347</ele>
        <time>2010-01-01T02:38:21Z</time>
      </trkpt>
      <trkpt lat="42.27929" lon="2.29492">
        <ele>1348</ele>
        <time>2010-01-01T02:38:21Z</time>
      </trkpt>
      <trkpt lat="42.27931" lon="2.29494">
        <ele>1348</ele>
        <time>2010-01-01T02:38:22Z</time>
      </trkpt>
      <trkpt lat="42.27932" lon="2.29496">
        <ele>1349</ele>
        <time>2010-01-01T02:38:23Z</time>
      </trkpt>
      <trkpt lat="42.27934" lon="2.29498">
        <ele>1349</ele>
        <time>2010-01-01T02:38:24Z</time>
      </trkpt>
      <trkpt lat="42.27936" lon="2.295">
        <ele>1350</ele>
        <time>2010-01-01T02:38:25Z</time>
      </trkpt>
      <trkpt lat="42.27938" lon="2.29503">
        <ele>1350</ele>
        <time>2010-01-01T02:38:26Z</time>
      </trkpt>
      <trkpt lat="42.27939" lon="2.29505">
        <ele>1350</ele>
        <time>2010-01-01T02:38:27Z</time>
      </trkpt>
      <trkpt lat="42.27941" lon="2.29508">
        <ele>1350</ele>
        <time>2010-01-01T02:38:28Z</time>
      </trkpt>
      <trkpt lat="42.27943" lon="2.2951">
        <ele>1350</ele>
        <time>2010-01-01T02:38:29Z</time>
      </trkpt>
      <trkpt lat="42.27945" lon="2.29512">
        <ele>1350</ele>
        <time>2010-01-01T02:38:30Z</time>
      </trkpt>
      <trkpt lat="42.27947" lon="2.29514">
        <ele>1350</ele>
        <time>2010-01-01T02:38:31Z</time>
      </trkpt>
      <trkpt lat="42.27949" lon="2.29517">
        <ele>1350</ele>
        <time>2010-01-01T02:38:32Z</time>
      </trkpt>
      <trkpt lat="42.27952" lon="2.29519">
        <ele>1350</ele>
        <time>2010-01-01T02:38:33Z</time>
      </trkpt>
      <trkpt lat="42.27954" lon="2.29521">
        <ele>1350</ele>
        <time>2010-01-01T02:38:35Z</time>
      </trkpt>
      <trkpt lat="42.27956" lon="2.29523">
        <ele>1350</ele>
        <time>2010-01-01T02:38:36Z</time>
      </trkpt>
      <trkpt lat="42.27959" lon="2.29525">
        <ele>1350</ele>
        <time>2010-01-01T02:38:37Z</time>
      </trkpt>
      <trkpt lat="42.27961" lon="2.29528">
        <ele>1350</ele>
        <time>2010-01-01T02:38:38Z</time>
      </trkpt>
      <trkpt lat="42.27964" lon="2.29529">
        <ele>1350</ele>
        <time>2010-01-01T02:38:39Z</time>
      </trkpt>
      <trkpt lat="42.27967" lon="2.29531">
        <ele>1351</ele>
        <time>2010-01-01T02:38:41Z</time>
      </trkpt>
      <trkpt lat="42.27969" lon="2.29531">
        <ele>1351</ele>
        <time>2010-01-01T02:38:42Z</time>
      </trkpt>
      <trkpt lat="42.27972" lon="2.29531">
        <ele>1352</ele>
        <time>2010-01-01T02:38:43Z</time>
      </trkpt>
      <trkpt lat="42.27975" lon="2.2953">
        <ele>1352</ele>
        <time>2010-01-01T02:38:44Z</time>
      </trkpt>
      <trkpt lat="42.27978" lon="2.2953">
        <ele>1352</ele>
        <time>2010-01-01T02:38:45Z</time>
      </trkpt>
      <trkpt lat="42.2798" lon="2.29528">
        <ele>1353</ele>
        <time>2010-01-01T02:38:46Z</time>
      </trkpt>
      <trkpt lat="42.27982" lon="2.29525">
        <ele>1353</ele>
        <time>2010-01-01T02:38:47Z</time>
      </trkpt>
      <trkpt lat="42.27984" lon="2.29522">
        <ele>1354</ele>
        <time>2010-01-01T02:38:48Z</time>
      </trkpt>
      <trkpt lat="42.27986" lon="2.2952">
        <ele>1354</ele>
        <time>2010-01-01T02:38:49Z</time>
      </trkpt>
      <trkpt lat="42.27988" lon="2.29517">
        <ele>1355</ele>
        <time>2010-01-01T02:38:50Z</time>
      </trkpt>
      <trkpt lat="42.27988" lon="2.29515">
        <ele>1355</ele>
        <time>2010-01-01T02:38:51Z</time>
      </trkpt>
      <trkpt lat="42.27987" lon="2.29512">
        <ele>1356</ele>
        <time>2010-01-01T02:38:52Z</time>
      </trkpt>
      <trkpt lat="42.27986" lon="2.29509">
        <ele>1356</ele>
        <time>2010-01-01T02:38:53Z</time>
      </trkpt>
      <trkpt lat="42.27985" lon="2.29507">
        <ele>1357</ele>
        <time>2010-01-01T02:38:54Z</time>
      </trkpt>
      <trkpt lat="42.27985" lon="2.29504">
        <ele>1357</ele>
        <time>2010-01-01T02:38:54Z</time>
      </trkpt>
      <trkpt lat="42.27985" lon="2.29501">
        <ele>1358</ele>
        <time>2010-01-01T02:38:55Z</time>
      </trkpt>
      <trkpt lat="42.27986" lon="2.29499">
        <ele>1358</ele>
        <time>2010-01-01T02:38:56Z</time>
      </trkpt>
      <trkpt lat="42.27988" lon="2.29498">
        <ele>1358</ele>
        <time>2010-01-01T02:38:57Z</time>
      </trkpt>
      <trkpt lat="42.2799" lon="2.29498">
        <ele>1358</ele>
        <time>2010-01-01T02:38:58Z</time>
      </trkpt>
      <trkpt lat="42.27992" lon="2.295">
        <ele>1358</ele>
        <time>2010-01-01T02:38:59Z</time>
      </trkpt>
      <trkpt lat="42.27994" lon="2.29499">
        <ele>1358</ele>
        <time>2010-01-01T02:39:00Z</time>
      </trkpt>
      <trkpt lat="42.27997" lon="2.29498">
        <ele>1359</ele>
        <time>2010-01-01T02:39:01Z</time>
      </trkpt>
      <trkpt lat="42.28" lon="2.29496">
        <ele>1359</ele>
        <time>2010-01-01T02:39:02Z</time>
      </trkpt>
      <trkpt lat="42.28003" lon="2.29491">
        <ele>1360</ele>
        <time>2010-01-01T02:39:04Z</time>
      </trkpt>
      <trkpt lat="42.28007" lon="2.29487">
        <ele>1360</ele>
        <time>2010-01-01T02:39:06Z</time>
      </trkpt>
      <trkpt lat="42.28011" lon="2.29482">
        <ele>1360</ele>
        <time>2010-01-01T02:39:08Z</time>
      </trkpt>
      <trkpt lat="42.28015" lon="2.29478">
        <ele>1360</ele>
        <time>2010-01-01T02:39:10Z</time>
      </trkpt>
      <trkpt lat="42.2802" lon="2.29474">
        <ele>1360</ele>
        <time>2010-01-01T02:39:12Z</time>
      </trkpt>
      <trkpt lat="42.28025" lon="2.29472">
        <ele>1360</ele>
        <time>2010-01-01T02:39:14Z</time>
      </trkpt>
      <trkpt lat="42.2803" lon="2.29471">
        <ele>1360</ele>
        <time>2010-01-01T02:39:17Z</time>
      </trkpt>
      <trkpt lat="42.28036" lon="2.29473">
        <ele>1360</ele>
        <time>2010-01-01T02:39:19Z</time>
      </trkpt>
      <trkpt lat="42.2804" lon="2.29474">
        <ele>1360</ele>
        <time>2010-01-01T02:39:20Z</time>
      </trkpt>
      <trkpt lat="42.28045" lon="2.29476">
        <ele>1359</ele>
        <time>2010-01-01T02:39:23Z</time>
      </trkpt>
      <trkpt lat="42.28048" lon="2.29477">
        <ele>1359</ele>
        <time>2010-01-01T02:39:24Z</time>
      </trkpt>
      <trkpt lat="42.28051" lon="2.29479">
        <ele>1359</ele>
        <time>2010-01-01T02:39:25Z</time>
      </trkpt>
      <trkpt lat="42.28056" lon="2.2948">
        <ele>1359</ele>
        <time>2010-01-01T02:39:27Z</time>
      </trkpt>
      <trkpt lat="42.2806" lon="2.29481">
        <ele>1359</ele>
        <time>2010-01-01T02:39:29Z</time>
      </trkpt>
      <trkpt lat="42.28064" lon="2.29483">
        <ele>1359</ele>
        <time>2010-01-01T02:39:30Z</time>
      </trkpt>
      <trkpt lat="42.28067" lon="2.29484">
        <ele>1360</ele>
        <time>2010-01-01T02:39:32Z</time>
      </trkpt>
      <trkpt lat="42.28072" lon="2.29486">
        <ele>1360</ele>
        <time>2010-01-01T02:39:34Z</time>
      </trkpt>
      <trkpt lat="42.28076" lon="2.29487">
        <ele>1360</ele>
        <time>2010-01-01T02:39:36Z</time>
      </trkpt>
      <trkpt lat="42.28081" lon="2.29487">
        <ele>1361</ele>
        <time>2010-01-01T02:39:38Z</time>
      </trkpt>
      <trkpt lat="42.28086" lon="2.29488">
        <ele>1361</ele>
        <time>2010-01-01T02:39:39Z</time>
      </trkpt>
      <trkpt lat="42.2809" lon="2.29489">
        <ele>1362</ele>
        <time>2010-01-01T02:39:41Z</time>
      </trkpt>
      <trkpt lat="42.28096" lon="2.2949">
        <ele>1362</ele>
        <time>2010-01-01T02:39:44Z</time>
      </trkpt>
      <trkpt lat="42.28101" lon="2.29492">
        <ele>1362</ele>
        <time>2010-01-01T02:39:46Z</time>
      </trkpt>
      <trkpt lat="42.28107" lon="2.29495">
        <ele>1362</ele>
        <time>2010-01-01T02:39:48Z</time>
      </trkpt>
      <trkpt lat="42.28111" lon="2.29499">
        <ele>1361</ele>
        <time>2010-01-01T02:39:50Z</time>
      </trkpt>
      <trkpt lat="42.28114" lon="2.29503">
        <ele>1359</ele>
        <time>2010-01-01T02:39:52Z</time>
      </trkpt>
      <trkpt lat="42.28118" lon="2.29507">
        <ele>1358</ele>
        <time>2010-01-01T02:39:54Z</time>
      </trkpt>
      <trkpt lat="42.28122" lon="2.2951">
        <ele>1357</ele>
        <time>2010-01-01T02:39:56Z</time>
      </trkpt>
      <trkpt lat="42.28126" lon="2.29513">
        <ele>1356</ele>
        <time>2010-01-01T02:39:58Z</time>
      </trkpt>
      <trkpt lat="42.28131" lon="2.29513">
        <ele>1356</ele>
        <time>2010-01-01T02:39:59Z</time>
      </trkpt>
      <trkpt lat="42.28135" lon="2.29513">
        <ele>1356</ele>
        <time>2010-01-01T02:40:01Z</time>
      </trkpt>
      <trkpt lat="42.2814" lon="2.29511">
        <ele>1356</ele>
        <time>2010-01-01T02:40:03Z</time>
      </trkpt>
      <trkpt lat="42.28144" lon="2.29511">
        <ele>1356</ele>
        <time>2010-01-01T02:40:05Z</time>
      </trkpt>
      <trkpt lat="42.28149" lon="2.2951">
        <ele>1356</ele>
        <time>2010-01-01T02:40:07Z</time>
      </trkpt>
      <trkpt lat="42.28154" lon="2.29508">
        <ele>1357</ele>
        <time>2010-01-01T02:40:09Z</time>
      </trkpt>
      <trkpt lat="42.2816" lon="2.29504">
        <ele>1357</ele>
        <time>2010-01-01T02:40:12Z</time>
      </trkpt>
      <trkpt lat="42.28166" lon="2.295">
        <ele>1358</ele>
        <time>2010-01-01T02:40:14Z</time>
      </trkpt>
      <trkpt lat="42.28173" lon="2.29497">
        <ele>1358</ele>
        <time>2010-01-01T02:40:17Z</time>
      </trkpt>
      <trkpt lat="42.28179" lon="2.29493">
        <ele>1358</ele>
        <time>2010-01-01T02:40:20Z</time>
      </trkpt>
      <trkpt lat="42.28185" lon="2.2949">
        <ele>1358</ele>
        <time>2010-01-01T02:40:22Z</time>
      </trkpt>
      <trkpt lat="42.2819" lon="2.29487">
        <ele>1358</ele>
        <time>2010-01-01T02:40:25Z</time>
      </trkpt>
      <trkpt lat="42.28196" lon="2.29483">
        <ele>1358</ele>
        <time>2010-01-01T02:40:27Z</time>
      </trkpt>
      <trkpt lat="42.28202" lon="2.29479">
        <ele>1357</ele>
        <time>2010-01-01T02:40:30Z</time>
      </trkpt>
      <trkpt lat="42.28207" lon="2.29476">
        <ele>1357</ele>
        <time>2010-01-01T02:40:32Z</time>
      </trkpt>
      <trkpt lat="42.28212" lon="2.29472">
        <ele>1357</ele>
        <time>2010-01-01T02:40:35Z</time>
      </trkpt>
      <trkpt lat="42.28218" lon="2.29468">
        <ele>1357</ele>
        <time>2010-01-01T02:40:37Z</time>
      </trkpt>
      <trkpt lat="42.28227" lon="2.29457">
        <ele>1357</ele>
        <time>2010-01-01T02:40:42Z</time>
      </trkpt>
      <trkpt lat="42.28233" lon="2.29451">
        <ele>1358</ele>
        <time>2010-01-01T02:40:45Z</time>
      </trkpt>
      <trkpt lat="42.28241" lon="2.29443">
        <ele>1358</ele>
        <time>2010-01-01T02:40:49Z</time>
      </trkpt>
      <trkpt lat="42.28246" lon="2.29438">
        <ele>1358</ele>
        <time>2010-01-01T02:40:52Z</time>
      </trkpt>
      <trkpt lat="42.28253" lon="2.29432">
        <ele>1358</ele>
        <time>2010-01-01T02:40:55Z</time>
      </trkpt>
      <trkpt lat="42.28261" lon="2.29424">
        <ele>1358</ele>
        <time>2010-01-01T02:40:59Z</time>
      </trkpt>
      <trkpt lat="42.28265" lon="2.29412">
        <ele>1360</ele>
        <time>2010-01-01T02:41:03Z</time>
      </trkpt>
      <trkpt lat="42.28275" lon="2.29414">
        <ele>1357</ele>
        <time>2010-01-01T02:41:07Z</time>
      </trkpt>
      <trkpt lat="42.28277" lon="2.2943">
        <ele>1356</ele>
        <time>2010-01-01T02:41:12Z</time>
      </trkpt>
      <trkpt lat="42.28283" lon="2.29419">
        <ele>1357</ele>
        <time>2010-01-01T02:41:16Z</time>
      </trkpt>
      <trkpt lat="42.28287" lon="2.29406">
        <ele>1359</ele>
        <time>2010-01-01T02:41:20Z</time>
      </trkpt>
      <trkpt lat="42.28293" lon="2.29395">
        <ele>1360</ele>
        <time>2010-01-01T02:41:24Z</time>
      </trkpt>
      <trkpt lat="42.28298" lon="2.29385">
        <ele>1362</ele>
        <time>2010-01-01T02:41:28Z</time>
      </trkpt>
      <trkpt lat="42.28302" lon="2.29372">
        <ele>1363</ele>
        <time>2010-01-01T02:41:32Z</time>
      </trkpt>
      <trkpt lat="42.28308" lon="2.29364">
        <ele>1365</ele>
        <time>2010-01-01T02:41:35Z</time>
      </trkpt>
      <trkpt lat="42.28316" lon="2.29362">
        <ele>1366</ele>
        <time>2010-01-01T02:41:38Z</time>
      </trkpt>
      <trkpt lat="42.2832" lon="2.29357">
        <ele>1367</ele>
        <time>2010-01-01T02:41:40Z</time>
      </trkpt>
      <trkpt lat="42.28327" lon="2.29348">
        <ele>1369</ele>
        <time>2010-01-01T02:41:44Z</time>
      </trkpt>
      <trkpt lat="42.28337" lon="2.29348">
        <ele>1371</ele>
        <time>2010-01-01T02:41:48Z</time>
      </trkpt>
      <trkpt lat="42.28347" lon="2.29348">
        <ele>1373</ele>
        <time>2010-01-01T02:41:53Z</time>
      </trkpt>
      <trkpt lat="42.2835" lon="2.29349">
        <ele>1374</ele>
        <time>2010-01-01T02:41:54Z</time>
      </trkpt>
      <trkpt lat="42.28353" lon="2.2935">
        <ele>1375</ele>
        <time>2010-01-01T02:41:55Z</time>
      </trkpt>
      <trkpt lat="42.28355" lon="2.29351">
        <ele>1375</ele>
        <time>2010-01-01T02:41:56Z</time>
      </trkpt>
      <trkpt lat="42.28365" lon="2.29348">
        <ele>1378</ele>
        <time>2010-01-01T02:42:00Z</time>
      </trkpt>
      <trkpt lat="42.28373" lon="2.29345">
        <ele>1380</ele>
        <time>2010-01-01T02:42:03Z</time>
      </trkpt>
      <trkpt lat="42.28373" lon="2.29342">
        <ele>1380</ele>
        <time>2010-01-01T02:42:04Z</time>
      </trkpt>
      <trkpt lat="42.28377" lon="2.29346">
        <ele>1381</ele>
        <time>2010-01-01T02:42:06Z</time>
      </trkpt>
      <trkpt lat="42.28379" lon="2.2935">
        <ele>1381</ele>
        <time>2010-01-01T02:42:07Z</time>
      </trkpt>
      <trkpt lat="42.2838" lon="2.29352">
        <ele>1381</ele>
        <time>2010-01-01T02:42:08Z</time>
      </trkpt>
      <trkpt lat="42.28382" lon="2.29354">
        <ele>1381</ele>
        <time>2010-01-01T02:42:09Z</time>
      </trkpt>
      <trkpt lat="42.28386" lon="2.29356">
        <ele>1382</ele>
        <time>2010-01-01T02:42:11Z</time>
      </trkpt>
      <trkpt lat="42.28388" lon="2.29356">
        <ele>1382</ele>
        <time>2010-01-01T02:42:12Z</time>
      </trkpt>
      <trkpt lat="42.2839" lon="2.29356">
        <ele>1383</ele>
        <time>2010-01-01T02:42:13Z</time>
      </trkpt>
      <trkpt lat="42.28393" lon="2.29356">
        <ele>1383</ele>
        <time>2010-01-01T02:42:14Z</time>
      </trkpt>
      <trkpt lat="42.28395" lon="2.29356">
        <ele>1383</ele>
        <time>2010-01-01T02:42:14Z</time>
      </trkpt>
      <trkpt lat="42.28397" lon="2.29356">
        <ele>1384</ele>
        <time>2010-01-01T02:42:15Z</time>
      </trkpt>
      <trkpt lat="42.28399" lon="2.29357">
        <ele>1384</ele>
        <time>2010-01-01T02:42:16Z</time>
      </trkpt>
      <trkpt lat="42.28401" lon="2.29357">
        <ele>1384</ele>
        <time>2010-01-01T02:42:17Z</time>
      </trkpt>
      <trkpt lat="42.28403" lon="2.29357">
        <ele>1385</ele>
        <time>2010-01-01T02:42:18Z</time>
      </trkpt>
      <trkpt lat="42.28405" lon="2.29358">
        <ele>1385</ele>
        <time>2010-01-01T02:42:19Z</time>
      </trkpt>
      <trkpt lat="42.28407" lon="2.29359">
        <ele>1385</ele>
        <time>2010-01-01T02:42:19Z</time>
      </trkpt>
      <trkpt lat="42.28409" lon="2.2936">
        <ele>1385</ele>
        <time>2010-01-01T02:42:20Z</time>
      </trkpt>
      <trkpt lat="42.28409" lon="2.29362">
        <ele>1385</ele>
        <time>2010-01-01T02:42:21Z</time>
      </trkpt>
      <trkpt lat="42.28407" lon="2.29366">
        <ele>1385</ele>
        <time>2010-01-01T02:42:22Z</time>
      </trkpt>
      <trkpt lat="42.28405" lon="2.29369">
        <ele>1384</ele>
        <time>2010-01-01T02:42:23Z</time>
      </trkpt>
      <trkpt lat="42.28402" lon="2.29369">
        <ele>1384</ele>
        <time>2010-01-01T02:42:25Z</time>
      </trkpt>
      <trkpt lat="42.284" lon="2.2937">
        <ele>1383</ele>
        <time>2010-01-01T02:42:26Z</time>
      </trkpt>
      <trkpt lat="42.28398" lon="2.29372">
        <ele>1383</ele>
        <time>2010-01-01T02:42:26Z</time>
      </trkpt>
      <trkpt lat="42.28396" lon="2.29373">
        <ele>1383</ele>
        <time>2010-01-01T02:42:27Z</time>
      </trkpt>
      <trkpt lat="42.28394" lon="2.29375">
        <ele>1382</ele>
        <time>2010-01-01T02:42:28Z</time>
      </trkpt>
      <trkpt lat="42.28392" lon="2.29376">
        <ele>1382</ele>
        <time>2010-01-01T02:42:29Z</time>
      </trkpt>
      <trkpt lat="42.28389" lon="2.29377">
        <ele>1381</ele>
        <time>2010-01-01T02:42:30Z</time>
      </trkpt>
      <trkpt lat="42.28387" lon="2.29379">
        <ele>1381</ele>
        <time>2010-01-01T02:42:32Z</time>
      </trkpt>
      <trkpt lat="42.28386" lon="2.29382">
        <ele>1381</ele>
        <time>2010-01-01T02:42:32Z</time>
      </trkpt>
      <trkpt lat="42.28385" lon="2.29385">
        <ele>1381</ele>
        <time>2010-01-01T02:42:34Z</time>
      </trkpt>
      <trkpt lat="42.28383" lon="2.29391">
        <ele>1381</ele>
        <time>2010-01-01T02:42:35Z</time>
      </trkpt>
      <trkpt lat="42.28383" lon="2.29395">
        <ele>1381</ele>
        <time>2010-01-01T02:42:37Z</time>
      </trkpt>
      <trkpt lat="42.28385" lon="2.29399">
        <ele>1382</ele>
        <time>2010-01-01T02:42:38Z</time>
      </trkpt>
      <trkpt lat="42.28385" lon="2.29404">
        <ele>1382</ele>
        <time>2010-01-01T02:42:39Z</time>
      </trkpt>
      <trkpt lat="42.28385" lon="2.29408">
        <ele>1383</ele>
        <time>2010-01-01T02:42:40Z</time>
      </trkpt>
      <trkpt lat="42.28385" lon="2.29412">
        <ele>1383</ele>
        <time>2010-01-01T02:42:42Z</time>
      </trkpt>
      <trkpt lat="42.28385" lon="2.29415">
        <ele>1383</ele>
        <time>2010-01-01T02:42:43Z</time>
      </trkpt>
      <trkpt lat="42.28385" lon="2.29418">
        <ele>1384</ele>
        <time>2010-01-01T02:42:43Z</time>
      </trkpt>
      <trkpt lat="42.28384" lon="2.29421">
        <ele>1384</ele>
        <time>2010-01-01T02:42:44Z</time>
      </trkpt>
      <trkpt lat="42.28384" lon="2.29425">
        <ele>1384</ele>
        <time>2010-01-01T02:42:45Z</time>
      </trkpt>
      <trkpt lat="42.28384" lon="2.29428">
        <ele>1384</ele>
        <time>2010-01-01T02:42:46Z</time>
      </trkpt>
      <trkpt lat="42.28385" lon="2.29431">
        <ele>1385</ele>
        <time>2010-01-01T02:42:47Z</time>
      </trkpt>
      <trkpt lat="42.28385" lon="2.29434">
        <ele>1385</ele>
        <time>2010-01-01T02:42:48Z</time>
      </trkpt>
      <trkpt lat="42.28385" lon="2.29438">
        <ele>1385</ele>
        <time>2010-01-01T02:42:49Z</time>
      </trkpt>
      <trkpt lat="42.28385" lon="2.2944">
        <ele>1385</ele>
        <time>2010-01-01T02:42:50Z</time>
      </trkpt>
      <trkpt lat="42.28385" lon="2.29443">
        <ele>1385</ele>
        <time>2010-01-01T02:42:51Z</time>
      </trkpt>
      <trkpt lat="42.28385" lon="2.29446">
        <ele>1386</ele>
        <time>2010-01-01T02:42:52Z</time>
      </trkpt>
      <trkpt lat="42.28386" lon="2.29449">
        <ele>1386</ele>
        <time>2010-01-01T02:42:53Z</time>
      </trkpt>
      <trkpt lat="42.28388" lon="2.29452">
        <ele>1387</ele>
        <time>2010-01-01T02:42:54Z</time>
      </trkpt>
      <trkpt lat="42.28389" lon="2.29453">
        <ele>1388</ele>
        <time>2010-01-01T02:42:55Z</time>
      </trkpt>
      <trkpt lat="42.28391" lon="2.29455">
        <ele>1389</ele>
        <time>2010-01-01T02:42:55Z</time>
      </trkpt>
      <trkpt lat="42.28393" lon="2.29456">
        <ele>1390</ele>
        <time>2010-01-01T02:42:56Z</time>
      </trkpt>
      <trkpt lat="42.28396" lon="2.29456">
        <ele>1391</ele>
        <time>2010-01-01T02:42:57Z</time>
      </trkpt>
      <trkpt lat="42.28398" lon="2.29457">
        <ele>1392</ele>
        <time>2010-01-01T02:42:58Z</time>
      </trkpt>
      <trkpt lat="42.284" lon="2.29456">
        <ele>1393</ele>
        <time>2010-01-01T02:42:59Z</time>
      </trkpt>
      <trkpt lat="42.28402" lon="2.29458">
        <ele>1394</ele>
        <time>2010-01-01T02:43:00Z</time>
      </trkpt>
      <trkpt lat="42.28403" lon="2.2946">
        <ele>1395</ele>
        <time>2010-01-01T02:43:01Z</time>
      </trkpt>
      <trkpt lat="42.28406" lon="2.29459">
        <ele>1396</ele>
        <time>2010-01-01T02:43:02Z</time>
      </trkpt>
      <trkpt lat="42.28409" lon="2.29457">
        <ele>1397</ele>
        <time>2010-01-01T02:43:03Z</time>
      </trkpt>
      <trkpt lat="42.28411" lon="2.29456">
        <ele>1398</ele>
        <time>2010-01-01T02:43:05Z</time>
      </trkpt>
      <trkpt lat="42.28414" lon="2.29454">
        <ele>1398</ele>
        <time>2010-01-01T02:43:06Z</time>
      </trkpt>
      <trkpt lat="42.28416" lon="2.29453">
        <ele>1399</ele>
        <time>2010-01-01T02:43:07Z</time>
      </trkpt>
      <trkpt lat="42.28419" lon="2.29452">
        <ele>1400</ele>
        <time>2010-01-01T02:43:08Z</time>
      </trkpt>
      <trkpt lat="42.28421" lon="2.2945">
        <ele>1401</ele>
        <time>2010-01-01T02:43:09Z</time>
      </trkpt>
      <trkpt lat="42.28424" lon="2.29448">
        <ele>1401</ele>
        <time>2010-01-01T02:43:10Z</time>
      </trkpt>
      <trkpt lat="42.28425" lon="2.29447">
        <ele>1402</ele>
        <time>2010-01-01T02:43:11Z</time>
      </trkpt>
      <trkpt lat="42.28427" lon="2.29445">
        <ele>1402</ele>
        <time>2010-01-01T02:43:12Z</time>
      </trkpt>
      <trkpt lat="42.2843" lon="2.29443">
        <ele>1403</ele>
        <time>2010-01-01T02:43:13Z</time>
      </trkpt>
      <trkpt lat="42.28432" lon="2.29441">
        <ele>1403</ele>
        <time>2010-01-01T02:43:14Z</time>
      </trkpt>
      <trkpt lat="42.28434" lon="2.29439">
        <ele>1403</ele>
        <time>2010-01-01T02:43:15Z</time>
      </trkpt>
      <trkpt lat="42.28435" lon="2.29441">
        <ele>1404</ele>
        <time>2010-01-01T02:43:16Z</time>
      </trkpt>
      <trkpt lat="42.28435" lon="2.29444">
        <ele>1405</ele>
        <time>2010-01-01T02:43:17Z</time>
      </trkpt>
      <trkpt lat="42.28435" lon="2.29447">
        <ele>1405</ele>
        <time>2010-01-01T02:43:17Z</time>
      </trkpt>
      <trkpt lat="42.28436" lon="2.2945">
        <ele>1406</ele>
        <time>2010-01-01T02:43:18Z</time>
      </trkpt>
      <trkpt lat="42.28436" lon="2.29453">
        <ele>1407</ele>
        <time>2010-01-01T02:43:19Z</time>
      </trkpt>
      <trkpt lat="42.28438" lon="2.29455">
        <ele>1407</ele>
        <time>2010-01-01T02:43:20Z</time>
      </trkpt>
      <trkpt lat="42.28439" lon="2.29457">
        <ele>1408</ele>
        <time>2010-01-01T02:43:21Z</time>
      </trkpt>
      <trkpt lat="42.28441" lon="2.29459">
        <ele>1409</ele>
        <time>2010-01-01T02:43:22Z</time>
      </trkpt>
      <trkpt lat="42.28443" lon="2.29461">
        <ele>1410</ele>
        <time>2010-01-01T02:43:23Z</time>
      </trkpt>
      <trkpt lat="42.28444" lon="2.29463">
        <ele>1410</ele>
        <time>2010-01-01T02:43:24Z</time>
      </trkpt>
      <trkpt lat="42.28445" lon="2.29465">
        <ele>1411</ele>
        <time>2010-01-01T02:43:25Z</time>
      </trkpt>
      <trkpt lat="42.28447" lon="2.29468">
        <ele>1412</ele>
        <time>2010-01-01T02:43:25Z</time>
      </trkpt>
      <trkpt lat="42.28449" lon="2.29469">
        <ele>1413</ele>
        <time>2010-01-01T02:43:26Z</time>
      </trkpt>
      <trkpt lat="42.28451" lon="2.29471">
        <ele>1413</ele>
        <time>2010-01-01T02:43:27Z</time>
      </trkpt>
      <trkpt lat="42.28453" lon="2.29473">
        <ele>1414</ele>
        <time>2010-01-01T02:43:28Z</time>
      </trkpt>
      <trkpt lat="42.28455" lon="2.29475">
        <ele>1415</ele>
        <time>2010-01-01T02:43:29Z</time>
      </trkpt>
      <trkpt lat="42.28456" lon="2.29477">
        <ele>1416</ele>
        <time>2010-01-01T02:43:30Z</time>
      </trkpt>
      <trkpt lat="42.28457" lon="2.2948">
        <ele>1416</ele>
        <time>2010-01-01T02:43:31Z</time>
      </trkpt>
      <trkpt lat="42.28458" lon="2.29482">
        <ele>1417</ele>
        <time>2010-01-01T02:43:32Z</time>
      </trkpt>
      <trkpt lat="42.28459" lon="2.29485">
        <ele>1418</ele>
        <time>2010-01-01T02:43:33Z</time>
      </trkpt>
      <trkpt lat="42.28459" lon="2.29488">
        <ele>1418</ele>
        <time>2010-01-01T02:43:34Z</time>
      </trkpt>
      <trkpt lat="42.2846" lon="2.29491">
        <ele>1419</ele>
        <time>2010-01-01T02:43:35Z</time>
      </trkpt>
      <trkpt lat="42.28461" lon="2.29493">
        <ele>1420</ele>
        <time>2010-01-01T02:43:35Z</time>
      </trkpt>
      <trkpt lat="42.28463" lon="2.29496">
        <ele>1420</ele>
        <time>2010-01-01T02:43:36Z</time>
      </trkpt>
      <trkpt lat="42.28464" lon="2.29498">
        <ele>1421</ele>
        <time>2010-01-01T02:43:37Z</time>
      </trkpt>
      <trkpt lat="42.28466" lon="2.295">
        <ele>1422</ele>
        <time>2010-01-01T02:43:38Z</time>
      </trkpt>
      <trkpt lat="42.28468" lon="2.29502">
        <ele>1423</ele>
        <time>2010-01-01T02:43:39Z</time>
      </trkpt>
      <trkpt lat="42.2847" lon="2.29503">
        <ele>1424</ele>
        <time>2010-01-01T02:43:40Z</time>
      </trkpt>
      <trkpt lat="42.28472" lon="2.29504">
        <ele>1425</ele>
        <time>2010-01-01T02:43:41Z</time>
      </trkpt>
      <trkpt lat="42.28474" lon="2.29506">
        <ele>1426</ele>
        <time>2010-01-01T02:43:42Z</time>
      </trkpt>
      <trkpt lat="42.28477" lon="2.29508">
        <ele>1426</ele>
        <time>2010-01-01T02:43:43Z</time>
      </trkpt>
      <trkpt lat="42.28478" lon="2.29509">
        <ele>1427</ele>
        <time>2010-01-01T02:43:44Z</time>
      </trkpt>
      <trkpt lat="42.28479" lon="2.29513">
        <ele>1427</ele>
        <time>2010-01-01T02:43:45Z</time>
      </trkpt>
      <trkpt lat="42.2848" lon="2.29515">
        <ele>1428</ele>
        <time>2010-01-01T02:43:46Z</time>
      </trkpt>
      <trkpt lat="42.28481" lon="2.29518">
        <ele>1428</ele>
        <time>2010-01-01T02:43:46Z</time>
      </trkpt>
      <trkpt lat="42.28481" lon="2.29521">
        <ele>1428</ele>
        <time>2010-01-01T02:43:47Z</time>
      </trkpt>
      <trkpt lat="42.28482" lon="2.29523">
        <ele>1429</ele>
        <time>2010-01-01T02:43:48Z</time>
      </trkpt>
      <trkpt lat="42.28484" lon="2.29526">
        <ele>1429</ele>
        <time>2010-01-01T02:43:49Z</time>
      </trkpt>
      <trkpt lat="42.28485" lon="2.29528">
        <ele>1430</ele>
        <time>2010-01-01T02:43:50Z</time>
      </trkpt>
      <trkpt lat="42.28486" lon="2.29532">
        <ele>1430</ele>
        <time>2010-01-01T02:43:51Z</time>
      </trkpt>
      <trkpt lat="42.28488" lon="2.29534">
        <ele>1430</ele>
        <time>2010-01-01T02:43:52Z</time>
      </trkpt>
      <trkpt lat="42.28489" lon="2.29536">
        <ele>1430</ele>
        <time>2010-01-01T02:43:53Z</time>
      </trkpt>
      <trkpt lat="42.2849" lon="2.29539">
        <ele>1430</ele>
        <time>2010-01-01T02:43:54Z</time>
      </trkpt>
      <trkpt lat="42.28491" lon="2.2954">
        <ele>1430</ele>
        <time>2010-01-01T02:43:55Z</time>
      </trkpt>
      <trkpt lat="42.28494" lon="2.29541">
        <ele>1431</ele>
        <time>2010-01-01T02:43:56Z</time>
      </trkpt>
      <trkpt lat="42.28495" lon="2.29544">
        <ele>1431</ele>
        <time>2010-01-01T02:43:57Z</time>
      </trkpt>
      <trkpt lat="42.28496" lon="2.29546">
        <ele>1431</ele>
        <time>2010-01-01T02:43:57Z</time>
      </trkpt>
      <trkpt lat="42.28498" lon="2.29548">
        <ele>1431</ele>
        <time>2010-01-01T02:43:58Z</time>
      </trkpt>
      <trkpt lat="42.28499" lon="2.2955">
        <ele>1431</ele>
        <time>2010-01-01T02:43:59Z</time>
      </trkpt>
      <trkpt lat="42.28501" lon="2.29551">
        <ele>1432</ele>
        <time>2010-01-01T02:44:00Z</time>
      </trkpt>
      <trkpt lat="42.28503" lon="2.29552">
        <ele>1432</ele>
        <time>2010-01-01T02:44:01Z</time>
      </trkpt>
      <trkpt lat="42.28505" lon="2.29554">
        <ele>1432</ele>
        <time>2010-01-01T02:44:01Z</time>
      </trkpt>
      <trkpt lat="42.28507" lon="2.29555">
        <ele>1433</ele>
        <time>2010-01-01T02:44:02Z</time>
      </trkpt>
      <trkpt lat="42.28509" lon="2.29555">
        <ele>1433</ele>
        <time>2010-01-01T02:44:03Z</time>
      </trkpt>
      <trkpt lat="42.28512" lon="2.29556">
        <ele>1434</ele>
        <time>2010-01-01T02:44:04Z</time>
      </trkpt>
      <trkpt lat="42.28514" lon="2.29557">
        <ele>1434</ele>
        <time>2010-01-01T02:44:05Z</time>
      </trkpt>
      <trkpt lat="42.28515" lon="2.29557">
        <ele>1435</ele>
        <time>2010-01-01T02:44:06Z</time>
      </trkpt>
      <trkpt lat="42.28517" lon="2.29559">
        <ele>1435</ele>
        <time>2010-01-01T02:44:07Z</time>
      </trkpt>
      <trkpt lat="42.28519" lon="2.2956">
        <ele>1435</ele>
        <time>2010-01-01T02:44:08Z</time>
      </trkpt>
      <trkpt lat="42.28522" lon="2.29561">
        <ele>1436</ele>
        <time>2010-01-01T02:44:09Z</time>
      </trkpt>
      <trkpt lat="42.28524" lon="2.29562">
        <ele>1436</ele>
        <time>2010-01-01T02:44:10Z</time>
      </trkpt>
      <trkpt lat="42.28527" lon="2.29563">
        <ele>1437</ele>
        <time>2010-01-01T02:44:11Z</time>
      </trkpt>
      <trkpt lat="42.28529" lon="2.29564">
        <ele>1437</ele>
        <time>2010-01-01T02:44:12Z</time>
      </trkpt>
      <trkpt lat="42.28531" lon="2.29565">
        <ele>1438</ele>
        <time>2010-01-01T02:44:13Z</time>
      </trkpt>
      <trkpt lat="42.28533" lon="2.29565">
        <ele>1439</ele>
        <time>2010-01-01T02:44:14Z</time>
      </trkpt>
      <trkpt lat="42.28536" lon="2.29566">
        <ele>1439</ele>
        <time>2010-01-01T02:44:15Z</time>
      </trkpt>
      <trkpt lat="42.28538" lon="2.29567">
        <ele>1440</ele>
        <time>2010-01-01T02:44:15Z</time>
      </trkpt>
      <trkpt lat="42.2854" lon="2.29568">
        <ele>1441</ele>
        <time>2010-01-01T02:44:16Z</time>
      </trkpt>
      <trkpt lat="42.28543" lon="2.29569">
        <ele>1441</ele>
        <time>2010-01-01T02:44:18Z</time>
      </trkpt>
      <trkpt lat="42.28545" lon="2.2957">
        <ele>1442</ele>
        <time>2010-01-01T02:44:19Z</time>
      </trkpt>
      <trkpt lat="42.28547" lon="2.29571">
        <ele>1443</ele>
        <time>2010-01-01T02:44:19Z</time>
      </trkpt>
      <trkpt lat="42.2855" lon="2.29572">
        <ele>1444</ele>
        <time>2010-01-01T02:44:20Z</time>
      </trkpt>
      <trkpt lat="42.28552" lon="2.29572">
        <ele>1444</ele>
        <time>2010-01-01T02:44:21Z</time>
      </trkpt>
      <trkpt lat="42.28554" lon="2.29572">
        <ele>1445</ele>
        <time>2010-01-01T02:44:22Z</time>
      </trkpt>
      <trkpt lat="42.28556" lon="2.29572">
        <ele>1446</ele>
        <time>2010-01-01T02:44:23Z</time>
      </trkpt>
      <trkpt lat="42.28558" lon="2.29571">
        <ele>1447</ele>
        <time>2010-01-01T02:44:24Z</time>
      </trkpt>
      <trkpt lat="42.2856" lon="2.2957">
        <ele>1448</ele>
        <time>2010-01-01T02:44:25Z</time>
      </trkpt>
      <trkpt lat="42.28562" lon="2.29568">
        <ele>1449</ele>
        <time>2010-01-01T02:44:26Z</time>
      </trkpt>
      <trkpt lat="42.28564" lon="2.29567">
        <ele>1450</ele>
        <time>2010-01-01T02:44:27Z</time>
      </trkpt>
      <trkpt lat="42.28566" lon="2.29566">
        <ele>1451</ele>
        <time>2010-01-01T02:44:27Z</time>
      </trkpt>
      <trkpt lat="42.28568" lon="2.29566">
        <ele>1451</ele>
        <time>2010-01-01T02:44:28Z</time>
      </trkpt>
      <trkpt lat="42.2857" lon="2.29567">
        <ele>1452</ele>
        <time>2010-01-01T02:44:29Z</time>
      </trkpt>
      <trkpt lat="42.28572" lon="2.29567">
        <ele>1453</ele>
        <time>2010-01-01T02:44:30Z</time>
      </trkpt>
      <trkpt lat="42.28575" lon="2.29567">
        <ele>1454</ele>
        <time>2010-01-01T02:44:31Z</time>
      </trkpt>
      <trkpt lat="42.28577" lon="2.29566">
        <ele>1455</ele>
        <time>2010-01-01T02:44:32Z</time>
      </trkpt>
      <trkpt lat="42.28579" lon="2.29566">
        <ele>1456</ele>
        <time>2010-01-01T02:44:33Z</time>
      </trkpt>
      <trkpt lat="42.28581" lon="2.29566">
        <ele>1456</ele>
        <time>2010-01-01T02:44:33Z</time>
      </trkpt>
      <trkpt lat="42.28583" lon="2.29566">
        <ele>1457</ele>
        <time>2010-01-01T02:44:34Z</time>
      </trkpt>
      <trkpt lat="42.28585" lon="2.29567">
        <ele>1458</ele>
        <time>2010-01-01T02:44:35Z</time>
      </trkpt>
      <trkpt lat="42.28587" lon="2.29569">
        <ele>1458</ele>
        <time>2010-01-01T02:44:36Z</time>
      </trkpt>
      <trkpt lat="42.28589" lon="2.2957">
        <ele>1459</ele>
        <time>2010-01-01T02:44:37Z</time>
      </trkpt>
      <trkpt lat="42.28591" lon="2.29571">
        <ele>1459</ele>
        <time>2010-01-01T02:44:38Z</time>
      </trkpt>
      <trkpt lat="42.28594" lon="2.29572">
        <ele>1460</ele>
        <time>2010-01-01T02:44:39Z</time>
      </trkpt>
      <trkpt lat="42.28596" lon="2.29572">
        <ele>1460</ele>
        <time>2010-01-01T02:44:40Z</time>
      </trkpt>
      <trkpt lat="42.28598" lon="2.29573">
        <ele>1461</ele>
        <time>2010-01-01T02:44:41Z</time>
      </trkpt>
      <trkpt lat="42.286" lon="2.29573">
        <ele>1462</ele>
        <time>2010-01-01T02:44:42Z</time>
      </trkpt>
      <trkpt lat="42.28603" lon="2.29574">
        <ele>1462</ele>
        <time>2010-01-01T02:44:43Z</time>
      </trkpt>
      <trkpt lat="42.28605" lon="2.29574">
        <ele>1463</ele>
        <time>2010-01-01T02:44:43Z</time>
      </trkpt>
      <trkpt lat="42.28607" lon="2.29574">
        <ele>1464</ele>
        <time>2010-01-01T02:44:44Z</time>
      </trkpt>
      <trkpt lat="42.28609" lon="2.29574">
        <ele>1464</ele>
        <time>2010-01-01T02:44:45Z</time>
      </trkpt>
      <trkpt lat="42.28611" lon="2.29573">
        <ele>1465</ele>
        <time>2010-01-01T02:44:46Z</time>
      </trkpt>
      <trkpt lat="42.28613" lon="2.29573">
        <ele>1465</ele>
        <time>2010-01-01T02:44:47Z</time>
      </trkpt>
      <trkpt lat="42.28615" lon="2.29572">
        <ele>1466</ele>
        <time>2010-01-01T02:44:47Z</time>
      </trkpt>
      <trkpt lat="42.28617" lon="2.29571">
        <ele>1466</ele>
        <time>2010-01-01T02:44:48Z</time>
      </trkpt>
      <trkpt lat="42.28619" lon="2.29571">
        <ele>1467</ele>
        <time>2010-01-01T02:44:49Z</time>
      </trkpt>
      <trkpt lat="42.28621" lon="2.2957">
        <ele>1467</ele>
        <time>2010-01-01T02:44:50Z</time>
      </trkpt>
      <trkpt lat="42.28623" lon="2.2957">
        <ele>1468</ele>
        <time>2010-01-01T02:44:51Z</time>
      </trkpt>
      <trkpt lat="42.28626" lon="2.29571">
        <ele>1468</ele>
        <time>2010-01-01T02:44:52Z</time>
      </trkpt>
      <trkpt lat="42.28628" lon="2.2957">
        <ele>1469</ele>
        <time>2010-01-01T02:44:53Z</time>
      </trkpt>
      <trkpt lat="42.2863" lon="2.2957">
        <ele>1470</ele>
        <time>2010-01-01T02:44:54Z</time>
      </trkpt>
      <trkpt lat="42.28633" lon="2.2957">
        <ele>1470</ele>
        <time>2010-01-01T02:44:55Z</time>
      </trkpt>
      <trkpt lat="42.28635" lon="2.29571">
        <ele>1471</ele>
        <time>2010-01-01T02:44:56Z</time>
      </trkpt>
      <trkpt lat="42.28638" lon="2.29572">
        <ele>1471</ele>
        <time>2010-01-01T02:44:57Z</time>
      </trkpt>
      <trkpt lat="42.2864" lon="2.29573">
        <ele>1472</ele>
        <time>2010-01-01T02:44:58Z</time>
      </trkpt>
      <trkpt lat="42.28643" lon="2.29575">
        <ele>1472</ele>
        <time>2010-01-01T02:44:59Z</time>
      </trkpt>
      <trkpt lat="42.28645" lon="2.29576">
        <ele>1472</ele>
        <time>2010-01-01T02:45:00Z</time>
      </trkpt>
      <trkpt lat="42.28648" lon="2.29578">
        <ele>1472</ele>
        <time>2010-01-01T02:45:01Z</time>
      </trkpt>
      <trkpt lat="42.28651" lon="2.29578">
        <ele>1473</ele>
        <time>2010-01-01T02:45:02Z</time>
      </trkpt>
      <trkpt lat="42.28654" lon="2.29579">
        <ele>1473</ele>
        <time>2010-01-01T02:45:04Z</time>
      </trkpt>
      <trkpt lat="42.28657" lon="2.2958">
        <ele>1473</ele>
        <time>2010-01-01T02:45:05Z</time>
      </trkpt>
      <trkpt lat="42.28659" lon="2.2958">
        <ele>1473</ele>
        <time>2010-01-01T02:45:06Z</time>
      </trkpt>
      <trkpt lat="42.28662" lon="2.29581">
        <ele>1474</ele>
        <time>2010-01-01T02:45:07Z</time>
      </trkpt>
      <trkpt lat="42.28665" lon="2.29581">
        <ele>1474</ele>
        <time>2010-01-01T02:45:08Z</time>
      </trkpt>
      <trkpt lat="42.28668" lon="2.29581">
        <ele>1474</ele>
        <time>2010-01-01T02:45:09Z</time>
      </trkpt>
      <trkpt lat="42.2867" lon="2.2958">
        <ele>1475</ele>
        <time>2010-01-01T02:45:10Z</time>
      </trkpt>
      <trkpt lat="42.28673" lon="2.29579">
        <ele>1476</ele>
        <time>2010-01-01T02:45:11Z</time>
      </trkpt>
      <trkpt lat="42.28675" lon="2.29578">
        <ele>1476</ele>
        <time>2010-01-01T02:45:12Z</time>
      </trkpt>
      <trkpt lat="42.28678" lon="2.29577">
        <ele>1477</ele>
        <time>2010-01-01T02:45:13Z</time>
      </trkpt>
      <trkpt lat="42.2868" lon="2.29575">
        <ele>1477</ele>
        <time>2010-01-01T02:45:14Z</time>
      </trkpt>
      <trkpt lat="42.28683" lon="2.29574">
        <ele>1478</ele>
        <time>2010-01-01T02:45:16Z</time>
      </trkpt>
      <trkpt lat="42.28686" lon="2.29572">
        <ele>1479</ele>
        <time>2010-01-01T02:45:17Z</time>
      </trkpt>
      <trkpt lat="42.28688" lon="2.29572">
        <ele>1480</ele>
        <time>2010-01-01T02:45:18Z</time>
      </trkpt>
      <trkpt lat="42.28691" lon="2.29571">
        <ele>1480</ele>
        <time>2010-01-01T02:45:19Z</time>
      </trkpt>
      <trkpt lat="42.28694" lon="2.2957">
        <ele>1481</ele>
        <time>2010-01-01T02:45:20Z</time>
      </trkpt>
      <trkpt lat="42.28696" lon="2.29569">
        <ele>1481</ele>
        <time>2010-01-01T02:45:21Z</time>
      </trkpt>
      <trkpt lat="42.28699" lon="2.29568">
        <ele>1482</ele>
        <time>2010-01-01T02:45:22Z</time>
      </trkpt>
      <trkpt lat="42.28701" lon="2.29569">
        <ele>1483</ele>
        <time>2010-01-01T02:45:23Z</time>
      </trkpt>
      <trkpt lat="42.28703" lon="2.29569">
        <ele>1483</ele>
        <time>2010-01-01T02:45:24Z</time>
      </trkpt>
      <trkpt lat="42.28705" lon="2.29568">
        <ele>1484</ele>
        <time>2010-01-01T02:45:25Z</time>
      </trkpt>
      <trkpt lat="42.28707" lon="2.29566">
        <ele>1484</ele>
        <time>2010-01-01T02:45:26Z</time>
      </trkpt>
      <trkpt lat="42.28709" lon="2.29565">
        <ele>1485</ele>
        <time>2010-01-01T02:45:27Z</time>
      </trkpt>
      <trkpt lat="42.28711" lon="2.29563">
        <ele>1485</ele>
        <time>2010-01-01T02:45:28Z</time>
      </trkpt>
      <trkpt lat="42.28713" lon="2.29561">
        <ele>1486</ele>
        <time>2010-01-01T02:45:29Z</time>
      </trkpt>
      <trkpt lat="42.28715" lon="2.29559">
        <ele>1487</ele>
        <time>2010-01-01T02:45:30Z</time>
      </trkpt>
      <trkpt lat="42.28717" lon="2.29558">
        <ele>1487</ele>
        <time>2010-01-01T02:45:30Z</time>
      </trkpt>
      <trkpt lat="42.28719" lon="2.29556">
        <ele>1488</ele>
        <time>2010-01-01T02:45:31Z</time>
      </trkpt>
      <trkpt lat="42.28721" lon="2.29555">
        <ele>1488</ele>
        <time>2010-01-01T02:45:32Z</time>
      </trkpt>
      <trkpt lat="42.28724" lon="2.29554">
        <ele>1489</ele>
        <time>2010-01-01T02:45:34Z</time>
      </trkpt>
      <trkpt lat="42.28726" lon="2.29554">
        <ele>1490</ele>
        <time>2010-01-01T02:45:34Z</time>
      </trkpt>
      <trkpt lat="42.28728" lon="2.29553">
        <ele>1490</ele>
        <time>2010-01-01T02:45:35Z</time>
      </trkpt>
      <trkpt lat="42.28731" lon="2.29553">
        <ele>1491</ele>
        <time>2010-01-01T02:45:36Z</time>
      </trkpt>
      <trkpt lat="42.28733" lon="2.29552">
        <ele>1492</ele>
        <time>2010-01-01T02:45:37Z</time>
      </trkpt>
      <trkpt lat="42.28735" lon="2.29551">
        <ele>1493</ele>
        <time>2010-01-01T02:45:38Z</time>
      </trkpt>
      <trkpt lat="42.28737" lon="2.2955">
        <ele>1493</ele>
        <time>2010-01-01T02:45:39Z</time>
      </trkpt>
      <trkpt lat="42.28739" lon="2.2955">
        <ele>1494</ele>
        <time>2010-01-01T02:45:40Z</time>
      </trkpt>
      <trkpt lat="42.28741" lon="2.29551">
        <ele>1494</ele>
        <time>2010-01-01T02:45:41Z</time>
      </trkpt>
      <trkpt lat="42.28744" lon="2.29552">
        <ele>1495</ele>
        <time>2010-01-01T02:45:42Z</time>
      </trkpt>
      <trkpt lat="42.28745" lon="2.29552">
        <ele>1495</ele>
        <time>2010-01-01T02:45:42Z</time>
      </trkpt>
      <trkpt lat="42.28748" lon="2.29553">
        <ele>1496</ele>
        <time>2010-01-01T02:45:43Z</time>
      </trkpt>
      <trkpt lat="42.2875" lon="2.29553">
        <ele>1497</ele>
        <time>2010-01-01T02:45:44Z</time>
      </trkpt>
      <trkpt lat="42.28752" lon="2.29554">
        <ele>1497</ele>
        <time>2010-01-01T02:45:45Z</time>
      </trkpt>
      <trkpt lat="42.28755" lon="2.29556">
        <ele>1498</ele>
        <time>2010-01-01T02:45:46Z</time>
      </trkpt>
      <trkpt lat="42.28757" lon="2.29558">
        <ele>1498</ele>
        <time>2010-01-01T02:45:47Z</time>
      </trkpt>
      <trkpt lat="42.28759" lon="2.29559">
        <ele>1499</ele>
        <time>2010-01-01T02:45:48Z</time>
      </trkpt>
      <trkpt lat="42.2876" lon="2.29557">
        <ele>1499</ele>
        <time>2010-01-01T02:45:49Z</time>
      </trkpt>
      <trkpt lat="42.28762" lon="2.29555">
        <ele>1500</ele>
        <time>2010-01-01T02:45:50Z</time>
      </trkpt>
      <trkpt lat="42.28763" lon="2.29553">
        <ele>1501</ele>
        <time>2010-01-01T02:45:51Z</time>
      </trkpt>
      <trkpt lat="42.28765" lon="2.29551">
        <ele>1501</ele>
        <time>2010-01-01T02:45:51Z</time>
      </trkpt>
      <trkpt lat="42.28767" lon="2.2955">
        <ele>1502</ele>
        <time>2010-01-01T02:45:52Z</time>
      </trkpt>
      <trkpt lat="42.2877" lon="2.29549">
        <ele>1502</ele>
        <time>2010-01-01T02:45:53Z</time>
      </trkpt>
      <trkpt lat="42.28771" lon="2.29548">
        <ele>1503</ele>
        <time>2010-01-01T02:45:54Z</time>
      </trkpt>
      <trkpt lat="42.28773" lon="2.29547">
        <ele>1504</ele>
        <time>2010-01-01T02:45:55Z</time>
      </trkpt>
      <trkpt lat="42.28775" lon="2.29547">
        <ele>1504</ele>
        <time>2010-01-01T02:45:56Z</time>
      </trkpt>
      <trkpt lat="42.28777" lon="2.29546">
        <ele>1505</ele>
        <time>2010-01-01T02:45:57Z</time>
      </trkpt>
      <trkpt lat="42.28779" lon="2.29545">
        <ele>1505</ele>
        <time>2010-01-01T02:45:57Z</time>
      </trkpt>
      <trkpt lat="42.28781" lon="2.29544">
        <ele>1506</ele>
        <time>2010-01-01T02:45:58Z</time>
      </trkpt>
      <trkpt lat="42.28783" lon="2.29544">
        <ele>1506</ele>
        <time>2010-01-01T02:45:59Z</time>
      </trkpt>
      <trkpt lat="42.28785" lon="2.29547">
        <ele>1507</ele>
        <time>2010-01-01T02:46:00Z</time>
      </trkpt>
      <trkpt lat="42.28786" lon="2.29549">
        <ele>1507</ele>
        <time>2010-01-01T02:46:01Z</time>
      </trkpt>
      <trkpt lat="42.28786" lon="2.29552">
        <ele>1507</ele>
        <time>2010-01-01T02:46:02Z</time>
      </trkpt>
      <trkpt lat="42.28787" lon="2.29555">
        <ele>1507</ele>
        <time>2010-01-01T02:46:03Z</time>
      </trkpt>
      <trkpt lat="42.28788" lon="2.29558">
        <ele>1507</ele>
        <time>2010-01-01T02:46:04Z</time>
      </trkpt>
      <trkpt lat="42.28789" lon="2.29561">
        <ele>1507</ele>
        <time>2010-01-01T02:46:05Z</time>
      </trkpt>
      <trkpt lat="42.28789" lon="2.29564">
        <ele>1508</ele>
        <time>2010-01-01T02:46:05Z</time>
      </trkpt>
      <trkpt lat="42.28791" lon="2.29567">
        <ele>1508</ele>
        <time>2010-01-01T02:46:07Z</time>
      </trkpt>
      <trkpt lat="42.28793" lon="2.29568">
        <ele>1508</ele>
        <time>2010-01-01T02:46:07Z</time>
      </trkpt>
      <trkpt lat="42.28794" lon="2.29569">
        <ele>1509</ele>
        <time>2010-01-01T02:46:08Z</time>
      </trkpt>
      <trkpt lat="42.28796" lon="2.2957">
        <ele>1510</ele>
        <time>2010-01-01T02:46:09Z</time>
      </trkpt>
      <trkpt lat="42.28798" lon="2.2957">
        <ele>1510</ele>
        <time>2010-01-01T02:46:10Z</time>
      </trkpt>
      <trkpt lat="42.288" lon="2.29571">
        <ele>1511</ele>
        <time>2010-01-01T02:46:10Z</time>
      </trkpt>
      <trkpt lat="42.28802" lon="2.29571">
        <ele>1511</ele>
        <time>2010-01-01T02:46:11Z</time>
      </trkpt>
      <trkpt lat="42.28804" lon="2.29572">
        <ele>1512</ele>
        <time>2010-01-01T02:46:12Z</time>
      </trkpt>
      <trkpt lat="42.28806" lon="2.29573">
        <ele>1513</ele>
        <time>2010-01-01T02:46:13Z</time>
      </trkpt>
      <trkpt lat="42.28808" lon="2.29574">
        <ele>1513</ele>
        <time>2010-01-01T02:46:14Z</time>
      </trkpt>
      <trkpt lat="42.2881" lon="2.29575">
        <ele>1514</ele>
        <time>2010-01-01T02:46:15Z</time>
      </trkpt>
      <trkpt lat="42.28813" lon="2.29575">
        <ele>1515</ele>
        <time>2010-01-01T02:46:16Z</time>
      </trkpt>
      <trkpt lat="42.28815" lon="2.29574">
        <ele>1516</ele>
        <time>2010-01-01T02:46:17Z</time>
      </trkpt>
      <trkpt lat="42.28817" lon="2.29575">
        <ele>1517</ele>
        <time>2010-01-01T02:46:17Z</time>
      </trkpt>
      <trkpt lat="42.28819" lon="2.29575">
        <ele>1517</ele>
        <time>2010-01-01T02:46:18Z</time>
      </trkpt>
      <trkpt lat="42.28822" lon="2.29575">
        <ele>1518</ele>
        <time>2010-01-01T02:46:19Z</time>
      </trkpt>
      <trkpt lat="42.28824" lon="2.29575">
        <ele>1519</ele>
        <time>2010-01-01T02:46:20Z</time>
      </trkpt>
      <trkpt lat="42.28826" lon="2.29576">
        <ele>1520</ele>
        <time>2010-01-01T02:46:21Z</time>
      </trkpt>
      <trkpt lat="42.28828" lon="2.29576">
        <ele>1521</ele>
        <time>2010-01-01T02:46:22Z</time>
      </trkpt>
      <trkpt lat="42.28831" lon="2.29577">
        <ele>1522</ele>
        <time>2010-01-01T02:46:23Z</time>
      </trkpt>
      <trkpt lat="42.28833" lon="2.29577">
        <ele>1523</ele>
        <time>2010-01-01T02:46:24Z</time>
      </trkpt>
      <trkpt lat="42.28836" lon="2.29576">
        <ele>1523</ele>
        <time>2010-01-01T02:46:25Z</time>
      </trkpt>
      <trkpt lat="42.28838" lon="2.29576">
        <ele>1524</ele>
        <time>2010-01-01T02:46:26Z</time>
      </trkpt>
      <trkpt lat="42.28841" lon="2.29576">
        <ele>1525</ele>
        <time>2010-01-01T02:46:27Z</time>
      </trkpt>
      <trkpt lat="42.28843" lon="2.29577">
        <ele>1526</ele>
        <time>2010-01-01T02:46:28Z</time>
      </trkpt>
      <trkpt lat="42.28845" lon="2.29576">
        <ele>1527</ele>
        <time>2010-01-01T02:46:29Z</time>
      </trkpt>
      <trkpt lat="42.28847" lon="2.29575">
        <ele>1528</ele>
        <time>2010-01-01T02:46:30Z</time>
      </trkpt>
      <trkpt lat="42.28849" lon="2.29573">
        <ele>1529</ele>
        <time>2010-01-01T02:46:31Z</time>
      </trkpt>
      <trkpt lat="42.28851" lon="2.29572">
        <ele>1530</ele>
        <time>2010-01-01T02:46:31Z</time>
      </trkpt>
      <trkpt lat="42.28853" lon="2.2957">
        <ele>1530</ele>
        <time>2010-01-01T02:46:32Z</time>
      </trkpt>
      <trkpt lat="42.28855" lon="2.29569">
        <ele>1531</ele>
        <time>2010-01-01T02:46:33Z</time>
      </trkpt>
      <trkpt lat="42.28857" lon="2.29566">
        <ele>1532</ele>
        <time>2010-01-01T02:46:34Z</time>
      </trkpt>
      <trkpt lat="42.28859" lon="2.29564">
        <ele>1533</ele>
        <time>2010-01-01T02:46:35Z</time>
      </trkpt>
      <trkpt lat="42.28861" lon="2.29564">
        <ele>1533</ele>
        <time>2010-01-01T02:46:36Z</time>
      </trkpt>
      <trkpt lat="42.28863" lon="2.29563">
        <ele>1534</ele>
        <time>2010-01-01T02:46:37Z</time>
      </trkpt>
      <trkpt lat="42.28865" lon="2.29563">
        <ele>1535</ele>
        <time>2010-01-01T02:46:38Z</time>
      </trkpt>
      <trkpt lat="42.28867" lon="2.29563">
        <ele>1536</ele>
        <time>2010-01-01T02:46:39Z</time>
      </trkpt>
      <trkpt lat="42.28869" lon="2.29563">
        <ele>1536</ele>
        <time>2010-01-01T02:46:39Z</time>
      </trkpt>
      <trkpt lat="42.28872" lon="2.29562">
        <ele>1537</ele>
        <time>2010-01-01T02:46:40Z</time>
      </trkpt>
      <trkpt lat="42.28874" lon="2.29562">
        <ele>1538</ele>
        <time>2010-01-01T02:46:41Z</time>
      </trkpt>
      <trkpt lat="42.28876" lon="2.29562">
        <ele>1539</ele>
        <time>2010-01-01T02:46:42Z</time>
      </trkpt>
      <trkpt lat="42.28878" lon="2.29561">
        <ele>1540</ele>
        <time>2010-01-01T02:46:43Z</time>
      </trkpt>
      <trkpt lat="42.28881" lon="2.29562">
        <ele>1541</ele>
        <time>2010-01-01T02:46:44Z</time>
      </trkpt>
      <trkpt lat="42.28883" lon="2.29561">
        <ele>1542</ele>
        <time>2010-01-01T02:46:45Z</time>
      </trkpt>
      <trkpt lat="42.28885" lon="2.29562">
        <ele>1542</ele>
        <time>2010-01-01T02:46:46Z</time>
      </trkpt>
      <trkpt lat="42.28887" lon="2.29562">
        <ele>1543</ele>
        <time>2010-01-01T02:46:47Z</time>
      </trkpt>
      <trkpt lat="42.28889" lon="2.29562">
        <ele>1544</ele>
        <time>2010-01-01T02:46:48Z</time>
      </trkpt>
      <trkpt lat="42.28891" lon="2.29561">
        <ele>1545</ele>
        <time>2010-01-01T02:46:48Z</time>
      </trkpt>
      <trkpt lat="42.28893" lon="2.29562">
        <ele>1546</ele>
        <time>2010-01-01T02:46:49Z</time>
      </trkpt>
      <trkpt lat="42.28895" lon="2.29562">
        <ele>1547</ele>
        <time>2010-01-01T02:46:50Z</time>
      </trkpt>
      <trkpt lat="42.28898" lon="2.29562">
        <ele>1548</ele>
        <time>2010-01-01T02:46:51Z</time>
      </trkpt>
      <trkpt lat="42.289" lon="2.29562">
        <ele>1549</ele>
        <time>2010-01-01T02:46:52Z</time>
      </trkpt>
      <trkpt lat="42.28902" lon="2.29562">
        <ele>1550</ele>
        <time>2010-01-01T02:46:53Z</time>
      </trkpt>
      <trkpt lat="42.28904" lon="2.29563">
        <ele>1550</ele>
        <time>2010-01-01T02:46:54Z</time>
      </trkpt>
      <trkpt lat="42.28906" lon="2.29564">
        <ele>1551</ele>
        <time>2010-01-01T02:46:54Z</time>
      </trkpt>
      <trkpt lat="42.28908" lon="2.29565">
        <ele>1552</ele>
        <time>2010-01-01T02:46:55Z</time>
      </trkpt>
      <trkpt lat="42.2891" lon="2.29565">
        <ele>1553</ele>
        <time>2010-01-01T02:46:56Z</time>
      </trkpt>
      <trkpt lat="42.28912" lon="2.29565">
        <ele>1554</ele>
        <time>2010-01-01T02:46:57Z</time>
      </trkpt>
      <trkpt lat="42.28914" lon="2.29567">
        <ele>1555</ele>
        <time>2010-01-01T02:46:58Z</time>
      </trkpt>
      <trkpt lat="42.28917" lon="2.29569">
        <ele>1555</ele>
        <time>2010-01-01T02:46:59Z</time>
      </trkpt>
      <trkpt lat="42.28919" lon="2.2957">
        <ele>1556</ele>
        <time>2010-01-01T02:47:00Z</time>
      </trkpt>
      <trkpt lat="42.2892" lon="2.29572">
        <ele>1556</ele>
        <time>2010-01-01T02:47:01Z</time>
      </trkpt>
      <trkpt lat="42.28921" lon="2.29575">
        <ele>1555</ele>
        <time>2010-01-01T02:47:02Z</time>
      </trkpt>
      <trkpt lat="42.28921" lon="2.29577">
        <ele>1555</ele>
        <time>2010-01-01T02:47:02Z</time>
      </trkpt>
      <trkpt lat="42.28921" lon="2.2958">
        <ele>1555</ele>
        <time>2010-01-01T02:47:03Z</time>
      </trkpt>
      <trkpt lat="42.28923" lon="2.29583">
        <ele>1555</ele>
        <time>2010-01-01T02:47:04Z</time>
      </trkpt>
      <trkpt lat="42.28924" lon="2.29587">
        <ele>1555</ele>
        <time>2010-01-01T02:47:05Z</time>
      </trkpt>
      <trkpt lat="42.28925" lon="2.29589">
        <ele>1555</ele>
        <time>2010-01-01T02:47:06Z</time>
      </trkpt>
      <trkpt lat="42.28926" lon="2.29592">
        <ele>1555</ele>
        <time>2010-01-01T02:47:07Z</time>
      </trkpt>
      <trkpt lat="42.28927" lon="2.29595">
        <ele>1555</ele>
        <time>2010-01-01T02:47:08Z</time>
      </trkpt>
      <trkpt lat="42.28928" lon="2.29598">
        <ele>1554</ele>
        <time>2010-01-01T02:47:09Z</time>
      </trkpt>
      <trkpt lat="42.28929" lon="2.29601">
        <ele>1554</ele>
        <time>2010-01-01T02:47:10Z</time>
      </trkpt>
      <trkpt lat="42.2893" lon="2.29604">
        <ele>1554</ele>
        <time>2010-01-01T02:47:11Z</time>
      </trkpt>
      <trkpt lat="42.28931" lon="2.29606">
        <ele>1554</ele>
        <time>2010-01-01T02:47:12Z</time>
      </trkpt>
      <trkpt lat="42.28932" lon="2.29608">
        <ele>1554</ele>
        <time>2010-01-01T02:47:13Z</time>
      </trkpt>
      <trkpt lat="42.28933" lon="2.29611">
        <ele>1554</ele>
        <time>2010-01-01T02:47:13Z</time>
      </trkpt>
      <trkpt lat="42.28934" lon="2.29614">
        <ele>1554</ele>
        <time>2010-01-01T02:47:14Z</time>
      </trkpt>
      <trkpt lat="42.28936" lon="2.29617">
        <ele>1554</ele>
        <time>2010-01-01T02:47:15Z</time>
      </trkpt>
      <trkpt lat="42.28936" lon="2.29619">
        <ele>1553</ele>
        <time>2010-01-01T02:47:16Z</time>
      </trkpt>
      <trkpt lat="42.28937" lon="2.29622">
        <ele>1553</ele>
        <time>2010-01-01T02:47:17Z</time>
      </trkpt>
      <trkpt lat="42.28938" lon="2.29626">
        <ele>1553</ele>
        <time>2010-01-01T02:47:18Z</time>
      </trkpt>
      <trkpt lat="42.28939" lon="2.29629">
        <ele>1553</ele>
        <time>2010-01-01T02:47:19Z</time>
      </trkpt>
      <trkpt lat="42.28941" lon="2.29631">
        <ele>1553</ele>
        <time>2010-01-01T02:47:20Z</time>
      </trkpt>
      <trkpt lat="42.28944" lon="2.29634">
        <ele>1554</ele>
        <time>2010-01-01T02:47:22Z</time>
      </trkpt>
      <trkpt lat="42.28946" lon="2.29637">
        <ele>1554</ele>
        <time>2010-01-01T02:47:23Z</time>
      </trkpt>
      <trkpt lat="42.28948" lon="2.29639">
        <ele>1555</ele>
        <time>2010-01-01T02:47:24Z</time>
      </trkpt>
      <trkpt lat="42.2895" lon="2.29642">
        <ele>1555</ele>
        <time>2010-01-01T02:47:25Z</time>
      </trkpt>
      <trkpt lat="42.28953" lon="2.29644">
        <ele>1556</ele>
        <time>2010-01-01T02:47:26Z</time>
      </trkpt>
      <trkpt lat="42.28954" lon="2.29647">
        <ele>1556</ele>
        <time>2010-01-01T02:47:27Z</time>
      </trkpt>
      <trkpt lat="42.28956" lon="2.29649">
        <ele>1557</ele>
        <time>2010-01-01T02:47:28Z</time>
      </trkpt>
      <trkpt lat="42.28959" lon="2.29651">
        <ele>1558</ele>
        <time>2010-01-01T02:47:30Z</time>
      </trkpt>
      <trkpt lat="42.28961" lon="2.29653">
        <ele>1558</ele>
        <time>2010-01-01T02:47:31Z</time>
      </trkpt>
      <trkpt lat="42.28963" lon="2.29656">
        <ele>1559</ele>
        <time>2010-01-01T02:47:32Z</time>
      </trkpt>
      <trkpt lat="42.28965" lon="2.29658">
        <ele>1560</ele>
        <time>2010-01-01T02:47:33Z</time>
      </trkpt>
      <trkpt lat="42.28967" lon="2.29661">
        <ele>1561</ele>
        <time>2010-01-01T02:47:34Z</time>
      </trkpt>
      <trkpt lat="42.2897" lon="2.29664">
        <ele>1562</ele>
        <time>2010-01-01T02:47:35Z</time>
      </trkpt>
      <trkpt lat="42.28972" lon="2.29666">
        <ele>1563</ele>
        <time>2010-01-01T02:47:37Z</time>
      </trkpt>
      <trkpt lat="42.28974" lon="2.29668">
        <ele>1564</ele>
        <time>2010-01-01T02:47:38Z</time>
      </trkpt>
      <trkpt lat="42.28977" lon="2.2967">
        <ele>1565</ele>
        <time>2010-01-01T02:47:39Z</time>
      </trkpt>
      <trkpt lat="42.28979" lon="2.29671">
        <ele>1566</ele>
        <time>2010-01-01T02:47:40Z</time>
      </trkpt>
      <trkpt lat="42.2898" lon="2.29672">
        <ele>1567</ele>
        <time>2010-01-01T02:47:40Z</time>
      </trkpt>
      <trkpt lat="42.28982" lon="2.29673">
        <ele>1568</ele>
        <time>2010-01-01T02:47:41Z</time>
      </trkpt>
      <trkpt lat="42.28984" lon="2.29674">
        <ele>1569</ele>
        <time>2010-01-01T02:47:42Z</time>
      </trkpt>
      <trkpt lat="42.28984" lon="2.29677">
        <ele>1569</ele>
        <time>2010-01-01T02:47:43Z</time>
      </trkpt>
      <trkpt lat="42.28984" lon="2.2968">
        <ele>1569</ele>
        <time>2010-01-01T02:47:44Z</time>
      </trkpt>
      <trkpt lat="42.28983" lon="2.29685">
        <ele>1569</ele>
        <time>2010-01-01T02:47:45Z</time>
      </trkpt>
      <trkpt lat="42.28983" lon="2.2969">
        <ele>1568</ele>
        <time>2010-01-01T02:47:47Z</time>
      </trkpt>
      <trkpt lat="42.28982" lon="2.29694">
        <ele>1568</ele>
        <time>2010-01-01T02:47:48Z</time>
      </trkpt>
      <trkpt lat="42.28982" lon="2.29699">
        <ele>1568</ele>
        <time>2010-01-01T02:47:49Z</time>
      </trkpt>
      <trkpt lat="42.28983" lon="2.29704">
        <ele>1568</ele>
        <time>2010-01-01T02:47:51Z</time>
      </trkpt>
      <trkpt lat="42.28984" lon="2.29709">
        <ele>1568</ele>
        <time>2010-01-01T02:47:52Z</time>
      </trkpt>
      <trkpt lat="42.28985" lon="2.29714">
        <ele>1569</ele>
        <time>2010-01-01T02:47:54Z</time>
      </trkpt>
      <trkpt lat="42.28987" lon="2.29719">
        <ele>1569</ele>
        <time>2010-01-01T02:47:56Z</time>
      </trkpt>
      <trkpt lat="42.28989" lon="2.29723">
        <ele>1569</ele>
        <time>2010-01-01T02:47:57Z</time>
      </trkpt>
      <trkpt lat="42.2899" lon="2.29727">
        <ele>1568</ele>
        <time>2010-01-01T02:47:59Z</time>
      </trkpt>
      <trkpt lat="42.28991" lon="2.2973">
        <ele>1568</ele>
        <time>2010-01-01T02:47:59Z</time>
      </trkpt>
      <trkpt lat="42.28993" lon="2.29733">
        <ele>1567</ele>
        <time>2010-01-01T02:48:00Z</time>
      </trkpt>
      <trkpt lat="42.28993" lon="2.29737">
        <ele>1566</ele>
        <time>2010-01-01T02:48:02Z</time>
      </trkpt>
      <trkpt lat="42.28994" lon="2.29741">
        <ele>1565</ele>
        <time>2010-01-01T02:48:03Z</time>
      </trkpt>
      <trkpt lat="42.28995" lon="2.29744">
        <ele>1564</ele>
        <time>2010-01-01T02:48:04Z</time>
      </trkpt>
      <trkpt lat="42.28996" lon="2.29748">
        <ele>1563</ele>
        <time>2010-01-01T02:48:05Z</time>
      </trkpt>
      <trkpt lat="42.28996" lon="2.29752">
        <ele>1562</ele>
        <time>2010-01-01T02:48:06Z</time>
      </trkpt>
      <trkpt lat="42.28997" lon="2.29755">
        <ele>1562</ele>
        <time>2010-01-01T02:48:07Z</time>
      </trkpt>
      <trkpt lat="42.28998" lon="2.29759">
        <ele>1561</ele>
        <time>2010-01-01T02:48:08Z</time>
      </trkpt>
      <trkpt lat="42.28998" lon="2.29763">
        <ele>1560</ele>
        <time>2010-01-01T02:48:10Z</time>
      </trkpt>
      <trkpt lat="42.28999" lon="2.29767">
        <ele>1560</ele>
        <time>2010-01-01T02:48:11Z</time>
      </trkpt>
      <trkpt lat="42.28999" lon="2.2977">
        <ele>1559</ele>
        <time>2010-01-01T02:48:12Z</time>
      </trkpt>
      <trkpt lat="42.28999" lon="2.29773">
        <ele>1558</ele>
        <time>2010-01-01T02:48:13Z</time>
      </trkpt>
      <trkpt lat="42.28999" lon="2.29776">
        <ele>1558</ele>
        <time>2010-01-01T02:48:13Z</time>
      </trkpt>
      <trkpt lat="42.29" lon="2.29779">
        <ele>1557</ele>
        <time>2010-01-01T02:48:14Z</time>
      </trkpt>
      <trkpt lat="42.29" lon="2.29784">
        <ele>1556</ele>
        <time>2010-01-01T02:48:16Z</time>
      </trkpt>
      <trkpt lat="42.29" lon="2.29788">
        <ele>1556</ele>
        <time>2010-01-01T02:48:17Z</time>
      </trkpt>
      <trkpt lat="42.29001" lon="2.29791">
        <ele>1556</ele>
        <time>2010-01-01T02:48:18Z</time>
      </trkpt>
      <trkpt lat="42.29002" lon="2.29792">
        <ele>1557</ele>
        <time>2010-01-01T02:48:19Z</time>
      </trkpt>
      <trkpt lat="42.29004" lon="2.29794">
        <ele>1558</ele>
        <time>2010-01-01T02:48:20Z</time>
      </trkpt>
      <trkpt lat="42.29006" lon="2.29796">
        <ele>1559</ele>
        <time>2010-01-01T02:48:21Z</time>
      </trkpt>
      <trkpt lat="42.29008" lon="2.29797">
        <ele>1560</ele>
        <time>2010-01-01T02:48:22Z</time>
      </trkpt>
      <trkpt lat="42.2901" lon="2.29799">
        <ele>1561</ele>
        <time>2010-01-01T02:48:22Z</time>
      </trkpt>
      <trkpt lat="42.29011" lon="2.29801">
        <ele>1562</ele>
        <time>2010-01-01T02:48:23Z</time>
      </trkpt>
      <trkpt lat="42.29013" lon="2.298">
        <ele>1563</ele>
        <time>2010-01-01T02:48:24Z</time>
      </trkpt>
      <trkpt lat="42.29015" lon="2.29802">
        <ele>1564</ele>
        <time>2010-01-01T02:48:25Z</time>
      </trkpt>
      <trkpt lat="42.29017" lon="2.29804">
        <ele>1565</ele>
        <time>2010-01-01T02:48:26Z</time>
      </trkpt>
      <trkpt lat="42.29017" lon="2.29807">
        <ele>1565</ele>
        <time>2010-01-01T02:48:27Z</time>
      </trkpt>
      <trkpt lat="42.29017" lon="2.2981">
        <ele>1564</ele>
        <time>2010-01-01T02:48:28Z</time>
      </trkpt>
      <trkpt lat="42.29017" lon="2.29812">
        <ele>1564</ele>
        <time>2010-01-01T02:48:28Z</time>
      </trkpt>
      <trkpt lat="42.29018" lon="2.29815">
        <ele>1565</ele>
        <time>2010-01-01T02:48:29Z</time>
      </trkpt>
      <trkpt lat="42.29018" lon="2.29818">
        <ele>1564</ele>
        <time>2010-01-01T02:48:30Z</time>
      </trkpt>
      <trkpt lat="42.29018" lon="2.29821">
        <ele>1564</ele>
        <time>2010-01-01T02:48:31Z</time>
      </trkpt>
      <trkpt lat="42.29019" lon="2.29824">
        <ele>1564</ele>
        <time>2010-01-01T02:48:32Z</time>
      </trkpt>
      <trkpt lat="42.2902" lon="2.29829">
        <ele>1564</ele>
        <time>2010-01-01T02:48:34Z</time>
      </trkpt>
      <trkpt lat="42.29021" lon="2.29835">
        <ele>1564</ele>
        <time>2010-01-01T02:48:35Z</time>
      </trkpt>
      <trkpt lat="42.29023" lon="2.29842">
        <ele>1564</ele>
        <time>2010-01-01T02:48:37Z</time>
      </trkpt>
      <trkpt lat="42.29026" lon="2.29848">
        <ele>1564</ele>
        <time>2010-01-01T02:48:40Z</time>
      </trkpt>
      <trkpt lat="42.29028" lon="2.29856">
        <ele>1564</ele>
        <time>2010-01-01T02:48:42Z</time>
      </trkpt>
      <trkpt lat="42.29029" lon="2.29864">
        <ele>1564</ele>
        <time>2010-01-01T02:48:44Z</time>
      </trkpt>
      <trkpt lat="42.2903" lon="2.29871">
        <ele>1564</ele>
        <time>2010-01-01T02:48:47Z</time>
      </trkpt>
      <trkpt lat="42.29029" lon="2.2988">
        <ele>1563</ele>
        <time>2010-01-01T02:48:49Z</time>
      </trkpt>
      <trkpt lat="42.29029" lon="2.29887">
        <ele>1563</ele>
        <time>2010-01-01T02:48:51Z</time>
      </trkpt>
      <trkpt lat="42.29029" lon="2.29895">
        <ele>1564</ele>
        <time>2010-01-01T02:48:54Z</time>
      </trkpt>
      <trkpt lat="42.29029" lon="2.29903">
        <ele>1565</ele>
        <time>2010-01-01T02:48:56Z</time>
      </trkpt>
      <trkpt lat="42.2903" lon="2.2991">
        <ele>1566</ele>
        <time>2010-01-01T02:48:58Z</time>
      </trkpt>
      <trkpt lat="42.2903" lon="2.29917">
        <ele>1566</ele>
        <time>2010-01-01T02:49:00Z</time>
      </trkpt>
      <trkpt lat="42.2903" lon="2.29924">
        <ele>1566</ele>
        <time>2010-01-01T02:49:02Z</time>
      </trkpt>
      <trkpt lat="42.29031" lon="2.2993">
        <ele>1567</ele>
        <time>2010-01-01T02:49:04Z</time>
      </trkpt>
      <trkpt lat="42.29031" lon="2.29937">
        <ele>1567</ele>
        <time>2010-01-01T02:49:06Z</time>
      </trkpt>
      <trkpt lat="42.29031" lon="2.29943">
        <ele>1567</ele>
        <time>2010-01-01T02:49:08Z</time>
      </trkpt>
      <trkpt lat="42.29031" lon="2.2995">
        <ele>1566</ele>
        <time>2010-01-01T02:49:10Z</time>
      </trkpt>
      <trkpt lat="42.29032" lon="2.29956">
        <ele>1566</ele>
        <time>2010-01-01T02:49:12Z</time>
      </trkpt>
      <trkpt lat="42.29032" lon="2.29963">
        <ele>1565</ele>
        <time>2010-01-01T02:49:14Z</time>
      </trkpt>
      <trkpt lat="42.29032" lon="2.29968">
        <ele>1565</ele>
        <time>2010-01-01T02:49:15Z</time>
      </trkpt>
      <trkpt lat="42.29032" lon="2.29974">
        <ele>1564</ele>
        <time>2010-01-01T02:49:17Z</time>
      </trkpt>
      <trkpt lat="42.29032" lon="2.29981">
        <ele>1563</ele>
        <time>2010-01-01T02:49:19Z</time>
      </trkpt>
      <trkpt lat="42.29033" lon="2.29987">
        <ele>1563</ele>
        <time>2010-01-01T02:49:21Z</time>
      </trkpt>
      <trkpt lat="42.29032" lon="2.29993">
        <ele>1562</ele>
        <time>2010-01-01T02:49:23Z</time>
      </trkpt>
      <trkpt lat="42.29033" lon="2.3">
        <ele>1562</ele>
        <time>2010-01-01T02:49:25Z</time>
      </trkpt>
      <trkpt lat="42.29033" lon="2.30006">
        <ele>1562</ele>
        <time>2010-01-01T02:49:27Z</time>
      </trkpt>
      <trkpt lat="42.29033" lon="2.30012">
        <ele>1562</ele>
        <time>2010-01-01T02:49:29Z</time>
      </trkpt>
      <trkpt lat="42.29033" lon="2.30018">
        <ele>1562</ele>
        <time>2010-01-01T02:49:30Z</time>
      </trkpt>
      <trkpt lat="42.29032" lon="2.30024">
        <ele>1561</ele>
        <time>2010-01-01T02:49:32Z</time>
      </trkpt>
      <trkpt lat="42.29031" lon="2.3003">
        <ele>1560</ele>
        <time>2010-01-01T02:49:34Z</time>
      </trkpt>
      <trkpt lat="42.2903" lon="2.30035">
        <ele>1560</ele>
        <time>2010-01-01T02:49:36Z</time>
      </trkpt>
      <trkpt lat="42.29028" lon="2.30041">
        <ele>1559</ele>
        <time>2010-01-01T02:49:37Z</time>
      </trkpt>
      <trkpt lat="42.29028" lon="2.30048">
        <ele>1558</ele>
        <time>2010-01-01T02:49:39Z</time>
      </trkpt>
      <trkpt lat="42.29027" lon="2.30054">
        <ele>1557</ele>
        <time>2010-01-01T02:49:41Z</time>
      </trkpt>
      <trkpt lat="42.29027" lon="2.3006">
        <ele>1556</ele>
        <time>2010-01-01T02:49:43Z</time>
      </trkpt>
      <trkpt lat="42.29026" lon="2.30067">
        <ele>1555</ele>
        <time>2010-01-01T02:49:45Z</time>
      </trkpt>
      <trkpt lat="42.29026" lon="2.30073">
        <ele>1554</ele>
        <time>2010-01-01T02:49:47Z</time>
      </trkpt>
      <trkpt lat="42.29026" lon="2.30078">
        <ele>1553</ele>
        <time>2010-01-01T02:49:48Z</time>
      </trkpt>
      <trkpt lat="42.29027" lon="2.30082">
        <ele>1552</ele>
        <time>2010-01-01T02:49:50Z</time>
      </trkpt>
      <trkpt lat="42.29028" lon="2.30087">
        <ele>1552</ele>
        <time>2010-01-01T02:49:51Z</time>
      </trkpt>
      <trkpt lat="42.29029" lon="2.30092">
        <ele>1553</ele>
        <time>2010-01-01T02:49:53Z</time>
      </trkpt>
      <trkpt lat="42.2903" lon="2.30098">
        <ele>1552</ele>
        <time>2010-01-01T02:49:54Z</time>
      </trkpt>
      <trkpt lat="42.29029" lon="2.30104">
        <ele>1552</ele>
        <time>2010-01-01T02:49:56Z</time>
      </trkpt>
      <trkpt lat="42.29029" lon="2.30109">
        <ele>1551</ele>
        <time>2010-01-01T02:49:58Z</time>
      </trkpt>
      <trkpt lat="42.29028" lon="2.30116">
        <ele>1550</ele>
        <time>2010-01-01T02:50:00Z</time>
      </trkpt>
      <trkpt lat="42.29028" lon="2.30121">
        <ele>1550</ele>
        <time>2010-01-01T02:50:01Z</time>
      </trkpt>
      <trkpt lat="42.29027" lon="2.30128">
        <ele>1549</ele>
        <time>2010-01-01T02:50:03Z</time>
      </trkpt>
      <trkpt lat="42.29027" lon="2.30135">
        <ele>1548</ele>
        <time>2010-01-01T02:50:05Z</time>
      </trkpt>
      <trkpt lat="42.29026" lon="2.30141">
        <ele>1548</ele>
        <time>2010-01-01T02:50:07Z</time>
      </trkpt>
      <trkpt lat="42.29027" lon="2.30148">
        <ele>1549</ele>
        <time>2010-01-01T02:50:09Z</time>
      </trkpt>
      <trkpt lat="42.29027" lon="2.30155">
        <ele>1549</ele>
        <time>2010-01-01T02:50:11Z</time>
      </trkpt>
      <trkpt lat="42.29026" lon="2.30161">
        <ele>1550</ele>
        <time>2010-01-01T02:50:13Z</time>
      </trkpt>
      <trkpt lat="42.29026" lon="2.30169">
        <ele>1550</ele>
        <time>2010-01-01T02:50:15Z</time>
      </trkpt>
      <trkpt lat="42.29027" lon="2.30175">
        <ele>1551</ele>
        <time>2010-01-01T02:50:17Z</time>
      </trkpt>
      <trkpt lat="42.29028" lon="2.30181">
        <ele>1551</ele>
        <time>2010-01-01T02:50:19Z</time>
      </trkpt>
      <trkpt lat="42.29029" lon="2.30186">
        <ele>1551</ele>
        <time>2010-01-01T02:50:21Z</time>
      </trkpt>
      <trkpt lat="42.2903" lon="2.30192">
        <ele>1552</ele>
        <time>2010-01-01T02:50:23Z</time>
      </trkpt>
      <trkpt lat="42.2903" lon="2.30199">
        <ele>1552</ele>
        <time>2010-01-01T02:50:24Z</time>
      </trkpt>
      <trkpt lat="42.2903" lon="2.30205">
        <ele>1552</ele>
        <time>2010-01-01T02:50:26Z</time>
      </trkpt>
      <trkpt lat="42.29029" lon="2.30211">
        <ele>1552</ele>
        <time>2010-01-01T02:50:28Z</time>
      </trkpt>
      <trkpt lat="42.2903" lon="2.30217">
        <ele>1552</ele>
        <time>2010-01-01T02:50:30Z</time>
      </trkpt>
      <trkpt lat="42.29029" lon="2.30222">
        <ele>1552</ele>
        <time>2010-01-01T02:50:32Z</time>
      </trkpt>
      <trkpt lat="42.29029" lon="2.30229">
        <ele>1552</ele>
        <time>2010-01-01T02:50:33Z</time>
      </trkpt>
      <trkpt lat="42.29029" lon="2.30235">
        <ele>1552</ele>
        <time>2010-01-01T02:50:35Z</time>
      </trkpt>
      <trkpt lat="42.29029" lon="2.3024">
        <ele>1552</ele>
        <time>2010-01-01T02:50:37Z</time>
      </trkpt>
      <trkpt lat="42.29028" lon="2.30246">
        <ele>1551</ele>
        <time>2010-01-01T02:50:39Z</time>
      </trkpt>
      <trkpt lat="42.29026" lon="2.30252">
        <ele>1551</ele>
        <time>2010-01-01T02:50:41Z</time>
      </trkpt>
      <trkpt lat="42.29024" lon="2.30258">
        <ele>1550</ele>
        <time>2010-01-01T02:50:42Z</time>
      </trkpt>
      <trkpt lat="42.29023" lon="2.30264">
        <ele>1549</ele>
        <time>2010-01-01T02:50:44Z</time>
      </trkpt>
      <trkpt lat="42.29021" lon="2.3027">
        <ele>1548</ele>
        <time>2010-01-01T02:50:46Z</time>
      </trkpt>
      <trkpt lat="42.29019" lon="2.30276">
        <ele>1548</ele>
        <time>2010-01-01T02:50:48Z</time>
      </trkpt>
      <trkpt lat="42.29016" lon="2.30279">
        <ele>1547</ele>
        <time>2010-01-01T02:50:50Z</time>
      </trkpt>
      <trkpt lat="42.29014" lon="2.30283">
        <ele>1546</ele>
        <time>2010-01-01T02:50:51Z</time>
      </trkpt>
      <trkpt lat="42.29013" lon="2.3029">
        <ele>1546</ele>
        <time>2010-01-01T02:50:53Z</time>
      </trkpt>
      <trkpt lat="42.29014" lon="2.30291">
        <ele>1546</ele>
        <time>2010-01-01T02:50:54Z</time>
      </trkpt>
      <trkpt lat="42.29016" lon="2.30293">
        <ele>1546</ele>
        <time>2010-01-01T02:50:55Z</time>
      </trkpt>
      <trkpt lat="42.29017" lon="2.30296">
        <ele>1547</ele>
        <time>2010-01-01T02:50:56Z</time>
      </trkpt>
      <trkpt lat="42.29017" lon="2.30298">
        <ele>1546</ele>
        <time>2010-01-01T02:50:56Z</time>
      </trkpt>
      <trkpt lat="42.29018" lon="2.30302">
        <ele>1546</ele>
        <time>2010-01-01T02:50:58Z</time>
      </trkpt>
      <trkpt lat="42.29019" lon="2.30304">
        <ele>1547</ele>
        <time>2010-01-01T02:50:58Z</time>
      </trkpt>
      <trkpt lat="42.29019" lon="2.30307">
        <ele>1547</ele>
        <time>2010-01-01T02:50:59Z</time>
      </trkpt>
      <trkpt lat="42.29021" lon="2.30309">
        <ele>1547</ele>
        <time>2010-01-01T02:51:00Z</time>
      </trkpt>
      <trkpt lat="42.29022" lon="2.30311">
        <ele>1548</ele>
        <time>2010-01-01T02:51:01Z</time>
      </trkpt>
      <trkpt lat="42.29024" lon="2.30312">
        <ele>1548</ele>
        <time>2010-01-01T02:51:02Z</time>
      </trkpt>
      <trkpt lat="42.29025" lon="2.30315">
        <ele>1548</ele>
        <time>2010-01-01T02:51:02Z</time>
      </trkpt>
      <trkpt lat="42.29024" lon="2.30318">
        <ele>1548</ele>
        <time>2010-01-01T02:51:03Z</time>
      </trkpt>
      <trkpt lat="42.29023" lon="2.30322">
        <ele>1548</ele>
        <time>2010-01-01T02:51:05Z</time>
      </trkpt>
      <trkpt lat="42.29022" lon="2.30325">
        <ele>1548</ele>
        <time>2010-01-01T02:51:06Z</time>
      </trkpt>
      <trkpt lat="42.29021" lon="2.30329">
        <ele>1548</ele>
        <time>2010-01-01T02:51:07Z</time>
      </trkpt>
      <trkpt lat="42.29021" lon="2.30332">
        <ele>1548</ele>
        <time>2010-01-01T02:51:08Z</time>
      </trkpt>
      <trkpt lat="42.29022" lon="2.30336">
        <ele>1548</ele>
        <time>2010-01-01T02:51:09Z</time>
      </trkpt>
      <trkpt lat="42.29021" lon="2.30339">
        <ele>1548</ele>
        <time>2010-01-01T02:51:10Z</time>
      </trkpt>
      <trkpt lat="42.29021" lon="2.30343">
        <ele>1548</ele>
        <time>2010-01-01T02:51:11Z</time>
      </trkpt>
      <trkpt lat="42.29021" lon="2.30345">
        <ele>1549</ele>
        <time>2010-01-01T02:51:12Z</time>
      </trkpt>
      <trkpt lat="42.29022" lon="2.30348">
        <ele>1549</ele>
        <time>2010-01-01T02:51:13Z</time>
      </trkpt>
      <trkpt lat="42.29023" lon="2.30351">
        <ele>1549</ele>
        <time>2010-01-01T02:51:14Z</time>
      </trkpt>
      <trkpt lat="42.29024" lon="2.30354">
        <ele>1550</ele>
        <time>2010-01-01T02:51:15Z</time>
      </trkpt>
      <trkpt lat="42.29025" lon="2.30359">
        <ele>1550</ele>
        <time>2010-01-01T02:51:16Z</time>
      </trkpt>
      <trkpt lat="42.29027" lon="2.30363">
        <ele>1550</ele>
        <time>2010-01-01T02:51:17Z</time>
      </trkpt>
      <trkpt lat="42.29028" lon="2.30368">
        <ele>1550</ele>
        <time>2010-01-01T02:51:19Z</time>
      </trkpt>
      <trkpt lat="42.29027" lon="2.30373">
        <ele>1549</ele>
        <time>2010-01-01T02:51:21Z</time>
      </trkpt>
      <trkpt lat="42.29026" lon="2.3038">
        <ele>1549</ele>
        <time>2010-01-01T02:51:22Z</time>
      </trkpt>
      <trkpt lat="42.29026" lon="2.30385">
        <ele>1548</ele>
        <time>2010-01-01T02:51:24Z</time>
      </trkpt>
      <trkpt lat="42.29026" lon="2.30391">
        <ele>1548</ele>
        <time>2010-01-01T02:51:26Z</time>
      </trkpt>
      <trkpt lat="42.29025" lon="2.30396">
        <ele>1548</ele>
        <time>2010-01-01T02:51:27Z</time>
      </trkpt>
      <trkpt lat="42.29025" lon="2.30402">
        <ele>1547</ele>
        <time>2010-01-01T02:51:29Z</time>
      </trkpt>
      <trkpt lat="42.29026" lon="2.30408">
        <ele>1547</ele>
        <time>2010-01-01T02:51:31Z</time>
      </trkpt>
      <trkpt lat="42.29026" lon="2.30413">
        <ele>1547</ele>
        <time>2010-01-01T02:51:32Z</time>
      </trkpt>
      <trkpt lat="42.29026" lon="2.30419">
        <ele>1546</ele>
        <time>2010-01-01T02:51:34Z</time>
      </trkpt>
      <trkpt lat="42.29026" lon="2.30425">
        <ele>1546</ele>
        <time>2010-01-01T02:51:36Z</time>
      </trkpt>
      <trkpt lat="42.29027" lon="2.3043">
        <ele>1546</ele>
        <time>2010-01-01T02:51:38Z</time>
      </trkpt>
      <trkpt lat="42.29029" lon="2.30435">
        <ele>1546</ele>
        <time>2010-01-01T02:51:39Z</time>
      </trkpt>
      <trkpt lat="42.29032" lon="2.30439">
        <ele>1547</ele>
        <time>2010-01-01T02:51:41Z</time>
      </trkpt>
      <trkpt lat="42.29034" lon="2.30444">
        <ele>1547</ele>
        <time>2010-01-01T02:51:42Z</time>
      </trkpt>
      <trkpt lat="42.29037" lon="2.30448">
        <ele>1547</ele>
        <time>2010-01-01T02:51:44Z</time>
      </trkpt>
      <trkpt lat="42.2904" lon="2.30451">
        <ele>1548</ele>
        <time>2010-01-01T02:51:46Z</time>
      </trkpt>
      <trkpt lat="42.29042" lon="2.30456">
        <ele>1548</ele>
        <time>2010-01-01T02:51:47Z</time>
      </trkpt>
      <trkpt lat="42.29046" lon="2.30461">
        <ele>1548</ele>
        <time>2010-01-01T02:51:49Z</time>
      </trkpt>
      <trkpt lat="42.29049" lon="2.30465">
        <ele>1548</ele>
        <time>2010-01-01T02:51:51Z</time>
      </trkpt>
      <trkpt lat="42.29052" lon="2.3047">
        <ele>1548</ele>
        <time>2010-01-01T02:51:53Z</time>
      </trkpt>
      <trkpt lat="42.29055" lon="2.30475">
        <ele>1548</ele>
        <time>2010-01-01T02:51:55Z</time>
      </trkpt>
      <trkpt lat="42.29058" lon="2.30482">
        <ele>1548</ele>
        <time>2010-01-01T02:51:57Z</time>
      </trkpt>
      <trkpt lat="42.29061" lon="2.30487">
        <ele>1548</ele>
        <time>2010-01-01T02:51:59Z</time>
      </trkpt>
      <trkpt lat="42.29064" lon="2.30491">
        <ele>1548</ele>
        <time>2010-01-01T02:52:01Z</time>
      </trkpt>
      <trkpt lat="42.29067" lon="2.30495">
        <ele>1547</ele>
        <time>2010-01-01T02:52:02Z</time>
      </trkpt>
      <trkpt lat="42.29069" lon="2.30499">
        <ele>1547</ele>
        <time>2010-01-01T02:52:04Z</time>
      </trkpt>
      <trkpt lat="42.29073" lon="2.30502">
        <ele>1547</ele>
        <time>2010-01-01T02:52:06Z</time>
      </trkpt>
      <trkpt lat="42.29076" lon="2.30506">
        <ele>1546</ele>
        <time>2010-01-01T02:52:08Z</time>
      </trkpt>
      <trkpt lat="42.29079" lon="2.30511">
        <ele>1546</ele>
        <time>2010-01-01T02:52:10Z</time>
      </trkpt>
      <trkpt lat="42.29082" lon="2.30513">
        <ele>1546</ele>
        <time>2010-01-01T02:52:11Z</time>
      </trkpt>
      <trkpt lat="42.29084" lon="2.30516">
        <ele>1545</ele>
        <time>2010-01-01T02:52:12Z</time>
      </trkpt>
      <trkpt lat="42.29085" lon="2.30518">
        <ele>1546</ele>
        <time>2010-01-01T02:52:13Z</time>
      </trkpt>
      <trkpt lat="42.29087" lon="2.30521">
        <ele>1546</ele>
        <time>2010-01-01T02:52:14Z</time>
      </trkpt>
      <trkpt lat="42.29089" lon="2.30523">
        <ele>1547</ele>
        <time>2010-01-01T02:52:15Z</time>
      </trkpt>
      <trkpt lat="42.29092" lon="2.30526">
        <ele>1547</ele>
        <time>2010-01-01T02:52:16Z</time>
      </trkpt>
      <trkpt lat="42.29095" lon="2.30529">
        <ele>1548</ele>
        <time>2010-01-01T02:52:18Z</time>
      </trkpt>
      <trkpt lat="42.29097" lon="2.30532">
        <ele>1548</ele>
        <time>2010-01-01T02:52:19Z</time>
      </trkpt>
      <trkpt lat="42.29099" lon="2.30536">
        <ele>1549</ele>
        <time>2010-01-01T02:52:20Z</time>
      </trkpt>
      <trkpt lat="42.291" lon="2.30539">
        <ele>1549</ele>
        <time>2010-01-01T02:52:21Z</time>
      </trkpt>
      <trkpt lat="42.29102" lon="2.30542">
        <ele>1550</ele>
        <time>2010-01-01T02:52:22Z</time>
      </trkpt>
      <trkpt lat="42.29104" lon="2.30545">
        <ele>1550</ele>
        <time>2010-01-01T02:52:24Z</time>
      </trkpt>
      <trkpt lat="42.29107" lon="2.30547">
        <ele>1551</ele>
        <time>2010-01-01T02:52:25Z</time>
      </trkpt>
      <trkpt lat="42.29108" lon="2.30548">
        <ele>1552</ele>
        <time>2010-01-01T02:52:26Z</time>
      </trkpt>
      <trkpt lat="42.29109" lon="2.30551">
        <ele>1552</ele>
        <time>2010-01-01T02:52:27Z</time>
      </trkpt>
      <trkpt lat="42.29111" lon="2.30555">
        <ele>1552</ele>
        <time>2010-01-01T02:52:28Z</time>
      </trkpt>
      <trkpt lat="42.29112" lon="2.30558">
        <ele>1553</ele>
        <time>2010-01-01T02:52:29Z</time>
      </trkpt>
      <trkpt lat="42.29114" lon="2.30562">
        <ele>1554</ele>
        <time>2010-01-01T02:52:30Z</time>
      </trkpt>
      <trkpt lat="42.29115" lon="2.30565">
        <ele>1554</ele>
        <time>2010-01-01T02:52:31Z</time>
      </trkpt>
      <trkpt lat="42.29117" lon="2.30568">
        <ele>1555</ele>
        <time>2010-01-01T02:52:32Z</time>
      </trkpt>
      <trkpt lat="42.29118" lon="2.30571">
        <ele>1555</ele>
        <time>2010-01-01T02:52:33Z</time>
      </trkpt>
      <trkpt lat="42.29118" lon="2.30575">
        <ele>1555</ele>
        <time>2010-01-01T02:52:35Z</time>
      </trkpt>
      <trkpt lat="42.2912" lon="2.30578">
        <ele>1556</ele>
        <time>2010-01-01T02:52:36Z</time>
      </trkpt>
      <trkpt lat="42.29122" lon="2.30582">
        <ele>1557</ele>
        <time>2010-01-01T02:52:37Z</time>
      </trkpt>
      <trkpt lat="42.29123" lon="2.30585">
        <ele>1557</ele>
        <time>2010-01-01T02:52:38Z</time>
      </trkpt>
      <trkpt lat="42.29124" lon="2.30588">
        <ele>1557</ele>
        <time>2010-01-01T02:52:39Z</time>
      </trkpt>
      <trkpt lat="42.29125" lon="2.30592">
        <ele>1557</ele>
        <time>2010-01-01T02:52:40Z</time>
      </trkpt>
      <trkpt lat="42.29126" lon="2.30595">
        <ele>1557</ele>
        <time>2010-01-01T02:52:41Z</time>
      </trkpt>
      <trkpt lat="42.29128" lon="2.30599">
        <ele>1557</ele>
        <time>2010-01-01T02:52:43Z</time>
      </trkpt>
      <trkpt lat="42.2913" lon="2.30603">
        <ele>1558</ele>
        <time>2010-01-01T02:52:44Z</time>
      </trkpt>
      <trkpt lat="42.29132" lon="2.30607">
        <ele>1558</ele>
        <time>2010-01-01T02:52:46Z</time>
      </trkpt>
      <trkpt lat="42.29134" lon="2.30614">
        <ele>1558</ele>
        <time>2010-01-01T02:52:48Z</time>
      </trkpt>
      <trkpt lat="42.29136" lon="2.30619">
        <ele>1559</ele>
        <time>2010-01-01T02:52:49Z</time>
      </trkpt>
      <trkpt lat="42.29138" lon="2.30624">
        <ele>1559</ele>
        <time>2010-01-01T02:52:51Z</time>
      </trkpt>
      <trkpt lat="42.29138" lon="2.30628">
        <ele>1559</ele>
        <time>2010-01-01T02:52:52Z</time>
      </trkpt>
      <trkpt lat="42.29139" lon="2.30631">
        <ele>1558</ele>
        <time>2010-01-01T02:52:53Z</time>
      </trkpt>
      <trkpt lat="42.2914" lon="2.30634">
        <ele>1558</ele>
        <time>2010-01-01T02:52:54Z</time>
      </trkpt>
      <trkpt lat="42.2914" lon="2.30637">
        <ele>1558</ele>
        <time>2010-01-01T02:52:55Z</time>
      </trkpt>
      <trkpt lat="42.2914" lon="2.30641">
        <ele>1558</ele>
        <time>2010-01-01T02:52:56Z</time>
      </trkpt>
      <trkpt lat="42.29142" lon="2.30655">
        <ele>1559</ele>
        <time>2010-01-01T02:53:00Z</time>
      </trkpt>
      <trkpt lat="42.29143" lon="2.30658">
        <ele>1559</ele>
        <time>2010-01-01T02:53:01Z</time>
      </trkpt>
      <trkpt lat="42.29143" lon="2.30661">
        <ele>1560</ele>
        <time>2010-01-01T02:53:02Z</time>
      </trkpt>
      <trkpt lat="42.29144" lon="2.30666">
        <ele>1560</ele>
        <time>2010-01-01T02:53:04Z</time>
      </trkpt>
      <trkpt lat="42.29143" lon="2.3067">
        <ele>1560</ele>
        <time>2010-01-01T02:53:05Z</time>
      </trkpt>
      <trkpt lat="42.29144" lon="2.30674">
        <ele>1560</ele>
        <time>2010-01-01T02:53:06Z</time>
      </trkpt>
      <trkpt lat="42.29144" lon="2.30678">
        <ele>1560</ele>
        <time>2010-01-01T02:53:07Z</time>
      </trkpt>
      <trkpt lat="42.29144" lon="2.30682">
        <ele>1560</ele>
        <time>2010-01-01T02:53:08Z</time>
      </trkpt>
      <trkpt lat="42.29145" lon="2.30685">
        <ele>1561</ele>
        <time>2010-01-01T02:53:09Z</time>
      </trkpt>
      <trkpt lat="42.29145" lon="2.30688">
        <ele>1561</ele>
        <time>2010-01-01T02:53:11Z</time>
      </trkpt>
      <trkpt lat="42.29145" lon="2.30692">
        <ele>1562</ele>
        <time>2010-01-01T02:53:12Z</time>
      </trkpt>
      <trkpt lat="42.29146" lon="2.30696">
        <ele>1561</ele>
        <time>2010-01-01T02:53:13Z</time>
      </trkpt>
      <trkpt lat="42.29144" lon="2.30701">
        <ele>1561</ele>
        <time>2010-01-01T02:53:14Z</time>
      </trkpt>
      <trkpt lat="42.29144" lon="2.30704">
        <ele>1560</ele>
        <time>2010-01-01T02:53:15Z</time>
      </trkpt>
      <trkpt lat="42.29145" lon="2.30708">
        <ele>1560</ele>
        <time>2010-01-01T02:53:16Z</time>
      </trkpt>
      <trkpt lat="42.29146" lon="2.30711">
        <ele>1559</ele>
        <time>2010-01-01T02:53:17Z</time>
      </trkpt>
      <trkpt lat="42.29146" lon="2.30714">
        <ele>1559</ele>
        <time>2010-01-01T02:53:18Z</time>
      </trkpt>
      <trkpt lat="42.29146" lon="2.30717">
        <ele>1559</ele>
        <time>2010-01-01T02:53:19Z</time>
      </trkpt>
      <trkpt lat="42.29146" lon="2.30721">
        <ele>1558</ele>
        <time>2010-01-01T02:53:20Z</time>
      </trkpt>
      <trkpt lat="42.29147" lon="2.30724">
        <ele>1558</ele>
        <time>2010-01-01T02:53:21Z</time>
      </trkpt>
      <trkpt lat="42.29147" lon="2.30728">
        <ele>1559</ele>
        <time>2010-01-01T02:53:22Z</time>
      </trkpt>
      <trkpt lat="42.29147" lon="2.30732">
        <ele>1558</ele>
        <time>2010-01-01T02:53:24Z</time>
      </trkpt>
      <trkpt lat="42.29146" lon="2.30735">
        <ele>1559</ele>
        <time>2010-01-01T02:53:25Z</time>
      </trkpt>
      <trkpt lat="42.29146" lon="2.30739">
        <ele>1559</ele>
        <time>2010-01-01T02:53:26Z</time>
      </trkpt>
      <trkpt lat="42.29147" lon="2.30743">
        <ele>1559</ele>
        <time>2010-01-01T02:53:27Z</time>
      </trkpt>
      <trkpt lat="42.29148" lon="2.30746">
        <ele>1559</ele>
        <time>2010-01-01T02:53:28Z</time>
      </trkpt>
      <trkpt lat="42.29148" lon="2.3075">
        <ele>1559</ele>
        <time>2010-01-01T02:53:29Z</time>
      </trkpt>
      <trkpt lat="42.29148" lon="2.30753">
        <ele>1560</ele>
        <time>2010-01-01T02:53:30Z</time>
      </trkpt>
      <trkpt lat="42.29148" lon="2.30757">
        <ele>1560</ele>
        <time>2010-01-01T02:53:31Z</time>
      </trkpt>
      <trkpt lat="42.29148" lon="2.30761">
        <ele>1561</ele>
        <time>2010-01-01T02:53:32Z</time>
      </trkpt>
      <trkpt lat="42.29148" lon="2.30764">
        <ele>1562</ele>
        <time>2010-01-01T02:53:33Z</time>
      </trkpt>
      <trkpt lat="42.29148" lon="2.30768">
        <ele>1562</ele>
        <time>2010-01-01T02:53:34Z</time>
      </trkpt>
      <trkpt lat="42.29147" lon="2.30771">
        <ele>1563</ele>
        <time>2010-01-01T02:53:35Z</time>
      </trkpt>
      <trkpt lat="42.29148" lon="2.30776">
        <ele>1563</ele>
        <time>2010-01-01T02:53:37Z</time>
      </trkpt>
      <trkpt lat="42.29148" lon="2.3078">
        <ele>1564</ele>
        <time>2010-01-01T02:53:38Z</time>
      </trkpt>
      <trkpt lat="42.29149" lon="2.30785">
        <ele>1564</ele>
        <time>2010-01-01T02:53:39Z</time>
      </trkpt>
      <trkpt lat="42.29149" lon="2.3079">
        <ele>1564</ele>
        <time>2010-01-01T02:53:41Z</time>
      </trkpt>
      <trkpt lat="42.29149" lon="2.30795">
        <ele>1564</ele>
        <time>2010-01-01T02:53:43Z</time>
      </trkpt>
      <trkpt lat="42.2915" lon="2.308">
        <ele>1564</ele>
        <time>2010-01-01T02:53:44Z</time>
      </trkpt>
      <trkpt lat="42.2915" lon="2.30806">
        <ele>1564</ele>
        <time>2010-01-01T02:53:46Z</time>
      </trkpt>
      <trkpt lat="42.29151" lon="2.30812">
        <ele>1564</ele>
        <time>2010-01-01T02:53:48Z</time>
      </trkpt>
      <trkpt lat="42.29152" lon="2.30817">
        <ele>1564</ele>
        <time>2010-01-01T02:53:49Z</time>
      </trkpt>
      <trkpt lat="42.29153" lon="2.30822">
        <ele>1564</ele>
        <time>2010-01-01T02:53:51Z</time>
      </trkpt>
      <trkpt lat="42.29155" lon="2.30827">
        <ele>1565</ele>
        <time>2010-01-01T02:53:52Z</time>
      </trkpt>
      <trkpt lat="42.29157" lon="2.30832">
        <ele>1564</ele>
        <time>2010-01-01T02:53:54Z</time>
      </trkpt>
      <trkpt lat="42.29158" lon="2.30837">
        <ele>1565</ele>
        <time>2010-01-01T02:53:56Z</time>
      </trkpt>
      <trkpt lat="42.2916" lon="2.30842">
        <ele>1565</ele>
        <time>2010-01-01T02:53:57Z</time>
      </trkpt>
      <trkpt lat="42.29161" lon="2.30847">
        <ele>1565</ele>
        <time>2010-01-01T02:53:59Z</time>
      </trkpt>
      <trkpt lat="42.29163" lon="2.30852">
        <ele>1566</ele>
        <time>2010-01-01T02:54:00Z</time>
      </trkpt>
      <trkpt lat="42.29165" lon="2.30856">
        <ele>1566</ele>
        <time>2010-01-01T02:54:02Z</time>
      </trkpt>
      <trkpt lat="42.29167" lon="2.30861">
        <ele>1567</ele>
        <time>2010-01-01T02:54:03Z</time>
      </trkpt>
      <trkpt lat="42.29168" lon="2.30866">
        <ele>1567</ele>
        <time>2010-01-01T02:54:05Z</time>
      </trkpt>
      <trkpt lat="42.2917" lon="2.3087">
        <ele>1568</ele>
        <time>2010-01-01T02:54:07Z</time>
      </trkpt>
      <trkpt lat="42.29172" lon="2.30872">
        <ele>1568</ele>
        <time>2010-01-01T02:54:07Z</time>
      </trkpt>
      <trkpt lat="42.29175" lon="2.30872">
        <ele>1569</ele>
        <time>2010-01-01T02:54:09Z</time>
      </trkpt>
      <trkpt lat="42.29177" lon="2.30871">
        <ele>1569</ele>
        <time>2010-01-01T02:54:09Z</time>
      </trkpt>
      <trkpt lat="42.29179" lon="2.30871">
        <ele>1569</ele>
        <time>2010-01-01T02:54:10Z</time>
      </trkpt>
      <trkpt lat="42.29181" lon="2.30871">
        <ele>1570</ele>
        <time>2010-01-01T02:54:11Z</time>
      </trkpt>
      <trkpt lat="42.29183" lon="2.30871">
        <ele>1570</ele>
        <time>2010-01-01T02:54:12Z</time>
      </trkpt>
      <trkpt lat="42.29186" lon="2.3087">
        <ele>1571</ele>
        <time>2010-01-01T02:54:13Z</time>
      </trkpt>
      <trkpt lat="42.29188" lon="2.3087">
        <ele>1571</ele>
        <time>2010-01-01T02:54:14Z</time>
      </trkpt>
      <trkpt lat="42.2919" lon="2.30871">
        <ele>1572</ele>
        <time>2010-01-01T02:54:14Z</time>
      </trkpt>
      <trkpt lat="42.29192" lon="2.30871">
        <ele>1572</ele>
        <time>2010-01-01T02:54:15Z</time>
      </trkpt>
      <trkpt lat="42.29194" lon="2.30871">
        <ele>1572</ele>
        <time>2010-01-01T02:54:16Z</time>
      </trkpt>
      <trkpt lat="42.29196" lon="2.30871">
        <ele>1573</ele>
        <time>2010-01-01T02:54:17Z</time>
      </trkpt>
      <trkpt lat="42.29198" lon="2.30871">
        <ele>1574</ele>
        <time>2010-01-01T02:54:18Z</time>
      </trkpt>
      <trkpt lat="42.292" lon="2.3087">
        <ele>1575</ele>
        <time>2010-01-01T02:54:19Z</time>
      </trkpt>
      <trkpt lat="42.29202" lon="2.30869">
        <ele>1576</ele>
        <time>2010-01-01T02:54:19Z</time>
      </trkpt>
      <trkpt lat="42.29203" lon="2.30866">
        <ele>1577</ele>
        <time>2010-01-01T02:54:20Z</time>
      </trkpt>
      <trkpt lat="42.29205" lon="2.30865">
        <ele>1578</ele>
        <time>2010-01-01T02:54:21Z</time>
      </trkpt>
      <trkpt lat="42.29207" lon="2.30866">
        <ele>1579</ele>
        <time>2010-01-01T02:54:22Z</time>
      </trkpt>
      <trkpt lat="42.29209" lon="2.30866">
        <ele>1580</ele>
        <time>2010-01-01T02:54:23Z</time>
      </trkpt>
      <trkpt lat="42.29211" lon="2.30867">
        <ele>1582</ele>
        <time>2010-01-01T02:54:24Z</time>
      </trkpt>
      <trkpt lat="42.29213" lon="2.30867">
        <ele>1583</ele>
        <time>2010-01-01T02:54:24Z</time>
      </trkpt>
      <trkpt lat="42.29215" lon="2.30868">
        <ele>1584</ele>
        <time>2010-01-01T02:54:25Z</time>
      </trkpt>
      <trkpt lat="42.29217" lon="2.30868">
        <ele>1585</ele>
        <time>2010-01-01T02:54:26Z</time>
      </trkpt>
      <trkpt lat="42.29219" lon="2.30869">
        <ele>1586</ele>
        <time>2010-01-01T02:54:27Z</time>
      </trkpt>
      <trkpt lat="42.29221" lon="2.3087">
        <ele>1587</ele>
        <time>2010-01-01T02:54:28Z</time>
      </trkpt>
      <trkpt lat="42.29223" lon="2.30871">
        <ele>1588</ele>
        <time>2010-01-01T02:54:28Z</time>
      </trkpt>
      <trkpt lat="42.29224" lon="2.30872">
        <ele>1589</ele>
        <time>2010-01-01T02:54:29Z</time>
      </trkpt>
      <trkpt lat="42.29227" lon="2.30873">
        <ele>1590</ele>
        <time>2010-01-01T02:54:30Z</time>
      </trkpt>
      <trkpt lat="42.2923" lon="2.30873">
        <ele>1591</ele>
        <time>2010-01-01T02:54:31Z</time>
      </trkpt>
      <trkpt lat="42.29232" lon="2.30874">
        <ele>1592</ele>
        <time>2010-01-01T02:54:32Z</time>
      </trkpt>
      <trkpt lat="42.29234" lon="2.30875">
        <ele>1593</ele>
        <time>2010-01-01T02:54:33Z</time>
      </trkpt>
      <trkpt lat="42.29236" lon="2.30876">
        <ele>1594</ele>
        <time>2010-01-01T02:54:34Z</time>
      </trkpt>
      <trkpt lat="42.29238" lon="2.30877">
        <ele>1595</ele>
        <time>2010-01-01T02:54:35Z</time>
      </trkpt>
      <trkpt lat="42.29241" lon="2.30878">
        <ele>1596</ele>
        <time>2010-01-01T02:54:36Z</time>
      </trkpt>
      <trkpt lat="42.29243" lon="2.30879">
        <ele>1597</ele>
        <time>2010-01-01T02:54:37Z</time>
      </trkpt>
      <trkpt lat="42.29245" lon="2.30878">
        <ele>1598</ele>
        <time>2010-01-01T02:54:38Z</time>
      </trkpt>
      <trkpt lat="42.29248" lon="2.30879">
        <ele>1600</ele>
        <time>2010-01-01T02:54:39Z</time>
      </trkpt>
      <trkpt lat="42.2925" lon="2.30879">
        <ele>1601</ele>
        <time>2010-01-01T02:54:40Z</time>
      </trkpt>
      <trkpt lat="42.29252" lon="2.3088">
        <ele>1601</ele>
        <time>2010-01-01T02:54:41Z</time>
      </trkpt>
      <trkpt lat="42.29255" lon="2.30881">
        <ele>1602</ele>
        <time>2010-01-01T02:54:42Z</time>
      </trkpt>
      <trkpt lat="42.29256" lon="2.30883">
        <ele>1603</ele>
        <time>2010-01-01T02:54:43Z</time>
      </trkpt>
      <trkpt lat="42.29258" lon="2.30885">
        <ele>1603</ele>
        <time>2010-01-01T02:54:44Z</time>
      </trkpt>
      <trkpt lat="42.2926" lon="2.30886">
        <ele>1604</ele>
        <time>2010-01-01T02:54:44Z</time>
      </trkpt>
      <trkpt lat="42.29262" lon="2.30888">
        <ele>1605</ele>
        <time>2010-01-01T02:54:45Z</time>
      </trkpt>
      <trkpt lat="42.29264" lon="2.30891">
        <ele>1605</ele>
        <time>2010-01-01T02:54:46Z</time>
      </trkpt>
      <trkpt lat="42.29264" lon="2.30894">
        <ele>1605</ele>
        <time>2010-01-01T02:54:47Z</time>
      </trkpt>
      <trkpt lat="42.29265" lon="2.30897">
        <ele>1605</ele>
        <time>2010-01-01T02:54:48Z</time>
      </trkpt>
      <trkpt lat="42.29266" lon="2.309">
        <ele>1605</ele>
        <time>2010-01-01T02:54:49Z</time>
      </trkpt>
      <trkpt lat="42.29266" lon="2.30903">
        <ele>1605</ele>
        <time>2010-01-01T02:54:50Z</time>
      </trkpt>
      <trkpt lat="42.29266" lon="2.30906">
        <ele>1604</ele>
        <time>2010-01-01T02:54:51Z</time>
      </trkpt>
      <trkpt lat="42.29267" lon="2.30909">
        <ele>1604</ele>
        <time>2010-01-01T02:54:52Z</time>
      </trkpt>
      <trkpt lat="42.29268" lon="2.30912">
        <ele>1604</ele>
        <time>2010-01-01T02:54:53Z</time>
      </trkpt>
      <trkpt lat="42.29269" lon="2.30915">
        <ele>1604</ele>
        <time>2010-01-01T02:54:54Z</time>
      </trkpt>
      <trkpt lat="42.2927" lon="2.30918">
        <ele>1604</ele>
        <time>2010-01-01T02:54:55Z</time>
      </trkpt>
      <trkpt lat="42.29271" lon="2.30921">
        <ele>1604</ele>
        <time>2010-01-01T02:54:56Z</time>
      </trkpt>
      <trkpt lat="42.29271" lon="2.30924">
        <ele>1604</ele>
        <time>2010-01-01T02:54:57Z</time>
      </trkpt>
      <trkpt lat="42.29272" lon="2.30928">
        <ele>1604</ele>
        <time>2010-01-01T02:54:58Z</time>
      </trkpt>
      <trkpt lat="42.29272" lon="2.30931">
        <ele>1604</ele>
        <time>2010-01-01T02:54:59Z</time>
      </trkpt>
      <trkpt lat="42.29273" lon="2.30934">
        <ele>1604</ele>
        <time>2010-01-01T02:55:00Z</time>
      </trkpt>
      <trkpt lat="42.29274" lon="2.30937">
        <ele>1604</ele>
        <time>2010-01-01T02:55:01Z</time>
      </trkpt>
      <trkpt lat="42.29276" lon="2.30939">
        <ele>1605</ele>
        <time>2010-01-01T02:55:02Z</time>
      </trkpt>
      <trkpt lat="42.29278" lon="2.30939">
        <ele>1606</ele>
        <time>2010-01-01T02:55:02Z</time>
      </trkpt>
      <trkpt lat="42.2928" lon="2.3094">
        <ele>1607</ele>
        <time>2010-01-01T02:55:03Z</time>
      </trkpt>
      <trkpt lat="42.29282" lon="2.3094">
        <ele>1609</ele>
        <time>2010-01-01T02:55:04Z</time>
      </trkpt>
      <trkpt lat="42.29285" lon="2.3094">
        <ele>1610</ele>
        <time>2010-01-01T02:55:05Z</time>
      </trkpt>
      <trkpt lat="42.29286" lon="2.3094">
        <ele>1611</ele>
        <time>2010-01-01T02:55:06Z</time>
      </trkpt>
      <trkpt lat="42.29288" lon="2.3094">
        <ele>1613</ele>
        <time>2010-01-01T02:55:07Z</time>
      </trkpt>
      <trkpt lat="42.2929" lon="2.30939">
        <ele>1614</ele>
        <time>2010-01-01T02:55:07Z</time>
      </trkpt>
      <trkpt lat="42.29292" lon="2.30938">
        <ele>1615</ele>
        <time>2010-01-01T02:55:08Z</time>
      </trkpt>
      <trkpt lat="42.29294" lon="2.30938">
        <ele>1617</ele>
        <time>2010-01-01T02:55:09Z</time>
      </trkpt>
      <trkpt lat="42.29296" lon="2.30938">
        <ele>1618</ele>
        <time>2010-01-01T02:55:10Z</time>
      </trkpt>
      <trkpt lat="42.29298" lon="2.30938">
        <ele>1619</ele>
        <time>2010-01-01T02:55:11Z</time>
      </trkpt>
      <trkpt lat="42.293" lon="2.30939">
        <ele>1621</ele>
        <time>2010-01-01T02:55:11Z</time>
      </trkpt>
      <trkpt lat="42.29302" lon="2.30939">
        <ele>1622</ele>
        <time>2010-01-01T02:55:12Z</time>
      </trkpt>
      <trkpt lat="42.29304" lon="2.30938">
        <ele>1623</ele>
        <time>2010-01-01T02:55:13Z</time>
      </trkpt>
      <trkpt lat="42.29306" lon="2.30938">
        <ele>1625</ele>
        <time>2010-01-01T02:55:14Z</time>
      </trkpt>
      <trkpt lat="42.29308" lon="2.3094">
        <ele>1626</ele>
        <time>2010-01-01T02:55:15Z</time>
      </trkpt>
      <trkpt lat="42.2931" lon="2.30938">
        <ele>1627</ele>
        <time>2010-01-01T02:55:16Z</time>
      </trkpt>
      <trkpt lat="42.29312" lon="2.30938">
        <ele>1628</ele>
        <time>2010-01-01T02:55:17Z</time>
      </trkpt>
      <trkpt lat="42.29313" lon="2.30935">
        <ele>1629</ele>
        <time>2010-01-01T02:55:17Z</time>
      </trkpt>
      <trkpt lat="42.29314" lon="2.30933">
        <ele>1629</ele>
        <time>2010-01-01T02:55:18Z</time>
      </trkpt>
      <trkpt lat="42.29316" lon="2.30931">
        <ele>1630</ele>
        <time>2010-01-01T02:55:19Z</time>
      </trkpt>
      <trkpt lat="42.29318" lon="2.30931">
        <ele>1631</ele>
        <time>2010-01-01T02:55:20Z</time>
      </trkpt>
      <trkpt lat="42.29319" lon="2.30931">
        <ele>1632</ele>
        <time>2010-01-01T02:55:20Z</time>
      </trkpt>
      <trkpt lat="42.2932" lon="2.30928">
        <ele>1633</ele>
        <time>2010-01-01T02:55:21Z</time>
      </trkpt>
      <trkpt lat="42.29321" lon="2.30925">
        <ele>1633</ele>
        <time>2010-01-01T02:55:22Z</time>
      </trkpt>
      <trkpt lat="42.29322" lon="2.30922">
        <ele>1634</ele>
        <time>2010-01-01T02:55:23Z</time>
      </trkpt>
      <trkpt lat="42.29323" lon="2.30919">
        <ele>1635</ele>
        <time>2010-01-01T02:55:24Z</time>
      </trkpt>
      <trkpt lat="42.29324" lon="2.30917">
        <ele>1635</ele>
        <time>2010-01-01T02:55:25Z</time>
      </trkpt>
      <trkpt lat="42.29326" lon="2.30914">
        <ele>1636</ele>
        <time>2010-01-01T02:55:26Z</time>
      </trkpt>
      <trkpt lat="42.29327" lon="2.30912">
        <ele>1637</ele>
        <time>2010-01-01T02:55:27Z</time>
      </trkpt>
      <trkpt lat="42.29327" lon="2.30909">
        <ele>1637</ele>
        <time>2010-01-01T02:55:28Z</time>
      </trkpt>
      <trkpt lat="42.29328" lon="2.30906">
        <ele>1638</ele>
        <time>2010-01-01T02:55:28Z</time>
      </trkpt>
      <trkpt lat="42.29329" lon="2.30904">
        <ele>1639</ele>
        <time>2010-01-01T02:55:29Z</time>
      </trkpt>
      <trkpt lat="42.29331" lon="2.30904">
        <ele>1640</ele>
        <time>2010-01-01T02:55:30Z</time>
      </trkpt>
      <trkpt lat="42.29334" lon="2.30904">
        <ele>1642</ele>
        <time>2010-01-01T02:55:31Z</time>
      </trkpt>
      <trkpt lat="42.29335" lon="2.30903">
        <ele>1643</ele>
        <time>2010-01-01T02:55:32Z</time>
      </trkpt>
      <trkpt lat="42.29337" lon="2.30903">
        <ele>1645</ele>
        <time>2010-01-01T02:55:33Z</time>
      </trkpt>
      <trkpt lat="42.29339" lon="2.30903">
        <ele>1646</ele>
        <time>2010-01-01T02:55:33Z</time>
      </trkpt>
      <trkpt lat="42.29341" lon="2.30903">
        <ele>1648</ele>
        <time>2010-01-01T02:55:34Z</time>
      </trkpt>
      <trkpt lat="42.29343" lon="2.30902">
        <ele>1649</ele>
        <time>2010-01-01T02:55:35Z</time>
      </trkpt>
      <trkpt lat="42.29345" lon="2.30902">
        <ele>1651</ele>
        <time>2010-01-01T02:55:36Z</time>
      </trkpt>
      <trkpt lat="42.29347" lon="2.30902">
        <ele>1653</ele>
        <time>2010-01-01T02:55:37Z</time>
      </trkpt>
      <trkpt lat="42.29349" lon="2.30899">
        <ele>1654</ele>
        <time>2010-01-01T02:55:37Z</time>
      </trkpt>
      <trkpt lat="42.2935" lon="2.30897">
        <ele>1655</ele>
        <time>2010-01-01T02:55:38Z</time>
      </trkpt>
      <trkpt lat="42.29352" lon="2.30896">
        <ele>1656</ele>
        <time>2010-01-01T02:55:39Z</time>
      </trkpt>
      <trkpt lat="42.29354" lon="2.30895">
        <ele>1658</ele>
        <time>2010-01-01T02:55:40Z</time>
      </trkpt>
      <trkpt lat="42.29356" lon="2.30894">
        <ele>1660</ele>
        <time>2010-01-01T02:55:41Z</time>
      </trkpt>
      <trkpt lat="42.29358" lon="2.30894">
        <ele>1662</ele>
        <time>2010-01-01T02:55:42Z</time>
      </trkpt>
      <trkpt lat="42.2936" lon="2.30892">
        <ele>1663</ele>
        <time>2010-01-01T02:55:43Z</time>
      </trkpt>
      <trkpt lat="42.29361" lon="2.3089">
        <ele>1664</ele>
        <time>2010-01-01T02:55:43Z</time>
      </trkpt>
      <trkpt lat="42.29362" lon="2.30888">
        <ele>1664</ele>
        <time>2010-01-01T02:55:44Z</time>
      </trkpt>
      <trkpt lat="42.29364" lon="2.30885">
        <ele>1665</ele>
        <time>2010-01-01T02:55:45Z</time>
      </trkpt>
      <trkpt lat="42.29365" lon="2.30885">
        <ele>1666</ele>
        <time>2010-01-01T02:55:46Z</time>
      </trkpt>
      <trkpt lat="42.29367" lon="2.30883">
        <ele>1667</ele>
        <time>2010-01-01T02:55:47Z</time>
      </trkpt>
      <trkpt lat="42.29368" lon="2.30881">
        <ele>1668</ele>
        <time>2010-01-01T02:55:48Z</time>
      </trkpt>
      <trkpt lat="42.29369" lon="2.30878">
        <ele>1668</ele>
        <time>2010-01-01T02:55:49Z</time>
      </trkpt>
      <trkpt lat="42.2937" lon="2.30875">
        <ele>1669</ele>
        <time>2010-01-01T02:55:49Z</time>
      </trkpt>
      <trkpt lat="42.29372" lon="2.30873">
        <ele>1670</ele>
        <time>2010-01-01T02:55:50Z</time>
      </trkpt>
      <trkpt lat="42.29373" lon="2.30871">
        <ele>1670</ele>
        <time>2010-01-01T02:55:51Z</time>
      </trkpt>
      <trkpt lat="42.29374" lon="2.30868">
        <ele>1670</ele>
        <time>2010-01-01T02:55:52Z</time>
      </trkpt>
      <trkpt lat="42.29375" lon="2.30865">
        <ele>1671</ele>
        <time>2010-01-01T02:55:53Z</time>
      </trkpt>
      <trkpt lat="42.29375" lon="2.30863">
        <ele>1671</ele>
        <time>2010-01-01T02:55:54Z</time>
      </trkpt>
      <trkpt lat="42.29377" lon="2.30861">
        <ele>1671</ele>
        <time>2010-01-01T02:55:54Z</time>
      </trkpt>
      <trkpt lat="42.29378" lon="2.30859">
        <ele>1672</ele>
        <time>2010-01-01T02:55:55Z</time>
      </trkpt>
      <trkpt lat="42.29379" lon="2.30856">
        <ele>1672</ele>
        <time>2010-01-01T02:55:56Z</time>
      </trkpt>
      <trkpt lat="42.29379" lon="2.30852">
        <ele>1672</ele>
        <time>2010-01-01T02:55:57Z</time>
      </trkpt>
      <trkpt lat="42.2938" lon="2.30849">
        <ele>1671</ele>
        <time>2010-01-01T02:55:58Z</time>
      </trkpt>
      <trkpt lat="42.2938" lon="2.30847">
        <ele>1672</ele>
        <time>2010-01-01T02:55:59Z</time>
      </trkpt>
      <trkpt lat="42.29381" lon="2.30845">
        <ele>1671</ele>
        <time>2010-01-01T02:55:59Z</time>
      </trkpt>
      <trkpt lat="42.29382" lon="2.30842">
        <ele>1672</ele>
        <time>2010-01-01T02:56:01Z</time>
      </trkpt>
      <trkpt lat="42.29384" lon="2.3084">
        <ele>1673</ele>
        <time>2010-01-01T02:56:01Z</time>
      </trkpt>
      <trkpt lat="42.29385" lon="2.30838">
        <ele>1673</ele>
        <time>2010-01-01T02:56:02Z</time>
      </trkpt>
      <trkpt lat="42.29385" lon="2.30835">
        <ele>1673</ele>
        <time>2010-01-01T02:56:03Z</time>
      </trkpt>
      <trkpt lat="42.29387" lon="2.30833">
        <ele>1675</ele>
        <time>2010-01-01T02:56:04Z</time>
      </trkpt>
      <trkpt lat="42.29387" lon="2.30831">
        <ele>1675</ele>
        <time>2010-01-01T02:56:04Z</time>
      </trkpt>
      <trkpt lat="42.29388" lon="2.30829">
        <ele>1676</ele>
        <time>2010-01-01T02:56:05Z</time>
      </trkpt>
      <trkpt lat="42.29389" lon="2.30826">
        <ele>1677</ele>
        <time>2010-01-01T02:56:06Z</time>
      </trkpt>
      <trkpt lat="42.2939" lon="2.30824">
        <ele>1678</ele>
        <time>2010-01-01T02:56:07Z</time>
      </trkpt>
      <trkpt lat="42.29391" lon="2.30821">
        <ele>1679</ele>
        <time>2010-01-01T02:56:08Z</time>
      </trkpt>
      <trkpt lat="42.29391" lon="2.30818">
        <ele>1680</ele>
        <time>2010-01-01T02:56:09Z</time>
      </trkpt>
      <trkpt lat="42.29392" lon="2.30816">
        <ele>1681</ele>
        <time>2010-01-01T02:56:09Z</time>
      </trkpt>
      <trkpt lat="42.29393" lon="2.30813">
        <ele>1682</ele>
        <time>2010-01-01T02:56:10Z</time>
      </trkpt>
      <trkpt lat="42.29394" lon="2.3081">
        <ele>1683</ele>
        <time>2010-01-01T02:56:11Z</time>
      </trkpt>
      <trkpt lat="42.29395" lon="2.30808">
        <ele>1684</ele>
        <time>2010-01-01T02:56:12Z</time>
      </trkpt>
      <trkpt lat="42.29396" lon="2.30806">
        <ele>1685</ele>
        <time>2010-01-01T02:56:13Z</time>
      </trkpt>
      <trkpt lat="42.29397" lon="2.30803">
        <ele>1686</ele>
        <time>2010-01-01T02:56:14Z</time>
      </trkpt>
      <trkpt lat="42.29399" lon="2.30803">
        <ele>1688</ele>
        <time>2010-01-01T02:56:15Z</time>
      </trkpt>
      <trkpt lat="42.29399" lon="2.308">
        <ele>1689</ele>
        <time>2010-01-01T02:56:15Z</time>
      </trkpt>
      <trkpt lat="42.294" lon="2.30798">
        <ele>1690</ele>
        <time>2010-01-01T02:56:16Z</time>
      </trkpt>
      <trkpt lat="42.29399" lon="2.30794">
        <ele>1690</ele>
        <time>2010-01-01T02:56:17Z</time>
      </trkpt>
      <trkpt lat="42.294" lon="2.30792">
        <ele>1691</ele>
        <time>2010-01-01T02:56:18Z</time>
      </trkpt>
      <trkpt lat="42.294" lon="2.30789">
        <ele>1692</ele>
        <time>2010-01-01T02:56:19Z</time>
      </trkpt>
      <trkpt lat="42.29401" lon="2.30787">
        <ele>1693</ele>
        <time>2010-01-01T02:56:20Z</time>
      </trkpt>
      <trkpt lat="42.29401" lon="2.30784">
        <ele>1694</ele>
        <time>2010-01-01T02:56:20Z</time>
      </trkpt>
      <trkpt lat="42.29401" lon="2.30781">
        <ele>1694</ele>
        <time>2010-01-01T02:56:21Z</time>
      </trkpt>
      <trkpt lat="42.29402" lon="2.30778">
        <ele>1695</ele>
        <time>2010-01-01T02:56:22Z</time>
      </trkpt>
      <trkpt lat="42.29402" lon="2.30775">
        <ele>1696</ele>
        <time>2010-01-01T02:56:23Z</time>
      </trkpt>
      <trkpt lat="42.29402" lon="2.30773">
        <ele>1696</ele>
        <time>2010-01-01T02:56:24Z</time>
      </trkpt>
      <trkpt lat="42.29402" lon="2.3077">
        <ele>1697</ele>
        <time>2010-01-01T02:56:25Z</time>
      </trkpt>
      <trkpt lat="42.29403" lon="2.30767">
        <ele>1699</ele>
        <time>2010-01-01T02:56:25Z</time>
      </trkpt>
      <trkpt lat="42.29404" lon="2.30764">
        <ele>1700</ele>
        <time>2010-01-01T02:56:26Z</time>
      </trkpt>
      <trkpt lat="42.29404" lon="2.30761">
        <ele>1701</ele>
        <time>2010-01-01T02:56:27Z</time>
      </trkpt>
      <trkpt lat="42.29404" lon="2.30759">
        <ele>1702</ele>
        <time>2010-01-01T02:56:28Z</time>
      </trkpt>
      <trkpt lat="42.29405" lon="2.30757">
        <ele>1702</ele>
        <time>2010-01-01T02:56:29Z</time>
      </trkpt>
      <trkpt lat="42.29406" lon="2.30754">
        <ele>1704</ele>
        <time>2010-01-01T02:56:30Z</time>
      </trkpt>
      <trkpt lat="42.29406" lon="2.30751">
        <ele>1705</ele>
        <time>2010-01-01T02:56:30Z</time>
      </trkpt>
      <trkpt lat="42.29406" lon="2.30749">
        <ele>1705</ele>
        <time>2010-01-01T02:56:31Z</time>
      </trkpt>
      <trkpt lat="42.29407" lon="2.30745">
        <ele>1707</ele>
        <time>2010-01-01T02:56:32Z</time>
      </trkpt>
      <trkpt lat="42.29408" lon="2.30743">
        <ele>1708</ele>
        <time>2010-01-01T02:56:33Z</time>
      </trkpt>
      <trkpt lat="42.29408" lon="2.3074">
        <ele>1709</ele>
        <time>2010-01-01T02:56:34Z</time>
      </trkpt>
      <trkpt lat="42.29408" lon="2.30738">
        <ele>1710</ele>
        <time>2010-01-01T02:56:34Z</time>
      </trkpt>
      <trkpt lat="42.29408" lon="2.30734">
        <ele>1711</ele>
        <time>2010-01-01T02:56:35Z</time>
      </trkpt>
      <trkpt lat="42.29409" lon="2.30731">
        <ele>1712</ele>
        <time>2010-01-01T02:56:36Z</time>
      </trkpt>
      <trkpt lat="42.29409" lon="2.30728">
        <ele>1713</ele>
        <time>2010-01-01T02:56:37Z</time>
      </trkpt>
      <trkpt lat="42.29409" lon="2.30726">
        <ele>1714</ele>
        <time>2010-01-01T02:56:38Z</time>
      </trkpt>
      <trkpt lat="42.29411" lon="2.30724">
        <ele>1715</ele>
        <time>2010-01-01T02:56:39Z</time>
      </trkpt>
      <trkpt lat="42.29412" lon="2.30722">
        <ele>1717</ele>
        <time>2010-01-01T02:56:40Z</time>
      </trkpt>
      <trkpt lat="42.29414" lon="2.3072">
        <ele>1718</ele>
        <time>2010-01-01T02:56:41Z</time>
      </trkpt>
      <trkpt lat="42.29414" lon="2.30717">
        <ele>1719</ele>
        <time>2010-01-01T02:56:42Z</time>
      </trkpt>
      <trkpt lat="42.29414" lon="2.30714">
        <ele>1719</ele>
        <time>2010-01-01T02:56:42Z</time>
      </trkpt>
      <trkpt lat="42.29416" lon="2.30712">
        <ele>1721</ele>
        <time>2010-01-01T02:56:43Z</time>
      </trkpt>
      <trkpt lat="42.29416" lon="2.30709">
        <ele>1721</ele>
        <time>2010-01-01T02:56:44Z</time>
      </trkpt>
      <trkpt lat="42.29416" lon="2.30707">
        <ele>1722</ele>
        <time>2010-01-01T02:56:45Z</time>
      </trkpt>
      <trkpt lat="42.29417" lon="2.30704">
        <ele>1722</ele>
        <time>2010-01-01T02:56:46Z</time>
      </trkpt>
      <trkpt lat="42.29418" lon="2.30702">
        <ele>1723</ele>
        <time>2010-01-01T02:56:46Z</time>
      </trkpt>
      <trkpt lat="42.2942" lon="2.30701">
        <ele>1724</ele>
        <time>2010-01-01T02:56:47Z</time>
      </trkpt>
      <trkpt lat="42.29421" lon="2.30698">
        <ele>1725</ele>
        <time>2010-01-01T02:56:48Z</time>
      </trkpt>
      <trkpt lat="42.29423" lon="2.30696">
        <ele>1727</ele>
        <time>2010-01-01T02:56:49Z</time>
      </trkpt>
      <trkpt lat="42.29425" lon="2.30697">
        <ele>1728</ele>
        <time>2010-01-01T02:56:50Z</time>
      </trkpt>
      <trkpt lat="42.29426" lon="2.30694">
        <ele>1729</ele>
        <time>2010-01-01T02:56:51Z</time>
      </trkpt>
      <trkpt lat="42.29427" lon="2.30692">
        <ele>1730</ele>
        <time>2010-01-01T02:56:51Z</time>
      </trkpt>
      <trkpt lat="42.29429" lon="2.3069">
        <ele>1731</ele>
        <time>2010-01-01T02:56:52Z</time>
      </trkpt>
      <trkpt lat="42.29431" lon="2.30689">
        <ele>1732</ele>
        <time>2010-01-01T02:56:53Z</time>
      </trkpt>
      <trkpt lat="42.29433" lon="2.30688">
        <ele>1733</ele>
        <time>2010-01-01T02:56:54Z</time>
      </trkpt>
      <trkpt lat="42.29435" lon="2.30687">
        <ele>1735</ele>
        <time>2010-01-01T02:56:55Z</time>
      </trkpt>
      <trkpt lat="42.29436" lon="2.30687">
        <ele>1736</ele>
        <time>2010-01-01T02:56:56Z</time>
      </trkpt>
      <trkpt lat="42.29438" lon="2.30685">
        <ele>1737</ele>
        <time>2010-01-01T02:56:56Z</time>
      </trkpt>
      <trkpt lat="42.2944" lon="2.30684">
        <ele>1738</ele>
        <time>2010-01-01T02:56:57Z</time>
      </trkpt>
      <trkpt lat="42.29442" lon="2.30683">
        <ele>1739</ele>
        <time>2010-01-01T02:56:58Z</time>
      </trkpt>
      <trkpt lat="42.29443" lon="2.30681">
        <ele>1740</ele>
        <time>2010-01-01T02:56:59Z</time>
      </trkpt>
      <trkpt lat="42.29445" lon="2.3068">
        <ele>1741</ele>
        <time>2010-01-01T02:57:00Z</time>
      </trkpt>
      <trkpt lat="42.29447" lon="2.30679">
        <ele>1742</ele>
        <time>2010-01-01T02:57:00Z</time>
      </trkpt>
      <trkpt lat="42.29449" lon="2.30678">
        <ele>1743</ele>
        <time>2010-01-01T02:57:01Z</time>
      </trkpt>
      <trkpt lat="42.2945" lon="2.30676">
        <ele>1744</ele>
        <time>2010-01-01T02:57:02Z</time>
      </trkpt>
      <trkpt lat="42.29452" lon="2.30676">
        <ele>1745</ele>
        <time>2010-01-01T02:57:03Z</time>
      </trkpt>
      <trkpt lat="42.29454" lon="2.30674">
        <ele>1747</ele>
        <time>2010-01-01T02:57:04Z</time>
      </trkpt>
      <trkpt lat="42.29456" lon="2.30672">
        <ele>1748</ele>
        <time>2010-01-01T02:57:05Z</time>
      </trkpt>
      <trkpt lat="42.29457" lon="2.3067">
        <ele>1749</ele>
        <time>2010-01-01T02:57:06Z</time>
      </trkpt>
      <trkpt lat="42.29459" lon="2.30668">
        <ele>1750</ele>
        <time>2010-01-01T02:57:06Z</time>
      </trkpt>
      <trkpt lat="42.2946" lon="2.30667">
        <ele>1751</ele>
        <time>2010-01-01T02:57:07Z</time>
      </trkpt>
      <trkpt lat="42.29462" lon="2.30665">
        <ele>1752</ele>
        <time>2010-01-01T02:57:08Z</time>
      </trkpt>
      <trkpt lat="42.29464" lon="2.30665">
        <ele>1753</ele>
        <time>2010-01-01T02:57:09Z</time>
      </trkpt>
      <trkpt lat="42.29466" lon="2.30664">
        <ele>1754</ele>
        <time>2010-01-01T02:57:09Z</time>
      </trkpt>
      <trkpt lat="42.29468" lon="2.30662">
        <ele>1755</ele>
        <time>2010-01-01T02:57:10Z</time>
      </trkpt>
      <trkpt lat="42.29469" lon="2.30661">
        <ele>1756</ele>
        <time>2010-01-01T02:57:11Z</time>
      </trkpt>
      <trkpt lat="42.29471" lon="2.30659">
        <ele>1757</ele>
        <time>2010-01-01T02:57:12Z</time>
      </trkpt>
      <trkpt lat="42.29473" lon="2.30657">
        <ele>1758</ele>
        <time>2010-01-01T02:57:13Z</time>
      </trkpt>
      <trkpt lat="42.29474" lon="2.30655">
        <ele>1758</ele>
        <time>2010-01-01T02:57:14Z</time>
      </trkpt>
      <trkpt lat="42.29476" lon="2.30654">
        <ele>1759</ele>
        <time>2010-01-01T02:57:15Z</time>
      </trkpt>
      <trkpt lat="42.29478" lon="2.30653">
        <ele>1759</ele>
        <time>2010-01-01T02:57:15Z</time>
      </trkpt>
      <trkpt lat="42.2948" lon="2.30652">
        <ele>1760</ele>
        <time>2010-01-01T02:57:16Z</time>
      </trkpt>
      <trkpt lat="42.29482" lon="2.3065">
        <ele>1760</ele>
        <time>2010-01-01T02:57:17Z</time>
      </trkpt>
      <trkpt lat="42.29483" lon="2.30647">
        <ele>1761</ele>
        <time>2010-01-01T02:57:18Z</time>
      </trkpt>
      <trkpt lat="42.29485" lon="2.30646">
        <ele>1761</ele>
        <time>2010-01-01T02:57:19Z</time>
      </trkpt>
      <trkpt lat="42.29486" lon="2.30644">
        <ele>1762</ele>
        <time>2010-01-01T02:57:20Z</time>
      </trkpt>
      <trkpt lat="42.29487" lon="2.30642">
        <ele>1762</ele>
        <time>2010-01-01T02:57:20Z</time>
      </trkpt>
      <trkpt lat="42.29489" lon="2.3064">
        <ele>1762</ele>
        <time>2010-01-01T02:57:21Z</time>
      </trkpt>
      <trkpt lat="42.29491" lon="2.30639">
        <ele>1763</ele>
        <time>2010-01-01T02:57:22Z</time>
      </trkpt>
      <trkpt lat="42.29493" lon="2.30638">
        <ele>1764</ele>
        <time>2010-01-01T02:57:23Z</time>
      </trkpt>
      <trkpt lat="42.29494" lon="2.30636">
        <ele>1764</ele>
        <time>2010-01-01T02:57:24Z</time>
      </trkpt>
      <trkpt lat="42.29496" lon="2.30634">
        <ele>1765</ele>
        <time>2010-01-01T02:57:25Z</time>
      </trkpt>
      <trkpt lat="42.29497" lon="2.30631">
        <ele>1765</ele>
        <time>2010-01-01T02:57:26Z</time>
      </trkpt>
      <trkpt lat="42.29498" lon="2.30629">
        <ele>1766</ele>
        <time>2010-01-01T02:57:26Z</time>
      </trkpt>
      <trkpt lat="42.29498" lon="2.30626">
        <ele>1766</ele>
        <time>2010-01-01T02:57:27Z</time>
      </trkpt>
      <trkpt lat="42.29498" lon="2.30622">
        <ele>1767</ele>
        <time>2010-01-01T02:57:28Z</time>
      </trkpt>
      <trkpt lat="42.29497" lon="2.30619">
        <ele>1767</ele>
        <time>2010-01-01T02:57:29Z</time>
      </trkpt>
      <trkpt lat="42.29497" lon="2.30616">
        <ele>1767</ele>
        <time>2010-01-01T02:57:30Z</time>
      </trkpt>
      <trkpt lat="42.29496" lon="2.30614">
        <ele>1768</ele>
        <time>2010-01-01T02:57:31Z</time>
      </trkpt>
      <trkpt lat="42.29496" lon="2.30611">
        <ele>1768</ele>
        <time>2010-01-01T02:57:32Z</time>
      </trkpt>
      <trkpt lat="42.29496" lon="2.30608">
        <ele>1768</ele>
        <time>2010-01-01T02:57:33Z</time>
      </trkpt>
      <trkpt lat="42.29496" lon="2.30604">
        <ele>1769</ele>
        <time>2010-01-01T02:57:34Z</time>
      </trkpt>
      <trkpt lat="42.29495" lon="2.30602">
        <ele>1770</ele>
        <time>2010-01-01T02:57:35Z</time>
      </trkpt>
      <trkpt lat="42.29495" lon="2.30599">
        <ele>1770</ele>
        <time>2010-01-01T02:57:35Z</time>
      </trkpt>
      <trkpt lat="42.29494" lon="2.30596">
        <ele>1771</ele>
        <time>2010-01-01T02:57:36Z</time>
      </trkpt>
      <trkpt lat="42.29494" lon="2.30593">
        <ele>1772</ele>
        <time>2010-01-01T02:57:37Z</time>
      </trkpt>
      <trkpt lat="42.29494" lon="2.3059">
        <ele>1772</ele>
        <time>2010-01-01T02:57:38Z</time>
      </trkpt>
      <trkpt lat="42.29493" lon="2.30586">
        <ele>1773</ele>
        <time>2010-01-01T02:57:39Z</time>
      </trkpt>
      <trkpt lat="42.29493" lon="2.30582">
        <ele>1774</ele>
        <time>2010-01-01T02:57:40Z</time>
      </trkpt>
      <trkpt lat="42.29493" lon="2.30578">
        <ele>1774</ele>
        <time>2010-01-01T02:57:42Z</time>
      </trkpt>
      <trkpt lat="42.29493" lon="2.30575">
        <ele>1774</ele>
        <time>2010-01-01T02:57:43Z</time>
      </trkpt>
      <trkpt lat="42.29493" lon="2.30571">
        <ele>1774</ele>
        <time>2010-01-01T02:57:44Z</time>
      </trkpt>
      <trkpt lat="42.29492" lon="2.30567">
        <ele>1775</ele>
        <time>2010-01-01T02:57:45Z</time>
      </trkpt>
      <trkpt lat="42.29492" lon="2.30562">
        <ele>1775</ele>
        <time>2010-01-01T02:57:46Z</time>
      </trkpt>
      <trkpt lat="42.29491" lon="2.30558">
        <ele>1775</ele>
        <time>2010-01-01T02:57:47Z</time>
      </trkpt>
      <trkpt lat="42.29491" lon="2.30555">
        <ele>1775</ele>
        <time>2010-01-01T02:57:49Z</time>
      </trkpt>
      <trkpt lat="42.29491" lon="2.30551">
        <ele>1775</ele>
        <time>2010-01-01T02:57:50Z</time>
      </trkpt>
      <trkpt lat="42.29491" lon="2.30548">
        <ele>1775</ele>
        <time>2010-01-01T02:57:51Z</time>
      </trkpt>
      <trkpt lat="42.29492" lon="2.30545">
        <ele>1775</ele>
        <time>2010-01-01T02:57:51Z</time>
      </trkpt>
      <trkpt lat="42.29491" lon="2.30542">
        <ele>1775</ele>
        <time>2010-01-01T02:57:52Z</time>
      </trkpt>
      <trkpt lat="42.29491" lon="2.30539">
        <ele>1775</ele>
        <time>2010-01-01T02:57:53Z</time>
      </trkpt>
      <trkpt lat="42.29491" lon="2.30535">
        <ele>1775</ele>
        <time>2010-01-01T02:57:55Z</time>
      </trkpt>
      <trkpt lat="42.29491" lon="2.30531">
        <ele>1775</ele>
        <time>2010-01-01T02:57:56Z</time>
      </trkpt>
      <trkpt lat="42.29491" lon="2.30528">
        <ele>1775</ele>
        <time>2010-01-01T02:57:57Z</time>
      </trkpt>
      <trkpt lat="42.29491" lon="2.30525">
        <ele>1774</ele>
        <time>2010-01-01T02:57:57Z</time>
      </trkpt>
      <trkpt lat="42.29491" lon="2.30522">
        <ele>1774</ele>
        <time>2010-01-01T02:57:58Z</time>
      </trkpt>
      <trkpt lat="42.29491" lon="2.30518">
        <ele>1773</ele>
        <time>2010-01-01T02:57:59Z</time>
      </trkpt>
      <trkpt lat="42.2949" lon="2.30515">
        <ele>1773</ele>
        <time>2010-01-01T02:58:00Z</time>
      </trkpt>
      <trkpt lat="42.29491" lon="2.30512">
        <ele>1772</ele>
        <time>2010-01-01T02:58:01Z</time>
      </trkpt>
      <trkpt lat="42.29491" lon="2.30508">
        <ele>1771</ele>
        <time>2010-01-01T02:58:02Z</time>
      </trkpt>
      <trkpt lat="42.2949" lon="2.30506">
        <ele>1771</ele>
        <time>2010-01-01T02:58:03Z</time>
      </trkpt>
      <trkpt lat="42.2949" lon="2.30503">
        <ele>1771</ele>
        <time>2010-01-01T02:58:04Z</time>
      </trkpt>
      <trkpt lat="42.2949" lon="2.305">
        <ele>1770</ele>
        <time>2010-01-01T02:58:05Z</time>
      </trkpt>
      <trkpt lat="42.2949" lon="2.30496">
        <ele>1770</ele>
        <time>2010-01-01T02:58:06Z</time>
      </trkpt>
      <trkpt lat="42.2949" lon="2.30492">
        <ele>1770</ele>
        <time>2010-01-01T02:58:07Z</time>
      </trkpt>
      <trkpt lat="42.29489" lon="2.30489">
        <ele>1770</ele>
        <time>2010-01-01T02:58:08Z</time>
      </trkpt>
      <trkpt lat="42.29489" lon="2.30485">
        <ele>1770</ele>
        <time>2010-01-01T02:58:09Z</time>
      </trkpt>
      <trkpt lat="42.29489" lon="2.30478">
        <ele>1770</ele>
        <time>2010-01-01T02:58:12Z</time>
      </trkpt>
      <trkpt lat="42.29489" lon="2.30472">
        <ele>1770</ele>
        <time>2010-01-01T02:58:13Z</time>
      </trkpt>
      <trkpt lat="42.29489" lon="2.30467">
        <ele>1770</ele>
        <time>2010-01-01T02:58:15Z</time>
      </trkpt>
      <trkpt lat="42.29489" lon="2.30459">
        <ele>1769</ele>
        <time>2010-01-01T02:58:17Z</time>
      </trkpt>
      <trkpt lat="42.29489" lon="2.30454">
        <ele>1769</ele>
        <time>2010-01-01T02:58:19Z</time>
      </trkpt>
      <trkpt lat="42.29489" lon="2.30449">
        <ele>1769</ele>
        <time>2010-01-01T02:58:20Z</time>
      </trkpt>
      <trkpt lat="42.2949" lon="2.30444">
        <ele>1769</ele>
        <time>2010-01-01T02:58:22Z</time>
      </trkpt>
      <trkpt lat="42.2949" lon="2.30439">
        <ele>1769</ele>
        <time>2010-01-01T02:58:23Z</time>
      </trkpt>
      <trkpt lat="42.2949" lon="2.30433">
        <ele>1769</ele>
        <time>2010-01-01T02:58:25Z</time>
      </trkpt>
      <trkpt lat="42.29489" lon="2.30427">
        <ele>1769</ele>
        <time>2010-01-01T02:58:26Z</time>
      </trkpt>
      <trkpt lat="42.29489" lon="2.30422">
        <ele>1769</ele>
        <time>2010-01-01T02:58:28Z</time>
      </trkpt>
      <trkpt lat="42.29488" lon="2.30419">
        <ele>1769</ele>
        <time>2010-01-01T02:58:29Z</time>
      </trkpt>
      <trkpt lat="42.29487" lon="2.30414">
        <ele>1769</ele>
        <time>2010-01-01T02:58:30Z</time>
      </trkpt>
      <trkpt lat="42.29488" lon="2.30409">
        <ele>1769</ele>
        <time>2010-01-01T02:58:32Z</time>
      </trkpt>
      <trkpt lat="42.29488" lon="2.30403">
        <ele>1769</ele>
        <time>2010-01-01T02:58:34Z</time>
      </trkpt>
      <trkpt lat="42.29487" lon="2.30398">
        <ele>1768</ele>
        <time>2010-01-01T02:58:35Z</time>
      </trkpt>
      <trkpt lat="42.29487" lon="2.30393">
        <ele>1768</ele>
        <time>2010-01-01T02:58:37Z</time>
      </trkpt>
      <trkpt lat="42.29486" lon="2.30387">
        <ele>1768</ele>
        <time>2010-01-01T02:58:38Z</time>
      </trkpt>
      <trkpt lat="42.29486" lon="2.30382">
        <ele>1768</ele>
        <time>2010-01-01T02:58:40Z</time>
      </trkpt>
      <trkpt lat="42.29486" lon="2.30376">
        <ele>1768</ele>
        <time>2010-01-01T02:58:42Z</time>
      </trkpt>
      <trkpt lat="42.29486" lon="2.30371">
        <ele>1768</ele>
        <time>2010-01-01T02:58:43Z</time>
      </trkpt>
      <trkpt lat="42.29485" lon="2.30366">
        <ele>1768</ele>
        <time>2010-01-01T02:58:45Z</time>
      </trkpt>
      <trkpt lat="42.29484" lon="2.30361">
        <ele>1768</ele>
        <time>2010-01-01T02:58:46Z</time>
      </trkpt>
      <trkpt lat="42.29485" lon="2.30357">
        <ele>1768</ele>
        <time>2010-01-01T02:58:48Z</time>
      </trkpt>
      <trkpt lat="42.29484" lon="2.30352">
        <ele>1768</ele>
        <time>2010-01-01T02:58:49Z</time>
      </trkpt>
      <trkpt lat="42.29483" lon="2.30349">
        <ele>1768</ele>
        <time>2010-01-01T02:58:50Z</time>
      </trkpt>
      <trkpt lat="42.29484" lon="2.30345">
        <ele>1768</ele>
        <time>2010-01-01T02:58:51Z</time>
      </trkpt>
      <trkpt lat="42.29484" lon="2.30341">
        <ele>1768</ele>
        <time>2010-01-01T02:58:52Z</time>
      </trkpt>
      <trkpt lat="42.29485" lon="2.30338">
        <ele>1768</ele>
        <time>2010-01-01T02:58:53Z</time>
      </trkpt>
      <trkpt lat="42.29485" lon="2.30335">
        <ele>1769</ele>
        <time>2010-01-01T02:58:54Z</time>
      </trkpt>
      <trkpt lat="42.29485" lon="2.30332">
        <ele>1769</ele>
        <time>2010-01-01T02:58:55Z</time>
      </trkpt>
      <trkpt lat="42.29485" lon="2.30329">
        <ele>1769</ele>
        <time>2010-01-01T02:58:56Z</time>
      </trkpt>
      <trkpt lat="42.29485" lon="2.30326">
        <ele>1769</ele>
        <time>2010-01-01T02:58:57Z</time>
      </trkpt>
      <trkpt lat="42.29485" lon="2.30323">
        <ele>1769</ele>
        <time>2010-01-01T02:58:58Z</time>
      </trkpt>
      <trkpt lat="42.29485" lon="2.3032">
        <ele>1770</ele>
        <time>2010-01-01T02:58:59Z</time>
      </trkpt>
      <trkpt lat="42.29485" lon="2.30316">
        <ele>1770</ele>
        <time>2010-01-01T02:59:00Z</time>
      </trkpt>
      <trkpt lat="42.29485" lon="2.30312">
        <ele>1770</ele>
        <time>2010-01-01T02:59:01Z</time>
      </trkpt>
      <trkpt lat="42.29485" lon="2.30308">
        <ele>1770</ele>
        <time>2010-01-01T02:59:02Z</time>
      </trkpt>
      <trkpt lat="42.29486" lon="2.30305">
        <ele>1771</ele>
        <time>2010-01-01T02:59:03Z</time>
      </trkpt>
      <trkpt lat="42.29486" lon="2.30302">
        <ele>1771</ele>
        <time>2010-01-01T02:59:04Z</time>
      </trkpt>
      <trkpt lat="42.29485" lon="2.30298">
        <ele>1772</ele>
        <time>2010-01-01T02:59:05Z</time>
      </trkpt>
      <trkpt lat="42.29484" lon="2.30295">
        <ele>1772</ele>
        <time>2010-01-01T02:59:06Z</time>
      </trkpt>
      <trkpt lat="42.29483" lon="2.30291">
        <ele>1773</ele>
        <time>2010-01-01T02:59:07Z</time>
      </trkpt>
      <trkpt lat="42.29482" lon="2.30286">
        <ele>1773</ele>
        <time>2010-01-01T02:59:09Z</time>
      </trkpt>
      <trkpt lat="42.29482" lon="2.30279">
        <ele>1774</ele>
        <time>2010-01-01T02:59:11Z</time>
      </trkpt>
      <trkpt lat="42.29482" lon="2.30272">
        <ele>1774</ele>
        <time>2010-01-01T02:59:13Z</time>
      </trkpt>
      <trkpt lat="42.29482" lon="2.30269">
        <ele>1774</ele>
        <time>2010-01-01T02:59:14Z</time>
      </trkpt>
      <trkpt lat="42.29481" lon="2.30265">
        <ele>1775</ele>
        <time>2010-01-01T02:59:15Z</time>
      </trkpt>
      <trkpt lat="42.29481" lon="2.30262">
        <ele>1775</ele>
        <time>2010-01-01T02:59:16Z</time>
      </trkpt>
      <trkpt lat="42.2948" lon="2.30258">
        <ele>1775</ele>
        <time>2010-01-01T02:59:17Z</time>
      </trkpt>
      <trkpt lat="42.2948" lon="2.30256">
        <ele>1775</ele>
        <time>2010-01-01T02:59:18Z</time>
      </trkpt>
      <trkpt lat="42.2948" lon="2.30253">
        <ele>1775</ele>
        <time>2010-01-01T02:59:19Z</time>
      </trkpt>
      <trkpt lat="42.29479" lon="2.30251">
        <ele>1775</ele>
        <time>2010-01-01T02:59:19Z</time>
      </trkpt>
      <trkpt lat="42.29479" lon="2.30248">
        <ele>1775</ele>
        <time>2010-01-01T02:59:20Z</time>
      </trkpt>
      <trkpt lat="42.29479" lon="2.30245">
        <ele>1775</ele>
        <time>2010-01-01T02:59:21Z</time>
      </trkpt>
      <trkpt lat="42.29478" lon="2.30242">
        <ele>1776</ele>
        <time>2010-01-01T02:59:22Z</time>
      </trkpt>
      <trkpt lat="42.29478" lon="2.30239">
        <ele>1776</ele>
        <time>2010-01-01T02:59:23Z</time>
      </trkpt>
      <trkpt lat="42.29478" lon="2.30236">
        <ele>1776</ele>
        <time>2010-01-01T02:59:24Z</time>
      </trkpt>
      <trkpt lat="42.29478" lon="2.30233">
        <ele>1777</ele>
        <time>2010-01-01T02:59:25Z</time>
      </trkpt>
      <trkpt lat="42.29477" lon="2.3023">
        <ele>1777</ele>
        <time>2010-01-01T02:59:26Z</time>
      </trkpt>
      <trkpt lat="42.29477" lon="2.30227">
        <ele>1778</ele>
        <time>2010-01-01T02:59:27Z</time>
      </trkpt>
      <trkpt lat="42.29477" lon="2.30223">
        <ele>1778</ele>
        <time>2010-01-01T02:59:28Z</time>
      </trkpt>
      <trkpt lat="42.29477" lon="2.3022">
        <ele>1779</ele>
        <time>2010-01-01T02:59:29Z</time>
      </trkpt>
      <trkpt lat="42.29477" lon="2.30217">
        <ele>1779</ele>
        <time>2010-01-01T02:59:30Z</time>
      </trkpt>
      <trkpt lat="42.29477" lon="2.30214">
        <ele>1780</ele>
        <time>2010-01-01T02:59:31Z</time>
      </trkpt>
      <trkpt lat="42.29476" lon="2.3021">
        <ele>1781</ele>
        <time>2010-01-01T02:59:32Z</time>
      </trkpt>
      <trkpt lat="42.29476" lon="2.30206">
        <ele>1781</ele>
        <time>2010-01-01T02:59:33Z</time>
      </trkpt>
      <trkpt lat="42.29475" lon="2.30203">
        <ele>1782</ele>
        <time>2010-01-01T02:59:34Z</time>
      </trkpt>
      <trkpt lat="42.29475" lon="2.302">
        <ele>1782</ele>
        <time>2010-01-01T02:59:35Z</time>
      </trkpt>
      <trkpt lat="42.29476" lon="2.30197">
        <ele>1783</ele>
        <time>2010-01-01T02:59:36Z</time>
      </trkpt>
      <trkpt lat="42.29476" lon="2.30194">
        <ele>1783</ele>
        <time>2010-01-01T02:59:37Z</time>
      </trkpt>
      <trkpt lat="42.29476" lon="2.30191">
        <ele>1784</ele>
        <time>2010-01-01T02:59:37Z</time>
      </trkpt>
      <trkpt lat="42.29476" lon="2.30188">
        <ele>1784</ele>
        <time>2010-01-01T02:59:38Z</time>
      </trkpt>
      <trkpt lat="42.29476" lon="2.30185">
        <ele>1785</ele>
        <time>2010-01-01T02:59:39Z</time>
      </trkpt>
      <trkpt lat="42.29475" lon="2.30182">
        <ele>1785</ele>
        <time>2010-01-01T02:59:40Z</time>
      </trkpt>
      <trkpt lat="42.29475" lon="2.30179">
        <ele>1785</ele>
        <time>2010-01-01T02:59:41Z</time>
      </trkpt>
      <trkpt lat="42.29475" lon="2.30176">
        <ele>1786</ele>
        <time>2010-01-01T02:59:42Z</time>
      </trkpt>
      <trkpt lat="42.29474" lon="2.30173">
        <ele>1786</ele>
        <time>2010-01-01T02:59:43Z</time>
      </trkpt>
      <trkpt lat="42.29474" lon="2.3017">
        <ele>1787</ele>
        <time>2010-01-01T02:59:44Z</time>
      </trkpt>
      <trkpt lat="42.29473" lon="2.30167">
        <ele>1787</ele>
        <time>2010-01-01T02:59:44Z</time>
      </trkpt>
      <trkpt lat="42.29473" lon="2.30165">
        <ele>1788</ele>
        <time>2010-01-01T02:59:45Z</time>
      </trkpt>
      <trkpt lat="42.29473" lon="2.30162">
        <ele>1788</ele>
        <time>2010-01-01T02:59:46Z</time>
      </trkpt>
      <trkpt lat="42.29472" lon="2.30158">
        <ele>1789</ele>
        <time>2010-01-01T02:59:47Z</time>
      </trkpt>
      <trkpt lat="42.29471" lon="2.30156">
        <ele>1789</ele>
        <time>2010-01-01T02:59:48Z</time>
      </trkpt>
      <trkpt lat="42.29471" lon="2.30153">
        <ele>1789</ele>
        <time>2010-01-01T02:59:49Z</time>
      </trkpt>
      <trkpt lat="42.29471" lon="2.3015">
        <ele>1790</ele>
        <time>2010-01-01T02:59:50Z</time>
      </trkpt>
      <trkpt lat="42.2947" lon="2.30147">
        <ele>1790</ele>
        <time>2010-01-01T02:59:51Z</time>
      </trkpt>
      <trkpt lat="42.2947" lon="2.30143">
        <ele>1791</ele>
        <time>2010-01-01T02:59:52Z</time>
      </trkpt>
      <trkpt lat="42.2947" lon="2.30141">
        <ele>1791</ele>
        <time>2010-01-01T02:59:53Z</time>
      </trkpt>
      <trkpt lat="42.29469" lon="2.30138">
        <ele>1791</ele>
        <time>2010-01-01T02:59:53Z</time>
      </trkpt>
      <trkpt lat="42.29469" lon="2.30134">
        <ele>1792</ele>
        <time>2010-01-01T02:59:54Z</time>
      </trkpt>
      <trkpt lat="42.29468" lon="2.30131">
        <ele>1793</ele>
        <time>2010-01-01T02:59:55Z</time>
      </trkpt>
      <trkpt lat="42.29468" lon="2.30128">
        <ele>1794</ele>
        <time>2010-01-01T02:59:56Z</time>
      </trkpt>
      <trkpt lat="42.29469" lon="2.30126">
        <ele>1794</ele>
        <time>2010-01-01T02:59:57Z</time>
      </trkpt>
      <trkpt lat="42.29468" lon="2.30123">
        <ele>1795</ele>
        <time>2010-01-01T02:59:58Z</time>
      </trkpt>
      <trkpt lat="42.29467" lon="2.3012">
        <ele>1796</ele>
        <time>2010-01-01T02:59:59Z</time>
      </trkpt>
      <trkpt lat="42.29467" lon="2.30117">
        <ele>1796</ele>
        <time>2010-01-01T03:00:00Z</time>
      </trkpt>
      <trkpt lat="42.29466" lon="2.30113">
        <ele>1797</ele>
        <time>2010-01-01T03:00:01Z</time>
      </trkpt>
      <trkpt lat="42.29466" lon="2.30111">
        <ele>1798</ele>
        <time>2010-01-01T03:00:02Z</time>
      </trkpt>
      <trkpt lat="42.29465" lon="2.30107">
        <ele>1799</ele>
        <time>2010-01-01T03:00:03Z</time>
      </trkpt>
      <trkpt lat="42.29465" lon="2.30105">
        <ele>1799</ele>
        <time>2010-01-01T03:00:03Z</time>
      </trkpt>
      <trkpt lat="42.29465" lon="2.30102">
        <ele>1800</ele>
        <time>2010-01-01T03:00:04Z</time>
      </trkpt>
      <trkpt lat="42.29465" lon="2.301">
        <ele>1800</ele>
        <time>2010-01-01T03:00:05Z</time>
      </trkpt>
      <trkpt lat="42.29464" lon="2.30097">
        <ele>1801</ele>
        <time>2010-01-01T03:00:06Z</time>
      </trkpt>
      <trkpt lat="42.29464" lon="2.30094">
        <ele>1801</ele>
        <time>2010-01-01T03:00:07Z</time>
      </trkpt>
      <trkpt lat="42.29464" lon="2.3009">
        <ele>1802</ele>
        <time>2010-01-01T03:00:08Z</time>
      </trkpt>
      <trkpt lat="42.29463" lon="2.30087">
        <ele>1803</ele>
        <time>2010-01-01T03:00:09Z</time>
      </trkpt>
      <trkpt lat="42.29463" lon="2.30084">
        <ele>1803</ele>
        <time>2010-01-01T03:00:10Z</time>
      </trkpt>
      <trkpt lat="42.29463" lon="2.30081">
        <ele>1804</ele>
        <time>2010-01-01T03:00:11Z</time>
      </trkpt>
      <trkpt lat="42.29462" lon="2.30078">
        <ele>1805</ele>
        <time>2010-01-01T03:00:12Z</time>
      </trkpt>
      <trkpt lat="42.29462" lon="2.30074">
        <ele>1805</ele>
        <time>2010-01-01T03:00:13Z</time>
      </trkpt>
      <trkpt lat="42.29462" lon="2.30071">
        <ele>1806</ele>
        <time>2010-01-01T03:00:13Z</time>
      </trkpt>
      <trkpt lat="42.29462" lon="2.30069">
        <ele>1806</ele>
        <time>2010-01-01T03:00:14Z</time>
      </trkpt>
      <trkpt lat="42.29462" lon="2.30065">
        <ele>1807</ele>
        <time>2010-01-01T03:00:15Z</time>
      </trkpt>
      <trkpt lat="42.29462" lon="2.30062">
        <ele>1807</ele>
        <time>2010-01-01T03:00:16Z</time>
      </trkpt>
      <trkpt lat="42.29462" lon="2.3006">
        <ele>1808</ele>
        <time>2010-01-01T03:00:17Z</time>
      </trkpt>
      <trkpt lat="42.29462" lon="2.30057">
        <ele>1808</ele>
        <time>2010-01-01T03:00:18Z</time>
      </trkpt>
      <trkpt lat="42.29462" lon="2.30054">
        <ele>1809</ele>
        <time>2010-01-01T03:00:18Z</time>
      </trkpt>
      <trkpt lat="42.29462" lon="2.30052">
        <ele>1809</ele>
        <time>2010-01-01T03:00:19Z</time>
      </trkpt>
      <trkpt lat="42.29461" lon="2.30049">
        <ele>1809</ele>
        <time>2010-01-01T03:00:20Z</time>
      </trkpt>
      <trkpt lat="42.29461" lon="2.30046">
        <ele>1809</ele>
        <time>2010-01-01T03:00:21Z</time>
      </trkpt>
      <trkpt lat="42.29461" lon="2.30043">
        <ele>1810</ele>
        <time>2010-01-01T03:00:22Z</time>
      </trkpt>
      <trkpt lat="42.29461" lon="2.3004">
        <ele>1810</ele>
        <time>2010-01-01T03:00:23Z</time>
      </trkpt>
      <trkpt lat="42.29461" lon="2.30036">
        <ele>1810</ele>
        <time>2010-01-01T03:00:24Z</time>
      </trkpt>
      <trkpt lat="42.2946" lon="2.30033">
        <ele>1811</ele>
        <time>2010-01-01T03:00:25Z</time>
      </trkpt>
      <trkpt lat="42.2946" lon="2.30029">
        <ele>1811</ele>
        <time>2010-01-01T03:00:26Z</time>
      </trkpt>
      <trkpt lat="42.2946" lon="2.30027">
        <ele>1811</ele>
        <time>2010-01-01T03:00:27Z</time>
      </trkpt>
      <trkpt lat="42.29459" lon="2.30025">
        <ele>1811</ele>
        <time>2010-01-01T03:00:27Z</time>
      </trkpt>
      <trkpt lat="42.29459" lon="2.30022">
        <ele>1811</ele>
        <time>2010-01-01T03:00:28Z</time>
      </trkpt>
      <trkpt lat="42.29459" lon="2.30018">
        <ele>1812</ele>
        <time>2010-01-01T03:00:29Z</time>
      </trkpt>
      <trkpt lat="42.29459" lon="2.30015">
        <ele>1812</ele>
        <time>2010-01-01T03:00:30Z</time>
      </trkpt>
      <trkpt lat="42.29458" lon="2.30012">
        <ele>1812</ele>
        <time>2010-01-01T03:00:31Z</time>
      </trkpt>
      <trkpt lat="42.29458" lon="2.30009">
        <ele>1812</ele>
        <time>2010-01-01T03:00:32Z</time>
      </trkpt>
      <trkpt lat="42.29458" lon="2.30006">
        <ele>1812</ele>
        <time>2010-01-01T03:00:33Z</time>
      </trkpt>
      <trkpt lat="42.29458" lon="2.30003">
        <ele>1812</ele>
        <time>2010-01-01T03:00:34Z</time>
      </trkpt>
      <trkpt lat="42.29458" lon="2.3">
        <ele>1812</ele>
        <time>2010-01-01T03:00:35Z</time>
      </trkpt>
      <trkpt lat="42.29457" lon="2.29997">
        <ele>1812</ele>
        <time>2010-01-01T03:00:36Z</time>
      </trkpt>
      <trkpt lat="42.29458" lon="2.29995">
        <ele>1813</ele>
        <time>2010-01-01T03:00:36Z</time>
      </trkpt>
      <trkpt lat="42.29458" lon="2.29992">
        <ele>1813</ele>
        <time>2010-01-01T03:00:37Z</time>
      </trkpt>
      <trkpt lat="42.29457" lon="2.29989">
        <ele>1813</ele>
        <time>2010-01-01T03:00:38Z</time>
      </trkpt>
      <trkpt lat="42.29457" lon="2.29986">
        <ele>1813</ele>
        <time>2010-01-01T03:00:39Z</time>
      </trkpt>
      <trkpt lat="42.29457" lon="2.29983">
        <ele>1814</ele>
        <time>2010-01-01T03:00:40Z</time>
      </trkpt>
      <trkpt lat="42.29457" lon="2.2998">
        <ele>1814</ele>
        <time>2010-01-01T03:00:41Z</time>
      </trkpt>
      <trkpt lat="42.29457" lon="2.29977">
        <ele>1814</ele>
        <time>2010-01-01T03:00:42Z</time>
      </trkpt>
      <trkpt lat="42.29457" lon="2.29973">
        <ele>1814</ele>
        <time>2010-01-01T03:00:43Z</time>
      </trkpt>
      <trkpt lat="42.29457" lon="2.2997">
        <ele>1815</ele>
        <time>2010-01-01T03:00:44Z</time>
      </trkpt>
      <trkpt lat="42.29456" lon="2.29967">
        <ele>1816</ele>
        <time>2010-01-01T03:00:45Z</time>
      </trkpt>
      <trkpt lat="42.29456" lon="2.29964">
        <ele>1816</ele>
        <time>2010-01-01T03:00:46Z</time>
      </trkpt>
      <trkpt lat="42.29455" lon="2.29961">
        <ele>1817</ele>
        <time>2010-01-01T03:00:46Z</time>
      </trkpt>
      <trkpt lat="42.29455" lon="2.29958">
        <ele>1817</ele>
        <time>2010-01-01T03:00:47Z</time>
      </trkpt>
      <trkpt lat="42.29455" lon="2.29956">
        <ele>1818</ele>
        <time>2010-01-01T03:00:48Z</time>
      </trkpt>
      <trkpt lat="42.29456" lon="2.29953">
        <ele>1818</ele>
        <time>2010-01-01T03:00:49Z</time>
      </trkpt>
      <trkpt lat="42.29456" lon="2.2995">
        <ele>1819</ele>
        <time>2010-01-01T03:00:50Z</time>
      </trkpt>
      <trkpt lat="42.29455" lon="2.29947">
        <ele>1819</ele>
        <time>2010-01-01T03:00:51Z</time>
      </trkpt>
      <trkpt lat="42.29455" lon="2.29943">
        <ele>1820</ele>
        <time>2010-01-01T03:00:52Z</time>
      </trkpt>
      <trkpt lat="42.29455" lon="2.2994">
        <ele>1820</ele>
        <time>2010-01-01T03:00:53Z</time>
      </trkpt>
      <trkpt lat="42.29455" lon="2.29937">
        <ele>1821</ele>
        <time>2010-01-01T03:00:53Z</time>
      </trkpt>
      <trkpt lat="42.29455" lon="2.29935">
        <ele>1821</ele>
        <time>2010-01-01T03:00:54Z</time>
      </trkpt>
      <trkpt lat="42.29455" lon="2.29932">
        <ele>1822</ele>
        <time>2010-01-01T03:00:55Z</time>
      </trkpt>
      <trkpt lat="42.29455" lon="2.29928">
        <ele>1822</ele>
        <time>2010-01-01T03:00:56Z</time>
      </trkpt>
      <trkpt lat="42.29455" lon="2.29926">
        <ele>1823</ele>
        <time>2010-01-01T03:00:57Z</time>
      </trkpt>
      <trkpt lat="42.29455" lon="2.29923">
        <ele>1823</ele>
        <time>2010-01-01T03:00:58Z</time>
      </trkpt>
      <trkpt lat="42.29456" lon="2.2992">
        <ele>1823</ele>
        <time>2010-01-01T03:00:59Z</time>
      </trkpt>
      <trkpt lat="42.29456" lon="2.29917">
        <ele>1824</ele>
        <time>2010-01-01T03:01:00Z</time>
      </trkpt>
      <trkpt lat="42.29456" lon="2.29914">
        <ele>1824</ele>
        <time>2010-01-01T03:01:00Z</time>
      </trkpt>
      <trkpt lat="42.29456" lon="2.29911">
        <ele>1824</ele>
        <time>2010-01-01T03:01:01Z</time>
      </trkpt>
      <trkpt lat="42.29456" lon="2.29907">
        <ele>1824</ele>
        <time>2010-01-01T03:01:02Z</time>
      </trkpt>
      <trkpt lat="42.29456" lon="2.29904">
        <ele>1824</ele>
        <time>2010-01-01T03:01:03Z</time>
      </trkpt>
      <trkpt lat="42.29456" lon="2.299">
        <ele>1823</ele>
        <time>2010-01-01T03:01:05Z</time>
      </trkpt>
      <trkpt lat="42.29457" lon="2.29896">
        <ele>1823</ele>
        <time>2010-01-01T03:01:06Z</time>
      </trkpt>
      <trkpt lat="42.29458" lon="2.29892">
        <ele>1823</ele>
        <time>2010-01-01T03:01:07Z</time>
      </trkpt>
      <trkpt lat="42.29458" lon="2.29888">
        <ele>1823</ele>
        <time>2010-01-01T03:01:08Z</time>
      </trkpt>
      <trkpt lat="42.29459" lon="2.29885">
        <ele>1823</ele>
        <time>2010-01-01T03:01:09Z</time>
      </trkpt>
      <trkpt lat="42.29459" lon="2.29882">
        <ele>1822</ele>
        <time>2010-01-01T03:01:10Z</time>
      </trkpt>
      <trkpt lat="42.29459" lon="2.29878">
        <ele>1822</ele>
        <time>2010-01-01T03:01:11Z</time>
      </trkpt>
      <trkpt lat="42.2946" lon="2.29874">
        <ele>1822</ele>
        <time>2010-01-01T03:01:12Z</time>
      </trkpt>
      <trkpt lat="42.29461" lon="2.2987">
        <ele>1822</ele>
        <time>2010-01-01T03:01:14Z</time>
      </trkpt>
      <trkpt lat="42.29461" lon="2.29865">
        <ele>1822</ele>
        <time>2010-01-01T03:01:15Z</time>
      </trkpt>
      <trkpt lat="42.29461" lon="2.29861">
        <ele>1822</ele>
        <time>2010-01-01T03:01:16Z</time>
      </trkpt>
      <trkpt lat="42.29462" lon="2.29856">
        <ele>1823</ele>
        <time>2010-01-01T03:01:18Z</time>
      </trkpt>
      <trkpt lat="42.29462" lon="2.29851">
        <ele>1824</ele>
        <time>2010-01-01T03:01:19Z</time>
      </trkpt>
      <trkpt lat="42.29463" lon="2.29847">
        <ele>1824</ele>
        <time>2010-01-01T03:01:21Z</time>
      </trkpt>
      <trkpt lat="42.29463" lon="2.29843">
        <ele>1825</ele>
        <time>2010-01-01T03:01:22Z</time>
      </trkpt>
      <trkpt lat="42.29463" lon="2.29839">
        <ele>1826</ele>
        <time>2010-01-01T03:01:23Z</time>
      </trkpt>
      <trkpt lat="42.29463" lon="2.29834">
        <ele>1827</ele>
        <time>2010-01-01T03:01:24Z</time>
      </trkpt>
      <trkpt lat="42.29463" lon="2.2983">
        <ele>1828</ele>
        <time>2010-01-01T03:01:25Z</time>
      </trkpt>
      <trkpt lat="42.29463" lon="2.29827">
        <ele>1829</ele>
        <time>2010-01-01T03:01:27Z</time>
      </trkpt>
      <trkpt lat="42.29463" lon="2.29824">
        <ele>1829</ele>
        <time>2010-01-01T03:01:28Z</time>
      </trkpt>
      <trkpt lat="42.29464" lon="2.2982">
        <ele>1830</ele>
        <time>2010-01-01T03:01:29Z</time>
      </trkpt>
      <trkpt lat="42.29464" lon="2.29816">
        <ele>1831</ele>
        <time>2010-01-01T03:01:30Z</time>
      </trkpt>
      <trkpt lat="42.29464" lon="2.29813">
        <ele>1832</ele>
        <time>2010-01-01T03:01:31Z</time>
      </trkpt>
      <trkpt lat="42.29464" lon="2.2981">
        <ele>1832</ele>
        <time>2010-01-01T03:01:31Z</time>
      </trkpt>
      <trkpt lat="42.29465" lon="2.29807">
        <ele>1833</ele>
        <time>2010-01-01T03:01:32Z</time>
      </trkpt>
      <trkpt lat="42.29465" lon="2.29805">
        <ele>1833</ele>
        <time>2010-01-01T03:01:33Z</time>
      </trkpt>
      <trkpt lat="42.29465" lon="2.29801">
        <ele>1833</ele>
        <time>2010-01-01T03:01:34Z</time>
      </trkpt>
      <trkpt lat="42.29465" lon="2.29798">
        <ele>1833</ele>
        <time>2010-01-01T03:01:35Z</time>
      </trkpt>
      <trkpt lat="42.29466" lon="2.29794">
        <ele>1833</ele>
        <time>2010-01-01T03:01:36Z</time>
      </trkpt>
      <trkpt lat="42.29466" lon="2.29791">
        <ele>1833</ele>
        <time>2010-01-01T03:01:37Z</time>
      </trkpt>
      <trkpt lat="42.29467" lon="2.29788">
        <ele>1833</ele>
        <time>2010-01-01T03:01:38Z</time>
      </trkpt>
      <trkpt lat="42.29467" lon="2.29784">
        <ele>1833</ele>
        <time>2010-01-01T03:01:39Z</time>
      </trkpt>
      <trkpt lat="42.29467" lon="2.29781">
        <ele>1833</ele>
        <time>2010-01-01T03:01:40Z</time>
      </trkpt>
      <trkpt lat="42.29467" lon="2.29778">
        <ele>1833</ele>
        <time>2010-01-01T03:01:41Z</time>
      </trkpt>
      <trkpt lat="42.29468" lon="2.29774">
        <ele>1833</ele>
        <time>2010-01-01T03:01:42Z</time>
      </trkpt>
      <trkpt lat="42.29468" lon="2.29771">
        <ele>1833</ele>
        <time>2010-01-01T03:01:43Z</time>
      </trkpt>
      <trkpt lat="42.29468" lon="2.29768">
        <ele>1833</ele>
        <time>2010-01-01T03:01:44Z</time>
      </trkpt>
      <trkpt lat="42.29468" lon="2.29764">
        <ele>1833</ele>
        <time>2010-01-01T03:01:45Z</time>
      </trkpt>
      <trkpt lat="42.29469" lon="2.2976">
        <ele>1834</ele>
        <time>2010-01-01T03:01:46Z</time>
      </trkpt>
      <trkpt lat="42.29469" lon="2.29757">
        <ele>1834</ele>
        <time>2010-01-01T03:01:47Z</time>
      </trkpt>
      <trkpt lat="42.29469" lon="2.29753">
        <ele>1834</ele>
        <time>2010-01-01T03:01:49Z</time>
      </trkpt>
      <trkpt lat="42.29469" lon="2.2975">
        <ele>1834</ele>
        <time>2010-01-01T03:01:50Z</time>
      </trkpt>
      <trkpt lat="42.29469" lon="2.29746">
        <ele>1834</ele>
        <time>2010-01-01T03:01:51Z</time>
      </trkpt>
      <trkpt lat="42.29469" lon="2.29742">
        <ele>1835</ele>
        <time>2010-01-01T03:01:52Z</time>
      </trkpt>
      <trkpt lat="42.29469" lon="2.29738">
        <ele>1835</ele>
        <time>2010-01-01T03:01:53Z</time>
      </trkpt>
      <trkpt lat="42.2947" lon="2.29734">
        <ele>1836</ele>
        <time>2010-01-01T03:01:54Z</time>
      </trkpt>
      <trkpt lat="42.2947" lon="2.29731">
        <ele>1836</ele>
        <time>2010-01-01T03:01:55Z</time>
      </trkpt>
      <trkpt lat="42.2947" lon="2.29727">
        <ele>1837</ele>
        <time>2010-01-01T03:01:56Z</time>
      </trkpt>
      <trkpt lat="42.2947" lon="2.29724">
        <ele>1837</ele>
        <time>2010-01-01T03:01:57Z</time>
      </trkpt>
      <trkpt lat="42.2947" lon="2.2972">
        <ele>1837</ele>
        <time>2010-01-01T03:01:58Z</time>
      </trkpt>
      <trkpt lat="42.2947" lon="2.29717">
        <ele>1838</ele>
        <time>2010-01-01T03:01:59Z</time>
      </trkpt>
      <trkpt lat="42.2947" lon="2.29713">
        <ele>1838</ele>
        <time>2010-01-01T03:02:00Z</time>
      </trkpt>
      <trkpt lat="42.2947" lon="2.2971">
        <ele>1839</ele>
        <time>2010-01-01T03:02:01Z</time>
      </trkpt>
      <trkpt lat="42.2947" lon="2.29707">
        <ele>1839</ele>
        <time>2010-01-01T03:02:02Z</time>
      </trkpt>
      <trkpt lat="42.29471" lon="2.29704">
        <ele>1840</ele>
        <time>2010-01-01T03:02:03Z</time>
      </trkpt>
      <trkpt lat="42.29471" lon="2.297">
        <ele>1840</ele>
        <time>2010-01-01T03:02:04Z</time>
      </trkpt>
      <trkpt lat="42.29471" lon="2.29697">
        <ele>1841</ele>
        <time>2010-01-01T03:02:05Z</time>
      </trkpt>
      <trkpt lat="42.29471" lon="2.29694">
        <ele>1841</ele>
        <time>2010-01-01T03:02:06Z</time>
      </trkpt>
      <trkpt lat="42.29471" lon="2.29691">
        <ele>1841</ele>
        <time>2010-01-01T03:02:07Z</time>
      </trkpt>
      <trkpt lat="42.29471" lon="2.29688">
        <ele>1842</ele>
        <time>2010-01-01T03:02:08Z</time>
      </trkpt>
      <trkpt lat="42.29471" lon="2.29685">
        <ele>1842</ele>
        <time>2010-01-01T03:02:09Z</time>
      </trkpt>
      <trkpt lat="42.29471" lon="2.29682">
        <ele>1842</ele>
        <time>2010-01-01T03:02:10Z</time>
      </trkpt>
      <trkpt lat="42.2947" lon="2.2968">
        <ele>1842</ele>
        <time>2010-01-01T03:02:10Z</time>
      </trkpt>
      <trkpt lat="42.2947" lon="2.29677">
        <ele>1842</ele>
        <time>2010-01-01T03:02:11Z</time>
      </trkpt>
      <trkpt lat="42.2947" lon="2.29674">
        <ele>1843</ele>
        <time>2010-01-01T03:02:12Z</time>
      </trkpt>
      <trkpt lat="42.2947" lon="2.2967">
        <ele>1843</ele>
        <time>2010-01-01T03:02:13Z</time>
      </trkpt>
      <trkpt lat="42.2947" lon="2.29668">
        <ele>1843</ele>
        <time>2010-01-01T03:02:14Z</time>
      </trkpt>
      <trkpt lat="42.2947" lon="2.29665">
        <ele>1843</ele>
        <time>2010-01-01T03:02:15Z</time>
      </trkpt>
      <trkpt lat="42.2947" lon="2.29661">
        <ele>1843</ele>
        <time>2010-01-01T03:02:16Z</time>
      </trkpt>
      <trkpt lat="42.2947" lon="2.29658">
        <ele>1843</ele>
        <time>2010-01-01T03:02:17Z</time>
      </trkpt>
      <trkpt lat="42.2947" lon="2.29654">
        <ele>1843</ele>
        <time>2010-01-01T03:02:18Z</time>
      </trkpt>
      <trkpt lat="42.29471" lon="2.29651">
        <ele>1843</ele>
        <time>2010-01-01T03:02:19Z</time>
      </trkpt>
      <trkpt lat="42.29471" lon="2.29647">
        <ele>1843</ele>
        <time>2010-01-01T03:02:20Z</time>
      </trkpt>
      <trkpt lat="42.29471" lon="2.29644">
        <ele>1843</ele>
        <time>2010-01-01T03:02:21Z</time>
      </trkpt>
      <trkpt lat="42.29471" lon="2.29641">
        <ele>1843</ele>
        <time>2010-01-01T03:02:22Z</time>
      </trkpt>
      <trkpt lat="42.29472" lon="2.29638">
        <ele>1843</ele>
        <time>2010-01-01T03:02:23Z</time>
      </trkpt>
      <trkpt lat="42.29472" lon="2.29634">
        <ele>1844</ele>
        <time>2010-01-01T03:02:24Z</time>
      </trkpt>
      <trkpt lat="42.29473" lon="2.29631">
        <ele>1844</ele>
        <time>2010-01-01T03:02:25Z</time>
      </trkpt>
      <trkpt lat="42.29473" lon="2.29628">
        <ele>1844</ele>
        <time>2010-01-01T03:02:26Z</time>
      </trkpt>
      <trkpt lat="42.29473" lon="2.29625">
        <ele>1844</ele>
        <time>2010-01-01T03:02:26Z</time>
      </trkpt>
      <trkpt lat="42.29473" lon="2.29622">
        <ele>1845</ele>
        <time>2010-01-01T03:02:27Z</time>
      </trkpt>
      <trkpt lat="42.29473" lon="2.29619">
        <ele>1845</ele>
        <time>2010-01-01T03:02:28Z</time>
      </trkpt>
      <trkpt lat="42.29473" lon="2.29616">
        <ele>1845</ele>
        <time>2010-01-01T03:02:29Z</time>
      </trkpt>
      <trkpt lat="42.29474" lon="2.29613">
        <ele>1845</ele>
        <time>2010-01-01T03:02:30Z</time>
      </trkpt>
      <trkpt lat="42.29474" lon="2.29609">
        <ele>1846</ele>
        <time>2010-01-01T03:02:31Z</time>
      </trkpt>
      <trkpt lat="42.29474" lon="2.29606">
        <ele>1846</ele>
        <time>2010-01-01T03:02:32Z</time>
      </trkpt>
      <trkpt lat="42.29474" lon="2.29603">
        <ele>1846</ele>
        <time>2010-01-01T03:02:33Z</time>
      </trkpt>
      <trkpt lat="42.29474" lon="2.29599">
        <ele>1847</ele>
        <time>2010-01-01T03:02:34Z</time>
      </trkpt>
      <trkpt lat="42.29474" lon="2.29595">
        <ele>1847</ele>
        <time>2010-01-01T03:02:35Z</time>
      </trkpt>
      <trkpt lat="42.29475" lon="2.29592">
        <ele>1848</ele>
        <time>2010-01-01T03:02:36Z</time>
      </trkpt>
      <trkpt lat="42.29475" lon="2.29589">
        <ele>1848</ele>
        <time>2010-01-01T03:02:37Z</time>
      </trkpt>
      <trkpt lat="42.29475" lon="2.29585">
        <ele>1849</ele>
        <time>2010-01-01T03:02:39Z</time>
      </trkpt>
      <trkpt lat="42.29476" lon="2.29581">
        <ele>1849</ele>
        <time>2010-01-01T03:02:40Z</time>
      </trkpt>
      <trkpt lat="42.29476" lon="2.29577">
        <ele>1849</ele>
        <time>2010-01-01T03:02:41Z</time>
      </trkpt>
      <trkpt lat="42.29477" lon="2.29574">
        <ele>1849</ele>
        <time>2010-01-01T03:02:42Z</time>
      </trkpt>
      <trkpt lat="42.29478" lon="2.2957">
        <ele>1849</ele>
        <time>2010-01-01T03:02:43Z</time>
      </trkpt>
      <trkpt lat="42.29478" lon="2.29567">
        <ele>1849</ele>
        <time>2010-01-01T03:02:44Z</time>
      </trkpt>
      <trkpt lat="42.29479" lon="2.29563">
        <ele>1849</ele>
        <time>2010-01-01T03:02:45Z</time>
      </trkpt>
      <trkpt lat="42.29479" lon="2.29559">
        <ele>1849</ele>
        <time>2010-01-01T03:02:46Z</time>
      </trkpt>
      <trkpt lat="42.29479" lon="2.29555">
        <ele>1850</ele>
        <time>2010-01-01T03:02:48Z</time>
      </trkpt>
      <trkpt lat="42.29479" lon="2.29549">
        <ele>1850</ele>
        <time>2010-01-01T03:02:49Z</time>
      </trkpt>
      <trkpt lat="42.2948" lon="2.29544">
        <ele>1851</ele>
        <time>2010-01-01T03:02:51Z</time>
      </trkpt>
      <trkpt lat="42.29481" lon="2.2954">
        <ele>1851</ele>
        <time>2010-01-01T03:02:52Z</time>
      </trkpt>
      <trkpt lat="42.29482" lon="2.29533">
        <ele>1852</ele>
        <time>2010-01-01T03:02:54Z</time>
      </trkpt>
      <trkpt lat="42.29483" lon="2.29526">
        <ele>1852</ele>
        <time>2010-01-01T03:02:56Z</time>
      </trkpt>
      <trkpt lat="42.29484" lon="2.29522">
        <ele>1852</ele>
        <time>2010-01-01T03:02:58Z</time>
      </trkpt>
      <trkpt lat="42.29485" lon="2.29517">
        <ele>1852</ele>
        <time>2010-01-01T03:02:59Z</time>
      </trkpt>
      <trkpt lat="42.29485" lon="2.29513">
        <ele>1852</ele>
        <time>2010-01-01T03:03:00Z</time>
      </trkpt>
      <trkpt lat="42.29485" lon="2.29508">
        <ele>1853</ele>
        <time>2010-01-01T03:03:02Z</time>
      </trkpt>
      <trkpt lat="42.29485" lon="2.29503">
        <ele>1853</ele>
        <time>2010-01-01T03:03:03Z</time>
      </trkpt>
      <trkpt lat="42.29485" lon="2.29498">
        <ele>1853</ele>
        <time>2010-01-01T03:03:05Z</time>
      </trkpt>
      <trkpt lat="42.29485" lon="2.29494">
        <ele>1853</ele>
        <time>2010-01-01T03:03:06Z</time>
      </trkpt>
      <trkpt lat="42.29485" lon="2.2949">
        <ele>1853</ele>
        <time>2010-01-01T03:03:07Z</time>
      </trkpt>
      <trkpt lat="42.29485" lon="2.29487">
        <ele>1854</ele>
        <time>2010-01-01T03:03:08Z</time>
      </trkpt>
      <trkpt lat="42.29486" lon="2.29483">
        <ele>1854</ele>
        <time>2010-01-01T03:03:09Z</time>
      </trkpt>
      <trkpt lat="42.29485" lon="2.29478">
        <ele>1854</ele>
        <time>2010-01-01T03:03:11Z</time>
      </trkpt>
      <trkpt lat="42.29485" lon="2.29475">
        <ele>1854</ele>
        <time>2010-01-01T03:03:12Z</time>
      </trkpt>
      <trkpt lat="42.29485" lon="2.29472">
        <ele>1855</ele>
        <time>2010-01-01T03:03:13Z</time>
      </trkpt>
      <trkpt lat="42.29485" lon="2.29468">
        <ele>1855</ele>
        <time>2010-01-01T03:03:13Z</time>
      </trkpt>
      <trkpt lat="42.29485" lon="2.29466">
        <ele>1856</ele>
        <time>2010-01-01T03:03:14Z</time>
      </trkpt>
      <trkpt lat="42.29486" lon="2.29462">
        <ele>1857</ele>
        <time>2010-01-01T03:03:15Z</time>
      </trkpt>
      <trkpt lat="42.29486" lon="2.29459">
        <ele>1858</ele>
        <time>2010-01-01T03:03:16Z</time>
      </trkpt>
      <trkpt lat="42.29486" lon="2.29456">
        <ele>1858</ele>
        <time>2010-01-01T03:03:17Z</time>
      </trkpt>
      <trkpt lat="42.29486" lon="2.29453">
        <ele>1859</ele>
        <time>2010-01-01T03:03:18Z</time>
      </trkpt>
      <trkpt lat="42.29486" lon="2.2945">
        <ele>1860</ele>
        <time>2010-01-01T03:03:19Z</time>
      </trkpt>
      <trkpt lat="42.29486" lon="2.29446">
        <ele>1860</ele>
        <time>2010-01-01T03:03:20Z</time>
      </trkpt>
      <trkpt lat="42.29486" lon="2.29444">
        <ele>1861</ele>
        <time>2010-01-01T03:03:21Z</time>
      </trkpt>
      <trkpt lat="42.29486" lon="2.2944">
        <ele>1862</ele>
        <time>2010-01-01T03:03:22Z</time>
      </trkpt>
      <trkpt lat="42.29486" lon="2.29437">
        <ele>1862</ele>
        <time>2010-01-01T03:03:23Z</time>
      </trkpt>
      <trkpt lat="42.29486" lon="2.29434">
        <ele>1863</ele>
        <time>2010-01-01T03:03:24Z</time>
      </trkpt>
      <trkpt lat="42.29485" lon="2.29431">
        <ele>1863</ele>
        <time>2010-01-01T03:03:25Z</time>
      </trkpt>
      <trkpt lat="42.29485" lon="2.29427">
        <ele>1864</ele>
        <time>2010-01-01T03:03:26Z</time>
      </trkpt>
      <trkpt lat="42.29485" lon="2.29424">
        <ele>1865</ele>
        <time>2010-01-01T03:03:27Z</time>
      </trkpt>
      <trkpt lat="42.29485" lon="2.29421">
        <ele>1865</ele>
        <time>2010-01-01T03:03:27Z</time>
      </trkpt>
      <trkpt lat="42.29485" lon="2.29418">
        <ele>1866</ele>
        <time>2010-01-01T03:03:28Z</time>
      </trkpt>
      <trkpt lat="42.29485" lon="2.29416">
        <ele>1866</ele>
        <time>2010-01-01T03:03:29Z</time>
      </trkpt>
      <trkpt lat="42.29485" lon="2.29412">
        <ele>1867</ele>
        <time>2010-01-01T03:03:30Z</time>
      </trkpt>
      <trkpt lat="42.29485" lon="2.2941">
        <ele>1867</ele>
        <time>2010-01-01T03:03:31Z</time>
      </trkpt>
      <trkpt lat="42.29484" lon="2.29407">
        <ele>1867</ele>
        <time>2010-01-01T03:03:32Z</time>
      </trkpt>
      <trkpt lat="42.29485" lon="2.29403">
        <ele>1868</ele>
        <time>2010-01-01T03:03:33Z</time>
      </trkpt>
      <trkpt lat="42.29485" lon="2.294">
        <ele>1868</ele>
        <time>2010-01-01T03:03:34Z</time>
      </trkpt>
      <trkpt lat="42.29485" lon="2.29397">
        <ele>1869</ele>
        <time>2010-01-01T03:03:35Z</time>
      </trkpt>
      <trkpt lat="42.29485" lon="2.29394">
        <ele>1869</ele>
        <time>2010-01-01T03:03:36Z</time>
      </trkpt>
      <trkpt lat="42.29485" lon="2.29391">
        <ele>1869</ele>
        <time>2010-01-01T03:03:36Z</time>
      </trkpt>
      <trkpt lat="42.29486" lon="2.29388">
        <ele>1870</ele>
        <time>2010-01-01T03:03:37Z</time>
      </trkpt>
      <trkpt lat="42.29486" lon="2.29385">
        <ele>1870</ele>
        <time>2010-01-01T03:03:38Z</time>
      </trkpt>
      <trkpt lat="42.29486" lon="2.29382">
        <ele>1870</ele>
        <time>2010-01-01T03:03:39Z</time>
      </trkpt>
      <trkpt lat="42.29486" lon="2.29379">
        <ele>1870</ele>
        <time>2010-01-01T03:03:40Z</time>
      </trkpt>
      <trkpt lat="42.29487" lon="2.29376">
        <ele>1870</ele>
        <time>2010-01-01T03:03:41Z</time>
      </trkpt>
      <trkpt lat="42.29487" lon="2.29373">
        <ele>1870</ele>
        <time>2010-01-01T03:03:42Z</time>
      </trkpt>
      <trkpt lat="42.29487" lon="2.29371">
        <ele>1870</ele>
        <time>2010-01-01T03:03:43Z</time>
      </trkpt>
      <trkpt lat="42.29487" lon="2.29368">
        <ele>1871</ele>
        <time>2010-01-01T03:03:44Z</time>
      </trkpt>
      <trkpt lat="42.29487" lon="2.29365">
        <ele>1871</ele>
        <time>2010-01-01T03:03:44Z</time>
      </trkpt>
      <trkpt lat="42.29487" lon="2.29361">
        <ele>1871</ele>
        <time>2010-01-01T03:03:45Z</time>
      </trkpt>
      <trkpt lat="42.29487" lon="2.29359">
        <ele>1871</ele>
        <time>2010-01-01T03:03:46Z</time>
      </trkpt>
      <trkpt lat="42.29488" lon="2.29356">
        <ele>1871</ele>
        <time>2010-01-01T03:03:47Z</time>
      </trkpt>
      <trkpt lat="42.29488" lon="2.29353">
        <ele>1871</ele>
        <time>2010-01-01T03:03:48Z</time>
      </trkpt>
      <trkpt lat="42.29489" lon="2.2935">
        <ele>1870</ele>
        <time>2010-01-01T03:03:49Z</time>
      </trkpt>
      <trkpt lat="42.29489" lon="2.29347">
        <ele>1870</ele>
        <time>2010-01-01T03:03:50Z</time>
      </trkpt>
      <trkpt lat="42.2949" lon="2.29344">
        <ele>1870</ele>
        <time>2010-01-01T03:03:51Z</time>
      </trkpt>
      <trkpt lat="42.2949" lon="2.29342">
        <ele>1870</ele>
        <time>2010-01-01T03:03:51Z</time>
      </trkpt>
      <trkpt lat="42.29491" lon="2.29339">
        <ele>1870</ele>
        <time>2010-01-01T03:03:52Z</time>
      </trkpt>
      <trkpt lat="42.29492" lon="2.29336">
        <ele>1870</ele>
        <time>2010-01-01T03:03:53Z</time>
      </trkpt>
      <trkpt lat="42.29493" lon="2.29333">
        <ele>1870</ele>
        <time>2010-01-01T03:03:54Z</time>
      </trkpt>
      <trkpt lat="42.29493" lon="2.2933">
        <ele>1870</ele>
        <time>2010-01-01T03:03:55Z</time>
      </trkpt>
      <trkpt lat="42.29494" lon="2.29326">
        <ele>1870</ele>
        <time>2010-01-01T03:03:56Z</time>
      </trkpt>
      <trkpt lat="42.29495" lon="2.29323">
        <ele>1870</ele>
        <time>2010-01-01T03:03:57Z</time>
      </trkpt>
      <trkpt lat="42.29496" lon="2.2932">
        <ele>1870</ele>
        <time>2010-01-01T03:03:58Z</time>
      </trkpt>
      <trkpt lat="42.29498" lon="2.29317">
        <ele>1870</ele>
        <time>2010-01-01T03:03:59Z</time>
      </trkpt>
      <trkpt lat="42.29499" lon="2.29314">
        <ele>1870</ele>
        <time>2010-01-01T03:04:00Z</time>
      </trkpt>
      <trkpt lat="42.295" lon="2.2931">
        <ele>1870</ele>
        <time>2010-01-01T03:04:02Z</time>
      </trkpt>
      <trkpt lat="42.295" lon="2.29307">
        <ele>1870</ele>
        <time>2010-01-01T03:04:03Z</time>
      </trkpt>
      <trkpt lat="42.295" lon="2.29303">
        <ele>1871</ele>
        <time>2010-01-01T03:04:04Z</time>
      </trkpt>
      <trkpt lat="42.29501" lon="2.29299">
        <ele>1870</ele>
        <time>2010-01-01T03:04:05Z</time>
      </trkpt>
      <trkpt lat="42.29502" lon="2.29296">
        <ele>1870</ele>
        <time>2010-01-01T03:04:06Z</time>
      </trkpt>
      <trkpt lat="42.29502" lon="2.29293">
        <ele>1870</ele>
        <time>2010-01-01T03:04:07Z</time>
      </trkpt>
      <trkpt lat="42.29502" lon="2.29289">
        <ele>1870</ele>
        <time>2010-01-01T03:04:08Z</time>
      </trkpt>
      <trkpt lat="42.29502" lon="2.29286">
        <ele>1870</ele>
        <time>2010-01-01T03:04:09Z</time>
      </trkpt>
      <trkpt lat="42.29502" lon="2.29283">
        <ele>1870</ele>
        <time>2010-01-01T03:04:10Z</time>
      </trkpt>
      <trkpt lat="42.29502" lon="2.2928">
        <ele>1871</ele>
        <time>2010-01-01T03:04:11Z</time>
      </trkpt>
      <trkpt lat="42.29502" lon="2.29277">
        <ele>1870</ele>
        <time>2010-01-01T03:04:12Z</time>
      </trkpt>
      <trkpt lat="42.29502" lon="2.29273">
        <ele>1871</ele>
        <time>2010-01-01T03:04:13Z</time>
      </trkpt>
      <trkpt lat="42.29502" lon="2.29269">
        <ele>1871</ele>
        <time>2010-01-01T03:04:14Z</time>
      </trkpt>
      <trkpt lat="42.29502" lon="2.29266">
        <ele>1871</ele>
        <time>2010-01-01T03:04:15Z</time>
      </trkpt>
      <trkpt lat="42.29502" lon="2.29262">
        <ele>1871</ele>
        <time>2010-01-01T03:04:16Z</time>
      </trkpt>
      <trkpt lat="42.29502" lon="2.29258">
        <ele>1871</ele>
        <time>2010-01-01T03:04:17Z</time>
      </trkpt>
      <trkpt lat="42.29502" lon="2.29255">
        <ele>1872</ele>
        <time>2010-01-01T03:04:18Z</time>
      </trkpt>
      <trkpt lat="42.29502" lon="2.29251">
        <ele>1872</ele>
        <time>2010-01-01T03:04:19Z</time>
      </trkpt>
      <trkpt lat="42.29502" lon="2.29248">
        <ele>1872</ele>
        <time>2010-01-01T03:04:20Z</time>
      </trkpt>
      <trkpt lat="42.29502" lon="2.29244">
        <ele>1872</ele>
        <time>2010-01-01T03:04:21Z</time>
      </trkpt>
      <trkpt lat="42.29502" lon="2.29241">
        <ele>1872</ele>
        <time>2010-01-01T03:04:22Z</time>
      </trkpt>
      <trkpt lat="42.29502" lon="2.29238">
        <ele>1872</ele>
        <time>2010-01-01T03:04:23Z</time>
      </trkpt>
      <trkpt lat="42.29502" lon="2.29235">
        <ele>1873</ele>
        <time>2010-01-01T03:04:24Z</time>
      </trkpt>
      <trkpt lat="42.29503" lon="2.29232">
        <ele>1873</ele>
        <time>2010-01-01T03:04:25Z</time>
      </trkpt>
      <trkpt lat="42.29503" lon="2.29229">
        <ele>1873</ele>
        <time>2010-01-01T03:04:26Z</time>
      </trkpt>
      <trkpt lat="42.29503" lon="2.29226">
        <ele>1873</ele>
        <time>2010-01-01T03:04:27Z</time>
      </trkpt>
      <trkpt lat="42.29503" lon="2.29223">
        <ele>1873</ele>
        <time>2010-01-01T03:04:27Z</time>
      </trkpt>
      <trkpt lat="42.29503" lon="2.2922">
        <ele>1874</ele>
        <time>2010-01-01T03:04:28Z</time>
      </trkpt>
      <trkpt lat="42.29503" lon="2.29217">
        <ele>1874</ele>
        <time>2010-01-01T03:04:29Z</time>
      </trkpt>
      <trkpt lat="42.29503" lon="2.29214">
        <ele>1874</ele>
        <time>2010-01-01T03:04:30Z</time>
      </trkpt>
      <trkpt lat="42.29502" lon="2.29212">
        <ele>1875</ele>
        <time>2010-01-01T03:04:31Z</time>
      </trkpt>
      <trkpt lat="42.29501" lon="2.29209">
        <ele>1876</ele>
        <time>2010-01-01T03:04:32Z</time>
      </trkpt>
      <trkpt lat="42.295" lon="2.29206">
        <ele>1876</ele>
        <time>2010-01-01T03:04:33Z</time>
      </trkpt>
      <trkpt lat="42.295" lon="2.29203">
        <ele>1877</ele>
        <time>2010-01-01T03:04:34Z</time>
      </trkpt>
      <trkpt lat="42.29499" lon="2.292">
        <ele>1877</ele>
        <time>2010-01-01T03:04:35Z</time>
      </trkpt>
      <trkpt lat="42.29498" lon="2.29197">
        <ele>1877</ele>
        <time>2010-01-01T03:04:36Z</time>
      </trkpt>
      <trkpt lat="42.29498" lon="2.29195">
        <ele>1877</ele>
        <time>2010-01-01T03:04:36Z</time>
      </trkpt>
      <trkpt lat="42.29497" lon="2.29191">
        <ele>1878</ele>
        <time>2010-01-01T03:04:37Z</time>
      </trkpt>
      <trkpt lat="42.29496" lon="2.29188">
        <ele>1878</ele>
        <time>2010-01-01T03:04:38Z</time>
      </trkpt>
      <trkpt lat="42.29495" lon="2.29185">
        <ele>1878</ele>
        <time>2010-01-01T03:04:39Z</time>
      </trkpt>
      <trkpt lat="42.29495" lon="2.29182">
        <ele>1878</ele>
        <time>2010-01-01T03:04:40Z</time>
      </trkpt>
      <trkpt lat="42.29494" lon="2.29179">
        <ele>1878</ele>
        <time>2010-01-01T03:04:41Z</time>
      </trkpt>
      <trkpt lat="42.29493" lon="2.29176">
        <ele>1879</ele>
        <time>2010-01-01T03:04:42Z</time>
      </trkpt>
      <trkpt lat="42.29492" lon="2.29174">
        <ele>1879</ele>
        <time>2010-01-01T03:04:43Z</time>
      </trkpt>
      <trkpt lat="42.29491" lon="2.29171">
        <ele>1879</ele>
        <time>2010-01-01T03:04:44Z</time>
      </trkpt>
      <trkpt lat="42.2949" lon="2.29168">
        <ele>1879</ele>
        <time>2010-01-01T03:04:45Z</time>
      </trkpt>
      <trkpt lat="42.29489" lon="2.29166">
        <ele>1880</ele>
        <time>2010-01-01T03:04:46Z</time>
      </trkpt>
      <trkpt lat="42.29489" lon="2.29163">
        <ele>1880</ele>
        <time>2010-01-01T03:04:46Z</time>
      </trkpt>
      <trkpt lat="42.29488" lon="2.2916">
        <ele>1880</ele>
        <time>2010-01-01T03:04:47Z</time>
      </trkpt>
      <trkpt lat="42.29487" lon="2.29158">
        <ele>1880</ele>
        <time>2010-01-01T03:04:48Z</time>
      </trkpt>
      <trkpt lat="42.29487" lon="2.29155">
        <ele>1881</ele>
        <time>2010-01-01T03:04:49Z</time>
      </trkpt>
      <trkpt lat="42.29486" lon="2.29152">
        <ele>1881</ele>
        <time>2010-01-01T03:04:50Z</time>
      </trkpt>
      <trkpt lat="42.29485" lon="2.29149">
        <ele>1881</ele>
        <time>2010-01-01T03:04:51Z</time>
      </trkpt>
      <trkpt lat="42.29484" lon="2.29146">
        <ele>1882</ele>
        <time>2010-01-01T03:04:52Z</time>
      </trkpt>
      <trkpt lat="42.29483" lon="2.29143">
        <ele>1882</ele>
        <time>2010-01-01T03:04:53Z</time>
      </trkpt>
      <trkpt lat="42.29484" lon="2.2914">
        <ele>1882</ele>
        <time>2010-01-01T03:04:54Z</time>
      </trkpt>
      <trkpt lat="42.29483" lon="2.29137">
        <ele>1883</ele>
        <time>2010-01-01T03:04:54Z</time>
      </trkpt>
      <trkpt lat="42.29482" lon="2.29134">
        <ele>1882</ele>
        <time>2010-01-01T03:04:56Z</time>
      </trkpt>
      <trkpt lat="42.29482" lon="2.29129">
        <ele>1882</ele>
        <time>2010-01-01T03:04:57Z</time>
      </trkpt>
      <trkpt lat="42.29483" lon="2.29126">
        <ele>1882</ele>
        <time>2010-01-01T03:04:58Z</time>
      </trkpt>
      <trkpt lat="42.29484" lon="2.29123">
        <ele>1882</ele>
        <time>2010-01-01T03:04:59Z</time>
      </trkpt>
      <trkpt lat="42.29485" lon="2.29119">
        <ele>1881</ele>
        <time>2010-01-01T03:05:00Z</time>
      </trkpt>
      <trkpt lat="42.29486" lon="2.29115">
        <ele>1881</ele>
        <time>2010-01-01T03:05:01Z</time>
      </trkpt>
      <trkpt lat="42.29486" lon="2.29112">
        <ele>1881</ele>
        <time>2010-01-01T03:05:02Z</time>
      </trkpt>
      <trkpt lat="42.29487" lon="2.29109">
        <ele>1881</ele>
        <time>2010-01-01T03:05:03Z</time>
      </trkpt>
      <trkpt lat="42.29488" lon="2.29105">
        <ele>1880</ele>
        <time>2010-01-01T03:05:04Z</time>
      </trkpt>
      <trkpt lat="42.29489" lon="2.29098">
        <ele>1879</ele>
        <time>2010-01-01T03:05:07Z</time>
      </trkpt>
      <trkpt lat="42.2949" lon="2.29095">
        <ele>1878</ele>
        <time>2010-01-01T03:05:08Z</time>
      </trkpt>
      <trkpt lat="42.2949" lon="2.29092">
        <ele>1878</ele>
        <time>2010-01-01T03:05:09Z</time>
      </trkpt>
      <trkpt lat="42.2949" lon="2.29088">
        <ele>1878</ele>
        <time>2010-01-01T03:05:10Z</time>
      </trkpt>
      <trkpt lat="42.29489" lon="2.29085">
        <ele>1877</ele>
        <time>2010-01-01T03:05:11Z</time>
      </trkpt>
      <trkpt lat="42.29489" lon="2.29082">
        <ele>1877</ele>
        <time>2010-01-01T03:05:12Z</time>
      </trkpt>
      <trkpt lat="42.29489" lon="2.29078">
        <ele>1877</ele>
        <time>2010-01-01T03:05:13Z</time>
      </trkpt>
      <trkpt lat="42.29489" lon="2.29074">
        <ele>1877</ele>
        <time>2010-01-01T03:05:14Z</time>
      </trkpt>
      <trkpt lat="42.29489" lon="2.29071">
        <ele>1877</ele>
        <time>2010-01-01T03:05:15Z</time>
      </trkpt>
      <trkpt lat="42.29489" lon="2.29068">
        <ele>1877</ele>
        <time>2010-01-01T03:05:16Z</time>
      </trkpt>
      <trkpt lat="42.29489" lon="2.29064">
        <ele>1877</ele>
        <time>2010-01-01T03:05:17Z</time>
      </trkpt>
      <trkpt lat="42.29489" lon="2.29061">
        <ele>1876</ele>
        <time>2010-01-01T03:05:18Z</time>
      </trkpt>
      <trkpt lat="42.29489" lon="2.29057">
        <ele>1876</ele>
        <time>2010-01-01T03:05:19Z</time>
      </trkpt>
      <trkpt lat="42.29489" lon="2.29054">
        <ele>1877</ele>
        <time>2010-01-01T03:05:20Z</time>
      </trkpt>
      <trkpt lat="42.29489" lon="2.2905">
        <ele>1877</ele>
        <time>2010-01-01T03:05:21Z</time>
      </trkpt>
      <trkpt lat="42.29489" lon="2.29046">
        <ele>1877</ele>
        <time>2010-01-01T03:05:22Z</time>
      </trkpt>
      <trkpt lat="42.2949" lon="2.29042">
        <ele>1878</ele>
        <time>2010-01-01T03:05:23Z</time>
      </trkpt>
      <trkpt lat="42.2949" lon="2.29038">
        <ele>1878</ele>
        <time>2010-01-01T03:05:24Z</time>
      </trkpt>
      <trkpt lat="42.2949" lon="2.29035">
        <ele>1878</ele>
        <time>2010-01-01T03:05:25Z</time>
      </trkpt>
      <trkpt lat="42.2949" lon="2.29031">
        <ele>1879</ele>
        <time>2010-01-01T03:05:27Z</time>
      </trkpt>
      <trkpt lat="42.2949" lon="2.29028">
        <ele>1879</ele>
        <time>2010-01-01T03:05:27Z</time>
      </trkpt>
      <trkpt lat="42.29491" lon="2.29026">
        <ele>1879</ele>
        <time>2010-01-01T03:05:28Z</time>
      </trkpt>
      <trkpt lat="42.29491" lon="2.29023">
        <ele>1879</ele>
        <time>2010-01-01T03:05:29Z</time>
      </trkpt>
      <trkpt lat="42.29491" lon="2.2902">
        <ele>1879</ele>
        <time>2010-01-01T03:05:30Z</time>
      </trkpt>
      <trkpt lat="42.2949" lon="2.29017">
        <ele>1880</ele>
        <time>2010-01-01T03:05:31Z</time>
      </trkpt>
      <trkpt lat="42.29491" lon="2.29014">
        <ele>1880</ele>
        <time>2010-01-01T03:05:32Z</time>
      </trkpt>
      <trkpt lat="42.29491" lon="2.29011">
        <ele>1880</ele>
        <time>2010-01-01T03:05:32Z</time>
      </trkpt>
      <trkpt lat="42.29492" lon="2.29008">
        <ele>1880</ele>
        <time>2010-01-01T03:05:34Z</time>
      </trkpt>
      <trkpt lat="42.29492" lon="2.29005">
        <ele>1880</ele>
        <time>2010-01-01T03:05:34Z</time>
      </trkpt>
      <trkpt lat="42.29492" lon="2.29001">
        <ele>1880</ele>
        <time>2010-01-01T03:05:36Z</time>
      </trkpt>
      <trkpt lat="42.29492" lon="2.28998">
        <ele>1880</ele>
        <time>2010-01-01T03:05:36Z</time>
      </trkpt>
      <trkpt lat="42.29492" lon="2.28995">
        <ele>1880</ele>
        <time>2010-01-01T03:05:37Z</time>
      </trkpt>
      <trkpt lat="42.29491" lon="2.28993">
        <ele>1881</ele>
        <time>2010-01-01T03:05:38Z</time>
      </trkpt>
      <trkpt lat="42.2949" lon="2.2899">
        <ele>1881</ele>
        <time>2010-01-01T03:05:39Z</time>
      </trkpt>
      <trkpt lat="42.29489" lon="2.28987">
        <ele>1881</ele>
        <time>2010-01-01T03:05:40Z</time>
      </trkpt>
      <trkpt lat="42.29488" lon="2.28984">
        <ele>1881</ele>
        <time>2010-01-01T03:05:41Z</time>
      </trkpt>
      <trkpt lat="42.29487" lon="2.28981">
        <ele>1881</ele>
        <time>2010-01-01T03:05:42Z</time>
      </trkpt>
      <trkpt lat="42.29486" lon="2.28978">
        <ele>1881</ele>
        <time>2010-01-01T03:05:43Z</time>
      </trkpt>
      <trkpt lat="42.29486" lon="2.28976">
        <ele>1881</ele>
        <time>2010-01-01T03:05:44Z</time>
      </trkpt>
      <trkpt lat="42.29486" lon="2.28971">
        <ele>1881</ele>
        <time>2010-01-01T03:05:45Z</time>
      </trkpt>
      <trkpt lat="42.29485" lon="2.28965">
        <ele>1880</ele>
        <time>2010-01-01T03:05:47Z</time>
      </trkpt>
      <trkpt lat="42.29484" lon="2.2896">
        <ele>1880</ele>
        <time>2010-01-01T03:05:48Z</time>
      </trkpt>
      <trkpt lat="42.29483" lon="2.28955">
        <ele>1880</ele>
        <time>2010-01-01T03:05:50Z</time>
      </trkpt>
      <trkpt lat="42.29482" lon="2.28952">
        <ele>1879</ele>
        <time>2010-01-01T03:05:51Z</time>
      </trkpt>
      <trkpt lat="42.29481" lon="2.28948">
        <ele>1879</ele>
        <time>2010-01-01T03:05:52Z</time>
      </trkpt>
      <trkpt lat="42.2948" lon="2.28945">
        <ele>1879</ele>
        <time>2010-01-01T03:05:53Z</time>
      </trkpt>
      <trkpt lat="42.2948" lon="2.28942">
        <ele>1879</ele>
        <time>2010-01-01T03:05:54Z</time>
      </trkpt>
      <trkpt lat="42.29478" lon="2.2894">
        <ele>1879</ele>
        <time>2010-01-01T03:05:55Z</time>
      </trkpt>
      <trkpt lat="42.29476" lon="2.28939">
        <ele>1879</ele>
        <time>2010-01-01T03:05:56Z</time>
      </trkpt>
      <trkpt lat="42.29473" lon="2.28937">
        <ele>1880</ele>
        <time>2010-01-01T03:05:57Z</time>
      </trkpt>
      <trkpt lat="42.29473" lon="2.28929">
        <ele>1878</ele>
        <time>2010-01-01T03:05:59Z</time>
      </trkpt>
      <trkpt lat="42.29474" lon="2.28925">
        <ele>1877</ele>
        <time>2010-01-01T03:06:01Z</time>
      </trkpt>
      <trkpt lat="42.29473" lon="2.2892">
        <ele>1876</ele>
        <time>2010-01-01T03:06:02Z</time>
      </trkpt>
      <trkpt lat="42.29473" lon="2.28914">
        <ele>1875</ele>
        <time>2010-01-01T03:06:04Z</time>
      </trkpt>
      <trkpt lat="42.29473" lon="2.28908">
        <ele>1875</ele>
        <time>2010-01-01T03:06:06Z</time>
      </trkpt>
      <trkpt lat="42.29473" lon="2.28901">
        <ele>1875</ele>
        <time>2010-01-01T03:06:08Z</time>
      </trkpt>
      <trkpt lat="42.29472" lon="2.28894">
        <ele>1875</ele>
        <time>2010-01-01T03:06:10Z</time>
      </trkpt>
      <trkpt lat="42.29471" lon="2.28888">
        <ele>1874</ele>
        <time>2010-01-01T03:06:12Z</time>
      </trkpt>
      <trkpt lat="42.2947" lon="2.2888">
        <ele>1873</ele>
        <time>2010-01-01T03:06:14Z</time>
      </trkpt>
      <trkpt lat="42.2947" lon="2.28875">
        <ele>1872</ele>
        <time>2010-01-01T03:06:16Z</time>
      </trkpt>
      <trkpt lat="42.2947" lon="2.28868">
        <ele>1871</ele>
        <time>2010-01-01T03:06:18Z</time>
      </trkpt>
      <trkpt lat="42.2947" lon="2.28863">
        <ele>1870</ele>
        <time>2010-01-01T03:06:19Z</time>
      </trkpt>
      <trkpt lat="42.29471" lon="2.28858">
        <ele>1870</ele>
        <time>2010-01-01T03:06:21Z</time>
      </trkpt>
      <trkpt lat="42.29472" lon="2.28855">
        <ele>1870</ele>
        <time>2010-01-01T03:06:22Z</time>
      </trkpt>
      <trkpt lat="42.29472" lon="2.28852">
        <ele>1870</ele>
        <time>2010-01-01T03:06:23Z</time>
      </trkpt>
      <trkpt lat="42.29471" lon="2.28849">
        <ele>1869</ele>
        <time>2010-01-01T03:06:24Z</time>
      </trkpt>
      <trkpt lat="42.29471" lon="2.28845">
        <ele>1869</ele>
        <time>2010-01-01T03:06:25Z</time>
      </trkpt>
      <trkpt lat="42.29471" lon="2.28841">
        <ele>1869</ele>
        <time>2010-01-01T03:06:26Z</time>
      </trkpt>
      <trkpt lat="42.29471" lon="2.28837">
        <ele>1869</ele>
        <time>2010-01-01T03:06:27Z</time>
      </trkpt>
      <trkpt lat="42.29471" lon="2.28832">
        <ele>1868</ele>
        <time>2010-01-01T03:06:29Z</time>
      </trkpt>
      <trkpt lat="42.29471" lon="2.28828">
        <ele>1868</ele>
        <time>2010-01-01T03:06:30Z</time>
      </trkpt>
      <trkpt lat="42.2947" lon="2.28823">
        <ele>1868</ele>
        <time>2010-01-01T03:06:31Z</time>
      </trkpt>
      <trkpt lat="42.2947" lon="2.28818">
        <ele>1868</ele>
        <time>2010-01-01T03:06:33Z</time>
      </trkpt>
      <trkpt lat="42.2947" lon="2.28812">
        <ele>1868</ele>
        <time>2010-01-01T03:06:35Z</time>
      </trkpt>
      <trkpt lat="42.2947" lon="2.28807">
        <ele>1868</ele>
        <time>2010-01-01T03:06:36Z</time>
      </trkpt>
      <trkpt lat="42.29471" lon="2.288">
        <ele>1868</ele>
        <time>2010-01-01T03:06:38Z</time>
      </trkpt>
      <trkpt lat="42.29472" lon="2.28796">
        <ele>1868</ele>
        <time>2010-01-01T03:06:39Z</time>
      </trkpt>
      <trkpt lat="42.29472" lon="2.28793">
        <ele>1868</ele>
        <time>2010-01-01T03:06:40Z</time>
      </trkpt>
      <trkpt lat="42.29473" lon="2.28789">
        <ele>1868</ele>
        <time>2010-01-01T03:06:41Z</time>
      </trkpt>
      <trkpt lat="42.29473" lon="2.28785">
        <ele>1868</ele>
        <time>2010-01-01T03:06:43Z</time>
      </trkpt>
      <trkpt lat="42.29474" lon="2.28782">
        <ele>1868</ele>
        <time>2010-01-01T03:06:44Z</time>
      </trkpt>
      <trkpt lat="42.29475" lon="2.28778">
        <ele>1867</ele>
        <time>2010-01-01T03:06:45Z</time>
      </trkpt>
      <trkpt lat="42.29476" lon="2.28775">
        <ele>1867</ele>
        <time>2010-01-01T03:06:46Z</time>
      </trkpt>
      <trkpt lat="42.29477" lon="2.28771">
        <ele>1867</ele>
        <time>2010-01-01T03:06:47Z</time>
      </trkpt>
      <trkpt lat="42.29477" lon="2.28767">
        <ele>1867</ele>
        <time>2010-01-01T03:06:48Z</time>
      </trkpt>
      <trkpt lat="42.29477" lon="2.28764">
        <ele>1867</ele>
        <time>2010-01-01T03:06:49Z</time>
      </trkpt>
      <trkpt lat="42.29478" lon="2.2876">
        <ele>1868</ele>
        <time>2010-01-01T03:06:50Z</time>
      </trkpt>
      <trkpt lat="42.29479" lon="2.28757">
        <ele>1868</ele>
        <time>2010-01-01T03:06:51Z</time>
      </trkpt>
      <trkpt lat="42.2948" lon="2.28754">
        <ele>1868</ele>
        <time>2010-01-01T03:06:52Z</time>
      </trkpt>
      <trkpt lat="42.29481" lon="2.2875">
        <ele>1868</ele>
        <time>2010-01-01T03:06:53Z</time>
      </trkpt>
      <trkpt lat="42.29482" lon="2.28747">
        <ele>1868</ele>
        <time>2010-01-01T03:06:54Z</time>
      </trkpt>
      <trkpt lat="42.29482" lon="2.28744">
        <ele>1868</ele>
        <time>2010-01-01T03:06:55Z</time>
      </trkpt>
      <trkpt lat="42.29483" lon="2.2874">
        <ele>1869</ele>
        <time>2010-01-01T03:06:57Z</time>
      </trkpt>
      <trkpt lat="42.29485" lon="2.28736">
        <ele>1869</ele>
        <time>2010-01-01T03:06:58Z</time>
      </trkpt>
      <trkpt lat="42.29486" lon="2.28731">
        <ele>1870</ele>
        <time>2010-01-01T03:07:00Z</time>
      </trkpt>
      <trkpt lat="42.29488" lon="2.28726">
        <ele>1870</ele>
        <time>2010-01-01T03:07:01Z</time>
      </trkpt>
      <trkpt lat="42.29489" lon="2.2872">
        <ele>1871</ele>
        <time>2010-01-01T03:07:03Z</time>
      </trkpt>
      <trkpt lat="42.29491" lon="2.28714">
        <ele>1871</ele>
        <time>2010-01-01T03:07:05Z</time>
      </trkpt>
      <trkpt lat="42.29492" lon="2.28707">
        <ele>1872</ele>
        <time>2010-01-01T03:07:07Z</time>
      </trkpt>
      <trkpt lat="42.29493" lon="2.28701">
        <ele>1872</ele>
        <time>2010-01-01T03:07:09Z</time>
      </trkpt>
      <trkpt lat="42.29494" lon="2.28698">
        <ele>1873</ele>
        <time>2010-01-01T03:07:10Z</time>
      </trkpt>
      <trkpt lat="42.29494" lon="2.28694">
        <ele>1873</ele>
        <time>2010-01-01T03:07:11Z</time>
      </trkpt>
      <trkpt lat="42.29494" lon="2.28691">
        <ele>1873</ele>
        <time>2010-01-01T03:07:12Z</time>
      </trkpt>
      <trkpt lat="42.29494" lon="2.28689">
        <ele>1873</ele>
        <time>2010-01-01T03:07:13Z</time>
      </trkpt>
      <trkpt lat="42.29494" lon="2.28686">
        <ele>1873</ele>
        <time>2010-01-01T03:07:14Z</time>
      </trkpt>
      <trkpt lat="42.29493" lon="2.28683">
        <ele>1873</ele>
        <time>2010-01-01T03:07:14Z</time>
      </trkpt>
      <trkpt lat="42.29493" lon="2.28679">
        <ele>1874</ele>
        <time>2010-01-01T03:07:15Z</time>
      </trkpt>
      <trkpt lat="42.29493" lon="2.28676">
        <ele>1874</ele>
        <time>2010-01-01T03:07:16Z</time>
      </trkpt>
      <trkpt lat="42.29493" lon="2.28673">
        <ele>1874</ele>
        <time>2010-01-01T03:07:17Z</time>
      </trkpt>
      <trkpt lat="42.29493" lon="2.2867">
        <ele>1874</ele>
        <time>2010-01-01T03:07:18Z</time>
      </trkpt>
      <trkpt lat="42.29494" lon="2.28667">
        <ele>1874</ele>
        <time>2010-01-01T03:07:19Z</time>
      </trkpt>
      <trkpt lat="42.29494" lon="2.28664">
        <ele>1874</ele>
        <time>2010-01-01T03:07:20Z</time>
      </trkpt>
      <trkpt lat="42.29493" lon="2.28661">
        <ele>1874</ele>
        <time>2010-01-01T03:07:21Z</time>
      </trkpt>
      <trkpt lat="42.29494" lon="2.28657">
        <ele>1874</ele>
        <time>2010-01-01T03:07:22Z</time>
      </trkpt>
      <trkpt lat="42.29494" lon="2.28654">
        <ele>1874</ele>
        <time>2010-01-01T03:07:23Z</time>
      </trkpt>
      <trkpt lat="42.29495" lon="2.28651">
        <ele>1874</ele>
        <time>2010-01-01T03:07:24Z</time>
      </trkpt>
      <trkpt lat="42.29495" lon="2.28648">
        <ele>1874</ele>
        <time>2010-01-01T03:07:25Z</time>
      </trkpt>
      <trkpt lat="42.29495" lon="2.28644">
        <ele>1875</ele>
        <time>2010-01-01T03:07:26Z</time>
      </trkpt>
      <trkpt lat="42.29495" lon="2.2864">
        <ele>1874</ele>
        <time>2010-01-01T03:07:27Z</time>
      </trkpt>
      <trkpt lat="42.29494" lon="2.28635">
        <ele>1875</ele>
        <time>2010-01-01T03:07:29Z</time>
      </trkpt>
      <trkpt lat="42.29495" lon="2.2863">
        <ele>1875</ele>
        <time>2010-01-01T03:07:30Z</time>
      </trkpt>
      <trkpt lat="42.29496" lon="2.28627">
        <ele>1875</ele>
        <time>2010-01-01T03:07:31Z</time>
      </trkpt>
      <trkpt lat="42.29497" lon="2.28622">
        <ele>1875</ele>
        <time>2010-01-01T03:07:33Z</time>
      </trkpt>
      <trkpt lat="42.29498" lon="2.28617">
        <ele>1875</ele>
        <time>2010-01-01T03:07:34Z</time>
      </trkpt>
      <trkpt lat="42.29499" lon="2.28612">
        <ele>1875</ele>
        <time>2010-01-01T03:07:36Z</time>
      </trkpt>
      <trkpt lat="42.295" lon="2.28606">
        <ele>1876</ele>
        <time>2010-01-01T03:07:38Z</time>
      </trkpt>
      <trkpt lat="42.29502" lon="2.286">
        <ele>1876</ele>
        <time>2010-01-01T03:07:39Z</time>
      </trkpt>
      <trkpt lat="42.29502" lon="2.28593">
        <ele>1876</ele>
        <time>2010-01-01T03:07:42Z</time>
      </trkpt>
      <trkpt lat="42.29503" lon="2.28585">
        <ele>1876</ele>
        <time>2010-01-01T03:07:44Z</time>
      </trkpt>
      <trkpt lat="42.29502" lon="2.28579">
        <ele>1876</ele>
        <time>2010-01-01T03:07:46Z</time>
      </trkpt>
      <trkpt lat="42.29502" lon="2.28572">
        <ele>1876</ele>
        <time>2010-01-01T03:07:48Z</time>
      </trkpt>
      <trkpt lat="42.29502" lon="2.28567">
        <ele>1876</ele>
        <time>2010-01-01T03:07:49Z</time>
      </trkpt>
      <trkpt lat="42.29502" lon="2.28563">
        <ele>1876</ele>
        <time>2010-01-01T03:07:50Z</time>
      </trkpt>
      <trkpt lat="42.29501" lon="2.28557">
        <ele>1875</ele>
        <time>2010-01-01T03:07:52Z</time>
      </trkpt>
      <trkpt lat="42.29501" lon="2.2855">
        <ele>1876</ele>
        <time>2010-01-01T03:07:54Z</time>
      </trkpt>
      <trkpt lat="42.29502" lon="2.28543">
        <ele>1876</ele>
        <time>2010-01-01T03:07:56Z</time>
      </trkpt>
      <trkpt lat="42.29502" lon="2.28536">
        <ele>1876</ele>
        <time>2010-01-01T03:07:58Z</time>
      </trkpt>
      <trkpt lat="42.29502" lon="2.28532">
        <ele>1876</ele>
        <time>2010-01-01T03:08:00Z</time>
      </trkpt>
      <trkpt lat="42.29501" lon="2.28528">
        <ele>1876</ele>
        <time>2010-01-01T03:08:01Z</time>
      </trkpt>
      <trkpt lat="42.29501" lon="2.28523">
        <ele>1876</ele>
        <time>2010-01-01T03:08:02Z</time>
      </trkpt>
      <trkpt lat="42.29502" lon="2.28516">
        <ele>1876</ele>
        <time>2010-01-01T03:08:05Z</time>
      </trkpt>
      <trkpt lat="42.29502" lon="2.28512">
        <ele>1876</ele>
        <time>2010-01-01T03:08:05Z</time>
      </trkpt>
      <trkpt lat="42.29502" lon="2.28508">
        <ele>1876</ele>
        <time>2010-01-01T03:08:07Z</time>
      </trkpt>
      <trkpt lat="42.29502" lon="2.28503">
        <ele>1876</ele>
        <time>2010-01-01T03:08:08Z</time>
      </trkpt>
      <trkpt lat="42.29502" lon="2.28498">
        <ele>1876</ele>
        <time>2010-01-01T03:08:10Z</time>
      </trkpt>
      <trkpt lat="42.29502" lon="2.28492">
        <ele>1877</ele>
        <time>2010-01-01T03:08:11Z</time>
      </trkpt>
      <trkpt lat="42.29502" lon="2.28486">
        <ele>1877</ele>
        <time>2010-01-01T03:08:13Z</time>
      </trkpt>
      <trkpt lat="42.29501" lon="2.28481">
        <ele>1878</ele>
        <time>2010-01-01T03:08:15Z</time>
      </trkpt>
      <trkpt lat="42.29501" lon="2.28475">
        <ele>1878</ele>
        <time>2010-01-01T03:08:17Z</time>
      </trkpt>
      <trkpt lat="42.29501" lon="2.28469">
        <ele>1879</ele>
        <time>2010-01-01T03:08:18Z</time>
      </trkpt>
      <trkpt lat="42.29501" lon="2.28462">
        <ele>1879</ele>
        <time>2010-01-01T03:08:20Z</time>
      </trkpt>
      <trkpt lat="42.29501" lon="2.28455">
        <ele>1880</ele>
        <time>2010-01-01T03:08:22Z</time>
      </trkpt>
      <trkpt lat="42.29501" lon="2.28449">
        <ele>1880</ele>
        <time>2010-01-01T03:08:24Z</time>
      </trkpt>
      <trkpt lat="42.295" lon="2.28444">
        <ele>1880</ele>
        <time>2010-01-01T03:08:26Z</time>
      </trkpt>
      <trkpt lat="42.295" lon="2.28437">
        <ele>1880</ele>
        <time>2010-01-01T03:08:28Z</time>
      </trkpt>
      <trkpt lat="42.295" lon="2.28432">
        <ele>1880</ele>
        <time>2010-01-01T03:08:29Z</time>
      </trkpt>
      <trkpt lat="42.29501" lon="2.28425">
        <ele>1879</ele>
        <time>2010-01-01T03:08:31Z</time>
      </trkpt>
      <trkpt lat="42.29501" lon="2.2842">
        <ele>1879</ele>
        <time>2010-01-01T03:08:33Z</time>
      </trkpt>
      <trkpt lat="42.29501" lon="2.28415">
        <ele>1878</ele>
        <time>2010-01-01T03:08:34Z</time>
      </trkpt>
      <trkpt lat="42.29502" lon="2.28409">
        <ele>1878</ele>
        <time>2010-01-01T03:08:36Z</time>
      </trkpt>
      <trkpt lat="42.29503" lon="2.28403">
        <ele>1878</ele>
        <time>2010-01-01T03:08:38Z</time>
      </trkpt>
      <trkpt lat="42.29504" lon="2.28397">
        <ele>1878</ele>
        <time>2010-01-01T03:08:40Z</time>
      </trkpt>
      <trkpt lat="42.29505" lon="2.28392">
        <ele>1878</ele>
        <time>2010-01-01T03:08:41Z</time>
      </trkpt>
      <trkpt lat="42.29506" lon="2.28386">
        <ele>1878</ele>
        <time>2010-01-01T03:08:43Z</time>
      </trkpt>
      <trkpt lat="42.29507" lon="2.28379">
        <ele>1878</ele>
        <time>2010-01-01T03:08:45Z</time>
      </trkpt>
      <trkpt lat="42.29508" lon="2.28374">
        <ele>1878</ele>
        <time>2010-01-01T03:08:47Z</time>
      </trkpt>
      <trkpt lat="42.29508" lon="2.28368">
        <ele>1879</ele>
        <time>2010-01-01T03:08:48Z</time>
      </trkpt>
      <trkpt lat="42.29508" lon="2.28362">
        <ele>1879</ele>
        <time>2010-01-01T03:08:50Z</time>
      </trkpt>
      <trkpt lat="42.29508" lon="2.28358">
        <ele>1879</ele>
        <time>2010-01-01T03:08:52Z</time>
      </trkpt>
      <trkpt lat="42.29508" lon="2.28354">
        <ele>1879</ele>
        <time>2010-01-01T03:08:53Z</time>
      </trkpt>
      <trkpt lat="42.29508" lon="2.28351">
        <ele>1880</ele>
        <time>2010-01-01T03:08:54Z</time>
      </trkpt>
      <trkpt lat="42.29508" lon="2.28348">
        <ele>1880</ele>
        <time>2010-01-01T03:08:55Z</time>
      </trkpt>
      <trkpt lat="42.29508" lon="2.28345">
        <ele>1880</ele>
        <time>2010-01-01T03:08:56Z</time>
      </trkpt>
      <trkpt lat="42.29509" lon="2.28342">
        <ele>1880</ele>
        <time>2010-01-01T03:08:56Z</time>
      </trkpt>
      <trkpt lat="42.29509" lon="2.28339">
        <ele>1880</ele>
        <time>2010-01-01T03:08:57Z</time>
      </trkpt>
      <trkpt lat="42.29509" lon="2.28335">
        <ele>1880</ele>
        <time>2010-01-01T03:08:58Z</time>
      </trkpt>
      <trkpt lat="42.29508" lon="2.28331">
        <ele>1880</ele>
        <time>2010-01-01T03:09:00Z</time>
      </trkpt>
      <trkpt lat="42.29508" lon="2.28326">
        <ele>1880</ele>
        <time>2010-01-01T03:09:01Z</time>
      </trkpt>
      <trkpt lat="42.29508" lon="2.2832">
        <ele>1881</ele>
        <time>2010-01-01T03:09:03Z</time>
      </trkpt>
      <trkpt lat="42.29508" lon="2.28316">
        <ele>1881</ele>
        <time>2010-01-01T03:09:04Z</time>
      </trkpt>
      <trkpt lat="42.29507" lon="2.28312">
        <ele>1881</ele>
        <time>2010-01-01T03:09:05Z</time>
      </trkpt>
      <trkpt lat="42.29506" lon="2.28309">
        <ele>1881</ele>
        <time>2010-01-01T03:09:06Z</time>
      </trkpt>
      <trkpt lat="42.29505" lon="2.28307">
        <ele>1881</ele>
        <time>2010-01-01T03:09:07Z</time>
      </trkpt>
      <trkpt lat="42.29504" lon="2.28303">
        <ele>1881</ele>
        <time>2010-01-01T03:09:08Z</time>
      </trkpt>
      <trkpt lat="42.29504" lon="2.28299">
        <ele>1881</ele>
        <time>2010-01-01T03:09:09Z</time>
      </trkpt>
      <trkpt lat="42.29504" lon="2.28291">
        <ele>1881</ele>
        <time>2010-01-01T03:09:12Z</time>
      </trkpt>
      <trkpt lat="42.29504" lon="2.28285">
        <ele>1881</ele>
        <time>2010-01-01T03:09:14Z</time>
      </trkpt>
      <trkpt lat="42.29505" lon="2.28278">
        <ele>1880</ele>
        <time>2010-01-01T03:09:16Z</time>
      </trkpt>
      <trkpt lat="42.29506" lon="2.28271">
        <ele>1879</ele>
        <time>2010-01-01T03:09:18Z</time>
      </trkpt>
      <trkpt lat="42.29505" lon="2.28265">
        <ele>1878</ele>
        <time>2010-01-01T03:09:19Z</time>
      </trkpt>
      <trkpt lat="42.29505" lon="2.28261">
        <ele>1878</ele>
        <time>2010-01-01T03:09:21Z</time>
      </trkpt>
      <trkpt lat="42.29505" lon="2.28258">
        <ele>1877</ele>
        <time>2010-01-01T03:09:22Z</time>
      </trkpt>
      <trkpt lat="42.29505" lon="2.28256">
        <ele>1877</ele>
        <time>2010-01-01T03:09:22Z</time>
      </trkpt>
      <trkpt lat="42.29505" lon="2.28253">
        <ele>1877</ele>
        <time>2010-01-01T03:09:23Z</time>
      </trkpt>
      <trkpt lat="42.29505" lon="2.28249">
        <ele>1876</ele>
        <time>2010-01-01T03:09:24Z</time>
      </trkpt>
      <trkpt lat="42.29504" lon="2.28246">
        <ele>1876</ele>
        <time>2010-01-01T03:09:25Z</time>
      </trkpt>
      <trkpt lat="42.29503" lon="2.28244">
        <ele>1875</ele>
        <time>2010-01-01T03:09:26Z</time>
      </trkpt>
      <trkpt lat="42.29504" lon="2.2824">
        <ele>1874</ele>
        <time>2010-01-01T03:09:27Z</time>
      </trkpt>
      <trkpt lat="42.29505" lon="2.28237">
        <ele>1874</ele>
        <time>2010-01-01T03:09:28Z</time>
      </trkpt>
      <trkpt lat="42.29507" lon="2.28236">
        <ele>1873</ele>
        <time>2010-01-01T03:09:29Z</time>
      </trkpt>
      <trkpt lat="42.29508" lon="2.28232">
        <ele>1873</ele>
        <time>2010-01-01T03:09:30Z</time>
      </trkpt>
      <trkpt lat="42.29508" lon="2.28228">
        <ele>1872</ele>
        <time>2010-01-01T03:09:31Z</time>
      </trkpt>
      <trkpt lat="42.29508" lon="2.28225">
        <ele>1871</ele>
        <time>2010-01-01T03:09:32Z</time>
      </trkpt>
      <trkpt lat="42.29506" lon="2.28223">
        <ele>1871</ele>
        <time>2010-01-01T03:09:33Z</time>
      </trkpt>
      <trkpt lat="42.29505" lon="2.28221">
        <ele>1871</ele>
        <time>2010-01-01T03:09:34Z</time>
      </trkpt>
      <trkpt lat="42.29502" lon="2.2822">
        <ele>1871</ele>
        <time>2010-01-01T03:09:35Z</time>
      </trkpt>
      <trkpt lat="42.295" lon="2.28217">
        <ele>1871</ele>
        <time>2010-01-01T03:09:36Z</time>
      </trkpt>
      <trkpt lat="42.29498" lon="2.28213">
        <ele>1870</ele>
        <time>2010-01-01T03:09:38Z</time>
      </trkpt>
      <trkpt lat="42.29496" lon="2.28208">
        <ele>1869</ele>
        <time>2010-01-01T03:09:39Z</time>
      </trkpt>
      <trkpt lat="42.29493" lon="2.282">
        <ele>1868</ele>
        <time>2010-01-01T03:09:42Z</time>
      </trkpt>
      <trkpt lat="42.29491" lon="2.28193">
        <ele>1868</ele>
        <time>2010-01-01T03:09:44Z</time>
      </trkpt>
      <trkpt lat="42.29489" lon="2.28188">
        <ele>1868</ele>
        <time>2010-01-01T03:09:46Z</time>
      </trkpt>
      <trkpt lat="42.29489" lon="2.28185">
        <ele>1868</ele>
        <time>2010-01-01T03:09:47Z</time>
      </trkpt>
      <trkpt lat="42.29488" lon="2.28182">
        <ele>1868</ele>
        <time>2010-01-01T03:09:48Z</time>
      </trkpt>
      <trkpt lat="42.29487" lon="2.28179">
        <ele>1868</ele>
        <time>2010-01-01T03:09:49Z</time>
      </trkpt>
      <trkpt lat="42.29486" lon="2.28176">
        <ele>1868</ele>
        <time>2010-01-01T03:09:50Z</time>
      </trkpt>
      <trkpt lat="42.29485" lon="2.28173">
        <ele>1868</ele>
        <time>2010-01-01T03:09:51Z</time>
      </trkpt>
      <trkpt lat="42.29484" lon="2.2817">
        <ele>1868</ele>
        <time>2010-01-01T03:09:51Z</time>
      </trkpt>
      <trkpt lat="42.29483" lon="2.28167">
        <ele>1868</ele>
        <time>2010-01-01T03:09:52Z</time>
      </trkpt>
      <trkpt lat="42.29483" lon="2.28164">
        <ele>1868</ele>
        <time>2010-01-01T03:09:53Z</time>
      </trkpt>
      <trkpt lat="42.29483" lon="2.28161">
        <ele>1868</ele>
        <time>2010-01-01T03:09:54Z</time>
      </trkpt>
      <trkpt lat="42.29482" lon="2.28158">
        <ele>1869</ele>
        <time>2010-01-01T03:09:55Z</time>
      </trkpt>
      <trkpt lat="42.29482" lon="2.28154">
        <ele>1869</ele>
        <time>2010-01-01T03:09:56Z</time>
      </trkpt>
      <trkpt lat="42.29481" lon="2.28151">
        <ele>1870</ele>
        <time>2010-01-01T03:09:57Z</time>
      </trkpt>
      <trkpt lat="42.29481" lon="2.28148">
        <ele>1870</ele>
        <time>2010-01-01T03:09:58Z</time>
      </trkpt>
      <trkpt lat="42.29482" lon="2.28145">
        <ele>1870</ele>
        <time>2010-01-01T03:09:59Z</time>
      </trkpt>
      <trkpt lat="42.29482" lon="2.28143">
        <ele>1871</ele>
        <time>2010-01-01T03:10:00Z</time>
      </trkpt>
      <trkpt lat="42.29481" lon="2.2814">
        <ele>1871</ele>
        <time>2010-01-01T03:10:01Z</time>
      </trkpt>
      <trkpt lat="42.2948" lon="2.28135">
        <ele>1872</ele>
        <time>2010-01-01T03:10:02Z</time>
      </trkpt>
      <trkpt lat="42.2948" lon="2.28131">
        <ele>1872</ele>
        <time>2010-01-01T03:10:03Z</time>
      </trkpt>
      <trkpt lat="42.2948" lon="2.28127">
        <ele>1872</ele>
        <time>2010-01-01T03:10:05Z</time>
      </trkpt>
      <trkpt lat="42.2948" lon="2.28123">
        <ele>1873</ele>
        <time>2010-01-01T03:10:06Z</time>
      </trkpt>
      <trkpt lat="42.2948" lon="2.28118">
        <ele>1873</ele>
        <time>2010-01-01T03:10:07Z</time>
      </trkpt>
      <trkpt lat="42.2948" lon="2.28111">
        <ele>1873</ele>
        <time>2010-01-01T03:10:09Z</time>
      </trkpt>
      <trkpt lat="42.29481" lon="2.28107">
        <ele>1874</ele>
        <time>2010-01-01T03:10:11Z</time>
      </trkpt>
      <trkpt lat="42.2948" lon="2.28103">
        <ele>1875</ele>
        <time>2010-01-01T03:10:12Z</time>
      </trkpt>
      <trkpt lat="42.2948" lon="2.28099">
        <ele>1875</ele>
        <time>2010-01-01T03:10:13Z</time>
      </trkpt>
      <trkpt lat="42.29481" lon="2.28096">
        <ele>1876</ele>
        <time>2010-01-01T03:10:14Z</time>
      </trkpt>
      <trkpt lat="42.2948" lon="2.28093">
        <ele>1876</ele>
        <time>2010-01-01T03:10:15Z</time>
      </trkpt>
      <trkpt lat="42.29481" lon="2.2809">
        <ele>1876</ele>
        <time>2010-01-01T03:10:16Z</time>
      </trkpt>
      <trkpt lat="42.29481" lon="2.28088">
        <ele>1877</ele>
        <time>2010-01-01T03:10:16Z</time>
      </trkpt>
      <trkpt lat="42.29481" lon="2.28085">
        <ele>1877</ele>
        <time>2010-01-01T03:10:17Z</time>
      </trkpt>
      <trkpt lat="42.29481" lon="2.28082">
        <ele>1877</ele>
        <time>2010-01-01T03:10:18Z</time>
      </trkpt>
      <trkpt lat="42.29481" lon="2.28079">
        <ele>1878</ele>
        <time>2010-01-01T03:10:19Z</time>
      </trkpt>
      <trkpt lat="42.29481" lon="2.28076">
        <ele>1878</ele>
        <time>2010-01-01T03:10:20Z</time>
      </trkpt>
      <trkpt lat="42.29481" lon="2.28073">
        <ele>1878</ele>
        <time>2010-01-01T03:10:21Z</time>
      </trkpt>
      <trkpt lat="42.29481" lon="2.28069">
        <ele>1878</ele>
        <time>2010-01-01T03:10:22Z</time>
      </trkpt>
      <trkpt lat="42.2948" lon="2.28065">
        <ele>1878</ele>
        <time>2010-01-01T03:10:23Z</time>
      </trkpt>
      <trkpt lat="42.29479" lon="2.28062">
        <ele>1879</ele>
        <time>2010-01-01T03:10:24Z</time>
      </trkpt>
      <trkpt lat="42.29479" lon="2.28058">
        <ele>1879</ele>
        <time>2010-01-01T03:10:25Z</time>
      </trkpt>
      <trkpt lat="42.29479" lon="2.28055">
        <ele>1879</ele>
        <time>2010-01-01T03:10:26Z</time>
      </trkpt>
      <trkpt lat="42.29478" lon="2.28052">
        <ele>1879</ele>
        <time>2010-01-01T03:10:27Z</time>
      </trkpt>
      <trkpt lat="42.29478" lon="2.28049">
        <ele>1879</ele>
        <time>2010-01-01T03:10:28Z</time>
      </trkpt>
      <trkpt lat="42.29476" lon="2.28046">
        <ele>1879</ele>
        <time>2010-01-01T03:10:29Z</time>
      </trkpt>
      <trkpt lat="42.29475" lon="2.2804">
        <ele>1879</ele>
        <time>2010-01-01T03:10:31Z</time>
      </trkpt>
      <trkpt lat="42.29474" lon="2.28034">
        <ele>1879</ele>
        <time>2010-01-01T03:10:33Z</time>
      </trkpt>
      <trkpt lat="42.29473" lon="2.28027">
        <ele>1880</ele>
        <time>2010-01-01T03:10:35Z</time>
      </trkpt>
      <trkpt lat="42.29471" lon="2.28019">
        <ele>1880</ele>
        <time>2010-01-01T03:10:37Z</time>
      </trkpt>
      <trkpt lat="42.2947" lon="2.28013">
        <ele>1881</ele>
        <time>2010-01-01T03:10:39Z</time>
      </trkpt>
      <trkpt lat="42.2947" lon="2.28008">
        <ele>1881</ele>
        <time>2010-01-01T03:10:40Z</time>
      </trkpt>
      <trkpt lat="42.29469" lon="2.28005">
        <ele>1881</ele>
        <time>2010-01-01T03:10:41Z</time>
      </trkpt>
      <trkpt lat="42.29469" lon="2.28002">
        <ele>1882</ele>
        <time>2010-01-01T03:10:42Z</time>
      </trkpt>
      <trkpt lat="42.29468" lon="2.28">
        <ele>1882</ele>
        <time>2010-01-01T03:10:43Z</time>
      </trkpt>
      <trkpt lat="42.29468" lon="2.27997">
        <ele>1882</ele>
        <time>2010-01-01T03:10:44Z</time>
      </trkpt>
      <trkpt lat="42.29468" lon="2.27994">
        <ele>1882</ele>
        <time>2010-01-01T03:10:45Z</time>
      </trkpt>
      <trkpt lat="42.29467" lon="2.27991">
        <ele>1883</ele>
        <time>2010-01-01T03:10:46Z</time>
      </trkpt>
      <trkpt lat="42.29467" lon="2.27989">
        <ele>1883</ele>
        <time>2010-01-01T03:10:46Z</time>
      </trkpt>
      <trkpt lat="42.29466" lon="2.27986">
        <ele>1884</ele>
        <time>2010-01-01T03:10:47Z</time>
      </trkpt>
      <trkpt lat="42.29464" lon="2.27983">
        <ele>1884</ele>
        <time>2010-01-01T03:10:48Z</time>
      </trkpt>
      <trkpt lat="42.29463" lon="2.27981">
        <ele>1884</ele>
        <time>2010-01-01T03:10:49Z</time>
      </trkpt>
      <trkpt lat="42.29462" lon="2.27978">
        <ele>1885</ele>
        <time>2010-01-01T03:10:50Z</time>
      </trkpt>
      <trkpt lat="42.29461" lon="2.27976">
        <ele>1885</ele>
        <time>2010-01-01T03:10:51Z</time>
      </trkpt>
      <trkpt lat="42.29461" lon="2.27974">
        <ele>1886</ele>
        <time>2010-01-01T03:10:52Z</time>
      </trkpt>
      <trkpt lat="42.2946" lon="2.2797">
        <ele>1886</ele>
        <time>2010-01-01T03:10:53Z</time>
      </trkpt>
      <trkpt lat="42.29459" lon="2.27967">
        <ele>1886</ele>
        <time>2010-01-01T03:10:54Z</time>
      </trkpt>
      <trkpt lat="42.29459" lon="2.27964">
        <ele>1887</ele>
        <time>2010-01-01T03:10:55Z</time>
      </trkpt>
      <trkpt lat="42.29459" lon="2.27961">
        <ele>1887</ele>
        <time>2010-01-01T03:10:55Z</time>
      </trkpt>
      <trkpt lat="42.29458" lon="2.27958">
        <ele>1887</ele>
        <time>2010-01-01T03:10:56Z</time>
      </trkpt>
      <trkpt lat="42.29457" lon="2.27956">
        <ele>1888</ele>
        <time>2010-01-01T03:10:57Z</time>
      </trkpt>
      <trkpt lat="42.29456" lon="2.27953">
        <ele>1888</ele>
        <time>2010-01-01T03:10:58Z</time>
      </trkpt>
      <trkpt lat="42.29455" lon="2.27951">
        <ele>1888</ele>
        <time>2010-01-01T03:10:59Z</time>
      </trkpt>
      <trkpt lat="42.29454" lon="2.27948">
        <ele>1889</ele>
        <time>2010-01-01T03:11:00Z</time>
      </trkpt>
      <trkpt lat="42.29453" lon="2.27945">
        <ele>1889</ele>
        <time>2010-01-01T03:11:01Z</time>
      </trkpt>
      <trkpt lat="42.29452" lon="2.27942">
        <ele>1889</ele>
        <time>2010-01-01T03:11:02Z</time>
      </trkpt>
      <trkpt lat="42.29452" lon="2.27939">
        <ele>1890</ele>
        <time>2010-01-01T03:11:03Z</time>
      </trkpt>
      <trkpt lat="42.2945" lon="2.27935">
        <ele>1890</ele>
        <time>2010-01-01T03:11:04Z</time>
      </trkpt>
      <trkpt lat="42.2945" lon="2.27933">
        <ele>1891</ele>
        <time>2010-01-01T03:11:05Z</time>
      </trkpt>
      <trkpt lat="42.29449" lon="2.2793">
        <ele>1891</ele>
        <time>2010-01-01T03:11:06Z</time>
      </trkpt>
      <trkpt lat="42.29448" lon="2.27926">
        <ele>1891</ele>
        <time>2010-01-01T03:11:07Z</time>
      </trkpt>
      <trkpt lat="42.29447" lon="2.27923">
        <ele>1892</ele>
        <time>2010-01-01T03:11:08Z</time>
      </trkpt>
      <trkpt lat="42.29447" lon="2.2792">
        <ele>1892</ele>
        <time>2010-01-01T03:11:09Z</time>
      </trkpt>
      <trkpt lat="42.29446" lon="2.27917">
        <ele>1893</ele>
        <time>2010-01-01T03:11:10Z</time>
      </trkpt>
      <trkpt lat="42.29445" lon="2.27914">
        <ele>1893</ele>
        <time>2010-01-01T03:11:11Z</time>
      </trkpt>
      <trkpt lat="42.29444" lon="2.2791">
        <ele>1893</ele>
        <time>2010-01-01T03:11:12Z</time>
      </trkpt>
      <trkpt lat="42.29443" lon="2.27907">
        <ele>1893</ele>
        <time>2010-01-01T03:11:13Z</time>
      </trkpt>
      <trkpt lat="42.29442" lon="2.27903">
        <ele>1893</ele>
        <time>2010-01-01T03:11:14Z</time>
      </trkpt>
      <trkpt lat="42.29441" lon="2.27899">
        <ele>1894</ele>
        <time>2010-01-01T03:11:15Z</time>
      </trkpt>
      <trkpt lat="42.29441" lon="2.27896">
        <ele>1894</ele>
        <time>2010-01-01T03:11:16Z</time>
      </trkpt>
      <trkpt lat="42.2944" lon="2.27892">
        <ele>1894</ele>
        <time>2010-01-01T03:11:17Z</time>
      </trkpt>
      <trkpt lat="42.29438" lon="2.27888">
        <ele>1894</ele>
        <time>2010-01-01T03:11:19Z</time>
      </trkpt>
      <trkpt lat="42.29437" lon="2.27884">
        <ele>1894</ele>
        <time>2010-01-01T03:11:20Z</time>
      </trkpt>
      <trkpt lat="42.29435" lon="2.27878">
        <ele>1894</ele>
        <time>2010-01-01T03:11:22Z</time>
      </trkpt>
      <trkpt lat="42.29434" lon="2.27873">
        <ele>1894</ele>
        <time>2010-01-01T03:11:23Z</time>
      </trkpt>
      <trkpt lat="42.29433" lon="2.27866">
        <ele>1894</ele>
        <time>2010-01-01T03:11:26Z</time>
      </trkpt>
      <trkpt lat="42.29433" lon="2.27861">
        <ele>1894</ele>
        <time>2010-01-01T03:11:27Z</time>
      </trkpt>
      <trkpt lat="42.29431" lon="2.27857">
        <ele>1893</ele>
        <time>2010-01-01T03:11:28Z</time>
      </trkpt>
      <trkpt lat="42.2943" lon="2.27852">
        <ele>1893</ele>
        <time>2010-01-01T03:11:30Z</time>
      </trkpt>
      <trkpt lat="42.29429" lon="2.27848">
        <ele>1893</ele>
        <time>2010-01-01T03:11:31Z</time>
      </trkpt>
      <trkpt lat="42.29428" lon="2.27843">
        <ele>1893</ele>
        <time>2010-01-01T03:11:33Z</time>
      </trkpt>
      <trkpt lat="42.29427" lon="2.27835">
        <ele>1892</ele>
        <time>2010-01-01T03:11:35Z</time>
      </trkpt>
      <trkpt lat="42.29426" lon="2.27831">
        <ele>1892</ele>
        <time>2010-01-01T03:11:36Z</time>
      </trkpt>
      <trkpt lat="42.29426" lon="2.27826">
        <ele>1892</ele>
        <time>2010-01-01T03:11:38Z</time>
      </trkpt>
      <trkpt lat="42.29426" lon="2.27822">
        <ele>1892</ele>
        <time>2010-01-01T03:11:39Z</time>
      </trkpt>
      <trkpt lat="42.29425" lon="2.27817">
        <ele>1892</ele>
        <time>2010-01-01T03:11:40Z</time>
      </trkpt>
      <trkpt lat="42.29424" lon="2.27812">
        <ele>1891</ele>
        <time>2010-01-01T03:11:42Z</time>
      </trkpt>
      <trkpt lat="42.29423" lon="2.27806">
        <ele>1891</ele>
        <time>2010-01-01T03:11:44Z</time>
      </trkpt>
      <trkpt lat="42.29422" lon="2.27801">
        <ele>1891</ele>
        <time>2010-01-01T03:11:45Z</time>
      </trkpt>
      <trkpt lat="42.29421" lon="2.27795">
        <ele>1891</ele>
        <time>2010-01-01T03:11:47Z</time>
      </trkpt>
      <trkpt lat="42.2942" lon="2.27789">
        <ele>1891</ele>
        <time>2010-01-01T03:11:49Z</time>
      </trkpt>
      <trkpt lat="42.29419" lon="2.27782">
        <ele>1891</ele>
        <time>2010-01-01T03:11:51Z</time>
      </trkpt>
      <trkpt lat="42.29417" lon="2.27776">
        <ele>1890</ele>
        <time>2010-01-01T03:11:53Z</time>
      </trkpt>
      <trkpt lat="42.29416" lon="2.27769">
        <ele>1889</ele>
        <time>2010-01-01T03:11:55Z</time>
      </trkpt>
      <trkpt lat="42.29414" lon="2.27763">
        <ele>1889</ele>
        <time>2010-01-01T03:11:57Z</time>
      </trkpt>
      <trkpt lat="42.29412" lon="2.27755">
        <ele>1888</ele>
        <time>2010-01-01T03:12:00Z</time>
      </trkpt>
      <trkpt lat="42.2941" lon="2.27749">
        <ele>1887</ele>
        <time>2010-01-01T03:12:02Z</time>
      </trkpt>
      <trkpt lat="42.29408" lon="2.27742">
        <ele>1886</ele>
        <time>2010-01-01T03:12:04Z</time>
      </trkpt>
      <trkpt lat="42.29405" lon="2.27735">
        <ele>1885</ele>
        <time>2010-01-01T03:12:06Z</time>
      </trkpt>
      <trkpt lat="42.29403" lon="2.27729">
        <ele>1883</ele>
        <time>2010-01-01T03:12:08Z</time>
      </trkpt>
      <trkpt lat="42.29401" lon="2.27722">
        <ele>1882</ele>
        <time>2010-01-01T03:12:10Z</time>
      </trkpt>
      <trkpt lat="42.294" lon="2.27714">
        <ele>1881</ele>
        <time>2010-01-01T03:12:13Z</time>
      </trkpt>
      <trkpt lat="42.29398" lon="2.27708">
        <ele>1880</ele>
        <time>2010-01-01T03:12:15Z</time>
      </trkpt>
      <trkpt lat="42.29397" lon="2.27701">
        <ele>1879</ele>
        <time>2010-01-01T03:12:17Z</time>
      </trkpt>
      <trkpt lat="42.29395" lon="2.27694">
        <ele>1878</ele>
        <time>2010-01-01T03:12:19Z</time>
      </trkpt>
      <trkpt lat="42.29393" lon="2.27688">
        <ele>1877</ele>
        <time>2010-01-01T03:12:21Z</time>
      </trkpt>
      <trkpt lat="42.29391" lon="2.27681">
        <ele>1876</ele>
        <time>2010-01-01T03:12:23Z</time>
      </trkpt>
      <trkpt lat="42.29389" lon="2.27675">
        <ele>1875</ele>
        <time>2010-01-01T03:12:25Z</time>
      </trkpt>
      <trkpt lat="42.29387" lon="2.27668">
        <ele>1873</ele>
        <time>2010-01-01T03:12:27Z</time>
      </trkpt>
      <trkpt lat="42.29384" lon="2.27663">
        <ele>1872</ele>
        <time>2010-01-01T03:12:29Z</time>
      </trkpt>
      <trkpt lat="42.29382" lon="2.27658">
        <ele>1871</ele>
        <time>2010-01-01T03:12:31Z</time>
      </trkpt>
      <trkpt lat="42.29379" lon="2.27652">
        <ele>1870</ele>
        <time>2010-01-01T03:12:33Z</time>
      </trkpt>
      <trkpt lat="42.29377" lon="2.27645">
        <ele>1869</ele>
        <time>2010-01-01T03:12:35Z</time>
      </trkpt>
      <trkpt lat="42.29374" lon="2.27639">
        <ele>1867</ele>
        <time>2010-01-01T03:12:37Z</time>
      </trkpt>
      <trkpt lat="42.29371" lon="2.27633">
        <ele>1866</ele>
        <time>2010-01-01T03:12:39Z</time>
      </trkpt>
      <trkpt lat="42.29369" lon="2.27627">
        <ele>1864</ele>
        <time>2010-01-01T03:12:41Z</time>
      </trkpt>
      <trkpt lat="42.29366" lon="2.2762">
        <ele>1863</ele>
        <time>2010-01-01T03:12:44Z</time>
      </trkpt>
      <trkpt lat="42.29364" lon="2.27615">
        <ele>1863</ele>
        <time>2010-01-01T03:12:45Z</time>
      </trkpt>
      <trkpt lat="42.29362" lon="2.27609">
        <ele>1862</ele>
        <time>2010-01-01T03:12:47Z</time>
      </trkpt>
      <trkpt lat="42.2936" lon="2.27604">
        <ele>1861</ele>
        <time>2010-01-01T03:12:49Z</time>
      </trkpt>
      <trkpt lat="42.29357" lon="2.27598">
        <ele>1860</ele>
        <time>2010-01-01T03:12:51Z</time>
      </trkpt>
      <trkpt lat="42.29354" lon="2.27592">
        <ele>1859</ele>
        <time>2010-01-01T03:12:53Z</time>
      </trkpt>
      <trkpt lat="42.29352" lon="2.27587">
        <ele>1858</ele>
        <time>2010-01-01T03:12:55Z</time>
      </trkpt>
      <trkpt lat="42.29348" lon="2.27582">
        <ele>1857</ele>
        <time>2010-01-01T03:12:57Z</time>
      </trkpt>
      <trkpt lat="42.29347" lon="2.27577">
        <ele>1857</ele>
        <time>2010-01-01T03:12:59Z</time>
      </trkpt>
      <trkpt lat="42.29344" lon="2.27573">
        <ele>1857</ele>
        <time>2010-01-01T03:13:00Z</time>
      </trkpt>
      <trkpt lat="42.29341" lon="2.27569">
        <ele>1856</ele>
        <time>2010-01-01T03:13:02Z</time>
      </trkpt>
      <trkpt lat="42.29337" lon="2.27565">
        <ele>1856</ele>
        <time>2010-01-01T03:13:04Z</time>
      </trkpt>
      <trkpt lat="42.29334" lon="2.2756">
        <ele>1856</ele>
        <time>2010-01-01T03:13:06Z</time>
      </trkpt>
      <trkpt lat="42.2933" lon="2.27557">
        <ele>1855</ele>
        <time>2010-01-01T03:13:08Z</time>
      </trkpt>
      <trkpt lat="42.29327" lon="2.27553">
        <ele>1854</ele>
        <time>2010-01-01T03:13:09Z</time>
      </trkpt>
      <trkpt lat="42.29323" lon="2.27551">
        <ele>1853</ele>
        <time>2010-01-01T03:13:11Z</time>
      </trkpt>
      <trkpt lat="42.29319" lon="2.27549">
        <ele>1852</ele>
        <time>2010-01-01T03:13:13Z</time>
      </trkpt>
      <trkpt lat="42.29317" lon="2.27545">
        <ele>1851</ele>
        <time>2010-01-01T03:13:14Z</time>
      </trkpt>
      <trkpt lat="42.29313" lon="2.27542">
        <ele>1850</ele>
        <time>2010-01-01T03:13:16Z</time>
      </trkpt>
      <trkpt lat="42.2931" lon="2.27538">
        <ele>1849</ele>
        <time>2010-01-01T03:13:17Z</time>
      </trkpt>
      <trkpt lat="42.29307" lon="2.27535">
        <ele>1848</ele>
        <time>2010-01-01T03:13:19Z</time>
      </trkpt>
      <trkpt lat="42.29303" lon="2.27532">
        <ele>1847</ele>
        <time>2010-01-01T03:13:21Z</time>
      </trkpt>
      <trkpt lat="42.29299" lon="2.27528">
        <ele>1845</ele>
        <time>2010-01-01T03:13:23Z</time>
      </trkpt>
      <trkpt lat="42.29295" lon="2.27525">
        <ele>1844</ele>
        <time>2010-01-01T03:13:25Z</time>
      </trkpt>
      <trkpt lat="42.29292" lon="2.27521">
        <ele>1842</ele>
        <time>2010-01-01T03:13:26Z</time>
      </trkpt>
      <trkpt lat="42.29288" lon="2.27517">
        <ele>1841</ele>
        <time>2010-01-01T03:13:28Z</time>
      </trkpt>
      <trkpt lat="42.29284" lon="2.27513">
        <ele>1839</ele>
        <time>2010-01-01T03:13:30Z</time>
      </trkpt>
      <trkpt lat="42.2928" lon="2.27509">
        <ele>1838</ele>
        <time>2010-01-01T03:13:32Z</time>
      </trkpt>
      <trkpt lat="42.29276" lon="2.27506">
        <ele>1836</ele>
        <time>2010-01-01T03:13:34Z</time>
      </trkpt>
      <trkpt lat="42.29272" lon="2.27502">
        <ele>1834</ele>
        <time>2010-01-01T03:13:36Z</time>
      </trkpt>
      <trkpt lat="42.29268" lon="2.27498">
        <ele>1832</ele>
        <time>2010-01-01T03:13:38Z</time>
      </trkpt>
      <trkpt lat="42.29265" lon="2.27493">
        <ele>1830</ele>
        <time>2010-01-01T03:13:40Z</time>
      </trkpt>
      <trkpt lat="42.2926" lon="2.27488">
        <ele>1827</ele>
        <time>2010-01-01T03:13:42Z</time>
      </trkpt>
      <trkpt lat="42.29256" lon="2.27485">
        <ele>1825</ele>
        <time>2010-01-01T03:13:44Z</time>
      </trkpt>
      <trkpt lat="42.29252" lon="2.27481">
        <ele>1823</ele>
        <time>2010-01-01T03:13:46Z</time>
      </trkpt>
      <trkpt lat="42.29249" lon="2.27478">
        <ele>1821</ele>
        <time>2010-01-01T03:13:48Z</time>
      </trkpt>
      <trkpt lat="42.29246" lon="2.27475">
        <ele>1820</ele>
        <time>2010-01-01T03:13:49Z</time>
      </trkpt>
      <trkpt lat="42.29242" lon="2.27472">
        <ele>1818</ele>
        <time>2010-01-01T03:13:51Z</time>
      </trkpt>
      <trkpt lat="42.29238" lon="2.27469">
        <ele>1817</ele>
        <time>2010-01-01T03:13:53Z</time>
      </trkpt>
      <trkpt lat="42.29235" lon="2.27465">
        <ele>1815</ele>
        <time>2010-01-01T03:13:55Z</time>
      </trkpt>
      <trkpt lat="42.29231" lon="2.27461">
        <ele>1813</ele>
        <time>2010-01-01T03:13:57Z</time>
      </trkpt>
      <trkpt lat="42.29227" lon="2.27457">
        <ele>1811</ele>
        <time>2010-01-01T03:13:59Z</time>
      </trkpt>
      <trkpt lat="42.29223" lon="2.27453">
        <ele>1810</ele>
        <time>2010-01-01T03:14:01Z</time>
      </trkpt>
      <trkpt lat="42.2922" lon="2.27449">
        <ele>1809</ele>
        <time>2010-01-01T03:14:02Z</time>
      </trkpt>
      <trkpt lat="42.29217" lon="2.27445">
        <ele>1807</ele>
        <time>2010-01-01T03:14:04Z</time>
      </trkpt>
      <trkpt lat="42.29214" lon="2.27442">
        <ele>1806</ele>
        <time>2010-01-01T03:14:06Z</time>
      </trkpt>
      <trkpt lat="42.2921" lon="2.27439">
        <ele>1805</ele>
        <time>2010-01-01T03:14:07Z</time>
      </trkpt>
      <trkpt lat="42.29207" lon="2.27437">
        <ele>1804</ele>
        <time>2010-01-01T03:14:09Z</time>
      </trkpt>
      <trkpt lat="42.29204" lon="2.27434">
        <ele>1803</ele>
        <time>2010-01-01T03:14:10Z</time>
      </trkpt>
      <trkpt lat="42.29201" lon="2.2743">
        <ele>1802</ele>
        <time>2010-01-01T03:14:12Z</time>
      </trkpt>
      <trkpt lat="42.29197" lon="2.27427">
        <ele>1801</ele>
        <time>2010-01-01T03:14:14Z</time>
      </trkpt>
      <trkpt lat="42.29194" lon="2.27423">
        <ele>1800</ele>
        <time>2010-01-01T03:14:15Z</time>
      </trkpt>
      <trkpt lat="42.2919" lon="2.2742">
        <ele>1799</ele>
        <time>2010-01-01T03:14:17Z</time>
      </trkpt>
      <trkpt lat="42.29187" lon="2.27417">
        <ele>1797</ele>
        <time>2010-01-01T03:14:19Z</time>
      </trkpt>
      <trkpt lat="42.29184" lon="2.27413">
        <ele>1796</ele>
        <time>2010-01-01T03:14:20Z</time>
      </trkpt>
      <trkpt lat="42.29181" lon="2.27408">
        <ele>1794</ele>
        <time>2010-01-01T03:14:22Z</time>
      </trkpt>
      <trkpt lat="42.2918" lon="2.27404">
        <ele>1792</ele>
        <time>2010-01-01T03:14:23Z</time>
      </trkpt>
      <trkpt lat="42.29177" lon="2.274">
        <ele>1791</ele>
        <time>2010-01-01T03:14:25Z</time>
      </trkpt>
      <trkpt lat="42.29174" lon="2.27396">
        <ele>1789</ele>
        <time>2010-01-01T03:14:27Z</time>
      </trkpt>
      <trkpt lat="42.2917" lon="2.27394">
        <ele>1787</ele>
        <time>2010-01-01T03:14:28Z</time>
      </trkpt>
      <trkpt lat="42.29167" lon="2.27391">
        <ele>1785</ele>
        <time>2010-01-01T03:14:30Z</time>
      </trkpt>
      <trkpt lat="42.29164" lon="2.27387">
        <ele>1783</ele>
        <time>2010-01-01T03:14:32Z</time>
      </trkpt>
      <trkpt lat="42.29161" lon="2.27384">
        <ele>1782</ele>
        <time>2010-01-01T03:14:33Z</time>
      </trkpt>
      <trkpt lat="42.29158" lon="2.27382">
        <ele>1781</ele>
        <time>2010-01-01T03:14:34Z</time>
      </trkpt>
      <trkpt lat="42.29154" lon="2.27377">
        <ele>1779</ele>
        <time>2010-01-01T03:14:36Z</time>
      </trkpt>
      <trkpt lat="42.29151" lon="2.27375">
        <ele>1778</ele>
        <time>2010-01-01T03:14:38Z</time>
      </trkpt>
      <trkpt lat="42.2915" lon="2.27372">
        <ele>1778</ele>
        <time>2010-01-01T03:14:39Z</time>
      </trkpt>
      <trkpt lat="42.29149" lon="2.27369">
        <ele>1777</ele>
        <time>2010-01-01T03:14:40Z</time>
      </trkpt>
      <trkpt lat="42.29148" lon="2.27367">
        <ele>1777</ele>
        <time>2010-01-01T03:14:41Z</time>
      </trkpt>
      <trkpt lat="42.29145" lon="2.27365">
        <ele>1776</ele>
        <time>2010-01-01T03:14:42Z</time>
      </trkpt>
      <trkpt lat="42.29144" lon="2.27361">
        <ele>1776</ele>
        <time>2010-01-01T03:14:43Z</time>
      </trkpt>
      <trkpt lat="42.29141" lon="2.27358">
        <ele>1775</ele>
        <time>2010-01-01T03:14:44Z</time>
      </trkpt>
      <trkpt lat="42.29138" lon="2.27355">
        <ele>1774</ele>
        <time>2010-01-01T03:14:46Z</time>
      </trkpt>
      <trkpt lat="42.29134" lon="2.27354">
        <ele>1774</ele>
        <time>2010-01-01T03:14:48Z</time>
      </trkpt>
      <trkpt lat="42.29129" lon="2.27354">
        <ele>1774</ele>
        <time>2010-01-01T03:14:50Z</time>
      </trkpt>
      <trkpt lat="42.29126" lon="2.27354">
        <ele>1774</ele>
        <time>2010-01-01T03:14:51Z</time>
      </trkpt>
      <trkpt lat="42.29124" lon="2.27354">
        <ele>1774</ele>
        <time>2010-01-01T03:14:52Z</time>
      </trkpt>
      <trkpt lat="42.29121" lon="2.27353">
        <ele>1774</ele>
        <time>2010-01-01T03:14:53Z</time>
      </trkpt>
      <trkpt lat="42.29119" lon="2.27353">
        <ele>1774</ele>
        <time>2010-01-01T03:14:54Z</time>
      </trkpt>
      <trkpt lat="42.29118" lon="2.2735">
        <ele>1774</ele>
        <time>2010-01-01T03:14:55Z</time>
      </trkpt>
      <trkpt lat="42.29118" lon="2.27348">
        <ele>1774</ele>
        <time>2010-01-01T03:14:55Z</time>
      </trkpt>
      <trkpt lat="42.29116" lon="2.27349">
        <ele>1774</ele>
        <time>2010-01-01T03:14:56Z</time>
      </trkpt>
      <trkpt lat="42.29114" lon="2.2735">
        <ele>1774</ele>
        <time>2010-01-01T03:14:57Z</time>
      </trkpt>
      <trkpt lat="42.29111" lon="2.27351">
        <ele>1774</ele>
        <time>2010-01-01T03:14:58Z</time>
      </trkpt>
      <trkpt lat="42.29109" lon="2.27351">
        <ele>1774</ele>
        <time>2010-01-01T03:14:59Z</time>
      </trkpt>
      <trkpt lat="42.29106" lon="2.27352">
        <ele>1774</ele>
        <time>2010-01-01T03:15:00Z</time>
      </trkpt>
      <trkpt lat="42.29103" lon="2.27352">
        <ele>1774</ele>
        <time>2010-01-01T03:15:01Z</time>
      </trkpt>
      <trkpt lat="42.29101" lon="2.27352">
        <ele>1775</ele>
        <time>2010-01-01T03:15:02Z</time>
      </trkpt>
      <trkpt lat="42.29098" lon="2.2735">
        <ele>1775</ele>
        <time>2010-01-01T03:15:04Z</time>
      </trkpt>
      <trkpt lat="42.29094" lon="2.27349">
        <ele>1776</ele>
        <time>2010-01-01T03:15:05Z</time>
      </trkpt>
      <trkpt lat="42.29089" lon="2.27347">
        <ele>1777</ele>
        <time>2010-01-01T03:15:07Z</time>
      </trkpt>
      <trkpt lat="42.29088" lon="2.27345">
        <ele>1777</ele>
        <time>2010-01-01T03:15:08Z</time>
      </trkpt>
      <trkpt lat="42.29087" lon="2.27343">
        <ele>1778</ele>
        <time>2010-01-01T03:15:09Z</time>
      </trkpt>
      <trkpt lat="42.29085" lon="2.27341">
        <ele>1779</ele>
        <time>2010-01-01T03:15:10Z</time>
      </trkpt>
      <trkpt lat="42.29083" lon="2.2734">
        <ele>1779</ele>
        <time>2010-01-01T03:15:11Z</time>
      </trkpt>
      <trkpt lat="42.29081" lon="2.27339">
        <ele>1780</ele>
        <time>2010-01-01T03:15:12Z</time>
      </trkpt>
      <trkpt lat="42.29079" lon="2.27339">
        <ele>1780</ele>
        <time>2010-01-01T03:15:12Z</time>
      </trkpt>
      <trkpt lat="42.29077" lon="2.27337">
        <ele>1781</ele>
        <time>2010-01-01T03:15:13Z</time>
      </trkpt>
      <trkpt lat="42.29075" lon="2.27336">
        <ele>1781</ele>
        <time>2010-01-01T03:15:14Z</time>
      </trkpt>
      <trkpt lat="42.29073" lon="2.27335">
        <ele>1782</ele>
        <time>2010-01-01T03:15:15Z</time>
      </trkpt>
      <trkpt lat="42.29071" lon="2.27334">
        <ele>1782</ele>
        <time>2010-01-01T03:15:16Z</time>
      </trkpt>
      <trkpt lat="42.29069" lon="2.27332">
        <ele>1783</ele>
        <time>2010-01-01T03:15:17Z</time>
      </trkpt>
      <trkpt lat="42.29067" lon="2.27331">
        <ele>1783</ele>
        <time>2010-01-01T03:15:17Z</time>
      </trkpt>
      <trkpt lat="42.29066" lon="2.2733">
        <ele>1784</ele>
        <time>2010-01-01T03:15:18Z</time>
      </trkpt>
      <trkpt lat="42.29064" lon="2.27329">
        <ele>1784</ele>
        <time>2010-01-01T03:15:19Z</time>
      </trkpt>
      <trkpt lat="42.29062" lon="2.27328">
        <ele>1785</ele>
        <time>2010-01-01T03:15:20Z</time>
      </trkpt>
      <trkpt lat="42.2906" lon="2.27327">
        <ele>1785</ele>
        <time>2010-01-01T03:15:21Z</time>
      </trkpt>
      <trkpt lat="42.29058" lon="2.27325">
        <ele>1786</ele>
        <time>2010-01-01T03:15:22Z</time>
      </trkpt>
      <trkpt lat="42.29056" lon="2.27324">
        <ele>1786</ele>
        <time>2010-01-01T03:15:22Z</time>
      </trkpt>
      <trkpt lat="42.29054" lon="2.27323">
        <ele>1787</ele>
        <time>2010-01-01T03:15:23Z</time>
      </trkpt>
      <trkpt lat="42.29052" lon="2.27321">
        <ele>1788</ele>
        <time>2010-01-01T03:15:24Z</time>
      </trkpt>
      <trkpt lat="42.29051" lon="2.2732">
        <ele>1788</ele>
        <time>2010-01-01T03:15:25Z</time>
      </trkpt>
      <trkpt lat="42.29049" lon="2.27318">
        <ele>1789</ele>
        <time>2010-01-01T03:15:26Z</time>
      </trkpt>
      <trkpt lat="42.29047" lon="2.27317">
        <ele>1790</ele>
        <time>2010-01-01T03:15:27Z</time>
      </trkpt>
      <trkpt lat="42.29046" lon="2.27315">
        <ele>1791</ele>
        <time>2010-01-01T03:15:27Z</time>
      </trkpt>
      <trkpt lat="42.29044" lon="2.27313">
        <ele>1792</ele>
        <time>2010-01-01T03:15:28Z</time>
      </trkpt>
      <trkpt lat="42.29042" lon="2.27312">
        <ele>1793</ele>
        <time>2010-01-01T03:15:29Z</time>
      </trkpt>
      <trkpt lat="42.2904" lon="2.27311">
        <ele>1793</ele>
        <time>2010-01-01T03:15:30Z</time>
      </trkpt>
      <trkpt lat="42.29038" lon="2.2731">
        <ele>1794</ele>
        <time>2010-01-01T03:15:31Z</time>
      </trkpt>
      <trkpt lat="42.29036" lon="2.27309">
        <ele>1795</ele>
        <time>2010-01-01T03:15:32Z</time>
      </trkpt>
      <trkpt lat="42.29035" lon="2.27307">
        <ele>1796</ele>
        <time>2010-01-01T03:15:32Z</time>
      </trkpt>
      <trkpt lat="42.29033" lon="2.27306">
        <ele>1797</ele>
        <time>2010-01-01T03:15:33Z</time>
      </trkpt>
      <trkpt lat="42.29031" lon="2.27305">
        <ele>1798</ele>
        <time>2010-01-01T03:15:34Z</time>
      </trkpt>
      <trkpt lat="42.29029" lon="2.27303">
        <ele>1799</ele>
        <time>2010-01-01T03:15:35Z</time>
      </trkpt>
      <trkpt lat="42.29027" lon="2.27302">
        <ele>1799</ele>
        <time>2010-01-01T03:15:36Z</time>
      </trkpt>
      <trkpt lat="42.29026" lon="2.273">
        <ele>1800</ele>
        <time>2010-01-01T03:15:37Z</time>
      </trkpt>
      <trkpt lat="42.29024" lon="2.27298">
        <ele>1801</ele>
        <time>2010-01-01T03:15:37Z</time>
      </trkpt>
      <trkpt lat="42.29023" lon="2.27296">
        <ele>1802</ele>
        <time>2010-01-01T03:15:38Z</time>
      </trkpt>
      <trkpt lat="42.29021" lon="2.27294">
        <ele>1803</ele>
        <time>2010-01-01T03:15:39Z</time>
      </trkpt>
      <trkpt lat="42.29019" lon="2.27291">
        <ele>1804</ele>
        <time>2010-01-01T03:15:40Z</time>
      </trkpt>
      <trkpt lat="42.29017" lon="2.2729">
        <ele>1804</ele>
        <time>2010-01-01T03:15:41Z</time>
      </trkpt>
      <trkpt lat="42.29016" lon="2.27288">
        <ele>1805</ele>
        <time>2010-01-01T03:15:42Z</time>
      </trkpt>
      <trkpt lat="42.29014" lon="2.27286">
        <ele>1806</ele>
        <time>2010-01-01T03:15:43Z</time>
      </trkpt>
      <trkpt lat="42.29013" lon="2.27284">
        <ele>1807</ele>
        <time>2010-01-01T03:15:44Z</time>
      </trkpt>
      <trkpt lat="42.29011" lon="2.27282">
        <ele>1808</ele>
        <time>2010-01-01T03:15:45Z</time>
      </trkpt>
      <trkpt lat="42.29009" lon="2.2728">
        <ele>1809</ele>
        <time>2010-01-01T03:15:46Z</time>
      </trkpt>
      <trkpt lat="42.29008" lon="2.27278">
        <ele>1809</ele>
        <time>2010-01-01T03:15:46Z</time>
      </trkpt>
      <trkpt lat="42.29007" lon="2.27275">
        <ele>1809</ele>
        <time>2010-01-01T03:15:47Z</time>
      </trkpt>
      <trkpt lat="42.29006" lon="2.27274">
        <ele>1810</ele>
        <time>2010-01-01T03:15:48Z</time>
      </trkpt>
      <trkpt lat="42.29004" lon="2.27272">
        <ele>1810</ele>
        <time>2010-01-01T03:15:49Z</time>
      </trkpt>
      <trkpt lat="42.29003" lon="2.2727">
        <ele>1811</ele>
        <time>2010-01-01T03:15:50Z</time>
      </trkpt>
      <trkpt lat="42.29001" lon="2.27268">
        <ele>1811</ele>
        <time>2010-01-01T03:15:50Z</time>
      </trkpt>
      <trkpt lat="42.29" lon="2.27266">
        <ele>1811</ele>
        <time>2010-01-01T03:15:51Z</time>
      </trkpt>
      <trkpt lat="42.28998" lon="2.27264">
        <ele>1811</ele>
        <time>2010-01-01T03:15:52Z</time>
      </trkpt>
      <trkpt lat="42.28997" lon="2.27262">
        <ele>1811</ele>
        <time>2010-01-01T03:15:53Z</time>
      </trkpt>
      <trkpt lat="42.28996" lon="2.2726">
        <ele>1811</ele>
        <time>2010-01-01T03:15:54Z</time>
      </trkpt>
      <trkpt lat="42.28994" lon="2.27258">
        <ele>1811</ele>
        <time>2010-01-01T03:15:54Z</time>
      </trkpt>
      <trkpt lat="42.28993" lon="2.27255">
        <ele>1811</ele>
        <time>2010-01-01T03:15:55Z</time>
      </trkpt>
      <trkpt lat="42.28991" lon="2.27253">
        <ele>1811</ele>
        <time>2010-01-01T03:15:56Z</time>
      </trkpt>
      <trkpt lat="42.2899" lon="2.2725">
        <ele>1812</ele>
        <time>2010-01-01T03:15:57Z</time>
      </trkpt>
      <trkpt lat="42.28988" lon="2.27247">
        <ele>1812</ele>
        <time>2010-01-01T03:15:58Z</time>
      </trkpt>
      <trkpt lat="42.28986" lon="2.27245">
        <ele>1812</ele>
        <time>2010-01-01T03:15:59Z</time>
      </trkpt>
      <trkpt lat="42.28985" lon="2.27243">
        <ele>1812</ele>
        <time>2010-01-01T03:16:00Z</time>
      </trkpt>
      <trkpt lat="42.28983" lon="2.27242">
        <ele>1812</ele>
        <time>2010-01-01T03:16:01Z</time>
      </trkpt>
      <trkpt lat="42.28981" lon="2.27239">
        <ele>1812</ele>
        <time>2010-01-01T03:16:02Z</time>
      </trkpt>
      <trkpt lat="42.28979" lon="2.27237">
        <ele>1813</ele>
        <time>2010-01-01T03:16:03Z</time>
      </trkpt>
      <trkpt lat="42.28977" lon="2.27235">
        <ele>1813</ele>
        <time>2010-01-01T03:16:04Z</time>
      </trkpt>
      <trkpt lat="42.28976" lon="2.27232">
        <ele>1813</ele>
        <time>2010-01-01T03:16:05Z</time>
      </trkpt>
      <trkpt lat="42.28974" lon="2.27229">
        <ele>1813</ele>
        <time>2010-01-01T03:16:06Z</time>
      </trkpt>
      <trkpt lat="42.28973" lon="2.27226">
        <ele>1813</ele>
        <time>2010-01-01T03:16:07Z</time>
      </trkpt>
      <trkpt lat="42.28972" lon="2.27224">
        <ele>1814</ele>
        <time>2010-01-01T03:16:08Z</time>
      </trkpt>
      <trkpt lat="42.2897" lon="2.27221">
        <ele>1814</ele>
        <time>2010-01-01T03:16:09Z</time>
      </trkpt>
      <trkpt lat="42.2897" lon="2.27219">
        <ele>1814</ele>
        <time>2010-01-01T03:16:10Z</time>
      </trkpt>
      <trkpt lat="42.28969" lon="2.27216">
        <ele>1814</ele>
        <time>2010-01-01T03:16:11Z</time>
      </trkpt>
      <trkpt lat="42.28968" lon="2.27213">
        <ele>1814</ele>
        <time>2010-01-01T03:16:12Z</time>
      </trkpt>
      <trkpt lat="42.28967" lon="2.27211">
        <ele>1815</ele>
        <time>2010-01-01T03:16:13Z</time>
      </trkpt>
      <trkpt lat="42.28966" lon="2.27208">
        <ele>1815</ele>
        <time>2010-01-01T03:16:13Z</time>
      </trkpt>
      <trkpt lat="42.28965" lon="2.27205">
        <ele>1815</ele>
        <time>2010-01-01T03:16:14Z</time>
      </trkpt>
      <trkpt lat="42.28964" lon="2.27202">
        <ele>1816</ele>
        <time>2010-01-01T03:16:15Z</time>
      </trkpt>
      <trkpt lat="42.28963" lon="2.27199">
        <ele>1816</ele>
        <time>2010-01-01T03:16:16Z</time>
      </trkpt>
      <trkpt lat="42.28962" lon="2.27197">
        <ele>1816</ele>
        <time>2010-01-01T03:16:17Z</time>
      </trkpt>
      <trkpt lat="42.28961" lon="2.27194">
        <ele>1816</ele>
        <time>2010-01-01T03:16:18Z</time>
      </trkpt>
      <trkpt lat="42.2896" lon="2.27191">
        <ele>1817</ele>
        <time>2010-01-01T03:16:19Z</time>
      </trkpt>
      <trkpt lat="42.2896" lon="2.27188">
        <ele>1817</ele>
        <time>2010-01-01T03:16:20Z</time>
      </trkpt>
      <trkpt lat="42.28959" lon="2.27185">
        <ele>1817</ele>
        <time>2010-01-01T03:16:21Z</time>
      </trkpt>
      <trkpt lat="42.28957" lon="2.27182">
        <ele>1818</ele>
        <time>2010-01-01T03:16:22Z</time>
      </trkpt>
      <trkpt lat="42.28956" lon="2.27179">
        <ele>1818</ele>
        <time>2010-01-01T03:16:23Z</time>
      </trkpt>
      <trkpt lat="42.28955" lon="2.27176">
        <ele>1819</ele>
        <time>2010-01-01T03:16:24Z</time>
      </trkpt>
      <trkpt lat="42.28953" lon="2.27173">
        <ele>1819</ele>
        <time>2010-01-01T03:16:25Z</time>
      </trkpt>
      <trkpt lat="42.28952" lon="2.2717">
        <ele>1820</ele>
        <time>2010-01-01T03:16:26Z</time>
      </trkpt>
      <trkpt lat="42.28951" lon="2.27167">
        <ele>1820</ele>
        <time>2010-01-01T03:16:27Z</time>
      </trkpt>
      <trkpt lat="42.28951" lon="2.27164">
        <ele>1821</ele>
        <time>2010-01-01T03:16:28Z</time>
      </trkpt>
      <trkpt lat="42.2895" lon="2.27161">
        <ele>1821</ele>
        <time>2010-01-01T03:16:29Z</time>
      </trkpt>
      <trkpt lat="42.28949" lon="2.27159">
        <ele>1822</ele>
        <time>2010-01-01T03:16:30Z</time>
      </trkpt>
      <trkpt lat="42.28948" lon="2.27156">
        <ele>1822</ele>
        <time>2010-01-01T03:16:31Z</time>
      </trkpt>
      <trkpt lat="42.28947" lon="2.27153">
        <ele>1823</ele>
        <time>2010-01-01T03:16:32Z</time>
      </trkpt>
      <trkpt lat="42.28946" lon="2.27149">
        <ele>1823</ele>
        <time>2010-01-01T03:16:33Z</time>
      </trkpt>
      <trkpt lat="42.28945" lon="2.27146">
        <ele>1824</ele>
        <time>2010-01-01T03:16:33Z</time>
      </trkpt>
      <trkpt lat="42.28944" lon="2.27144">
        <ele>1824</ele>
        <time>2010-01-01T03:16:34Z</time>
      </trkpt>
      <trkpt lat="42.28943" lon="2.27142">
        <ele>1824</ele>
        <time>2010-01-01T03:16:35Z</time>
      </trkpt>
      <trkpt lat="42.28942" lon="2.2714">
        <ele>1825</ele>
        <time>2010-01-01T03:16:36Z</time>
      </trkpt>
      <trkpt lat="42.28941" lon="2.27137">
        <ele>1825</ele>
        <time>2010-01-01T03:16:37Z</time>
      </trkpt>
      <trkpt lat="42.2894" lon="2.27134">
        <ele>1825</ele>
        <time>2010-01-01T03:16:38Z</time>
      </trkpt>
      <trkpt lat="42.28939" lon="2.27132">
        <ele>1826</ele>
        <time>2010-01-01T03:16:38Z</time>
      </trkpt>
      <trkpt lat="42.28938" lon="2.27129">
        <ele>1826</ele>
        <time>2010-01-01T03:16:39Z</time>
      </trkpt>
      <trkpt lat="42.28938" lon="2.27126">
        <ele>1826</ele>
        <time>2010-01-01T03:16:40Z</time>
      </trkpt>
      <trkpt lat="42.28937" lon="2.27124">
        <ele>1827</ele>
        <time>2010-01-01T03:16:41Z</time>
      </trkpt>
      <trkpt lat="42.28936" lon="2.27121">
        <ele>1827</ele>
        <time>2010-01-01T03:16:42Z</time>
      </trkpt>
      <trkpt lat="42.28935" lon="2.27118">
        <ele>1827</ele>
        <time>2010-01-01T03:16:43Z</time>
      </trkpt>
      <trkpt lat="42.28934" lon="2.27115">
        <ele>1827</ele>
        <time>2010-01-01T03:16:44Z</time>
      </trkpt>
      <trkpt lat="42.28933" lon="2.27112">
        <ele>1828</ele>
        <time>2010-01-01T03:16:45Z</time>
      </trkpt>
      <trkpt lat="42.28932" lon="2.2711">
        <ele>1828</ele>
        <time>2010-01-01T03:16:46Z</time>
      </trkpt>
      <trkpt lat="42.28931" lon="2.27107">
        <ele>1828</ele>
        <time>2010-01-01T03:16:47Z</time>
      </trkpt>
      <trkpt lat="42.2893" lon="2.27104">
        <ele>1828</ele>
        <time>2010-01-01T03:16:47Z</time>
      </trkpt>
      <trkpt lat="42.28929" lon="2.27102">
        <ele>1828</ele>
        <time>2010-01-01T03:16:48Z</time>
      </trkpt>
      <trkpt lat="42.28928" lon="2.27099">
        <ele>1828</ele>
        <time>2010-01-01T03:16:49Z</time>
      </trkpt>
      <trkpt lat="42.28927" lon="2.27096">
        <ele>1829</ele>
        <time>2010-01-01T03:16:50Z</time>
      </trkpt>
      <trkpt lat="42.28926" lon="2.27093">
        <ele>1829</ele>
        <time>2010-01-01T03:16:51Z</time>
      </trkpt>
      <trkpt lat="42.28925" lon="2.2709">
        <ele>1829</ele>
        <time>2010-01-01T03:16:52Z</time>
      </trkpt>
      <trkpt lat="42.28924" lon="2.27087">
        <ele>1829</ele>
        <time>2010-01-01T03:16:53Z</time>
      </trkpt>
      <trkpt lat="42.28924" lon="2.27084">
        <ele>1829</ele>
        <time>2010-01-01T03:16:54Z</time>
      </trkpt>
      <trkpt lat="42.28922" lon="2.27081">
        <ele>1829</ele>
        <time>2010-01-01T03:16:55Z</time>
      </trkpt>
      <trkpt lat="42.28921" lon="2.27078">
        <ele>1829</ele>
        <time>2010-01-01T03:16:56Z</time>
      </trkpt>
      <trkpt lat="42.2892" lon="2.27075">
        <ele>1830</ele>
        <time>2010-01-01T03:16:57Z</time>
      </trkpt>
      <trkpt lat="42.28919" lon="2.27072">
        <ele>1830</ele>
        <time>2010-01-01T03:16:58Z</time>
      </trkpt>
      <trkpt lat="42.28918" lon="2.27069">
        <ele>1830</ele>
        <time>2010-01-01T03:16:59Z</time>
      </trkpt>
      <trkpt lat="42.28916" lon="2.27067">
        <ele>1831</ele>
        <time>2010-01-01T03:17:00Z</time>
      </trkpt>
      <trkpt lat="42.28915" lon="2.27064">
        <ele>1831</ele>
        <time>2010-01-01T03:17:01Z</time>
      </trkpt>
      <trkpt lat="42.28914" lon="2.27061">
        <ele>1831</ele>
        <time>2010-01-01T03:17:02Z</time>
      </trkpt>
      <trkpt lat="42.28913" lon="2.27057">
        <ele>1832</ele>
        <time>2010-01-01T03:17:03Z</time>
      </trkpt>
      <trkpt lat="42.28911" lon="2.27054">
        <ele>1832</ele>
        <time>2010-01-01T03:17:04Z</time>
      </trkpt>
      <trkpt lat="42.2891" lon="2.27052">
        <ele>1832</ele>
        <time>2010-01-01T03:17:05Z</time>
      </trkpt>
      <trkpt lat="42.28908" lon="2.27049">
        <ele>1832</ele>
        <time>2010-01-01T03:17:06Z</time>
      </trkpt>
      <trkpt lat="42.28907" lon="2.27045">
        <ele>1833</ele>
        <time>2010-01-01T03:17:07Z</time>
      </trkpt>
      <trkpt lat="42.28905" lon="2.27042">
        <ele>1833</ele>
        <time>2010-01-01T03:17:09Z</time>
      </trkpt>
      <trkpt lat="42.28904" lon="2.27038">
        <ele>1833</ele>
        <time>2010-01-01T03:17:10Z</time>
      </trkpt>
      <trkpt lat="42.28903" lon="2.27035">
        <ele>1834</ele>
        <time>2010-01-01T03:17:11Z</time>
      </trkpt>
      <trkpt lat="42.28902" lon="2.27032">
        <ele>1834</ele>
        <time>2010-01-01T03:17:12Z</time>
      </trkpt>
      <trkpt lat="42.28901" lon="2.2703">
        <ele>1835</ele>
        <time>2010-01-01T03:17:13Z</time>
      </trkpt>
      <trkpt lat="42.289" lon="2.27027">
        <ele>1835</ele>
        <time>2010-01-01T03:17:13Z</time>
      </trkpt>
      <trkpt lat="42.28899" lon="2.27025">
        <ele>1836</ele>
        <time>2010-01-01T03:17:14Z</time>
      </trkpt>
      <trkpt lat="42.28898" lon="2.27023">
        <ele>1836</ele>
        <time>2010-01-01T03:17:15Z</time>
      </trkpt>
      <trkpt lat="42.28897" lon="2.2702">
        <ele>1837</ele>
        <time>2010-01-01T03:17:16Z</time>
      </trkpt>
      <trkpt lat="42.28895" lon="2.27017">
        <ele>1837</ele>
        <time>2010-01-01T03:17:17Z</time>
      </trkpt>
      <trkpt lat="42.28894" lon="2.27014">
        <ele>1838</ele>
        <time>2010-01-01T03:17:18Z</time>
      </trkpt>
      <trkpt lat="42.28892" lon="2.27011">
        <ele>1839</ele>
        <time>2010-01-01T03:17:19Z</time>
      </trkpt>
      <trkpt lat="42.28891" lon="2.27008">
        <ele>1840</ele>
        <time>2010-01-01T03:17:20Z</time>
      </trkpt>
      <trkpt lat="42.2889" lon="2.27006">
        <ele>1840</ele>
        <time>2010-01-01T03:17:21Z</time>
      </trkpt>
      <trkpt lat="42.28889" lon="2.27002">
        <ele>1841</ele>
        <time>2010-01-01T03:17:22Z</time>
      </trkpt>
      <trkpt lat="42.28888" lon="2.26999">
        <ele>1842</ele>
        <time>2010-01-01T03:17:23Z</time>
      </trkpt>
      <trkpt lat="42.28887" lon="2.26996">
        <ele>1842</ele>
        <time>2010-01-01T03:17:24Z</time>
      </trkpt>
      <trkpt lat="42.28885" lon="2.26994">
        <ele>1843</ele>
        <time>2010-01-01T03:17:25Z</time>
      </trkpt>
      <trkpt lat="42.28884" lon="2.26991">
        <ele>1844</ele>
        <time>2010-01-01T03:17:26Z</time>
      </trkpt>
      <trkpt lat="42.28883" lon="2.26988">
        <ele>1844</ele>
        <time>2010-01-01T03:17:27Z</time>
      </trkpt>
      <trkpt lat="42.28882" lon="2.26985">
        <ele>1845</ele>
        <time>2010-01-01T03:17:28Z</time>
      </trkpt>
      <trkpt lat="42.28882" lon="2.26983">
        <ele>1845</ele>
        <time>2010-01-01T03:17:28Z</time>
      </trkpt>
      <trkpt lat="42.28881" lon="2.2698">
        <ele>1845</ele>
        <time>2010-01-01T03:17:29Z</time>
      </trkpt>
      <trkpt lat="42.28881" lon="2.26977">
        <ele>1846</ele>
        <time>2010-01-01T03:17:30Z</time>
      </trkpt>
      <trkpt lat="42.28881" lon="2.26974">
        <ele>1846</ele>
        <time>2010-01-01T03:17:31Z</time>
      </trkpt>
      <trkpt lat="42.2888" lon="2.26972">
        <ele>1846</ele>
        <time>2010-01-01T03:17:32Z</time>
      </trkpt>
      <trkpt lat="42.2888" lon="2.26969">
        <ele>1847</ele>
        <time>2010-01-01T03:17:33Z</time>
      </trkpt>
      <trkpt lat="42.28879" lon="2.26966">
        <ele>1847</ele>
        <time>2010-01-01T03:17:33Z</time>
      </trkpt>
      <trkpt lat="42.28879" lon="2.26964">
        <ele>1847</ele>
        <time>2010-01-01T03:17:34Z</time>
      </trkpt>
      <trkpt lat="42.28878" lon="2.26961">
        <ele>1848</ele>
        <time>2010-01-01T03:17:35Z</time>
      </trkpt>
      <trkpt lat="42.28878" lon="2.26958">
        <ele>1848</ele>
        <time>2010-01-01T03:17:36Z</time>
      </trkpt>
      <trkpt lat="42.28877" lon="2.26956">
        <ele>1848</ele>
        <time>2010-01-01T03:17:37Z</time>
      </trkpt>
      <trkpt lat="42.28877" lon="2.26952">
        <ele>1848</ele>
        <time>2010-01-01T03:17:38Z</time>
      </trkpt>
      <trkpt lat="42.28877" lon="2.26949">
        <ele>1849</ele>
        <time>2010-01-01T03:17:39Z</time>
      </trkpt>
      <trkpt lat="42.28877" lon="2.26947">
        <ele>1849</ele>
        <time>2010-01-01T03:17:39Z</time>
      </trkpt>
      <trkpt lat="42.28876" lon="2.26944">
        <ele>1849</ele>
        <time>2010-01-01T03:17:40Z</time>
      </trkpt>
      <trkpt lat="42.28876" lon="2.2694">
        <ele>1849</ele>
        <time>2010-01-01T03:17:41Z</time>
      </trkpt>
      <trkpt lat="42.28875" lon="2.26937">
        <ele>1850</ele>
        <time>2010-01-01T03:17:42Z</time>
      </trkpt>
      <trkpt lat="42.28875" lon="2.26934">
        <ele>1850</ele>
        <time>2010-01-01T03:17:43Z</time>
      </trkpt>
      <trkpt lat="42.28874" lon="2.26932">
        <ele>1850</ele>
        <time>2010-01-01T03:17:44Z</time>
      </trkpt>
      <trkpt lat="42.28874" lon="2.26929">
        <ele>1850</ele>
        <time>2010-01-01T03:17:45Z</time>
      </trkpt>
      <trkpt lat="42.28873" lon="2.26926">
        <ele>1850</ele>
        <time>2010-01-01T03:17:46Z</time>
      </trkpt>
      <trkpt lat="42.28873" lon="2.26924">
        <ele>1850</ele>
        <time>2010-01-01T03:17:46Z</time>
      </trkpt>
      <trkpt lat="42.28873" lon="2.26921">
        <ele>1851</ele>
        <time>2010-01-01T03:17:47Z</time>
      </trkpt>
      <trkpt lat="42.28872" lon="2.26917">
        <ele>1851</ele>
        <time>2010-01-01T03:17:48Z</time>
      </trkpt>
      <trkpt lat="42.28872" lon="2.26914">
        <ele>1851</ele>
        <time>2010-01-01T03:17:49Z</time>
      </trkpt>
      <trkpt lat="42.28871" lon="2.26911">
        <ele>1851</ele>
        <time>2010-01-01T03:17:50Z</time>
      </trkpt>
      <trkpt lat="42.2887" lon="2.26908">
        <ele>1852</ele>
        <time>2010-01-01T03:17:51Z</time>
      </trkpt>
      <trkpt lat="42.2887" lon="2.26905">
        <ele>1852</ele>
        <time>2010-01-01T03:17:52Z</time>
      </trkpt>
      <trkpt lat="42.28869" lon="2.26902">
        <ele>1852</ele>
        <time>2010-01-01T03:17:53Z</time>
      </trkpt>
      <trkpt lat="42.28868" lon="2.26899">
        <ele>1853</ele>
        <time>2010-01-01T03:17:54Z</time>
      </trkpt>
      <trkpt lat="42.28868" lon="2.26897">
        <ele>1853</ele>
        <time>2010-01-01T03:17:55Z</time>
      </trkpt>
      <trkpt lat="42.28867" lon="2.26893">
        <ele>1854</ele>
        <time>2010-01-01T03:17:56Z</time>
      </trkpt>
      <trkpt lat="42.28866" lon="2.2689">
        <ele>1854</ele>
        <time>2010-01-01T03:17:57Z</time>
      </trkpt>
      <trkpt lat="42.28866" lon="2.26887">
        <ele>1855</ele>
        <time>2010-01-01T03:17:58Z</time>
      </trkpt>
      <trkpt lat="42.28865" lon="2.26885">
        <ele>1855</ele>
        <time>2010-01-01T03:17:58Z</time>
      </trkpt>
      <trkpt lat="42.28865" lon="2.26881">
        <ele>1855</ele>
        <time>2010-01-01T03:17:59Z</time>
      </trkpt>
      <trkpt lat="42.28864" lon="2.26879">
        <ele>1855</ele>
        <time>2010-01-01T03:18:00Z</time>
      </trkpt>
      <trkpt lat="42.28863" lon="2.26875">
        <ele>1856</ele>
        <time>2010-01-01T03:18:01Z</time>
      </trkpt>
      <trkpt lat="42.28863" lon="2.26873">
        <ele>1856</ele>
        <time>2010-01-01T03:18:02Z</time>
      </trkpt>
      <trkpt lat="42.28862" lon="2.2687">
        <ele>1857</ele>
        <time>2010-01-01T03:18:03Z</time>
      </trkpt>
      <trkpt lat="42.28861" lon="2.26867">
        <ele>1857</ele>
        <time>2010-01-01T03:18:04Z</time>
      </trkpt>
      <trkpt lat="42.2886" lon="2.26864">
        <ele>1858</ele>
        <time>2010-01-01T03:18:05Z</time>
      </trkpt>
      <trkpt lat="42.28859" lon="2.26862">
        <ele>1858</ele>
        <time>2010-01-01T03:18:06Z</time>
      </trkpt>
      <trkpt lat="42.28858" lon="2.2686">
        <ele>1859</ele>
        <time>2010-01-01T03:18:06Z</time>
      </trkpt>
      <trkpt lat="42.28858" lon="2.26857">
        <ele>1859</ele>
        <time>2010-01-01T03:18:07Z</time>
      </trkpt>
      <trkpt lat="42.28856" lon="2.26854">
        <ele>1860</ele>
        <time>2010-01-01T03:18:08Z</time>
      </trkpt>
      <trkpt lat="42.28856" lon="2.26851">
        <ele>1860</ele>
        <time>2010-01-01T03:18:09Z</time>
      </trkpt>
      <trkpt lat="42.28854" lon="2.26848">
        <ele>1861</ele>
        <time>2010-01-01T03:18:10Z</time>
      </trkpt>
      <trkpt lat="42.28853" lon="2.26846">
        <ele>1862</ele>
        <time>2010-01-01T03:18:11Z</time>
      </trkpt>
      <trkpt lat="42.28852" lon="2.26844">
        <ele>1862</ele>
        <time>2010-01-01T03:18:11Z</time>
      </trkpt>
      <trkpt lat="42.28852" lon="2.26841">
        <ele>1863</ele>
        <time>2010-01-01T03:18:12Z</time>
      </trkpt>
      <trkpt lat="42.28851" lon="2.26838">
        <ele>1863</ele>
        <time>2010-01-01T03:18:14Z</time>
      </trkpt>
      <trkpt lat="42.28849" lon="2.26835">
        <ele>1864</ele>
        <time>2010-01-01T03:18:14Z</time>
      </trkpt>
      <trkpt lat="42.28849" lon="2.26833">
        <ele>1865</ele>
        <time>2010-01-01T03:18:15Z</time>
      </trkpt>
      <trkpt lat="42.28848" lon="2.2683">
        <ele>1865</ele>
        <time>2010-01-01T03:18:16Z</time>
      </trkpt>
      <trkpt lat="42.28847" lon="2.26827">
        <ele>1865</ele>
        <time>2010-01-01T03:18:17Z</time>
      </trkpt>
      <trkpt lat="42.28846" lon="2.26825">
        <ele>1866</ele>
        <time>2010-01-01T03:18:18Z</time>
      </trkpt>
      <trkpt lat="42.28845" lon="2.26822">
        <ele>1866</ele>
        <time>2010-01-01T03:18:19Z</time>
      </trkpt>
      <trkpt lat="42.28843" lon="2.26819">
        <ele>1867</ele>
        <time>2010-01-01T03:18:20Z</time>
      </trkpt>
      <trkpt lat="42.28842" lon="2.26817">
        <ele>1867</ele>
        <time>2010-01-01T03:18:20Z</time>
      </trkpt>
      <trkpt lat="42.28841" lon="2.26815">
        <ele>1868</ele>
        <time>2010-01-01T03:18:21Z</time>
      </trkpt>
      <trkpt lat="42.28839" lon="2.26812">
        <ele>1868</ele>
        <time>2010-01-01T03:18:22Z</time>
      </trkpt>
      <trkpt lat="42.28838" lon="2.26809">
        <ele>1869</ele>
        <time>2010-01-01T03:18:23Z</time>
      </trkpt>
      <trkpt lat="42.28837" lon="2.26807">
        <ele>1869</ele>
        <time>2010-01-01T03:18:24Z</time>
      </trkpt>
      <trkpt lat="42.28836" lon="2.26805">
        <ele>1870</ele>
        <time>2010-01-01T03:18:25Z</time>
      </trkpt>
      <trkpt lat="42.28834" lon="2.26802">
        <ele>1871</ele>
        <time>2010-01-01T03:18:26Z</time>
      </trkpt>
      <trkpt lat="42.28833" lon="2.268">
        <ele>1871</ele>
        <time>2010-01-01T03:18:27Z</time>
      </trkpt>
      <trkpt lat="42.28832" lon="2.26797">
        <ele>1872</ele>
        <time>2010-01-01T03:18:28Z</time>
      </trkpt>
      <trkpt lat="42.28831" lon="2.26795">
        <ele>1873</ele>
        <time>2010-01-01T03:18:29Z</time>
      </trkpt>
      <trkpt lat="42.28829" lon="2.26792">
        <ele>1873</ele>
        <time>2010-01-01T03:18:30Z</time>
      </trkpt>
      <trkpt lat="42.28828" lon="2.2679">
        <ele>1874</ele>
        <time>2010-01-01T03:18:30Z</time>
      </trkpt>
      <trkpt lat="42.28827" lon="2.26787">
        <ele>1875</ele>
        <time>2010-01-01T03:18:31Z</time>
      </trkpt>
      <trkpt lat="42.28826" lon="2.26784">
        <ele>1876</ele>
        <time>2010-01-01T03:18:32Z</time>
      </trkpt>
      <trkpt lat="42.28825" lon="2.26781">
        <ele>1877</ele>
        <time>2010-01-01T03:18:33Z</time>
      </trkpt>
      <trkpt lat="42.28823" lon="2.26778">
        <ele>1877</ele>
        <time>2010-01-01T03:18:34Z</time>
      </trkpt>
      <trkpt lat="42.28822" lon="2.26776">
        <ele>1878</ele>
        <time>2010-01-01T03:18:35Z</time>
      </trkpt>
      <trkpt lat="42.2882" lon="2.26773">
        <ele>1879</ele>
        <time>2010-01-01T03:18:36Z</time>
      </trkpt>
      <trkpt lat="42.28819" lon="2.26771">
        <ele>1880</ele>
        <time>2010-01-01T03:18:37Z</time>
      </trkpt>
      <trkpt lat="42.28818" lon="2.26768">
        <ele>1881</ele>
        <time>2010-01-01T03:18:38Z</time>
      </trkpt>
      <trkpt lat="42.28817" lon="2.26766">
        <ele>1882</ele>
        <time>2010-01-01T03:18:39Z</time>
      </trkpt>
      <trkpt lat="42.28815" lon="2.26763">
        <ele>1883</ele>
        <time>2010-01-01T03:18:40Z</time>
      </trkpt>
      <trkpt lat="42.28814" lon="2.2676">
        <ele>1883</ele>
        <time>2010-01-01T03:18:41Z</time>
      </trkpt>
      <trkpt lat="42.28812" lon="2.26758">
        <ele>1884</ele>
        <time>2010-01-01T03:18:42Z</time>
      </trkpt>
      <trkpt lat="42.28812" lon="2.26755">
        <ele>1885</ele>
        <time>2010-01-01T03:18:43Z</time>
      </trkpt>
      <trkpt lat="42.2881" lon="2.26753">
        <ele>1886</ele>
        <time>2010-01-01T03:18:43Z</time>
      </trkpt>
      <trkpt lat="42.28809" lon="2.2675">
        <ele>1886</ele>
        <time>2010-01-01T03:18:44Z</time>
      </trkpt>
      <trkpt lat="42.28808" lon="2.26748">
        <ele>1887</ele>
        <time>2010-01-01T03:18:45Z</time>
      </trkpt>
      <trkpt lat="42.28807" lon="2.26745">
        <ele>1887</ele>
        <time>2010-01-01T03:18:46Z</time>
      </trkpt>
      <trkpt lat="42.28806" lon="2.26742">
        <ele>1888</ele>
        <time>2010-01-01T03:18:47Z</time>
      </trkpt>
      <trkpt lat="42.28805" lon="2.26739">
        <ele>1888</ele>
        <time>2010-01-01T03:18:48Z</time>
      </trkpt>
      <trkpt lat="42.28804" lon="2.26736">
        <ele>1888</ele>
        <time>2010-01-01T03:18:49Z</time>
      </trkpt>
      <trkpt lat="42.28803" lon="2.26733">
        <ele>1889</ele>
        <time>2010-01-01T03:18:50Z</time>
      </trkpt>
      <trkpt lat="42.28803" lon="2.26731">
        <ele>1889</ele>
        <time>2010-01-01T03:18:51Z</time>
      </trkpt>
      <trkpt lat="42.28802" lon="2.26728">
        <ele>1889</ele>
        <time>2010-01-01T03:18:52Z</time>
      </trkpt>
      <trkpt lat="42.28801" lon="2.26725">
        <ele>1889</ele>
        <time>2010-01-01T03:18:53Z</time>
      </trkpt>
      <trkpt lat="42.288" lon="2.26722">
        <ele>1889</ele>
        <time>2010-01-01T03:18:53Z</time>
      </trkpt>
      <trkpt lat="42.288" lon="2.26718">
        <ele>1890</ele>
        <time>2010-01-01T03:18:55Z</time>
      </trkpt>
      <trkpt lat="42.28799" lon="2.26716">
        <ele>1890</ele>
        <time>2010-01-01T03:18:55Z</time>
      </trkpt>
      <trkpt lat="42.28798" lon="2.26713">
        <ele>1891</ele>
        <time>2010-01-01T03:18:56Z</time>
      </trkpt>
      <trkpt lat="42.28797" lon="2.2671">
        <ele>1891</ele>
        <time>2010-01-01T03:18:57Z</time>
      </trkpt>
      <trkpt lat="42.28796" lon="2.26707">
        <ele>1892</ele>
        <time>2010-01-01T03:18:58Z</time>
      </trkpt>
      <trkpt lat="42.28794" lon="2.26704">
        <ele>1892</ele>
        <time>2010-01-01T03:18:59Z</time>
      </trkpt>
      <trkpt lat="42.28793" lon="2.26701">
        <ele>1892</ele>
        <time>2010-01-01T03:19:00Z</time>
      </trkpt>
      <trkpt lat="42.28793" lon="2.26699">
        <ele>1893</ele>
        <time>2010-01-01T03:19:01Z</time>
      </trkpt>
      <trkpt lat="42.28792" lon="2.26696">
        <ele>1893</ele>
        <time>2010-01-01T03:19:02Z</time>
      </trkpt>
      <trkpt lat="42.28791" lon="2.26693">
        <ele>1893</ele>
        <time>2010-01-01T03:19:03Z</time>
      </trkpt>
      <trkpt lat="42.2879" lon="2.26691">
        <ele>1893</ele>
        <time>2010-01-01T03:19:03Z</time>
      </trkpt>
      <trkpt lat="42.28789" lon="2.26688">
        <ele>1894</ele>
        <time>2010-01-01T03:19:04Z</time>
      </trkpt>
      <trkpt lat="42.28788" lon="2.26686">
        <ele>1894</ele>
        <time>2010-01-01T03:19:05Z</time>
      </trkpt>
      <trkpt lat="42.28787" lon="2.26683">
        <ele>1894</ele>
        <time>2010-01-01T03:19:06Z</time>
      </trkpt>
      <trkpt lat="42.28786" lon="2.2668">
        <ele>1895</ele>
        <time>2010-01-01T03:19:07Z</time>
      </trkpt>
      <trkpt lat="42.28785" lon="2.26678">
        <ele>1895</ele>
        <time>2010-01-01T03:19:08Z</time>
      </trkpt>
      <trkpt lat="42.28784" lon="2.26675">
        <ele>1896</ele>
        <time>2010-01-01T03:19:09Z</time>
      </trkpt>
      <trkpt lat="42.28783" lon="2.26673">
        <ele>1896</ele>
        <time>2010-01-01T03:19:10Z</time>
      </trkpt>
      <trkpt lat="42.28782" lon="2.2667">
        <ele>1897</ele>
        <time>2010-01-01T03:19:10Z</time>
      </trkpt>
      <trkpt lat="42.28781" lon="2.26668">
        <ele>1897</ele>
        <time>2010-01-01T03:19:11Z</time>
      </trkpt>
      <trkpt lat="42.2878" lon="2.26665">
        <ele>1898</ele>
        <time>2010-01-01T03:19:12Z</time>
      </trkpt>
      <trkpt lat="42.28779" lon="2.26663">
        <ele>1899</ele>
        <time>2010-01-01T03:19:13Z</time>
      </trkpt>
      <trkpt lat="42.28778" lon="2.26661">
        <ele>1899</ele>
        <time>2010-01-01T03:19:14Z</time>
      </trkpt>
      <trkpt lat="42.28777" lon="2.26658">
        <ele>1900</ele>
        <time>2010-01-01T03:19:15Z</time>
      </trkpt>
      <trkpt lat="42.28775" lon="2.26656">
        <ele>1900</ele>
        <time>2010-01-01T03:19:16Z</time>
      </trkpt>
      <trkpt lat="42.28774" lon="2.26654">
        <ele>1900</ele>
        <time>2010-01-01T03:19:16Z</time>
      </trkpt>
      <trkpt lat="42.28772" lon="2.26651">
        <ele>1901</ele>
        <time>2010-01-01T03:19:17Z</time>
      </trkpt>
      <trkpt lat="42.28771" lon="2.26649">
        <ele>1901</ele>
        <time>2010-01-01T03:19:18Z</time>
      </trkpt>
      <trkpt lat="42.2877" lon="2.26646">
        <ele>1902</ele>
        <time>2010-01-01T03:19:19Z</time>
      </trkpt>
      <trkpt lat="42.28769" lon="2.26643">
        <ele>1902</ele>
        <time>2010-01-01T03:19:20Z</time>
      </trkpt>
      <trkpt lat="42.28767" lon="2.26641">
        <ele>1903</ele>
        <time>2010-01-01T03:19:21Z</time>
      </trkpt>
      <trkpt lat="42.28766" lon="2.26638">
        <ele>1903</ele>
        <time>2010-01-01T03:19:22Z</time>
      </trkpt>
      <trkpt lat="42.28765" lon="2.26636">
        <ele>1904</ele>
        <time>2010-01-01T03:19:23Z</time>
      </trkpt>
      <trkpt lat="42.28764" lon="2.26633">
        <ele>1904</ele>
        <time>2010-01-01T03:19:24Z</time>
      </trkpt>
      <trkpt lat="42.28763" lon="2.26631">
        <ele>1905</ele>
        <time>2010-01-01T03:19:24Z</time>
      </trkpt>
      <trkpt lat="42.28762" lon="2.26628">
        <ele>1905</ele>
        <time>2010-01-01T03:19:26Z</time>
      </trkpt>
      <trkpt lat="42.28761" lon="2.26625">
        <ele>1906</ele>
        <time>2010-01-01T03:19:26Z</time>
      </trkpt>
      <trkpt lat="42.2876" lon="2.26622">
        <ele>1906</ele>
        <time>2010-01-01T03:19:27Z</time>
      </trkpt>
      <trkpt lat="42.28759" lon="2.26619">
        <ele>1907</ele>
        <time>2010-01-01T03:19:28Z</time>
      </trkpt>
      <trkpt lat="42.28758" lon="2.26616">
        <ele>1908</ele>
        <time>2010-01-01T03:19:29Z</time>
      </trkpt>
      <trkpt lat="42.28757" lon="2.26614">
        <ele>1908</ele>
        <time>2010-01-01T03:19:30Z</time>
      </trkpt>
      <trkpt lat="42.28757" lon="2.26611">
        <ele>1909</ele>
        <time>2010-01-01T03:19:31Z</time>
      </trkpt>
      <trkpt lat="42.28756" lon="2.26608">
        <ele>1910</ele>
        <time>2010-01-01T03:19:32Z</time>
      </trkpt>
      <trkpt lat="42.28754" lon="2.26605">
        <ele>1911</ele>
        <time>2010-01-01T03:19:33Z</time>
      </trkpt>
      <trkpt lat="42.28753" lon="2.26602">
        <ele>1911</ele>
        <time>2010-01-01T03:19:34Z</time>
      </trkpt>
      <trkpt lat="42.28752" lon="2.26599">
        <ele>1912</ele>
        <time>2010-01-01T03:19:35Z</time>
      </trkpt>
      <trkpt lat="42.28751" lon="2.26596">
        <ele>1913</ele>
        <time>2010-01-01T03:19:36Z</time>
      </trkpt>
      <trkpt lat="42.2875" lon="2.26593">
        <ele>1914</ele>
        <time>2010-01-01T03:19:37Z</time>
      </trkpt>
      <trkpt lat="42.28749" lon="2.26591">
        <ele>1914</ele>
        <time>2010-01-01T03:19:38Z</time>
      </trkpt>
      <trkpt lat="42.28748" lon="2.26588">
        <ele>1915</ele>
        <time>2010-01-01T03:19:38Z</time>
      </trkpt>
      <trkpt lat="42.28747" lon="2.26586">
        <ele>1915</ele>
        <time>2010-01-01T03:19:39Z</time>
      </trkpt>
      <trkpt lat="42.28746" lon="2.26583">
        <ele>1916</ele>
        <time>2010-01-01T03:19:40Z</time>
      </trkpt>
      <trkpt lat="42.28745" lon="2.26581">
        <ele>1916</ele>
        <time>2010-01-01T03:19:41Z</time>
      </trkpt>
      <trkpt lat="42.28743" lon="2.26578">
        <ele>1917</ele>
        <time>2010-01-01T03:19:42Z</time>
      </trkpt>
      <trkpt lat="42.28742" lon="2.26575">
        <ele>1917</ele>
        <time>2010-01-01T03:19:43Z</time>
      </trkpt>
      <trkpt lat="42.28741" lon="2.26573">
        <ele>1918</ele>
        <time>2010-01-01T03:19:44Z</time>
      </trkpt>
      <trkpt lat="42.28741" lon="2.26571">
        <ele>1918</ele>
        <time>2010-01-01T03:19:45Z</time>
      </trkpt>
      <trkpt lat="42.2874" lon="2.26568">
        <ele>1919</ele>
        <time>2010-01-01T03:19:45Z</time>
      </trkpt>
      <trkpt lat="42.28739" lon="2.26564">
        <ele>1920</ele>
        <time>2010-01-01T03:19:46Z</time>
      </trkpt>
      <trkpt lat="42.28738" lon="2.26562">
        <ele>1920</ele>
        <time>2010-01-01T03:19:47Z</time>
      </trkpt>
      <trkpt lat="42.28737" lon="2.26559">
        <ele>1921</ele>
        <time>2010-01-01T03:19:48Z</time>
      </trkpt>
      <trkpt lat="42.28736" lon="2.26556">
        <ele>1921</ele>
        <time>2010-01-01T03:19:49Z</time>
      </trkpt>
      <trkpt lat="42.28735" lon="2.26554">
        <ele>1922</ele>
        <time>2010-01-01T03:19:50Z</time>
      </trkpt>
      <trkpt lat="42.28734" lon="2.26551">
        <ele>1922</ele>
        <time>2010-01-01T03:19:51Z</time>
      </trkpt>
      <trkpt lat="42.28734" lon="2.26548">
        <ele>1923</ele>
        <time>2010-01-01T03:19:52Z</time>
      </trkpt>
      <trkpt lat="42.28733" lon="2.26546">
        <ele>1923</ele>
        <time>2010-01-01T03:19:52Z</time>
      </trkpt>
      <trkpt lat="42.28732" lon="2.26543">
        <ele>1924</ele>
        <time>2010-01-01T03:19:53Z</time>
      </trkpt>
      <trkpt lat="42.28731" lon="2.2654">
        <ele>1924</ele>
        <time>2010-01-01T03:19:54Z</time>
      </trkpt>
      <trkpt lat="42.2873" lon="2.26537">
        <ele>1925</ele>
        <time>2010-01-01T03:19:55Z</time>
      </trkpt>
      <trkpt lat="42.28729" lon="2.26535">
        <ele>1925</ele>
        <time>2010-01-01T03:19:56Z</time>
      </trkpt>
      <trkpt lat="42.28728" lon="2.26532">
        <ele>1926</ele>
        <time>2010-01-01T03:19:57Z</time>
      </trkpt>
      <trkpt lat="42.28728" lon="2.26529">
        <ele>1926</ele>
        <time>2010-01-01T03:19:58Z</time>
      </trkpt>
      <trkpt lat="42.28727" lon="2.26526">
        <ele>1927</ele>
        <time>2010-01-01T03:19:59Z</time>
      </trkpt>
      <trkpt lat="42.28726" lon="2.26524">
        <ele>1927</ele>
        <time>2010-01-01T03:20:00Z</time>
      </trkpt>
      <trkpt lat="42.28726" lon="2.26521">
        <ele>1928</ele>
        <time>2010-01-01T03:20:00Z</time>
      </trkpt>
      <trkpt lat="42.28725" lon="2.26519">
        <ele>1928</ele>
        <time>2010-01-01T03:20:01Z</time>
      </trkpt>
      <trkpt lat="42.28724" lon="2.26516">
        <ele>1928</ele>
        <time>2010-01-01T03:20:02Z</time>
      </trkpt>
      <trkpt lat="42.28724" lon="2.26513">
        <ele>1929</ele>
        <time>2010-01-01T03:20:03Z</time>
      </trkpt>
      <trkpt lat="42.28723" lon="2.2651">
        <ele>1929</ele>
        <time>2010-01-01T03:20:04Z</time>
      </trkpt>
      <trkpt lat="42.28723" lon="2.26507">
        <ele>1930</ele>
        <time>2010-01-01T03:20:05Z</time>
      </trkpt>
      <trkpt lat="42.28722" lon="2.26504">
        <ele>1930</ele>
        <time>2010-01-01T03:20:06Z</time>
      </trkpt>
      <trkpt lat="42.28721" lon="2.26501">
        <ele>1930</ele>
        <time>2010-01-01T03:20:07Z</time>
      </trkpt>
      <trkpt lat="42.2872" lon="2.26497">
        <ele>1930</ele>
        <time>2010-01-01T03:20:08Z</time>
      </trkpt>
      <trkpt lat="42.2872" lon="2.26495">
        <ele>1930</ele>
        <time>2010-01-01T03:20:09Z</time>
      </trkpt>
      <trkpt lat="42.28719" lon="2.26492">
        <ele>1930</ele>
        <time>2010-01-01T03:20:09Z</time>
      </trkpt>
      <trkpt lat="42.28718" lon="2.26489">
        <ele>1930</ele>
        <time>2010-01-01T03:20:10Z</time>
      </trkpt>
      <trkpt lat="42.28718" lon="2.26485">
        <ele>1929</ele>
        <time>2010-01-01T03:20:11Z</time>
      </trkpt>
      <trkpt lat="42.28718" lon="2.26481">
        <ele>1929</ele>
        <time>2010-01-01T03:20:13Z</time>
      </trkpt>
      <trkpt lat="42.28717" lon="2.26478">
        <ele>1929</ele>
        <time>2010-01-01T03:20:14Z</time>
      </trkpt>
      <trkpt lat="42.28716" lon="2.26475">
        <ele>1929</ele>
        <time>2010-01-01T03:20:15Z</time>
      </trkpt>
      <trkpt lat="42.28715" lon="2.26472">
        <ele>1929</ele>
        <time>2010-01-01T03:20:16Z</time>
      </trkpt>
      <trkpt lat="42.28715" lon="2.26468">
        <ele>1929</ele>
        <time>2010-01-01T03:20:17Z</time>
      </trkpt>
      <trkpt lat="42.28714" lon="2.26464">
        <ele>1928</ele>
        <time>2010-01-01T03:20:18Z</time>
      </trkpt>
      <trkpt lat="42.28714" lon="2.26461">
        <ele>1928</ele>
        <time>2010-01-01T03:20:19Z</time>
      </trkpt>
      <trkpt lat="42.28714" lon="2.26458">
        <ele>1928</ele>
        <time>2010-01-01T03:20:20Z</time>
      </trkpt>
      <trkpt lat="42.28713" lon="2.26454">
        <ele>1928</ele>
        <time>2010-01-01T03:20:21Z</time>
      </trkpt>
      <trkpt lat="42.28713" lon="2.26451">
        <ele>1928</ele>
        <time>2010-01-01T03:20:22Z</time>
      </trkpt>
      <trkpt lat="42.28713" lon="2.26447">
        <ele>1928</ele>
        <time>2010-01-01T03:20:23Z</time>
      </trkpt>
      <trkpt lat="42.28712" lon="2.26444">
        <ele>1927</ele>
        <time>2010-01-01T03:20:24Z</time>
      </trkpt>
      <trkpt lat="42.28712" lon="2.2644">
        <ele>1927</ele>
        <time>2010-01-01T03:20:25Z</time>
      </trkpt>
      <trkpt lat="42.28712" lon="2.26437">
        <ele>1927</ele>
        <time>2010-01-01T03:20:26Z</time>
      </trkpt>
      <trkpt lat="42.28712" lon="2.26434">
        <ele>1927</ele>
        <time>2010-01-01T03:20:27Z</time>
      </trkpt>
      <trkpt lat="42.28711" lon="2.26431">
        <ele>1926</ele>
        <time>2010-01-01T03:20:28Z</time>
      </trkpt>
      <trkpt lat="42.28711" lon="2.26427">
        <ele>1926</ele>
        <time>2010-01-01T03:20:29Z</time>
      </trkpt>
      <trkpt lat="42.28711" lon="2.26424">
        <ele>1926</ele>
        <time>2010-01-01T03:20:30Z</time>
      </trkpt>
      <trkpt lat="42.2871" lon="2.26421">
        <ele>1926</ele>
        <time>2010-01-01T03:20:31Z</time>
      </trkpt>
      <trkpt lat="42.2871" lon="2.26417">
        <ele>1926</ele>
        <time>2010-01-01T03:20:32Z</time>
      </trkpt>
      <trkpt lat="42.2871" lon="2.26414">
        <ele>1926</ele>
        <time>2010-01-01T03:20:33Z</time>
      </trkpt>
      <trkpt lat="42.28709" lon="2.26411">
        <ele>1926</ele>
        <time>2010-01-01T03:20:34Z</time>
      </trkpt>
      <trkpt lat="42.28708" lon="2.26409">
        <ele>1926</ele>
        <time>2010-01-01T03:20:35Z</time>
      </trkpt>
      <trkpt lat="42.28708" lon="2.26406">
        <ele>1926</ele>
        <time>2010-01-01T03:20:35Z</time>
      </trkpt>
      <trkpt lat="42.28707" lon="2.26403">
        <ele>1927</ele>
        <time>2010-01-01T03:20:36Z</time>
      </trkpt>
      <trkpt lat="42.28707" lon="2.264">
        <ele>1927</ele>
        <time>2010-01-01T03:20:37Z</time>
      </trkpt>
      <trkpt lat="42.28705" lon="2.26398">
        <ele>1928</ele>
        <time>2010-01-01T03:20:38Z</time>
      </trkpt>
      <trkpt lat="42.28704" lon="2.26395">
        <ele>1928</ele>
        <time>2010-01-01T03:20:39Z</time>
      </trkpt>
      <trkpt lat="42.28703" lon="2.26392">
        <ele>1929</ele>
        <time>2010-01-01T03:20:40Z</time>
      </trkpt>
      <trkpt lat="42.28702" lon="2.26389">
        <ele>1930</ele>
        <time>2010-01-01T03:20:41Z</time>
      </trkpt>
      <trkpt lat="42.28701" lon="2.26386">
        <ele>1930</ele>
        <time>2010-01-01T03:20:42Z</time>
      </trkpt>
      <trkpt lat="42.287" lon="2.26384">
        <ele>1931</ele>
        <time>2010-01-01T03:20:43Z</time>
      </trkpt>
      <trkpt lat="42.28698" lon="2.26382">
        <ele>1932</ele>
        <time>2010-01-01T03:20:44Z</time>
      </trkpt>
      <trkpt lat="42.28697" lon="2.26379">
        <ele>1933</ele>
        <time>2010-01-01T03:20:45Z</time>
      </trkpt>
      <trkpt lat="42.28695" lon="2.26377">
        <ele>1934</ele>
        <time>2010-01-01T03:20:46Z</time>
      </trkpt>
      <trkpt lat="42.28694" lon="2.26375">
        <ele>1935</ele>
        <time>2010-01-01T03:20:46Z</time>
      </trkpt>
      <trkpt lat="42.28692" lon="2.26372">
        <ele>1935</ele>
        <time>2010-01-01T03:20:47Z</time>
      </trkpt>
      <trkpt lat="42.28691" lon="2.2637">
        <ele>1935</ele>
        <time>2010-01-01T03:20:48Z</time>
      </trkpt>
      <trkpt lat="42.2869" lon="2.26367">
        <ele>1935</ele>
        <time>2010-01-01T03:20:49Z</time>
      </trkpt>
      <trkpt lat="42.2869" lon="2.26363">
        <ele>1936</ele>
        <time>2010-01-01T03:20:50Z</time>
      </trkpt>
      <trkpt lat="42.28689" lon="2.2636">
        <ele>1936</ele>
        <time>2010-01-01T03:20:51Z</time>
      </trkpt>
      <trkpt lat="42.28689" lon="2.26358">
        <ele>1936</ele>
        <time>2010-01-01T03:20:52Z</time>
      </trkpt>
      <trkpt lat="42.28688" lon="2.26355">
        <ele>1936</ele>
        <time>2010-01-01T03:20:53Z</time>
      </trkpt>
      <trkpt lat="42.28687" lon="2.26352">
        <ele>1936</ele>
        <time>2010-01-01T03:20:54Z</time>
      </trkpt>
      <trkpt lat="42.28687" lon="2.26348">
        <ele>1936</ele>
        <time>2010-01-01T03:20:55Z</time>
      </trkpt>
      <trkpt lat="42.28687" lon="2.26345">
        <ele>1936</ele>
        <time>2010-01-01T03:20:56Z</time>
      </trkpt>
      <trkpt lat="42.28686" lon="2.26343">
        <ele>1936</ele>
        <time>2010-01-01T03:20:57Z</time>
      </trkpt>
      <trkpt lat="42.28685" lon="2.2634">
        <ele>1936</ele>
        <time>2010-01-01T03:20:57Z</time>
      </trkpt>
      <trkpt lat="42.28684" lon="2.26337">
        <ele>1936</ele>
        <time>2010-01-01T03:20:58Z</time>
      </trkpt>
      <trkpt lat="42.28683" lon="2.26335">
        <ele>1936</ele>
        <time>2010-01-01T03:20:59Z</time>
      </trkpt>
      <trkpt lat="42.28683" lon="2.26332">
        <ele>1936</ele>
        <time>2010-01-01T03:21:00Z</time>
      </trkpt>
      <trkpt lat="42.28681" lon="2.26329">
        <ele>1936</ele>
        <time>2010-01-01T03:21:01Z</time>
      </trkpt>
      <trkpt lat="42.28681" lon="2.26326">
        <ele>1936</ele>
        <time>2010-01-01T03:21:02Z</time>
      </trkpt>
      <trkpt lat="42.2868" lon="2.26323">
        <ele>1936</ele>
        <time>2010-01-01T03:21:03Z</time>
      </trkpt>
      <trkpt lat="42.28679" lon="2.2632">
        <ele>1936</ele>
        <time>2010-01-01T03:21:04Z</time>
      </trkpt>
      <trkpt lat="42.28678" lon="2.26317">
        <ele>1936</ele>
        <time>2010-01-01T03:21:05Z</time>
      </trkpt>
      <trkpt lat="42.28676" lon="2.26314">
        <ele>1936</ele>
        <time>2010-01-01T03:21:06Z</time>
      </trkpt>
      <trkpt lat="42.28675" lon="2.26311">
        <ele>1936</ele>
        <time>2010-01-01T03:21:07Z</time>
      </trkpt>
      <trkpt lat="42.28675" lon="2.26308">
        <ele>1936</ele>
        <time>2010-01-01T03:21:08Z</time>
      </trkpt>
      <trkpt lat="42.28674" lon="2.26304">
        <ele>1935</ele>
        <time>2010-01-01T03:21:09Z</time>
      </trkpt>
      <trkpt lat="42.28673" lon="2.263">
        <ele>1935</ele>
        <time>2010-01-01T03:21:10Z</time>
      </trkpt>
      <trkpt lat="42.28671" lon="2.26296">
        <ele>1934</ele>
        <time>2010-01-01T03:21:12Z</time>
      </trkpt>
      <trkpt lat="42.28669" lon="2.26292">
        <ele>1934</ele>
        <time>2010-01-01T03:21:13Z</time>
      </trkpt>
      <trkpt lat="42.28666" lon="2.26287">
        <ele>1933</ele>
        <time>2010-01-01T03:21:15Z</time>
      </trkpt>
      <trkpt lat="42.28664" lon="2.26282">
        <ele>1932</ele>
        <time>2010-01-01T03:21:17Z</time>
      </trkpt>
      <trkpt lat="42.28663" lon="2.26278">
        <ele>1932</ele>
        <time>2010-01-01T03:21:18Z</time>
      </trkpt>
      <trkpt lat="42.2866" lon="2.26274">
        <ele>1932</ele>
        <time>2010-01-01T03:21:19Z</time>
      </trkpt>
      <trkpt lat="42.28658" lon="2.2627">
        <ele>1932</ele>
        <time>2010-01-01T03:21:21Z</time>
      </trkpt>
      <trkpt lat="42.28655" lon="2.26266">
        <ele>1932</ele>
        <time>2010-01-01T03:21:23Z</time>
      </trkpt>
      <trkpt lat="42.28653" lon="2.2626">
        <ele>1932</ele>
        <time>2010-01-01T03:21:25Z</time>
      </trkpt>
      <trkpt lat="42.28652" lon="2.26255">
        <ele>1932</ele>
        <time>2010-01-01T03:21:26Z</time>
      </trkpt>
      <trkpt lat="42.28652" lon="2.2625">
        <ele>1932</ele>
        <time>2010-01-01T03:21:28Z</time>
      </trkpt>
      <trkpt lat="42.28652" lon="2.26247">
        <ele>1932</ele>
        <time>2010-01-01T03:21:29Z</time>
      </trkpt>
      <trkpt lat="42.28651" lon="2.26243">
        <ele>1932</ele>
        <time>2010-01-01T03:21:30Z</time>
      </trkpt>
      <trkpt lat="42.2865" lon="2.26238">
        <ele>1933</ele>
        <time>2010-01-01T03:21:31Z</time>
      </trkpt>
      <trkpt lat="42.2865" lon="2.26234">
        <ele>1933</ele>
        <time>2010-01-01T03:21:32Z</time>
      </trkpt>
      <trkpt lat="42.28649" lon="2.2623">
        <ele>1934</ele>
        <time>2010-01-01T03:21:34Z</time>
      </trkpt>
      <trkpt lat="42.28649" lon="2.26227">
        <ele>1934</ele>
        <time>2010-01-01T03:21:35Z</time>
      </trkpt>
      <trkpt lat="42.28648" lon="2.26223">
        <ele>1935</ele>
        <time>2010-01-01T03:21:36Z</time>
      </trkpt>
      <trkpt lat="42.28646" lon="2.26219">
        <ele>1936</ele>
        <time>2010-01-01T03:21:37Z</time>
      </trkpt>
      <trkpt lat="42.28645" lon="2.26215">
        <ele>1936</ele>
        <time>2010-01-01T03:21:39Z</time>
      </trkpt>
      <trkpt lat="42.28643" lon="2.26212">
        <ele>1937</ele>
        <time>2010-01-01T03:21:40Z</time>
      </trkpt>
      <trkpt lat="42.28642" lon="2.26209">
        <ele>1938</ele>
        <time>2010-01-01T03:21:41Z</time>
      </trkpt>
      <trkpt lat="42.28641" lon="2.26207">
        <ele>1938</ele>
        <time>2010-01-01T03:21:42Z</time>
      </trkpt>
      <trkpt lat="42.2864" lon="2.26204">
        <ele>1939</ele>
        <time>2010-01-01T03:21:43Z</time>
      </trkpt>
      <trkpt lat="42.28639" lon="2.262">
        <ele>1939</ele>
        <time>2010-01-01T03:21:44Z</time>
      </trkpt>
      <trkpt lat="42.28639" lon="2.26197">
        <ele>1939</ele>
        <time>2010-01-01T03:21:45Z</time>
      </trkpt>
      <trkpt lat="42.28639" lon="2.26194">
        <ele>1939</ele>
        <time>2010-01-01T03:21:45Z</time>
      </trkpt>
      <trkpt lat="42.28638" lon="2.26191">
        <ele>1939</ele>
        <time>2010-01-01T03:21:46Z</time>
      </trkpt>
      <trkpt lat="42.28637" lon="2.26188">
        <ele>1939</ele>
        <time>2010-01-01T03:21:47Z</time>
      </trkpt>
      <trkpt lat="42.28636" lon="2.26184">
        <ele>1938</ele>
        <time>2010-01-01T03:21:48Z</time>
      </trkpt>
      <trkpt lat="42.28635" lon="2.26181">
        <ele>1938</ele>
        <time>2010-01-01T03:21:49Z</time>
      </trkpt>
      <trkpt lat="42.28634" lon="2.26178">
        <ele>1938</ele>
        <time>2010-01-01T03:21:51Z</time>
      </trkpt>
      <trkpt lat="42.28632" lon="2.26176">
        <ele>1938</ele>
        <time>2010-01-01T03:21:51Z</time>
      </trkpt>
      <trkpt lat="42.2863" lon="2.26174">
        <ele>1938</ele>
        <time>2010-01-01T03:21:52Z</time>
      </trkpt>
      <trkpt lat="42.28629" lon="2.26172">
        <ele>1939</ele>
        <time>2010-01-01T03:21:53Z</time>
      </trkpt>
      <trkpt lat="42.28628" lon="2.26169">
        <ele>1939</ele>
        <time>2010-01-01T03:21:54Z</time>
      </trkpt>
      <trkpt lat="42.28627" lon="2.26166">
        <ele>1939</ele>
        <time>2010-01-01T03:21:55Z</time>
      </trkpt>
      <trkpt lat="42.28626" lon="2.26163">
        <ele>1939</ele>
        <time>2010-01-01T03:21:56Z</time>
      </trkpt>
      <trkpt lat="42.28625" lon="2.26161">
        <ele>1939</ele>
        <time>2010-01-01T03:21:57Z</time>
      </trkpt>
      <trkpt lat="42.28623" lon="2.26158">
        <ele>1939</ele>
        <time>2010-01-01T03:21:58Z</time>
      </trkpt>
      <trkpt lat="42.28622" lon="2.26156">
        <ele>1940</ele>
        <time>2010-01-01T03:21:59Z</time>
      </trkpt>
      <trkpt lat="42.28621" lon="2.26153">
        <ele>1940</ele>
        <time>2010-01-01T03:22:00Z</time>
      </trkpt>
      <trkpt lat="42.2862" lon="2.2615">
        <ele>1940</ele>
        <time>2010-01-01T03:22:01Z</time>
      </trkpt>
      <trkpt lat="42.2862" lon="2.26147">
        <ele>1940</ele>
        <time>2010-01-01T03:22:01Z</time>
      </trkpt>
      <trkpt lat="42.28619" lon="2.26144">
        <ele>1941</ele>
        <time>2010-01-01T03:22:03Z</time>
      </trkpt>
      <trkpt lat="42.28618" lon="2.26141">
        <ele>1941</ele>
        <time>2010-01-01T03:22:03Z</time>
      </trkpt>
      <trkpt lat="42.28618" lon="2.26139">
        <ele>1941</ele>
        <time>2010-01-01T03:22:04Z</time>
      </trkpt>
      <trkpt lat="42.28617" lon="2.26136">
        <ele>1941</ele>
        <time>2010-01-01T03:22:05Z</time>
      </trkpt>
      <trkpt lat="42.28616" lon="2.26133">
        <ele>1942</ele>
        <time>2010-01-01T03:22:06Z</time>
      </trkpt>
      <trkpt lat="42.28615" lon="2.26131">
        <ele>1942</ele>
        <time>2010-01-01T03:22:07Z</time>
      </trkpt>
      <trkpt lat="42.28614" lon="2.26128">
        <ele>1943</ele>
        <time>2010-01-01T03:22:08Z</time>
      </trkpt>
      <trkpt lat="42.28612" lon="2.26126">
        <ele>1943</ele>
        <time>2010-01-01T03:22:09Z</time>
      </trkpt>
      <trkpt lat="42.28612" lon="2.26123">
        <ele>1944</ele>
        <time>2010-01-01T03:22:09Z</time>
      </trkpt>
      <trkpt lat="42.28611" lon="2.26121">
        <ele>1944</ele>
        <time>2010-01-01T03:22:10Z</time>
      </trkpt>
      <trkpt lat="42.2861" lon="2.26119">
        <ele>1944</ele>
        <time>2010-01-01T03:22:11Z</time>
      </trkpt>
      <trkpt lat="42.28608" lon="2.26116">
        <ele>1945</ele>
        <time>2010-01-01T03:22:12Z</time>
      </trkpt>
      <trkpt lat="42.28607" lon="2.26114">
        <ele>1945</ele>
        <time>2010-01-01T03:22:13Z</time>
      </trkpt>
      <trkpt lat="42.28606" lon="2.26111">
        <ele>1945</ele>
        <time>2010-01-01T03:22:14Z</time>
      </trkpt>
      <trkpt lat="42.28605" lon="2.26108">
        <ele>1945</ele>
        <time>2010-01-01T03:22:15Z</time>
      </trkpt>
      <trkpt lat="42.28604" lon="2.26105">
        <ele>1946</ele>
        <time>2010-01-01T03:22:16Z</time>
      </trkpt>
      <trkpt lat="42.28602" lon="2.26103">
        <ele>1946</ele>
        <time>2010-01-01T03:22:17Z</time>
      </trkpt>
      <trkpt lat="42.28601" lon="2.261">
        <ele>1946</ele>
        <time>2010-01-01T03:22:18Z</time>
      </trkpt>
      <trkpt lat="42.28599" lon="2.26097">
        <ele>1947</ele>
        <time>2010-01-01T03:22:19Z</time>
      </trkpt>
      <trkpt lat="42.28598" lon="2.26094">
        <ele>1947</ele>
        <time>2010-01-01T03:22:20Z</time>
      </trkpt>
      <trkpt lat="42.28597" lon="2.26091">
        <ele>1948</ele>
        <time>2010-01-01T03:22:21Z</time>
      </trkpt>
      <trkpt lat="42.28596" lon="2.26089">
        <ele>1948</ele>
        <time>2010-01-01T03:22:21Z</time>
      </trkpt>
      <trkpt lat="42.28595" lon="2.26085">
        <ele>1949</ele>
        <time>2010-01-01T03:22:23Z</time>
      </trkpt>
      <trkpt lat="42.28594" lon="2.26083">
        <ele>1949</ele>
        <time>2010-01-01T03:22:23Z</time>
      </trkpt>
      <trkpt lat="42.28593" lon="2.2608">
        <ele>1950</ele>
        <time>2010-01-01T03:22:24Z</time>
      </trkpt>
      <trkpt lat="42.28592" lon="2.26077">
        <ele>1951</ele>
        <time>2010-01-01T03:22:25Z</time>
      </trkpt>
      <trkpt lat="42.28591" lon="2.26074">
        <ele>1952</ele>
        <time>2010-01-01T03:22:26Z</time>
      </trkpt>
      <trkpt lat="42.2859" lon="2.26071">
        <ele>1952</ele>
        <time>2010-01-01T03:22:27Z</time>
      </trkpt>
      <trkpt lat="42.28589" lon="2.26068">
        <ele>1953</ele>
        <time>2010-01-01T03:22:28Z</time>
      </trkpt>
      <trkpt lat="42.28589" lon="2.26065">
        <ele>1954</ele>
        <time>2010-01-01T03:22:29Z</time>
      </trkpt>
      <trkpt lat="42.28589" lon="2.26061">
        <ele>1955</ele>
        <time>2010-01-01T03:22:30Z</time>
      </trkpt>
      <trkpt lat="42.28588" lon="2.26058">
        <ele>1955</ele>
        <time>2010-01-01T03:22:31Z</time>
      </trkpt>
      <trkpt lat="42.28587" lon="2.26055">
        <ele>1956</ele>
        <time>2010-01-01T03:22:32Z</time>
      </trkpt>
      <trkpt lat="42.28586" lon="2.26052">
        <ele>1957</ele>
        <time>2010-01-01T03:22:33Z</time>
      </trkpt>
      <trkpt lat="42.28585" lon="2.26049">
        <ele>1958</ele>
        <time>2010-01-01T03:22:34Z</time>
      </trkpt>
      <trkpt lat="42.28584" lon="2.26047">
        <ele>1959</ele>
        <time>2010-01-01T03:22:35Z</time>
      </trkpt>
      <trkpt lat="42.28583" lon="2.26044">
        <ele>1959</ele>
        <time>2010-01-01T03:22:36Z</time>
      </trkpt>
      <trkpt lat="42.28582" lon="2.26041">
        <ele>1960</ele>
        <time>2010-01-01T03:22:37Z</time>
      </trkpt>
      <trkpt lat="42.28581" lon="2.26038">
        <ele>1960</ele>
        <time>2010-01-01T03:22:38Z</time>
      </trkpt>
      <trkpt lat="42.2858" lon="2.26036">
        <ele>1961</ele>
        <time>2010-01-01T03:22:38Z</time>
      </trkpt>
      <trkpt lat="42.2858" lon="2.26033">
        <ele>1961</ele>
        <time>2010-01-01T03:22:39Z</time>
      </trkpt>
      <trkpt lat="42.2858" lon="2.2603">
        <ele>1962</ele>
        <time>2010-01-01T03:22:40Z</time>
      </trkpt>
      <trkpt lat="42.28579" lon="2.26027">
        <ele>1962</ele>
        <time>2010-01-01T03:22:41Z</time>
      </trkpt>
      <trkpt lat="42.28579" lon="2.26025">
        <ele>1962</ele>
        <time>2010-01-01T03:22:42Z</time>
      </trkpt>
      <trkpt lat="42.28578" lon="2.26022">
        <ele>1963</ele>
        <time>2010-01-01T03:22:43Z</time>
      </trkpt>
      <trkpt lat="42.28577" lon="2.26019">
        <ele>1963</ele>
        <time>2010-01-01T03:22:44Z</time>
      </trkpt>
      <trkpt lat="42.28575" lon="2.26017">
        <ele>1963</ele>
        <time>2010-01-01T03:22:44Z</time>
      </trkpt>
      <trkpt lat="42.28574" lon="2.26015">
        <ele>1964</ele>
        <time>2010-01-01T03:22:45Z</time>
      </trkpt>
      <trkpt lat="42.28573" lon="2.26012">
        <ele>1964</ele>
        <time>2010-01-01T03:22:46Z</time>
      </trkpt>
      <trkpt lat="42.28573" lon="2.26009">
        <ele>1964</ele>
        <time>2010-01-01T03:22:47Z</time>
      </trkpt>
      <trkpt lat="42.28573" lon="2.26006">
        <ele>1965</ele>
        <time>2010-01-01T03:22:48Z</time>
      </trkpt>
      <trkpt lat="42.28573" lon="2.26004">
        <ele>1965</ele>
        <time>2010-01-01T03:22:49Z</time>
      </trkpt>
      <trkpt lat="42.28572" lon="2.26001">
        <ele>1965</ele>
        <time>2010-01-01T03:22:49Z</time>
      </trkpt>
      <trkpt lat="42.28571" lon="2.25999">
        <ele>1966</ele>
        <time>2010-01-01T03:22:50Z</time>
      </trkpt>
      <trkpt lat="42.2857" lon="2.25996">
        <ele>1967</ele>
        <time>2010-01-01T03:22:51Z</time>
      </trkpt>
      <trkpt lat="42.2857" lon="2.25993">
        <ele>1967</ele>
        <time>2010-01-01T03:22:52Z</time>
      </trkpt>
      <trkpt lat="42.28569" lon="2.2599">
        <ele>1968</ele>
        <time>2010-01-01T03:22:53Z</time>
      </trkpt>
      <trkpt lat="42.28568" lon="2.25988">
        <ele>1969</ele>
        <time>2010-01-01T03:22:54Z</time>
      </trkpt>
      <trkpt lat="42.28566" lon="2.25986">
        <ele>1970</ele>
        <time>2010-01-01T03:22:55Z</time>
      </trkpt>
      <trkpt lat="42.28565" lon="2.25984">
        <ele>1971</ele>
        <time>2010-01-01T03:22:55Z</time>
      </trkpt>
      <trkpt lat="42.28564" lon="2.25982">
        <ele>1971</ele>
        <time>2010-01-01T03:22:56Z</time>
      </trkpt>
      <trkpt lat="42.28563" lon="2.25979">
        <ele>1972</ele>
        <time>2010-01-01T03:22:57Z</time>
      </trkpt>
      <trkpt lat="42.28562" lon="2.25976">
        <ele>1973</ele>
        <time>2010-01-01T03:22:58Z</time>
      </trkpt>
      <trkpt lat="42.28561" lon="2.25974">
        <ele>1973</ele>
        <time>2010-01-01T03:22:59Z</time>
      </trkpt>
      <trkpt lat="42.2856" lon="2.25972">
        <ele>1974</ele>
        <time>2010-01-01T03:23:00Z</time>
      </trkpt>
      <trkpt lat="42.28558" lon="2.2597">
        <ele>1975</ele>
        <time>2010-01-01T03:23:00Z</time>
      </trkpt>
      <trkpt lat="42.28556" lon="2.25969">
        <ele>1976</ele>
        <time>2010-01-01T03:23:01Z</time>
      </trkpt>
      <trkpt lat="42.28554" lon="2.25967">
        <ele>1976</ele>
        <time>2010-01-01T03:23:02Z</time>
      </trkpt>
      <trkpt lat="42.28553" lon="2.25965">
        <ele>1976</ele>
        <time>2010-01-01T03:23:03Z</time>
      </trkpt>
      <trkpt lat="42.28551" lon="2.25963">
        <ele>1976</ele>
        <time>2010-01-01T03:23:04Z</time>
      </trkpt>
      <trkpt lat="42.2855" lon="2.2596">
        <ele>1977</ele>
        <time>2010-01-01T03:23:05Z</time>
      </trkpt>
      <trkpt lat="42.28549" lon="2.25958">
        <ele>1977</ele>
        <time>2010-01-01T03:23:06Z</time>
      </trkpt>
      <trkpt lat="42.28549" lon="2.25955">
        <ele>1977</ele>
        <time>2010-01-01T03:23:07Z</time>
      </trkpt>
      <trkpt lat="42.28548" lon="2.25953">
        <ele>1977</ele>
        <time>2010-01-01T03:23:07Z</time>
      </trkpt>
      <trkpt lat="42.28548" lon="2.2595">
        <ele>1978</ele>
        <time>2010-01-01T03:23:08Z</time>
      </trkpt>
      <trkpt lat="42.28547" lon="2.25947">
        <ele>1978</ele>
        <time>2010-01-01T03:23:09Z</time>
      </trkpt>
      <trkpt lat="42.28546" lon="2.25944">
        <ele>1979</ele>
        <time>2010-01-01T03:23:10Z</time>
      </trkpt>
      <trkpt lat="42.28545" lon="2.25941">
        <ele>1979</ele>
        <time>2010-01-01T03:23:11Z</time>
      </trkpt>
      <trkpt lat="42.28544" lon="2.25938">
        <ele>1979</ele>
        <time>2010-01-01T03:23:12Z</time>
      </trkpt>
      <trkpt lat="42.28544" lon="2.25935">
        <ele>1979</ele>
        <time>2010-01-01T03:23:13Z</time>
      </trkpt>
      <trkpt lat="42.28543" lon="2.25932">
        <ele>1979</ele>
        <time>2010-01-01T03:23:14Z</time>
      </trkpt>
      <trkpt lat="42.28543" lon="2.25928">
        <ele>1979</ele>
        <time>2010-01-01T03:23:15Z</time>
      </trkpt>
      <trkpt lat="42.28542" lon="2.25926">
        <ele>1979</ele>
        <time>2010-01-01T03:23:16Z</time>
      </trkpt>
      <trkpt lat="42.28541" lon="2.25923">
        <ele>1979</ele>
        <time>2010-01-01T03:23:17Z</time>
      </trkpt>
      <trkpt lat="42.28541" lon="2.25919">
        <ele>1979</ele>
        <time>2010-01-01T03:23:18Z</time>
      </trkpt>
      <trkpt lat="42.2854" lon="2.25917">
        <ele>1979</ele>
        <time>2010-01-01T03:23:19Z</time>
      </trkpt>
      <trkpt lat="42.28539" lon="2.25913">
        <ele>1980</ele>
        <time>2010-01-01T03:23:20Z</time>
      </trkpt>
      <trkpt lat="42.28538" lon="2.25909">
        <ele>1980</ele>
        <time>2010-01-01T03:23:21Z</time>
      </trkpt>
      <trkpt lat="42.28537" lon="2.25906">
        <ele>1980</ele>
        <time>2010-01-01T03:23:22Z</time>
      </trkpt>
      <trkpt lat="42.28536" lon="2.25902">
        <ele>1981</ele>
        <time>2010-01-01T03:23:23Z</time>
      </trkpt>
      <trkpt lat="42.28536" lon="2.259">
        <ele>1981</ele>
        <time>2010-01-01T03:23:24Z</time>
      </trkpt>
      <trkpt lat="42.28534" lon="2.25897">
        <ele>1981</ele>
        <time>2010-01-01T03:23:25Z</time>
      </trkpt>
      <trkpt lat="42.28534" lon="2.25893">
        <ele>1982</ele>
        <time>2010-01-01T03:23:26Z</time>
      </trkpt>
      <trkpt lat="42.28533" lon="2.2589">
        <ele>1982</ele>
        <time>2010-01-01T03:23:27Z</time>
      </trkpt>
      <trkpt lat="42.28533" lon="2.25887">
        <ele>1982</ele>
        <time>2010-01-01T03:23:28Z</time>
      </trkpt>
      <trkpt lat="42.28533" lon="2.25884">
        <ele>1982</ele>
        <time>2010-01-01T03:23:29Z</time>
      </trkpt>
      <trkpt lat="42.28532" lon="2.25881">
        <ele>1982</ele>
        <time>2010-01-01T03:23:30Z</time>
      </trkpt>
      <trkpt lat="42.28531" lon="2.25878">
        <ele>1982</ele>
        <time>2010-01-01T03:23:31Z</time>
      </trkpt>
      <trkpt lat="42.2853" lon="2.25875">
        <ele>1983</ele>
        <time>2010-01-01T03:23:32Z</time>
      </trkpt>
      <trkpt lat="42.2853" lon="2.25872">
        <ele>1983</ele>
        <time>2010-01-01T03:23:33Z</time>
      </trkpt>
      <trkpt lat="42.28529" lon="2.25868">
        <ele>1983</ele>
        <time>2010-01-01T03:23:34Z</time>
      </trkpt>
      <trkpt lat="42.28528" lon="2.25864">
        <ele>1983</ele>
        <time>2010-01-01T03:23:35Z</time>
      </trkpt>
      <trkpt lat="42.28527" lon="2.25861">
        <ele>1984</ele>
        <time>2010-01-01T03:23:36Z</time>
      </trkpt>
      <trkpt lat="42.28525" lon="2.25858">
        <ele>1984</ele>
        <time>2010-01-01T03:23:37Z</time>
      </trkpt>
      <trkpt lat="42.28524" lon="2.25855">
        <ele>1984</ele>
        <time>2010-01-01T03:23:38Z</time>
      </trkpt>
      <trkpt lat="42.28523" lon="2.25852">
        <ele>1984</ele>
        <time>2010-01-01T03:23:39Z</time>
      </trkpt>
      <trkpt lat="42.28522" lon="2.25849">
        <ele>1984</ele>
        <time>2010-01-01T03:23:40Z</time>
      </trkpt>
      <trkpt lat="42.28522" lon="2.25845">
        <ele>1984</ele>
        <time>2010-01-01T03:23:41Z</time>
      </trkpt>
      <trkpt lat="42.28521" lon="2.25843">
        <ele>1984</ele>
        <time>2010-01-01T03:23:42Z</time>
      </trkpt>
      <trkpt lat="42.28521" lon="2.2584">
        <ele>1984</ele>
        <time>2010-01-01T03:23:43Z</time>
      </trkpt>
      <trkpt lat="42.28521" lon="2.25837">
        <ele>1984</ele>
        <time>2010-01-01T03:23:44Z</time>
      </trkpt>
      <trkpt lat="42.28521" lon="2.25834">
        <ele>1984</ele>
        <time>2010-01-01T03:23:45Z</time>
      </trkpt>
      <trkpt lat="42.28521" lon="2.25831">
        <ele>1984</ele>
        <time>2010-01-01T03:23:45Z</time>
      </trkpt>
      <trkpt lat="42.28521" lon="2.25827">
        <ele>1984</ele>
        <time>2010-01-01T03:23:46Z</time>
      </trkpt>
      <trkpt lat="42.2852" lon="2.25824">
        <ele>1984</ele>
        <time>2010-01-01T03:23:47Z</time>
      </trkpt>
      <trkpt lat="42.28519" lon="2.25821">
        <ele>1984</ele>
        <time>2010-01-01T03:23:48Z</time>
      </trkpt>
      <trkpt lat="42.28518" lon="2.25818">
        <ele>1984</ele>
        <time>2010-01-01T03:23:49Z</time>
      </trkpt>
      <trkpt lat="42.28518" lon="2.25816">
        <ele>1984</ele>
        <time>2010-01-01T03:23:50Z</time>
      </trkpt>
      <trkpt lat="42.28519" lon="2.25813">
        <ele>1984</ele>
        <time>2010-01-01T03:23:51Z</time>
      </trkpt>
      <trkpt lat="42.28519" lon="2.2581">
        <ele>1984</ele>
        <time>2010-01-01T03:23:52Z</time>
      </trkpt>
      <trkpt lat="42.28518" lon="2.25805">
        <ele>1984</ele>
        <time>2010-01-01T03:23:53Z</time>
      </trkpt>
      <trkpt lat="42.28518" lon="2.25799">
        <ele>1984</ele>
        <time>2010-01-01T03:23:55Z</time>
      </trkpt>
      <trkpt lat="42.28517" lon="2.25795">
        <ele>1984</ele>
        <time>2010-01-01T03:23:56Z</time>
      </trkpt>
      <trkpt lat="42.28516" lon="2.2579">
        <ele>1984</ele>
        <time>2010-01-01T03:23:58Z</time>
      </trkpt>
      <trkpt lat="42.28514" lon="2.25785">
        <ele>1984</ele>
        <time>2010-01-01T03:23:59Z</time>
      </trkpt>
      <trkpt lat="42.28513" lon="2.25779">
        <ele>1985</ele>
        <time>2010-01-01T03:24:01Z</time>
      </trkpt>
      <trkpt lat="42.28512" lon="2.25774">
        <ele>1985</ele>
        <time>2010-01-01T03:24:03Z</time>
      </trkpt>
      <trkpt lat="42.28511" lon="2.25767">
        <ele>1984</ele>
        <time>2010-01-01T03:24:05Z</time>
      </trkpt>
      <trkpt lat="42.2851" lon="2.25762">
        <ele>1984</ele>
        <time>2010-01-01T03:24:06Z</time>
      </trkpt>
      <trkpt lat="42.28509" lon="2.25758">
        <ele>1984</ele>
        <time>2010-01-01T03:24:08Z</time>
      </trkpt>
      <trkpt lat="42.28508" lon="2.25753">
        <ele>1984</ele>
        <time>2010-01-01T03:24:09Z</time>
      </trkpt>
      <trkpt lat="42.28507" lon="2.25748">
        <ele>1984</ele>
        <time>2010-01-01T03:24:11Z</time>
      </trkpt>
      <trkpt lat="42.28506" lon="2.25742">
        <ele>1984</ele>
        <time>2010-01-01T03:24:12Z</time>
      </trkpt>
      <trkpt lat="42.28504" lon="2.25738">
        <ele>1984</ele>
        <time>2010-01-01T03:24:14Z</time>
      </trkpt>
      <trkpt lat="42.28503" lon="2.25733">
        <ele>1984</ele>
        <time>2010-01-01T03:24:15Z</time>
      </trkpt>
      <trkpt lat="42.28502" lon="2.2573">
        <ele>1984</ele>
        <time>2010-01-01T03:24:16Z</time>
      </trkpt>
      <trkpt lat="42.28501" lon="2.25727">
        <ele>1984</ele>
        <time>2010-01-01T03:24:17Z</time>
      </trkpt>
      <trkpt lat="42.285" lon="2.25724">
        <ele>1984</ele>
        <time>2010-01-01T03:24:18Z</time>
      </trkpt>
      <trkpt lat="42.28498" lon="2.2572">
        <ele>1983</ele>
        <time>2010-01-01T03:24:20Z</time>
      </trkpt>
      <trkpt lat="42.28497" lon="2.25717">
        <ele>1983</ele>
        <time>2010-01-01T03:24:21Z</time>
      </trkpt>
      <trkpt lat="42.28497" lon="2.25713">
        <ele>1983</ele>
        <time>2010-01-01T03:24:22Z</time>
      </trkpt>
      <trkpt lat="42.28496" lon="2.2571">
        <ele>1983</ele>
        <time>2010-01-01T03:24:23Z</time>
      </trkpt>
      <trkpt lat="42.28495" lon="2.25707">
        <ele>1983</ele>
        <time>2010-01-01T03:24:24Z</time>
      </trkpt>
      <trkpt lat="42.28494" lon="2.25703">
        <ele>1983</ele>
        <time>2010-01-01T03:24:25Z</time>
      </trkpt>
      <trkpt lat="42.28493" lon="2.25699">
        <ele>1983</ele>
        <time>2010-01-01T03:24:26Z</time>
      </trkpt>
      <trkpt lat="42.28493" lon="2.25696">
        <ele>1983</ele>
        <time>2010-01-01T03:24:27Z</time>
      </trkpt>
      <trkpt lat="42.28492" lon="2.25693">
        <ele>1983</ele>
        <time>2010-01-01T03:24:28Z</time>
      </trkpt>
      <trkpt lat="42.28491" lon="2.2569">
        <ele>1983</ele>
        <time>2010-01-01T03:24:29Z</time>
      </trkpt>
      <trkpt lat="42.2849" lon="2.25687">
        <ele>1983</ele>
        <time>2010-01-01T03:24:30Z</time>
      </trkpt>
      <trkpt lat="42.2849" lon="2.25684">
        <ele>1982</ele>
        <time>2010-01-01T03:24:31Z</time>
      </trkpt>
      <trkpt lat="42.2849" lon="2.2568">
        <ele>1982</ele>
        <time>2010-01-01T03:24:32Z</time>
      </trkpt>
      <trkpt lat="42.28489" lon="2.25677">
        <ele>1982</ele>
        <time>2010-01-01T03:24:33Z</time>
      </trkpt>
      <trkpt lat="42.28488" lon="2.25674">
        <ele>1982</ele>
        <time>2010-01-01T03:24:34Z</time>
      </trkpt>
      <trkpt lat="42.28488" lon="2.25671">
        <ele>1982</ele>
        <time>2010-01-01T03:24:35Z</time>
      </trkpt>
      <trkpt lat="42.28488" lon="2.25667">
        <ele>1982</ele>
        <time>2010-01-01T03:24:36Z</time>
      </trkpt>
      <trkpt lat="42.28487" lon="2.25664">
        <ele>1982</ele>
        <time>2010-01-01T03:24:37Z</time>
      </trkpt>
      <trkpt lat="42.28487" lon="2.25661">
        <ele>1982</ele>
        <time>2010-01-01T03:24:38Z</time>
      </trkpt>
      <trkpt lat="42.28486" lon="2.25659">
        <ele>1982</ele>
        <time>2010-01-01T03:24:39Z</time>
      </trkpt>
      <trkpt lat="42.28486" lon="2.25656">
        <ele>1982</ele>
        <time>2010-01-01T03:24:40Z</time>
      </trkpt>
      <trkpt lat="42.28485" lon="2.25652">
        <ele>1982</ele>
        <time>2010-01-01T03:24:41Z</time>
      </trkpt>
      <trkpt lat="42.28484" lon="2.2565">
        <ele>1982</ele>
        <time>2010-01-01T03:24:41Z</time>
      </trkpt>
      <trkpt lat="42.28484" lon="2.25647">
        <ele>1982</ele>
        <time>2010-01-01T03:24:42Z</time>
      </trkpt>
      <trkpt lat="42.28483" lon="2.25645">
        <ele>1982</ele>
        <time>2010-01-01T03:24:43Z</time>
      </trkpt>
      <trkpt lat="42.28483" lon="2.25642">
        <ele>1982</ele>
        <time>2010-01-01T03:24:44Z</time>
      </trkpt>
      <trkpt lat="42.28482" lon="2.2564">
        <ele>1982</ele>
        <time>2010-01-01T03:24:44Z</time>
      </trkpt>
      <trkpt lat="42.28481" lon="2.25637">
        <ele>1982</ele>
        <time>2010-01-01T03:24:45Z</time>
      </trkpt>
      <trkpt lat="42.2848" lon="2.25635">
        <ele>1982</ele>
        <time>2010-01-01T03:24:46Z</time>
      </trkpt>
      <trkpt lat="42.28479" lon="2.25632">
        <ele>1983</ele>
        <time>2010-01-01T03:24:47Z</time>
      </trkpt>
      <trkpt lat="42.28478" lon="2.25629">
        <ele>1984</ele>
        <time>2010-01-01T03:24:48Z</time>
      </trkpt>
      <trkpt lat="42.28477" lon="2.25627">
        <ele>1984</ele>
        <time>2010-01-01T03:24:49Z</time>
      </trkpt>
      <trkpt lat="42.28476" lon="2.25624">
        <ele>1985</ele>
        <time>2010-01-01T03:24:50Z</time>
      </trkpt>
      <trkpt lat="42.28475" lon="2.25621">
        <ele>1985</ele>
        <time>2010-01-01T03:24:51Z</time>
      </trkpt>
      <trkpt lat="42.28474" lon="2.2562">
        <ele>1986</ele>
        <time>2010-01-01T03:24:51Z</time>
      </trkpt>
      <trkpt lat="42.28472" lon="2.25618">
        <ele>1986</ele>
        <time>2010-01-01T03:24:52Z</time>
      </trkpt>
      <trkpt lat="42.28471" lon="2.25615">
        <ele>1987</ele>
        <time>2010-01-01T03:24:53Z</time>
      </trkpt>
      <trkpt lat="42.28471" lon="2.25612">
        <ele>1987</ele>
        <time>2010-01-01T03:24:54Z</time>
      </trkpt>
      <trkpt lat="42.2847" lon="2.25608">
        <ele>1987</ele>
        <time>2010-01-01T03:24:55Z</time>
      </trkpt>
      <trkpt lat="42.28469" lon="2.25606">
        <ele>1987</ele>
        <time>2010-01-01T03:24:56Z</time>
      </trkpt>
      <trkpt lat="42.28468" lon="2.25602">
        <ele>1987</ele>
        <time>2010-01-01T03:24:57Z</time>
      </trkpt>
      <trkpt lat="42.28468" lon="2.256">
        <ele>1987</ele>
        <time>2010-01-01T03:24:58Z</time>
      </trkpt>
      <trkpt lat="42.28467" lon="2.25597">
        <ele>1986</ele>
        <time>2010-01-01T03:24:59Z</time>
      </trkpt>
      <trkpt lat="42.28465" lon="2.25593">
        <ele>1986</ele>
        <time>2010-01-01T03:25:00Z</time>
      </trkpt>
      <trkpt lat="42.28463" lon="2.25588">
        <ele>1986</ele>
        <time>2010-01-01T03:25:02Z</time>
      </trkpt>
      <trkpt lat="42.28461" lon="2.25582">
        <ele>1986</ele>
        <time>2010-01-01T03:25:04Z</time>
      </trkpt>
      <trkpt lat="42.28459" lon="2.25577">
        <ele>1986</ele>
        <time>2010-01-01T03:25:05Z</time>
      </trkpt>
      <trkpt lat="42.28457" lon="2.25572">
        <ele>1986</ele>
        <time>2010-01-01T03:25:07Z</time>
      </trkpt>
      <trkpt lat="42.28455" lon="2.25567">
        <ele>1986</ele>
        <time>2010-01-01T03:25:09Z</time>
      </trkpt>
      <trkpt lat="42.28453" lon="2.25562">
        <ele>1986</ele>
        <time>2010-01-01T03:25:10Z</time>
      </trkpt>
      <trkpt lat="42.28451" lon="2.25557">
        <ele>1986</ele>
        <time>2010-01-01T03:25:12Z</time>
      </trkpt>
      <trkpt lat="42.28449" lon="2.25551">
        <ele>1987</ele>
        <time>2010-01-01T03:25:14Z</time>
      </trkpt>
      <trkpt lat="42.28449" lon="2.25548">
        <ele>1988</ele>
        <time>2010-01-01T03:25:15Z</time>
      </trkpt>
      <trkpt lat="42.28448" lon="2.25545">
        <ele>1988</ele>
        <time>2010-01-01T03:25:16Z</time>
      </trkpt>
      <trkpt lat="42.28448" lon="2.25541">
        <ele>1989</ele>
        <time>2010-01-01T03:25:17Z</time>
      </trkpt>
      <trkpt lat="42.28447" lon="2.25539">
        <ele>1989</ele>
        <time>2010-01-01T03:25:18Z</time>
      </trkpt>
      <trkpt lat="42.28447" lon="2.25537">
        <ele>1990</ele>
        <time>2010-01-01T03:25:19Z</time>
      </trkpt>
      <trkpt lat="42.28446" lon="2.25534">
        <ele>1990</ele>
        <time>2010-01-01T03:25:19Z</time>
      </trkpt>
      <trkpt lat="42.28445" lon="2.25531">
        <ele>1991</ele>
        <time>2010-01-01T03:25:20Z</time>
      </trkpt>
      <trkpt lat="42.28444" lon="2.25528">
        <ele>1991</ele>
        <time>2010-01-01T03:25:21Z</time>
      </trkpt>
      <trkpt lat="42.28444" lon="2.25525">
        <ele>1992</ele>
        <time>2010-01-01T03:25:22Z</time>
      </trkpt>
      <trkpt lat="42.28443" lon="2.25522">
        <ele>1992</ele>
        <time>2010-01-01T03:25:23Z</time>
      </trkpt>
      <trkpt lat="42.28442" lon="2.25519">
        <ele>1993</ele>
        <time>2010-01-01T03:25:24Z</time>
      </trkpt>
      <trkpt lat="42.28443" lon="2.25517">
        <ele>1993</ele>
        <time>2010-01-01T03:25:25Z</time>
      </trkpt>
      <trkpt lat="42.28443" lon="2.25514">
        <ele>1993</ele>
        <time>2010-01-01T03:25:25Z</time>
      </trkpt>
      <trkpt lat="42.28443" lon="2.25511">
        <ele>1994</ele>
        <time>2010-01-01T03:25:26Z</time>
      </trkpt>
      <trkpt lat="42.28443" lon="2.25509">
        <ele>1994</ele>
        <time>2010-01-01T03:25:27Z</time>
      </trkpt>
      <trkpt lat="42.28443" lon="2.25506">
        <ele>1995</ele>
        <time>2010-01-01T03:25:28Z</time>
      </trkpt>
      <trkpt lat="42.28443" lon="2.25503">
        <ele>1995</ele>
        <time>2010-01-01T03:25:29Z</time>
      </trkpt>
      <trkpt lat="42.28443" lon="2.255">
        <ele>1995</ele>
        <time>2010-01-01T03:25:30Z</time>
      </trkpt>
      <trkpt lat="42.28443" lon="2.25497">
        <ele>1996</ele>
        <time>2010-01-01T03:25:31Z</time>
      </trkpt>
      <trkpt lat="42.28443" lon="2.25495">
        <ele>1996</ele>
        <time>2010-01-01T03:25:31Z</time>
      </trkpt>
      <trkpt lat="42.28443" lon="2.25492">
        <ele>1996</ele>
        <time>2010-01-01T03:25:32Z</time>
      </trkpt>
      <trkpt lat="42.28444" lon="2.25489">
        <ele>1997</ele>
        <time>2010-01-01T03:25:33Z</time>
      </trkpt>
      <trkpt lat="42.28443" lon="2.25487">
        <ele>1997</ele>
        <time>2010-01-01T03:25:34Z</time>
      </trkpt>
      <trkpt lat="42.28443" lon="2.25484">
        <ele>1997</ele>
        <time>2010-01-01T03:25:35Z</time>
      </trkpt>
      <trkpt lat="42.28444" lon="2.25481">
        <ele>1998</ele>
        <time>2010-01-01T03:25:35Z</time>
      </trkpt>
      <trkpt lat="42.28443" lon="2.25478">
        <ele>1998</ele>
        <time>2010-01-01T03:25:36Z</time>
      </trkpt>
      <trkpt lat="42.28444" lon="2.25476">
        <ele>1998</ele>
        <time>2010-01-01T03:25:37Z</time>
      </trkpt>
      <trkpt lat="42.28444" lon="2.25473">
        <ele>1998</ele>
        <time>2010-01-01T03:25:38Z</time>
      </trkpt>
      <trkpt lat="42.28444" lon="2.2547">
        <ele>1998</ele>
        <time>2010-01-01T03:25:39Z</time>
      </trkpt>
      <trkpt lat="42.28444" lon="2.25468">
        <ele>1998</ele>
        <time>2010-01-01T03:25:39Z</time>
      </trkpt>
      <trkpt lat="42.28443" lon="2.25465">
        <ele>1998</ele>
        <time>2010-01-01T03:25:40Z</time>
      </trkpt>
      <trkpt lat="42.28443" lon="2.25463">
        <ele>1998</ele>
        <time>2010-01-01T03:25:41Z</time>
      </trkpt>
      <trkpt lat="42.28443" lon="2.2546">
        <ele>1998</ele>
        <time>2010-01-01T03:25:42Z</time>
      </trkpt>
      <trkpt lat="42.28442" lon="2.25457">
        <ele>1997</ele>
        <time>2010-01-01T03:25:43Z</time>
      </trkpt>
      <trkpt lat="42.28441" lon="2.25455">
        <ele>1997</ele>
        <time>2010-01-01T03:25:43Z</time>
      </trkpt>
      <trkpt lat="42.2844" lon="2.25452">
        <ele>1997</ele>
        <time>2010-01-01T03:25:44Z</time>
      </trkpt>
      <trkpt lat="42.28439" lon="2.2545">
        <ele>1997</ele>
        <time>2010-01-01T03:25:45Z</time>
      </trkpt>
      <trkpt lat="42.28438" lon="2.25447">
        <ele>1996</ele>
        <time>2010-01-01T03:25:46Z</time>
      </trkpt>
      <trkpt lat="42.28437" lon="2.25445">
        <ele>1996</ele>
        <time>2010-01-01T03:25:47Z</time>
      </trkpt>
      <trkpt lat="42.28437" lon="2.25442">
        <ele>1996</ele>
        <time>2010-01-01T03:25:48Z</time>
      </trkpt>
      <trkpt lat="42.28436" lon="2.25439">
        <ele>1997</ele>
        <time>2010-01-01T03:25:49Z</time>
      </trkpt>
      <trkpt lat="42.28435" lon="2.25436">
        <ele>1997</ele>
        <time>2010-01-01T03:25:49Z</time>
      </trkpt>
      <trkpt lat="42.28435" lon="2.25432">
        <ele>1997</ele>
        <time>2010-01-01T03:25:51Z</time>
      </trkpt>
      <trkpt lat="42.28434" lon="2.2543">
        <ele>1997</ele>
        <time>2010-01-01T03:25:51Z</time>
      </trkpt>
      <trkpt lat="42.28434" lon="2.25427">
        <ele>1997</ele>
        <time>2010-01-01T03:25:52Z</time>
      </trkpt>
      <trkpt lat="42.28433" lon="2.25424">
        <ele>1998</ele>
        <time>2010-01-01T03:25:53Z</time>
      </trkpt>
      <trkpt lat="42.28433" lon="2.25421">
        <ele>1998</ele>
        <time>2010-01-01T03:25:54Z</time>
      </trkpt>
      <trkpt lat="42.28433" lon="2.25418">
        <ele>1998</ele>
        <time>2010-01-01T03:25:55Z</time>
      </trkpt>
      <trkpt lat="42.28432" lon="2.25416">
        <ele>1998</ele>
        <time>2010-01-01T03:25:55Z</time>
      </trkpt>
      <trkpt lat="42.28432" lon="2.25413">
        <ele>1998</ele>
        <time>2010-01-01T03:25:57Z</time>
      </trkpt>
      <trkpt lat="42.28431" lon="2.2541">
        <ele>1999</ele>
        <time>2010-01-01T03:25:57Z</time>
      </trkpt>
      <trkpt lat="42.28431" lon="2.25407">
        <ele>1999</ele>
        <time>2010-01-01T03:25:58Z</time>
      </trkpt>
      <trkpt lat="42.28431" lon="2.25404">
        <ele>1999</ele>
        <time>2010-01-01T03:25:59Z</time>
      </trkpt>
      <trkpt lat="42.28431" lon="2.254">
        <ele>2000</ele>
        <time>2010-01-01T03:26:00Z</time>
      </trkpt>
      <trkpt lat="42.2843" lon="2.25397">
        <ele>2000</ele>
        <time>2010-01-01T03:26:01Z</time>
      </trkpt>
      <trkpt lat="42.2843" lon="2.25395">
        <ele>2000</ele>
        <time>2010-01-01T03:26:02Z</time>
      </trkpt>
      <trkpt lat="42.2843" lon="2.25391">
        <ele>2001</ele>
        <time>2010-01-01T03:26:03Z</time>
      </trkpt>
      <trkpt lat="42.2843" lon="2.25388">
        <ele>2001</ele>
        <time>2010-01-01T03:26:04Z</time>
      </trkpt>
      <trkpt lat="42.28429" lon="2.25386">
        <ele>2001</ele>
        <time>2010-01-01T03:26:05Z</time>
      </trkpt>
      <trkpt lat="42.28428" lon="2.25383">
        <ele>2002</ele>
        <time>2010-01-01T03:26:06Z</time>
      </trkpt>
      <trkpt lat="42.28427" lon="2.2538">
        <ele>2002</ele>
        <time>2010-01-01T03:26:07Z</time>
      </trkpt>
      <trkpt lat="42.28426" lon="2.25376">
        <ele>2002</ele>
        <time>2010-01-01T03:26:08Z</time>
      </trkpt>
      <trkpt lat="42.28425" lon="2.25373">
        <ele>2003</ele>
        <time>2010-01-01T03:26:09Z</time>
      </trkpt>
      <trkpt lat="42.28424" lon="2.25369">
        <ele>2003</ele>
        <time>2010-01-01T03:26:10Z</time>
      </trkpt>
      <trkpt lat="42.28424" lon="2.25365">
        <ele>2004</ele>
        <time>2010-01-01T03:26:11Z</time>
      </trkpt>
      <trkpt lat="42.28423" lon="2.25361">
        <ele>2004</ele>
        <time>2010-01-01T03:26:12Z</time>
      </trkpt>
      <trkpt lat="42.28422" lon="2.25356">
        <ele>2005</ele>
        <time>2010-01-01T03:26:14Z</time>
      </trkpt>
      <trkpt lat="42.28421" lon="2.25351">
        <ele>2005</ele>
        <time>2010-01-01T03:26:15Z</time>
      </trkpt>
      <trkpt lat="42.28419" lon="2.25347">
        <ele>2005</ele>
        <time>2010-01-01T03:26:17Z</time>
      </trkpt>
      <trkpt lat="42.28417" lon="2.25342">
        <ele>2006</ele>
        <time>2010-01-01T03:26:19Z</time>
      </trkpt>
      <trkpt lat="42.28416" lon="2.25337">
        <ele>2006</ele>
        <time>2010-01-01T03:26:20Z</time>
      </trkpt>
      <trkpt lat="42.28415" lon="2.25333">
        <ele>2006</ele>
        <time>2010-01-01T03:26:21Z</time>
      </trkpt>
      <trkpt lat="42.28413" lon="2.2533">
        <ele>2006</ele>
        <time>2010-01-01T03:26:23Z</time>
      </trkpt>
      <trkpt lat="42.28411" lon="2.25326">
        <ele>2006</ele>
        <time>2010-01-01T03:26:24Z</time>
      </trkpt>
      <trkpt lat="42.28408" lon="2.25322">
        <ele>2005</ele>
        <time>2010-01-01T03:26:26Z</time>
      </trkpt>
      <trkpt lat="42.28406" lon="2.25318">
        <ele>2005</ele>
        <time>2010-01-01T03:26:27Z</time>
      </trkpt>
      <trkpt lat="42.28404" lon="2.25313">
        <ele>2005</ele>
        <time>2010-01-01T03:26:29Z</time>
      </trkpt>
      <trkpt lat="42.28403" lon="2.25308">
        <ele>2005</ele>
        <time>2010-01-01T03:26:30Z</time>
      </trkpt>
      <trkpt lat="42.28402" lon="2.25303">
        <ele>2005</ele>
        <time>2010-01-01T03:26:32Z</time>
      </trkpt>
      <trkpt lat="42.284" lon="2.25298">
        <ele>2005</ele>
        <time>2010-01-01T03:26:34Z</time>
      </trkpt>
      <trkpt lat="42.28399" lon="2.25293">
        <ele>2004</ele>
        <time>2010-01-01T03:26:35Z</time>
      </trkpt>
      <trkpt lat="42.28398" lon="2.2529">
        <ele>2004</ele>
        <time>2010-01-01T03:26:36Z</time>
      </trkpt>
      <trkpt lat="42.28398" lon="2.25287">
        <ele>2004</ele>
        <time>2010-01-01T03:26:37Z</time>
      </trkpt>
      <trkpt lat="42.28398" lon="2.25284">
        <ele>2004</ele>
        <time>2010-01-01T03:26:38Z</time>
      </trkpt>
      <trkpt lat="42.28397" lon="2.25281">
        <ele>2004</ele>
        <time>2010-01-01T03:26:39Z</time>
      </trkpt>
      <trkpt lat="42.28396" lon="2.25278">
        <ele>2004</ele>
        <time>2010-01-01T03:26:40Z</time>
      </trkpt>
      <trkpt lat="42.28395" lon="2.25274">
        <ele>2003</ele>
        <time>2010-01-01T03:26:41Z</time>
      </trkpt>
      <trkpt lat="42.28395" lon="2.25271">
        <ele>2002</ele>
        <time>2010-01-01T03:26:42Z</time>
      </trkpt>
      <trkpt lat="42.28394" lon="2.25268">
        <ele>2001</ele>
        <time>2010-01-01T03:26:43Z</time>
      </trkpt>
      <trkpt lat="42.28394" lon="2.25265">
        <ele>2001</ele>
        <time>2010-01-01T03:26:44Z</time>
      </trkpt>
      <trkpt lat="42.28393" lon="2.25262">
        <ele>2000</ele>
        <time>2010-01-01T03:26:45Z</time>
      </trkpt>
      <trkpt lat="42.28393" lon="2.25259">
        <ele>2000</ele>
        <time>2010-01-01T03:26:45Z</time>
      </trkpt>
      <trkpt lat="42.28392" lon="2.25256">
        <ele>1999</ele>
        <time>2010-01-01T03:26:46Z</time>
      </trkpt>
      <trkpt lat="42.28392" lon="2.25253">
        <ele>1999</ele>
        <time>2010-01-01T03:26:47Z</time>
      </trkpt>
      <trkpt lat="42.28393" lon="2.2525">
        <ele>1998</ele>
        <time>2010-01-01T03:26:48Z</time>
      </trkpt>
      <trkpt lat="42.28393" lon="2.25246">
        <ele>1998</ele>
        <time>2010-01-01T03:26:49Z</time>
      </trkpt>
      <trkpt lat="42.28393" lon="2.25243">
        <ele>1998</ele>
        <time>2010-01-01T03:26:50Z</time>
      </trkpt>
      <trkpt lat="42.28393" lon="2.25239">
        <ele>1998</ele>
        <time>2010-01-01T03:26:51Z</time>
      </trkpt>
      <trkpt lat="42.28393" lon="2.25236">
        <ele>1998</ele>
        <time>2010-01-01T03:26:52Z</time>
      </trkpt>
      <trkpt lat="42.28393" lon="2.25233">
        <ele>1997</ele>
        <time>2010-01-01T03:26:53Z</time>
      </trkpt>
      <trkpt lat="42.28393" lon="2.25229">
        <ele>1997</ele>
        <time>2010-01-01T03:26:54Z</time>
      </trkpt>
      <trkpt lat="42.28393" lon="2.25225">
        <ele>1997</ele>
        <time>2010-01-01T03:26:55Z</time>
      </trkpt>
      <trkpt lat="42.28394" lon="2.25222">
        <ele>1997</ele>
        <time>2010-01-01T03:26:56Z</time>
      </trkpt>
      <trkpt lat="42.28394" lon="2.25219">
        <ele>1996</ele>
        <time>2010-01-01T03:26:57Z</time>
      </trkpt>
      <trkpt lat="42.28394" lon="2.25215">
        <ele>1996</ele>
        <time>2010-01-01T03:26:58Z</time>
      </trkpt>
      <trkpt lat="42.28394" lon="2.25212">
        <ele>1996</ele>
        <time>2010-01-01T03:26:59Z</time>
      </trkpt>
      <trkpt lat="42.28393" lon="2.25209">
        <ele>1995</ele>
        <time>2010-01-01T03:27:00Z</time>
      </trkpt>
      <trkpt lat="42.28393" lon="2.25206">
        <ele>1995</ele>
        <time>2010-01-01T03:27:01Z</time>
      </trkpt>
      <trkpt lat="42.28393" lon="2.25204">
        <ele>1994</ele>
        <time>2010-01-01T03:27:02Z</time>
      </trkpt>
      <trkpt lat="42.28393" lon="2.25201">
        <ele>1994</ele>
        <time>2010-01-01T03:27:03Z</time>
      </trkpt>
      <trkpt lat="42.28393" lon="2.25198">
        <ele>1993</ele>
        <time>2010-01-01T03:27:04Z</time>
      </trkpt>
      <trkpt lat="42.28393" lon="2.25195">
        <ele>1993</ele>
        <time>2010-01-01T03:27:04Z</time>
      </trkpt>
      <trkpt lat="42.28394" lon="2.25192">
        <ele>1993</ele>
        <time>2010-01-01T03:27:05Z</time>
      </trkpt>
      <trkpt lat="42.28394" lon="2.25188">
        <ele>1993</ele>
        <time>2010-01-01T03:27:06Z</time>
      </trkpt>
      <trkpt lat="42.28395" lon="2.25185">
        <ele>1993</ele>
        <time>2010-01-01T03:27:07Z</time>
      </trkpt>
      <trkpt lat="42.28396" lon="2.25182">
        <ele>1993</ele>
        <time>2010-01-01T03:27:08Z</time>
      </trkpt>
      <trkpt lat="42.28396" lon="2.2518">
        <ele>1993</ele>
        <time>2010-01-01T03:27:09Z</time>
      </trkpt>
      <trkpt lat="42.28396" lon="2.25177">
        <ele>1993</ele>
        <time>2010-01-01T03:27:10Z</time>
      </trkpt>
      <trkpt lat="42.28396" lon="2.25174">
        <ele>1993</ele>
        <time>2010-01-01T03:27:11Z</time>
      </trkpt>
      <trkpt lat="42.28396" lon="2.2517">
        <ele>1993</ele>
        <time>2010-01-01T03:27:12Z</time>
      </trkpt>
      <trkpt lat="42.28397" lon="2.25166">
        <ele>1993</ele>
        <time>2010-01-01T03:27:13Z</time>
      </trkpt>
      <trkpt lat="42.28397" lon="2.25161">
        <ele>1993</ele>
        <time>2010-01-01T03:27:15Z</time>
      </trkpt>
      <trkpt lat="42.28397" lon="2.25157">
        <ele>1992</ele>
        <time>2010-01-01T03:27:16Z</time>
      </trkpt>
      <trkpt lat="42.28396" lon="2.25149">
        <ele>1992</ele>
        <time>2010-01-01T03:27:18Z</time>
      </trkpt>
      <trkpt lat="42.28396" lon="2.25145">
        <ele>1991</ele>
        <time>2010-01-01T03:27:20Z</time>
      </trkpt>
      <trkpt lat="42.28395" lon="2.2514">
        <ele>1991</ele>
        <time>2010-01-01T03:27:21Z</time>
      </trkpt>
      <trkpt lat="42.28395" lon="2.25136">
        <ele>1990</ele>
        <time>2010-01-01T03:27:22Z</time>
      </trkpt>
      <trkpt lat="42.28394" lon="2.25131">
        <ele>1990</ele>
        <time>2010-01-01T03:27:24Z</time>
      </trkpt>
      <trkpt lat="42.28393" lon="2.25126">
        <ele>1989</ele>
        <time>2010-01-01T03:27:25Z</time>
      </trkpt>
      <trkpt lat="42.28392" lon="2.25121">
        <ele>1988</ele>
        <time>2010-01-01T03:27:27Z</time>
      </trkpt>
      <trkpt lat="42.28391" lon="2.25115">
        <ele>1988</ele>
        <time>2010-01-01T03:27:29Z</time>
      </trkpt>
      <trkpt lat="42.28391" lon="2.25112">
        <ele>1987</ele>
        <time>2010-01-01T03:27:29Z</time>
      </trkpt>
      <trkpt lat="42.28391" lon="2.25109">
        <ele>1987</ele>
        <time>2010-01-01T03:27:30Z</time>
      </trkpt>
      <trkpt lat="42.2839" lon="2.25105">
        <ele>1987</ele>
        <time>2010-01-01T03:27:31Z</time>
      </trkpt>
      <trkpt lat="42.2839" lon="2.25102">
        <ele>1986</ele>
        <time>2010-01-01T03:27:33Z</time>
      </trkpt>
      <trkpt lat="42.28389" lon="2.25099">
        <ele>1986</ele>
        <time>2010-01-01T03:27:33Z</time>
      </trkpt>
      <trkpt lat="42.28388" lon="2.25096">
        <ele>1985</ele>
        <time>2010-01-01T03:27:34Z</time>
      </trkpt>
      <trkpt lat="42.28387" lon="2.25093">
        <ele>1984</ele>
        <time>2010-01-01T03:27:35Z</time>
      </trkpt>
      <trkpt lat="42.28386" lon="2.25091">
        <ele>1984</ele>
        <time>2010-01-01T03:27:36Z</time>
      </trkpt>
      <trkpt lat="42.28385" lon="2.25088">
        <ele>1983</ele>
        <time>2010-01-01T03:27:37Z</time>
      </trkpt>
      <trkpt lat="42.28385" lon="2.25085">
        <ele>1983</ele>
        <time>2010-01-01T03:27:38Z</time>
      </trkpt>
      <trkpt lat="42.28384" lon="2.25082">
        <ele>1982</ele>
        <time>2010-01-01T03:27:39Z</time>
      </trkpt>
      <trkpt lat="42.28383" lon="2.2508">
        <ele>1982</ele>
        <time>2010-01-01T03:27:40Z</time>
      </trkpt>
      <trkpt lat="42.28383" lon="2.25077">
        <ele>1982</ele>
        <time>2010-01-01T03:27:41Z</time>
      </trkpt>
      <trkpt lat="42.28383" lon="2.25074">
        <ele>1982</ele>
        <time>2010-01-01T03:27:41Z</time>
      </trkpt>
      <trkpt lat="42.28383" lon="2.25071">
        <ele>1982</ele>
        <time>2010-01-01T03:27:42Z</time>
      </trkpt>
      <trkpt lat="42.28382" lon="2.25069">
        <ele>1982</ele>
        <time>2010-01-01T03:27:43Z</time>
      </trkpt>
      <trkpt lat="42.28382" lon="2.25065">
        <ele>1982</ele>
        <time>2010-01-01T03:27:44Z</time>
      </trkpt>
      <trkpt lat="42.28381" lon="2.25062">
        <ele>1982</ele>
        <time>2010-01-01T03:27:45Z</time>
      </trkpt>
      <trkpt lat="42.28381" lon="2.25059">
        <ele>1982</ele>
        <time>2010-01-01T03:27:46Z</time>
      </trkpt>
      <trkpt lat="42.28381" lon="2.25056">
        <ele>1982</ele>
        <time>2010-01-01T03:27:47Z</time>
      </trkpt>
      <trkpt lat="42.28381" lon="2.25052">
        <ele>1981</ele>
        <time>2010-01-01T03:27:48Z</time>
      </trkpt>
      <trkpt lat="42.28381" lon="2.25049">
        <ele>1981</ele>
        <time>2010-01-01T03:27:49Z</time>
      </trkpt>
      <trkpt lat="42.28382" lon="2.25046">
        <ele>1980</ele>
        <time>2010-01-01T03:27:50Z</time>
      </trkpt>
      <trkpt lat="42.28381" lon="2.25043">
        <ele>1980</ele>
        <time>2010-01-01T03:27:51Z</time>
      </trkpt>
      <trkpt lat="42.28381" lon="2.25041">
        <ele>1979</ele>
        <time>2010-01-01T03:27:51Z</time>
      </trkpt>
      <trkpt lat="42.2838" lon="2.25037">
        <ele>1978</ele>
        <time>2010-01-01T03:27:53Z</time>
      </trkpt>
      <trkpt lat="42.2838" lon="2.25034">
        <ele>1977</ele>
        <time>2010-01-01T03:27:54Z</time>
      </trkpt>
      <trkpt lat="42.2838" lon="2.25031">
        <ele>1977</ele>
        <time>2010-01-01T03:27:54Z</time>
      </trkpt>
      <trkpt lat="42.28379" lon="2.25028">
        <ele>1976</ele>
        <time>2010-01-01T03:27:55Z</time>
      </trkpt>
      <trkpt lat="42.28379" lon="2.25025">
        <ele>1975</ele>
        <time>2010-01-01T03:27:56Z</time>
      </trkpt>
      <trkpt lat="42.28378" lon="2.25022">
        <ele>1974</ele>
        <time>2010-01-01T03:27:57Z</time>
      </trkpt>
      <trkpt lat="42.28377" lon="2.25019">
        <ele>1974</ele>
        <time>2010-01-01T03:27:58Z</time>
      </trkpt>
      <trkpt lat="42.28377" lon="2.25016">
        <ele>1973</ele>
        <time>2010-01-01T03:27:59Z</time>
      </trkpt>
      <trkpt lat="42.28377" lon="2.25014">
        <ele>1972</ele>
        <time>2010-01-01T03:28:00Z</time>
      </trkpt>
      <trkpt lat="42.28377" lon="2.25011">
        <ele>1971</ele>
        <time>2010-01-01T03:28:00Z</time>
      </trkpt>
      <trkpt lat="42.28377" lon="2.25009">
        <ele>1971</ele>
        <time>2010-01-01T03:28:01Z</time>
      </trkpt>
      <trkpt lat="42.28377" lon="2.25006">
        <ele>1970</ele>
        <time>2010-01-01T03:28:02Z</time>
      </trkpt>
      <trkpt lat="42.28377" lon="2.25002">
        <ele>1969</ele>
        <time>2010-01-01T03:28:03Z</time>
      </trkpt>
      <trkpt lat="42.28377" lon="2.24999">
        <ele>1968</ele>
        <time>2010-01-01T03:28:04Z</time>
      </trkpt>
      <trkpt lat="42.28377" lon="2.24996">
        <ele>1968</ele>
        <time>2010-01-01T03:28:05Z</time>
      </trkpt>
      <trkpt lat="42.28377" lon="2.24993">
        <ele>1967</ele>
        <time>2010-01-01T03:28:06Z</time>
      </trkpt>
      <trkpt lat="42.28378" lon="2.2499">
        <ele>1967</ele>
        <time>2010-01-01T03:28:07Z</time>
      </trkpt>
      <trkpt lat="42.28379" lon="2.24988">
        <ele>1967</ele>
        <time>2010-01-01T03:28:07Z</time>
      </trkpt>
      <trkpt lat="42.28379" lon="2.24985">
        <ele>1966</ele>
        <time>2010-01-01T03:28:08Z</time>
      </trkpt>
      <trkpt lat="42.28378" lon="2.24982">
        <ele>1966</ele>
        <time>2010-01-01T03:28:09Z</time>
      </trkpt>
      <trkpt lat="42.28379" lon="2.24979">
        <ele>1965</ele>
        <time>2010-01-01T03:28:10Z</time>
      </trkpt>
      <trkpt lat="42.28379" lon="2.24976">
        <ele>1965</ele>
        <time>2010-01-01T03:28:11Z</time>
      </trkpt>
      <trkpt lat="42.28379" lon="2.24973">
        <ele>1964</ele>
        <time>2010-01-01T03:28:12Z</time>
      </trkpt>
      <trkpt lat="42.28379" lon="2.2497">
        <ele>1964</ele>
        <time>2010-01-01T03:28:13Z</time>
      </trkpt>
      <trkpt lat="42.28379" lon="2.24967">
        <ele>1965</ele>
        <time>2010-01-01T03:28:14Z</time>
      </trkpt>
      <trkpt lat="42.28378" lon="2.24964">
        <ele>1965</ele>
        <time>2010-01-01T03:28:15Z</time>
      </trkpt>
      <trkpt lat="42.28379" lon="2.24961">
        <ele>1965</ele>
        <time>2010-01-01T03:28:15Z</time>
      </trkpt>
      <trkpt lat="42.28378" lon="2.24957">
        <ele>1965</ele>
        <time>2010-01-01T03:28:17Z</time>
      </trkpt>
      <trkpt lat="42.28378" lon="2.24954">
        <ele>1966</ele>
        <time>2010-01-01T03:28:18Z</time>
      </trkpt>
      <trkpt lat="42.28378" lon="2.2495">
        <ele>1966</ele>
        <time>2010-01-01T03:28:19Z</time>
      </trkpt>
      <trkpt lat="42.28378" lon="2.24947">
        <ele>1966</ele>
        <time>2010-01-01T03:28:20Z</time>
      </trkpt>
      <trkpt lat="42.28378" lon="2.24943">
        <ele>1966</ele>
        <time>2010-01-01T03:28:21Z</time>
      </trkpt>
      <trkpt lat="42.28378" lon="2.24939">
        <ele>1967</ele>
        <time>2010-01-01T03:28:22Z</time>
      </trkpt>
      <trkpt lat="42.28379" lon="2.24937">
        <ele>1967</ele>
        <time>2010-01-01T03:28:23Z</time>
      </trkpt>
      <trkpt lat="42.28379" lon="2.24933">
        <ele>1967</ele>
        <time>2010-01-01T03:28:24Z</time>
      </trkpt>
      <trkpt lat="42.28379" lon="2.24931">
        <ele>1968</ele>
        <time>2010-01-01T03:28:25Z</time>
      </trkpt>
      <trkpt lat="42.28379" lon="2.24928">
        <ele>1968</ele>
        <time>2010-01-01T03:28:25Z</time>
      </trkpt>
      <trkpt lat="42.28379" lon="2.24925">
        <ele>1968</ele>
        <time>2010-01-01T03:28:26Z</time>
      </trkpt>
      <trkpt lat="42.28379" lon="2.24923">
        <ele>1968</ele>
        <time>2010-01-01T03:28:27Z</time>
      </trkpt>
      <trkpt lat="42.28379" lon="2.24919">
        <ele>1969</ele>
        <time>2010-01-01T03:28:28Z</time>
      </trkpt>
      <trkpt lat="42.28379" lon="2.24916">
        <ele>1969</ele>
        <time>2010-01-01T03:28:29Z</time>
      </trkpt>
      <trkpt lat="42.28378" lon="2.24912">
        <ele>1969</ele>
        <time>2010-01-01T03:28:30Z</time>
      </trkpt>
      <trkpt lat="42.28378" lon="2.24909">
        <ele>1969</ele>
        <time>2010-01-01T03:28:31Z</time>
      </trkpt>
      <trkpt lat="42.28378" lon="2.24906">
        <ele>1969</ele>
        <time>2010-01-01T03:28:32Z</time>
      </trkpt>
      <trkpt lat="42.28378" lon="2.24902">
        <ele>1970</ele>
        <time>2010-01-01T03:28:33Z</time>
      </trkpt>
      <trkpt lat="42.28378" lon="2.24899">
        <ele>1970</ele>
        <time>2010-01-01T03:28:34Z</time>
      </trkpt>
      <trkpt lat="42.28378" lon="2.24896">
        <ele>1970</ele>
        <time>2010-01-01T03:28:35Z</time>
      </trkpt>
      <trkpt lat="42.28378" lon="2.24894">
        <ele>1970</ele>
        <time>2010-01-01T03:28:36Z</time>
      </trkpt>
      <trkpt lat="42.28377" lon="2.2489">
        <ele>1970</ele>
        <time>2010-01-01T03:28:37Z</time>
      </trkpt>
      <trkpt lat="42.28377" lon="2.24887">
        <ele>1970</ele>
        <time>2010-01-01T03:28:38Z</time>
      </trkpt>
      <trkpt lat="42.28378" lon="2.24883">
        <ele>1970</ele>
        <time>2010-01-01T03:28:39Z</time>
      </trkpt>
      <trkpt lat="42.28378" lon="2.2488">
        <ele>1970</ele>
        <time>2010-01-01T03:28:40Z</time>
      </trkpt>
      <trkpt lat="42.28378" lon="2.24877">
        <ele>1969</ele>
        <time>2010-01-01T03:28:40Z</time>
      </trkpt>
      <trkpt lat="42.28378" lon="2.24874">
        <ele>1969</ele>
        <time>2010-01-01T03:28:42Z</time>
      </trkpt>
      <trkpt lat="42.28377" lon="2.24871">
        <ele>1969</ele>
        <time>2010-01-01T03:28:42Z</time>
      </trkpt>
      <trkpt lat="42.28376" lon="2.24867">
        <ele>1968</ele>
        <time>2010-01-01T03:28:44Z</time>
      </trkpt>
      <trkpt lat="42.28377" lon="2.24864">
        <ele>1968</ele>
        <time>2010-01-01T03:28:45Z</time>
      </trkpt>
      <trkpt lat="42.28377" lon="2.2486">
        <ele>1967</ele>
        <time>2010-01-01T03:28:46Z</time>
      </trkpt>
      <trkpt lat="42.28377" lon="2.24857">
        <ele>1967</ele>
        <time>2010-01-01T03:28:47Z</time>
      </trkpt>
      <trkpt lat="42.28377" lon="2.24854">
        <ele>1966</ele>
        <time>2010-01-01T03:28:48Z</time>
      </trkpt>
      <trkpt lat="42.28377" lon="2.2485">
        <ele>1965</ele>
        <time>2010-01-01T03:28:49Z</time>
      </trkpt>
      <trkpt lat="42.28378" lon="2.24846">
        <ele>1964</ele>
        <time>2010-01-01T03:28:50Z</time>
      </trkpt>
      <trkpt lat="42.28378" lon="2.24842">
        <ele>1964</ele>
        <time>2010-01-01T03:28:51Z</time>
      </trkpt>
      <trkpt lat="42.28378" lon="2.24838">
        <ele>1963</ele>
        <time>2010-01-01T03:28:52Z</time>
      </trkpt>
      <trkpt lat="42.28379" lon="2.24831">
        <ele>1962</ele>
        <time>2010-01-01T03:28:54Z</time>
      </trkpt>
      <trkpt lat="42.28379" lon="2.24828">
        <ele>1962</ele>
        <time>2010-01-01T03:28:55Z</time>
      </trkpt>
      <trkpt lat="42.28379" lon="2.24824">
        <ele>1962</ele>
        <time>2010-01-01T03:28:56Z</time>
      </trkpt>
      <trkpt lat="42.28379" lon="2.24821">
        <ele>1962</ele>
        <time>2010-01-01T03:28:57Z</time>
      </trkpt>
      <trkpt lat="42.28378" lon="2.24819">
        <ele>1961</ele>
        <time>2010-01-01T03:28:58Z</time>
      </trkpt>
      <trkpt lat="42.28378" lon="2.24816">
        <ele>1961</ele>
        <time>2010-01-01T03:28:59Z</time>
      </trkpt>
      <trkpt lat="42.28378" lon="2.24813">
        <ele>1961</ele>
        <time>2010-01-01T03:29:00Z</time>
      </trkpt>
      <trkpt lat="42.28377" lon="2.24809">
        <ele>1961</ele>
        <time>2010-01-01T03:29:01Z</time>
      </trkpt>
      <trkpt lat="42.28378" lon="2.24806">
        <ele>1960</ele>
        <time>2010-01-01T03:29:02Z</time>
      </trkpt>
      <trkpt lat="42.28379" lon="2.24803">
        <ele>1961</ele>
        <time>2010-01-01T03:29:03Z</time>
      </trkpt>
      <trkpt lat="42.28379" lon="2.24801">
        <ele>1961</ele>
        <time>2010-01-01T03:29:03Z</time>
      </trkpt>
      <trkpt lat="42.28379" lon="2.24798">
        <ele>1960</ele>
        <time>2010-01-01T03:29:04Z</time>
      </trkpt>
      <trkpt lat="42.28379" lon="2.24794">
        <ele>1960</ele>
        <time>2010-01-01T03:29:05Z</time>
      </trkpt>
      <trkpt lat="42.28379" lon="2.24791">
        <ele>1960</ele>
        <time>2010-01-01T03:29:07Z</time>
      </trkpt>
      <trkpt lat="42.28379" lon="2.24787">
        <ele>1960</ele>
        <time>2010-01-01T03:29:08Z</time>
      </trkpt>
      <trkpt lat="42.28379" lon="2.24784">
        <ele>1960</ele>
        <time>2010-01-01T03:29:09Z</time>
      </trkpt>
      <trkpt lat="42.28378" lon="2.24781">
        <ele>1959</ele>
        <time>2010-01-01T03:29:09Z</time>
      </trkpt>
      <trkpt lat="42.28378" lon="2.24778">
        <ele>1959</ele>
        <time>2010-01-01T03:29:10Z</time>
      </trkpt>
      <trkpt lat="42.28378" lon="2.24775">
        <ele>1959</ele>
        <time>2010-01-01T03:29:11Z</time>
      </trkpt>
      <trkpt lat="42.28378" lon="2.24772">
        <ele>1958</ele>
        <time>2010-01-01T03:29:12Z</time>
      </trkpt>
      <trkpt lat="42.28379" lon="2.24769">
        <ele>1958</ele>
        <time>2010-01-01T03:29:13Z</time>
      </trkpt>
      <trkpt lat="42.28379" lon="2.24765">
        <ele>1957</ele>
        <time>2010-01-01T03:29:14Z</time>
      </trkpt>
      <trkpt lat="42.28379" lon="2.24762">
        <ele>1957</ele>
        <time>2010-01-01T03:29:15Z</time>
      </trkpt>
      <trkpt lat="42.2838" lon="2.24759">
        <ele>1956</ele>
        <time>2010-01-01T03:29:16Z</time>
      </trkpt>
      <trkpt lat="42.2838" lon="2.24755">
        <ele>1955</ele>
        <time>2010-01-01T03:29:17Z</time>
      </trkpt>
      <trkpt lat="42.2838" lon="2.24752">
        <ele>1955</ele>
        <time>2010-01-01T03:29:18Z</time>
      </trkpt>
      <trkpt lat="42.2838" lon="2.24749">
        <ele>1954</ele>
        <time>2010-01-01T03:29:19Z</time>
      </trkpt>
      <trkpt lat="42.28381" lon="2.24745">
        <ele>1955</ele>
        <time>2010-01-01T03:29:20Z</time>
      </trkpt>
      <trkpt lat="42.28382" lon="2.24743">
        <ele>1955</ele>
        <time>2010-01-01T03:29:21Z</time>
      </trkpt>
      <trkpt lat="42.28382" lon="2.2474">
        <ele>1955</ele>
        <time>2010-01-01T03:29:22Z</time>
      </trkpt>
      <trkpt lat="42.28383" lon="2.24737">
        <ele>1955</ele>
        <time>2010-01-01T03:29:23Z</time>
      </trkpt>
      <trkpt lat="42.28383" lon="2.24734">
        <ele>1955</ele>
        <time>2010-01-01T03:29:24Z</time>
      </trkpt>
      <trkpt lat="42.28383" lon="2.24731">
        <ele>1955</ele>
        <time>2010-01-01T03:29:25Z</time>
      </trkpt>
      <trkpt lat="42.28383" lon="2.24728">
        <ele>1955</ele>
        <time>2010-01-01T03:29:26Z</time>
      </trkpt>
      <trkpt lat="42.28383" lon="2.24724">
        <ele>1955</ele>
        <time>2010-01-01T03:29:27Z</time>
      </trkpt>
      <trkpt lat="42.28383" lon="2.24721">
        <ele>1955</ele>
        <time>2010-01-01T03:29:27Z</time>
      </trkpt>
      <trkpt lat="42.28384" lon="2.24719">
        <ele>1955</ele>
        <time>2010-01-01T03:29:28Z</time>
      </trkpt>
      <trkpt lat="42.28384" lon="2.24716">
        <ele>1954</ele>
        <time>2010-01-01T03:29:29Z</time>
      </trkpt>
      <trkpt lat="42.28383" lon="2.24713">
        <ele>1953</ele>
        <time>2010-01-01T03:29:30Z</time>
      </trkpt>
      <trkpt lat="42.28383" lon="2.2471">
        <ele>1953</ele>
        <time>2010-01-01T03:29:31Z</time>
      </trkpt>
      <trkpt lat="42.28383" lon="2.24707">
        <ele>1952</ele>
        <time>2010-01-01T03:29:32Z</time>
      </trkpt>
      <trkpt lat="42.28382" lon="2.24704">
        <ele>1951</ele>
        <time>2010-01-01T03:29:33Z</time>
      </trkpt>
      <trkpt lat="42.2838" lon="2.24703">
        <ele>1951</ele>
        <time>2010-01-01T03:29:33Z</time>
      </trkpt>
      <trkpt lat="42.28379" lon="2.24701">
        <ele>1951</ele>
        <time>2010-01-01T03:29:34Z</time>
      </trkpt>
      <trkpt lat="42.28377" lon="2.24701">
        <ele>1950</ele>
        <time>2010-01-01T03:29:35Z</time>
      </trkpt>
      <trkpt lat="42.28376" lon="2.24698">
        <ele>1950</ele>
        <time>2010-01-01T03:29:36Z</time>
      </trkpt>
      <trkpt lat="42.28375" lon="2.24695">
        <ele>1950</ele>
        <time>2010-01-01T03:29:37Z</time>
      </trkpt>
      <trkpt lat="42.28375" lon="2.24691">
        <ele>1950</ele>
        <time>2010-01-01T03:29:38Z</time>
      </trkpt>
      <trkpt lat="42.28376" lon="2.24688">
        <ele>1950</ele>
        <time>2010-01-01T03:29:39Z</time>
      </trkpt>
      <trkpt lat="42.28377" lon="2.24686">
        <ele>1950</ele>
        <time>2010-01-01T03:29:40Z</time>
      </trkpt>
      <trkpt lat="42.28378" lon="2.24683">
        <ele>1950</ele>
        <time>2010-01-01T03:29:41Z</time>
      </trkpt>
      <trkpt lat="42.28379" lon="2.2468">
        <ele>1951</ele>
        <time>2010-01-01T03:29:41Z</time>
      </trkpt>
      <trkpt lat="42.28377" lon="2.24677">
        <ele>1951</ele>
        <time>2010-01-01T03:29:43Z</time>
      </trkpt>
      <trkpt lat="42.28377" lon="2.24674">
        <ele>1951</ele>
        <time>2010-01-01T03:29:43Z</time>
      </trkpt>
      <trkpt lat="42.28375" lon="2.24674">
        <ele>1951</ele>
        <time>2010-01-01T03:29:44Z</time>
      </trkpt>
      <trkpt lat="42.28373" lon="2.24672">
        <ele>1950</ele>
        <time>2010-01-01T03:29:45Z</time>
      </trkpt>
      <trkpt lat="42.28372" lon="2.2467">
        <ele>1950</ele>
        <time>2010-01-01T03:29:46Z</time>
      </trkpt>
      <trkpt lat="42.2837" lon="2.24668">
        <ele>1950</ele>
        <time>2010-01-01T03:29:47Z</time>
      </trkpt>
      <trkpt lat="42.2837" lon="2.24665">
        <ele>1950</ele>
        <time>2010-01-01T03:29:48Z</time>
      </trkpt>
      <trkpt lat="42.28369" lon="2.24662">
        <ele>1949</ele>
        <time>2010-01-01T03:29:49Z</time>
      </trkpt>
      <trkpt lat="42.28368" lon="2.2466">
        <ele>1949</ele>
        <time>2010-01-01T03:29:50Z</time>
      </trkpt>
      <trkpt lat="42.28367" lon="2.24657">
        <ele>1948</ele>
        <time>2010-01-01T03:29:50Z</time>
      </trkpt>
      <trkpt lat="42.28366" lon="2.24655">
        <ele>1948</ele>
        <time>2010-01-01T03:29:51Z</time>
      </trkpt>
      <trkpt lat="42.28365" lon="2.24652">
        <ele>1948</ele>
        <time>2010-01-01T03:29:52Z</time>
      </trkpt>
      <trkpt lat="42.28364" lon="2.2465">
        <ele>1948</ele>
        <time>2010-01-01T03:29:53Z</time>
      </trkpt>
      <trkpt lat="42.28364" lon="2.24646">
        <ele>1947</ele>
        <time>2010-01-01T03:29:54Z</time>
      </trkpt>
      <trkpt lat="42.28365" lon="2.24643">
        <ele>1947</ele>
        <time>2010-01-01T03:29:55Z</time>
      </trkpt>
      <trkpt lat="42.28365" lon="2.24639">
        <ele>1947</ele>
        <time>2010-01-01T03:29:56Z</time>
      </trkpt>
      <trkpt lat="42.28365" lon="2.24636">
        <ele>1946</ele>
        <time>2010-01-01T03:29:57Z</time>
      </trkpt>
      <trkpt lat="42.28365" lon="2.24632">
        <ele>1945</ele>
        <time>2010-01-01T03:29:58Z</time>
      </trkpt>
      <trkpt lat="42.28364" lon="2.24629">
        <ele>1944</ele>
        <time>2010-01-01T03:29:59Z</time>
      </trkpt>
      <trkpt lat="42.28364" lon="2.24624">
        <ele>1943</ele>
        <time>2010-01-01T03:30:01Z</time>
      </trkpt>
      <trkpt lat="42.28364" lon="2.24621">
        <ele>1942</ele>
        <time>2010-01-01T03:30:02Z</time>
      </trkpt>
      <trkpt lat="42.28365" lon="2.24617">
        <ele>1941</ele>
        <time>2010-01-01T03:30:03Z</time>
      </trkpt>
      <trkpt lat="42.28366" lon="2.24613">
        <ele>1939</ele>
        <time>2010-01-01T03:30:04Z</time>
      </trkpt>
      <trkpt lat="42.28367" lon="2.24609">
        <ele>1938</ele>
        <time>2010-01-01T03:30:05Z</time>
      </trkpt>
      <trkpt lat="42.28368" lon="2.24606">
        <ele>1938</ele>
        <time>2010-01-01T03:30:06Z</time>
      </trkpt>
      <trkpt lat="42.28366" lon="2.24604">
        <ele>1938</ele>
        <time>2010-01-01T03:30:07Z</time>
      </trkpt>
      <trkpt lat="42.28363" lon="2.24603">
        <ele>1939</ele>
        <time>2010-01-01T03:30:08Z</time>
      </trkpt>
      <trkpt lat="42.28361" lon="2.24602">
        <ele>1940</ele>
        <time>2010-01-01T03:30:09Z</time>
      </trkpt>
      <trkpt lat="42.28359" lon="2.24599">
        <ele>1940</ele>
        <time>2010-01-01T03:30:10Z</time>
      </trkpt>
      <trkpt lat="42.28357" lon="2.24597">
        <ele>1939</ele>
        <time>2010-01-01T03:30:11Z</time>
      </trkpt>
      <trkpt lat="42.28355" lon="2.24594">
        <ele>1939</ele>
        <time>2010-01-01T03:30:12Z</time>
      </trkpt>
      <trkpt lat="42.28354" lon="2.24592">
        <ele>1939</ele>
        <time>2010-01-01T03:30:13Z</time>
      </trkpt>
      <trkpt lat="42.28355" lon="2.24589">
        <ele>1939</ele>
        <time>2010-01-01T03:30:14Z</time>
      </trkpt>
      <trkpt lat="42.28355" lon="2.24586">
        <ele>1939</ele>
        <time>2010-01-01T03:30:15Z</time>
      </trkpt>
      <trkpt lat="42.28353" lon="2.24583">
        <ele>1938</ele>
        <time>2010-01-01T03:30:16Z</time>
      </trkpt>
      <trkpt lat="42.28352" lon="2.24581">
        <ele>1938</ele>
        <time>2010-01-01T03:30:17Z</time>
      </trkpt>
      <trkpt lat="42.28352" lon="2.24578">
        <ele>1937</ele>
        <time>2010-01-01T03:30:18Z</time>
      </trkpt>
      <trkpt lat="42.28352" lon="2.24575">
        <ele>1937</ele>
        <time>2010-01-01T03:30:19Z</time>
      </trkpt>
      <trkpt lat="42.28351" lon="2.24572">
        <ele>1936</ele>
        <time>2010-01-01T03:30:20Z</time>
      </trkpt>
      <trkpt lat="42.28352" lon="2.24569">
        <ele>1936</ele>
        <time>2010-01-01T03:30:21Z</time>
      </trkpt>
      <trkpt lat="42.28352" lon="2.24566">
        <ele>1936</ele>
        <time>2010-01-01T03:30:21Z</time>
      </trkpt>
      <trkpt lat="42.28352" lon="2.24563">
        <ele>1935</ele>
        <time>2010-01-01T03:30:22Z</time>
      </trkpt>
      <trkpt lat="42.28351" lon="2.2456">
        <ele>1934</ele>
        <time>2010-01-01T03:30:23Z</time>
      </trkpt>
      <trkpt lat="42.28351" lon="2.24557">
        <ele>1934</ele>
        <time>2010-01-01T03:30:24Z</time>
      </trkpt>
      <trkpt lat="42.2835" lon="2.24554">
        <ele>1933</ele>
        <time>2010-01-01T03:30:25Z</time>
      </trkpt>
      <trkpt lat="42.2835" lon="2.24551">
        <ele>1932</ele>
        <time>2010-01-01T03:30:26Z</time>
      </trkpt>
      <trkpt lat="42.28349" lon="2.24548">
        <ele>1932</ele>
        <time>2010-01-01T03:30:27Z</time>
      </trkpt>
      <trkpt lat="42.28348" lon="2.24545">
        <ele>1931</ele>
        <time>2010-01-01T03:30:28Z</time>
      </trkpt>
      <trkpt lat="42.28348" lon="2.24543">
        <ele>1930</ele>
        <time>2010-01-01T03:30:28Z</time>
      </trkpt>
      <trkpt lat="42.2835" lon="2.24541">
        <ele>1930</ele>
        <time>2010-01-01T03:30:29Z</time>
      </trkpt>
      <trkpt lat="42.28348" lon="2.24538">
        <ele>1930</ele>
        <time>2010-01-01T03:30:30Z</time>
      </trkpt>
      <trkpt lat="42.28349" lon="2.24535">
        <ele>1929</ele>
        <time>2010-01-01T03:30:31Z</time>
      </trkpt>
      <trkpt lat="42.28351" lon="2.24533">
        <ele>1929</ele>
        <time>2010-01-01T03:30:32Z</time>
      </trkpt>
      <trkpt lat="42.28352" lon="2.24531">
        <ele>1929</ele>
        <time>2010-01-01T03:30:33Z</time>
      </trkpt>
      <trkpt lat="42.28351" lon="2.24527">
        <ele>1928</ele>
        <time>2010-01-01T03:30:34Z</time>
      </trkpt>
      <trkpt lat="42.2835" lon="2.24525">
        <ele>1928</ele>
        <time>2010-01-01T03:30:35Z</time>
      </trkpt>
      <trkpt lat="42.28348" lon="2.24523">
        <ele>1927</ele>
        <time>2010-01-01T03:30:36Z</time>
      </trkpt>
      <trkpt lat="42.28348" lon="2.2452">
        <ele>1927</ele>
        <time>2010-01-01T03:30:37Z</time>
      </trkpt>
      <trkpt lat="42.28347" lon="2.24518">
        <ele>1926</ele>
        <time>2010-01-01T03:30:37Z</time>
      </trkpt>
      <trkpt lat="42.28346" lon="2.24514">
        <ele>1926</ele>
        <time>2010-01-01T03:30:38Z</time>
      </trkpt>
      <trkpt lat="42.28345" lon="2.2451">
        <ele>1925</ele>
        <time>2010-01-01T03:30:40Z</time>
      </trkpt>
      <trkpt lat="42.28344" lon="2.24506">
        <ele>1925</ele>
        <time>2010-01-01T03:30:41Z</time>
      </trkpt>
      <trkpt lat="42.28344" lon="2.24503">
        <ele>1925</ele>
        <time>2010-01-01T03:30:42Z</time>
      </trkpt>
      <trkpt lat="42.28344" lon="2.245">
        <ele>1924</ele>
        <time>2010-01-01T03:30:43Z</time>
      </trkpt>
      <trkpt lat="42.28345" lon="2.24496">
        <ele>1924</ele>
        <time>2010-01-01T03:30:44Z</time>
      </trkpt>
      <trkpt lat="42.28347" lon="2.24493">
        <ele>1924</ele>
        <time>2010-01-01T03:30:45Z</time>
      </trkpt>
      <trkpt lat="42.2835" lon="2.24488">
        <ele>1924</ele>
        <time>2010-01-01T03:30:47Z</time>
      </trkpt>
      <trkpt lat="42.2835" lon="2.24485">
        <ele>1923</ele>
        <time>2010-01-01T03:30:48Z</time>
      </trkpt>
      <trkpt lat="42.28349" lon="2.24481">
        <ele>1923</ele>
        <time>2010-01-01T03:30:49Z</time>
      </trkpt>
      <trkpt lat="42.28349" lon="2.24477">
        <ele>1923</ele>
        <time>2010-01-01T03:30:50Z</time>
      </trkpt>
      <trkpt lat="42.28349" lon="2.24474">
        <ele>1923</ele>
        <time>2010-01-01T03:30:51Z</time>
      </trkpt>
      <trkpt lat="42.28349" lon="2.2447">
        <ele>1922</ele>
        <time>2010-01-01T03:30:52Z</time>
      </trkpt>
      <trkpt lat="42.28348" lon="2.24466">
        <ele>1922</ele>
        <time>2010-01-01T03:30:54Z</time>
      </trkpt>
      <trkpt lat="42.28347" lon="2.24461">
        <ele>1923</ele>
        <time>2010-01-01T03:30:55Z</time>
      </trkpt>
      <trkpt lat="42.28346" lon="2.24457">
        <ele>1923</ele>
        <time>2010-01-01T03:30:57Z</time>
      </trkpt>
      <trkpt lat="42.28346" lon="2.24453">
        <ele>1923</ele>
        <time>2010-01-01T03:30:58Z</time>
      </trkpt>
      <trkpt lat="42.28345" lon="2.2445">
        <ele>1923</ele>
        <time>2010-01-01T03:30:59Z</time>
      </trkpt>
      <trkpt lat="42.28344" lon="2.24447">
        <ele>1923</ele>
        <time>2010-01-01T03:30:59Z</time>
      </trkpt>
      <trkpt lat="42.28343" lon="2.24444">
        <ele>1923</ele>
        <time>2010-01-01T03:31:00Z</time>
      </trkpt>
      <trkpt lat="42.28342" lon="2.2444">
        <ele>1924</ele>
        <time>2010-01-01T03:31:02Z</time>
      </trkpt>
      <trkpt lat="42.28341" lon="2.24437">
        <ele>1924</ele>
        <time>2010-01-01T03:31:03Z</time>
      </trkpt>
      <trkpt lat="42.28341" lon="2.24435">
        <ele>1924</ele>
        <time>2010-01-01T03:31:03Z</time>
      </trkpt>
      <trkpt lat="42.2834" lon="2.24432">
        <ele>1925</ele>
        <time>2010-01-01T03:31:04Z</time>
      </trkpt>
      <trkpt lat="42.2834" lon="2.24429">
        <ele>1925</ele>
        <time>2010-01-01T03:31:05Z</time>
      </trkpt>
      <trkpt lat="42.28339" lon="2.24426">
        <ele>1925</ele>
        <time>2010-01-01T03:31:06Z</time>
      </trkpt>
      <trkpt lat="42.28339" lon="2.24423">
        <ele>1926</ele>
        <time>2010-01-01T03:31:07Z</time>
      </trkpt>
      <trkpt lat="42.28338" lon="2.24421">
        <ele>1926</ele>
        <time>2010-01-01T03:31:08Z</time>
      </trkpt>
      <trkpt lat="42.28337" lon="2.24419">
        <ele>1927</ele>
        <time>2010-01-01T03:31:08Z</time>
      </trkpt>
      <trkpt lat="42.28336" lon="2.24416">
        <ele>1927</ele>
        <time>2010-01-01T03:31:09Z</time>
      </trkpt>
      <trkpt lat="42.28335" lon="2.24412">
        <ele>1927</ele>
        <time>2010-01-01T03:31:11Z</time>
      </trkpt>
      <trkpt lat="42.28333" lon="2.24409">
        <ele>1927</ele>
        <time>2010-01-01T03:31:12Z</time>
      </trkpt>
      <trkpt lat="42.28331" lon="2.24406">
        <ele>1927</ele>
        <time>2010-01-01T03:31:13Z</time>
      </trkpt>
      <trkpt lat="42.28329" lon="2.24402">
        <ele>1927</ele>
        <time>2010-01-01T03:31:14Z</time>
      </trkpt>
      <trkpt lat="42.28327" lon="2.24399">
        <ele>1927</ele>
        <time>2010-01-01T03:31:16Z</time>
      </trkpt>
      <trkpt lat="42.28324" lon="2.24397">
        <ele>1927</ele>
        <time>2010-01-01T03:31:17Z</time>
      </trkpt>
      <trkpt lat="42.28321" lon="2.24394">
        <ele>1927</ele>
        <time>2010-01-01T03:31:19Z</time>
      </trkpt>
      <trkpt lat="42.28317" lon="2.24391">
        <ele>1928</ele>
        <time>2010-01-01T03:31:20Z</time>
      </trkpt>
      <trkpt lat="42.28315" lon="2.24387">
        <ele>1928</ele>
        <time>2010-01-01T03:31:22Z</time>
      </trkpt>
      <trkpt lat="42.28313" lon="2.24383">
        <ele>1928</ele>
        <time>2010-01-01T03:31:23Z</time>
      </trkpt>
      <trkpt lat="42.28311" lon="2.2438">
        <ele>1928</ele>
        <time>2010-01-01T03:31:24Z</time>
      </trkpt>
      <trkpt lat="42.28308" lon="2.24377">
        <ele>1928</ele>
        <time>2010-01-01T03:31:26Z</time>
      </trkpt>
      <trkpt lat="42.28306" lon="2.24373">
        <ele>1928</ele>
        <time>2010-01-01T03:31:27Z</time>
      </trkpt>
      <trkpt lat="42.28304" lon="2.24371">
        <ele>1928</ele>
        <time>2010-01-01T03:31:28Z</time>
      </trkpt>
      <trkpt lat="42.28303" lon="2.24367">
        <ele>1927</ele>
        <time>2010-01-01T03:31:29Z</time>
      </trkpt>
      <trkpt lat="42.28301" lon="2.24365">
        <ele>1927</ele>
        <time>2010-01-01T03:31:30Z</time>
      </trkpt>
      <trkpt lat="42.283" lon="2.24363">
        <ele>1927</ele>
        <time>2010-01-01T03:31:31Z</time>
      </trkpt>
      <trkpt lat="42.28298" lon="2.2436">
        <ele>1927</ele>
        <time>2010-01-01T03:31:32Z</time>
      </trkpt>
      <trkpt lat="42.28296" lon="2.24359">
        <ele>1927</ele>
        <time>2010-01-01T03:31:33Z</time>
      </trkpt>
      <trkpt lat="42.28294" lon="2.24356">
        <ele>1927</ele>
        <time>2010-01-01T03:31:34Z</time>
      </trkpt>
      <trkpt lat="42.28292" lon="2.24353">
        <ele>1928</ele>
        <time>2010-01-01T03:31:35Z</time>
      </trkpt>
      <trkpt lat="42.28289" lon="2.2435">
        <ele>1928</ele>
        <time>2010-01-01T03:31:37Z</time>
      </trkpt>
      <trkpt lat="42.28287" lon="2.24346">
        <ele>1928</ele>
        <time>2010-01-01T03:31:38Z</time>
      </trkpt>
      <trkpt lat="42.28285" lon="2.24341">
        <ele>1928</ele>
        <time>2010-01-01T03:31:40Z</time>
      </trkpt>
      <trkpt lat="42.28283" lon="2.24335">
        <ele>1928</ele>
        <time>2010-01-01T03:31:42Z</time>
      </trkpt>
      <trkpt lat="42.28281" lon="2.24329">
        <ele>1928</ele>
        <time>2010-01-01T03:31:44Z</time>
      </trkpt>
      <trkpt lat="42.2828" lon="2.24324">
        <ele>1927</ele>
        <time>2010-01-01T03:31:45Z</time>
      </trkpt>
      <trkpt lat="42.28279" lon="2.24319">
        <ele>1927</ele>
        <time>2010-01-01T03:31:47Z</time>
      </trkpt>
      <trkpt lat="42.28279" lon="2.24313">
        <ele>1926</ele>
        <time>2010-01-01T03:31:49Z</time>
      </trkpt>
      <trkpt lat="42.28278" lon="2.24307">
        <ele>1926</ele>
        <time>2010-01-01T03:31:50Z</time>
      </trkpt>
      <trkpt lat="42.28278" lon="2.24301">
        <ele>1925</ele>
        <time>2010-01-01T03:31:52Z</time>
      </trkpt>
      <trkpt lat="42.28278" lon="2.24295">
        <ele>1924</ele>
        <time>2010-01-01T03:31:54Z</time>
      </trkpt>
      <trkpt lat="42.28278" lon="2.24289">
        <ele>1924</ele>
        <time>2010-01-01T03:31:56Z</time>
      </trkpt>
      <trkpt lat="42.28277" lon="2.24283">
        <ele>1923</ele>
        <time>2010-01-01T03:31:58Z</time>
      </trkpt>
      <trkpt lat="42.28277" lon="2.24278">
        <ele>1922</ele>
        <time>2010-01-01T03:31:59Z</time>
      </trkpt>
      <trkpt lat="42.28277" lon="2.24272">
        <ele>1921</ele>
        <time>2010-01-01T03:32:01Z</time>
      </trkpt>
      <trkpt lat="42.28276" lon="2.24266">
        <ele>1920</ele>
        <time>2010-01-01T03:32:03Z</time>
      </trkpt>
      <trkpt lat="42.28276" lon="2.2426">
        <ele>1919</ele>
        <time>2010-01-01T03:32:04Z</time>
      </trkpt>
      <trkpt lat="42.28276" lon="2.24255">
        <ele>1918</ele>
        <time>2010-01-01T03:32:06Z</time>
      </trkpt>
      <trkpt lat="42.28277" lon="2.24249">
        <ele>1917</ele>
        <time>2010-01-01T03:32:08Z</time>
      </trkpt>
      <trkpt lat="42.28277" lon="2.24242">
        <ele>1916</ele>
        <time>2010-01-01T03:32:10Z</time>
      </trkpt>
      <trkpt lat="42.28276" lon="2.24236">
        <ele>1915</ele>
        <time>2010-01-01T03:32:12Z</time>
      </trkpt>
      <trkpt lat="42.28277" lon="2.24231">
        <ele>1914</ele>
        <time>2010-01-01T03:32:13Z</time>
      </trkpt>
      <trkpt lat="42.28277" lon="2.24225">
        <ele>1913</ele>
        <time>2010-01-01T03:32:15Z</time>
      </trkpt>
      <trkpt lat="42.28278" lon="2.24219">
        <ele>1912</ele>
        <time>2010-01-01T03:32:17Z</time>
      </trkpt>
      <trkpt lat="42.28278" lon="2.24214">
        <ele>1911</ele>
        <time>2010-01-01T03:32:18Z</time>
      </trkpt>
      <trkpt lat="42.28279" lon="2.24209">
        <ele>1910</ele>
        <time>2010-01-01T03:32:20Z</time>
      </trkpt>
      <trkpt lat="42.28278" lon="2.24204">
        <ele>1909</ele>
        <time>2010-01-01T03:32:21Z</time>
      </trkpt>
      <trkpt lat="42.28279" lon="2.24197">
        <ele>1908</ele>
        <time>2010-01-01T03:32:23Z</time>
      </trkpt>
      <trkpt lat="42.2828" lon="2.24193">
        <ele>1908</ele>
        <time>2010-01-01T03:32:24Z</time>
      </trkpt>
      <trkpt lat="42.2828" lon="2.24189">
        <ele>1908</ele>
        <time>2010-01-01T03:32:26Z</time>
      </trkpt>
      <trkpt lat="42.28281" lon="2.24185">
        <ele>1908</ele>
        <time>2010-01-01T03:32:27Z</time>
      </trkpt>
      <trkpt lat="42.28282" lon="2.24181">
        <ele>1908</ele>
        <time>2010-01-01T03:32:28Z</time>
      </trkpt>
      <trkpt lat="42.28282" lon="2.24177">
        <ele>1907</ele>
        <time>2010-01-01T03:32:29Z</time>
      </trkpt>
      <trkpt lat="42.28283" lon="2.24173">
        <ele>1907</ele>
        <time>2010-01-01T03:32:30Z</time>
      </trkpt>
      <trkpt lat="42.28284" lon="2.24169">
        <ele>1907</ele>
        <time>2010-01-01T03:32:32Z</time>
      </trkpt>
      <trkpt lat="42.28284" lon="2.24166">
        <ele>1907</ele>
        <time>2010-01-01T03:32:33Z</time>
      </trkpt>
      <trkpt lat="42.28285" lon="2.24162">
        <ele>1908</ele>
        <time>2010-01-01T03:32:34Z</time>
      </trkpt>
      <trkpt lat="42.28286" lon="2.24158">
        <ele>1908</ele>
        <time>2010-01-01T03:32:35Z</time>
      </trkpt>
      <trkpt lat="42.28286" lon="2.24155">
        <ele>1908</ele>
        <time>2010-01-01T03:32:36Z</time>
      </trkpt>
      <trkpt lat="42.28287" lon="2.24152">
        <ele>1909</ele>
        <time>2010-01-01T03:32:37Z</time>
      </trkpt>
      <trkpt lat="42.28287" lon="2.24149">
        <ele>1909</ele>
        <time>2010-01-01T03:32:38Z</time>
      </trkpt>
      <trkpt lat="42.28287" lon="2.24146">
        <ele>1909</ele>
        <time>2010-01-01T03:32:39Z</time>
      </trkpt>
      <trkpt lat="42.28287" lon="2.24144">
        <ele>1909</ele>
        <time>2010-01-01T03:32:39Z</time>
      </trkpt>
      <trkpt lat="42.28288" lon="2.24141">
        <ele>1910</ele>
        <time>2010-01-01T03:32:40Z</time>
      </trkpt>
      <trkpt lat="42.28287" lon="2.24138">
        <ele>1910</ele>
        <time>2010-01-01T03:32:41Z</time>
      </trkpt>
      <trkpt lat="42.28287" lon="2.24135">
        <ele>1910</ele>
        <time>2010-01-01T03:32:42Z</time>
      </trkpt>
      <trkpt lat="42.28287" lon="2.24133">
        <ele>1910</ele>
        <time>2010-01-01T03:32:43Z</time>
      </trkpt>
      <trkpt lat="42.28287" lon="2.24129">
        <ele>1911</ele>
        <time>2010-01-01T03:32:44Z</time>
      </trkpt>
      <trkpt lat="42.28287" lon="2.24126">
        <ele>1911</ele>
        <time>2010-01-01T03:32:45Z</time>
      </trkpt>
      <trkpt lat="42.28286" lon="2.24124">
        <ele>1911</ele>
        <time>2010-01-01T03:32:45Z</time>
      </trkpt>
      <trkpt lat="42.28286" lon="2.24121">
        <ele>1912</ele>
        <time>2010-01-01T03:32:46Z</time>
      </trkpt>
      <trkpt lat="42.28286" lon="2.24118">
        <ele>1912</ele>
        <time>2010-01-01T03:32:47Z</time>
      </trkpt>
      <trkpt lat="42.28286" lon="2.24115">
        <ele>1912</ele>
        <time>2010-01-01T03:32:48Z</time>
      </trkpt>
      <trkpt lat="42.28285" lon="2.24112">
        <ele>1912</ele>
        <time>2010-01-01T03:32:49Z</time>
      </trkpt>
      <trkpt lat="42.28285" lon="2.24109">
        <ele>1912</ele>
        <time>2010-01-01T03:32:50Z</time>
      </trkpt>
      <trkpt lat="42.28285" lon="2.24106">
        <ele>1913</ele>
        <time>2010-01-01T03:32:51Z</time>
      </trkpt>
      <trkpt lat="42.28284" lon="2.24103">
        <ele>1913</ele>
        <time>2010-01-01T03:32:52Z</time>
      </trkpt>
      <trkpt lat="42.28284" lon="2.241">
        <ele>1913</ele>
        <time>2010-01-01T03:32:52Z</time>
      </trkpt>
      <trkpt lat="42.28284" lon="2.24097">
        <ele>1913</ele>
        <time>2010-01-01T03:32:53Z</time>
      </trkpt>
      <trkpt lat="42.28284" lon="2.24094">
        <ele>1913</ele>
        <time>2010-01-01T03:32:54Z</time>
      </trkpt>
      <trkpt lat="42.28285" lon="2.24091">
        <ele>1913</ele>
        <time>2010-01-01T03:32:55Z</time>
      </trkpt>
      <trkpt lat="42.28285" lon="2.24089">
        <ele>1913</ele>
        <time>2010-01-01T03:32:56Z</time>
      </trkpt>
      <trkpt lat="42.28285" lon="2.24085">
        <ele>1914</ele>
        <time>2010-01-01T03:32:57Z</time>
      </trkpt>
      <trkpt lat="42.28285" lon="2.24083">
        <ele>1914</ele>
        <time>2010-01-01T03:32:58Z</time>
      </trkpt>
      <trkpt lat="42.28285" lon="2.2408">
        <ele>1914</ele>
        <time>2010-01-01T03:32:58Z</time>
      </trkpt>
      <trkpt lat="42.28285" lon="2.24077">
        <ele>1914</ele>
        <time>2010-01-01T03:32:59Z</time>
      </trkpt>
      <trkpt lat="42.28286" lon="2.24074">
        <ele>1914</ele>
        <time>2010-01-01T03:33:00Z</time>
      </trkpt>
      <trkpt lat="42.28286" lon="2.24071">
        <ele>1914</ele>
        <time>2010-01-01T03:33:01Z</time>
      </trkpt>
      <trkpt lat="42.28286" lon="2.24068">
        <ele>1914</ele>
        <time>2010-01-01T03:33:02Z</time>
      </trkpt>
      <trkpt lat="42.28286" lon="2.24065">
        <ele>1914</ele>
        <time>2010-01-01T03:33:03Z</time>
      </trkpt>
      <trkpt lat="42.28286" lon="2.24061">
        <ele>1915</ele>
        <time>2010-01-01T03:33:04Z</time>
      </trkpt>
      <trkpt lat="42.28286" lon="2.24058">
        <ele>1915</ele>
        <time>2010-01-01T03:33:05Z</time>
      </trkpt>
      <trkpt lat="42.28285" lon="2.24054">
        <ele>1915</ele>
        <time>2010-01-01T03:33:06Z</time>
      </trkpt>
      <trkpt lat="42.28285" lon="2.24051">
        <ele>1914</ele>
        <time>2010-01-01T03:33:07Z</time>
      </trkpt>
      <trkpt lat="42.28285" lon="2.24046">
        <ele>1914</ele>
        <time>2010-01-01T03:33:08Z</time>
      </trkpt>
      <trkpt lat="42.28285" lon="2.24042">
        <ele>1914</ele>
        <time>2010-01-01T03:33:10Z</time>
      </trkpt>
      <trkpt lat="42.28285" lon="2.24038">
        <ele>1914</ele>
        <time>2010-01-01T03:33:11Z</time>
      </trkpt>
      <trkpt lat="42.28284" lon="2.24033">
        <ele>1914</ele>
        <time>2010-01-01T03:33:12Z</time>
      </trkpt>
      <trkpt lat="42.28284" lon="2.24029">
        <ele>1914</ele>
        <time>2010-01-01T03:33:14Z</time>
      </trkpt>
      <trkpt lat="42.28283" lon="2.24025">
        <ele>1914</ele>
        <time>2010-01-01T03:33:15Z</time>
      </trkpt>
      <trkpt lat="42.28282" lon="2.24021">
        <ele>1914</ele>
        <time>2010-01-01T03:33:16Z</time>
      </trkpt>
      <trkpt lat="42.2828" lon="2.24014">
        <ele>1914</ele>
        <time>2010-01-01T03:33:18Z</time>
      </trkpt>
      <trkpt lat="42.28279" lon="2.24009">
        <ele>1914</ele>
        <time>2010-01-01T03:33:20Z</time>
      </trkpt>
      <trkpt lat="42.28278" lon="2.24005">
        <ele>1914</ele>
        <time>2010-01-01T03:33:21Z</time>
      </trkpt>
      <trkpt lat="42.28278" lon="2.24">
        <ele>1914</ele>
        <time>2010-01-01T03:33:22Z</time>
      </trkpt>
      <trkpt lat="42.28277" lon="2.23996">
        <ele>1915</ele>
        <time>2010-01-01T03:33:24Z</time>
      </trkpt>
      <trkpt lat="42.28276" lon="2.23993">
        <ele>1916</ele>
        <time>2010-01-01T03:33:25Z</time>
      </trkpt>
      <trkpt lat="42.28276" lon="2.2399">
        <ele>1916</ele>
        <time>2010-01-01T03:33:26Z</time>
      </trkpt>
      <trkpt lat="42.28276" lon="2.23987">
        <ele>1917</ele>
        <time>2010-01-01T03:33:26Z</time>
      </trkpt>
      <trkpt lat="42.28275" lon="2.23984">
        <ele>1918</ele>
        <time>2010-01-01T03:33:27Z</time>
      </trkpt>
      <trkpt lat="42.28275" lon="2.23981">
        <ele>1918</ele>
        <time>2010-01-01T03:33:28Z</time>
      </trkpt>
      <trkpt lat="42.28275" lon="2.23978">
        <ele>1919</ele>
        <time>2010-01-01T03:33:29Z</time>
      </trkpt>
      <trkpt lat="42.28275" lon="2.23975">
        <ele>1919</ele>
        <time>2010-01-01T03:33:30Z</time>
      </trkpt>
      <trkpt lat="42.28274" lon="2.23972">
        <ele>1920</ele>
        <time>2010-01-01T03:33:31Z</time>
      </trkpt>
      <trkpt lat="42.28273" lon="2.2397">
        <ele>1920</ele>
        <time>2010-01-01T03:33:32Z</time>
      </trkpt>
      <trkpt lat="42.28273" lon="2.23967">
        <ele>1920</ele>
        <time>2010-01-01T03:33:33Z</time>
      </trkpt>
      <trkpt lat="42.28272" lon="2.23964">
        <ele>1921</ele>
        <time>2010-01-01T03:33:34Z</time>
      </trkpt>
      <trkpt lat="42.28271" lon="2.23961">
        <ele>1921</ele>
        <time>2010-01-01T03:33:34Z</time>
      </trkpt>
      <trkpt lat="42.2827" lon="2.23958">
        <ele>1921</ele>
        <time>2010-01-01T03:33:35Z</time>
      </trkpt>
      <trkpt lat="42.2827" lon="2.23955">
        <ele>1922</ele>
        <time>2010-01-01T03:33:36Z</time>
      </trkpt>
      <trkpt lat="42.28269" lon="2.23953">
        <ele>1922</ele>
        <time>2010-01-01T03:33:37Z</time>
      </trkpt>
      <trkpt lat="42.28269" lon="2.2395">
        <ele>1922</ele>
        <time>2010-01-01T03:33:38Z</time>
      </trkpt>
      <trkpt lat="42.28268" lon="2.23947">
        <ele>1923</ele>
        <time>2010-01-01T03:33:39Z</time>
      </trkpt>
      <trkpt lat="42.28268" lon="2.23945">
        <ele>1923</ele>
        <time>2010-01-01T03:33:40Z</time>
      </trkpt>
      <trkpt lat="42.28268" lon="2.23942">
        <ele>1923</ele>
        <time>2010-01-01T03:33:40Z</time>
      </trkpt>
      <trkpt lat="42.28267" lon="2.23939">
        <ele>1923</ele>
        <time>2010-01-01T03:33:41Z</time>
      </trkpt>
      <trkpt lat="42.28266" lon="2.23936">
        <ele>1923</ele>
        <time>2010-01-01T03:33:42Z</time>
      </trkpt>
      <trkpt lat="42.28265" lon="2.23933">
        <ele>1924</ele>
        <time>2010-01-01T03:33:43Z</time>
      </trkpt>
      <trkpt lat="42.28264" lon="2.23931">
        <ele>1924</ele>
        <time>2010-01-01T03:33:44Z</time>
      </trkpt>
      <trkpt lat="42.28263" lon="2.23928">
        <ele>1924</ele>
        <time>2010-01-01T03:33:45Z</time>
      </trkpt>
      <trkpt lat="42.28262" lon="2.23924">
        <ele>1925</ele>
        <time>2010-01-01T03:33:46Z</time>
      </trkpt>
      <trkpt lat="42.28261" lon="2.23922">
        <ele>1925</ele>
        <time>2010-01-01T03:33:47Z</time>
      </trkpt>
      <trkpt lat="42.28261" lon="2.23919">
        <ele>1926</ele>
        <time>2010-01-01T03:33:48Z</time>
      </trkpt>
      <trkpt lat="42.28261" lon="2.23916">
        <ele>1926</ele>
        <time>2010-01-01T03:33:48Z</time>
      </trkpt>
      <trkpt lat="42.2826" lon="2.23914">
        <ele>1926</ele>
        <time>2010-01-01T03:33:49Z</time>
      </trkpt>
      <trkpt lat="42.28259" lon="2.23911">
        <ele>1926</ele>
        <time>2010-01-01T03:33:50Z</time>
      </trkpt>
      <trkpt lat="42.28259" lon="2.23908">
        <ele>1926</ele>
        <time>2010-01-01T03:33:51Z</time>
      </trkpt>
      <trkpt lat="42.28258" lon="2.23905">
        <ele>1927</ele>
        <time>2010-01-01T03:33:52Z</time>
      </trkpt>
      <trkpt lat="42.28257" lon="2.23902">
        <ele>1927</ele>
        <time>2010-01-01T03:33:53Z</time>
      </trkpt>
      <trkpt lat="42.28256" lon="2.23899">
        <ele>1927</ele>
        <time>2010-01-01T03:33:54Z</time>
      </trkpt>
      <trkpt lat="42.28256" lon="2.23897">
        <ele>1927</ele>
        <time>2010-01-01T03:33:55Z</time>
      </trkpt>
      <trkpt lat="42.28256" lon="2.23894">
        <ele>1927</ele>
        <time>2010-01-01T03:33:55Z</time>
      </trkpt>
      <trkpt lat="42.28256" lon="2.23891">
        <ele>1927</ele>
        <time>2010-01-01T03:33:56Z</time>
      </trkpt>
      <trkpt lat="42.28255" lon="2.23888">
        <ele>1927</ele>
        <time>2010-01-01T03:33:57Z</time>
      </trkpt>
      <trkpt lat="42.28254" lon="2.23885">
        <ele>1928</ele>
        <time>2010-01-01T03:33:58Z</time>
      </trkpt>
      <trkpt lat="42.28254" lon="2.23882">
        <ele>1929</ele>
        <time>2010-01-01T03:33:59Z</time>
      </trkpt>
      <trkpt lat="42.28253" lon="2.23879">
        <ele>1929</ele>
        <time>2010-01-01T03:34:00Z</time>
      </trkpt>
      <trkpt lat="42.28252" lon="2.23876">
        <ele>1930</ele>
        <time>2010-01-01T03:34:01Z</time>
      </trkpt>
      <trkpt lat="42.28251" lon="2.23874">
        <ele>1930</ele>
        <time>2010-01-01T03:34:02Z</time>
      </trkpt>
      <trkpt lat="42.2825" lon="2.23872">
        <ele>1931</ele>
        <time>2010-01-01T03:34:02Z</time>
      </trkpt>
      <trkpt lat="42.28249" lon="2.2387">
        <ele>1931</ele>
        <time>2010-01-01T03:34:03Z</time>
      </trkpt>
      <trkpt lat="42.28248" lon="2.23867">
        <ele>1931</ele>
        <time>2010-01-01T03:34:04Z</time>
      </trkpt>
      <trkpt lat="42.28247" lon="2.23865">
        <ele>1931</ele>
        <time>2010-01-01T03:34:05Z</time>
      </trkpt>
      <trkpt lat="42.28246" lon="2.23861">
        <ele>1932</ele>
        <time>2010-01-01T03:34:06Z</time>
      </trkpt>
      <trkpt lat="42.28245" lon="2.23858">
        <ele>1931</ele>
        <time>2010-01-01T03:34:07Z</time>
      </trkpt>
      <trkpt lat="42.28244" lon="2.23856">
        <ele>1931</ele>
        <time>2010-01-01T03:34:08Z</time>
      </trkpt>
      <trkpt lat="42.28243" lon="2.23852">
        <ele>1931</ele>
        <time>2010-01-01T03:34:09Z</time>
      </trkpt>
      <trkpt lat="42.28242" lon="2.23849">
        <ele>1931</ele>
        <time>2010-01-01T03:34:10Z</time>
      </trkpt>
      <trkpt lat="42.28241" lon="2.23845">
        <ele>1931</ele>
        <time>2010-01-01T03:34:11Z</time>
      </trkpt>
      <trkpt lat="42.2824" lon="2.23842">
        <ele>1930</ele>
        <time>2010-01-01T03:34:12Z</time>
      </trkpt>
      <trkpt lat="42.2824" lon="2.23838">
        <ele>1930</ele>
        <time>2010-01-01T03:34:13Z</time>
      </trkpt>
      <trkpt lat="42.2824" lon="2.23834">
        <ele>1930</ele>
        <time>2010-01-01T03:34:15Z</time>
      </trkpt>
      <trkpt lat="42.28239" lon="2.2383">
        <ele>1930</ele>
        <time>2010-01-01T03:34:16Z</time>
      </trkpt>
      <trkpt lat="42.28238" lon="2.23827">
        <ele>1929</ele>
        <time>2010-01-01T03:34:17Z</time>
      </trkpt>
      <trkpt lat="42.28235" lon="2.23824">
        <ele>1929</ele>
        <time>2010-01-01T03:34:18Z</time>
      </trkpt>
      <trkpt lat="42.28232" lon="2.2382">
        <ele>1929</ele>
        <time>2010-01-01T03:34:20Z</time>
      </trkpt>
      <trkpt lat="42.28229" lon="2.23816">
        <ele>1929</ele>
        <time>2010-01-01T03:34:21Z</time>
      </trkpt>
      <trkpt lat="42.28226" lon="2.23813">
        <ele>1929</ele>
        <time>2010-01-01T03:34:23Z</time>
      </trkpt>
      <trkpt lat="42.28223" lon="2.23811">
        <ele>1929</ele>
        <time>2010-01-01T03:34:24Z</time>
      </trkpt>
      <trkpt lat="42.28221" lon="2.23811">
        <ele>1929</ele>
        <time>2010-01-01T03:34:25Z</time>
      </trkpt>
      <trkpt lat="42.28218" lon="2.23808">
        <ele>1929</ele>
        <time>2010-01-01T03:34:26Z</time>
      </trkpt>
      <trkpt lat="42.28216" lon="2.23804">
        <ele>1928</ele>
        <time>2010-01-01T03:34:28Z</time>
      </trkpt>
      <trkpt lat="42.28214" lon="2.23798">
        <ele>1928</ele>
        <time>2010-01-01T03:34:30Z</time>
      </trkpt>
      <trkpt lat="42.28213" lon="2.23794">
        <ele>1928</ele>
        <time>2010-01-01T03:34:31Z</time>
      </trkpt>
      <trkpt lat="42.28212" lon="2.2379">
        <ele>1928</ele>
        <time>2010-01-01T03:34:33Z</time>
      </trkpt>
      <trkpt lat="42.28209" lon="2.23786">
        <ele>1928</ele>
        <time>2010-01-01T03:34:34Z</time>
      </trkpt>
      <trkpt lat="42.28208" lon="2.23783">
        <ele>1928</ele>
        <time>2010-01-01T03:34:35Z</time>
      </trkpt>
      <trkpt lat="42.28206" lon="2.23779">
        <ele>1928</ele>
        <time>2010-01-01T03:34:37Z</time>
      </trkpt>
      <trkpt lat="42.28205" lon="2.23775">
        <ele>1928</ele>
        <time>2010-01-01T03:34:38Z</time>
      </trkpt>
      <trkpt lat="42.28202" lon="2.23769">
        <ele>1928</ele>
        <time>2010-01-01T03:34:40Z</time>
      </trkpt>
      <trkpt lat="42.282" lon="2.23765">
        <ele>1928</ele>
        <time>2010-01-01T03:34:42Z</time>
      </trkpt>
      <trkpt lat="42.28198" lon="2.23761">
        <ele>1928</ele>
        <time>2010-01-01T03:34:43Z</time>
      </trkpt>
      <trkpt lat="42.28195" lon="2.23757">
        <ele>1928</ele>
        <time>2010-01-01T03:34:45Z</time>
      </trkpt>
      <trkpt lat="42.28193" lon="2.23753">
        <ele>1929</ele>
        <time>2010-01-01T03:34:46Z</time>
      </trkpt>
      <trkpt lat="42.2819" lon="2.23746">
        <ele>1928</ele>
        <time>2010-01-01T03:34:48Z</time>
      </trkpt>
      <trkpt lat="42.28189" lon="2.23742">
        <ele>1928</ele>
        <time>2010-01-01T03:34:50Z</time>
      </trkpt>
      <trkpt lat="42.28187" lon="2.23738">
        <ele>1928</ele>
        <time>2010-01-01T03:34:51Z</time>
      </trkpt>
      <trkpt lat="42.28186" lon="2.23735">
        <ele>1928</ele>
        <time>2010-01-01T03:34:52Z</time>
      </trkpt>
      <trkpt lat="42.28185" lon="2.23731">
        <ele>1928</ele>
        <time>2010-01-01T03:34:53Z</time>
      </trkpt>
      <trkpt lat="42.28184" lon="2.23727">
        <ele>1928</ele>
        <time>2010-01-01T03:34:54Z</time>
      </trkpt>
      <trkpt lat="42.28183" lon="2.23723">
        <ele>1928</ele>
        <time>2010-01-01T03:34:56Z</time>
      </trkpt>
      <trkpt lat="42.28183" lon="2.2372">
        <ele>1928</ele>
        <time>2010-01-01T03:34:56Z</time>
      </trkpt>
      <trkpt lat="42.28182" lon="2.23717">
        <ele>1928</ele>
        <time>2010-01-01T03:34:58Z</time>
      </trkpt>
      <trkpt lat="42.28182" lon="2.23713">
        <ele>1928</ele>
        <time>2010-01-01T03:34:59Z</time>
      </trkpt>
      <trkpt lat="42.28182" lon="2.2371">
        <ele>1928</ele>
        <time>2010-01-01T03:35:00Z</time>
      </trkpt>
      <trkpt lat="42.28181" lon="2.23707">
        <ele>1928</ele>
        <time>2010-01-01T03:35:00Z</time>
      </trkpt>
      <trkpt lat="42.2818" lon="2.23704">
        <ele>1928</ele>
        <time>2010-01-01T03:35:01Z</time>
      </trkpt>
      <trkpt lat="42.2818" lon="2.23701">
        <ele>1928</ele>
        <time>2010-01-01T03:35:02Z</time>
      </trkpt>
      <trkpt lat="42.2818" lon="2.23698">
        <ele>1928</ele>
        <time>2010-01-01T03:35:03Z</time>
      </trkpt>
      <trkpt lat="42.2818" lon="2.23695">
        <ele>1929</ele>
        <time>2010-01-01T03:35:04Z</time>
      </trkpt>
      <trkpt lat="42.2818" lon="2.23692">
        <ele>1929</ele>
        <time>2010-01-01T03:35:05Z</time>
      </trkpt>
      <trkpt lat="42.2818" lon="2.23689">
        <ele>1929</ele>
        <time>2010-01-01T03:35:06Z</time>
      </trkpt>
      <trkpt lat="42.2818" lon="2.23686">
        <ele>1929</ele>
        <time>2010-01-01T03:35:07Z</time>
      </trkpt>
      <trkpt lat="42.2818" lon="2.23682">
        <ele>1929</ele>
        <time>2010-01-01T03:35:08Z</time>
      </trkpt>
      <trkpt lat="42.28179" lon="2.23678">
        <ele>1929</ele>
        <time>2010-01-01T03:35:09Z</time>
      </trkpt>
      <trkpt lat="42.28179" lon="2.23673">
        <ele>1930</ele>
        <time>2010-01-01T03:35:11Z</time>
      </trkpt>
      <trkpt lat="42.28178" lon="2.23668">
        <ele>1930</ele>
        <time>2010-01-01T03:35:12Z</time>
      </trkpt>
      <trkpt lat="42.28176" lon="2.23662">
        <ele>1930</ele>
        <time>2010-01-01T03:35:14Z</time>
      </trkpt>
      <trkpt lat="42.28175" lon="2.23657">
        <ele>1930</ele>
        <time>2010-01-01T03:35:16Z</time>
      </trkpt>
      <trkpt lat="42.28175" lon="2.23652">
        <ele>1930</ele>
        <time>2010-01-01T03:35:17Z</time>
      </trkpt>
      <trkpt lat="42.28174" lon="2.23647">
        <ele>1930</ele>
        <time>2010-01-01T03:35:19Z</time>
      </trkpt>
      <trkpt lat="42.28174" lon="2.23642">
        <ele>1930</ele>
        <time>2010-01-01T03:35:20Z</time>
      </trkpt>
      <trkpt lat="42.28174" lon="2.23637">
        <ele>1930</ele>
        <time>2010-01-01T03:35:22Z</time>
      </trkpt>
      <trkpt lat="42.28174" lon="2.23632">
        <ele>1929</ele>
        <time>2010-01-01T03:35:23Z</time>
      </trkpt>
      <trkpt lat="42.28174" lon="2.23626">
        <ele>1929</ele>
        <time>2010-01-01T03:35:25Z</time>
      </trkpt>
      <trkpt lat="42.28176" lon="2.23621">
        <ele>1928</ele>
        <time>2010-01-01T03:35:26Z</time>
      </trkpt>
      <trkpt lat="42.28179" lon="2.23617">
        <ele>1928</ele>
        <time>2010-01-01T03:35:28Z</time>
      </trkpt>
      <trkpt lat="42.28181" lon="2.23613">
        <ele>1928</ele>
        <time>2010-01-01T03:35:30Z</time>
      </trkpt>
      <trkpt lat="42.28182" lon="2.23607">
        <ele>1927</ele>
        <time>2010-01-01T03:35:31Z</time>
      </trkpt>
      <trkpt lat="42.28183" lon="2.23602">
        <ele>1927</ele>
        <time>2010-01-01T03:35:33Z</time>
      </trkpt>
      <trkpt lat="42.28183" lon="2.23596">
        <ele>1926</ele>
        <time>2010-01-01T03:35:35Z</time>
      </trkpt>
      <trkpt lat="42.28184" lon="2.23591">
        <ele>1926</ele>
        <time>2010-01-01T03:35:36Z</time>
      </trkpt>
      <trkpt lat="42.28184" lon="2.23586">
        <ele>1926</ele>
        <time>2010-01-01T03:35:38Z</time>
      </trkpt>
      <trkpt lat="42.28184" lon="2.23581">
        <ele>1925</ele>
        <time>2010-01-01T03:35:39Z</time>
      </trkpt>
      <trkpt lat="42.28184" lon="2.23576">
        <ele>1925</ele>
        <time>2010-01-01T03:35:41Z</time>
      </trkpt>
      <trkpt lat="42.28184" lon="2.23571">
        <ele>1925</ele>
        <time>2010-01-01T03:35:42Z</time>
      </trkpt>
      <trkpt lat="42.28184" lon="2.23565">
        <ele>1924</ele>
        <time>2010-01-01T03:35:44Z</time>
      </trkpt>
      <trkpt lat="42.28185" lon="2.23559">
        <ele>1924</ele>
        <time>2010-01-01T03:35:46Z</time>
      </trkpt>
      <trkpt lat="42.28186" lon="2.23553">
        <ele>1924</ele>
        <time>2010-01-01T03:35:47Z</time>
      </trkpt>
      <trkpt lat="42.28186" lon="2.23548">
        <ele>1924</ele>
        <time>2010-01-01T03:35:49Z</time>
      </trkpt>
      <trkpt lat="42.28188" lon="2.23543">
        <ele>1923</ele>
        <time>2010-01-01T03:35:51Z</time>
      </trkpt>
      <trkpt lat="42.28189" lon="2.23538">
        <ele>1923</ele>
        <time>2010-01-01T03:35:52Z</time>
      </trkpt>
      <trkpt lat="42.28189" lon="2.23533">
        <ele>1923</ele>
        <time>2010-01-01T03:35:54Z</time>
      </trkpt>
      <trkpt lat="42.2819" lon="2.23528">
        <ele>1923</ele>
        <time>2010-01-01T03:35:55Z</time>
      </trkpt>
      <trkpt lat="42.28191" lon="2.23523">
        <ele>1923</ele>
        <time>2010-01-01T03:35:57Z</time>
      </trkpt>
      <trkpt lat="42.28192" lon="2.23518">
        <ele>1922</ele>
        <time>2010-01-01T03:35:58Z</time>
      </trkpt>
      <trkpt lat="42.28194" lon="2.2351">
        <ele>1922</ele>
        <time>2010-01-01T03:36:01Z</time>
      </trkpt>
      <trkpt lat="42.28195" lon="2.23505">
        <ele>1922</ele>
        <time>2010-01-01T03:36:02Z</time>
      </trkpt>
      <trkpt lat="42.28196" lon="2.235">
        <ele>1921</ele>
        <time>2010-01-01T03:36:04Z</time>
      </trkpt>
      <trkpt lat="42.28196" lon="2.23493">
        <ele>1920</ele>
        <time>2010-01-01T03:36:06Z</time>
      </trkpt>
      <trkpt lat="42.28196" lon="2.23486">
        <ele>1919</ele>
        <time>2010-01-01T03:36:08Z</time>
      </trkpt>
      <trkpt lat="42.28195" lon="2.23482">
        <ele>1919</ele>
        <time>2010-01-01T03:36:09Z</time>
      </trkpt>
      <trkpt lat="42.28195" lon="2.23478">
        <ele>1918</ele>
        <time>2010-01-01T03:36:10Z</time>
      </trkpt>
      <trkpt lat="42.28195" lon="2.23474">
        <ele>1918</ele>
        <time>2010-01-01T03:36:12Z</time>
      </trkpt>
      <trkpt lat="42.28195" lon="2.2347">
        <ele>1917</ele>
        <time>2010-01-01T03:36:13Z</time>
      </trkpt>
      <trkpt lat="42.28195" lon="2.23466">
        <ele>1917</ele>
        <time>2010-01-01T03:36:14Z</time>
      </trkpt>
      <trkpt lat="42.28194" lon="2.23462">
        <ele>1916</ele>
        <time>2010-01-01T03:36:15Z</time>
      </trkpt>
      <trkpt lat="42.28193" lon="2.23458">
        <ele>1915</ele>
        <time>2010-01-01T03:36:17Z</time>
      </trkpt>
      <trkpt lat="42.28192" lon="2.23454">
        <ele>1915</ele>
        <time>2010-01-01T03:36:18Z</time>
      </trkpt>
      <trkpt lat="42.2819" lon="2.23451">
        <ele>1914</ele>
        <time>2010-01-01T03:36:19Z</time>
      </trkpt>
      <trkpt lat="42.28188" lon="2.23447">
        <ele>1913</ele>
        <time>2010-01-01T03:36:20Z</time>
      </trkpt>
      <trkpt lat="42.28186" lon="2.23444">
        <ele>1913</ele>
        <time>2010-01-01T03:36:21Z</time>
      </trkpt>
      <trkpt lat="42.28185" lon="2.23439">
        <ele>1912</ele>
        <time>2010-01-01T03:36:23Z</time>
      </trkpt>
      <trkpt lat="42.28184" lon="2.23434">
        <ele>1911</ele>
        <time>2010-01-01T03:36:24Z</time>
      </trkpt>
      <trkpt lat="42.28183" lon="2.23428">
        <ele>1910</ele>
        <time>2010-01-01T03:36:26Z</time>
      </trkpt>
      <trkpt lat="42.28182" lon="2.23423">
        <ele>1909</ele>
        <time>2010-01-01T03:36:28Z</time>
      </trkpt>
      <trkpt lat="42.2818" lon="2.23415">
        <ele>1908</ele>
        <time>2010-01-01T03:36:30Z</time>
      </trkpt>
      <trkpt lat="42.2818" lon="2.23408">
        <ele>1907</ele>
        <time>2010-01-01T03:36:32Z</time>
      </trkpt>
      <trkpt lat="42.28178" lon="2.23404">
        <ele>1907</ele>
        <time>2010-01-01T03:36:34Z</time>
      </trkpt>
      <trkpt lat="42.28176" lon="2.23401">
        <ele>1906</ele>
        <time>2010-01-01T03:36:35Z</time>
      </trkpt>
      <trkpt lat="42.28174" lon="2.23399">
        <ele>1906</ele>
        <time>2010-01-01T03:36:36Z</time>
      </trkpt>
      <trkpt lat="42.28172" lon="2.23395">
        <ele>1906</ele>
        <time>2010-01-01T03:36:37Z</time>
      </trkpt>
      <trkpt lat="42.28169" lon="2.23391">
        <ele>1906</ele>
        <time>2010-01-01T03:36:39Z</time>
      </trkpt>
      <trkpt lat="42.28167" lon="2.23387">
        <ele>1905</ele>
        <time>2010-01-01T03:36:41Z</time>
      </trkpt>
      <trkpt lat="42.28165" lon="2.23381">
        <ele>1904</ele>
        <time>2010-01-01T03:36:42Z</time>
      </trkpt>
      <trkpt lat="42.28162" lon="2.23376">
        <ele>1903</ele>
        <time>2010-01-01T03:36:44Z</time>
      </trkpt>
      <trkpt lat="42.2816" lon="2.2337">
        <ele>1902</ele>
        <time>2010-01-01T03:36:46Z</time>
      </trkpt>
      <trkpt lat="42.28158" lon="2.23364">
        <ele>1901</ele>
        <time>2010-01-01T03:36:48Z</time>
      </trkpt>
      <trkpt lat="42.28157" lon="2.23358">
        <ele>1900</ele>
        <time>2010-01-01T03:36:50Z</time>
      </trkpt>
      <trkpt lat="42.28157" lon="2.23352">
        <ele>1899</ele>
        <time>2010-01-01T03:36:52Z</time>
      </trkpt>
      <trkpt lat="42.28157" lon="2.23345">
        <ele>1897</ele>
        <time>2010-01-01T03:36:54Z</time>
      </trkpt>
      <trkpt lat="42.28157" lon="2.23339">
        <ele>1895</ele>
        <time>2010-01-01T03:36:56Z</time>
      </trkpt>
      <trkpt lat="42.28157" lon="2.23333">
        <ele>1894</ele>
        <time>2010-01-01T03:36:57Z</time>
      </trkpt>
      <trkpt lat="42.28157" lon="2.23328">
        <ele>1893</ele>
        <time>2010-01-01T03:36:59Z</time>
      </trkpt>
      <trkpt lat="42.28157" lon="2.23322">
        <ele>1891</ele>
        <time>2010-01-01T03:37:01Z</time>
      </trkpt>
      <trkpt lat="42.28156" lon="2.23318">
        <ele>1890</ele>
        <time>2010-01-01T03:37:02Z</time>
      </trkpt>
      <trkpt lat="42.28155" lon="2.23312">
        <ele>1889</ele>
        <time>2010-01-01T03:37:04Z</time>
      </trkpt>
      <trkpt lat="42.28155" lon="2.23307">
        <ele>1888</ele>
        <time>2010-01-01T03:37:05Z</time>
      </trkpt>
      <trkpt lat="42.28154" lon="2.23302">
        <ele>1887</ele>
        <time>2010-01-01T03:37:07Z</time>
      </trkpt>
      <trkpt lat="42.28154" lon="2.23296">
        <ele>1885</ele>
        <time>2010-01-01T03:37:09Z</time>
      </trkpt>
      <trkpt lat="42.28155" lon="2.2329">
        <ele>1883</ele>
        <time>2010-01-01T03:37:11Z</time>
      </trkpt>
      <trkpt lat="42.28157" lon="2.23284">
        <ele>1882</ele>
        <time>2010-01-01T03:37:12Z</time>
      </trkpt>
      <trkpt lat="42.28158" lon="2.23279">
        <ele>1881</ele>
        <time>2010-01-01T03:37:14Z</time>
      </trkpt>
      <trkpt lat="42.28161" lon="2.23273">
        <ele>1879</ele>
        <time>2010-01-01T03:37:16Z</time>
      </trkpt>
      <trkpt lat="42.28163" lon="2.23267">
        <ele>1878</ele>
        <time>2010-01-01T03:37:18Z</time>
      </trkpt>
      <trkpt lat="42.28165" lon="2.23263">
        <ele>1877</ele>
        <time>2010-01-01T03:37:19Z</time>
      </trkpt>
      <trkpt lat="42.28167" lon="2.23256">
        <ele>1875</ele>
        <time>2010-01-01T03:37:22Z</time>
      </trkpt>
      <trkpt lat="42.28169" lon="2.23251">
        <ele>1874</ele>
        <time>2010-01-01T03:37:23Z</time>
      </trkpt>
      <trkpt lat="42.2817" lon="2.23247">
        <ele>1872</ele>
        <time>2010-01-01T03:37:24Z</time>
      </trkpt>
      <trkpt lat="42.28172" lon="2.23244">
        <ele>1871</ele>
        <time>2010-01-01T03:37:26Z</time>
      </trkpt>
      <trkpt lat="42.28174" lon="2.23238">
        <ele>1870</ele>
        <time>2010-01-01T03:37:28Z</time>
      </trkpt>
      <trkpt lat="42.28175" lon="2.23234">
        <ele>1869</ele>
        <time>2010-01-01T03:37:29Z</time>
      </trkpt>
      <trkpt lat="42.28176" lon="2.23229">
        <ele>1868</ele>
        <time>2010-01-01T03:37:30Z</time>
      </trkpt>
      <trkpt lat="42.28177" lon="2.23225">
        <ele>1867</ele>
        <time>2010-01-01T03:37:32Z</time>
      </trkpt>
      <trkpt lat="42.28177" lon="2.23218">
        <ele>1865</ele>
        <time>2010-01-01T03:37:34Z</time>
      </trkpt>
      <trkpt lat="42.28177" lon="2.23213">
        <ele>1864</ele>
        <time>2010-01-01T03:37:35Z</time>
      </trkpt>
      <trkpt lat="42.28177" lon="2.23208">
        <ele>1863</ele>
        <time>2010-01-01T03:37:37Z</time>
      </trkpt>
      <trkpt lat="42.28177" lon="2.23203">
        <ele>1862</ele>
        <time>2010-01-01T03:37:38Z</time>
      </trkpt>
      <trkpt lat="42.28178" lon="2.23198">
        <ele>1861</ele>
        <time>2010-01-01T03:37:40Z</time>
      </trkpt>
      <trkpt lat="42.28178" lon="2.23193">
        <ele>1860</ele>
        <time>2010-01-01T03:37:41Z</time>
      </trkpt>
      <trkpt lat="42.28177" lon="2.23187">
        <ele>1858</ele>
        <time>2010-01-01T03:37:43Z</time>
      </trkpt>
      <trkpt lat="42.28176" lon="2.23182">
        <ele>1856</ele>
        <time>2010-01-01T03:37:44Z</time>
      </trkpt>
      <trkpt lat="42.28175" lon="2.23178">
        <ele>1854</ele>
        <time>2010-01-01T03:37:46Z</time>
      </trkpt>
      <trkpt lat="42.28174" lon="2.23172">
        <ele>1852</ele>
        <time>2010-01-01T03:37:47Z</time>
      </trkpt>
      <trkpt lat="42.28174" lon="2.23167">
        <ele>1850</ele>
        <time>2010-01-01T03:37:49Z</time>
      </trkpt>
      <trkpt lat="42.28174" lon="2.23159">
        <ele>1848</ele>
        <time>2010-01-01T03:37:51Z</time>
      </trkpt>
      <trkpt lat="42.28175" lon="2.23154">
        <ele>1846</ele>
        <time>2010-01-01T03:37:53Z</time>
      </trkpt>
      <trkpt lat="42.28176" lon="2.2315">
        <ele>1845</ele>
        <time>2010-01-01T03:37:54Z</time>
      </trkpt>
      <trkpt lat="42.28177" lon="2.23145">
        <ele>1844</ele>
        <time>2010-01-01T03:37:56Z</time>
      </trkpt>
      <trkpt lat="42.28178" lon="2.23141">
        <ele>1843</ele>
        <time>2010-01-01T03:37:57Z</time>
      </trkpt>
      <trkpt lat="42.28179" lon="2.23137">
        <ele>1842</ele>
        <time>2010-01-01T03:37:58Z</time>
      </trkpt>
      <trkpt lat="42.28181" lon="2.23133">
        <ele>1842</ele>
        <time>2010-01-01T03:37:59Z</time>
      </trkpt>
      <trkpt lat="42.28182" lon="2.2313">
        <ele>1841</ele>
        <time>2010-01-01T03:38:01Z</time>
      </trkpt>
      <trkpt lat="42.28183" lon="2.23126">
        <ele>1840</ele>
        <time>2010-01-01T03:38:02Z</time>
      </trkpt>
      <trkpt lat="42.28184" lon="2.23122">
        <ele>1839</ele>
        <time>2010-01-01T03:38:03Z</time>
      </trkpt>
      <trkpt lat="42.28187" lon="2.23119">
        <ele>1838</ele>
        <time>2010-01-01T03:38:05Z</time>
      </trkpt>
      <trkpt lat="42.28189" lon="2.23116">
        <ele>1838</ele>
        <time>2010-01-01T03:38:06Z</time>
      </trkpt>
      <trkpt lat="42.2819" lon="2.23113">
        <ele>1837</ele>
        <time>2010-01-01T03:38:07Z</time>
      </trkpt>
      <trkpt lat="42.28189" lon="2.23109">
        <ele>1836</ele>
        <time>2010-01-01T03:38:08Z</time>
      </trkpt>
      <trkpt lat="42.2819" lon="2.23106">
        <ele>1835</ele>
        <time>2010-01-01T03:38:09Z</time>
      </trkpt>
      <trkpt lat="42.2819" lon="2.23102">
        <ele>1834</ele>
        <time>2010-01-01T03:38:10Z</time>
      </trkpt>
      <trkpt lat="42.28189" lon="2.23098">
        <ele>1833</ele>
        <time>2010-01-01T03:38:11Z</time>
      </trkpt>
      <trkpt lat="42.28189" lon="2.23094">
        <ele>1832</ele>
        <time>2010-01-01T03:38:12Z</time>
      </trkpt>
      <trkpt lat="42.28189" lon="2.2309">
        <ele>1831</ele>
        <time>2010-01-01T03:38:13Z</time>
      </trkpt>
      <trkpt lat="42.28188" lon="2.23086">
        <ele>1831</ele>
        <time>2010-01-01T03:38:15Z</time>
      </trkpt>
      <trkpt lat="42.28188" lon="2.23082">
        <ele>1830</ele>
        <time>2010-01-01T03:38:16Z</time>
      </trkpt>
      <trkpt lat="42.28189" lon="2.23078">
        <ele>1829</ele>
        <time>2010-01-01T03:38:17Z</time>
      </trkpt>
      <trkpt lat="42.28189" lon="2.23074">
        <ele>1828</ele>
        <time>2010-01-01T03:38:18Z</time>
      </trkpt>
      <trkpt lat="42.2819" lon="2.2307">
        <ele>1827</ele>
        <time>2010-01-01T03:38:19Z</time>
      </trkpt>
      <trkpt lat="42.2819" lon="2.23066">
        <ele>1826</ele>
        <time>2010-01-01T03:38:21Z</time>
      </trkpt>
      <trkpt lat="42.2819" lon="2.23062">
        <ele>1825</ele>
        <time>2010-01-01T03:38:22Z</time>
      </trkpt>
      <trkpt lat="42.28191" lon="2.23054">
        <ele>1823</ele>
        <time>2010-01-01T03:38:24Z</time>
      </trkpt>
      <trkpt lat="42.28191" lon="2.23051">
        <ele>1822</ele>
        <time>2010-01-01T03:38:25Z</time>
      </trkpt>
      <trkpt lat="42.28192" lon="2.23048">
        <ele>1822</ele>
        <time>2010-01-01T03:38:26Z</time>
      </trkpt>
      <trkpt lat="42.28193" lon="2.23045">
        <ele>1821</ele>
        <time>2010-01-01T03:38:27Z</time>
      </trkpt>
      <trkpt lat="42.28195" lon="2.23041">
        <ele>1820</ele>
        <time>2010-01-01T03:38:28Z</time>
      </trkpt>
      <trkpt lat="42.28195" lon="2.23038">
        <ele>1819</ele>
        <time>2010-01-01T03:38:29Z</time>
      </trkpt>
      <trkpt lat="42.28195" lon="2.23034">
        <ele>1818</ele>
        <time>2010-01-01T03:38:31Z</time>
      </trkpt>
      <trkpt lat="42.28196" lon="2.23031">
        <ele>1817</ele>
        <time>2010-01-01T03:38:32Z</time>
      </trkpt>
      <trkpt lat="42.28198" lon="2.23028">
        <ele>1816</ele>
        <time>2010-01-01T03:38:33Z</time>
      </trkpt>
      <trkpt lat="42.28199" lon="2.23026">
        <ele>1815</ele>
        <time>2010-01-01T03:38:33Z</time>
      </trkpt>
      <trkpt lat="42.28199" lon="2.23022">
        <ele>1815</ele>
        <time>2010-01-01T03:38:34Z</time>
      </trkpt>
      <trkpt lat="42.28199" lon="2.23019">
        <ele>1814</ele>
        <time>2010-01-01T03:38:35Z</time>
      </trkpt>
      <trkpt lat="42.28199" lon="2.23016">
        <ele>1813</ele>
        <time>2010-01-01T03:38:36Z</time>
      </trkpt>
      <trkpt lat="42.28199" lon="2.23012">
        <ele>1812</ele>
        <time>2010-01-01T03:38:38Z</time>
      </trkpt>
      <trkpt lat="42.28199" lon="2.23008">
        <ele>1812</ele>
        <time>2010-01-01T03:38:39Z</time>
      </trkpt>
      <trkpt lat="42.28198" lon="2.23006">
        <ele>1811</ele>
        <time>2010-01-01T03:38:39Z</time>
      </trkpt>
      <trkpt lat="42.28198" lon="2.23002">
        <ele>1811</ele>
        <time>2010-01-01T03:38:41Z</time>
      </trkpt>
      <trkpt lat="42.28197" lon="2.22998">
        <ele>1810</ele>
        <time>2010-01-01T03:38:42Z</time>
      </trkpt>
      <trkpt lat="42.28196" lon="2.22995">
        <ele>1809</ele>
        <time>2010-01-01T03:38:43Z</time>
      </trkpt>
      <trkpt lat="42.28195" lon="2.22992">
        <ele>1809</ele>
        <time>2010-01-01T03:38:44Z</time>
      </trkpt>
      <trkpt lat="42.28194" lon="2.22989">
        <ele>1808</ele>
        <time>2010-01-01T03:38:45Z</time>
      </trkpt>
      <trkpt lat="42.28193" lon="2.22987">
        <ele>1808</ele>
        <time>2010-01-01T03:38:46Z</time>
      </trkpt>
      <trkpt lat="42.28191" lon="2.22983">
        <ele>1807</ele>
        <time>2010-01-01T03:38:47Z</time>
      </trkpt>
      <trkpt lat="42.2819" lon="2.2298">
        <ele>1806</ele>
        <time>2010-01-01T03:38:48Z</time>
      </trkpt>
      <trkpt lat="42.28188" lon="2.22976">
        <ele>1806</ele>
        <time>2010-01-01T03:38:49Z</time>
      </trkpt>
      <trkpt lat="42.28187" lon="2.22972">
        <ele>1805</ele>
        <time>2010-01-01T03:38:50Z</time>
      </trkpt>
      <trkpt lat="42.28185" lon="2.22969">
        <ele>1804</ele>
        <time>2010-01-01T03:38:52Z</time>
      </trkpt>
      <trkpt lat="42.28183" lon="2.22965">
        <ele>1804</ele>
        <time>2010-01-01T03:38:53Z</time>
      </trkpt>
      <trkpt lat="42.28181" lon="2.22961">
        <ele>1804</ele>
        <time>2010-01-01T03:38:55Z</time>
      </trkpt>
      <trkpt lat="42.28178" lon="2.22955">
        <ele>1803</ele>
        <time>2010-01-01T03:38:57Z</time>
      </trkpt>
      <trkpt lat="42.28176" lon="2.22952">
        <ele>1803</ele>
        <time>2010-01-01T03:38:58Z</time>
      </trkpt>
      <trkpt lat="42.28174" lon="2.22949">
        <ele>1803</ele>
        <time>2010-01-01T03:38:59Z</time>
      </trkpt>
      <trkpt lat="42.28172" lon="2.22945">
        <ele>1803</ele>
        <time>2010-01-01T03:39:01Z</time>
      </trkpt>
      <trkpt lat="42.28171" lon="2.2294">
        <ele>1802</ele>
        <time>2010-01-01T03:39:02Z</time>
      </trkpt>
      <trkpt lat="42.28169" lon="2.22935">
        <ele>1801</ele>
        <time>2010-01-01T03:39:04Z</time>
      </trkpt>
      <trkpt lat="42.28168" lon="2.22931">
        <ele>1800</ele>
        <time>2010-01-01T03:39:05Z</time>
      </trkpt>
      <trkpt lat="42.28166" lon="2.22926">
        <ele>1799</ele>
        <time>2010-01-01T03:39:07Z</time>
      </trkpt>
      <trkpt lat="42.28163" lon="2.2292">
        <ele>1798</ele>
        <time>2010-01-01T03:39:09Z</time>
      </trkpt>
      <trkpt lat="42.28161" lon="2.22917">
        <ele>1797</ele>
        <time>2010-01-01T03:39:10Z</time>
      </trkpt>
      <trkpt lat="42.28159" lon="2.22914">
        <ele>1796</ele>
        <time>2010-01-01T03:39:11Z</time>
      </trkpt>
      <trkpt lat="42.28157" lon="2.22912">
        <ele>1796</ele>
        <time>2010-01-01T03:39:12Z</time>
      </trkpt>
      <trkpt lat="42.28155" lon="2.22909">
        <ele>1795</ele>
        <time>2010-01-01T03:39:14Z</time>
      </trkpt>
      <trkpt lat="42.28153" lon="2.22907">
        <ele>1794</ele>
        <time>2010-01-01T03:39:15Z</time>
      </trkpt>
      <trkpt lat="42.28151" lon="2.22904">
        <ele>1794</ele>
        <time>2010-01-01T03:39:16Z</time>
      </trkpt>
      <trkpt lat="42.28149" lon="2.22901">
        <ele>1793</ele>
        <time>2010-01-01T03:39:17Z</time>
      </trkpt>
      <trkpt lat="42.28148" lon="2.22898">
        <ele>1792</ele>
        <time>2010-01-01T03:39:18Z</time>
      </trkpt>
      <trkpt lat="42.28146" lon="2.22895">
        <ele>1791</ele>
        <time>2010-01-01T03:39:19Z</time>
      </trkpt>
      <trkpt lat="42.28145" lon="2.22892">
        <ele>1790</ele>
        <time>2010-01-01T03:39:20Z</time>
      </trkpt>
      <trkpt lat="42.28145" lon="2.22888">
        <ele>1790</ele>
        <time>2010-01-01T03:39:21Z</time>
      </trkpt>
      <trkpt lat="42.28144" lon="2.22884">
        <ele>1789</ele>
        <time>2010-01-01T03:39:22Z</time>
      </trkpt>
      <trkpt lat="42.28143" lon="2.22879">
        <ele>1789</ele>
        <time>2010-01-01T03:39:24Z</time>
      </trkpt>
      <trkpt lat="42.28142" lon="2.22874">
        <ele>1788</ele>
        <time>2010-01-01T03:39:25Z</time>
      </trkpt>
      <trkpt lat="42.28141" lon="2.22868">
        <ele>1788</ele>
        <time>2010-01-01T03:39:27Z</time>
      </trkpt>
      <trkpt lat="42.2814" lon="2.22861">
        <ele>1787</ele>
        <time>2010-01-01T03:39:29Z</time>
      </trkpt>
      <trkpt lat="42.2814" lon="2.22857">
        <ele>1787</ele>
        <time>2010-01-01T03:39:30Z</time>
      </trkpt>
      <trkpt lat="42.28139" lon="2.22853">
        <ele>1787</ele>
        <time>2010-01-01T03:39:32Z</time>
      </trkpt>
      <trkpt lat="42.28138" lon="2.2285">
        <ele>1787</ele>
        <time>2010-01-01T03:39:33Z</time>
      </trkpt>
      <trkpt lat="42.28138" lon="2.22846">
        <ele>1787</ele>
        <time>2010-01-01T03:39:34Z</time>
      </trkpt>
      <trkpt lat="42.28137" lon="2.22842">
        <ele>1787</ele>
        <time>2010-01-01T03:39:35Z</time>
      </trkpt>
      <trkpt lat="42.28136" lon="2.22838">
        <ele>1787</ele>
        <time>2010-01-01T03:39:36Z</time>
      </trkpt>
      <trkpt lat="42.28135" lon="2.22834">
        <ele>1787</ele>
        <time>2010-01-01T03:39:37Z</time>
      </trkpt>
      <trkpt lat="42.28135" lon="2.2283">
        <ele>1786</ele>
        <time>2010-01-01T03:39:39Z</time>
      </trkpt>
      <trkpt lat="42.28134" lon="2.22826">
        <ele>1786</ele>
        <time>2010-01-01T03:39:40Z</time>
      </trkpt>
      <trkpt lat="42.28134" lon="2.22822">
        <ele>1786</ele>
        <time>2010-01-01T03:39:41Z</time>
      </trkpt>
      <trkpt lat="42.28134" lon="2.22818">
        <ele>1786</ele>
        <time>2010-01-01T03:39:42Z</time>
      </trkpt>
      <trkpt lat="42.28134" lon="2.22814">
        <ele>1785</ele>
        <time>2010-01-01T03:39:43Z</time>
      </trkpt>
      <trkpt lat="42.28134" lon="2.2281">
        <ele>1785</ele>
        <time>2010-01-01T03:39:45Z</time>
      </trkpt>
      <trkpt lat="42.28134" lon="2.22807">
        <ele>1785</ele>
        <time>2010-01-01T03:39:46Z</time>
      </trkpt>
      <trkpt lat="42.28134" lon="2.22803">
        <ele>1785</ele>
        <time>2010-01-01T03:39:47Z</time>
      </trkpt>
      <trkpt lat="42.28135" lon="2.22798">
        <ele>1786</ele>
        <time>2010-01-01T03:39:48Z</time>
      </trkpt>
      <trkpt lat="42.28136" lon="2.22793">
        <ele>1787</ele>
        <time>2010-01-01T03:39:50Z</time>
      </trkpt>
      <trkpt lat="42.28138" lon="2.22786">
        <ele>1788</ele>
        <time>2010-01-01T03:39:52Z</time>
      </trkpt>
      <trkpt lat="42.28139" lon="2.22782">
        <ele>1788</ele>
        <time>2010-01-01T03:39:53Z</time>
      </trkpt>
      <trkpt lat="42.2814" lon="2.22777">
        <ele>1789</ele>
        <time>2010-01-01T03:39:55Z</time>
      </trkpt>
      <trkpt lat="42.28141" lon="2.22772">
        <ele>1789</ele>
        <time>2010-01-01T03:39:56Z</time>
      </trkpt>
      <trkpt lat="42.28142" lon="2.22766">
        <ele>1790</ele>
        <time>2010-01-01T03:39:58Z</time>
      </trkpt>
      <trkpt lat="42.28143" lon="2.22762">
        <ele>1791</ele>
        <time>2010-01-01T03:39:59Z</time>
      </trkpt>
      <trkpt lat="42.28143" lon="2.22759">
        <ele>1791</ele>
        <time>2010-01-01T03:40:00Z</time>
      </trkpt>
      <trkpt lat="42.28144" lon="2.22757">
        <ele>1791</ele>
        <time>2010-01-01T03:40:01Z</time>
      </trkpt>
      <trkpt lat="42.28145" lon="2.22754">
        <ele>1791</ele>
        <time>2010-01-01T03:40:02Z</time>
      </trkpt>
      <trkpt lat="42.28145" lon="2.22751">
        <ele>1792</ele>
        <time>2010-01-01T03:40:03Z</time>
      </trkpt>
      <trkpt lat="42.28146" lon="2.22747">
        <ele>1792</ele>
        <time>2010-01-01T03:40:04Z</time>
      </trkpt>
      <trkpt lat="42.28147" lon="2.22744">
        <ele>1792</ele>
        <time>2010-01-01T03:40:05Z</time>
      </trkpt>
      <trkpt lat="42.28147" lon="2.22742">
        <ele>1792</ele>
        <time>2010-01-01T03:40:06Z</time>
      </trkpt>
      <trkpt lat="42.28149" lon="2.22739">
        <ele>1791</ele>
        <time>2010-01-01T03:40:07Z</time>
      </trkpt>
      <trkpt lat="42.28149" lon="2.22736">
        <ele>1791</ele>
        <time>2010-01-01T03:40:08Z</time>
      </trkpt>
      <trkpt lat="42.2815" lon="2.22733">
        <ele>1791</ele>
        <time>2010-01-01T03:40:09Z</time>
      </trkpt>
      <trkpt lat="42.2815" lon="2.2273">
        <ele>1791</ele>
        <time>2010-01-01T03:40:09Z</time>
      </trkpt>
      <trkpt lat="42.2815" lon="2.22727">
        <ele>1791</ele>
        <time>2010-01-01T03:40:10Z</time>
      </trkpt>
      <trkpt lat="42.28151" lon="2.22724">
        <ele>1791</ele>
        <time>2010-01-01T03:40:11Z</time>
      </trkpt>
      <trkpt lat="42.28152" lon="2.22721">
        <ele>1791</ele>
        <time>2010-01-01T03:40:12Z</time>
      </trkpt>
      <trkpt lat="42.28152" lon="2.22718">
        <ele>1791</ele>
        <time>2010-01-01T03:40:13Z</time>
      </trkpt>
      <trkpt lat="42.28152" lon="2.22715">
        <ele>1791</ele>
        <time>2010-01-01T03:40:14Z</time>
      </trkpt>
      <trkpt lat="42.28152" lon="2.22711">
        <ele>1791</ele>
        <time>2010-01-01T03:40:15Z</time>
      </trkpt>
      <trkpt lat="42.28152" lon="2.22708">
        <ele>1792</ele>
        <time>2010-01-01T03:40:16Z</time>
      </trkpt>
      <trkpt lat="42.28152" lon="2.22704">
        <ele>1792</ele>
        <time>2010-01-01T03:40:17Z</time>
      </trkpt>
      <trkpt lat="42.28153" lon="2.22701">
        <ele>1792</ele>
        <time>2010-01-01T03:40:18Z</time>
      </trkpt>
      <trkpt lat="42.28153" lon="2.22698">
        <ele>1792</ele>
        <time>2010-01-01T03:40:19Z</time>
      </trkpt>
      <trkpt lat="42.28154" lon="2.22694">
        <ele>1791</ele>
        <time>2010-01-01T03:40:20Z</time>
      </trkpt>
      <trkpt lat="42.28155" lon="2.2269">
        <ele>1792</ele>
        <time>2010-01-01T03:40:21Z</time>
      </trkpt>
      <trkpt lat="42.28154" lon="2.22686">
        <ele>1792</ele>
        <time>2010-01-01T03:40:23Z</time>
      </trkpt>
      <trkpt lat="42.28154" lon="2.22682">
        <ele>1793</ele>
        <time>2010-01-01T03:40:24Z</time>
      </trkpt>
      <trkpt lat="42.28153" lon="2.22678">
        <ele>1793</ele>
        <time>2010-01-01T03:40:25Z</time>
      </trkpt>
      <trkpt lat="42.28152" lon="2.22674">
        <ele>1794</ele>
        <time>2010-01-01T03:40:26Z</time>
      </trkpt>
      <trkpt lat="42.28151" lon="2.22671">
        <ele>1794</ele>
        <time>2010-01-01T03:40:27Z</time>
      </trkpt>
      <trkpt lat="42.2815" lon="2.22667">
        <ele>1795</ele>
        <time>2010-01-01T03:40:28Z</time>
      </trkpt>
      <trkpt lat="42.28149" lon="2.22664">
        <ele>1795</ele>
        <time>2010-01-01T03:40:30Z</time>
      </trkpt>
      <trkpt lat="42.28147" lon="2.22661">
        <ele>1796</ele>
        <time>2010-01-01T03:40:31Z</time>
      </trkpt>
      <trkpt lat="42.28145" lon="2.22658">
        <ele>1796</ele>
        <time>2010-01-01T03:40:32Z</time>
      </trkpt>
      <trkpt lat="42.28144" lon="2.22654">
        <ele>1796</ele>
        <time>2010-01-01T03:40:33Z</time>
      </trkpt>
      <trkpt lat="42.28143" lon="2.22651">
        <ele>1797</ele>
        <time>2010-01-01T03:40:34Z</time>
      </trkpt>
      <trkpt lat="42.28141" lon="2.22648">
        <ele>1797</ele>
        <time>2010-01-01T03:40:35Z</time>
      </trkpt>
      <trkpt lat="42.28139" lon="2.22646">
        <ele>1797</ele>
        <time>2010-01-01T03:40:36Z</time>
      </trkpt>
      <trkpt lat="42.28138" lon="2.22643">
        <ele>1797</ele>
        <time>2010-01-01T03:40:37Z</time>
      </trkpt>
      <trkpt lat="42.28136" lon="2.2264">
        <ele>1797</ele>
        <time>2010-01-01T03:40:38Z</time>
      </trkpt>
      <trkpt lat="42.28135" lon="2.22638">
        <ele>1797</ele>
        <time>2010-01-01T03:40:39Z</time>
      </trkpt>
      <trkpt lat="42.28133" lon="2.22635">
        <ele>1798</ele>
        <time>2010-01-01T03:40:40Z</time>
      </trkpt>
      <trkpt lat="42.28132" lon="2.22632">
        <ele>1798</ele>
        <time>2010-01-01T03:40:41Z</time>
      </trkpt>
      <trkpt lat="42.2813" lon="2.2263">
        <ele>1798</ele>
        <time>2010-01-01T03:40:42Z</time>
      </trkpt>
      <trkpt lat="42.28128" lon="2.22627">
        <ele>1799</ele>
        <time>2010-01-01T03:40:43Z</time>
      </trkpt>
      <trkpt lat="42.28127" lon="2.22623">
        <ele>1799</ele>
        <time>2010-01-01T03:40:44Z</time>
      </trkpt>
      <trkpt lat="42.28126" lon="2.22621">
        <ele>1799</ele>
        <time>2010-01-01T03:40:45Z</time>
      </trkpt>
      <trkpt lat="42.28125" lon="2.22618">
        <ele>1800</ele>
        <time>2010-01-01T03:40:46Z</time>
      </trkpt>
      <trkpt lat="42.28123" lon="2.22616">
        <ele>1800</ele>
        <time>2010-01-01T03:40:47Z</time>
      </trkpt>
      <trkpt lat="42.28122" lon="2.22612">
        <ele>1800</ele>
        <time>2010-01-01T03:40:48Z</time>
      </trkpt>
      <trkpt lat="42.2812" lon="2.22609">
        <ele>1801</ele>
        <time>2010-01-01T03:40:49Z</time>
      </trkpt>
      <trkpt lat="42.28119" lon="2.22606">
        <ele>1801</ele>
        <time>2010-01-01T03:40:50Z</time>
      </trkpt>
      <trkpt lat="42.2812" lon="2.22601">
        <ele>1801</ele>
        <time>2010-01-01T03:40:52Z</time>
      </trkpt>
      <trkpt lat="42.28121" lon="2.22597">
        <ele>1801</ele>
        <time>2010-01-01T03:40:53Z</time>
      </trkpt>
      <trkpt lat="42.28123" lon="2.22592">
        <ele>1801</ele>
        <time>2010-01-01T03:40:55Z</time>
      </trkpt>
      <trkpt lat="42.28125" lon="2.22586">
        <ele>1801</ele>
        <time>2010-01-01T03:40:57Z</time>
      </trkpt>
      <trkpt lat="42.28127" lon="2.2258">
        <ele>1801</ele>
        <time>2010-01-01T03:40:59Z</time>
      </trkpt>
      <trkpt lat="42.28128" lon="2.22577">
        <ele>1800</ele>
        <time>2010-01-01T03:41:00Z</time>
      </trkpt>
      <trkpt lat="42.28129" lon="2.22575">
        <ele>1800</ele>
        <time>2010-01-01T03:41:00Z</time>
      </trkpt>
      <trkpt lat="42.28129" lon="2.22571">
        <ele>1800</ele>
        <time>2010-01-01T03:41:01Z</time>
      </trkpt>
      <trkpt lat="42.28128" lon="2.22568">
        <ele>1800</ele>
        <time>2010-01-01T03:41:02Z</time>
      </trkpt>
      <trkpt lat="42.28128" lon="2.22565">
        <ele>1800</ele>
        <time>2010-01-01T03:41:03Z</time>
      </trkpt>
      <trkpt lat="42.28127" lon="2.22562">
        <ele>1800</ele>
        <time>2010-01-01T03:41:04Z</time>
      </trkpt>
      <trkpt lat="42.28127" lon="2.22559">
        <ele>1800</ele>
        <time>2010-01-01T03:41:05Z</time>
      </trkpt>
      <trkpt lat="42.28127" lon="2.22555">
        <ele>1800</ele>
        <time>2010-01-01T03:41:06Z</time>
      </trkpt>
      <trkpt lat="42.28127" lon="2.22552">
        <ele>1799</ele>
        <time>2010-01-01T03:41:07Z</time>
      </trkpt>
      <trkpt lat="42.28128" lon="2.22548">
        <ele>1798</ele>
        <time>2010-01-01T03:41:08Z</time>
      </trkpt>
      <trkpt lat="42.28129" lon="2.22544">
        <ele>1797</ele>
        <time>2010-01-01T03:41:10Z</time>
      </trkpt>
      <trkpt lat="42.2813" lon="2.22541">
        <ele>1796</ele>
        <time>2010-01-01T03:41:11Z</time>
      </trkpt>
      <trkpt lat="42.28131" lon="2.22537">
        <ele>1795</ele>
        <time>2010-01-01T03:41:12Z</time>
      </trkpt>
      <trkpt lat="42.28132" lon="2.22534">
        <ele>1795</ele>
        <time>2010-01-01T03:41:13Z</time>
      </trkpt>
      <trkpt lat="42.28133" lon="2.22531">
        <ele>1794</ele>
        <time>2010-01-01T03:41:14Z</time>
      </trkpt>
      <trkpt lat="42.28133" lon="2.22527">
        <ele>1793</ele>
        <time>2010-01-01T03:41:15Z</time>
      </trkpt>
      <trkpt lat="42.28134" lon="2.22523">
        <ele>1793</ele>
        <time>2010-01-01T03:41:16Z</time>
      </trkpt>
      <trkpt lat="42.28135" lon="2.22519">
        <ele>1793</ele>
        <time>2010-01-01T03:41:17Z</time>
      </trkpt>
      <trkpt lat="42.28135" lon="2.22512">
        <ele>1793</ele>
        <time>2010-01-01T03:41:20Z</time>
      </trkpt>
      <trkpt lat="42.28136" lon="2.22509">
        <ele>1793</ele>
        <time>2010-01-01T03:41:21Z</time>
      </trkpt>
      <trkpt lat="42.28136" lon="2.22505">
        <ele>1793</ele>
        <time>2010-01-01T03:41:22Z</time>
      </trkpt>
      <trkpt lat="42.28137" lon="2.22502">
        <ele>1792</ele>
        <time>2010-01-01T03:41:23Z</time>
      </trkpt>
      <trkpt lat="42.28138" lon="2.22498">
        <ele>1792</ele>
        <time>2010-01-01T03:41:24Z</time>
      </trkpt>
      <trkpt lat="42.28138" lon="2.22495">
        <ele>1793</ele>
        <time>2010-01-01T03:41:25Z</time>
      </trkpt>
      <trkpt lat="42.28139" lon="2.22491">
        <ele>1793</ele>
        <time>2010-01-01T03:41:26Z</time>
      </trkpt>
      <trkpt lat="42.28139" lon="2.22488">
        <ele>1794</ele>
        <time>2010-01-01T03:41:27Z</time>
      </trkpt>
      <trkpt lat="42.2814" lon="2.22485">
        <ele>1794</ele>
        <time>2010-01-01T03:41:28Z</time>
      </trkpt>
      <trkpt lat="42.2814" lon="2.22482">
        <ele>1794</ele>
        <time>2010-01-01T03:41:29Z</time>
      </trkpt>
      <trkpt lat="42.2814" lon="2.22479">
        <ele>1795</ele>
        <time>2010-01-01T03:41:30Z</time>
      </trkpt>
      <trkpt lat="42.2814" lon="2.22477">
        <ele>1795</ele>
        <time>2010-01-01T03:41:30Z</time>
      </trkpt>
      <trkpt lat="42.28139" lon="2.22474">
        <ele>1796</ele>
        <time>2010-01-01T03:41:31Z</time>
      </trkpt>
      <trkpt lat="42.28139" lon="2.22472">
        <ele>1797</ele>
        <time>2010-01-01T03:41:32Z</time>
      </trkpt>
      <trkpt lat="42.28139" lon="2.22469">
        <ele>1797</ele>
        <time>2010-01-01T03:41:33Z</time>
      </trkpt>
      <trkpt lat="42.28138" lon="2.22466">
        <ele>1797</ele>
        <time>2010-01-01T03:41:33Z</time>
      </trkpt>
      <trkpt lat="42.28138" lon="2.22463">
        <ele>1797</ele>
        <time>2010-01-01T03:41:35Z</time>
      </trkpt>
      <trkpt lat="42.28137" lon="2.22459">
        <ele>1797</ele>
        <time>2010-01-01T03:41:36Z</time>
      </trkpt>
      <trkpt lat="42.28137" lon="2.22456">
        <ele>1797</ele>
        <time>2010-01-01T03:41:37Z</time>
      </trkpt>
      <trkpt lat="42.28137" lon="2.22452">
        <ele>1798</ele>
        <time>2010-01-01T03:41:38Z</time>
      </trkpt>
      <trkpt lat="42.28136" lon="2.22449">
        <ele>1797</ele>
        <time>2010-01-01T03:41:39Z</time>
      </trkpt>
      <trkpt lat="42.28136" lon="2.22445">
        <ele>1798</ele>
        <time>2010-01-01T03:41:40Z</time>
      </trkpt>
      <trkpt lat="42.28136" lon="2.22443">
        <ele>1798</ele>
        <time>2010-01-01T03:41:41Z</time>
      </trkpt>
      <trkpt lat="42.28135" lon="2.2244">
        <ele>1798</ele>
        <time>2010-01-01T03:41:41Z</time>
      </trkpt>
      <trkpt lat="42.28135" lon="2.22437">
        <ele>1798</ele>
        <time>2010-01-01T03:41:42Z</time>
      </trkpt>
      <trkpt lat="42.28135" lon="2.22435">
        <ele>1798</ele>
        <time>2010-01-01T03:41:43Z</time>
      </trkpt>
      <trkpt lat="42.28134" lon="2.22431">
        <ele>1798</ele>
        <time>2010-01-01T03:41:44Z</time>
      </trkpt>
      <trkpt lat="42.28134" lon="2.22428">
        <ele>1798</ele>
        <time>2010-01-01T03:41:45Z</time>
      </trkpt>
      <trkpt lat="42.28134" lon="2.22425">
        <ele>1798</ele>
        <time>2010-01-01T03:41:46Z</time>
      </trkpt>
      <trkpt lat="42.28134" lon="2.22422">
        <ele>1798</ele>
        <time>2010-01-01T03:41:47Z</time>
      </trkpt>
      <trkpt lat="42.28134" lon="2.2242">
        <ele>1798</ele>
        <time>2010-01-01T03:41:47Z</time>
      </trkpt>
      <trkpt lat="42.28134" lon="2.22416">
        <ele>1798</ele>
        <time>2010-01-01T03:41:49Z</time>
      </trkpt>
      <trkpt lat="42.28134" lon="2.22413">
        <ele>1798</ele>
        <time>2010-01-01T03:41:49Z</time>
      </trkpt>
      <trkpt lat="42.28133" lon="2.22411">
        <ele>1798</ele>
        <time>2010-01-01T03:41:50Z</time>
      </trkpt>
      <trkpt lat="42.28133" lon="2.22408">
        <ele>1799</ele>
        <time>2010-01-01T03:41:51Z</time>
      </trkpt>
      <trkpt lat="42.28132" lon="2.22405">
        <ele>1799</ele>
        <time>2010-01-01T03:41:52Z</time>
      </trkpt>
      <trkpt lat="42.28131" lon="2.22401">
        <ele>1800</ele>
        <time>2010-01-01T03:41:53Z</time>
      </trkpt>
      <trkpt lat="42.2813" lon="2.22398">
        <ele>1800</ele>
        <time>2010-01-01T03:41:54Z</time>
      </trkpt>
      <trkpt lat="42.2813" lon="2.22396">
        <ele>1801</ele>
        <time>2010-01-01T03:41:55Z</time>
      </trkpt>
      <trkpt lat="42.28129" lon="2.22393">
        <ele>1801</ele>
        <time>2010-01-01T03:41:56Z</time>
      </trkpt>
      <trkpt lat="42.28129" lon="2.2239">
        <ele>1801</ele>
        <time>2010-01-01T03:41:56Z</time>
      </trkpt>
      <trkpt lat="42.28128" lon="2.22388">
        <ele>1802</ele>
        <time>2010-01-01T03:41:57Z</time>
      </trkpt>
      <trkpt lat="42.28127" lon="2.22385">
        <ele>1803</ele>
        <time>2010-01-01T03:41:58Z</time>
      </trkpt>
      <trkpt lat="42.28126" lon="2.22383">
        <ele>1803</ele>
        <time>2010-01-01T03:41:59Z</time>
      </trkpt>
      <trkpt lat="42.28125" lon="2.2238">
        <ele>1804</ele>
        <time>2010-01-01T03:42:00Z</time>
      </trkpt>
      <trkpt lat="42.28124" lon="2.22377">
        <ele>1805</ele>
        <time>2010-01-01T03:42:01Z</time>
      </trkpt>
      <trkpt lat="42.28124" lon="2.22374">
        <ele>1806</ele>
        <time>2010-01-01T03:42:02Z</time>
      </trkpt>
      <trkpt lat="42.28123" lon="2.22372">
        <ele>1807</ele>
        <time>2010-01-01T03:42:03Z</time>
      </trkpt>
      <trkpt lat="42.28122" lon="2.22369">
        <ele>1808</ele>
        <time>2010-01-01T03:42:04Z</time>
      </trkpt>
      <trkpt lat="42.28121" lon="2.22366">
        <ele>1809</ele>
        <time>2010-01-01T03:42:04Z</time>
      </trkpt>
      <trkpt lat="42.28119" lon="2.22363">
        <ele>1810</ele>
        <time>2010-01-01T03:42:05Z</time>
      </trkpt>
      <trkpt lat="42.28119" lon="2.22361">
        <ele>1810</ele>
        <time>2010-01-01T03:42:06Z</time>
      </trkpt>
      <trkpt lat="42.28118" lon="2.22358">
        <ele>1811</ele>
        <time>2010-01-01T03:42:07Z</time>
      </trkpt>
      <trkpt lat="42.28117" lon="2.22355">
        <ele>1812</ele>
        <time>2010-01-01T03:42:08Z</time>
      </trkpt>
      <trkpt lat="42.28116" lon="2.22352">
        <ele>1812</ele>
        <time>2010-01-01T03:42:09Z</time>
      </trkpt>
      <trkpt lat="42.28115" lon="2.22349">
        <ele>1813</ele>
        <time>2010-01-01T03:42:10Z</time>
      </trkpt>
      <trkpt lat="42.28114" lon="2.22347">
        <ele>1814</ele>
        <time>2010-01-01T03:42:11Z</time>
      </trkpt>
      <trkpt lat="42.28113" lon="2.22344">
        <ele>1814</ele>
        <time>2010-01-01T03:42:12Z</time>
      </trkpt>
      <trkpt lat="42.28112" lon="2.22341">
        <ele>1815</ele>
        <time>2010-01-01T03:42:13Z</time>
      </trkpt>
      <trkpt lat="42.28111" lon="2.22338">
        <ele>1816</ele>
        <time>2010-01-01T03:42:13Z</time>
      </trkpt>
      <trkpt lat="42.28111" lon="2.22336">
        <ele>1816</ele>
        <time>2010-01-01T03:42:14Z</time>
      </trkpt>
      <trkpt lat="42.28111" lon="2.22332">
        <ele>1817</ele>
        <time>2010-01-01T03:42:15Z</time>
      </trkpt>
      <trkpt lat="42.2811" lon="2.2233">
        <ele>1817</ele>
        <time>2010-01-01T03:42:16Z</time>
      </trkpt>
      <trkpt lat="42.2811" lon="2.22327">
        <ele>1817</ele>
        <time>2010-01-01T03:42:17Z</time>
      </trkpt>
      <trkpt lat="42.28109" lon="2.22324">
        <ele>1818</ele>
        <time>2010-01-01T03:42:18Z</time>
      </trkpt>
      <trkpt lat="42.28108" lon="2.22321">
        <ele>1818</ele>
        <time>2010-01-01T03:42:19Z</time>
      </trkpt>
      <trkpt lat="42.28107" lon="2.22318">
        <ele>1819</ele>
        <time>2010-01-01T03:42:20Z</time>
      </trkpt>
      <trkpt lat="42.28107" lon="2.22315">
        <ele>1819</ele>
        <time>2010-01-01T03:42:21Z</time>
      </trkpt>
      <trkpt lat="42.28106" lon="2.22312">
        <ele>1820</ele>
        <time>2010-01-01T03:42:22Z</time>
      </trkpt>
      <trkpt lat="42.28105" lon="2.22309">
        <ele>1820</ele>
        <time>2010-01-01T03:42:23Z</time>
      </trkpt>
      <trkpt lat="42.28105" lon="2.22306">
        <ele>1820</ele>
        <time>2010-01-01T03:42:23Z</time>
      </trkpt>
      <trkpt lat="42.28104" lon="2.22303">
        <ele>1821</ele>
        <time>2010-01-01T03:42:24Z</time>
      </trkpt>
      <trkpt lat="42.28104" lon="2.223">
        <ele>1821</ele>
        <time>2010-01-01T03:42:25Z</time>
      </trkpt>
      <trkpt lat="42.28104" lon="2.22297">
        <ele>1821</ele>
        <time>2010-01-01T03:42:26Z</time>
      </trkpt>
      <trkpt lat="42.28104" lon="2.22294">
        <ele>1821</ele>
        <time>2010-01-01T03:42:27Z</time>
      </trkpt>
      <trkpt lat="42.28103" lon="2.22291">
        <ele>1821</ele>
        <time>2010-01-01T03:42:28Z</time>
      </trkpt>
      <trkpt lat="42.28103" lon="2.22288">
        <ele>1821</ele>
        <time>2010-01-01T03:42:29Z</time>
      </trkpt>
      <trkpt lat="42.28102" lon="2.22286">
        <ele>1821</ele>
        <time>2010-01-01T03:42:30Z</time>
      </trkpt>
      <trkpt lat="42.28102" lon="2.22282">
        <ele>1821</ele>
        <time>2010-01-01T03:42:31Z</time>
      </trkpt>
      <trkpt lat="42.28102" lon="2.22279">
        <ele>1821</ele>
        <time>2010-01-01T03:42:31Z</time>
      </trkpt>
      <trkpt lat="42.28101" lon="2.22276">
        <ele>1822</ele>
        <time>2010-01-01T03:42:33Z</time>
      </trkpt>
      <trkpt lat="42.28101" lon="2.22273">
        <ele>1822</ele>
        <time>2010-01-01T03:42:33Z</time>
      </trkpt>
      <trkpt lat="42.281" lon="2.22271">
        <ele>1822</ele>
        <time>2010-01-01T03:42:34Z</time>
      </trkpt>
      <trkpt lat="42.281" lon="2.22268">
        <ele>1822</ele>
        <time>2010-01-01T03:42:35Z</time>
      </trkpt>
      <trkpt lat="42.281" lon="2.22265">
        <ele>1822</ele>
        <time>2010-01-01T03:42:36Z</time>
      </trkpt>
      <trkpt lat="42.281" lon="2.22263">
        <ele>1822</ele>
        <time>2010-01-01T03:42:37Z</time>
      </trkpt>
      <trkpt lat="42.281" lon="2.2226">
        <ele>1822</ele>
        <time>2010-01-01T03:42:37Z</time>
      </trkpt>
      <trkpt lat="42.281" lon="2.22256">
        <ele>1822</ele>
        <time>2010-01-01T03:42:38Z</time>
      </trkpt>
      <trkpt lat="42.281" lon="2.22253">
        <ele>1822</ele>
        <time>2010-01-01T03:42:39Z</time>
      </trkpt>
      <trkpt lat="42.281" lon="2.2225">
        <ele>1822</ele>
        <time>2010-01-01T03:42:40Z</time>
      </trkpt>
      <trkpt lat="42.28099" lon="2.22247">
        <ele>1823</ele>
        <time>2010-01-01T03:42:41Z</time>
      </trkpt>
      <trkpt lat="42.28099" lon="2.22244">
        <ele>1823</ele>
        <time>2010-01-01T03:42:42Z</time>
      </trkpt>
      <trkpt lat="42.28099" lon="2.22241">
        <ele>1824</ele>
        <time>2010-01-01T03:42:43Z</time>
      </trkpt>
      <trkpt lat="42.28098" lon="2.22238">
        <ele>1824</ele>
        <time>2010-01-01T03:42:44Z</time>
      </trkpt>
      <trkpt lat="42.28098" lon="2.22235">
        <ele>1825</ele>
        <time>2010-01-01T03:42:45Z</time>
      </trkpt>
      <trkpt lat="42.28098" lon="2.22233">
        <ele>1825</ele>
        <time>2010-01-01T03:42:46Z</time>
      </trkpt>
      <trkpt lat="42.28097" lon="2.22229">
        <ele>1826</ele>
        <time>2010-01-01T03:42:47Z</time>
      </trkpt>
      <trkpt lat="42.28097" lon="2.22226">
        <ele>1826</ele>
        <time>2010-01-01T03:42:48Z</time>
      </trkpt>
      <trkpt lat="42.28097" lon="2.22223">
        <ele>1826</ele>
        <time>2010-01-01T03:42:48Z</time>
      </trkpt>
      <trkpt lat="42.28097" lon="2.2222">
        <ele>1827</ele>
        <time>2010-01-01T03:42:49Z</time>
      </trkpt>
      <trkpt lat="42.28096" lon="2.22218">
        <ele>1827</ele>
        <time>2010-01-01T03:42:50Z</time>
      </trkpt>
      <trkpt lat="42.28096" lon="2.22214">
        <ele>1827</ele>
        <time>2010-01-01T03:42:51Z</time>
      </trkpt>
      <trkpt lat="42.28095" lon="2.22212">
        <ele>1828</ele>
        <time>2010-01-01T03:42:52Z</time>
      </trkpt>
      <trkpt lat="42.28095" lon="2.22208">
        <ele>1828</ele>
        <time>2010-01-01T03:42:53Z</time>
      </trkpt>
      <trkpt lat="42.28095" lon="2.22206">
        <ele>1828</ele>
        <time>2010-01-01T03:42:54Z</time>
      </trkpt>
      <trkpt lat="42.28095" lon="2.22202">
        <ele>1828</ele>
        <time>2010-01-01T03:42:55Z</time>
      </trkpt>
      <trkpt lat="42.28095" lon="2.22199">
        <ele>1828</ele>
        <time>2010-01-01T03:42:56Z</time>
      </trkpt>
      <trkpt lat="42.28095" lon="2.22196">
        <ele>1828</ele>
        <time>2010-01-01T03:42:56Z</time>
      </trkpt>
      <trkpt lat="42.28095" lon="2.22193">
        <ele>1829</ele>
        <time>2010-01-01T03:42:57Z</time>
      </trkpt>
      <trkpt lat="42.28095" lon="2.22189">
        <ele>1829</ele>
        <time>2010-01-01T03:42:58Z</time>
      </trkpt>
      <trkpt lat="42.28095" lon="2.22187">
        <ele>1830</ele>
        <time>2010-01-01T03:42:59Z</time>
      </trkpt>
      <trkpt lat="42.28094" lon="2.22183">
        <ele>1830</ele>
        <time>2010-01-01T03:43:00Z</time>
      </trkpt>
      <trkpt lat="42.28094" lon="2.2218">
        <ele>1831</ele>
        <time>2010-01-01T03:43:01Z</time>
      </trkpt>
      <trkpt lat="42.28094" lon="2.22178">
        <ele>1831</ele>
        <time>2010-01-01T03:43:02Z</time>
      </trkpt>
      <trkpt lat="42.28095" lon="2.22174">
        <ele>1832</ele>
        <time>2010-01-01T03:43:03Z</time>
      </trkpt>
      <trkpt lat="42.28095" lon="2.22171">
        <ele>1832</ele>
        <time>2010-01-01T03:43:04Z</time>
      </trkpt>
      <trkpt lat="42.28095" lon="2.22168">
        <ele>1833</ele>
        <time>2010-01-01T03:43:05Z</time>
      </trkpt>
      <trkpt lat="42.28095" lon="2.22166">
        <ele>1833</ele>
        <time>2010-01-01T03:43:06Z</time>
      </trkpt>
      <trkpt lat="42.28096" lon="2.22163">
        <ele>1833</ele>
        <time>2010-01-01T03:43:06Z</time>
      </trkpt>
      <trkpt lat="42.28096" lon="2.2216">
        <ele>1833</ele>
        <time>2010-01-01T03:43:07Z</time>
      </trkpt>
      <trkpt lat="42.28097" lon="2.22157">
        <ele>1834</ele>
        <time>2010-01-01T03:43:08Z</time>
      </trkpt>
      <trkpt lat="42.28098" lon="2.22155">
        <ele>1834</ele>
        <time>2010-01-01T03:43:09Z</time>
      </trkpt>
      <trkpt lat="42.28099" lon="2.22152">
        <ele>1834</ele>
        <time>2010-01-01T03:43:10Z</time>
      </trkpt>
      <trkpt lat="42.281" lon="2.22149">
        <ele>1834</ele>
        <time>2010-01-01T03:43:11Z</time>
      </trkpt>
      <trkpt lat="42.28101" lon="2.22146">
        <ele>1834</ele>
        <time>2010-01-01T03:43:12Z</time>
      </trkpt>
      <trkpt lat="42.28101" lon="2.22143">
        <ele>1834</ele>
        <time>2010-01-01T03:43:13Z</time>
      </trkpt>
      <trkpt lat="42.28101" lon="2.22139">
        <ele>1835</ele>
        <time>2010-01-01T03:43:14Z</time>
      </trkpt>
      <trkpt lat="42.28101" lon="2.22136">
        <ele>1835</ele>
        <time>2010-01-01T03:43:15Z</time>
      </trkpt>
      <trkpt lat="42.281" lon="2.22132">
        <ele>1835</ele>
        <time>2010-01-01T03:43:16Z</time>
      </trkpt>
      <trkpt lat="42.28101" lon="2.22129">
        <ele>1835</ele>
        <time>2010-01-01T03:43:17Z</time>
      </trkpt>
      <trkpt lat="42.28101" lon="2.22126">
        <ele>1835</ele>
        <time>2010-01-01T03:43:18Z</time>
      </trkpt>
      <trkpt lat="42.28101" lon="2.22122">
        <ele>1835</ele>
        <time>2010-01-01T03:43:19Z</time>
      </trkpt>
      <trkpt lat="42.28101" lon="2.22119">
        <ele>1835</ele>
        <time>2010-01-01T03:43:20Z</time>
      </trkpt>
      <trkpt lat="42.28101" lon="2.22116">
        <ele>1835</ele>
        <time>2010-01-01T03:43:21Z</time>
      </trkpt>
      <trkpt lat="42.28102" lon="2.22113">
        <ele>1835</ele>
        <time>2010-01-01T03:43:22Z</time>
      </trkpt>
      <trkpt lat="42.28102" lon="2.2211">
        <ele>1835</ele>
        <time>2010-01-01T03:43:23Z</time>
      </trkpt>
      <trkpt lat="42.28103" lon="2.22106">
        <ele>1835</ele>
        <time>2010-01-01T03:43:24Z</time>
      </trkpt>
      <trkpt lat="42.28103" lon="2.22104">
        <ele>1834</ele>
        <time>2010-01-01T03:43:24Z</time>
      </trkpt>
      <trkpt lat="42.28104" lon="2.22101">
        <ele>1834</ele>
        <time>2010-01-01T03:43:25Z</time>
      </trkpt>
      <trkpt lat="42.28104" lon="2.22098">
        <ele>1834</ele>
        <time>2010-01-01T03:43:26Z</time>
      </trkpt>
      <trkpt lat="42.28105" lon="2.22095">
        <ele>1834</ele>
        <time>2010-01-01T03:43:27Z</time>
      </trkpt>
      <trkpt lat="42.28105" lon="2.22092">
        <ele>1834</ele>
        <time>2010-01-01T03:43:28Z</time>
      </trkpt>
      <trkpt lat="42.28105" lon="2.22089">
        <ele>1834</ele>
        <time>2010-01-01T03:43:29Z</time>
      </trkpt>
      <trkpt lat="42.28106" lon="2.22086">
        <ele>1834</ele>
        <time>2010-01-01T03:43:30Z</time>
      </trkpt>
      <trkpt lat="42.28106" lon="2.22083">
        <ele>1834</ele>
        <time>2010-01-01T03:43:31Z</time>
      </trkpt>
      <trkpt lat="42.28106" lon="2.2208">
        <ele>1835</ele>
        <time>2010-01-01T03:43:31Z</time>
      </trkpt>
      <trkpt lat="42.28107" lon="2.22077">
        <ele>1835</ele>
        <time>2010-01-01T03:43:32Z</time>
      </trkpt>
      <trkpt lat="42.28107" lon="2.22074">
        <ele>1836</ele>
        <time>2010-01-01T03:43:33Z</time>
      </trkpt>
      <trkpt lat="42.28107" lon="2.2207">
        <ele>1837</ele>
        <time>2010-01-01T03:43:34Z</time>
      </trkpt>
      <trkpt lat="42.28106" lon="2.22067">
        <ele>1838</ele>
        <time>2010-01-01T03:43:36Z</time>
      </trkpt>
      <trkpt lat="42.28105" lon="2.22062">
        <ele>1840</ele>
        <time>2010-01-01T03:43:37Z</time>
      </trkpt>
      <trkpt lat="42.28105" lon="2.22058">
        <ele>1841</ele>
        <time>2010-01-01T03:43:38Z</time>
      </trkpt>
      <trkpt lat="42.28105" lon="2.22056">
        <ele>1841</ele>
        <time>2010-01-01T03:43:39Z</time>
      </trkpt>
      <trkpt lat="42.28105" lon="2.22053">
        <ele>1842</ele>
        <time>2010-01-01T03:43:40Z</time>
      </trkpt>
      <trkpt lat="42.28105" lon="2.22049">
        <ele>1843</ele>
        <time>2010-01-01T03:43:41Z</time>
      </trkpt>
      <trkpt lat="42.28106" lon="2.22046">
        <ele>1844</ele>
        <time>2010-01-01T03:43:42Z</time>
      </trkpt>
      <trkpt lat="42.28106" lon="2.22043">
        <ele>1845</ele>
        <time>2010-01-01T03:43:43Z</time>
      </trkpt>
      <trkpt lat="42.28106" lon="2.2204">
        <ele>1846</ele>
        <time>2010-01-01T03:43:43Z</time>
      </trkpt>
      <trkpt lat="42.28106" lon="2.22037">
        <ele>1847</ele>
        <time>2010-01-01T03:43:44Z</time>
      </trkpt>
      <trkpt lat="42.28105" lon="2.22034">
        <ele>1848</ele>
        <time>2010-01-01T03:43:45Z</time>
      </trkpt>
      <trkpt lat="42.28105" lon="2.22031">
        <ele>1849</ele>
        <time>2010-01-01T03:43:46Z</time>
      </trkpt>
      <trkpt lat="42.28105" lon="2.22028">
        <ele>1850</ele>
        <time>2010-01-01T03:43:47Z</time>
      </trkpt>
      <trkpt lat="42.28105" lon="2.22026">
        <ele>1850</ele>
        <time>2010-01-01T03:43:48Z</time>
      </trkpt>
      <trkpt lat="42.28104" lon="2.22023">
        <ele>1851</ele>
        <time>2010-01-01T03:43:49Z</time>
      </trkpt>
      <trkpt lat="42.28104" lon="2.22019">
        <ele>1851</ele>
        <time>2010-01-01T03:43:50Z</time>
      </trkpt>
      <trkpt lat="42.28103" lon="2.22017">
        <ele>1851</ele>
        <time>2010-01-01T03:43:51Z</time>
      </trkpt>
      <trkpt lat="42.28103" lon="2.22014">
        <ele>1852</ele>
        <time>2010-01-01T03:43:51Z</time>
      </trkpt>
      <trkpt lat="42.28102" lon="2.22012">
        <ele>1852</ele>
        <time>2010-01-01T03:43:52Z</time>
      </trkpt>
      <trkpt lat="42.28101" lon="2.22009">
        <ele>1852</ele>
        <time>2010-01-01T03:43:53Z</time>
      </trkpt>
      <trkpt lat="42.28101" lon="2.22006">
        <ele>1853</ele>
        <time>2010-01-01T03:43:54Z</time>
      </trkpt>
      <trkpt lat="42.281" lon="2.22003">
        <ele>1853</ele>
        <time>2010-01-01T03:43:55Z</time>
      </trkpt>
      <trkpt lat="42.281" lon="2.22">
        <ele>1853</ele>
        <time>2010-01-01T03:43:56Z</time>
      </trkpt>
      <trkpt lat="42.28099" lon="2.21998">
        <ele>1854</ele>
        <time>2010-01-01T03:43:56Z</time>
      </trkpt>
      <trkpt lat="42.28099" lon="2.21994">
        <ele>1854</ele>
        <time>2010-01-01T03:43:57Z</time>
      </trkpt>
      <trkpt lat="42.28098" lon="2.21991">
        <ele>1855</ele>
        <time>2010-01-01T03:43:58Z</time>
      </trkpt>
      <trkpt lat="42.28097" lon="2.21988">
        <ele>1855</ele>
        <time>2010-01-01T03:44:00Z</time>
      </trkpt>
      <trkpt lat="42.28097" lon="2.21984">
        <ele>1855</ele>
        <time>2010-01-01T03:44:01Z</time>
      </trkpt>
      <trkpt lat="42.28097" lon="2.21981">
        <ele>1856</ele>
        <time>2010-01-01T03:44:02Z</time>
      </trkpt>
      <trkpt lat="42.28096" lon="2.21978">
        <ele>1856</ele>
        <time>2010-01-01T03:44:03Z</time>
      </trkpt>
      <trkpt lat="42.28095" lon="2.21975">
        <ele>1857</ele>
        <time>2010-01-01T03:44:03Z</time>
      </trkpt>
      <trkpt lat="42.28094" lon="2.21972">
        <ele>1857</ele>
        <time>2010-01-01T03:44:04Z</time>
      </trkpt>
      <trkpt lat="42.28095" lon="2.21969">
        <ele>1858</ele>
        <time>2010-01-01T03:44:05Z</time>
      </trkpt>
      <trkpt lat="42.28095" lon="2.21966">
        <ele>1858</ele>
        <time>2010-01-01T03:44:06Z</time>
      </trkpt>
      <trkpt lat="42.28095" lon="2.21962">
        <ele>1859</ele>
        <time>2010-01-01T03:44:07Z</time>
      </trkpt>
      <trkpt lat="42.28094" lon="2.21959">
        <ele>1859</ele>
        <time>2010-01-01T03:44:08Z</time>
      </trkpt>
      <trkpt lat="42.28094" lon="2.21956">
        <ele>1859</ele>
        <time>2010-01-01T03:44:09Z</time>
      </trkpt>
      <trkpt lat="42.28094" lon="2.21953">
        <ele>1860</ele>
        <time>2010-01-01T03:44:10Z</time>
      </trkpt>
      <trkpt lat="42.28094" lon="2.21949">
        <ele>1860</ele>
        <time>2010-01-01T03:44:11Z</time>
      </trkpt>
      <trkpt lat="42.28094" lon="2.21946">
        <ele>1861</ele>
        <time>2010-01-01T03:44:12Z</time>
      </trkpt>
      <trkpt lat="42.28094" lon="2.21943">
        <ele>1861</ele>
        <time>2010-01-01T03:44:13Z</time>
      </trkpt>
      <trkpt lat="42.28094" lon="2.2194">
        <ele>1861</ele>
        <time>2010-01-01T03:44:14Z</time>
      </trkpt>
      <trkpt lat="42.28094" lon="2.21937">
        <ele>1861</ele>
        <time>2010-01-01T03:44:15Z</time>
      </trkpt>
      <trkpt lat="42.28094" lon="2.21934">
        <ele>1861</ele>
        <time>2010-01-01T03:44:16Z</time>
      </trkpt>
      <trkpt lat="42.28093" lon="2.2193">
        <ele>1861</ele>
        <time>2010-01-01T03:44:17Z</time>
      </trkpt>
      <trkpt lat="42.28091" lon="2.21927">
        <ele>1861</ele>
        <time>2010-01-01T03:44:18Z</time>
      </trkpt>
      <trkpt lat="42.28091" lon="2.21923">
        <ele>1861</ele>
        <time>2010-01-01T03:44:19Z</time>
      </trkpt>
      <trkpt lat="42.2809" lon="2.21919">
        <ele>1862</ele>
        <time>2010-01-01T03:44:20Z</time>
      </trkpt>
      <trkpt lat="42.28089" lon="2.21916">
        <ele>1862</ele>
        <time>2010-01-01T03:44:21Z</time>
      </trkpt>
      <trkpt lat="42.28088" lon="2.21912">
        <ele>1862</ele>
        <time>2010-01-01T03:44:23Z</time>
      </trkpt>
      <trkpt lat="42.28088" lon="2.21908">
        <ele>1862</ele>
        <time>2010-01-01T03:44:24Z</time>
      </trkpt>
      <trkpt lat="42.28087" lon="2.21905">
        <ele>1863</ele>
        <time>2010-01-01T03:44:25Z</time>
      </trkpt>
      <trkpt lat="42.28086" lon="2.21901">
        <ele>1863</ele>
        <time>2010-01-01T03:44:26Z</time>
      </trkpt>
      <trkpt lat="42.28086" lon="2.21898">
        <ele>1864</ele>
        <time>2010-01-01T03:44:27Z</time>
      </trkpt>
      <trkpt lat="42.28085" lon="2.21895">
        <ele>1864</ele>
        <time>2010-01-01T03:44:28Z</time>
      </trkpt>
      <trkpt lat="42.28084" lon="2.21892">
        <ele>1864</ele>
        <time>2010-01-01T03:44:29Z</time>
      </trkpt>
      <trkpt lat="42.28083" lon="2.21889">
        <ele>1864</ele>
        <time>2010-01-01T03:44:30Z</time>
      </trkpt>
      <trkpt lat="42.28082" lon="2.21885">
        <ele>1865</ele>
        <time>2010-01-01T03:44:31Z</time>
      </trkpt>
      <trkpt lat="42.28081" lon="2.21882">
        <ele>1866</ele>
        <time>2010-01-01T03:44:32Z</time>
      </trkpt>
      <trkpt lat="42.2808" lon="2.21878">
        <ele>1866</ele>
        <time>2010-01-01T03:44:33Z</time>
      </trkpt>
      <trkpt lat="42.2808" lon="2.21875">
        <ele>1867</ele>
        <time>2010-01-01T03:44:34Z</time>
      </trkpt>
      <trkpt lat="42.28079" lon="2.21872">
        <ele>1867</ele>
        <time>2010-01-01T03:44:35Z</time>
      </trkpt>
      <trkpt lat="42.28079" lon="2.21868">
        <ele>1868</ele>
        <time>2010-01-01T03:44:36Z</time>
      </trkpt>
      <trkpt lat="42.28078" lon="2.21865">
        <ele>1868</ele>
        <time>2010-01-01T03:44:37Z</time>
      </trkpt>
      <trkpt lat="42.28078" lon="2.21862">
        <ele>1868</ele>
        <time>2010-01-01T03:44:38Z</time>
      </trkpt>
      <trkpt lat="42.28078" lon="2.21859">
        <ele>1869</ele>
        <time>2010-01-01T03:44:39Z</time>
      </trkpt>
      <trkpt lat="42.28078" lon="2.21856">
        <ele>1869</ele>
        <time>2010-01-01T03:44:40Z</time>
      </trkpt>
      <trkpt lat="42.28078" lon="2.21853">
        <ele>1869</ele>
        <time>2010-01-01T03:44:41Z</time>
      </trkpt>
      <trkpt lat="42.28078" lon="2.2185">
        <ele>1869</ele>
        <time>2010-01-01T03:44:41Z</time>
      </trkpt>
      <trkpt lat="42.28078" lon="2.21848">
        <ele>1870</ele>
        <time>2010-01-01T03:44:42Z</time>
      </trkpt>
      <trkpt lat="42.28077" lon="2.21844">
        <ele>1870</ele>
        <time>2010-01-01T03:44:43Z</time>
      </trkpt>
      <trkpt lat="42.28077" lon="2.21842">
        <ele>1870</ele>
        <time>2010-01-01T03:44:44Z</time>
      </trkpt>
      <trkpt lat="42.28076" lon="2.21839">
        <ele>1870</ele>
        <time>2010-01-01T03:44:45Z</time>
      </trkpt>
      <trkpt lat="42.28075" lon="2.21836">
        <ele>1871</ele>
        <time>2010-01-01T03:44:46Z</time>
      </trkpt>
      <trkpt lat="42.28074" lon="2.21833">
        <ele>1871</ele>
        <time>2010-01-01T03:44:47Z</time>
      </trkpt>
      <trkpt lat="42.28074" lon="2.2183">
        <ele>1871</ele>
        <time>2010-01-01T03:44:48Z</time>
      </trkpt>
      <trkpt lat="42.28073" lon="2.21828">
        <ele>1872</ele>
        <time>2010-01-01T03:44:49Z</time>
      </trkpt>
      <trkpt lat="42.28072" lon="2.21825">
        <ele>1872</ele>
        <time>2010-01-01T03:44:49Z</time>
      </trkpt>
      <trkpt lat="42.28071" lon="2.21823">
        <ele>1872</ele>
        <time>2010-01-01T03:44:50Z</time>
      </trkpt>
      <trkpt lat="42.2807" lon="2.21819">
        <ele>1873</ele>
        <time>2010-01-01T03:44:51Z</time>
      </trkpt>
      <trkpt lat="42.28069" lon="2.21817">
        <ele>1873</ele>
        <time>2010-01-01T03:44:52Z</time>
      </trkpt>
      <trkpt lat="42.28068" lon="2.21815">
        <ele>1873</ele>
        <time>2010-01-01T03:44:53Z</time>
      </trkpt>
      <trkpt lat="42.28067" lon="2.21812">
        <ele>1874</ele>
        <time>2010-01-01T03:44:54Z</time>
      </trkpt>
      <trkpt lat="42.28066" lon="2.2181">
        <ele>1874</ele>
        <time>2010-01-01T03:44:54Z</time>
      </trkpt>
      <trkpt lat="42.28065" lon="2.21808">
        <ele>1874</ele>
        <time>2010-01-01T03:44:55Z</time>
      </trkpt>
      <trkpt lat="42.28064" lon="2.21806">
        <ele>1875</ele>
        <time>2010-01-01T03:44:56Z</time>
      </trkpt>
      <trkpt lat="42.28063" lon="2.21804">
        <ele>1875</ele>
        <time>2010-01-01T03:44:57Z</time>
      </trkpt>
      <trkpt lat="42.28062" lon="2.21801">
        <ele>1876</ele>
        <time>2010-01-01T03:44:58Z</time>
      </trkpt>
      <trkpt lat="42.28061" lon="2.21799">
        <ele>1876</ele>
        <time>2010-01-01T03:44:58Z</time>
      </trkpt>
      <trkpt lat="42.2806" lon="2.21795">
        <ele>1877</ele>
        <time>2010-01-01T03:44:59Z</time>
      </trkpt>
      <trkpt lat="42.2806" lon="2.21793">
        <ele>1877</ele>
        <time>2010-01-01T03:45:00Z</time>
      </trkpt>
      <trkpt lat="42.28059" lon="2.2179">
        <ele>1878</ele>
        <time>2010-01-01T03:45:01Z</time>
      </trkpt>
      <trkpt lat="42.28058" lon="2.21787">
        <ele>1878</ele>
        <time>2010-01-01T03:45:02Z</time>
      </trkpt>
      <trkpt lat="42.28058" lon="2.21785">
        <ele>1879</ele>
        <time>2010-01-01T03:45:03Z</time>
      </trkpt>
      <trkpt lat="42.28057" lon="2.21782">
        <ele>1880</ele>
        <time>2010-01-01T03:45:04Z</time>
      </trkpt>
      <trkpt lat="42.28056" lon="2.21779">
        <ele>1880</ele>
        <time>2010-01-01T03:45:05Z</time>
      </trkpt>
      <trkpt lat="42.28055" lon="2.21776">
        <ele>1881</ele>
        <time>2010-01-01T03:45:05Z</time>
      </trkpt>
      <trkpt lat="42.28054" lon="2.21774">
        <ele>1881</ele>
        <time>2010-01-01T03:45:06Z</time>
      </trkpt>
      <trkpt lat="42.28054" lon="2.21771">
        <ele>1882</ele>
        <time>2010-01-01T03:45:07Z</time>
      </trkpt>
      <trkpt lat="42.28053" lon="2.21769">
        <ele>1882</ele>
        <time>2010-01-01T03:45:08Z</time>
      </trkpt>
      <trkpt lat="42.28052" lon="2.21767">
        <ele>1882</ele>
        <time>2010-01-01T03:45:09Z</time>
      </trkpt>
      <trkpt lat="42.28051" lon="2.21764">
        <ele>1883</ele>
        <time>2010-01-01T03:45:09Z</time>
      </trkpt>
      <trkpt lat="42.28051" lon="2.21762">
        <ele>1883</ele>
        <time>2010-01-01T03:45:10Z</time>
      </trkpt>
      <trkpt lat="42.2805" lon="2.21759">
        <ele>1884</ele>
        <time>2010-01-01T03:45:11Z</time>
      </trkpt>
      <trkpt lat="42.28049" lon="2.21756">
        <ele>1884</ele>
        <time>2010-01-01T03:45:12Z</time>
      </trkpt>
      <trkpt lat="42.28048" lon="2.21753">
        <ele>1885</ele>
        <time>2010-01-01T03:45:13Z</time>
      </trkpt>
      <trkpt lat="42.28047" lon="2.2175">
        <ele>1885</ele>
        <time>2010-01-01T03:45:14Z</time>
      </trkpt>
      <trkpt lat="42.28047" lon="2.21747">
        <ele>1886</ele>
        <time>2010-01-01T03:45:15Z</time>
      </trkpt>
      <trkpt lat="42.28047" lon="2.21744">
        <ele>1886</ele>
        <time>2010-01-01T03:45:16Z</time>
      </trkpt>
      <trkpt lat="42.28046" lon="2.21741">
        <ele>1886</ele>
        <time>2010-01-01T03:45:17Z</time>
      </trkpt>
      <trkpt lat="42.28046" lon="2.21738">
        <ele>1887</ele>
        <time>2010-01-01T03:45:17Z</time>
      </trkpt>
      <trkpt lat="42.28045" lon="2.21735">
        <ele>1887</ele>
        <time>2010-01-01T03:45:18Z</time>
      </trkpt>
      <trkpt lat="42.28044" lon="2.21733">
        <ele>1887</ele>
        <time>2010-01-01T03:45:19Z</time>
      </trkpt>
      <trkpt lat="42.28044" lon="2.21729">
        <ele>1888</ele>
        <time>2010-01-01T03:45:20Z</time>
      </trkpt>
      <trkpt lat="42.28043" lon="2.21727">
        <ele>1888</ele>
        <time>2010-01-01T03:45:21Z</time>
      </trkpt>
      <trkpt lat="42.28043" lon="2.21724">
        <ele>1888</ele>
        <time>2010-01-01T03:45:22Z</time>
      </trkpt>
      <trkpt lat="42.28043" lon="2.21721">
        <ele>1889</ele>
        <time>2010-01-01T03:45:23Z</time>
      </trkpt>
      <trkpt lat="42.28043" lon="2.21718">
        <ele>1889</ele>
        <time>2010-01-01T03:45:23Z</time>
      </trkpt>
      <trkpt lat="42.28043" lon="2.21715">
        <ele>1889</ele>
        <time>2010-01-01T03:45:24Z</time>
      </trkpt>
      <trkpt lat="42.28043" lon="2.21713">
        <ele>1890</ele>
        <time>2010-01-01T03:45:25Z</time>
      </trkpt>
      <trkpt lat="42.28043" lon="2.21711">
        <ele>1890</ele>
        <time>2010-01-01T03:45:26Z</time>
      </trkpt>
      <trkpt lat="42.28044" lon="2.21708">
        <ele>1891</ele>
        <time>2010-01-01T03:45:27Z</time>
      </trkpt>
      <trkpt lat="42.28044" lon="2.21705">
        <ele>1891</ele>
        <time>2010-01-01T03:45:27Z</time>
      </trkpt>
      <trkpt lat="42.28045" lon="2.21703">
        <ele>1891</ele>
        <time>2010-01-01T03:45:28Z</time>
      </trkpt>
      <trkpt lat="42.28046" lon="2.217">
        <ele>1892</ele>
        <time>2010-01-01T03:45:29Z</time>
      </trkpt>
      <trkpt lat="42.28047" lon="2.21697">
        <ele>1892</ele>
        <time>2010-01-01T03:45:30Z</time>
      </trkpt>
      <trkpt lat="42.28047" lon="2.21695">
        <ele>1892</ele>
        <time>2010-01-01T03:45:31Z</time>
      </trkpt>
      <trkpt lat="42.28048" lon="2.21692">
        <ele>1892</ele>
        <time>2010-01-01T03:45:32Z</time>
      </trkpt>
      <trkpt lat="42.28049" lon="2.21689">
        <ele>1893</ele>
        <time>2010-01-01T03:45:32Z</time>
      </trkpt>
      <trkpt lat="42.2805" lon="2.21687">
        <ele>1893</ele>
        <time>2010-01-01T03:45:33Z</time>
      </trkpt>
      <trkpt lat="42.28051" lon="2.21684">
        <ele>1894</ele>
        <time>2010-01-01T03:45:34Z</time>
      </trkpt>
      <trkpt lat="42.28052" lon="2.21682">
        <ele>1894</ele>
        <time>2010-01-01T03:45:35Z</time>
      </trkpt>
      <trkpt lat="42.28052" lon="2.2168">
        <ele>1894</ele>
        <time>2010-01-01T03:45:36Z</time>
      </trkpt>
      <trkpt lat="42.28053" lon="2.21677">
        <ele>1895</ele>
        <time>2010-01-01T03:45:37Z</time>
      </trkpt>
      <trkpt lat="42.28054" lon="2.21674">
        <ele>1895</ele>
        <time>2010-01-01T03:45:38Z</time>
      </trkpt>
      <trkpt lat="42.28054" lon="2.21671">
        <ele>1896</ele>
        <time>2010-01-01T03:45:38Z</time>
      </trkpt>
      <trkpt lat="42.28055" lon="2.21669">
        <ele>1896</ele>
        <time>2010-01-01T03:45:39Z</time>
      </trkpt>
      <trkpt lat="42.28056" lon="2.21666">
        <ele>1897</ele>
        <time>2010-01-01T03:45:40Z</time>
      </trkpt>
      <trkpt lat="42.28056" lon="2.21663">
        <ele>1898</ele>
        <time>2010-01-01T03:45:41Z</time>
      </trkpt>
      <trkpt lat="42.28056" lon="2.21661">
        <ele>1898</ele>
        <time>2010-01-01T03:45:42Z</time>
      </trkpt>
      <trkpt lat="42.28057" lon="2.21657">
        <ele>1899</ele>
        <time>2010-01-01T03:45:43Z</time>
      </trkpt>
      <trkpt lat="42.28058" lon="2.21655">
        <ele>1900</ele>
        <time>2010-01-01T03:45:43Z</time>
      </trkpt>
      <trkpt lat="42.28058" lon="2.21652">
        <ele>1901</ele>
        <time>2010-01-01T03:45:44Z</time>
      </trkpt>
      <trkpt lat="42.28058" lon="2.21649">
        <ele>1902</ele>
        <time>2010-01-01T03:45:45Z</time>
      </trkpt>
      <trkpt lat="42.28059" lon="2.21646">
        <ele>1903</ele>
        <time>2010-01-01T03:45:46Z</time>
      </trkpt>
      <trkpt lat="42.28059" lon="2.21643">
        <ele>1903</ele>
        <time>2010-01-01T03:45:47Z</time>
      </trkpt>
      <trkpt lat="42.2806" lon="2.2164">
        <ele>1904</ele>
        <time>2010-01-01T03:45:48Z</time>
      </trkpt>
      <trkpt lat="42.2806" lon="2.21636">
        <ele>1905</ele>
        <time>2010-01-01T03:45:49Z</time>
      </trkpt>
      <trkpt lat="42.28061" lon="2.21633">
        <ele>1905</ele>
        <time>2010-01-01T03:45:50Z</time>
      </trkpt>
      <trkpt lat="42.28061" lon="2.21631">
        <ele>1906</ele>
        <time>2010-01-01T03:45:51Z</time>
      </trkpt>
      <trkpt lat="42.28062" lon="2.21629">
        <ele>1906</ele>
        <time>2010-01-01T03:45:51Z</time>
      </trkpt>
      <trkpt lat="42.28062" lon="2.21626">
        <ele>1907</ele>
        <time>2010-01-01T03:45:52Z</time>
      </trkpt>
      <trkpt lat="42.28062" lon="2.21623">
        <ele>1907</ele>
        <time>2010-01-01T03:45:53Z</time>
      </trkpt>
      <trkpt lat="42.28063" lon="2.21621">
        <ele>1908</ele>
        <time>2010-01-01T03:45:54Z</time>
      </trkpt>
      <trkpt lat="42.28063" lon="2.21617">
        <ele>1908</ele>
        <time>2010-01-01T03:45:55Z</time>
      </trkpt>
      <trkpt lat="42.28063" lon="2.21615">
        <ele>1909</ele>
        <time>2010-01-01T03:45:56Z</time>
      </trkpt>
      <trkpt lat="42.28063" lon="2.21611">
        <ele>1909</ele>
        <time>2010-01-01T03:45:57Z</time>
      </trkpt>
      <trkpt lat="42.28063" lon="2.21609">
        <ele>1910</ele>
        <time>2010-01-01T03:45:57Z</time>
      </trkpt>
      <trkpt lat="42.28064" lon="2.21606">
        <ele>1910</ele>
        <time>2010-01-01T03:45:58Z</time>
      </trkpt>
      <trkpt lat="42.28064" lon="2.21603">
        <ele>1910</ele>
        <time>2010-01-01T03:45:59Z</time>
      </trkpt>
      <trkpt lat="42.28064" lon="2.216">
        <ele>1911</ele>
        <time>2010-01-01T03:46:00Z</time>
      </trkpt>
      <trkpt lat="42.28064" lon="2.21597">
        <ele>1911</ele>
        <time>2010-01-01T03:46:01Z</time>
      </trkpt>
      <trkpt lat="42.28064" lon="2.21594">
        <ele>1911</ele>
        <time>2010-01-01T03:46:02Z</time>
      </trkpt>
      <trkpt lat="42.28065" lon="2.21592">
        <ele>1912</ele>
        <time>2010-01-01T03:46:02Z</time>
      </trkpt>
      <trkpt lat="42.28066" lon="2.21589">
        <ele>1912</ele>
        <time>2010-01-01T03:46:03Z</time>
      </trkpt>
      <trkpt lat="42.28066" lon="2.21587">
        <ele>1912</ele>
        <time>2010-01-01T03:46:04Z</time>
      </trkpt>
      <trkpt lat="42.28067" lon="2.21583">
        <ele>1913</ele>
        <time>2010-01-01T03:46:05Z</time>
      </trkpt>
      <trkpt lat="42.28068" lon="2.2158">
        <ele>1913</ele>
        <time>2010-01-01T03:46:06Z</time>
      </trkpt>
      <trkpt lat="42.28069" lon="2.21577">
        <ele>1914</ele>
        <time>2010-01-01T03:46:07Z</time>
      </trkpt>
      <trkpt lat="42.28069" lon="2.21574">
        <ele>1914</ele>
        <time>2010-01-01T03:46:08Z</time>
      </trkpt>
      <trkpt lat="42.2807" lon="2.2157">
        <ele>1915</ele>
        <time>2010-01-01T03:46:09Z</time>
      </trkpt>
      <trkpt lat="42.28071" lon="2.21568">
        <ele>1916</ele>
        <time>2010-01-01T03:46:10Z</time>
      </trkpt>
      <trkpt lat="42.28072" lon="2.21564">
        <ele>1916</ele>
        <time>2010-01-01T03:46:11Z</time>
      </trkpt>
      <trkpt lat="42.28072" lon="2.21561">
        <ele>1917</ele>
        <time>2010-01-01T03:46:12Z</time>
      </trkpt>
      <trkpt lat="42.28072" lon="2.21558">
        <ele>1917</ele>
        <time>2010-01-01T03:46:13Z</time>
      </trkpt>
      <trkpt lat="42.28073" lon="2.21556">
        <ele>1918</ele>
        <time>2010-01-01T03:46:14Z</time>
      </trkpt>
      <trkpt lat="42.28074" lon="2.21552">
        <ele>1919</ele>
        <time>2010-01-01T03:46:15Z</time>
      </trkpt>
      <trkpt lat="42.28074" lon="2.2155">
        <ele>1920</ele>
        <time>2010-01-01T03:46:15Z</time>
      </trkpt>
      <trkpt lat="42.28075" lon="2.21546">
        <ele>1921</ele>
        <time>2010-01-01T03:46:16Z</time>
      </trkpt>
      <trkpt lat="42.28075" lon="2.21543">
        <ele>1922</ele>
        <time>2010-01-01T03:46:17Z</time>
      </trkpt>
      <trkpt lat="42.28075" lon="2.21541">
        <ele>1923</ele>
        <time>2010-01-01T03:46:18Z</time>
      </trkpt>
      <trkpt lat="42.28075" lon="2.21538">
        <ele>1924</ele>
        <time>2010-01-01T03:46:19Z</time>
      </trkpt>
      <trkpt lat="42.28074" lon="2.21535">
        <ele>1925</ele>
        <time>2010-01-01T03:46:20Z</time>
      </trkpt>
      <trkpt lat="42.28074" lon="2.21531">
        <ele>1926</ele>
        <time>2010-01-01T03:46:21Z</time>
      </trkpt>
      <trkpt lat="42.28075" lon="2.21528">
        <ele>1927</ele>
        <time>2010-01-01T03:46:22Z</time>
      </trkpt>
      <trkpt lat="42.28075" lon="2.21525">
        <ele>1928</ele>
        <time>2010-01-01T03:46:23Z</time>
      </trkpt>
      <trkpt lat="42.28075" lon="2.21523">
        <ele>1929</ele>
        <time>2010-01-01T03:46:24Z</time>
      </trkpt>
      <trkpt lat="42.28075" lon="2.2152">
        <ele>1930</ele>
        <time>2010-01-01T03:46:24Z</time>
      </trkpt>
      <trkpt lat="42.28075" lon="2.21517">
        <ele>1931</ele>
        <time>2010-01-01T03:46:25Z</time>
      </trkpt>
      <trkpt lat="42.28075" lon="2.21515">
        <ele>1932</ele>
        <time>2010-01-01T03:46:26Z</time>
      </trkpt>
      <trkpt lat="42.28074" lon="2.21513">
        <ele>1933</ele>
        <time>2010-01-01T03:46:27Z</time>
      </trkpt>
      <trkpt lat="42.28073" lon="2.2151">
        <ele>1934</ele>
        <time>2010-01-01T03:46:27Z</time>
      </trkpt>
      <trkpt lat="42.28072" lon="2.21508">
        <ele>1935</ele>
        <time>2010-01-01T03:46:28Z</time>
      </trkpt>
      <trkpt lat="42.28071" lon="2.21505">
        <ele>1936</ele>
        <time>2010-01-01T03:46:29Z</time>
      </trkpt>
      <trkpt lat="42.28071" lon="2.21503">
        <ele>1937</ele>
        <time>2010-01-01T03:46:30Z</time>
      </trkpt>
      <trkpt lat="42.2807" lon="2.215">
        <ele>1938</ele>
        <time>2010-01-01T03:46:31Z</time>
      </trkpt>
      <trkpt lat="42.2807" lon="2.21496">
        <ele>1940</ele>
        <time>2010-01-01T03:46:32Z</time>
      </trkpt>
      <trkpt lat="42.28069" lon="2.21493">
        <ele>1940</ele>
        <time>2010-01-01T03:46:33Z</time>
      </trkpt>
      <trkpt lat="42.28068" lon="2.21491">
        <ele>1941</ele>
        <time>2010-01-01T03:46:33Z</time>
      </trkpt>
      <trkpt lat="42.28067" lon="2.21489">
        <ele>1942</ele>
        <time>2010-01-01T03:46:34Z</time>
      </trkpt>
      <trkpt lat="42.28067" lon="2.21486">
        <ele>1943</ele>
        <time>2010-01-01T03:46:35Z</time>
      </trkpt>
      <trkpt lat="42.28066" lon="2.21484">
        <ele>1944</ele>
        <time>2010-01-01T03:46:36Z</time>
      </trkpt>
      <trkpt lat="42.28065" lon="2.21481">
        <ele>1945</ele>
        <time>2010-01-01T03:46:37Z</time>
      </trkpt>
      <trkpt lat="42.28065" lon="2.21478">
        <ele>1946</ele>
        <time>2010-01-01T03:46:38Z</time>
      </trkpt>
      <trkpt lat="42.28064" lon="2.21475">
        <ele>1947</ele>
        <time>2010-01-01T03:46:38Z</time>
      </trkpt>
      <trkpt lat="42.28064" lon="2.21472">
        <ele>1948</ele>
        <time>2010-01-01T03:46:39Z</time>
      </trkpt>
      <trkpt lat="42.28063" lon="2.2147">
        <ele>1948</ele>
        <time>2010-01-01T03:46:40Z</time>
      </trkpt>
      <trkpt lat="42.28062" lon="2.21468">
        <ele>1949</ele>
        <time>2010-01-01T03:46:41Z</time>
      </trkpt>
      <trkpt lat="42.28061" lon="2.21465">
        <ele>1949</ele>
        <time>2010-01-01T03:46:42Z</time>
      </trkpt>
      <trkpt lat="42.28061" lon="2.21463">
        <ele>1950</ele>
        <time>2010-01-01T03:46:43Z</time>
      </trkpt>
      <trkpt lat="42.2806" lon="2.2146">
        <ele>1950</ele>
        <time>2010-01-01T03:46:43Z</time>
      </trkpt>
      <trkpt lat="42.2806" lon="2.21457">
        <ele>1950</ele>
        <time>2010-01-01T03:46:44Z</time>
      </trkpt>
      <trkpt lat="42.2806" lon="2.21454">
        <ele>1951</ele>
        <time>2010-01-01T03:46:45Z</time>
      </trkpt>
      <trkpt lat="42.28058" lon="2.21452">
        <ele>1951</ele>
        <time>2010-01-01T03:46:46Z</time>
      </trkpt>
      <trkpt lat="42.28057" lon="2.2145">
        <ele>1952</ele>
        <time>2010-01-01T03:46:47Z</time>
      </trkpt>
      <trkpt lat="42.28056" lon="2.21448">
        <ele>1952</ele>
        <time>2010-01-01T03:46:48Z</time>
      </trkpt>
      <trkpt lat="42.28056" lon="2.21445">
        <ele>1952</ele>
        <time>2010-01-01T03:46:48Z</time>
      </trkpt>
      <trkpt lat="42.28055" lon="2.21443">
        <ele>1953</ele>
        <time>2010-01-01T03:46:49Z</time>
      </trkpt>
      <trkpt lat="42.28054" lon="2.2144">
        <ele>1953</ele>
        <time>2010-01-01T03:46:50Z</time>
      </trkpt>
      <trkpt lat="42.28054" lon="2.21437">
        <ele>1954</ele>
        <time>2010-01-01T03:46:51Z</time>
      </trkpt>
      <trkpt lat="42.28054" lon="2.21434">
        <ele>1955</ele>
        <time>2010-01-01T03:46:52Z</time>
      </trkpt>
      <trkpt lat="42.28054" lon="2.21432">
        <ele>1955</ele>
        <time>2010-01-01T03:46:52Z</time>
      </trkpt>
      <trkpt lat="42.28053" lon="2.21429">
        <ele>1956</ele>
        <time>2010-01-01T03:46:53Z</time>
      </trkpt>
      <trkpt lat="42.28053" lon="2.21427">
        <ele>1956</ele>
        <time>2010-01-01T03:46:54Z</time>
      </trkpt>
      <trkpt lat="42.28052" lon="2.21424">
        <ele>1957</ele>
        <time>2010-01-01T03:46:55Z</time>
      </trkpt>
      <trkpt lat="42.28052" lon="2.21422">
        <ele>1957</ele>
        <time>2010-01-01T03:46:56Z</time>
      </trkpt>
      <trkpt lat="42.28051" lon="2.2142">
        <ele>1958</ele>
        <time>2010-01-01T03:46:56Z</time>
      </trkpt>
      <trkpt lat="42.28051" lon="2.21417">
        <ele>1958</ele>
        <time>2010-01-01T03:46:57Z</time>
      </trkpt>
      <trkpt lat="42.2805" lon="2.21414">
        <ele>1959</ele>
        <time>2010-01-01T03:46:58Z</time>
      </trkpt>
      <trkpt lat="42.2805" lon="2.21412">
        <ele>1959</ele>
        <time>2010-01-01T03:46:59Z</time>
      </trkpt>
      <trkpt lat="42.2805" lon="2.21409">
        <ele>1960</ele>
        <time>2010-01-01T03:47:00Z</time>
      </trkpt>
      <trkpt lat="42.28051" lon="2.21407">
        <ele>1960</ele>
        <time>2010-01-01T03:47:01Z</time>
      </trkpt>
      <trkpt lat="42.28052" lon="2.21404">
        <ele>1961</ele>
        <time>2010-01-01T03:47:01Z</time>
      </trkpt>
      <trkpt lat="42.28053" lon="2.21401">
        <ele>1962</ele>
        <time>2010-01-01T03:47:02Z</time>
      </trkpt>
      <trkpt lat="42.28054" lon="2.21398">
        <ele>1962</ele>
        <time>2010-01-01T03:47:03Z</time>
      </trkpt>
      <trkpt lat="42.28055" lon="2.21396">
        <ele>1963</ele>
        <time>2010-01-01T03:47:04Z</time>
      </trkpt>
      <trkpt lat="42.28056" lon="2.21393">
        <ele>1964</ele>
        <time>2010-01-01T03:47:05Z</time>
      </trkpt>
      <trkpt lat="42.28057" lon="2.21391">
        <ele>1964</ele>
        <time>2010-01-01T03:47:06Z</time>
      </trkpt>
      <trkpt lat="42.28057" lon="2.21389">
        <ele>1964</ele>
        <time>2010-01-01T03:47:06Z</time>
      </trkpt>
      <trkpt lat="42.28057" lon="2.21386">
        <ele>1965</ele>
        <time>2010-01-01T03:47:07Z</time>
      </trkpt>
      <trkpt lat="42.28057" lon="2.21383">
        <ele>1965</ele>
        <time>2010-01-01T03:47:08Z</time>
      </trkpt>
      <trkpt lat="42.28057" lon="2.2138">
        <ele>1966</ele>
        <time>2010-01-01T03:47:09Z</time>
      </trkpt>
      <trkpt lat="42.28056" lon="2.21378">
        <ele>1967</ele>
        <time>2010-01-01T03:47:09Z</time>
      </trkpt>
      <trkpt lat="42.28056" lon="2.21375">
        <ele>1967</ele>
        <time>2010-01-01T03:47:10Z</time>
      </trkpt>
      <trkpt lat="42.28056" lon="2.21373">
        <ele>1968</ele>
        <time>2010-01-01T03:47:11Z</time>
      </trkpt>
      <trkpt lat="42.28056" lon="2.2137">
        <ele>1968</ele>
        <time>2010-01-01T03:47:12Z</time>
      </trkpt>
      <trkpt lat="42.28056" lon="2.21367">
        <ele>1969</ele>
        <time>2010-01-01T03:47:13Z</time>
      </trkpt>
      <trkpt lat="42.28056" lon="2.21364">
        <ele>1970</ele>
        <time>2010-01-01T03:47:14Z</time>
      </trkpt>
      <trkpt lat="42.28055" lon="2.21362">
        <ele>1970</ele>
        <time>2010-01-01T03:47:14Z</time>
      </trkpt>
      <trkpt lat="42.28054" lon="2.2136">
        <ele>1971</ele>
        <time>2010-01-01T03:47:15Z</time>
      </trkpt>
      <trkpt lat="42.28053" lon="2.21358">
        <ele>1971</ele>
        <time>2010-01-01T03:47:16Z</time>
      </trkpt>
      <trkpt lat="42.28051" lon="2.21356">
        <ele>1971</ele>
        <time>2010-01-01T03:47:17Z</time>
      </trkpt>
      <trkpt lat="42.2805" lon="2.21354">
        <ele>1972</ele>
        <time>2010-01-01T03:47:18Z</time>
      </trkpt>
      <trkpt lat="42.28049" lon="2.21351">
        <ele>1972</ele>
        <time>2010-01-01T03:47:19Z</time>
      </trkpt>
      <trkpt lat="42.28048" lon="2.21348">
        <ele>1973</ele>
        <time>2010-01-01T03:47:19Z</time>
      </trkpt>
      <trkpt lat="42.28048" lon="2.21345">
        <ele>1973</ele>
        <time>2010-01-01T03:47:20Z</time>
      </trkpt>
      <trkpt lat="42.28048" lon="2.21342">
        <ele>1974</ele>
        <time>2010-01-01T03:47:21Z</time>
      </trkpt>
      <trkpt lat="42.28048" lon="2.21339">
        <ele>1975</ele>
        <time>2010-01-01T03:47:22Z</time>
      </trkpt>
      <trkpt lat="42.28048" lon="2.21336">
        <ele>1975</ele>
        <time>2010-01-01T03:47:23Z</time>
      </trkpt>
      <trkpt lat="42.28048" lon="2.21333">
        <ele>1976</ele>
        <time>2010-01-01T03:47:24Z</time>
      </trkpt>
      <trkpt lat="42.28048" lon="2.2133">
        <ele>1976</ele>
        <time>2010-01-01T03:47:25Z</time>
      </trkpt>
      <trkpt lat="42.28048" lon="2.21327">
        <ele>1977</ele>
        <time>2010-01-01T03:47:26Z</time>
      </trkpt>
      <trkpt lat="42.28048" lon="2.21324">
        <ele>1978</ele>
        <time>2010-01-01T03:47:27Z</time>
      </trkpt>
      <trkpt lat="42.28047" lon="2.21322">
        <ele>1978</ele>
        <time>2010-01-01T03:47:27Z</time>
      </trkpt>
      <trkpt lat="42.28045" lon="2.21319">
        <ele>1978</ele>
        <time>2010-01-01T03:47:28Z</time>
      </trkpt>
      <trkpt lat="42.28045" lon="2.21316">
        <ele>1979</ele>
        <time>2010-01-01T03:47:29Z</time>
      </trkpt>
      <trkpt lat="42.28044" lon="2.21313">
        <ele>1979</ele>
        <time>2010-01-01T03:47:30Z</time>
      </trkpt>
      <trkpt lat="42.28044" lon="2.21309">
        <ele>1980</ele>
        <time>2010-01-01T03:47:31Z</time>
      </trkpt>
      <trkpt lat="42.28043" lon="2.21306">
        <ele>1981</ele>
        <time>2010-01-01T03:47:32Z</time>
      </trkpt>
      <trkpt lat="42.28043" lon="2.21303">
        <ele>1981</ele>
        <time>2010-01-01T03:47:33Z</time>
      </trkpt>
      <trkpt lat="42.28042" lon="2.213">
        <ele>1982</ele>
        <time>2010-01-01T03:47:34Z</time>
      </trkpt>
      <trkpt lat="42.28041" lon="2.21297">
        <ele>1982</ele>
        <time>2010-01-01T03:47:35Z</time>
      </trkpt>
      <trkpt lat="42.2804" lon="2.21294">
        <ele>1983</ele>
        <time>2010-01-01T03:47:36Z</time>
      </trkpt>
      <trkpt lat="42.2804" lon="2.21291">
        <ele>1984</ele>
        <time>2010-01-01T03:47:37Z</time>
      </trkpt>
      <trkpt lat="42.2804" lon="2.21287">
        <ele>1985</ele>
        <time>2010-01-01T03:47:38Z</time>
      </trkpt>
      <trkpt lat="42.2804" lon="2.21284">
        <ele>1985</ele>
        <time>2010-01-01T03:47:39Z</time>
      </trkpt>
      <trkpt lat="42.28041" lon="2.21281">
        <ele>1986</ele>
        <time>2010-01-01T03:47:40Z</time>
      </trkpt>
      <trkpt lat="42.28041" lon="2.21277">
        <ele>1987</ele>
        <time>2010-01-01T03:47:41Z</time>
      </trkpt>
      <trkpt lat="42.28041" lon="2.21273">
        <ele>1988</ele>
        <time>2010-01-01T03:47:42Z</time>
      </trkpt>
      <trkpt lat="42.28042" lon="2.2127">
        <ele>1989</ele>
        <time>2010-01-01T03:47:43Z</time>
      </trkpt>
      <trkpt lat="42.28042" lon="2.21267">
        <ele>1990</ele>
        <time>2010-01-01T03:47:44Z</time>
      </trkpt>
      <trkpt lat="42.28042" lon="2.21263">
        <ele>1991</ele>
        <time>2010-01-01T03:47:45Z</time>
      </trkpt>
      <trkpt lat="42.28042" lon="2.2126">
        <ele>1992</ele>
        <time>2010-01-01T03:47:46Z</time>
      </trkpt>
      <trkpt lat="42.28042" lon="2.21257">
        <ele>1992</ele>
        <time>2010-01-01T03:47:47Z</time>
      </trkpt>
      <trkpt lat="42.28042" lon="2.21254">
        <ele>1993</ele>
        <time>2010-01-01T03:47:48Z</time>
      </trkpt>
      <trkpt lat="42.28042" lon="2.2125">
        <ele>1994</ele>
        <time>2010-01-01T03:47:49Z</time>
      </trkpt>
      <trkpt lat="42.28043" lon="2.21248">
        <ele>1995</ele>
        <time>2010-01-01T03:47:50Z</time>
      </trkpt>
      <trkpt lat="42.28043" lon="2.21244">
        <ele>1995</ele>
        <time>2010-01-01T03:47:51Z</time>
      </trkpt>
      <trkpt lat="42.28044" lon="2.21242">
        <ele>1996</ele>
        <time>2010-01-01T03:47:52Z</time>
      </trkpt>
      <trkpt lat="42.28044" lon="2.21239">
        <ele>1996</ele>
        <time>2010-01-01T03:47:53Z</time>
      </trkpt>
      <trkpt lat="42.28045" lon="2.21236">
        <ele>1997</ele>
        <time>2010-01-01T03:47:54Z</time>
      </trkpt>
      <trkpt lat="42.28045" lon="2.21232">
        <ele>1998</ele>
        <time>2010-01-01T03:47:55Z</time>
      </trkpt>
      <trkpt lat="42.28046" lon="2.21229">
        <ele>1998</ele>
        <time>2010-01-01T03:47:56Z</time>
      </trkpt>
      <trkpt lat="42.28047" lon="2.21227">
        <ele>1999</ele>
        <time>2010-01-01T03:47:56Z</time>
      </trkpt>
      <trkpt lat="42.28047" lon="2.21223">
        <ele>2000</ele>
        <time>2010-01-01T03:47:57Z</time>
      </trkpt>
      <trkpt lat="42.28048" lon="2.2122">
        <ele>2000</ele>
        <time>2010-01-01T03:47:58Z</time>
      </trkpt>
      <trkpt lat="42.28048" lon="2.21216">
        <ele>2001</ele>
        <time>2010-01-01T03:48:00Z</time>
      </trkpt>
      <trkpt lat="42.28049" lon="2.21211">
        <ele>2003</ele>
        <time>2010-01-01T03:48:01Z</time>
      </trkpt>
      <trkpt lat="42.28049" lon="2.21208">
        <ele>2004</ele>
        <time>2010-01-01T03:48:02Z</time>
      </trkpt>
      <trkpt lat="42.28049" lon="2.21205">
        <ele>2004</ele>
        <time>2010-01-01T03:48:03Z</time>
      </trkpt>
      <trkpt lat="42.2805" lon="2.21201">
        <ele>2005</ele>
        <time>2010-01-01T03:48:04Z</time>
      </trkpt>
      <trkpt lat="42.28051" lon="2.21198">
        <ele>2006</ele>
        <time>2010-01-01T03:48:05Z</time>
      </trkpt>
      <trkpt lat="42.28052" lon="2.21195">
        <ele>2008</ele>
        <time>2010-01-01T03:48:06Z</time>
      </trkpt>
      <trkpt lat="42.28052" lon="2.21192">
        <ele>2008</ele>
        <time>2010-01-01T03:48:07Z</time>
      </trkpt>
      <trkpt lat="42.28053" lon="2.21188">
        <ele>2008</ele>
        <time>2010-01-01T03:48:08Z</time>
      </trkpt>
      <trkpt lat="42.28053" lon="2.21185">
        <ele>2008</ele>
        <time>2010-01-01T03:48:09Z</time>
      </trkpt>
      <trkpt lat="42.28053" lon="2.21181">
        <ele>2008</ele>
        <time>2010-01-01T03:48:10Z</time>
      </trkpt>
      <trkpt lat="42.28055" lon="2.21177">
        <ele>2009</ele>
        <time>2010-01-01T03:48:12Z</time>
      </trkpt>
      <trkpt lat="42.28056" lon="2.21174">
        <ele>2009</ele>
        <time>2010-01-01T03:48:13Z</time>
      </trkpt>
      <trkpt lat="42.28056" lon="2.2117">
        <ele>2009</ele>
        <time>2010-01-01T03:48:14Z</time>
      </trkpt>
      <trkpt lat="42.28056" lon="2.21168">
        <ele>2009</ele>
        <time>2010-01-01T03:48:14Z</time>
      </trkpt>
      <trkpt lat="42.28056" lon="2.21165">
        <ele>2010</ele>
        <time>2010-01-01T03:48:15Z</time>
      </trkpt>
      <trkpt lat="42.28056" lon="2.21162">
        <ele>2010</ele>
        <time>2010-01-01T03:48:16Z</time>
      </trkpt>
      <trkpt lat="42.28056" lon="2.21159">
        <ele>2010</ele>
        <time>2010-01-01T03:48:17Z</time>
      </trkpt>
      <trkpt lat="42.28056" lon="2.21156">
        <ele>2010</ele>
        <time>2010-01-01T03:48:18Z</time>
      </trkpt>
      <trkpt lat="42.28056" lon="2.21153">
        <ele>2010</ele>
        <time>2010-01-01T03:48:19Z</time>
      </trkpt>
      <trkpt lat="42.28056" lon="2.21149">
        <ele>2010</ele>
        <time>2010-01-01T03:48:20Z</time>
      </trkpt>
      <trkpt lat="42.28056" lon="2.21146">
        <ele>2010</ele>
        <time>2010-01-01T03:48:21Z</time>
      </trkpt>
      <trkpt lat="42.28056" lon="2.21142">
        <ele>2010</ele>
        <time>2010-01-01T03:48:22Z</time>
      </trkpt>
      <trkpt lat="42.28055" lon="2.2114">
        <ele>2010</ele>
        <time>2010-01-01T03:48:23Z</time>
      </trkpt>
      <trkpt lat="42.28055" lon="2.21137">
        <ele>2010</ele>
        <time>2010-01-01T03:48:24Z</time>
      </trkpt>
      <trkpt lat="42.28056" lon="2.21133">
        <ele>2010</ele>
        <time>2010-01-01T03:48:25Z</time>
      </trkpt>
      <trkpt lat="42.28055" lon="2.2113">
        <ele>2011</ele>
        <time>2010-01-01T03:48:26Z</time>
      </trkpt>
      <trkpt lat="42.28056" lon="2.21127">
        <ele>2011</ele>
        <time>2010-01-01T03:48:27Z</time>
      </trkpt>
      <trkpt lat="42.28057" lon="2.21124">
        <ele>2012</ele>
        <time>2010-01-01T03:48:28Z</time>
      </trkpt>
      <trkpt lat="42.28057" lon="2.2112">
        <ele>2012</ele>
        <time>2010-01-01T03:48:29Z</time>
      </trkpt>
      <trkpt lat="42.28057" lon="2.21117">
        <ele>2013</ele>
        <time>2010-01-01T03:48:30Z</time>
      </trkpt>
      <trkpt lat="42.28057" lon="2.21114">
        <ele>2014</ele>
        <time>2010-01-01T03:48:31Z</time>
      </trkpt>
      <trkpt lat="42.28058" lon="2.2111">
        <ele>2014</ele>
        <time>2010-01-01T03:48:32Z</time>
      </trkpt>
      <trkpt lat="42.28058" lon="2.21107">
        <ele>2015</ele>
        <time>2010-01-01T03:48:33Z</time>
      </trkpt>
      <trkpt lat="42.28059" lon="2.21104">
        <ele>2015</ele>
        <time>2010-01-01T03:48:34Z</time>
      </trkpt>
      <trkpt lat="42.28059" lon="2.211">
        <ele>2016</ele>
        <time>2010-01-01T03:48:35Z</time>
      </trkpt>
      <trkpt lat="42.28058" lon="2.21097">
        <ele>2017</ele>
        <time>2010-01-01T03:48:36Z</time>
      </trkpt>
      <trkpt lat="42.28058" lon="2.21094">
        <ele>2017</ele>
        <time>2010-01-01T03:48:37Z</time>
      </trkpt>
      <trkpt lat="42.28057" lon="2.21091">
        <ele>2017</ele>
        <time>2010-01-01T03:48:38Z</time>
      </trkpt>
      <trkpt lat="42.28057" lon="2.21088">
        <ele>2018</ele>
        <time>2010-01-01T03:48:39Z</time>
      </trkpt>
      <trkpt lat="42.28058" lon="2.21084">
        <ele>2019</ele>
        <time>2010-01-01T03:48:39Z</time>
      </trkpt>
      <trkpt lat="42.28058" lon="2.21081">
        <ele>2019</ele>
        <time>2010-01-01T03:48:40Z</time>
      </trkpt>
      <trkpt lat="42.28059" lon="2.21078">
        <ele>2020</ele>
        <time>2010-01-01T03:48:41Z</time>
      </trkpt>
      <trkpt lat="42.28059" lon="2.21075">
        <ele>2020</ele>
        <time>2010-01-01T03:48:42Z</time>
      </trkpt>
      <trkpt lat="42.28059" lon="2.21072">
        <ele>2021</ele>
        <time>2010-01-01T03:48:43Z</time>
      </trkpt>
      <trkpt lat="42.28059" lon="2.21069">
        <ele>2021</ele>
        <time>2010-01-01T03:48:44Z</time>
      </trkpt>
      <trkpt lat="42.28059" lon="2.21067">
        <ele>2021</ele>
        <time>2010-01-01T03:48:45Z</time>
      </trkpt>
      <trkpt lat="42.28059" lon="2.21064">
        <ele>2022</ele>
        <time>2010-01-01T03:48:46Z</time>
      </trkpt>
      <trkpt lat="42.28059" lon="2.21061">
        <ele>2022</ele>
        <time>2010-01-01T03:48:47Z</time>
      </trkpt>
      <trkpt lat="42.28058" lon="2.21058">
        <ele>2023</ele>
        <time>2010-01-01T03:48:47Z</time>
      </trkpt>
      <trkpt lat="42.28059" lon="2.21055">
        <ele>2023</ele>
        <time>2010-01-01T03:48:48Z</time>
      </trkpt>
      <trkpt lat="42.28059" lon="2.21052">
        <ele>2024</ele>
        <time>2010-01-01T03:48:49Z</time>
      </trkpt>
      <trkpt lat="42.28059" lon="2.21049">
        <ele>2024</ele>
        <time>2010-01-01T03:48:50Z</time>
      </trkpt>
      <trkpt lat="42.28059" lon="2.21047">
        <ele>2024</ele>
        <time>2010-01-01T03:48:51Z</time>
      </trkpt>
      <trkpt lat="42.28058" lon="2.21043">
        <ele>2024</ele>
        <time>2010-01-01T03:48:52Z</time>
      </trkpt>
      <trkpt lat="42.28058" lon="2.21041">
        <ele>2025</ele>
        <time>2010-01-01T03:48:53Z</time>
      </trkpt>
      <trkpt lat="42.28058" lon="2.21038">
        <ele>2025</ele>
        <time>2010-01-01T03:48:53Z</time>
      </trkpt>
      <trkpt lat="42.28058" lon="2.21035">
        <ele>2025</ele>
        <time>2010-01-01T03:48:54Z</time>
      </trkpt>
      <trkpt lat="42.28059" lon="2.21032">
        <ele>2026</ele>
        <time>2010-01-01T03:48:55Z</time>
      </trkpt>
      <trkpt lat="42.28059" lon="2.21029">
        <ele>2026</ele>
        <time>2010-01-01T03:48:56Z</time>
      </trkpt>
      <trkpt lat="42.2806" lon="2.21027">
        <ele>2027</ele>
        <time>2010-01-01T03:48:57Z</time>
      </trkpt>
      <trkpt lat="42.28062" lon="2.21024">
        <ele>2027</ele>
        <time>2010-01-01T03:48:58Z</time>
      </trkpt>
      <trkpt lat="42.28063" lon="2.21022">
        <ele>2028</ele>
        <time>2010-01-01T03:48:58Z</time>
      </trkpt>
      <trkpt lat="42.28063" lon="2.21019">
        <ele>2028</ele>
        <time>2010-01-01T03:49:00Z</time>
      </trkpt>
      <trkpt lat="42.28065" lon="2.21017">
        <ele>2029</ele>
        <time>2010-01-01T03:49:00Z</time>
      </trkpt>
      <trkpt lat="42.28066" lon="2.21015">
        <ele>2029</ele>
        <time>2010-01-01T03:49:01Z</time>
      </trkpt>
      <trkpt lat="42.28067" lon="2.21013">
        <ele>2030</ele>
        <time>2010-01-01T03:49:02Z</time>
      </trkpt>
      <trkpt lat="42.28068" lon="2.21011">
        <ele>2030</ele>
        <time>2010-01-01T03:49:03Z</time>
      </trkpt>
      <trkpt lat="42.28069" lon="2.21008">
        <ele>2031</ele>
        <time>2010-01-01T03:49:03Z</time>
      </trkpt>
      <trkpt lat="42.2807" lon="2.21006">
        <ele>2031</ele>
        <time>2010-01-01T03:49:04Z</time>
      </trkpt>
      <trkpt lat="42.28071" lon="2.21003">
        <ele>2032</ele>
        <time>2010-01-01T03:49:05Z</time>
      </trkpt>
      <trkpt lat="42.28072" lon="2.21001">
        <ele>2032</ele>
        <time>2010-01-01T03:49:06Z</time>
      </trkpt>
      <trkpt lat="42.28073" lon="2.20998">
        <ele>2032</ele>
        <time>2010-01-01T03:49:07Z</time>
      </trkpt>
      <trkpt lat="42.28074" lon="2.20996">
        <ele>2033</ele>
        <time>2010-01-01T03:49:08Z</time>
      </trkpt>
      <trkpt lat="42.28075" lon="2.20994">
        <ele>2033</ele>
        <time>2010-01-01T03:49:08Z</time>
      </trkpt>
      <trkpt lat="42.28077" lon="2.20992">
        <ele>2033</ele>
        <time>2010-01-01T03:49:09Z</time>
      </trkpt>
      <trkpt lat="42.28079" lon="2.2099">
        <ele>2034</ele>
        <time>2010-01-01T03:49:10Z</time>
      </trkpt>
      <trkpt lat="42.28081" lon="2.20988">
        <ele>2034</ele>
        <time>2010-01-01T03:49:11Z</time>
      </trkpt>
      <trkpt lat="42.28083" lon="2.20986">
        <ele>2035</ele>
        <time>2010-01-01T03:49:12Z</time>
      </trkpt>
      <trkpt lat="42.28084" lon="2.20985">
        <ele>2035</ele>
        <time>2010-01-01T03:49:13Z</time>
      </trkpt>
      <trkpt lat="42.28086" lon="2.20983">
        <ele>2035</ele>
        <time>2010-01-01T03:49:14Z</time>
      </trkpt>
      <trkpt lat="42.28088" lon="2.20981">
        <ele>2034</ele>
        <time>2010-01-01T03:49:15Z</time>
      </trkpt>
      <trkpt lat="42.2809" lon="2.20979">
        <ele>2034</ele>
        <time>2010-01-01T03:49:16Z</time>
      </trkpt>
      <trkpt lat="42.28092" lon="2.20976">
        <ele>2034</ele>
        <time>2010-01-01T03:49:17Z</time>
      </trkpt>
      <trkpt lat="42.28094" lon="2.20974">
        <ele>2034</ele>
        <time>2010-01-01T03:49:18Z</time>
      </trkpt>
      <trkpt lat="42.28096" lon="2.20972">
        <ele>2034</ele>
        <time>2010-01-01T03:49:19Z</time>
      </trkpt>
      <trkpt lat="42.28098" lon="2.20971">
        <ele>2034</ele>
        <time>2010-01-01T03:49:20Z</time>
      </trkpt>
      <trkpt lat="42.281" lon="2.2097">
        <ele>2034</ele>
        <time>2010-01-01T03:49:21Z</time>
      </trkpt>
      <trkpt lat="42.28102" lon="2.20967">
        <ele>2033</ele>
        <time>2010-01-01T03:49:22Z</time>
      </trkpt>
      <trkpt lat="42.28104" lon="2.20965">
        <ele>2033</ele>
        <time>2010-01-01T03:49:23Z</time>
      </trkpt>
      <trkpt lat="42.28105" lon="2.20962">
        <ele>2033</ele>
        <time>2010-01-01T03:49:24Z</time>
      </trkpt>
      <trkpt lat="42.28107" lon="2.20959">
        <ele>2032</ele>
        <time>2010-01-01T03:49:25Z</time>
      </trkpt>
      <trkpt lat="42.28108" lon="2.20957">
        <ele>2032</ele>
        <time>2010-01-01T03:49:26Z</time>
      </trkpt>
      <trkpt lat="42.2811" lon="2.20955">
        <ele>2032</ele>
        <time>2010-01-01T03:49:27Z</time>
      </trkpt>
      <trkpt lat="42.28112" lon="2.20952">
        <ele>2031</ele>
        <time>2010-01-01T03:49:28Z</time>
      </trkpt>
      <trkpt lat="42.28113" lon="2.20949">
        <ele>2031</ele>
        <time>2010-01-01T03:49:29Z</time>
      </trkpt>
      <trkpt lat="42.28114" lon="2.20946">
        <ele>2031</ele>
        <time>2010-01-01T03:49:30Z</time>
      </trkpt>
      <trkpt lat="42.28116" lon="2.20943">
        <ele>2030</ele>
        <time>2010-01-01T03:49:31Z</time>
      </trkpt>
      <trkpt lat="42.28118" lon="2.20941">
        <ele>2030</ele>
        <time>2010-01-01T03:49:32Z</time>
      </trkpt>
      <trkpt lat="42.2812" lon="2.20939">
        <ele>2030</ele>
        <time>2010-01-01T03:49:33Z</time>
      </trkpt>
      <trkpt lat="42.28122" lon="2.20937">
        <ele>2029</ele>
        <time>2010-01-01T03:49:34Z</time>
      </trkpt>
      <trkpt lat="42.28125" lon="2.20935">
        <ele>2029</ele>
        <time>2010-01-01T03:49:35Z</time>
      </trkpt>
      <trkpt lat="42.28126" lon="2.20934">
        <ele>2029</ele>
        <time>2010-01-01T03:49:36Z</time>
      </trkpt>
      <trkpt lat="42.28128" lon="2.20932">
        <ele>2029</ele>
        <time>2010-01-01T03:49:37Z</time>
      </trkpt>
      <trkpt lat="42.2813" lon="2.2093">
        <ele>2029</ele>
        <time>2010-01-01T03:49:38Z</time>
      </trkpt>
      <trkpt lat="42.28132" lon="2.20928">
        <ele>2029</ele>
        <time>2010-01-01T03:49:39Z</time>
      </trkpt>
      <trkpt lat="42.28133" lon="2.20925">
        <ele>2029</ele>
        <time>2010-01-01T03:49:40Z</time>
      </trkpt>
      <trkpt lat="42.28134" lon="2.20923">
        <ele>2028</ele>
        <time>2010-01-01T03:49:41Z</time>
      </trkpt>
      <trkpt lat="42.28135" lon="2.2092">
        <ele>2028</ele>
        <time>2010-01-01T03:49:42Z</time>
      </trkpt>
      <trkpt lat="42.28137" lon="2.20916">
        <ele>2028</ele>
        <time>2010-01-01T03:49:43Z</time>
      </trkpt>
      <trkpt lat="42.28138" lon="2.20913">
        <ele>2028</ele>
        <time>2010-01-01T03:49:44Z</time>
      </trkpt>
      <trkpt lat="42.28139" lon="2.2091">
        <ele>2027</ele>
        <time>2010-01-01T03:49:45Z</time>
      </trkpt>
      <trkpt lat="42.2814" lon="2.20908">
        <ele>2027</ele>
        <time>2010-01-01T03:49:45Z</time>
      </trkpt>
      <trkpt lat="42.28142" lon="2.20905">
        <ele>2026</ele>
        <time>2010-01-01T03:49:47Z</time>
      </trkpt>
      <trkpt lat="42.28143" lon="2.20902">
        <ele>2026</ele>
        <time>2010-01-01T03:49:48Z</time>
      </trkpt>
      <trkpt lat="42.28145" lon="2.20899">
        <ele>2025</ele>
        <time>2010-01-01T03:49:49Z</time>
      </trkpt>
      <trkpt lat="42.28146" lon="2.20896">
        <ele>2025</ele>
        <time>2010-01-01T03:49:50Z</time>
      </trkpt>
      <trkpt lat="42.28148" lon="2.20893">
        <ele>2024</ele>
        <time>2010-01-01T03:49:51Z</time>
      </trkpt>
      <trkpt lat="42.2815" lon="2.2089">
        <ele>2024</ele>
        <time>2010-01-01T03:49:52Z</time>
      </trkpt>
      <trkpt lat="42.28152" lon="2.20887">
        <ele>2024</ele>
        <time>2010-01-01T03:49:53Z</time>
      </trkpt>
      <trkpt lat="42.28153" lon="2.20884">
        <ele>2024</ele>
        <time>2010-01-01T03:49:54Z</time>
      </trkpt>
      <trkpt lat="42.28155" lon="2.20882">
        <ele>2024</ele>
        <time>2010-01-01T03:49:55Z</time>
      </trkpt>
      <trkpt lat="42.28157" lon="2.20879">
        <ele>2024</ele>
        <time>2010-01-01T03:49:56Z</time>
      </trkpt>
      <trkpt lat="42.28159" lon="2.20876">
        <ele>2024</ele>
        <time>2010-01-01T03:49:58Z</time>
      </trkpt>
      <trkpt lat="42.28161" lon="2.20873">
        <ele>2024</ele>
        <time>2010-01-01T03:49:59Z</time>
      </trkpt>
      <trkpt lat="42.28163" lon="2.2087">
        <ele>2025</ele>
        <time>2010-01-01T03:50:00Z</time>
      </trkpt>
      <trkpt lat="42.28165" lon="2.20867">
        <ele>2025</ele>
        <time>2010-01-01T03:50:01Z</time>
      </trkpt>
      <trkpt lat="42.28167" lon="2.20865">
        <ele>2025</ele>
        <time>2010-01-01T03:50:02Z</time>
      </trkpt>
      <trkpt lat="42.28169" lon="2.20862">
        <ele>2025</ele>
        <time>2010-01-01T03:50:03Z</time>
      </trkpt>
      <trkpt lat="42.2817" lon="2.20859">
        <ele>2025</ele>
        <time>2010-01-01T03:50:04Z</time>
      </trkpt>
      <trkpt lat="42.28172" lon="2.20856">
        <ele>2025</ele>
        <time>2010-01-01T03:50:06Z</time>
      </trkpt>
      <trkpt lat="42.28174" lon="2.20853">
        <ele>2025</ele>
        <time>2010-01-01T03:50:07Z</time>
      </trkpt>
      <trkpt lat="42.28175" lon="2.20851">
        <ele>2025</ele>
        <time>2010-01-01T03:50:08Z</time>
      </trkpt>
      <trkpt lat="42.28176" lon="2.20848">
        <ele>2025</ele>
        <time>2010-01-01T03:50:09Z</time>
      </trkpt>
      <trkpt lat="42.28177" lon="2.20845">
        <ele>2025</ele>
        <time>2010-01-01T03:50:09Z</time>
      </trkpt>
      <trkpt lat="42.28178" lon="2.20841">
        <ele>2025</ele>
        <time>2010-01-01T03:50:10Z</time>
      </trkpt>
      <trkpt lat="42.28178" lon="2.20838">
        <ele>2025</ele>
        <time>2010-01-01T03:50:11Z</time>
      </trkpt>
      <trkpt lat="42.28179" lon="2.20836">
        <ele>2025</ele>
        <time>2010-01-01T03:50:12Z</time>
      </trkpt>
      <trkpt lat="42.2818" lon="2.20833">
        <ele>2025</ele>
        <time>2010-01-01T03:50:13Z</time>
      </trkpt>
      <trkpt lat="42.28182" lon="2.2083">
        <ele>2025</ele>
        <time>2010-01-01T03:50:14Z</time>
      </trkpt>
      <trkpt lat="42.28183" lon="2.20827">
        <ele>2025</ele>
        <time>2010-01-01T03:50:15Z</time>
      </trkpt>
      <trkpt lat="42.28184" lon="2.20824">
        <ele>2025</ele>
        <time>2010-01-01T03:50:16Z</time>
      </trkpt>
      <trkpt lat="42.28186" lon="2.20821">
        <ele>2025</ele>
        <time>2010-01-01T03:50:17Z</time>
      </trkpt>
      <trkpt lat="42.28187" lon="2.20818">
        <ele>2025</ele>
        <time>2010-01-01T03:50:19Z</time>
      </trkpt>
      <trkpt lat="42.28189" lon="2.20815">
        <ele>2026</ele>
        <time>2010-01-01T03:50:20Z</time>
      </trkpt>
      <trkpt lat="42.28191" lon="2.20811">
        <ele>2026</ele>
        <time>2010-01-01T03:50:21Z</time>
      </trkpt>
      <trkpt lat="42.28192" lon="2.20808">
        <ele>2026</ele>
        <time>2010-01-01T03:50:22Z</time>
      </trkpt>
      <trkpt lat="42.28194" lon="2.20805">
        <ele>2026</ele>
        <time>2010-01-01T03:50:23Z</time>
      </trkpt>
      <trkpt lat="42.28195" lon="2.20802">
        <ele>2026</ele>
        <time>2010-01-01T03:50:24Z</time>
      </trkpt>
      <trkpt lat="42.28197" lon="2.20798">
        <ele>2026</ele>
        <time>2010-01-01T03:50:25Z</time>
      </trkpt>
      <trkpt lat="42.28199" lon="2.20795">
        <ele>2026</ele>
        <time>2010-01-01T03:50:27Z</time>
      </trkpt>
      <trkpt lat="42.282" lon="2.20791">
        <ele>2026</ele>
        <time>2010-01-01T03:50:28Z</time>
      </trkpt>
      <trkpt lat="42.28202" lon="2.20786">
        <ele>2026</ele>
        <time>2010-01-01T03:50:30Z</time>
      </trkpt>
      <trkpt lat="42.28204" lon="2.20782">
        <ele>2026</ele>
        <time>2010-01-01T03:50:31Z</time>
      </trkpt>
      <trkpt lat="42.28207" lon="2.20777">
        <ele>2027</ele>
        <time>2010-01-01T03:50:33Z</time>
      </trkpt>
      <trkpt lat="42.2821" lon="2.20771">
        <ele>2028</ele>
        <time>2010-01-01T03:50:35Z</time>
      </trkpt>
      <trkpt lat="42.28211" lon="2.20768">
        <ele>2028</ele>
        <time>2010-01-01T03:50:36Z</time>
      </trkpt>
      <trkpt lat="42.28213" lon="2.20763">
        <ele>2029</ele>
        <time>2010-01-01T03:50:38Z</time>
      </trkpt>
      <trkpt lat="42.28215" lon="2.20758">
        <ele>2030</ele>
        <time>2010-01-01T03:50:39Z</time>
      </trkpt>
      <trkpt lat="42.28217" lon="2.20754">
        <ele>2031</ele>
        <time>2010-01-01T03:50:41Z</time>
      </trkpt>
      <trkpt lat="42.28219" lon="2.20749">
        <ele>2032</ele>
        <time>2010-01-01T03:50:43Z</time>
      </trkpt>
      <trkpt lat="42.28221" lon="2.20745">
        <ele>2032</ele>
        <time>2010-01-01T03:50:44Z</time>
      </trkpt>
      <trkpt lat="42.28223" lon="2.2074">
        <ele>2032</ele>
        <time>2010-01-01T03:50:46Z</time>
      </trkpt>
      <trkpt lat="42.28225" lon="2.20735">
        <ele>2031</ele>
        <time>2010-01-01T03:50:47Z</time>
      </trkpt>
      <trkpt lat="42.28227" lon="2.2073">
        <ele>2030</ele>
        <time>2010-01-01T03:50:49Z</time>
      </trkpt>
      <trkpt lat="42.28228" lon="2.20725">
        <ele>2030</ele>
        <time>2010-01-01T03:50:51Z</time>
      </trkpt>
      <trkpt lat="42.2823" lon="2.2072">
        <ele>2029</ele>
        <time>2010-01-01T03:50:52Z</time>
      </trkpt>
      <trkpt lat="42.28232" lon="2.20716">
        <ele>2027</ele>
        <time>2010-01-01T03:50:54Z</time>
      </trkpt>
      <trkpt lat="42.28234" lon="2.20711">
        <ele>2026</ele>
        <time>2010-01-01T03:50:55Z</time>
      </trkpt>
      <trkpt lat="42.28236" lon="2.20706">
        <ele>2025</ele>
        <time>2010-01-01T03:50:57Z</time>
      </trkpt>
      <trkpt lat="42.28238" lon="2.207">
        <ele>2024</ele>
        <time>2010-01-01T03:50:59Z</time>
      </trkpt>
      <trkpt lat="42.2824" lon="2.20694">
        <ele>2022</ele>
        <time>2010-01-01T03:51:01Z</time>
      </trkpt>
      <trkpt lat="42.28243" lon="2.20687">
        <ele>2021</ele>
        <time>2010-01-01T03:51:03Z</time>
      </trkpt>
      <trkpt lat="42.28244" lon="2.20684">
        <ele>2020</ele>
        <time>2010-01-01T03:51:04Z</time>
      </trkpt>
      <trkpt lat="42.28246" lon="2.20681">
        <ele>2019</ele>
        <time>2010-01-01T03:51:05Z</time>
      </trkpt>
      <trkpt lat="42.28248" lon="2.20678">
        <ele>2019</ele>
        <time>2010-01-01T03:51:07Z</time>
      </trkpt>
      <trkpt lat="42.28251" lon="2.20676">
        <ele>2018</ele>
        <time>2010-01-01T03:51:08Z</time>
      </trkpt>
      <trkpt lat="42.28253" lon="2.20673">
        <ele>2018</ele>
        <time>2010-01-01T03:51:09Z</time>
      </trkpt>
      <trkpt lat="42.28256" lon="2.20669">
        <ele>2017</ele>
        <time>2010-01-01T03:51:11Z</time>
      </trkpt>
      <trkpt lat="42.28259" lon="2.20666">
        <ele>2016</ele>
        <time>2010-01-01T03:51:12Z</time>
      </trkpt>
      <trkpt lat="42.28262" lon="2.20662">
        <ele>2015</ele>
        <time>2010-01-01T03:51:14Z</time>
      </trkpt>
      <trkpt lat="42.28267" lon="2.20658">
        <ele>2014</ele>
        <time>2010-01-01T03:51:16Z</time>
      </trkpt>
      <trkpt lat="42.28271" lon="2.20654">
        <ele>2013</ele>
        <time>2010-01-01T03:51:18Z</time>
      </trkpt>
      <trkpt lat="42.28276" lon="2.20651">
        <ele>2012</ele>
        <time>2010-01-01T03:51:20Z</time>
      </trkpt>
      <trkpt lat="42.28279" lon="2.20649">
        <ele>2011</ele>
        <time>2010-01-01T03:51:22Z</time>
      </trkpt>
      <trkpt lat="42.28282" lon="2.20648">
        <ele>2010</ele>
        <time>2010-01-01T03:51:23Z</time>
      </trkpt>
      <trkpt lat="42.28285" lon="2.20646">
        <ele>2010</ele>
        <time>2010-01-01T03:51:24Z</time>
      </trkpt>
      <trkpt lat="42.28287" lon="2.20644">
        <ele>2009</ele>
        <time>2010-01-01T03:51:25Z</time>
      </trkpt>
      <trkpt lat="42.28291" lon="2.20642">
        <ele>2009</ele>
        <time>2010-01-01T03:51:27Z</time>
      </trkpt>
      <trkpt lat="42.28294" lon="2.2064">
        <ele>2008</ele>
        <time>2010-01-01T03:51:29Z</time>
      </trkpt>
      <trkpt lat="42.28298" lon="2.20637">
        <ele>2007</ele>
        <time>2010-01-01T03:51:30Z</time>
      </trkpt>
      <trkpt lat="42.28303" lon="2.20634">
        <ele>2006</ele>
        <time>2010-01-01T03:51:32Z</time>
      </trkpt>
      <trkpt lat="42.28307" lon="2.20631">
        <ele>2004</ele>
        <time>2010-01-01T03:51:34Z</time>
      </trkpt>
      <trkpt lat="42.28311" lon="2.20628">
        <ele>2004</ele>
        <time>2010-01-01T03:51:36Z</time>
      </trkpt>
      <trkpt lat="42.28315" lon="2.20625">
        <ele>2003</ele>
        <time>2010-01-01T03:51:38Z</time>
      </trkpt>
      <trkpt lat="42.28318" lon="2.20622">
        <ele>2003</ele>
        <time>2010-01-01T03:51:39Z</time>
      </trkpt>
      <trkpt lat="42.28321" lon="2.20619">
        <ele>2002</ele>
        <time>2010-01-01T03:51:41Z</time>
      </trkpt>
      <trkpt lat="42.28324" lon="2.20617">
        <ele>2002</ele>
        <time>2010-01-01T03:51:42Z</time>
      </trkpt>
      <trkpt lat="42.28328" lon="2.20615">
        <ele>2002</ele>
        <time>2010-01-01T03:51:44Z</time>
      </trkpt>
      <trkpt lat="42.28331" lon="2.20612">
        <ele>2001</ele>
        <time>2010-01-01T03:51:45Z</time>
      </trkpt>
      <trkpt lat="42.28334" lon="2.2061">
        <ele>2000</ele>
        <time>2010-01-01T03:51:47Z</time>
      </trkpt>
      <trkpt lat="42.28338" lon="2.20607">
        <ele>1999</ele>
        <time>2010-01-01T03:51:49Z</time>
      </trkpt>
      <trkpt lat="42.28341" lon="2.20605">
        <ele>1998</ele>
        <time>2010-01-01T03:51:50Z</time>
      </trkpt>
      <trkpt lat="42.28343" lon="2.20603">
        <ele>1996</ele>
        <time>2010-01-01T03:51:51Z</time>
      </trkpt>
      <trkpt lat="42.28345" lon="2.20601">
        <ele>1995</ele>
        <time>2010-01-01T03:51:52Z</time>
      </trkpt>
      <trkpt lat="42.28347" lon="2.20599">
        <ele>1995</ele>
        <time>2010-01-01T03:51:53Z</time>
      </trkpt>
      <trkpt lat="42.2835" lon="2.20598">
        <ele>1994</ele>
        <time>2010-01-01T03:51:54Z</time>
      </trkpt>
      <trkpt lat="42.28353" lon="2.20595">
        <ele>1993</ele>
        <time>2010-01-01T03:51:55Z</time>
      </trkpt>
      <trkpt lat="42.28356" lon="2.20592">
        <ele>1992</ele>
        <time>2010-01-01T03:51:57Z</time>
      </trkpt>
      <trkpt lat="42.28358" lon="2.20589">
        <ele>1992</ele>
        <time>2010-01-01T03:51:58Z</time>
      </trkpt>
      <trkpt lat="42.28361" lon="2.20587">
        <ele>1991</ele>
        <time>2010-01-01T03:51:59Z</time>
      </trkpt>
      <trkpt lat="42.28362" lon="2.20585">
        <ele>1991</ele>
        <time>2010-01-01T03:52:00Z</time>
      </trkpt>
      <trkpt lat="42.28363" lon="2.20583">
        <ele>1990</ele>
        <time>2010-01-01T03:52:01Z</time>
      </trkpt>
      <trkpt lat="42.28366" lon="2.20581">
        <ele>1989</ele>
        <time>2010-01-01T03:52:02Z</time>
      </trkpt>
      <trkpt lat="42.2837" lon="2.20579">
        <ele>1988</ele>
        <time>2010-01-01T03:52:04Z</time>
      </trkpt>
      <trkpt lat="42.28373" lon="2.20578">
        <ele>1987</ele>
        <time>2010-01-01T03:52:05Z</time>
      </trkpt>
      <trkpt lat="42.28375" lon="2.20575">
        <ele>1986</ele>
        <time>2010-01-01T03:52:06Z</time>
      </trkpt>
      <trkpt lat="42.28377" lon="2.20574">
        <ele>1985</ele>
        <time>2010-01-01T03:52:07Z</time>
      </trkpt>
      <trkpt lat="42.28379" lon="2.20571">
        <ele>1985</ele>
        <time>2010-01-01T03:52:08Z</time>
      </trkpt>
      <trkpt lat="42.28382" lon="2.20568">
        <ele>1984</ele>
        <time>2010-01-01T03:52:10Z</time>
      </trkpt>
      <trkpt lat="42.28385" lon="2.20566">
        <ele>1983</ele>
        <time>2010-01-01T03:52:11Z</time>
      </trkpt>
      <trkpt lat="42.28388" lon="2.20564">
        <ele>1983</ele>
        <time>2010-01-01T03:52:12Z</time>
      </trkpt>
      <trkpt lat="42.2839" lon="2.20562">
        <ele>1982</ele>
        <time>2010-01-01T03:52:13Z</time>
      </trkpt>
      <trkpt lat="42.28392" lon="2.20559">
        <ele>1980</ele>
        <time>2010-01-01T03:52:15Z</time>
      </trkpt>
      <trkpt lat="42.28394" lon="2.20557">
        <ele>1979</ele>
        <time>2010-01-01T03:52:16Z</time>
      </trkpt>
      <trkpt lat="42.28396" lon="2.20555">
        <ele>1977</ele>
        <time>2010-01-01T03:52:17Z</time>
      </trkpt>
      <trkpt lat="42.28396" lon="2.20553">
        <ele>1976</ele>
        <time>2010-01-01T03:52:17Z</time>
      </trkpt>
      <trkpt lat="42.28398" lon="2.20551">
        <ele>1975</ele>
        <time>2010-01-01T03:52:18Z</time>
      </trkpt>
      <trkpt lat="42.28399" lon="2.20549">
        <ele>1973</ele>
        <time>2010-01-01T03:52:19Z</time>
      </trkpt>
      <trkpt lat="42.28401" lon="2.20546">
        <ele>1971</ele>
        <time>2010-01-01T03:52:20Z</time>
      </trkpt>
      <trkpt lat="42.28403" lon="2.20543">
        <ele>1969</ele>
        <time>2010-01-01T03:52:21Z</time>
      </trkpt>
      <trkpt lat="42.28405" lon="2.20542">
        <ele>1968</ele>
        <time>2010-01-01T03:52:22Z</time>
      </trkpt>
      <trkpt lat="42.28406" lon="2.2054">
        <ele>1967</ele>
        <time>2010-01-01T03:52:23Z</time>
      </trkpt>
      <trkpt lat="42.28408" lon="2.20538">
        <ele>1966</ele>
        <time>2010-01-01T03:52:24Z</time>
      </trkpt>
      <trkpt lat="42.28411" lon="2.20536">
        <ele>1965</ele>
        <time>2010-01-01T03:52:25Z</time>
      </trkpt>
      <trkpt lat="42.28412" lon="2.20535">
        <ele>1964</ele>
        <time>2010-01-01T03:52:26Z</time>
      </trkpt>
      <trkpt lat="42.28414" lon="2.20533">
        <ele>1963</ele>
        <time>2010-01-01T03:52:27Z</time>
      </trkpt>
      <trkpt lat="42.28416" lon="2.20531">
        <ele>1962</ele>
        <time>2010-01-01T03:52:28Z</time>
      </trkpt>
      <trkpt lat="42.28417" lon="2.20528">
        <ele>1962</ele>
        <time>2010-01-01T03:52:28Z</time>
      </trkpt>
      <trkpt lat="42.28418" lon="2.20526">
        <ele>1961</ele>
        <time>2010-01-01T03:52:29Z</time>
      </trkpt>
      <trkpt lat="42.2842" lon="2.20525">
        <ele>1960</ele>
        <time>2010-01-01T03:52:30Z</time>
      </trkpt>
      <trkpt lat="42.28421" lon="2.20521">
        <ele>1959</ele>
        <time>2010-01-01T03:52:31Z</time>
      </trkpt>
      <trkpt lat="42.28423" lon="2.20519">
        <ele>1958</ele>
        <time>2010-01-01T03:52:32Z</time>
      </trkpt>
      <trkpt lat="42.28423" lon="2.20517">
        <ele>1958</ele>
        <time>2010-01-01T03:52:33Z</time>
      </trkpt>
      <trkpt lat="42.28423" lon="2.20514">
        <ele>1957</ele>
        <time>2010-01-01T03:52:34Z</time>
      </trkpt>
      <trkpt lat="42.28424" lon="2.2051">
        <ele>1957</ele>
        <time>2010-01-01T03:52:35Z</time>
      </trkpt>
      <trkpt lat="42.28425" lon="2.20505">
        <ele>1956</ele>
        <time>2010-01-01T03:52:36Z</time>
      </trkpt>
      <trkpt lat="42.28427" lon="2.20501">
        <ele>1955</ele>
        <time>2010-01-01T03:52:38Z</time>
      </trkpt>
      <trkpt lat="42.28429" lon="2.20496">
        <ele>1954</ele>
        <time>2010-01-01T03:52:40Z</time>
      </trkpt>
      <trkpt lat="42.2843" lon="2.20491">
        <ele>1953</ele>
        <time>2010-01-01T03:52:41Z</time>
      </trkpt>
      <trkpt lat="42.28431" lon="2.20486">
        <ele>1952</ele>
        <time>2010-01-01T03:52:43Z</time>
      </trkpt>
      <trkpt lat="42.28432" lon="2.2048">
        <ele>1951</ele>
        <time>2010-01-01T03:52:44Z</time>
      </trkpt>
      <trkpt lat="42.28433" lon="2.20477">
        <ele>1950</ele>
        <time>2010-01-01T03:52:46Z</time>
      </trkpt>
      <trkpt lat="42.28435" lon="2.20472">
        <ele>1950</ele>
        <time>2010-01-01T03:52:47Z</time>
      </trkpt>
      <trkpt lat="42.28437" lon="2.20467">
        <ele>1948</ele>
        <time>2010-01-01T03:52:49Z</time>
      </trkpt>
      <trkpt lat="42.28439" lon="2.20463">
        <ele>1947</ele>
        <time>2010-01-01T03:52:50Z</time>
      </trkpt>
      <trkpt lat="42.28442" lon="2.20461">
        <ele>1947</ele>
        <time>2010-01-01T03:52:52Z</time>
      </trkpt>
      <trkpt lat="42.28447" lon="2.20457">
        <ele>1945</ele>
        <time>2010-01-01T03:52:54Z</time>
      </trkpt>
      <trkpt lat="42.28451" lon="2.20456">
        <ele>1944</ele>
        <time>2010-01-01T03:52:56Z</time>
      </trkpt>
      <trkpt lat="42.28456" lon="2.20453">
        <ele>1944</ele>
        <time>2010-01-01T03:52:58Z</time>
      </trkpt>
      <trkpt lat="42.28459" lon="2.20452">
        <ele>1944</ele>
        <time>2010-01-01T03:52:59Z</time>
      </trkpt>
      <trkpt lat="42.28461" lon="2.2045">
        <ele>1943</ele>
        <time>2010-01-01T03:53:00Z</time>
      </trkpt>
      <trkpt lat="42.28464" lon="2.20447">
        <ele>1943</ele>
        <time>2010-01-01T03:53:01Z</time>
      </trkpt>
      <trkpt lat="42.28467" lon="2.20444">
        <ele>1943</ele>
        <time>2010-01-01T03:53:03Z</time>
      </trkpt>
      <trkpt lat="42.28471" lon="2.20441">
        <ele>1942</ele>
        <time>2010-01-01T03:53:05Z</time>
      </trkpt>
      <trkpt lat="42.28473" lon="2.20438">
        <ele>1942</ele>
        <time>2010-01-01T03:53:06Z</time>
      </trkpt>
      <trkpt lat="42.28476" lon="2.20435">
        <ele>1941</ele>
        <time>2010-01-01T03:53:07Z</time>
      </trkpt>
      <trkpt lat="42.28478" lon="2.20432">
        <ele>1941</ele>
        <time>2010-01-01T03:53:08Z</time>
      </trkpt>
      <trkpt lat="42.2848" lon="2.2043">
        <ele>1940</ele>
        <time>2010-01-01T03:53:10Z</time>
      </trkpt>
      <trkpt lat="42.28483" lon="2.20427">
        <ele>1939</ele>
        <time>2010-01-01T03:53:11Z</time>
      </trkpt>
      <trkpt lat="42.28485" lon="2.20424">
        <ele>1939</ele>
        <time>2010-01-01T03:53:12Z</time>
      </trkpt>
      <trkpt lat="42.28488" lon="2.20422">
        <ele>1939</ele>
        <time>2010-01-01T03:53:13Z</time>
      </trkpt>
      <trkpt lat="42.2849" lon="2.20421">
        <ele>1938</ele>
        <time>2010-01-01T03:53:14Z</time>
      </trkpt>
      <trkpt lat="42.28492" lon="2.20418">
        <ele>1938</ele>
        <time>2010-01-01T03:53:16Z</time>
      </trkpt>
      <trkpt lat="42.28495" lon="2.20414">
        <ele>1937</ele>
        <time>2010-01-01T03:53:17Z</time>
      </trkpt>
      <trkpt lat="42.28499" lon="2.20409">
        <ele>1936</ele>
        <time>2010-01-01T03:53:19Z</time>
      </trkpt>
      <trkpt lat="42.28501" lon="2.20405">
        <ele>1935</ele>
        <time>2010-01-01T03:53:21Z</time>
      </trkpt>
      <trkpt lat="42.28504" lon="2.20401">
        <ele>1933</ele>
        <time>2010-01-01T03:53:22Z</time>
      </trkpt>
      <trkpt lat="42.28507" lon="2.20396">
        <ele>1932</ele>
        <time>2010-01-01T03:53:24Z</time>
      </trkpt>
      <trkpt lat="42.2851" lon="2.20391">
        <ele>1930</ele>
        <time>2010-01-01T03:53:26Z</time>
      </trkpt>
      <trkpt lat="42.28513" lon="2.20385">
        <ele>1928</ele>
        <time>2010-01-01T03:53:28Z</time>
      </trkpt>
      <trkpt lat="42.28516" lon="2.20381">
        <ele>1927</ele>
        <time>2010-01-01T03:53:30Z</time>
      </trkpt>
      <trkpt lat="42.28519" lon="2.20376">
        <ele>1926</ele>
        <time>2010-01-01T03:53:32Z</time>
      </trkpt>
      <trkpt lat="42.28521" lon="2.20374">
        <ele>1925</ele>
        <time>2010-01-01T03:53:33Z</time>
      </trkpt>
      <trkpt lat="42.28522" lon="2.20371">
        <ele>1925</ele>
        <time>2010-01-01T03:53:34Z</time>
      </trkpt>
      <trkpt lat="42.28524" lon="2.20367">
        <ele>1924</ele>
        <time>2010-01-01T03:53:35Z</time>
      </trkpt>
      <trkpt lat="42.28526" lon="2.20364">
        <ele>1923</ele>
        <time>2010-01-01T03:53:37Z</time>
      </trkpt>
      <trkpt lat="42.28527" lon="2.20361">
        <ele>1923</ele>
        <time>2010-01-01T03:53:38Z</time>
      </trkpt>
      <trkpt lat="42.28529" lon="2.20358">
        <ele>1922</ele>
        <time>2010-01-01T03:53:39Z</time>
      </trkpt>
      <trkpt lat="42.28531" lon="2.20355">
        <ele>1922</ele>
        <time>2010-01-01T03:53:40Z</time>
      </trkpt>
      <trkpt lat="42.28533" lon="2.20352">
        <ele>1922</ele>
        <time>2010-01-01T03:53:41Z</time>
      </trkpt>
      <trkpt lat="42.28536" lon="2.20349">
        <ele>1922</ele>
        <time>2010-01-01T03:53:42Z</time>
      </trkpt>
      <trkpt lat="42.28538" lon="2.20346">
        <ele>1922</ele>
        <time>2010-01-01T03:53:44Z</time>
      </trkpt>
      <trkpt lat="42.28542" lon="2.20341">
        <ele>1922</ele>
        <time>2010-01-01T03:53:46Z</time>
      </trkpt>
      <trkpt lat="42.28545" lon="2.20339">
        <ele>1922</ele>
        <time>2010-01-01T03:53:47Z</time>
      </trkpt>
      <trkpt lat="42.28547" lon="2.20336">
        <ele>1922</ele>
        <time>2010-01-01T03:53:49Z</time>
      </trkpt>
      <trkpt lat="42.28549" lon="2.20333">
        <ele>1922</ele>
        <time>2010-01-01T03:53:50Z</time>
      </trkpt>
      <trkpt lat="42.28552" lon="2.2033">
        <ele>1922</ele>
        <time>2010-01-01T03:53:51Z</time>
      </trkpt>
      <trkpt lat="42.28555" lon="2.20325">
        <ele>1922</ele>
        <time>2010-01-01T03:53:53Z</time>
      </trkpt>
      <trkpt lat="42.28557" lon="2.20322">
        <ele>1922</ele>
        <time>2010-01-01T03:53:54Z</time>
      </trkpt>
      <trkpt lat="42.2856" lon="2.20319">
        <ele>1922</ele>
        <time>2010-01-01T03:53:56Z</time>
      </trkpt>
      <trkpt lat="42.28562" lon="2.20316">
        <ele>1922</ele>
        <time>2010-01-01T03:53:57Z</time>
      </trkpt>
      <trkpt lat="42.28566" lon="2.20313">
        <ele>1922</ele>
        <time>2010-01-01T03:53:59Z</time>
      </trkpt>
      <trkpt lat="42.28569" lon="2.2031">
        <ele>1922</ele>
        <time>2010-01-01T03:54:00Z</time>
      </trkpt>
      <trkpt lat="42.28572" lon="2.20307">
        <ele>1922</ele>
        <time>2010-01-01T03:54:02Z</time>
      </trkpt>
      <trkpt lat="42.28576" lon="2.20303">
        <ele>1923</ele>
        <time>2010-01-01T03:54:04Z</time>
      </trkpt>
      <trkpt lat="42.28579" lon="2.203">
        <ele>1923</ele>
        <time>2010-01-01T03:54:05Z</time>
      </trkpt>
      <trkpt lat="42.28583" lon="2.20295">
        <ele>1923</ele>
        <time>2010-01-01T03:54:07Z</time>
      </trkpt>
      <trkpt lat="42.28586" lon="2.20292">
        <ele>1923</ele>
        <time>2010-01-01T03:54:09Z</time>
      </trkpt>
      <trkpt lat="42.28589" lon="2.20289">
        <ele>1923</ele>
        <time>2010-01-01T03:54:10Z</time>
      </trkpt>
      <trkpt lat="42.28592" lon="2.20286">
        <ele>1923</ele>
        <time>2010-01-01T03:54:12Z</time>
      </trkpt>
      <trkpt lat="42.28595" lon="2.20283">
        <ele>1923</ele>
        <time>2010-01-01T03:54:13Z</time>
      </trkpt>
      <trkpt lat="42.28598" lon="2.20279">
        <ele>1923</ele>
        <time>2010-01-01T03:54:15Z</time>
      </trkpt>
      <trkpt lat="42.28603" lon="2.20274">
        <ele>1923</ele>
        <time>2010-01-01T03:54:17Z</time>
      </trkpt>
      <trkpt lat="42.28606" lon="2.2027">
        <ele>1923</ele>
        <time>2010-01-01T03:54:19Z</time>
      </trkpt>
      <trkpt lat="42.2861" lon="2.20266">
        <ele>1923</ele>
        <time>2010-01-01T03:54:21Z</time>
      </trkpt>
      <trkpt lat="42.28613" lon="2.20262">
        <ele>1922</ele>
        <time>2010-01-01T03:54:23Z</time>
      </trkpt>
      <trkpt lat="42.28617" lon="2.20259">
        <ele>1922</ele>
        <time>2010-01-01T03:54:25Z</time>
      </trkpt>
      <trkpt lat="42.2862" lon="2.20255">
        <ele>1922</ele>
        <time>2010-01-01T03:54:26Z</time>
      </trkpt>
      <trkpt lat="42.28624" lon="2.20251">
        <ele>1921</ele>
        <time>2010-01-01T03:54:28Z</time>
      </trkpt>
      <trkpt lat="42.28627" lon="2.20248">
        <ele>1920</ele>
        <time>2010-01-01T03:54:30Z</time>
      </trkpt>
      <trkpt lat="42.28632" lon="2.20243">
        <ele>1919</ele>
        <time>2010-01-01T03:54:32Z</time>
      </trkpt>
      <trkpt lat="42.28635" lon="2.2024">
        <ele>1918</ele>
        <time>2010-01-01T03:54:34Z</time>
      </trkpt>
      <trkpt lat="42.28637" lon="2.20237">
        <ele>1917</ele>
        <time>2010-01-01T03:54:35Z</time>
      </trkpt>
      <trkpt lat="42.28639" lon="2.20235">
        <ele>1916</ele>
        <time>2010-01-01T03:54:36Z</time>
      </trkpt>
      <trkpt lat="42.28642" lon="2.20233">
        <ele>1915</ele>
        <time>2010-01-01T03:54:38Z</time>
      </trkpt>
      <trkpt lat="42.28645" lon="2.2023">
        <ele>1915</ele>
        <time>2010-01-01T03:54:39Z</time>
      </trkpt>
      <trkpt lat="42.28648" lon="2.20227">
        <ele>1913</ele>
        <time>2010-01-01T03:54:40Z</time>
      </trkpt>
      <trkpt lat="42.28652" lon="2.20223">
        <ele>1912</ele>
        <time>2010-01-01T03:54:42Z</time>
      </trkpt>
      <trkpt lat="42.28656" lon="2.20219">
        <ele>1911</ele>
        <time>2010-01-01T03:54:44Z</time>
      </trkpt>
      <trkpt lat="42.2866" lon="2.20215">
        <ele>1910</ele>
        <time>2010-01-01T03:54:46Z</time>
      </trkpt>
      <trkpt lat="42.28663" lon="2.20212">
        <ele>1910</ele>
        <time>2010-01-01T03:54:48Z</time>
      </trkpt>
      <trkpt lat="42.28667" lon="2.2021">
        <ele>1910</ele>
        <time>2010-01-01T03:54:49Z</time>
      </trkpt>
      <trkpt lat="42.2867" lon="2.20208">
        <ele>1909</ele>
        <time>2010-01-01T03:54:51Z</time>
      </trkpt>
      <trkpt lat="42.28672" lon="2.20207">
        <ele>1908</ele>
        <time>2010-01-01T03:54:52Z</time>
      </trkpt>
      <trkpt lat="42.28675" lon="2.20205">
        <ele>1908</ele>
        <time>2010-01-01T03:54:53Z</time>
      </trkpt>
      <trkpt lat="42.28678" lon="2.20203">
        <ele>1907</ele>
        <time>2010-01-01T03:54:54Z</time>
      </trkpt>
      <trkpt lat="42.28681" lon="2.202">
        <ele>1906</ele>
        <time>2010-01-01T03:54:56Z</time>
      </trkpt>
      <trkpt lat="42.28684" lon="2.20198">
        <ele>1905</ele>
        <time>2010-01-01T03:54:57Z</time>
      </trkpt>
      <trkpt lat="42.28688" lon="2.20196">
        <ele>1904</ele>
        <time>2010-01-01T03:54:59Z</time>
      </trkpt>
      <trkpt lat="42.28691" lon="2.20194">
        <ele>1903</ele>
        <time>2010-01-01T03:55:00Z</time>
      </trkpt>
      <trkpt lat="42.28694" lon="2.20192">
        <ele>1902</ele>
        <time>2010-01-01T03:55:02Z</time>
      </trkpt>
      <trkpt lat="42.28697" lon="2.20191">
        <ele>1902</ele>
        <time>2010-01-01T03:55:03Z</time>
      </trkpt>
      <trkpt lat="42.28702" lon="2.20188">
        <ele>1901</ele>
        <time>2010-01-01T03:55:05Z</time>
      </trkpt>
      <trkpt lat="42.28706" lon="2.20187">
        <ele>1900</ele>
        <time>2010-01-01T03:55:06Z</time>
      </trkpt>
      <trkpt lat="42.28711" lon="2.20185">
        <ele>1900</ele>
        <time>2010-01-01T03:55:09Z</time>
      </trkpt>
      <trkpt lat="42.28714" lon="2.20183">
        <ele>1899</ele>
        <time>2010-01-01T03:55:10Z</time>
      </trkpt>
      <trkpt lat="42.28717" lon="2.20181">
        <ele>1899</ele>
        <time>2010-01-01T03:55:12Z</time>
      </trkpt>
      <trkpt lat="42.28721" lon="2.20178">
        <ele>1898</ele>
        <time>2010-01-01T03:55:13Z</time>
      </trkpt>
      <trkpt lat="42.28725" lon="2.20176">
        <ele>1897</ele>
        <time>2010-01-01T03:55:15Z</time>
      </trkpt>
      <trkpt lat="42.28729" lon="2.20174">
        <ele>1896</ele>
        <time>2010-01-01T03:55:16Z</time>
      </trkpt>
      <trkpt lat="42.28733" lon="2.20172">
        <ele>1894</ele>
        <time>2010-01-01T03:55:18Z</time>
      </trkpt>
      <trkpt lat="42.28736" lon="2.20169">
        <ele>1893</ele>
        <time>2010-01-01T03:55:20Z</time>
      </trkpt>
      <trkpt lat="42.28739" lon="2.20166">
        <ele>1891</ele>
        <time>2010-01-01T03:55:21Z</time>
      </trkpt>
      <trkpt lat="42.28742" lon="2.20163">
        <ele>1890</ele>
        <time>2010-01-01T03:55:23Z</time>
      </trkpt>
      <trkpt lat="42.28745" lon="2.2016">
        <ele>1889</ele>
        <time>2010-01-01T03:55:24Z</time>
      </trkpt>
      <trkpt lat="42.28749" lon="2.20157">
        <ele>1887</ele>
        <time>2010-01-01T03:55:26Z</time>
      </trkpt>
      <trkpt lat="42.28752" lon="2.20155">
        <ele>1885</ele>
        <time>2010-01-01T03:55:28Z</time>
      </trkpt>
      <trkpt lat="42.28755" lon="2.20154">
        <ele>1883</ele>
        <time>2010-01-01T03:55:29Z</time>
      </trkpt>
      <trkpt lat="42.28758" lon="2.20153">
        <ele>1882</ele>
        <time>2010-01-01T03:55:30Z</time>
      </trkpt>
      <trkpt lat="42.28761" lon="2.20152">
        <ele>1880</ele>
        <time>2010-01-01T03:55:31Z</time>
      </trkpt>
      <trkpt lat="42.28763" lon="2.2015">
        <ele>1879</ele>
        <time>2010-01-01T03:55:32Z</time>
      </trkpt>
      <trkpt lat="42.28765" lon="2.20147">
        <ele>1877</ele>
        <time>2010-01-01T03:55:33Z</time>
      </trkpt>
      <trkpt lat="42.28767" lon="2.20145">
        <ele>1875</ele>
        <time>2010-01-01T03:55:34Z</time>
      </trkpt>
      <trkpt lat="42.2877" lon="2.20144">
        <ele>1873</ele>
        <time>2010-01-01T03:55:35Z</time>
      </trkpt>
      <trkpt lat="42.28772" lon="2.20143">
        <ele>1872</ele>
        <time>2010-01-01T03:55:36Z</time>
      </trkpt>
      <trkpt lat="42.28774" lon="2.20142">
        <ele>1870</ele>
        <time>2010-01-01T03:55:37Z</time>
      </trkpt>
      <trkpt lat="42.28776" lon="2.2014">
        <ele>1868</ele>
        <time>2010-01-01T03:55:38Z</time>
      </trkpt>
      <trkpt lat="42.28779" lon="2.20138">
        <ele>1866</ele>
        <time>2010-01-01T03:55:40Z</time>
      </trkpt>
      <trkpt lat="42.28782" lon="2.20137">
        <ele>1865</ele>
        <time>2010-01-01T03:55:41Z</time>
      </trkpt>
      <trkpt lat="42.28784" lon="2.20135">
        <ele>1864</ele>
        <time>2010-01-01T03:55:42Z</time>
      </trkpt>
      <trkpt lat="42.28786" lon="2.20133">
        <ele>1863</ele>
        <time>2010-01-01T03:55:43Z</time>
      </trkpt>
      <trkpt lat="42.28789" lon="2.20131">
        <ele>1862</ele>
        <time>2010-01-01T03:55:44Z</time>
      </trkpt>
      <trkpt lat="42.28791" lon="2.2013">
        <ele>1861</ele>
        <time>2010-01-01T03:55:45Z</time>
      </trkpt>
      <trkpt lat="42.28794" lon="2.20129">
        <ele>1860</ele>
        <time>2010-01-01T03:55:46Z</time>
      </trkpt>
      <trkpt lat="42.28797" lon="2.20128">
        <ele>1859</ele>
        <time>2010-01-01T03:55:47Z</time>
      </trkpt>
      <trkpt lat="42.28799" lon="2.20127">
        <ele>1858</ele>
        <time>2010-01-01T03:55:48Z</time>
      </trkpt>
      <trkpt lat="42.28802" lon="2.20126">
        <ele>1857</ele>
        <time>2010-01-01T03:55:50Z</time>
      </trkpt>
      <trkpt lat="42.28804" lon="2.20125">
        <ele>1856</ele>
        <time>2010-01-01T03:55:51Z</time>
      </trkpt>
      <trkpt lat="42.28806" lon="2.20123">
        <ele>1855</ele>
        <time>2010-01-01T03:55:51Z</time>
      </trkpt>
      <trkpt lat="42.28809" lon="2.20122">
        <ele>1853</ele>
        <time>2010-01-01T03:55:52Z</time>
      </trkpt>
      <trkpt lat="42.28811" lon="2.2012">
        <ele>1852</ele>
        <time>2010-01-01T03:55:53Z</time>
      </trkpt>
      <trkpt lat="42.28813" lon="2.20119">
        <ele>1851</ele>
        <time>2010-01-01T03:55:55Z</time>
      </trkpt>
      <trkpt lat="42.28816" lon="2.20117">
        <ele>1850</ele>
        <time>2010-01-01T03:55:56Z</time>
      </trkpt>
      <trkpt lat="42.28819" lon="2.20116">
        <ele>1849</ele>
        <time>2010-01-01T03:55:57Z</time>
      </trkpt>
      <trkpt lat="42.28821" lon="2.20115">
        <ele>1849</ele>
        <time>2010-01-01T03:55:58Z</time>
      </trkpt>
      <trkpt lat="42.28824" lon="2.20114">
        <ele>1848</ele>
        <time>2010-01-01T03:55:59Z</time>
      </trkpt>
      <trkpt lat="42.28827" lon="2.20113">
        <ele>1847</ele>
        <time>2010-01-01T03:56:00Z</time>
      </trkpt>
      <trkpt lat="42.2883" lon="2.20111">
        <ele>1847</ele>
        <time>2010-01-01T03:56:02Z</time>
      </trkpt>
      <trkpt lat="42.28832" lon="2.20109">
        <ele>1846</ele>
        <time>2010-01-01T03:56:03Z</time>
      </trkpt>
      <trkpt lat="42.28835" lon="2.20107">
        <ele>1845</ele>
        <time>2010-01-01T03:56:04Z</time>
      </trkpt>
      <trkpt lat="42.28838" lon="2.20106">
        <ele>1844</ele>
        <time>2010-01-01T03:56:05Z</time>
      </trkpt>
      <trkpt lat="42.28841" lon="2.20105">
        <ele>1843</ele>
        <time>2010-01-01T03:56:06Z</time>
      </trkpt>
      <trkpt lat="42.28844" lon="2.20103">
        <ele>1842</ele>
        <time>2010-01-01T03:56:08Z</time>
      </trkpt>
      <trkpt lat="42.28847" lon="2.20102">
        <ele>1841</ele>
        <time>2010-01-01T03:56:09Z</time>
      </trkpt>
      <trkpt lat="42.2885" lon="2.20101">
        <ele>1840</ele>
        <time>2010-01-01T03:56:10Z</time>
      </trkpt>
      <trkpt lat="42.28851" lon="2.20099">
        <ele>1840</ele>
        <time>2010-01-01T03:56:11Z</time>
      </trkpt>
      <trkpt lat="42.28853" lon="2.20096">
        <ele>1839</ele>
        <time>2010-01-01T03:56:12Z</time>
      </trkpt>
      <trkpt lat="42.28855" lon="2.20095">
        <ele>1839</ele>
        <time>2010-01-01T03:56:13Z</time>
      </trkpt>
      <trkpt lat="42.28857" lon="2.20093">
        <ele>1838</ele>
        <time>2010-01-01T03:56:14Z</time>
      </trkpt>
      <trkpt lat="42.28859" lon="2.2009">
        <ele>1838</ele>
        <time>2010-01-01T03:56:15Z</time>
      </trkpt>
      <trkpt lat="42.28862" lon="2.20089">
        <ele>1837</ele>
        <time>2010-01-01T03:56:16Z</time>
      </trkpt>
      <trkpt lat="42.28865" lon="2.20088">
        <ele>1836</ele>
        <time>2010-01-01T03:56:17Z</time>
      </trkpt>
      <trkpt lat="42.28868" lon="2.20086">
        <ele>1834</ele>
        <time>2010-01-01T03:56:19Z</time>
      </trkpt>
      <trkpt lat="42.28871" lon="2.20085">
        <ele>1833</ele>
        <time>2010-01-01T03:56:20Z</time>
      </trkpt>
      <trkpt lat="42.28874" lon="2.20083">
        <ele>1831</ele>
        <time>2010-01-01T03:56:21Z</time>
      </trkpt>
      <trkpt lat="42.28877" lon="2.20082">
        <ele>1829</ele>
        <time>2010-01-01T03:56:23Z</time>
      </trkpt>
      <trkpt lat="42.2888" lon="2.2008">
        <ele>1827</ele>
        <time>2010-01-01T03:56:24Z</time>
      </trkpt>
      <trkpt lat="42.28884" lon="2.20079">
        <ele>1826</ele>
        <time>2010-01-01T03:56:25Z</time>
      </trkpt>
      <trkpt lat="42.28887" lon="2.20078">
        <ele>1824</ele>
        <time>2010-01-01T03:56:27Z</time>
      </trkpt>
      <trkpt lat="42.28891" lon="2.20077">
        <ele>1822</ele>
        <time>2010-01-01T03:56:28Z</time>
      </trkpt>
      <trkpt lat="42.28896" lon="2.20076">
        <ele>1819</ele>
        <time>2010-01-01T03:56:30Z</time>
      </trkpt>
      <trkpt lat="42.28898" lon="2.20074">
        <ele>1818</ele>
        <time>2010-01-01T03:56:31Z</time>
      </trkpt>
      <trkpt lat="42.28901" lon="2.20072">
        <ele>1816</ele>
        <time>2010-01-01T03:56:33Z</time>
      </trkpt>
      <trkpt lat="42.28904" lon="2.20071">
        <ele>1814</ele>
        <time>2010-01-01T03:56:34Z</time>
      </trkpt>
      <trkpt lat="42.28907" lon="2.2007">
        <ele>1812</ele>
        <time>2010-01-01T03:56:35Z</time>
      </trkpt>
      <trkpt lat="42.2891" lon="2.20068">
        <ele>1810</ele>
        <time>2010-01-01T03:56:36Z</time>
      </trkpt>
      <trkpt lat="42.28912" lon="2.20067">
        <ele>1809</ele>
        <time>2010-01-01T03:56:37Z</time>
      </trkpt>
      <trkpt lat="42.28914" lon="2.20065">
        <ele>1808</ele>
        <time>2010-01-01T03:56:38Z</time>
      </trkpt>
      <trkpt lat="42.28917" lon="2.20064">
        <ele>1806</ele>
        <time>2010-01-01T03:56:40Z</time>
      </trkpt>
      <trkpt lat="42.2892" lon="2.20064">
        <ele>1805</ele>
        <time>2010-01-01T03:56:41Z</time>
      </trkpt>
      <trkpt lat="42.28924" lon="2.20063">
        <ele>1803</ele>
        <time>2010-01-01T03:56:42Z</time>
      </trkpt>
      <trkpt lat="42.28927" lon="2.20062">
        <ele>1802</ele>
        <time>2010-01-01T03:56:44Z</time>
      </trkpt>
      <trkpt lat="42.28929" lon="2.2006">
        <ele>1801</ele>
        <time>2010-01-01T03:56:45Z</time>
      </trkpt>
      <trkpt lat="42.28932" lon="2.20059">
        <ele>1800</ele>
        <time>2010-01-01T03:56:46Z</time>
      </trkpt>
      <trkpt lat="42.28935" lon="2.20057">
        <ele>1799</ele>
        <time>2010-01-01T03:56:47Z</time>
      </trkpt>
      <trkpt lat="42.28938" lon="2.20056">
        <ele>1797</ele>
        <time>2010-01-01T03:56:48Z</time>
      </trkpt>
      <trkpt lat="42.28941" lon="2.20054">
        <ele>1796</ele>
        <time>2010-01-01T03:56:50Z</time>
      </trkpt>
      <trkpt lat="42.28946" lon="2.2005">
        <ele>1794</ele>
        <time>2010-01-01T03:56:52Z</time>
      </trkpt>
      <trkpt lat="42.28949" lon="2.2005">
        <ele>1793</ele>
        <time>2010-01-01T03:56:53Z</time>
      </trkpt>
      <trkpt lat="42.28952" lon="2.20049">
        <ele>1792</ele>
        <time>2010-01-01T03:56:54Z</time>
      </trkpt>
      <trkpt lat="42.28955" lon="2.20048">
        <ele>1791</ele>
        <time>2010-01-01T03:56:56Z</time>
      </trkpt>
      <trkpt lat="42.28957" lon="2.20046">
        <ele>1790</ele>
        <time>2010-01-01T03:56:57Z</time>
      </trkpt>
      <trkpt lat="42.2896" lon="2.20044">
        <ele>1788</ele>
        <time>2010-01-01T03:56:58Z</time>
      </trkpt>
      <trkpt lat="42.28962" lon="2.20043">
        <ele>1787</ele>
        <time>2010-01-01T03:56:59Z</time>
      </trkpt>
      <trkpt lat="42.28965" lon="2.20041">
        <ele>1786</ele>
        <time>2010-01-01T03:57:00Z</time>
      </trkpt>
      <trkpt lat="42.28969" lon="2.20039">
        <ele>1785</ele>
        <time>2010-01-01T03:57:02Z</time>
      </trkpt>
      <trkpt lat="42.28973" lon="2.20035">
        <ele>1782</ele>
        <time>2010-01-01T03:57:04Z</time>
      </trkpt>
      <trkpt lat="42.28977" lon="2.20032">
        <ele>1780</ele>
        <time>2010-01-01T03:57:06Z</time>
      </trkpt>
      <trkpt lat="42.2898" lon="2.20031">
        <ele>1779</ele>
        <time>2010-01-01T03:57:07Z</time>
      </trkpt>
      <trkpt lat="42.28983" lon="2.2003">
        <ele>1777</ele>
        <time>2010-01-01T03:57:08Z</time>
      </trkpt>
      <trkpt lat="42.28987" lon="2.20028">
        <ele>1775</ele>
        <time>2010-01-01T03:57:10Z</time>
      </trkpt>
      <trkpt lat="42.28991" lon="2.20026">
        <ele>1773</ele>
        <time>2010-01-01T03:57:12Z</time>
      </trkpt>
      <trkpt lat="42.28995" lon="2.20024">
        <ele>1771</ele>
        <time>2010-01-01T03:57:13Z</time>
      </trkpt>
      <trkpt lat="42.28999" lon="2.20022">
        <ele>1769</ele>
        <time>2010-01-01T03:57:15Z</time>
      </trkpt>
      <trkpt lat="42.29002" lon="2.2002">
        <ele>1767</ele>
        <time>2010-01-01T03:57:16Z</time>
      </trkpt>
      <trkpt lat="42.29006" lon="2.20017">
        <ele>1766</ele>
        <time>2010-01-01T03:57:18Z</time>
      </trkpt>
      <trkpt lat="42.29009" lon="2.20014">
        <ele>1765</ele>
        <time>2010-01-01T03:57:20Z</time>
      </trkpt>
      <trkpt lat="42.29012" lon="2.20011">
        <ele>1764</ele>
        <time>2010-01-01T03:57:21Z</time>
      </trkpt>
      <trkpt lat="42.29015" lon="2.20008">
        <ele>1763</ele>
        <time>2010-01-01T03:57:23Z</time>
      </trkpt>
      <trkpt lat="42.29019" lon="2.20006">
        <ele>1762</ele>
        <time>2010-01-01T03:57:24Z</time>
      </trkpt>
      <trkpt lat="42.29023" lon="2.20001">
        <ele>1761</ele>
        <time>2010-01-01T03:57:26Z</time>
      </trkpt>
      <trkpt lat="42.29026" lon="2.19997">
        <ele>1760</ele>
        <time>2010-01-01T03:57:28Z</time>
      </trkpt>
      <trkpt lat="42.2903" lon="2.19994">
        <ele>1758</ele>
        <time>2010-01-01T03:57:30Z</time>
      </trkpt>
      <trkpt lat="42.29034" lon="2.1999">
        <ele>1757</ele>
        <time>2010-01-01T03:57:32Z</time>
      </trkpt>
      <trkpt lat="42.29037" lon="2.19986">
        <ele>1756</ele>
        <time>2010-01-01T03:57:34Z</time>
      </trkpt>
      <trkpt lat="42.2904" lon="2.19983">
        <ele>1755</ele>
        <time>2010-01-01T03:57:35Z</time>
      </trkpt>
      <trkpt lat="42.29043" lon="2.19979">
        <ele>1754</ele>
        <time>2010-01-01T03:57:37Z</time>
      </trkpt>
      <trkpt lat="42.29045" lon="2.19975">
        <ele>1753</ele>
        <time>2010-01-01T03:57:38Z</time>
      </trkpt>
      <trkpt lat="42.29048" lon="2.19972">
        <ele>1752</ele>
        <time>2010-01-01T03:57:40Z</time>
      </trkpt>
      <trkpt lat="42.2905" lon="2.19968">
        <ele>1752</ele>
        <time>2010-01-01T03:57:41Z</time>
      </trkpt>
      <trkpt lat="42.29054" lon="2.19965">
        <ele>1750</ele>
        <time>2010-01-01T03:57:43Z</time>
      </trkpt>
      <trkpt lat="42.29057" lon="2.19962">
        <ele>1749</ele>
        <time>2010-01-01T03:57:45Z</time>
      </trkpt>
      <trkpt lat="42.29061" lon="2.19958">
        <ele>1748</ele>
        <time>2010-01-01T03:57:46Z</time>
      </trkpt>
      <trkpt lat="42.29065" lon="2.19955">
        <ele>1746</ele>
        <time>2010-01-01T03:57:48Z</time>
      </trkpt>
      <trkpt lat="42.29069" lon="2.19952">
        <ele>1745</ele>
        <time>2010-01-01T03:57:50Z</time>
      </trkpt>
      <trkpt lat="42.29073" lon="2.19949">
        <ele>1744</ele>
        <time>2010-01-01T03:57:52Z</time>
      </trkpt>
      <trkpt lat="42.29076" lon="2.19945">
        <ele>1743</ele>
        <time>2010-01-01T03:57:54Z</time>
      </trkpt>
      <trkpt lat="42.29079" lon="2.19942">
        <ele>1742</ele>
        <time>2010-01-01T03:57:55Z</time>
      </trkpt>
      <trkpt lat="42.29083" lon="2.19939">
        <ele>1741</ele>
        <time>2010-01-01T03:57:57Z</time>
      </trkpt>
      <trkpt lat="42.29086" lon="2.19936">
        <ele>1740</ele>
        <time>2010-01-01T03:57:58Z</time>
      </trkpt>
      <trkpt lat="42.2909" lon="2.19932">
        <ele>1739</ele>
        <time>2010-01-01T03:58:00Z</time>
      </trkpt>
      <trkpt lat="42.29093" lon="2.19928">
        <ele>1739</ele>
        <time>2010-01-01T03:58:02Z</time>
      </trkpt>
      <trkpt lat="42.29097" lon="2.19924">
        <ele>1739</ele>
        <time>2010-01-01T03:58:04Z</time>
      </trkpt>
      <trkpt lat="42.29101" lon="2.1992">
        <ele>1738</ele>
        <time>2010-01-01T03:58:06Z</time>
      </trkpt>
      <trkpt lat="42.29104" lon="2.19918">
        <ele>1738</ele>
        <time>2010-01-01T03:58:08Z</time>
      </trkpt>
      <trkpt lat="42.29108" lon="2.19914">
        <ele>1737</ele>
        <time>2010-01-01T03:58:09Z</time>
      </trkpt>
      <trkpt lat="42.29111" lon="2.19911">
        <ele>1737</ele>
        <time>2010-01-01T03:58:11Z</time>
      </trkpt>
      <trkpt lat="42.29115" lon="2.19908">
        <ele>1736</ele>
        <time>2010-01-01T03:58:13Z</time>
      </trkpt>
      <trkpt lat="42.29119" lon="2.19905">
        <ele>1735</ele>
        <time>2010-01-01T03:58:15Z</time>
      </trkpt>
      <trkpt lat="42.29123" lon="2.19902">
        <ele>1734</ele>
        <time>2010-01-01T03:58:16Z</time>
      </trkpt>
      <trkpt lat="42.29126" lon="2.19899">
        <ele>1733</ele>
        <time>2010-01-01T03:58:18Z</time>
      </trkpt>
      <trkpt lat="42.2913" lon="2.19896">
        <ele>1733</ele>
        <time>2010-01-01T03:58:20Z</time>
      </trkpt>
      <trkpt lat="42.29133" lon="2.19893">
        <ele>1733</ele>
        <time>2010-01-01T03:58:21Z</time>
      </trkpt>
      <trkpt lat="42.29137" lon="2.1989">
        <ele>1732</ele>
        <time>2010-01-01T03:58:23Z</time>
      </trkpt>
      <trkpt lat="42.2914" lon="2.19886">
        <ele>1732</ele>
        <time>2010-01-01T03:58:25Z</time>
      </trkpt>
      <trkpt lat="42.29144" lon="2.19882">
        <ele>1731</ele>
        <time>2010-01-01T03:58:27Z</time>
      </trkpt>
      <trkpt lat="42.29148" lon="2.19878">
        <ele>1730</ele>
        <time>2010-01-01T03:58:29Z</time>
      </trkpt>
      <trkpt lat="42.29153" lon="2.19874">
        <ele>1729</ele>
        <time>2010-01-01T03:58:31Z</time>
      </trkpt>
      <trkpt lat="42.29157" lon="2.19871">
        <ele>1728</ele>
        <time>2010-01-01T03:58:33Z</time>
      </trkpt>
      <trkpt lat="42.29161" lon="2.19868">
        <ele>1728</ele>
        <time>2010-01-01T03:58:35Z</time>
      </trkpt>
      <trkpt lat="42.29165" lon="2.19866">
        <ele>1728</ele>
        <time>2010-01-01T03:58:37Z</time>
      </trkpt>
      <trkpt lat="42.2917" lon="2.19863">
        <ele>1728</ele>
        <time>2010-01-01T03:58:39Z</time>
      </trkpt>
      <trkpt lat="42.29174" lon="2.19859">
        <ele>1727</ele>
        <time>2010-01-01T03:58:41Z</time>
      </trkpt>
      <trkpt lat="42.29178" lon="2.19855">
        <ele>1726</ele>
        <time>2010-01-01T03:58:43Z</time>
      </trkpt>
      <trkpt lat="42.29182" lon="2.19852">
        <ele>1725</ele>
        <time>2010-01-01T03:58:44Z</time>
      </trkpt>
      <trkpt lat="42.29186" lon="2.19849">
        <ele>1724</ele>
        <time>2010-01-01T03:58:46Z</time>
      </trkpt>
      <trkpt lat="42.2919" lon="2.19847">
        <ele>1723</ele>
        <time>2010-01-01T03:58:48Z</time>
      </trkpt>
      <trkpt lat="42.29192" lon="2.19844">
        <ele>1722</ele>
        <time>2010-01-01T03:58:49Z</time>
      </trkpt>
      <trkpt lat="42.29195" lon="2.19841">
        <ele>1721</ele>
        <time>2010-01-01T03:58:51Z</time>
      </trkpt>
      <trkpt lat="42.29199" lon="2.19839">
        <ele>1719</ele>
        <time>2010-01-01T03:58:52Z</time>
      </trkpt>
      <trkpt lat="42.29201" lon="2.19836">
        <ele>1717</ele>
        <time>2010-01-01T03:58:53Z</time>
      </trkpt>
      <trkpt lat="42.29204" lon="2.19835">
        <ele>1716</ele>
        <time>2010-01-01T03:58:55Z</time>
      </trkpt>
      <trkpt lat="42.29208" lon="2.19833">
        <ele>1714</ele>
        <time>2010-01-01T03:58:56Z</time>
      </trkpt>
      <trkpt lat="42.29211" lon="2.19832">
        <ele>1712</ele>
        <time>2010-01-01T03:58:58Z</time>
      </trkpt>
      <trkpt lat="42.29215" lon="2.19832">
        <ele>1710</ele>
        <time>2010-01-01T03:58:59Z</time>
      </trkpt>
      <trkpt lat="42.29219" lon="2.19831">
        <ele>1708</ele>
        <time>2010-01-01T03:59:01Z</time>
      </trkpt>
      <trkpt lat="42.29221" lon="2.19831">
        <ele>1706</ele>
        <time>2010-01-01T03:59:02Z</time>
      </trkpt>
      <trkpt lat="42.29224" lon="2.19831">
        <ele>1705</ele>
        <time>2010-01-01T03:59:03Z</time>
      </trkpt>
      <trkpt lat="42.29228" lon="2.19833">
        <ele>1703</ele>
        <time>2010-01-01T03:59:04Z</time>
      </trkpt>
      <trkpt lat="42.2923" lon="2.19833">
        <ele>1702</ele>
        <time>2010-01-01T03:59:05Z</time>
      </trkpt>
      <trkpt lat="42.29233" lon="2.1983">
        <ele>1700</ele>
        <time>2010-01-01T03:59:06Z</time>
      </trkpt>
      <trkpt lat="42.29235" lon="2.19829">
        <ele>1698</ele>
        <time>2010-01-01T03:59:08Z</time>
      </trkpt>
      <trkpt lat="42.29237" lon="2.19827">
        <ele>1696</ele>
        <time>2010-01-01T03:59:09Z</time>
      </trkpt>
      <trkpt lat="42.2924" lon="2.19824">
        <ele>1694</ele>
        <time>2010-01-01T03:59:10Z</time>
      </trkpt>
      <trkpt lat="42.29243" lon="2.19821">
        <ele>1691</ele>
        <time>2010-01-01T03:59:12Z</time>
      </trkpt>
      <trkpt lat="42.29246" lon="2.19818">
        <ele>1689</ele>
        <time>2010-01-01T03:59:13Z</time>
      </trkpt>
      <trkpt lat="42.29249" lon="2.19814">
        <ele>1687</ele>
        <time>2010-01-01T03:59:15Z</time>
      </trkpt>
      <trkpt lat="42.29252" lon="2.1981">
        <ele>1686</ele>
        <time>2010-01-01T03:59:16Z</time>
      </trkpt>
      <trkpt lat="42.29255" lon="2.19807">
        <ele>1684</ele>
        <time>2010-01-01T03:59:18Z</time>
      </trkpt>
      <trkpt lat="42.29258" lon="2.19803">
        <ele>1683</ele>
        <time>2010-01-01T03:59:20Z</time>
      </trkpt>
      <trkpt lat="42.29261" lon="2.19799">
        <ele>1682</ele>
        <time>2010-01-01T03:59:21Z</time>
      </trkpt>
      <trkpt lat="42.29265" lon="2.19796">
        <ele>1680</ele>
        <time>2010-01-01T03:59:23Z</time>
      </trkpt>
      <trkpt lat="42.29269" lon="2.19793">
        <ele>1679</ele>
        <time>2010-01-01T03:59:25Z</time>
      </trkpt>
      <trkpt lat="42.29273" lon="2.19791">
        <ele>1678</ele>
        <time>2010-01-01T03:59:27Z</time>
      </trkpt>
      <trkpt lat="42.29276" lon="2.19788">
        <ele>1677</ele>
        <time>2010-01-01T03:59:28Z</time>
      </trkpt>
      <trkpt lat="42.2928" lon="2.19786">
        <ele>1676</ele>
        <time>2010-01-01T03:59:30Z</time>
      </trkpt>
      <trkpt lat="42.29285" lon="2.19784">
        <ele>1676</ele>
        <time>2010-01-01T03:59:32Z</time>
      </trkpt>
      <trkpt lat="42.29289" lon="2.19782">
        <ele>1675</ele>
        <time>2010-01-01T03:59:34Z</time>
      </trkpt>
      <trkpt lat="42.29295" lon="2.19781">
        <ele>1675</ele>
        <time>2010-01-01T03:59:36Z</time>
      </trkpt>
      <trkpt lat="42.29299" lon="2.19779">
        <ele>1674</ele>
        <time>2010-01-01T03:59:38Z</time>
      </trkpt>
      <trkpt lat="42.29304" lon="2.19776">
        <ele>1673</ele>
        <time>2010-01-01T03:59:40Z</time>
      </trkpt>
      <trkpt lat="42.29309" lon="2.19772">
        <ele>1672</ele>
        <time>2010-01-01T03:59:42Z</time>
      </trkpt>
      <trkpt lat="42.29313" lon="2.19768">
        <ele>1670</ele>
        <time>2010-01-01T03:59:44Z</time>
      </trkpt>
      <trkpt lat="42.29317" lon="2.19766">
        <ele>1669</ele>
        <time>2010-01-01T03:59:46Z</time>
      </trkpt>
      <trkpt lat="42.29321" lon="2.19763">
        <ele>1667</ele>
        <time>2010-01-01T03:59:48Z</time>
      </trkpt>
      <trkpt lat="42.29325" lon="2.1976">
        <ele>1666</ele>
        <time>2010-01-01T03:59:50Z</time>
      </trkpt>
      <trkpt lat="42.29328" lon="2.19757">
        <ele>1665</ele>
        <time>2010-01-01T03:59:51Z</time>
      </trkpt>
      <trkpt lat="42.29332" lon="2.19755">
        <ele>1663</ele>
        <time>2010-01-01T03:59:53Z</time>
      </trkpt>
      <trkpt lat="42.29337" lon="2.19753">
        <ele>1662</ele>
        <time>2010-01-01T03:59:55Z</time>
      </trkpt>
      <trkpt lat="42.29341" lon="2.19751">
        <ele>1660</ele>
        <time>2010-01-01T03:59:56Z</time>
      </trkpt>
      <trkpt lat="42.29345" lon="2.19749">
        <ele>1659</ele>
        <time>2010-01-01T03:59:58Z</time>
      </trkpt>
      <trkpt lat="42.29349" lon="2.19747">
        <ele>1658</ele>
        <time>2010-01-01T04:00:00Z</time>
      </trkpt>
      <trkpt lat="42.29353" lon="2.19745">
        <ele>1656</ele>
        <time>2010-01-01T04:00:02Z</time>
      </trkpt>
      <trkpt lat="42.29357" lon="2.19743">
        <ele>1655</ele>
        <time>2010-01-01T04:00:03Z</time>
      </trkpt>
      <trkpt lat="42.29361" lon="2.19741">
        <ele>1653</ele>
        <time>2010-01-01T04:00:05Z</time>
      </trkpt>
      <trkpt lat="42.29365" lon="2.19739">
        <ele>1653</ele>
        <time>2010-01-01T04:00:07Z</time>
      </trkpt>
      <trkpt lat="42.2937" lon="2.19737">
        <ele>1652</ele>
        <time>2010-01-01T04:00:09Z</time>
      </trkpt>
      <trkpt lat="42.29374" lon="2.19737">
        <ele>1651</ele>
        <time>2010-01-01T04:00:10Z</time>
      </trkpt>
      <trkpt lat="42.29378" lon="2.19736">
        <ele>1650</ele>
        <time>2010-01-01T04:00:12Z</time>
      </trkpt>
      <trkpt lat="42.29384" lon="2.19736">
        <ele>1649</ele>
        <time>2010-01-01T04:00:14Z</time>
      </trkpt>
      <trkpt lat="42.29388" lon="2.19737">
        <ele>1648</ele>
        <time>2010-01-01T04:00:16Z</time>
      </trkpt>
      <trkpt lat="42.29393" lon="2.19737">
        <ele>1647</ele>
        <time>2010-01-01T04:00:18Z</time>
      </trkpt>
      <trkpt lat="42.29398" lon="2.19736">
        <ele>1646</ele>
        <time>2010-01-01T04:00:20Z</time>
      </trkpt>
      <trkpt lat="42.29402" lon="2.19735">
        <ele>1645</ele>
        <time>2010-01-01T04:00:22Z</time>
      </trkpt>
      <trkpt lat="42.29408" lon="2.19732">
        <ele>1644</ele>
        <time>2010-01-01T04:00:24Z</time>
      </trkpt>
      <trkpt lat="42.29411" lon="2.19731">
        <ele>1644</ele>
        <time>2010-01-01T04:00:26Z</time>
      </trkpt>
      <trkpt lat="42.29415" lon="2.1973">
        <ele>1643</ele>
        <time>2010-01-01T04:00:27Z</time>
      </trkpt>
      <trkpt lat="42.29419" lon="2.19729">
        <ele>1642</ele>
        <time>2010-01-01T04:00:29Z</time>
      </trkpt>
      <trkpt lat="42.29424" lon="2.19728">
        <ele>1640</ele>
        <time>2010-01-01T04:00:31Z</time>
      </trkpt>
      <trkpt lat="42.29429" lon="2.19726">
        <ele>1638</ele>
        <time>2010-01-01T04:00:33Z</time>
      </trkpt>
      <trkpt lat="42.29433" lon="2.19725">
        <ele>1637</ele>
        <time>2010-01-01T04:00:34Z</time>
      </trkpt>
      <trkpt lat="42.29437" lon="2.19724">
        <ele>1635</ele>
        <time>2010-01-01T04:00:36Z</time>
      </trkpt>
      <trkpt lat="42.29441" lon="2.19725">
        <ele>1634</ele>
        <time>2010-01-01T04:00:38Z</time>
      </trkpt>
      <trkpt lat="42.29444" lon="2.19725">
        <ele>1633</ele>
        <time>2010-01-01T04:00:39Z</time>
      </trkpt>
      <trkpt lat="42.29447" lon="2.19725">
        <ele>1631</ele>
        <time>2010-01-01T04:00:40Z</time>
      </trkpt>
      <trkpt lat="42.29449" lon="2.19726">
        <ele>1631</ele>
        <time>2010-01-01T04:00:41Z</time>
      </trkpt>
      <trkpt lat="42.29451" lon="2.19725">
        <ele>1630</ele>
        <time>2010-01-01T04:00:42Z</time>
      </trkpt>
      <trkpt lat="42.29453" lon="2.19722">
        <ele>1629</ele>
        <time>2010-01-01T04:00:43Z</time>
      </trkpt>
      <trkpt lat="42.29455" lon="2.1972">
        <ele>1628</ele>
        <time>2010-01-01T04:00:44Z</time>
      </trkpt>
      <trkpt lat="42.29457" lon="2.19718">
        <ele>1627</ele>
        <time>2010-01-01T04:00:45Z</time>
      </trkpt>
      <trkpt lat="42.2946" lon="2.19717">
        <ele>1626</ele>
        <time>2010-01-01T04:00:46Z</time>
      </trkpt>
      <trkpt lat="42.29463" lon="2.19716">
        <ele>1625</ele>
        <time>2010-01-01T04:00:47Z</time>
      </trkpt>
      <trkpt lat="42.29465" lon="2.19714">
        <ele>1624</ele>
        <time>2010-01-01T04:00:48Z</time>
      </trkpt>
      <trkpt lat="42.29467" lon="2.19712">
        <ele>1623</ele>
        <time>2010-01-01T04:00:49Z</time>
      </trkpt>
      <trkpt lat="42.29468" lon="2.19711">
        <ele>1622</ele>
        <time>2010-01-01T04:00:50Z</time>
      </trkpt>
      <trkpt lat="42.29472" lon="2.19708">
        <ele>1621</ele>
        <time>2010-01-01T04:00:52Z</time>
      </trkpt>
      <trkpt lat="42.29476" lon="2.19705">
        <ele>1618</ele>
        <time>2010-01-01T04:00:54Z</time>
      </trkpt>
      <trkpt lat="42.29478" lon="2.19703">
        <ele>1617</ele>
        <time>2010-01-01T04:00:54Z</time>
      </trkpt>
      <trkpt lat="42.29479" lon="2.19701">
        <ele>1616</ele>
        <time>2010-01-01T04:00:55Z</time>
      </trkpt>
      <trkpt lat="42.29481" lon="2.19698">
        <ele>1616</ele>
        <time>2010-01-01T04:00:56Z</time>
      </trkpt>
      <trkpt lat="42.29482" lon="2.19694">
        <ele>1615</ele>
        <time>2010-01-01T04:00:58Z</time>
      </trkpt>
      <trkpt lat="42.29483" lon="2.19689">
        <ele>1614</ele>
        <time>2010-01-01T04:00:59Z</time>
      </trkpt>
      <trkpt lat="42.29485" lon="2.19686">
        <ele>1613</ele>
        <time>2010-01-01T04:01:00Z</time>
      </trkpt>
      <trkpt lat="42.29487" lon="2.19683">
        <ele>1612</ele>
        <time>2010-01-01T04:01:02Z</time>
      </trkpt>
      <trkpt lat="42.29489" lon="2.1968">
        <ele>1611</ele>
        <time>2010-01-01T04:01:03Z</time>
      </trkpt>
      <trkpt lat="42.29491" lon="2.19674">
        <ele>1609</ele>
        <time>2010-01-01T04:01:05Z</time>
      </trkpt>
      <trkpt lat="42.29492" lon="2.19669">
        <ele>1608</ele>
        <time>2010-01-01T04:01:06Z</time>
      </trkpt>
      <trkpt lat="42.29493" lon="2.19663">
        <ele>1607</ele>
        <time>2010-01-01T04:01:08Z</time>
      </trkpt>
      <trkpt lat="42.29493" lon="2.19659">
        <ele>1607</ele>
        <time>2010-01-01T04:01:09Z</time>
      </trkpt>
      <trkpt lat="42.29493" lon="2.19656">
        <ele>1606</ele>
        <time>2010-01-01T04:01:10Z</time>
      </trkpt>
      <trkpt lat="42.29495" lon="2.1965">
        <ele>1605</ele>
        <time>2010-01-01T04:01:12Z</time>
      </trkpt>
      <trkpt lat="42.29496" lon="2.19645">
        <ele>1604</ele>
        <time>2010-01-01T04:01:14Z</time>
      </trkpt>
      <trkpt lat="42.29496" lon="2.19638">
        <ele>1603</ele>
        <time>2010-01-01T04:01:16Z</time>
      </trkpt>
      <trkpt lat="42.29496" lon="2.19633">
        <ele>1602</ele>
        <time>2010-01-01T04:01:17Z</time>
      </trkpt>
      <trkpt lat="42.29495" lon="2.19627">
        <ele>1601</ele>
        <time>2010-01-01T04:01:19Z</time>
      </trkpt>
      <trkpt lat="42.29494" lon="2.19621">
        <ele>1601</ele>
        <time>2010-01-01T04:01:21Z</time>
      </trkpt>
      <trkpt lat="42.29493" lon="2.19616">
        <ele>1600</ele>
        <time>2010-01-01T04:01:22Z</time>
      </trkpt>
      <trkpt lat="42.29491" lon="2.1961">
        <ele>1600</ele>
        <time>2010-01-01T04:01:24Z</time>
      </trkpt>
      <trkpt lat="42.29488" lon="2.19604">
        <ele>1599</ele>
        <time>2010-01-01T04:01:27Z</time>
      </trkpt>
      <trkpt lat="42.29485" lon="2.19598">
        <ele>1599</ele>
        <time>2010-01-01T04:01:29Z</time>
      </trkpt>
      <trkpt lat="42.29483" lon="2.19591">
        <ele>1598</ele>
        <time>2010-01-01T04:01:31Z</time>
      </trkpt>
      <trkpt lat="42.29482" lon="2.19586">
        <ele>1596</ele>
        <time>2010-01-01T04:01:32Z</time>
      </trkpt>
      <trkpt lat="42.29481" lon="2.1958">
        <ele>1595</ele>
        <time>2010-01-01T04:01:34Z</time>
      </trkpt>
      <trkpt lat="42.29481" lon="2.19575">
        <ele>1594</ele>
        <time>2010-01-01T04:01:36Z</time>
      </trkpt>
      <trkpt lat="42.2948" lon="2.1957">
        <ele>1593</ele>
        <time>2010-01-01T04:01:37Z</time>
      </trkpt>
      <trkpt lat="42.29479" lon="2.19565">
        <ele>1592</ele>
        <time>2010-01-01T04:01:39Z</time>
      </trkpt>
      <trkpt lat="42.29479" lon="2.19559">
        <ele>1590</ele>
        <time>2010-01-01T04:01:40Z</time>
      </trkpt>
      <trkpt lat="42.29479" lon="2.19554">
        <ele>1589</ele>
        <time>2010-01-01T04:01:42Z</time>
      </trkpt>
      <trkpt lat="42.2948" lon="2.19547">
        <ele>1586</ele>
        <time>2010-01-01T04:01:44Z</time>
      </trkpt>
      <trkpt lat="42.29482" lon="2.19542">
        <ele>1584</ele>
        <time>2010-01-01T04:01:46Z</time>
      </trkpt>
      <trkpt lat="42.29482" lon="2.19538">
        <ele>1583</ele>
        <time>2010-01-01T04:01:47Z</time>
      </trkpt>
      <trkpt lat="42.29482" lon="2.1953">
        <ele>1580</ele>
        <time>2010-01-01T04:01:49Z</time>
      </trkpt>
      <trkpt lat="42.29481" lon="2.19525">
        <ele>1579</ele>
        <time>2010-01-01T04:01:51Z</time>
      </trkpt>
      <trkpt lat="42.2948" lon="2.19522">
        <ele>1579</ele>
        <time>2010-01-01T04:01:52Z</time>
      </trkpt>
      <trkpt lat="42.29482" lon="2.19517">
        <ele>1577</ele>
        <time>2010-01-01T04:01:54Z</time>
      </trkpt>
      <trkpt lat="42.29484" lon="2.19513">
        <ele>1576</ele>
        <time>2010-01-01T04:01:55Z</time>
      </trkpt>
      <trkpt lat="42.29484" lon="2.19508">
        <ele>1574</ele>
        <time>2010-01-01T04:01:56Z</time>
      </trkpt>
      <trkpt lat="42.29483" lon="2.19503">
        <ele>1573</ele>
        <time>2010-01-01T04:01:58Z</time>
      </trkpt>
      <trkpt lat="42.29482" lon="2.19498">
        <ele>1572</ele>
        <time>2010-01-01T04:01:59Z</time>
      </trkpt>
      <trkpt lat="42.29482" lon="2.19492">
        <ele>1570</ele>
        <time>2010-01-01T04:02:01Z</time>
      </trkpt>
      <trkpt lat="42.29482" lon="2.19485">
        <ele>1568</ele>
        <time>2010-01-01T04:02:03Z</time>
      </trkpt>
      <trkpt lat="42.29483" lon="2.19479">
        <ele>1566</ele>
        <time>2010-01-01T04:02:05Z</time>
      </trkpt>
      <trkpt lat="42.29485" lon="2.19475">
        <ele>1565</ele>
        <time>2010-01-01T04:02:06Z</time>
      </trkpt>
      <trkpt lat="42.29485" lon="2.19472">
        <ele>1564</ele>
        <time>2010-01-01T04:02:07Z</time>
      </trkpt>
      <trkpt lat="42.29484" lon="2.19468">
        <ele>1563</ele>
        <time>2010-01-01T04:02:09Z</time>
      </trkpt>
      <trkpt lat="42.29484" lon="2.19464">
        <ele>1562</ele>
        <time>2010-01-01T04:02:10Z</time>
      </trkpt>
      <trkpt lat="42.29484" lon="2.1946">
        <ele>1560</ele>
        <time>2010-01-01T04:02:11Z</time>
      </trkpt>
      <trkpt lat="42.29484" lon="2.19456">
        <ele>1559</ele>
        <time>2010-01-01T04:02:12Z</time>
      </trkpt>
      <trkpt lat="42.29484" lon="2.19453">
        <ele>1558</ele>
        <time>2010-01-01T04:02:13Z</time>
      </trkpt>
      <trkpt lat="42.29485" lon="2.19449">
        <ele>1557</ele>
        <time>2010-01-01T04:02:14Z</time>
      </trkpt>
      <trkpt lat="42.29486" lon="2.19446">
        <ele>1556</ele>
        <time>2010-01-01T04:02:15Z</time>
      </trkpt>
      <trkpt lat="42.29487" lon="2.19442">
        <ele>1555</ele>
        <time>2010-01-01T04:02:16Z</time>
      </trkpt>
      <trkpt lat="42.29488" lon="2.19439">
        <ele>1553</ele>
        <time>2010-01-01T04:02:18Z</time>
      </trkpt>
      <trkpt lat="42.29489" lon="2.19436">
        <ele>1552</ele>
        <time>2010-01-01T04:02:19Z</time>
      </trkpt>
      <trkpt lat="42.2949" lon="2.19432">
        <ele>1551</ele>
        <time>2010-01-01T04:02:20Z</time>
      </trkpt>
      <trkpt lat="42.29491" lon="2.1943">
        <ele>1550</ele>
        <time>2010-01-01T04:02:21Z</time>
      </trkpt>
      <trkpt lat="42.29493" lon="2.19427">
        <ele>1549</ele>
        <time>2010-01-01T04:02:22Z</time>
      </trkpt>
      <trkpt lat="42.29494" lon="2.19423">
        <ele>1548</ele>
        <time>2010-01-01T04:02:23Z</time>
      </trkpt>
      <trkpt lat="42.29496" lon="2.19419">
        <ele>1546</ele>
        <time>2010-01-01T04:02:24Z</time>
      </trkpt>
      <trkpt lat="42.29499" lon="2.19413">
        <ele>1545</ele>
        <time>2010-01-01T04:02:27Z</time>
      </trkpt>
      <trkpt lat="42.29501" lon="2.19407">
        <ele>1543</ele>
        <time>2010-01-01T04:02:28Z</time>
      </trkpt>
      <trkpt lat="42.29503" lon="2.19402">
        <ele>1542</ele>
        <time>2010-01-01T04:02:30Z</time>
      </trkpt>
      <trkpt lat="42.29505" lon="2.19396">
        <ele>1541</ele>
        <time>2010-01-01T04:02:32Z</time>
      </trkpt>
      <trkpt lat="42.29506" lon="2.1939">
        <ele>1539</ele>
        <time>2010-01-01T04:02:34Z</time>
      </trkpt>
      <trkpt lat="42.29508" lon="2.19383">
        <ele>1538</ele>
        <time>2010-01-01T04:02:36Z</time>
      </trkpt>
      <trkpt lat="42.29508" lon="2.19377">
        <ele>1536</ele>
        <time>2010-01-01T04:02:38Z</time>
      </trkpt>
      <trkpt lat="42.29509" lon="2.1937">
        <ele>1535</ele>
        <time>2010-01-01T04:02:40Z</time>
      </trkpt>
      <trkpt lat="42.29511" lon="2.19363">
        <ele>1534</ele>
        <time>2010-01-01T04:02:42Z</time>
      </trkpt>
      <trkpt lat="42.29512" lon="2.19356">
        <ele>1533</ele>
        <time>2010-01-01T04:02:44Z</time>
      </trkpt>
      <trkpt lat="42.29513" lon="2.1935">
        <ele>1531</ele>
        <time>2010-01-01T04:02:46Z</time>
      </trkpt>
      <trkpt lat="42.29513" lon="2.19344">
        <ele>1530</ele>
        <time>2010-01-01T04:02:48Z</time>
      </trkpt>
      <trkpt lat="42.29512" lon="2.19337">
        <ele>1529</ele>
        <time>2010-01-01T04:02:50Z</time>
      </trkpt>
      <trkpt lat="42.29515" lon="2.19331">
        <ele>1528</ele>
        <time>2010-01-01T04:02:52Z</time>
      </trkpt>
      <trkpt lat="42.29516" lon="2.19327">
        <ele>1528</ele>
        <time>2010-01-01T04:02:53Z</time>
      </trkpt>
      <trkpt lat="42.29517" lon="2.19324">
        <ele>1527</ele>
        <time>2010-01-01T04:02:54Z</time>
      </trkpt>
      <trkpt lat="42.29518" lon="2.19321">
        <ele>1527</ele>
        <time>2010-01-01T04:02:55Z</time>
      </trkpt>
      <trkpt lat="42.29517" lon="2.19318">
        <ele>1526</ele>
        <time>2010-01-01T04:02:56Z</time>
      </trkpt>
      <trkpt lat="42.29517" lon="2.19314">
        <ele>1526</ele>
        <time>2010-01-01T04:02:57Z</time>
      </trkpt>
      <trkpt lat="42.29519" lon="2.19311">
        <ele>1525</ele>
        <time>2010-01-01T04:02:58Z</time>
      </trkpt>
      <trkpt lat="42.29521" lon="2.19309">
        <ele>1525</ele>
        <time>2010-01-01T04:02:59Z</time>
      </trkpt>
      <trkpt lat="42.29522" lon="2.19306">
        <ele>1525</ele>
        <time>2010-01-01T04:03:00Z</time>
      </trkpt>
      <trkpt lat="42.29521" lon="2.19301">
        <ele>1524</ele>
        <time>2010-01-01T04:03:02Z</time>
      </trkpt>
      <trkpt lat="42.2952" lon="2.19296">
        <ele>1523</ele>
        <time>2010-01-01T04:03:03Z</time>
      </trkpt>
      <trkpt lat="42.29519" lon="2.19291">
        <ele>1523</ele>
        <time>2010-01-01T04:03:05Z</time>
      </trkpt>
      <trkpt lat="42.29518" lon="2.19285">
        <ele>1522</ele>
        <time>2010-01-01T04:03:07Z</time>
      </trkpt>
      <trkpt lat="42.29518" lon="2.19279">
        <ele>1521</ele>
        <time>2010-01-01T04:03:08Z</time>
      </trkpt>
      <trkpt lat="42.2952" lon="2.19273">
        <ele>1520</ele>
        <time>2010-01-01T04:03:10Z</time>
      </trkpt>
      <trkpt lat="42.29521" lon="2.1927">
        <ele>1520</ele>
        <time>2010-01-01T04:03:11Z</time>
      </trkpt>
      <trkpt lat="42.29522" lon="2.19267">
        <ele>1520</ele>
        <time>2010-01-01T04:03:12Z</time>
      </trkpt>
      <trkpt lat="42.29523" lon="2.19263">
        <ele>1520</ele>
        <time>2010-01-01T04:03:14Z</time>
      </trkpt>
      <trkpt lat="42.29523" lon="2.1926">
        <ele>1519</ele>
        <time>2010-01-01T04:03:15Z</time>
      </trkpt>
      <trkpt lat="42.29523" lon="2.19256">
        <ele>1519</ele>
        <time>2010-01-01T04:03:16Z</time>
      </trkpt>
      <trkpt lat="42.29524" lon="2.19252">
        <ele>1518</ele>
        <time>2010-01-01T04:03:17Z</time>
      </trkpt>
      <trkpt lat="42.29525" lon="2.19248">
        <ele>1518</ele>
        <time>2010-01-01T04:03:18Z</time>
      </trkpt>
      <trkpt lat="42.29525" lon="2.19245">
        <ele>1517</ele>
        <time>2010-01-01T04:03:19Z</time>
      </trkpt>
      <trkpt lat="42.29528" lon="2.19239">
        <ele>1516</ele>
        <time>2010-01-01T04:03:21Z</time>
      </trkpt>
      <trkpt lat="42.2953" lon="2.19235">
        <ele>1515</ele>
        <time>2010-01-01T04:03:23Z</time>
      </trkpt>
      <trkpt lat="42.29531" lon="2.19232">
        <ele>1514</ele>
        <time>2010-01-01T04:03:24Z</time>
      </trkpt>
      <trkpt lat="42.29532" lon="2.19229">
        <ele>1513</ele>
        <time>2010-01-01T04:03:25Z</time>
      </trkpt>
      <trkpt lat="42.29534" lon="2.19225">
        <ele>1512</ele>
        <time>2010-01-01T04:03:26Z</time>
      </trkpt>
      <trkpt lat="42.29534" lon="2.19218">
        <ele>1510</ele>
        <time>2010-01-01T04:03:28Z</time>
      </trkpt>
      <trkpt lat="42.29535" lon="2.19213">
        <ele>1509</ele>
        <time>2010-01-01T04:03:30Z</time>
      </trkpt>
      <trkpt lat="42.29535" lon="2.19209">
        <ele>1508</ele>
        <time>2010-01-01T04:03:31Z</time>
      </trkpt>
      <trkpt lat="42.29536" lon="2.19204">
        <ele>1507</ele>
        <time>2010-01-01T04:03:32Z</time>
      </trkpt>
      <trkpt lat="42.29537" lon="2.192">
        <ele>1507</ele>
        <time>2010-01-01T04:03:33Z</time>
      </trkpt>
      <trkpt lat="42.29538" lon="2.19195">
        <ele>1506</ele>
        <time>2010-01-01T04:03:35Z</time>
      </trkpt>
      <trkpt lat="42.29539" lon="2.1919">
        <ele>1504</ele>
        <time>2010-01-01T04:03:37Z</time>
      </trkpt>
      <trkpt lat="42.29542" lon="2.19185">
        <ele>1503</ele>
        <time>2010-01-01T04:03:38Z</time>
      </trkpt>
      <trkpt lat="42.29544" lon="2.19179">
        <ele>1501</ele>
        <time>2010-01-01T04:03:40Z</time>
      </trkpt>
      <trkpt lat="42.29546" lon="2.19173">
        <ele>1500</ele>
        <time>2010-01-01T04:03:42Z</time>
      </trkpt>
      <trkpt lat="42.29549" lon="2.19168">
        <ele>1499</ele>
        <time>2010-01-01T04:03:44Z</time>
      </trkpt>
      <trkpt lat="42.29552" lon="2.19163">
        <ele>1498</ele>
        <time>2010-01-01T04:03:46Z</time>
      </trkpt>
      <trkpt lat="42.29555" lon="2.19159">
        <ele>1498</ele>
        <time>2010-01-01T04:03:48Z</time>
      </trkpt>
      <trkpt lat="42.29557" lon="2.19156">
        <ele>1497</ele>
        <time>2010-01-01T04:03:49Z</time>
      </trkpt>
      <trkpt lat="42.2956" lon="2.19152">
        <ele>1495</ele>
        <time>2010-01-01T04:03:51Z</time>
      </trkpt>
      <trkpt lat="42.29562" lon="2.19147">
        <ele>1494</ele>
        <time>2010-01-01T04:03:52Z</time>
      </trkpt>
      <trkpt lat="42.29565" lon="2.19143">
        <ele>1493</ele>
        <time>2010-01-01T04:03:54Z</time>
      </trkpt>
      <trkpt lat="42.29568" lon="2.19139">
        <ele>1491</ele>
        <time>2010-01-01T04:03:56Z</time>
      </trkpt>
      <trkpt lat="42.29571" lon="2.19136">
        <ele>1490</ele>
        <time>2010-01-01T04:03:57Z</time>
      </trkpt>
      <trkpt lat="42.29574" lon="2.19132">
        <ele>1489</ele>
        <time>2010-01-01T04:03:59Z</time>
      </trkpt>
      <trkpt lat="42.29577" lon="2.19127">
        <ele>1488</ele>
        <time>2010-01-01T04:04:01Z</time>
      </trkpt>
      <trkpt lat="42.2958" lon="2.19122">
        <ele>1486</ele>
        <time>2010-01-01T04:04:03Z</time>
      </trkpt>
      <trkpt lat="42.29583" lon="2.19117">
        <ele>1485</ele>
        <time>2010-01-01T04:04:05Z</time>
      </trkpt>
      <trkpt lat="42.29586" lon="2.19111">
        <ele>1483</ele>
        <time>2010-01-01T04:04:07Z</time>
      </trkpt>
      <trkpt lat="42.29589" lon="2.19106">
        <ele>1482</ele>
        <time>2010-01-01T04:04:09Z</time>
      </trkpt>
      <trkpt lat="42.29591" lon="2.19101">
        <ele>1481</ele>
        <time>2010-01-01T04:04:10Z</time>
      </trkpt>
      <trkpt lat="42.29594" lon="2.19096">
        <ele>1480</ele>
        <time>2010-01-01T04:04:12Z</time>
      </trkpt>
      <trkpt lat="42.29597" lon="2.1909">
        <ele>1479</ele>
        <time>2010-01-01T04:04:14Z</time>
      </trkpt>
      <trkpt lat="42.296" lon="2.19085">
        <ele>1477</ele>
        <time>2010-01-01T04:04:16Z</time>
      </trkpt>
      <trkpt lat="42.29603" lon="2.19079">
        <ele>1476</ele>
        <time>2010-01-01T04:04:18Z</time>
      </trkpt>
      <trkpt lat="42.29606" lon="2.19074">
        <ele>1475</ele>
        <time>2010-01-01T04:04:20Z</time>
      </trkpt>
      <trkpt lat="42.29609" lon="2.19068">
        <ele>1474</ele>
        <time>2010-01-01T04:04:23Z</time>
      </trkpt>
      <trkpt lat="42.29612" lon="2.19062">
        <ele>1472</ele>
        <time>2010-01-01T04:04:25Z</time>
      </trkpt>
      <trkpt lat="42.29615" lon="2.19056">
        <ele>1471</ele>
        <time>2010-01-01T04:04:27Z</time>
      </trkpt>
      <trkpt lat="42.29619" lon="2.1905">
        <ele>1470</ele>
        <time>2010-01-01T04:04:29Z</time>
      </trkpt>
      <trkpt lat="42.29622" lon="2.19044">
        <ele>1468</ele>
        <time>2010-01-01T04:04:31Z</time>
      </trkpt>
      <trkpt lat="42.29625" lon="2.19038">
        <ele>1467</ele>
        <time>2010-01-01T04:04:34Z</time>
      </trkpt>
      <trkpt lat="42.29629" lon="2.19032">
        <ele>1465</ele>
        <time>2010-01-01T04:04:36Z</time>
      </trkpt>
      <trkpt lat="42.29632" lon="2.19027">
        <ele>1463</ele>
        <time>2010-01-01T04:04:38Z</time>
      </trkpt>
      <trkpt lat="42.29636" lon="2.19022">
        <ele>1461</ele>
        <time>2010-01-01T04:04:40Z</time>
      </trkpt>
      <trkpt lat="42.29639" lon="2.19017">
        <ele>1459</ele>
        <time>2010-01-01T04:04:42Z</time>
      </trkpt>
      <trkpt lat="42.29643" lon="2.19012">
        <ele>1457</ele>
        <time>2010-01-01T04:04:44Z</time>
      </trkpt>
      <trkpt lat="42.29647" lon="2.19007">
        <ele>1456</ele>
        <time>2010-01-01T04:04:46Z</time>
      </trkpt>
      <trkpt lat="42.29651" lon="2.19003">
        <ele>1455</ele>
        <time>2010-01-01T04:04:48Z</time>
      </trkpt>
      <trkpt lat="42.29655" lon="2.18999">
        <ele>1454</ele>
        <time>2010-01-01T04:04:50Z</time>
      </trkpt>
      <trkpt lat="42.2966" lon="2.18995">
        <ele>1453</ele>
        <time>2010-01-01T04:04:52Z</time>
      </trkpt>
      <trkpt lat="42.29664" lon="2.1899">
        <ele>1452</ele>
        <time>2010-01-01T04:04:55Z</time>
      </trkpt>
      <trkpt lat="42.29669" lon="2.18986">
        <ele>1451</ele>
        <time>2010-01-01T04:04:57Z</time>
      </trkpt>
      <trkpt lat="42.29673" lon="2.18982">
        <ele>1449</ele>
        <time>2010-01-01T04:04:59Z</time>
      </trkpt>
      <trkpt lat="42.29679" lon="2.18977">
        <ele>1448</ele>
        <time>2010-01-01T04:05:02Z</time>
      </trkpt>
      <trkpt lat="42.29684" lon="2.18972">
        <ele>1446</ele>
        <time>2010-01-01T04:05:04Z</time>
      </trkpt>
      <trkpt lat="42.29688" lon="2.18966">
        <ele>1445</ele>
        <time>2010-01-01T04:05:07Z</time>
      </trkpt>
      <trkpt lat="42.29693" lon="2.1896">
        <ele>1444</ele>
        <time>2010-01-01T04:05:09Z</time>
      </trkpt>
      <trkpt lat="42.29697" lon="2.18954">
        <ele>1443</ele>
        <time>2010-01-01T04:05:12Z</time>
      </trkpt>
      <trkpt lat="42.297" lon="2.18947">
        <ele>1441</ele>
        <time>2010-01-01T04:05:14Z</time>
      </trkpt>
      <trkpt lat="42.29702" lon="2.1894">
        <ele>1440</ele>
        <time>2010-01-01T04:05:16Z</time>
      </trkpt>
      <trkpt lat="42.29704" lon="2.18934">
        <ele>1439</ele>
        <time>2010-01-01T04:05:18Z</time>
      </trkpt>
      <trkpt lat="42.29706" lon="2.18928">
        <ele>1439</ele>
        <time>2010-01-01T04:05:20Z</time>
      </trkpt>
      <trkpt lat="42.29707" lon="2.18921">
        <ele>1438</ele>
        <time>2010-01-01T04:05:22Z</time>
      </trkpt>
      <trkpt lat="42.29708" lon="2.18914">
        <ele>1437</ele>
        <time>2010-01-01T04:05:24Z</time>
      </trkpt>
      <trkpt lat="42.29708" lon="2.18909">
        <ele>1436</ele>
        <time>2010-01-01T04:05:26Z</time>
      </trkpt>
      <trkpt lat="42.2971" lon="2.18907">
        <ele>1435</ele>
        <time>2010-01-01T04:05:27Z</time>
      </trkpt>
      <trkpt lat="42.29714" lon="2.1891">
        <ele>1435</ele>
        <time>2010-01-01T04:05:29Z</time>
      </trkpt>
      <trkpt lat="42.29718" lon="2.18915">
        <ele>1434</ele>
        <time>2010-01-01T04:05:31Z</time>
      </trkpt>
      <trkpt lat="42.29722" lon="2.18919">
        <ele>1434</ele>
        <time>2010-01-01T04:05:33Z</time>
      </trkpt>
      <trkpt lat="42.29725" lon="2.18924">
        <ele>1433</ele>
        <time>2010-01-01T04:05:35Z</time>
      </trkpt>
      <trkpt lat="42.29729" lon="2.18927">
        <ele>1433</ele>
        <time>2010-01-01T04:05:37Z</time>
      </trkpt>
      <trkpt lat="42.29733" lon="2.18931">
        <ele>1432</ele>
        <time>2010-01-01T04:05:39Z</time>
      </trkpt>
      <trkpt lat="42.29737" lon="2.18936">
        <ele>1432</ele>
        <time>2010-01-01T04:05:41Z</time>
      </trkpt>
      <trkpt lat="42.29741" lon="2.1894">
        <ele>1432</ele>
        <time>2010-01-01T04:05:43Z</time>
      </trkpt>
      <trkpt lat="42.29745" lon="2.18944">
        <ele>1431</ele>
        <time>2010-01-01T04:05:45Z</time>
      </trkpt>
      <trkpt lat="42.29749" lon="2.1895">
        <ele>1431</ele>
        <time>2010-01-01T04:05:47Z</time>
      </trkpt>
      <trkpt lat="42.29752" lon="2.18955">
        <ele>1432</ele>
        <time>2010-01-01T04:05:49Z</time>
      </trkpt>
      <trkpt lat="42.29756" lon="2.1896">
        <ele>1432</ele>
        <time>2010-01-01T04:05:51Z</time>
      </trkpt>
      <trkpt lat="42.2976" lon="2.18964">
        <ele>1432</ele>
        <time>2010-01-01T04:05:53Z</time>
      </trkpt>
      <trkpt lat="42.29765" lon="2.18966">
        <ele>1432</ele>
        <time>2010-01-01T04:05:55Z</time>
      </trkpt>
      <trkpt lat="42.2977" lon="2.18967">
        <ele>1432</ele>
        <time>2010-01-01T04:05:57Z</time>
      </trkpt>
      <trkpt lat="42.29775" lon="2.18967">
        <ele>1432</ele>
        <time>2010-01-01T04:05:59Z</time>
      </trkpt>
      <trkpt lat="42.2978" lon="2.18965">
        <ele>1432</ele>
        <time>2010-01-01T04:06:01Z</time>
      </trkpt>
      <trkpt lat="42.29785" lon="2.18962">
        <ele>1432</ele>
        <time>2010-01-01T04:06:04Z</time>
      </trkpt>
      <trkpt lat="42.29788" lon="2.18957">
        <ele>1432</ele>
        <time>2010-01-01T04:06:06Z</time>
      </trkpt>
      <trkpt lat="42.29791" lon="2.18952">
        <ele>1432</ele>
        <time>2010-01-01T04:06:07Z</time>
      </trkpt>
      <trkpt lat="42.29794" lon="2.18947">
        <ele>1431</ele>
        <time>2010-01-01T04:06:09Z</time>
      </trkpt>
      <trkpt lat="42.29797" lon="2.1894">
        <ele>1430</ele>
        <time>2010-01-01T04:06:12Z</time>
      </trkpt>
      <trkpt lat="42.29801" lon="2.18935">
        <ele>1429</ele>
        <time>2010-01-01T04:06:14Z</time>
      </trkpt>
      <trkpt lat="42.29804" lon="2.1893">
        <ele>1429</ele>
        <time>2010-01-01T04:06:16Z</time>
      </trkpt>
      <trkpt lat="42.29808" lon="2.18924">
        <ele>1428</ele>
        <time>2010-01-01T04:06:18Z</time>
      </trkpt>
      <trkpt lat="42.29812" lon="2.18918">
        <ele>1427</ele>
        <time>2010-01-01T04:06:21Z</time>
      </trkpt>
      <trkpt lat="42.29816" lon="2.18913">
        <ele>1426</ele>
        <time>2010-01-01T04:06:23Z</time>
      </trkpt>
      <trkpt lat="42.2982" lon="2.18908">
        <ele>1424</ele>
        <time>2010-01-01T04:06:25Z</time>
      </trkpt>
      <trkpt lat="42.29823" lon="2.18904">
        <ele>1423</ele>
        <time>2010-01-01T04:06:27Z</time>
      </trkpt>
      <trkpt lat="42.29827" lon="2.18899">
        <ele>1422</ele>
        <time>2010-01-01T04:06:29Z</time>
      </trkpt>
      <trkpt lat="42.2983" lon="2.18895">
        <ele>1421</ele>
        <time>2010-01-01T04:06:30Z</time>
      </trkpt>
      <trkpt lat="42.29831" lon="2.18889">
        <ele>1419</ele>
        <time>2010-01-01T04:06:32Z</time>
      </trkpt>
      <trkpt lat="42.29834" lon="2.18884">
        <ele>1418</ele>
        <time>2010-01-01T04:06:34Z</time>
      </trkpt>
      <trkpt lat="42.29838" lon="2.1888">
        <ele>1416</ele>
        <time>2010-01-01T04:06:36Z</time>
      </trkpt>
      <trkpt lat="42.29842" lon="2.18877">
        <ele>1415</ele>
        <time>2010-01-01T04:06:38Z</time>
      </trkpt>
      <trkpt lat="42.29846" lon="2.18873">
        <ele>1414</ele>
        <time>2010-01-01T04:06:40Z</time>
      </trkpt>
      <trkpt lat="42.2985" lon="2.18869">
        <ele>1413</ele>
        <time>2010-01-01T04:06:42Z</time>
      </trkpt>
      <trkpt lat="42.29854" lon="2.18866">
        <ele>1412</ele>
        <time>2010-01-01T04:06:44Z</time>
      </trkpt>
      <trkpt lat="42.29859" lon="2.18862">
        <ele>1411</ele>
        <time>2010-01-01T04:06:46Z</time>
      </trkpt>
      <trkpt lat="42.29864" lon="2.18859">
        <ele>1411</ele>
        <time>2010-01-01T04:06:48Z</time>
      </trkpt>
      <trkpt lat="42.29869" lon="2.18857">
        <ele>1410</ele>
        <time>2010-01-01T04:06:50Z</time>
      </trkpt>
      <trkpt lat="42.29874" lon="2.18856">
        <ele>1409</ele>
        <time>2010-01-01T04:06:52Z</time>
      </trkpt>
      <trkpt lat="42.2988" lon="2.18856">
        <ele>1409</ele>
        <time>2010-01-01T04:06:55Z</time>
      </trkpt>
      <trkpt lat="42.29885" lon="2.18857">
        <ele>1409</ele>
        <time>2010-01-01T04:06:57Z</time>
      </trkpt>
      <trkpt lat="42.2989" lon="2.18857">
        <ele>1408</ele>
        <time>2010-01-01T04:06:59Z</time>
      </trkpt>
      <trkpt lat="42.29895" lon="2.18858">
        <ele>1408</ele>
        <time>2010-01-01T04:07:01Z</time>
      </trkpt>
      <trkpt lat="42.299" lon="2.18857">
        <ele>1407</ele>
        <time>2010-01-01T04:07:03Z</time>
      </trkpt>
      <trkpt lat="42.29905" lon="2.18858">
        <ele>1406</ele>
        <time>2010-01-01T04:07:05Z</time>
      </trkpt>
      <trkpt lat="42.29911" lon="2.18858">
        <ele>1406</ele>
        <time>2010-01-01T04:07:07Z</time>
      </trkpt>
      <trkpt lat="42.29916" lon="2.18857">
        <ele>1405</ele>
        <time>2010-01-01T04:07:09Z</time>
      </trkpt>
      <trkpt lat="42.29922" lon="2.18857">
        <ele>1403</ele>
        <time>2010-01-01T04:07:12Z</time>
      </trkpt>
      <trkpt lat="42.29928" lon="2.18854">
        <ele>1401</ele>
        <time>2010-01-01T04:07:14Z</time>
      </trkpt>
      <trkpt lat="42.29933" lon="2.18854">
        <ele>1400</ele>
        <time>2010-01-01T04:07:16Z</time>
      </trkpt>
      <trkpt lat="42.29938" lon="2.18854">
        <ele>1398</ele>
        <time>2010-01-01T04:07:18Z</time>
      </trkpt>
      <trkpt lat="42.29944" lon="2.18854">
        <ele>1397</ele>
        <time>2010-01-01T04:07:20Z</time>
      </trkpt>
      <trkpt lat="42.29949" lon="2.18854">
        <ele>1396</ele>
        <time>2010-01-01T04:07:22Z</time>
      </trkpt>
      <trkpt lat="42.29953" lon="2.18855">
        <ele>1395</ele>
        <time>2010-01-01T04:07:24Z</time>
      </trkpt>
      <trkpt lat="42.29957" lon="2.18855">
        <ele>1394</ele>
        <time>2010-01-01T04:07:26Z</time>
      </trkpt>
      <trkpt lat="42.29962" lon="2.18854">
        <ele>1392</ele>
        <time>2010-01-01T04:07:28Z</time>
      </trkpt>
      <trkpt lat="42.29965" lon="2.18854">
        <ele>1392</ele>
        <time>2010-01-01T04:07:29Z</time>
      </trkpt>
      <trkpt lat="42.29967" lon="2.18853">
        <ele>1391</ele>
        <time>2010-01-01T04:07:30Z</time>
      </trkpt>
      <trkpt lat="42.29971" lon="2.18852">
        <ele>1390</ele>
        <time>2010-01-01T04:07:31Z</time>
      </trkpt>
      <trkpt lat="42.29975" lon="2.1885">
        <ele>1389</ele>
        <time>2010-01-01T04:07:33Z</time>
      </trkpt>
      <trkpt lat="42.29979" lon="2.18848">
        <ele>1388</ele>
        <time>2010-01-01T04:07:35Z</time>
      </trkpt>
      <trkpt lat="42.29984" lon="2.18848">
        <ele>1386</ele>
        <time>2010-01-01T04:07:37Z</time>
      </trkpt>
      <trkpt lat="42.29988" lon="2.18847">
        <ele>1385</ele>
        <time>2010-01-01T04:07:38Z</time>
      </trkpt>
      <trkpt lat="42.29992" lon="2.18844">
        <ele>1384</ele>
        <time>2010-01-01T04:07:40Z</time>
      </trkpt>
      <trkpt lat="42.29995" lon="2.18839">
        <ele>1383</ele>
        <time>2010-01-01T04:07:42Z</time>
      </trkpt>
      <trkpt lat="42.29999" lon="2.18832">
        <ele>1382</ele>
        <time>2010-01-01T04:07:45Z</time>
      </trkpt>
      <trkpt lat="42.30002" lon="2.18825">
        <ele>1380</ele>
        <time>2010-01-01T04:07:47Z</time>
      </trkpt>
      <trkpt lat="42.30006" lon="2.18818">
        <ele>1379</ele>
        <time>2010-01-01T04:07:50Z</time>
      </trkpt>
      <trkpt lat="42.30009" lon="2.1881">
        <ele>1377</ele>
        <time>2010-01-01T04:07:53Z</time>
      </trkpt>
      <trkpt lat="42.30012" lon="2.18801">
        <ele>1376</ele>
        <time>2010-01-01T04:07:55Z</time>
      </trkpt>
      <trkpt lat="42.30014" lon="2.18792">
        <ele>1375</ele>
        <time>2010-01-01T04:07:58Z</time>
      </trkpt>
      <trkpt lat="42.30015" lon="2.18783">
        <ele>1374</ele>
        <time>2010-01-01T04:08:01Z</time>
      </trkpt>
      <trkpt lat="42.30016" lon="2.18775">
        <ele>1373</ele>
        <time>2010-01-01T04:08:03Z</time>
      </trkpt>
      <trkpt lat="42.30018" lon="2.18766">
        <ele>1373</ele>
        <time>2010-01-01T04:08:06Z</time>
      </trkpt>
      <trkpt lat="42.3002" lon="2.18758">
        <ele>1372</ele>
        <time>2010-01-01T04:08:09Z</time>
      </trkpt>
      <trkpt lat="42.30023" lon="2.1875">
        <ele>1372</ele>
        <time>2010-01-01T04:08:11Z</time>
      </trkpt>
      <trkpt lat="42.30027" lon="2.18744">
        <ele>1371</ele>
        <time>2010-01-01T04:08:14Z</time>
      </trkpt>
      <trkpt lat="42.30031" lon="2.18739">
        <ele>1369</ele>
        <time>2010-01-01T04:08:16Z</time>
      </trkpt>
      <trkpt lat="42.30036" lon="2.18732">
        <ele>1368</ele>
        <time>2010-01-01T04:08:19Z</time>
      </trkpt>
      <trkpt lat="42.30041" lon="2.18726">
        <ele>1366</ele>
        <time>2010-01-01T04:08:22Z</time>
      </trkpt>
      <trkpt lat="42.30046" lon="2.18718">
        <ele>1365</ele>
        <time>2010-01-01T04:08:24Z</time>
      </trkpt>
      <trkpt lat="42.3005" lon="2.18713">
        <ele>1364</ele>
        <time>2010-01-01T04:08:27Z</time>
      </trkpt>
      <trkpt lat="42.30053" lon="2.18708">
        <ele>1364</ele>
        <time>2010-01-01T04:08:29Z</time>
      </trkpt>
      <trkpt lat="42.30056" lon="2.18704">
        <ele>1363</ele>
        <time>2010-01-01T04:08:30Z</time>
      </trkpt>
      <trkpt lat="42.30057" lon="2.18697">
        <ele>1363</ele>
        <time>2010-01-01T04:08:32Z</time>
      </trkpt>
      <trkpt lat="42.30057" lon="2.18694">
        <ele>1363</ele>
        <time>2010-01-01T04:08:33Z</time>
      </trkpt>
      <trkpt lat="42.30057" lon="2.18691">
        <ele>1363</ele>
        <time>2010-01-01T04:08:34Z</time>
      </trkpt>
      <trkpt lat="42.30058" lon="2.18686">
        <ele>1361</ele>
        <time>2010-01-01T04:08:36Z</time>
      </trkpt>
      <trkpt lat="42.3006" lon="2.18681">
        <ele>1360</ele>
        <time>2010-01-01T04:08:37Z</time>
      </trkpt>
      <trkpt lat="42.30063" lon="2.18675">
        <ele>1359</ele>
        <time>2010-01-01T04:08:40Z</time>
      </trkpt>
      <trkpt lat="42.30066" lon="2.18668">
        <ele>1358</ele>
        <time>2010-01-01T04:08:42Z</time>
      </trkpt>
      <trkpt lat="42.30067" lon="2.18663">
        <ele>1356</ele>
        <time>2010-01-01T04:08:44Z</time>
      </trkpt>
      <trkpt lat="42.30067" lon="2.18657">
        <ele>1355</ele>
        <time>2010-01-01T04:08:45Z</time>
      </trkpt>
      <trkpt lat="42.30068" lon="2.18651">
        <ele>1354</ele>
        <time>2010-01-01T04:08:47Z</time>
      </trkpt>
      <trkpt lat="42.30067" lon="2.18645">
        <ele>1353</ele>
        <time>2010-01-01T04:08:49Z</time>
      </trkpt>
      <trkpt lat="42.30065" lon="2.1864">
        <ele>1353</ele>
        <time>2010-01-01T04:08:51Z</time>
      </trkpt>
      <trkpt lat="42.30064" lon="2.18634">
        <ele>1352</ele>
        <time>2010-01-01T04:08:52Z</time>
      </trkpt>
      <trkpt lat="42.30066" lon="2.18628">
        <ele>1351</ele>
        <time>2010-01-01T04:08:54Z</time>
      </trkpt>
      <trkpt lat="42.30068" lon="2.18621">
        <ele>1351</ele>
        <time>2010-01-01T04:08:56Z</time>
      </trkpt>
      <trkpt lat="42.30069" lon="2.18616">
        <ele>1350</ele>
        <time>2010-01-01T04:08:58Z</time>
      </trkpt>
      <trkpt lat="42.3007" lon="2.18609">
        <ele>1349</ele>
        <time>2010-01-01T04:09:00Z</time>
      </trkpt>
      <trkpt lat="42.30071" lon="2.18603">
        <ele>1349</ele>
        <time>2010-01-01T04:09:02Z</time>
      </trkpt>
      <trkpt lat="42.30072" lon="2.18598">
        <ele>1349</ele>
        <time>2010-01-01T04:09:03Z</time>
      </trkpt>
      <trkpt lat="42.30073" lon="2.18593">
        <ele>1349</ele>
        <time>2010-01-01T04:09:05Z</time>
      </trkpt>
      <trkpt lat="42.30074" lon="2.18586">
        <ele>1350</ele>
        <time>2010-01-01T04:09:07Z</time>
      </trkpt>
      <trkpt lat="42.30076" lon="2.1858">
        <ele>1350</ele>
        <time>2010-01-01T04:09:09Z</time>
      </trkpt>
      <trkpt lat="42.30077" lon="2.18575">
        <ele>1350</ele>
        <time>2010-01-01T04:09:11Z</time>
      </trkpt>
      <trkpt lat="42.30079" lon="2.18569">
        <ele>1350</ele>
        <time>2010-01-01T04:09:12Z</time>
      </trkpt>
      <trkpt lat="42.30081" lon="2.18565">
        <ele>1351</ele>
        <time>2010-01-01T04:09:14Z</time>
      </trkpt>
      <trkpt lat="42.30084" lon="2.18562">
        <ele>1351</ele>
        <time>2010-01-01T04:09:16Z</time>
      </trkpt>
      <trkpt lat="42.30089" lon="2.18557">
        <ele>1351</ele>
        <time>2010-01-01T04:09:18Z</time>
      </trkpt>
      <trkpt lat="42.30095" lon="2.1855">
        <ele>1350</ele>
        <time>2010-01-01T04:09:21Z</time>
      </trkpt>
      <trkpt lat="42.301" lon="2.18543">
        <ele>1350</ele>
        <time>2010-01-01T04:09:24Z</time>
      </trkpt>
      <trkpt lat="42.30104" lon="2.18536">
        <ele>1350</ele>
        <time>2010-01-01T04:09:27Z</time>
      </trkpt>
      <trkpt lat="42.30107" lon="2.18533">
        <ele>1350</ele>
        <time>2010-01-01T04:09:28Z</time>
      </trkpt>
      <trkpt lat="42.30111" lon="2.18527">
        <ele>1350</ele>
        <time>2010-01-01T04:09:30Z</time>
      </trkpt>
      <trkpt lat="42.30112" lon="2.18525">
        <ele>1349</ele>
        <time>2010-01-01T04:09:31Z</time>
      </trkpt>
      <trkpt lat="42.30113" lon="2.18522">
        <ele>1349</ele>
        <time>2010-01-01T04:09:32Z</time>
      </trkpt>
      <trkpt lat="42.30116" lon="2.18519">
        <ele>1349</ele>
        <time>2010-01-01T04:09:34Z</time>
      </trkpt>
      <trkpt lat="42.30118" lon="2.18515">
        <ele>1348</ele>
        <time>2010-01-01T04:09:35Z</time>
      </trkpt>
      <trkpt lat="42.30121" lon="2.18509">
        <ele>1347</ele>
        <time>2010-01-01T04:09:37Z</time>
      </trkpt>
      <trkpt lat="42.30123" lon="2.18504">
        <ele>1347</ele>
        <time>2010-01-01T04:09:39Z</time>
      </trkpt>
      <trkpt lat="42.30126" lon="2.18499">
        <ele>1345</ele>
        <time>2010-01-01T04:09:41Z</time>
      </trkpt>
      <trkpt lat="42.3013" lon="2.18494">
        <ele>1344</ele>
        <time>2010-01-01T04:09:43Z</time>
      </trkpt>
      <trkpt lat="42.30134" lon="2.18488">
        <ele>1343</ele>
        <time>2010-01-01T04:09:45Z</time>
      </trkpt>
      <trkpt lat="42.30137" lon="2.18483">
        <ele>1342</ele>
        <time>2010-01-01T04:09:47Z</time>
      </trkpt>
      <trkpt lat="42.30142" lon="2.1847">
        <ele>1341</ele>
        <time>2010-01-01T04:09:52Z</time>
      </trkpt>
      <trkpt lat="42.30145" lon="2.18462">
        <ele>1340</ele>
        <time>2010-01-01T04:09:54Z</time>
      </trkpt>
      <trkpt lat="42.30146" lon="2.18455">
        <ele>1339</ele>
        <time>2010-01-01T04:09:56Z</time>
      </trkpt>
      <trkpt lat="42.3015" lon="2.18438">
        <ele>1338</ele>
        <time>2010-01-01T04:10:02Z</time>
      </trkpt>
      <trkpt lat="42.30154" lon="2.18424">
        <ele>1337</ele>
        <time>2010-01-01T04:10:06Z</time>
      </trkpt>
      <trkpt lat="42.30155" lon="2.18418">
        <ele>1336</ele>
        <time>2010-01-01T04:10:08Z</time>
      </trkpt>
      <trkpt lat="42.30157" lon="2.18411">
        <ele>1336</ele>
        <time>2010-01-01T04:10:10Z</time>
      </trkpt>
      <trkpt lat="42.30161" lon="2.18398">
        <ele>1335</ele>
        <time>2010-01-01T04:10:14Z</time>
      </trkpt>
      <trkpt lat="42.30166" lon="2.18385">
        <ele>1334</ele>
        <time>2010-01-01T04:10:19Z</time>
      </trkpt>
      <trkpt lat="42.30169" lon="2.18369">
        <ele>1334</ele>
        <time>2010-01-01T04:10:23Z</time>
      </trkpt>
      <trkpt lat="42.30171" lon="2.18356">
        <ele>1333</ele>
        <time>2010-01-01T04:10:28Z</time>
      </trkpt>
      <trkpt lat="42.30174" lon="2.18341">
        <ele>1332</ele>
        <time>2010-01-01T04:10:32Z</time>
      </trkpt>
      <trkpt lat="42.30176" lon="2.18328">
        <ele>1332</ele>
        <time>2010-01-01T04:10:36Z</time>
      </trkpt>
      <trkpt lat="42.30177" lon="2.18322">
        <ele>1331</ele>
        <time>2010-01-01T04:10:38Z</time>
      </trkpt>
      <trkpt lat="42.30181" lon="2.1831">
        <ele>1331</ele>
        <time>2010-01-01T04:10:42Z</time>
      </trkpt>
      <trkpt lat="42.30187" lon="2.18298">
        <ele>1329</ele>
        <time>2010-01-01T04:10:46Z</time>
      </trkpt>
      <trkpt lat="42.30193" lon="2.18285">
        <ele>1327</ele>
        <time>2010-01-01T04:10:51Z</time>
      </trkpt>
      <trkpt lat="42.30198" lon="2.18274">
        <ele>1324</ele>
        <time>2010-01-01T04:10:55Z</time>
      </trkpt>
      <trkpt lat="42.30203" lon="2.18266">
        <ele>1321</ele>
        <time>2010-01-01T04:10:58Z</time>
      </trkpt>
      <trkpt lat="42.30207" lon="2.18261">
        <ele>1318</ele>
        <time>2010-01-01T04:11:00Z</time>
      </trkpt>
      <trkpt lat="42.3021" lon="2.18255">
        <ele>1317</ele>
        <time>2010-01-01T04:11:02Z</time>
      </trkpt>
      <trkpt lat="42.30213" lon="2.1825">
        <ele>1315</ele>
        <time>2010-01-01T04:11:04Z</time>
      </trkpt>
      <trkpt lat="42.30216" lon="2.18243">
        <ele>1313</ele>
        <time>2010-01-01T04:11:06Z</time>
      </trkpt>
      <trkpt lat="42.30218" lon="2.18237">
        <ele>1311</ele>
        <time>2010-01-01T04:11:08Z</time>
      </trkpt>
      <trkpt lat="42.3022" lon="2.1823">
        <ele>1310</ele>
        <time>2010-01-01T04:11:10Z</time>
      </trkpt>
      <trkpt lat="42.30222" lon="2.18227">
        <ele>1308</ele>
        <time>2010-01-01T04:11:12Z</time>
      </trkpt>
      <trkpt lat="42.30224" lon="2.18222">
        <ele>1306</ele>
        <time>2010-01-01T04:11:13Z</time>
      </trkpt>
      <trkpt lat="42.30225" lon="2.18216">
        <ele>1305</ele>
        <time>2010-01-01T04:11:15Z</time>
      </trkpt>
      <trkpt lat="42.30226" lon="2.18211">
        <ele>1303</ele>
        <time>2010-01-01T04:11:17Z</time>
      </trkpt>
      <trkpt lat="42.30228" lon="2.18206">
        <ele>1302</ele>
        <time>2010-01-01T04:11:18Z</time>
      </trkpt>
      <trkpt lat="42.30232" lon="2.18191">
        <ele>1299</ele>
        <time>2010-01-01T04:11:23Z</time>
      </trkpt>
      <trkpt lat="42.30234" lon="2.18185">
        <ele>1297</ele>
        <time>2010-01-01T04:11:25Z</time>
      </trkpt>
      <trkpt lat="42.30236" lon="2.18179">
        <ele>1296</ele>
        <time>2010-01-01T04:11:27Z</time>
      </trkpt>
      <trkpt lat="42.3024" lon="2.18165">
        <ele>1293</ele>
        <time>2010-01-01T04:11:31Z</time>
      </trkpt>
      <trkpt lat="42.30242" lon="2.18159">
        <ele>1292</ele>
        <time>2010-01-01T04:11:33Z</time>
      </trkpt>
      <trkpt lat="42.30244" lon="2.18152">
        <ele>1290</ele>
        <time>2010-01-01T04:11:35Z</time>
      </trkpt>
      <trkpt lat="42.30245" lon="2.18145">
        <ele>1289</ele>
        <time>2010-01-01T04:11:37Z</time>
      </trkpt>
      <trkpt lat="42.30245" lon="2.18139">
        <ele>1289</ele>
        <time>2010-01-01T04:11:39Z</time>
      </trkpt>
      <trkpt lat="42.30244" lon="2.18134">
        <ele>1288</ele>
        <time>2010-01-01T04:11:41Z</time>
      </trkpt>
      <trkpt lat="42.30244" lon="2.18127">
        <ele>1287</ele>
        <time>2010-01-01T04:11:43Z</time>
      </trkpt>
      <trkpt lat="42.30243" lon="2.18121">
        <ele>1286</ele>
        <time>2010-01-01T04:11:45Z</time>
      </trkpt>
      <trkpt lat="42.30242" lon="2.18114">
        <ele>1285</ele>
        <time>2010-01-01T04:11:47Z</time>
      </trkpt>
      <trkpt lat="42.30238" lon="2.18107">
        <ele>1283</ele>
        <time>2010-01-01T04:11:49Z</time>
      </trkpt>
      <trkpt lat="42.30236" lon="2.18096">
        <ele>1281</ele>
        <time>2010-01-01T04:11:53Z</time>
      </trkpt>
      <trkpt lat="42.30237" lon="2.18088">
        <ele>1278</ele>
        <time>2010-01-01T04:11:55Z</time>
      </trkpt>
      <trkpt lat="42.30239" lon="2.18082">
        <ele>1276</ele>
        <time>2010-01-01T04:11:57Z</time>
      </trkpt>
      <trkpt lat="42.30241" lon="2.18078">
        <ele>1275</ele>
        <time>2010-01-01T04:11:59Z</time>
      </trkpt>
      <trkpt lat="42.30245" lon="2.18074">
        <ele>1274</ele>
        <time>2010-01-01T04:12:00Z</time>
      </trkpt>
      <trkpt lat="42.3025" lon="2.18073">
        <ele>1273</ele>
        <time>2010-01-01T04:12:02Z</time>
      </trkpt>
      <trkpt lat="42.30255" lon="2.18073">
        <ele>1272</ele>
        <time>2010-01-01T04:12:05Z</time>
      </trkpt>
      <trkpt lat="42.30261" lon="2.18073">
        <ele>1270</ele>
        <time>2010-01-01T04:12:07Z</time>
      </trkpt>
      <trkpt lat="42.30266" lon="2.18073">
        <ele>1269</ele>
        <time>2010-01-01T04:12:09Z</time>
      </trkpt>
      <trkpt lat="42.30271" lon="2.1807">
        <ele>1268</ele>
        <time>2010-01-01T04:12:11Z</time>
      </trkpt>
      <trkpt lat="42.30273" lon="2.18067">
        <ele>1266</ele>
        <time>2010-01-01T04:12:12Z</time>
      </trkpt>
      <trkpt lat="42.30277" lon="2.18063">
        <ele>1264</ele>
        <time>2010-01-01T04:12:14Z</time>
      </trkpt>
      <trkpt lat="42.3028" lon="2.18059">
        <ele>1263</ele>
        <time>2010-01-01T04:12:16Z</time>
      </trkpt>
      <trkpt lat="42.30282" lon="2.18055">
        <ele>1261</ele>
        <time>2010-01-01T04:12:17Z</time>
      </trkpt>
      <trkpt lat="42.30282" lon="2.18051">
        <ele>1260</ele>
        <time>2010-01-01T04:12:19Z</time>
      </trkpt>
      <trkpt lat="42.30284" lon="2.18047">
        <ele>1259</ele>
        <time>2010-01-01T04:12:20Z</time>
      </trkpt>
      <trkpt lat="42.30288" lon="2.18042">
        <ele>1257</ele>
        <time>2010-01-01T04:12:22Z</time>
      </trkpt>
      <trkpt lat="42.30289" lon="2.18039">
        <ele>1256</ele>
        <time>2010-01-01T04:12:23Z</time>
      </trkpt>
      <trkpt lat="42.30292" lon="2.18038">
        <ele>1255</ele>
        <time>2010-01-01T04:12:24Z</time>
      </trkpt>
      <trkpt lat="42.30293" lon="2.18036">
        <ele>1255</ele>
        <time>2010-01-01T04:12:25Z</time>
      </trkpt>
      <trkpt lat="42.30295" lon="2.18034">
        <ele>1254</ele>
        <time>2010-01-01T04:12:26Z</time>
      </trkpt>
      <trkpt lat="42.30297" lon="2.18033">
        <ele>1253</ele>
        <time>2010-01-01T04:12:27Z</time>
      </trkpt>
      <trkpt lat="42.30301" lon="2.18034">
        <ele>1253</ele>
        <time>2010-01-01T04:12:28Z</time>
      </trkpt>
      <trkpt lat="42.30305" lon="2.18037">
        <ele>1252</ele>
        <time>2010-01-01T04:12:30Z</time>
      </trkpt>
      <trkpt lat="42.30309" lon="2.18041">
        <ele>1251</ele>
        <time>2010-01-01T04:12:32Z</time>
      </trkpt>
      <trkpt lat="42.30312" lon="2.18041">
        <ele>1251</ele>
        <time>2010-01-01T04:12:33Z</time>
      </trkpt>
      <trkpt lat="42.30313" lon="2.18039">
        <ele>1250</ele>
        <time>2010-01-01T04:12:34Z</time>
      </trkpt>
      <trkpt lat="42.30314" lon="2.18035">
        <ele>1249</ele>
        <time>2010-01-01T04:12:35Z</time>
      </trkpt>
      <trkpt lat="42.30315" lon="2.1803">
        <ele>1248</ele>
        <time>2010-01-01T04:12:37Z</time>
      </trkpt>
      <trkpt lat="42.30315" lon="2.18023">
        <ele>1247</ele>
        <time>2010-01-01T04:12:39Z</time>
      </trkpt>
      <trkpt lat="42.30315" lon="2.18019">
        <ele>1246</ele>
        <time>2010-01-01T04:12:40Z</time>
      </trkpt>
      <trkpt lat="42.30316" lon="2.18017">
        <ele>1246</ele>
        <time>2010-01-01T04:12:41Z</time>
      </trkpt>
      <trkpt lat="42.30319" lon="2.18017">
        <ele>1245</ele>
        <time>2010-01-01T04:12:42Z</time>
      </trkpt>
      <trkpt lat="42.30321" lon="2.18015">
        <ele>1244</ele>
        <time>2010-01-01T04:12:43Z</time>
      </trkpt>
      <trkpt lat="42.30323" lon="2.18013">
        <ele>1243</ele>
        <time>2010-01-01T04:12:44Z</time>
      </trkpt>
      <trkpt lat="42.30325" lon="2.18011">
        <ele>1242</ele>
        <time>2010-01-01T04:12:45Z</time>
      </trkpt>
      <trkpt lat="42.30329" lon="2.18008">
        <ele>1241</ele>
        <time>2010-01-01T04:12:47Z</time>
      </trkpt>
      <trkpt lat="42.30334" lon="2.18005">
        <ele>1240</ele>
        <time>2010-01-01T04:12:49Z</time>
      </trkpt>
      <trkpt lat="42.30336" lon="2.18004">
        <ele>1239</ele>
        <time>2010-01-01T04:12:50Z</time>
      </trkpt>
      <trkpt lat="42.30338" lon="2.18002">
        <ele>1238</ele>
        <time>2010-01-01T04:12:51Z</time>
      </trkpt>
      <trkpt lat="42.30341" lon="2.18">
        <ele>1236</ele>
        <time>2010-01-01T04:12:52Z</time>
      </trkpt>
      <trkpt lat="42.30346" lon="2.17999">
        <ele>1233</ele>
        <time>2010-01-01T04:12:54Z</time>
      </trkpt>
      <trkpt lat="42.30349" lon="2.17998">
        <ele>1232</ele>
        <time>2010-01-01T04:12:55Z</time>
      </trkpt>
      <trkpt lat="42.30353" lon="2.17996">
        <ele>1230</ele>
        <time>2010-01-01T04:12:57Z</time>
      </trkpt>
      <trkpt lat="42.30356" lon="2.17995">
        <ele>1229</ele>
        <time>2010-01-01T04:12:58Z</time>
      </trkpt>
      <trkpt lat="42.30359" lon="2.17993">
        <ele>1227</ele>
        <time>2010-01-01T04:13:00Z</time>
      </trkpt>
      <trkpt lat="42.30364" lon="2.17991">
        <ele>1224</ele>
        <time>2010-01-01T04:13:02Z</time>
      </trkpt>
      <trkpt lat="42.30367" lon="2.1799">
        <ele>1223</ele>
        <time>2010-01-01T04:13:03Z</time>
      </trkpt>
      <trkpt lat="42.30371" lon="2.17988">
        <ele>1221</ele>
        <time>2010-01-01T04:13:05Z</time>
      </trkpt>
      <trkpt lat="42.30374" lon="2.17986">
        <ele>1219</ele>
        <time>2010-01-01T04:13:06Z</time>
      </trkpt>
      <trkpt lat="42.30378" lon="2.17983">
        <ele>1217</ele>
        <time>2010-01-01T04:13:08Z</time>
      </trkpt>
      <trkpt lat="42.30382" lon="2.17985">
        <ele>1215</ele>
        <time>2010-01-01T04:13:10Z</time>
      </trkpt>
      <trkpt lat="42.30385" lon="2.17986">
        <ele>1214</ele>
        <time>2010-01-01T04:13:11Z</time>
      </trkpt>
      <trkpt lat="42.30389" lon="2.17983">
        <ele>1212</ele>
        <time>2010-01-01T04:13:13Z</time>
      </trkpt>
      <trkpt lat="42.3039" lon="2.17979">
        <ele>1210</ele>
        <time>2010-01-01T04:13:14Z</time>
      </trkpt>
      <trkpt lat="42.30392" lon="2.17976">
        <ele>1208</ele>
        <time>2010-01-01T04:13:15Z</time>
      </trkpt>
      <trkpt lat="42.30395" lon="2.1797">
        <ele>1206</ele>
        <time>2010-01-01T04:13:17Z</time>
      </trkpt>
      <trkpt lat="42.30399" lon="2.17969">
        <ele>1203</ele>
        <time>2010-01-01T04:13:19Z</time>
      </trkpt>
      <trkpt lat="42.30403" lon="2.17968">
        <ele>1201</ele>
        <time>2010-01-01T04:13:21Z</time>
      </trkpt>
      <trkpt lat="42.30407" lon="2.17966">
        <ele>1199</ele>
        <time>2010-01-01T04:13:22Z</time>
      </trkpt>
      <trkpt lat="42.30412" lon="2.17965">
        <ele>1196</ele>
        <time>2010-01-01T04:13:24Z</time>
      </trkpt>
      <trkpt lat="42.30415" lon="2.17963">
        <ele>1195</ele>
        <time>2010-01-01T04:13:26Z</time>
      </trkpt>
      <trkpt lat="42.30419" lon="2.17961">
        <ele>1193</ele>
        <time>2010-01-01T04:13:27Z</time>
      </trkpt>
      <trkpt lat="42.30422" lon="2.17958">
        <ele>1192</ele>
        <time>2010-01-01T04:13:29Z</time>
      </trkpt>
      <trkpt lat="42.30425" lon="2.17955">
        <ele>1191</ele>
        <time>2010-01-01T04:13:30Z</time>
      </trkpt>
      <trkpt lat="42.30429" lon="2.17952">
        <ele>1190</ele>
        <time>2010-01-01T04:13:32Z</time>
      </trkpt>
      <trkpt lat="42.30432" lon="2.17949">
        <ele>1189</ele>
        <time>2010-01-01T04:13:33Z</time>
      </trkpt>
      <trkpt lat="42.30435" lon="2.17947">
        <ele>1188</ele>
        <time>2010-01-01T04:13:35Z</time>
      </trkpt>
      <trkpt lat="42.30437" lon="2.17946">
        <ele>1188</ele>
        <time>2010-01-01T04:13:36Z</time>
      </trkpt>
      <trkpt lat="42.3044" lon="2.17945">
        <ele>1187</ele>
        <time>2010-01-01T04:13:37Z</time>
      </trkpt>
      <trkpt lat="42.30443" lon="2.17942">
        <ele>1186</ele>
        <time>2010-01-01T04:13:38Z</time>
      </trkpt>
      <trkpt lat="42.30446" lon="2.17938">
        <ele>1185</ele>
        <time>2010-01-01T04:13:40Z</time>
      </trkpt>
      <trkpt lat="42.3045" lon="2.17935">
        <ele>1184</ele>
        <time>2010-01-01T04:13:42Z</time>
      </trkpt>
      <trkpt lat="42.30455" lon="2.17934">
        <ele>1183</ele>
        <time>2010-01-01T04:13:44Z</time>
      </trkpt>
      <trkpt lat="42.3046" lon="2.17934">
        <ele>1182</ele>
        <time>2010-01-01T04:13:46Z</time>
      </trkpt>
      <trkpt lat="42.30464" lon="2.17933">
        <ele>1182</ele>
        <time>2010-01-01T04:13:48Z</time>
      </trkpt>
      <trkpt lat="42.30469" lon="2.17933">
        <ele>1181</ele>
        <time>2010-01-01T04:13:49Z</time>
      </trkpt>
      <trkpt lat="42.30474" lon="2.17932">
        <ele>1179</ele>
        <time>2010-01-01T04:13:52Z</time>
      </trkpt>
      <trkpt lat="42.30477" lon="2.17931">
        <ele>1178</ele>
        <time>2010-01-01T04:13:53Z</time>
      </trkpt>
      <trkpt lat="42.3048" lon="2.17931">
        <ele>1176</ele>
        <time>2010-01-01T04:13:54Z</time>
      </trkpt>
      <trkpt lat="42.30484" lon="2.17932">
        <ele>1175</ele>
        <time>2010-01-01T04:13:56Z</time>
      </trkpt>
      <trkpt lat="42.30488" lon="2.17934">
        <ele>1173</ele>
        <time>2010-01-01T04:13:57Z</time>
      </trkpt>
      <trkpt lat="42.30491" lon="2.17936">
        <ele>1171</ele>
        <time>2010-01-01T04:13:59Z</time>
      </trkpt>
      <trkpt lat="42.30496" lon="2.17938">
        <ele>1169</ele>
        <time>2010-01-01T04:14:01Z</time>
      </trkpt>
      <trkpt lat="42.305" lon="2.17939">
        <ele>1167</ele>
        <time>2010-01-01T04:14:03Z</time>
      </trkpt>
      <trkpt lat="42.30504" lon="2.17943">
        <ele>1166</ele>
        <time>2010-01-01T04:14:04Z</time>
      </trkpt>
      <trkpt lat="42.30507" lon="2.17946">
        <ele>1164</ele>
        <time>2010-01-01T04:14:06Z</time>
      </trkpt>
      <trkpt lat="42.30512" lon="2.17949">
        <ele>1162</ele>
        <time>2010-01-01T04:14:08Z</time>
      </trkpt>
      <trkpt lat="42.30516" lon="2.17952">
        <ele>1159</ele>
        <time>2010-01-01T04:14:10Z</time>
      </trkpt>
      <trkpt lat="42.3052" lon="2.17956">
        <ele>1157</ele>
        <time>2010-01-01T04:14:12Z</time>
      </trkpt>
      <trkpt lat="42.30523" lon="2.1796">
        <ele>1155</ele>
        <time>2010-01-01T04:14:14Z</time>
      </trkpt>
      <trkpt lat="42.30527" lon="2.17964">
        <ele>1154</ele>
        <time>2010-01-01T04:14:15Z</time>
      </trkpt>
      <trkpt lat="42.3053" lon="2.17965">
        <ele>1152</ele>
        <time>2010-01-01T04:14:17Z</time>
      </trkpt>
      <trkpt lat="42.30533" lon="2.17968">
        <ele>1151</ele>
        <time>2010-01-01T04:14:19Z</time>
      </trkpt>
      <trkpt lat="42.30536" lon="2.17973">
        <ele>1150</ele>
        <time>2010-01-01T04:14:20Z</time>
      </trkpt>
      <trkpt lat="42.30542" lon="2.17975">
        <ele>1149</ele>
        <time>2010-01-01T04:14:23Z</time>
      </trkpt>
      <trkpt lat="42.30546" lon="2.17978">
        <ele>1148</ele>
        <time>2010-01-01T04:14:25Z</time>
      </trkpt>
      <trkpt lat="42.3055" lon="2.17979">
        <ele>1147</ele>
        <time>2010-01-01T04:14:26Z</time>
      </trkpt>
      <trkpt lat="42.30555" lon="2.17976">
        <ele>1146</ele>
        <time>2010-01-01T04:14:28Z</time>
      </trkpt>
      <trkpt lat="42.30557" lon="2.1797">
        <ele>1146</ele>
        <time>2010-01-01T04:14:30Z</time>
      </trkpt>
      <trkpt lat="42.30559" lon="2.17969">
        <ele>1145</ele>
        <time>2010-01-01T04:14:31Z</time>
      </trkpt>
      <trkpt lat="42.3056" lon="2.17967">
        <ele>1146</ele>
        <time>2010-01-01T04:14:32Z</time>
      </trkpt>
      <trkpt lat="42.30562" lon="2.17966">
        <ele>1145</ele>
        <time>2010-01-01T04:14:32Z</time>
      </trkpt>
      <trkpt lat="42.30564" lon="2.17965">
        <ele>1145</ele>
        <time>2010-01-01T04:14:33Z</time>
      </trkpt>
      <trkpt lat="42.30566" lon="2.17963">
        <ele>1145</ele>
        <time>2010-01-01T04:14:34Z</time>
      </trkpt>
      <trkpt lat="42.30569" lon="2.17962">
        <ele>1145</ele>
        <time>2010-01-01T04:14:35Z</time>
      </trkpt>
      <trkpt lat="42.30571" lon="2.1796">
        <ele>1145</ele>
        <time>2010-01-01T04:14:36Z</time>
      </trkpt>
      <trkpt lat="42.30573" lon="2.17959">
        <ele>1145</ele>
        <time>2010-01-01T04:14:37Z</time>
      </trkpt>
      <trkpt lat="42.30575" lon="2.17957">
        <ele>1145</ele>
        <time>2010-01-01T04:14:39Z</time>
      </trkpt>
      <trkpt lat="42.30578" lon="2.17955">
        <ele>1145</ele>
        <time>2010-01-01T04:14:40Z</time>
      </trkpt>
      <trkpt lat="42.3058" lon="2.17956">
        <ele>1145</ele>
        <time>2010-01-01T04:14:40Z</time>
      </trkpt>
      <trkpt lat="42.30582" lon="2.17955">
        <ele>1145</ele>
        <time>2010-01-01T04:14:41Z</time>
      </trkpt>
      <trkpt lat="42.30584" lon="2.17953">
        <ele>1145</ele>
        <time>2010-01-01T04:14:42Z</time>
      </trkpt>
      <trkpt lat="42.30585" lon="2.1795">
        <ele>1145</ele>
        <time>2010-01-01T04:14:43Z</time>
      </trkpt>
      <trkpt lat="42.30587" lon="2.17947">
        <ele>1145</ele>
        <time>2010-01-01T04:14:45Z</time>
      </trkpt>
      <trkpt lat="42.30588" lon="2.17943">
        <ele>1145</ele>
        <time>2010-01-01T04:14:46Z</time>
      </trkpt>
      <trkpt lat="42.30589" lon="2.17941">
        <ele>1145</ele>
        <time>2010-01-01T04:14:47Z</time>
      </trkpt>
      <trkpt lat="42.30591" lon="2.17939">
        <ele>1145</ele>
        <time>2010-01-01T04:14:47Z</time>
      </trkpt>
      <trkpt lat="42.30593" lon="2.17939">
        <ele>1145</ele>
        <time>2010-01-01T04:14:48Z</time>
      </trkpt>
      <trkpt lat="42.30595" lon="2.17938">
        <ele>1145</ele>
        <time>2010-01-01T04:14:49Z</time>
      </trkpt>
      <trkpt lat="42.30597" lon="2.17937">
        <ele>1145</ele>
        <time>2010-01-01T04:14:50Z</time>
      </trkpt>
      <trkpt lat="42.30599" lon="2.17935">
        <ele>1146</ele>
        <time>2010-01-01T04:14:51Z</time>
      </trkpt>
      <trkpt lat="42.30601" lon="2.17933">
        <ele>1146</ele>
        <time>2010-01-01T04:14:52Z</time>
      </trkpt>
      <trkpt lat="42.30603" lon="2.17931">
        <ele>1146</ele>
        <time>2010-01-01T04:14:53Z</time>
      </trkpt>
      <trkpt lat="42.30605" lon="2.17928">
        <ele>1146</ele>
        <time>2010-01-01T04:14:54Z</time>
      </trkpt>
      <trkpt lat="42.30607" lon="2.17926">
        <ele>1146</ele>
        <time>2010-01-01T04:14:55Z</time>
      </trkpt>
      <trkpt lat="42.30609" lon="2.17924">
        <ele>1146</ele>
        <time>2010-01-01T04:14:56Z</time>
      </trkpt>
      <trkpt lat="42.30611" lon="2.17922">
        <ele>1146</ele>
        <time>2010-01-01T04:14:57Z</time>
      </trkpt>
      <trkpt lat="42.30613" lon="2.17919">
        <ele>1145</ele>
        <time>2010-01-01T04:14:58Z</time>
      </trkpt>
      <trkpt lat="42.30615" lon="2.17916">
        <ele>1145</ele>
        <time>2010-01-01T04:14:59Z</time>
      </trkpt>
      <trkpt lat="42.30617" lon="2.17912">
        <ele>1145</ele>
        <time>2010-01-01T04:15:01Z</time>
      </trkpt>
      <trkpt lat="42.3062" lon="2.17908">
        <ele>1144</ele>
        <time>2010-01-01T04:15:02Z</time>
      </trkpt>
      <trkpt lat="42.30622" lon="2.17905">
        <ele>1144</ele>
        <time>2010-01-01T04:15:04Z</time>
      </trkpt>
      <trkpt lat="42.30622" lon="2.179">
        <ele>1143</ele>
        <time>2010-01-01T04:15:05Z</time>
      </trkpt>
      <trkpt lat="42.30625" lon="2.17895">
        <ele>1143</ele>
        <time>2010-01-01T04:15:07Z</time>
      </trkpt>
      <trkpt lat="42.30628" lon="2.17891">
        <ele>1143</ele>
        <time>2010-01-01T04:15:09Z</time>
      </trkpt>
      <trkpt lat="42.30632" lon="2.17888">
        <ele>1143</ele>
        <time>2010-01-01T04:15:10Z</time>
      </trkpt>
      <trkpt lat="42.30635" lon="2.17883">
        <ele>1143</ele>
        <time>2010-01-01T04:15:13Z</time>
      </trkpt>
      <trkpt lat="42.30638" lon="2.17876">
        <ele>1142</ele>
        <time>2010-01-01T04:15:15Z</time>
      </trkpt>
      <trkpt lat="42.30639" lon="2.17869">
        <ele>1141</ele>
        <time>2010-01-01T04:15:17Z</time>
      </trkpt>
      <trkpt lat="42.30641" lon="2.17864">
        <ele>1141</ele>
        <time>2010-01-01T04:15:19Z</time>
      </trkpt>
      <trkpt lat="42.30645" lon="2.1786">
        <ele>1141</ele>
        <time>2010-01-01T04:15:20Z</time>
      </trkpt>
      <trkpt lat="42.30648" lon="2.17857">
        <ele>1140</ele>
        <time>2010-01-01T04:15:22Z</time>
      </trkpt>
      <trkpt lat="42.30651" lon="2.17853">
        <ele>1140</ele>
        <time>2010-01-01T04:15:24Z</time>
      </trkpt>
      <trkpt lat="42.30654" lon="2.1785">
        <ele>1139</ele>
        <time>2010-01-01T04:15:25Z</time>
      </trkpt>
      <trkpt lat="42.30656" lon="2.17845">
        <ele>1139</ele>
        <time>2010-01-01T04:15:27Z</time>
      </trkpt>
      <trkpt lat="42.30659" lon="2.17841">
        <ele>1138</ele>
        <time>2010-01-01T04:15:28Z</time>
      </trkpt>
      <trkpt lat="42.30661" lon="2.17837">
        <ele>1138</ele>
        <time>2010-01-01T04:15:30Z</time>
      </trkpt>
      <trkpt lat="42.30662" lon="2.17831">
        <ele>1137</ele>
        <time>2010-01-01T04:15:32Z</time>
      </trkpt>
      <trkpt lat="42.30663" lon="2.17827">
        <ele>1137</ele>
        <time>2010-01-01T04:15:33Z</time>
      </trkpt>
      <trkpt lat="42.30665" lon="2.17822">
        <ele>1136</ele>
        <time>2010-01-01T04:15:35Z</time>
      </trkpt>
      <trkpt lat="42.30667" lon="2.17818">
        <ele>1136</ele>
        <time>2010-01-01T04:15:36Z</time>
      </trkpt>
      <trkpt lat="42.30671" lon="2.17814">
        <ele>1135</ele>
        <time>2010-01-01T04:15:38Z</time>
      </trkpt>
      <trkpt lat="42.30674" lon="2.17808">
        <ele>1135</ele>
        <time>2010-01-01T04:15:40Z</time>
      </trkpt>
      <trkpt lat="42.30678" lon="2.17803">
        <ele>1134</ele>
        <time>2010-01-01T04:15:42Z</time>
      </trkpt>
      <trkpt lat="42.30681" lon="2.17797">
        <ele>1133</ele>
        <time>2010-01-01T04:15:44Z</time>
      </trkpt>
      <trkpt lat="42.30684" lon="2.17792">
        <ele>1132</ele>
        <time>2010-01-01T04:15:46Z</time>
      </trkpt>
      <trkpt lat="42.30688" lon="2.17788">
        <ele>1131</ele>
        <time>2010-01-01T04:15:49Z</time>
      </trkpt>
      <trkpt lat="42.30692" lon="2.17784">
        <ele>1131</ele>
        <time>2010-01-01T04:15:51Z</time>
      </trkpt>
      <trkpt lat="42.30695" lon="2.17779">
        <ele>1130</ele>
        <time>2010-01-01T04:15:52Z</time>
      </trkpt>
      <trkpt lat="42.30698" lon="2.17774">
        <ele>1128</ele>
        <time>2010-01-01T04:15:54Z</time>
      </trkpt>
      <trkpt lat="42.30702" lon="2.17771">
        <ele>1127</ele>
        <time>2010-01-01T04:15:56Z</time>
      </trkpt>
      <trkpt lat="42.30706" lon="2.17768">
        <ele>1126</ele>
        <time>2010-01-01T04:15:58Z</time>
      </trkpt>
      <trkpt lat="42.3071" lon="2.17765">
        <ele>1125</ele>
        <time>2010-01-01T04:16:00Z</time>
      </trkpt>
      <trkpt lat="42.30716" lon="2.17763">
        <ele>1125</ele>
        <time>2010-01-01T04:16:02Z</time>
      </trkpt>
      <trkpt lat="42.30719" lon="2.1776">
        <ele>1124</ele>
        <time>2010-01-01T04:16:04Z</time>
      </trkpt>
      <trkpt lat="42.30723" lon="2.17755">
        <ele>1122</ele>
        <time>2010-01-01T04:16:06Z</time>
      </trkpt>
      <trkpt lat="42.30727" lon="2.17751">
        <ele>1122</ele>
        <time>2010-01-01T04:16:08Z</time>
      </trkpt>
      <trkpt lat="42.30732" lon="2.17746">
        <ele>1120</ele>
        <time>2010-01-01T04:16:10Z</time>
      </trkpt>
      <trkpt lat="42.30737" lon="2.1774">
        <ele>1119</ele>
        <time>2010-01-01T04:16:13Z</time>
      </trkpt>
      <trkpt lat="42.30742" lon="2.17736">
        <ele>1118</ele>
        <time>2010-01-01T04:16:15Z</time>
      </trkpt>
      <trkpt lat="42.30746" lon="2.17733">
        <ele>1117</ele>
        <time>2010-01-01T04:16:17Z</time>
      </trkpt>
      <trkpt lat="42.3075" lon="2.1773">
        <ele>1116</ele>
        <time>2010-01-01T04:16:19Z</time>
      </trkpt>
      <trkpt lat="42.30753" lon="2.17728">
        <ele>1115</ele>
        <time>2010-01-01T04:16:20Z</time>
      </trkpt>
      <trkpt lat="42.30755" lon="2.17724">
        <ele>1114</ele>
        <time>2010-01-01T04:16:22Z</time>
      </trkpt>
      <trkpt lat="42.30755" lon="2.1772">
        <ele>1113</ele>
        <time>2010-01-01T04:16:23Z</time>
      </trkpt>
      <trkpt lat="42.30755" lon="2.17717">
        <ele>1112</ele>
        <time>2010-01-01T04:16:24Z</time>
      </trkpt>
      <trkpt lat="42.30754" lon="2.17712">
        <ele>1111</ele>
        <time>2010-01-01T04:16:26Z</time>
      </trkpt>
      <trkpt lat="42.30756" lon="2.17706">
        <ele>1109</ele>
        <time>2010-01-01T04:16:28Z</time>
      </trkpt>
      <trkpt lat="42.30756" lon="2.17702">
        <ele>1108</ele>
        <time>2010-01-01T04:16:29Z</time>
      </trkpt>
      <trkpt lat="42.30756" lon="2.17699">
        <ele>1108</ele>
        <time>2010-01-01T04:16:29Z</time>
      </trkpt>
      <trkpt lat="42.30757" lon="2.17697">
        <ele>1107</ele>
        <time>2010-01-01T04:16:30Z</time>
      </trkpt>
      <trkpt lat="42.30757" lon="2.17694">
        <ele>1106</ele>
        <time>2010-01-01T04:16:31Z</time>
      </trkpt>
      <trkpt lat="42.30759" lon="2.17691">
        <ele>1105</ele>
        <time>2010-01-01T04:16:32Z</time>
      </trkpt>
      <trkpt lat="42.30761" lon="2.17689">
        <ele>1104</ele>
        <time>2010-01-01T04:16:34Z</time>
      </trkpt>
      <trkpt lat="42.30764" lon="2.17686">
        <ele>1103</ele>
        <time>2010-01-01T04:16:35Z</time>
      </trkpt>
      <trkpt lat="42.30769" lon="2.17682">
        <ele>1101</ele>
        <time>2010-01-01T04:16:37Z</time>
      </trkpt>
      <trkpt lat="42.30771" lon="2.1768">
        <ele>1101</ele>
        <time>2010-01-01T04:16:38Z</time>
      </trkpt>
      <trkpt lat="42.30774" lon="2.17678">
        <ele>1100</ele>
        <time>2010-01-01T04:16:39Z</time>
      </trkpt>
      <trkpt lat="42.30777" lon="2.17675">
        <ele>1098</ele>
        <time>2010-01-01T04:16:41Z</time>
      </trkpt>
      <trkpt lat="42.30782" lon="2.17673">
        <ele>1097</ele>
        <time>2010-01-01T04:16:43Z</time>
      </trkpt>
      <trkpt lat="42.30787" lon="2.17672">
        <ele>1096</ele>
        <time>2010-01-01T04:16:45Z</time>
      </trkpt>
      <trkpt lat="42.3079" lon="2.17674">
        <ele>1096</ele>
        <time>2010-01-01T04:16:46Z</time>
      </trkpt>
      <trkpt lat="42.30792" lon="2.17674">
        <ele>1096</ele>
        <time>2010-01-01T04:16:47Z</time>
      </trkpt>
      <trkpt lat="42.30794" lon="2.17674">
        <ele>1096</ele>
        <time>2010-01-01T04:16:48Z</time>
      </trkpt>
      <trkpt lat="42.30796" lon="2.17675">
        <ele>1096</ele>
        <time>2010-01-01T04:16:49Z</time>
      </trkpt>
      <trkpt lat="42.30798" lon="2.17674">
        <ele>1095</ele>
        <time>2010-01-01T04:16:50Z</time>
      </trkpt>
      <trkpt lat="42.308" lon="2.17672">
        <ele>1094</ele>
        <time>2010-01-01T04:16:51Z</time>
      </trkpt>
      <trkpt lat="42.30803" lon="2.17672">
        <ele>1094</ele>
        <time>2010-01-01T04:16:52Z</time>
      </trkpt>
      <trkpt lat="42.30806" lon="2.1767">
        <ele>1093</ele>
        <time>2010-01-01T04:16:53Z</time>
      </trkpt>
      <trkpt lat="42.30808" lon="2.17669">
        <ele>1092</ele>
        <time>2010-01-01T04:16:54Z</time>
      </trkpt>
      <trkpt lat="42.3081" lon="2.17667">
        <ele>1091</ele>
        <time>2010-01-01T04:16:55Z</time>
      </trkpt>
      <trkpt lat="42.30812" lon="2.17665">
        <ele>1089</ele>
        <time>2010-01-01T04:16:56Z</time>
      </trkpt>
      <trkpt lat="42.30814" lon="2.17662">
        <ele>1088</ele>
        <time>2010-01-01T04:16:57Z</time>
      </trkpt>
      <trkpt lat="42.30816" lon="2.17659">
        <ele>1086</ele>
        <time>2010-01-01T04:16:59Z</time>
      </trkpt>
      <trkpt lat="42.30818" lon="2.17655">
        <ele>1084</ele>
        <time>2010-01-01T04:17:00Z</time>
      </trkpt>
      <trkpt lat="42.30821" lon="2.17651">
        <ele>1082</ele>
        <time>2010-01-01T04:17:02Z</time>
      </trkpt>
      <trkpt lat="42.30823" lon="2.17648">
        <ele>1081</ele>
        <time>2010-01-01T04:17:03Z</time>
      </trkpt>
      <trkpt lat="42.30825" lon="2.17645">
        <ele>1080</ele>
        <time>2010-01-01T04:17:04Z</time>
      </trkpt>
      <trkpt lat="42.30827" lon="2.17642">
        <ele>1079</ele>
        <time>2010-01-01T04:17:05Z</time>
      </trkpt>
      <trkpt lat="42.30829" lon="2.17639">
        <ele>1078</ele>
        <time>2010-01-01T04:17:06Z</time>
      </trkpt>
      <trkpt lat="42.3083" lon="2.17635">
        <ele>1077</ele>
        <time>2010-01-01T04:17:08Z</time>
      </trkpt>
      <trkpt lat="42.3083" lon="2.17631">
        <ele>1076</ele>
        <time>2010-01-01T04:17:09Z</time>
      </trkpt>
      <trkpt lat="42.3083" lon="2.17627">
        <ele>1075</ele>
        <time>2010-01-01T04:17:10Z</time>
      </trkpt>
      <trkpt lat="42.30833" lon="2.17623">
        <ele>1073</ele>
        <time>2010-01-01T04:17:12Z</time>
      </trkpt>
      <trkpt lat="42.30835" lon="2.17618">
        <ele>1072</ele>
        <time>2010-01-01T04:17:13Z</time>
      </trkpt>
      <trkpt lat="42.30838" lon="2.17614">
        <ele>1071</ele>
        <time>2010-01-01T04:17:15Z</time>
      </trkpt>
      <trkpt lat="42.30841" lon="2.1761">
        <ele>1069</ele>
        <time>2010-01-01T04:17:17Z</time>
      </trkpt>
      <trkpt lat="42.30845" lon="2.17604">
        <ele>1067</ele>
        <time>2010-01-01T04:17:19Z</time>
      </trkpt>
      <trkpt lat="42.30848" lon="2.17597">
        <ele>1065</ele>
        <time>2010-01-01T04:17:21Z</time>
      </trkpt>
      <trkpt lat="42.30853" lon="2.17592">
        <ele>1064</ele>
        <time>2010-01-01T04:17:24Z</time>
      </trkpt>
      <trkpt lat="42.30857" lon="2.17587">
        <ele>1062</ele>
        <time>2010-01-01T04:17:26Z</time>
      </trkpt>
      <trkpt lat="42.30858" lon="2.17584">
        <ele>1062</ele>
        <time>2010-01-01T04:17:27Z</time>
      </trkpt>
      <trkpt lat="42.3086" lon="2.17581">
        <ele>1061</ele>
        <time>2010-01-01T04:17:28Z</time>
      </trkpt>
      <trkpt lat="42.30861" lon="2.17579">
        <ele>1060</ele>
        <time>2010-01-01T04:17:29Z</time>
      </trkpt>
      <trkpt lat="42.30861" lon="2.17576">
        <ele>1059</ele>
        <time>2010-01-01T04:17:30Z</time>
      </trkpt>
      <trkpt lat="42.30862" lon="2.17573">
        <ele>1058</ele>
        <time>2010-01-01T04:17:31Z</time>
      </trkpt>
      <trkpt lat="42.30864" lon="2.17571">
        <ele>1057</ele>
        <time>2010-01-01T04:17:32Z</time>
      </trkpt>
      <trkpt lat="42.30866" lon="2.17571">
        <ele>1057</ele>
        <time>2010-01-01T04:17:33Z</time>
      </trkpt>
      <trkpt lat="42.30869" lon="2.1757">
        <ele>1056</ele>
        <time>2010-01-01T04:17:34Z</time>
      </trkpt>
      <trkpt lat="42.30871" lon="2.17569">
        <ele>1055</ele>
        <time>2010-01-01T04:17:35Z</time>
      </trkpt>
      <trkpt lat="42.30872" lon="2.17566">
        <ele>1054</ele>
        <time>2010-01-01T04:17:36Z</time>
      </trkpt>
      <trkpt lat="42.30873" lon="2.17562">
        <ele>1053</ele>
        <time>2010-01-01T04:17:37Z</time>
      </trkpt>
      <trkpt lat="42.30874" lon="2.17559">
        <ele>1052</ele>
        <time>2010-01-01T04:17:38Z</time>
      </trkpt>
      <trkpt lat="42.30874" lon="2.17555">
        <ele>1051</ele>
        <time>2010-01-01T04:17:39Z</time>
      </trkpt>
      <trkpt lat="42.30875" lon="2.17552">
        <ele>1049</ele>
        <time>2010-01-01T04:17:40Z</time>
      </trkpt>
      <trkpt lat="42.30876" lon="2.17549">
        <ele>1048</ele>
        <time>2010-01-01T04:17:41Z</time>
      </trkpt>
      <trkpt lat="42.30877" lon="2.17545">
        <ele>1047</ele>
        <time>2010-01-01T04:17:42Z</time>
      </trkpt>
      <trkpt lat="42.30877" lon="2.17541">
        <ele>1045</ele>
        <time>2010-01-01T04:17:43Z</time>
      </trkpt>
      <trkpt lat="42.3088" lon="2.17536">
        <ele>1044</ele>
        <time>2010-01-01T04:17:45Z</time>
      </trkpt>
      <trkpt lat="42.30881" lon="2.17532">
        <ele>1042</ele>
        <time>2010-01-01T04:17:47Z</time>
      </trkpt>
      <trkpt lat="42.30881" lon="2.17529">
        <ele>1041</ele>
        <time>2010-01-01T04:17:47Z</time>
      </trkpt>
      <trkpt lat="42.30881" lon="2.17525">
        <ele>1040</ele>
        <time>2010-01-01T04:17:49Z</time>
      </trkpt>
      <trkpt lat="42.30879" lon="2.17522">
        <ele>1039</ele>
        <time>2010-01-01T04:17:50Z</time>
      </trkpt>
      <trkpt lat="42.30877" lon="2.17521">
        <ele>1039</ele>
        <time>2010-01-01T04:17:51Z</time>
      </trkpt>
      <trkpt lat="42.30874" lon="2.17519">
        <ele>1039</ele>
        <time>2010-01-01T04:17:52Z</time>
      </trkpt>
      <trkpt lat="42.30872" lon="2.17517">
        <ele>1038</ele>
        <time>2010-01-01T04:17:53Z</time>
      </trkpt>
      <trkpt lat="42.30869" lon="2.17515">
        <ele>1038</ele>
        <time>2010-01-01T04:17:54Z</time>
      </trkpt>
      <trkpt lat="42.30868" lon="2.17513">
        <ele>1037</ele>
        <time>2010-01-01T04:17:55Z</time>
      </trkpt>
      <trkpt lat="42.30868" lon="2.17509">
        <ele>1036</ele>
        <time>2010-01-01T04:17:56Z</time>
      </trkpt>
      <trkpt lat="42.30869" lon="2.17506">
        <ele>1035</ele>
        <time>2010-01-01T04:17:57Z</time>
      </trkpt>
      <trkpt lat="42.3087" lon="2.17502">
        <ele>1034</ele>
        <time>2010-01-01T04:17:58Z</time>
      </trkpt>
      <trkpt lat="42.30873" lon="2.17496">
        <ele>1031</ele>
        <time>2010-01-01T04:18:00Z</time>
      </trkpt>
      <trkpt lat="42.30873" lon="2.17493">
        <ele>1030</ele>
        <time>2010-01-01T04:18:01Z</time>
      </trkpt>
      <trkpt lat="42.30873" lon="2.17489">
        <ele>1028</ele>
        <time>2010-01-01T04:18:03Z</time>
      </trkpt>
      <trkpt lat="42.30874" lon="2.17486">
        <ele>1027</ele>
        <time>2010-01-01T04:18:04Z</time>
      </trkpt>
      <trkpt lat="42.30875" lon="2.17483">
        <ele>1025</ele>
        <time>2010-01-01T04:18:05Z</time>
      </trkpt>
      <trkpt lat="42.30877" lon="2.17479">
        <ele>1024</ele>
        <time>2010-01-01T04:18:06Z</time>
      </trkpt>
      <trkpt lat="42.3088" lon="2.17476">
        <ele>1022</ele>
        <time>2010-01-01T04:18:08Z</time>
      </trkpt>
      <trkpt lat="42.30883" lon="2.17473">
        <ele>1021</ele>
        <time>2010-01-01T04:18:09Z</time>
      </trkpt>
      <trkpt lat="42.30887" lon="2.1747">
        <ele>1019</ele>
        <time>2010-01-01T04:18:11Z</time>
      </trkpt>
      <trkpt lat="42.30891" lon="2.17469">
        <ele>1017</ele>
        <time>2010-01-01T04:18:13Z</time>
      </trkpt>
      <trkpt lat="42.30894" lon="2.17466">
        <ele>1016</ele>
        <time>2010-01-01T04:18:14Z</time>
      </trkpt>
      <trkpt lat="42.30895" lon="2.17463">
        <ele>1014</ele>
        <time>2010-01-01T04:18:15Z</time>
      </trkpt>
      <trkpt lat="42.30895" lon="2.17457">
        <ele>1012</ele>
        <time>2010-01-01T04:18:17Z</time>
      </trkpt>
      <trkpt lat="42.30893" lon="2.17451">
        <ele>1010</ele>
        <time>2010-01-01T04:18:19Z</time>
      </trkpt>
      <trkpt lat="42.30889" lon="2.17447">
        <ele>1009</ele>
        <time>2010-01-01T04:18:21Z</time>
      </trkpt>
      <trkpt lat="42.30884" lon="2.17446">
        <ele>1010</ele>
        <time>2010-01-01T04:18:23Z</time>
      </trkpt>
      <trkpt lat="42.30878" lon="2.17448">
        <ele>1012</ele>
        <time>2010-01-01T04:18:25Z</time>
      </trkpt>
      <trkpt lat="42.30874" lon="2.1745">
        <ele>1013</ele>
        <time>2010-01-01T04:18:27Z</time>
      </trkpt>
      <trkpt lat="42.30869" lon="2.17452">
        <ele>1015</ele>
        <time>2010-01-01T04:18:29Z</time>
      </trkpt>
      <trkpt lat="42.30863" lon="2.17453">
        <ele>1016</ele>
        <time>2010-01-01T04:18:31Z</time>
      </trkpt>
      <trkpt lat="42.30857" lon="2.1745">
        <ele>1016</ele>
        <time>2010-01-01T04:18:34Z</time>
      </trkpt>
      <trkpt lat="42.30857" lon="2.17445">
        <ele>1015</ele>
        <time>2010-01-01T04:18:35Z</time>
      </trkpt>
      <trkpt lat="42.30858" lon="2.17442">
        <ele>1013</ele>
        <time>2010-01-01T04:18:37Z</time>
      </trkpt>
      <trkpt lat="42.30861" lon="2.17438">
        <ele>1012</ele>
        <time>2010-01-01T04:18:38Z</time>
      </trkpt>
      <trkpt lat="42.30862" lon="2.17433">
        <ele>1010</ele>
        <time>2010-01-01T04:18:40Z</time>
      </trkpt>
      <trkpt lat="42.30859" lon="2.17427">
        <ele>1009</ele>
        <time>2010-01-01T04:18:42Z</time>
      </trkpt>
      <trkpt lat="42.30855" lon="2.17424">
        <ele>1009</ele>
        <time>2010-01-01T04:18:44Z</time>
      </trkpt>
      <trkpt lat="42.30852" lon="2.1742">
        <ele>1009</ele>
        <time>2010-01-01T04:18:45Z</time>
      </trkpt>
      <trkpt lat="42.30851" lon="2.17415">
        <ele>1007</ele>
        <time>2010-01-01T04:18:47Z</time>
      </trkpt>
      <trkpt lat="42.30852" lon="2.17408">
        <ele>1006</ele>
        <time>2010-01-01T04:18:49Z</time>
      </trkpt>
      <trkpt lat="42.30854" lon="2.17401">
        <ele>1004</ele>
        <time>2010-01-01T04:18:51Z</time>
      </trkpt>
      <trkpt lat="42.30856" lon="2.17396">
        <ele>1003</ele>
        <time>2010-01-01T04:18:53Z</time>
      </trkpt>
      <trkpt lat="42.30859" lon="2.17391">
        <ele>1001</ele>
        <time>2010-01-01T04:18:55Z</time>
      </trkpt>
      <trkpt lat="42.3086" lon="2.17386">
        <ele>1000</ele>
        <time>2010-01-01T04:18:56Z</time>
      </trkpt>
      <trkpt lat="42.30861" lon="2.17381">
        <ele>998</ele>
        <time>2010-01-01T04:18:58Z</time>
      </trkpt>
      <trkpt lat="42.30858" lon="2.17374">
        <ele>996</ele>
        <time>2010-01-01T04:19:00Z</time>
      </trkpt>
      <trkpt lat="42.30856" lon="2.17369">
        <ele>995</ele>
        <time>2010-01-01T04:19:02Z</time>
      </trkpt>
      <trkpt lat="42.30854" lon="2.17365">
        <ele>994</ele>
        <time>2010-01-01T04:19:04Z</time>
      </trkpt>
      <trkpt lat="42.30851" lon="2.1736">
        <ele>993</ele>
        <time>2010-01-01T04:19:05Z</time>
      </trkpt>
      <trkpt lat="42.30848" lon="2.17355">
        <ele>992</ele>
        <time>2010-01-01T04:19:07Z</time>
      </trkpt>
      <trkpt lat="42.30843" lon="2.17351">
        <ele>992</ele>
        <time>2010-01-01T04:19:09Z</time>
      </trkpt>
      <trkpt lat="42.30839" lon="2.17348">
        <ele>992</ele>
        <time>2010-01-01T04:19:11Z</time>
      </trkpt>
      <trkpt lat="42.30837" lon="2.17343">
        <ele>991</ele>
        <time>2010-01-01T04:19:13Z</time>
      </trkpt>
      <trkpt lat="42.30834" lon="2.17337">
        <ele>990</ele>
        <time>2010-01-01T04:19:15Z</time>
      </trkpt>
      <trkpt lat="42.30831" lon="2.17332">
        <ele>988</ele>
        <time>2010-01-01T04:19:17Z</time>
      </trkpt>
      <trkpt lat="42.30828" lon="2.17327">
        <ele>987</ele>
        <time>2010-01-01T04:19:19Z</time>
      </trkpt>
      <trkpt lat="42.30825" lon="2.17323">
        <ele>986</ele>
        <time>2010-01-01T04:19:21Z</time>
      </trkpt>
      <trkpt lat="42.30821" lon="2.17318">
        <ele>985</ele>
        <time>2010-01-01T04:19:23Z</time>
      </trkpt>
      <trkpt lat="42.30817" lon="2.17312">
        <ele>982</ele>
        <time>2010-01-01T04:19:25Z</time>
      </trkpt>
      <trkpt lat="42.30814" lon="2.17307">
        <ele>981</ele>
        <time>2010-01-01T04:19:27Z</time>
      </trkpt>
      <trkpt lat="42.30811" lon="2.173">
        <ele>978</ele>
        <time>2010-01-01T04:19:29Z</time>
      </trkpt>
      <trkpt lat="42.30809" lon="2.17295">
        <ele>976</ele>
        <time>2010-01-01T04:19:31Z</time>
      </trkpt>
      <trkpt lat="42.30806" lon="2.17291">
        <ele>975</ele>
        <time>2010-01-01T04:19:33Z</time>
      </trkpt>
      <trkpt lat="42.30803" lon="2.17285">
        <ele>973</ele>
        <time>2010-01-01T04:19:35Z</time>
      </trkpt>
      <trkpt lat="42.30802" lon="2.17278">
        <ele>969</ele>
        <time>2010-01-01T04:19:37Z</time>
      </trkpt>
      <trkpt lat="42.30806" lon="2.1727">
        <ele>966</ele>
        <time>2010-01-01T04:19:40Z</time>
      </trkpt>
      <trkpt lat="42.3081" lon="2.17269">
        <ele>964</ele>
        <time>2010-01-01T04:19:42Z</time>
      </trkpt>
      <trkpt lat="42.30813" lon="2.1727">
        <ele>964</ele>
        <time>2010-01-01T04:19:43Z</time>
      </trkpt>
      <trkpt lat="42.30819" lon="2.1727">
        <ele>963</ele>
        <time>2010-01-01T04:19:45Z</time>
      </trkpt>
      <trkpt lat="42.30823" lon="2.1727">
        <ele>962</ele>
        <time>2010-01-01T04:19:47Z</time>
      </trkpt>
      <trkpt lat="42.30827" lon="2.17267">
        <ele>960</ele>
        <time>2010-01-01T04:19:49Z</time>
      </trkpt>
      <trkpt lat="42.30829" lon="2.17261">
        <ele>958</ele>
        <time>2010-01-01T04:19:51Z</time>
      </trkpt>
      <trkpt lat="42.30827" lon="2.17257">
        <ele>957</ele>
        <time>2010-01-01T04:19:52Z</time>
      </trkpt>
      <trkpt lat="42.30823" lon="2.17252">
        <ele>956</ele>
        <time>2010-01-01T04:19:54Z</time>
      </trkpt>
      <trkpt lat="42.30819" lon="2.17248">
        <ele>955</ele>
        <time>2010-01-01T04:19:56Z</time>
      </trkpt>
      <trkpt lat="42.30815" lon="2.17244">
        <ele>954</ele>
        <time>2010-01-01T04:19:58Z</time>
      </trkpt>
      <trkpt lat="42.30811" lon="2.17241">
        <ele>954</ele>
        <time>2010-01-01T04:20:00Z</time>
      </trkpt>
      <trkpt lat="42.30807" lon="2.17239">
        <ele>954</ele>
        <time>2010-01-01T04:20:02Z</time>
      </trkpt>
      <trkpt lat="42.30803" lon="2.17235">
        <ele>954</ele>
        <time>2010-01-01T04:20:04Z</time>
      </trkpt>
      <trkpt lat="42.30799" lon="2.17233">
        <ele>953</ele>
        <time>2010-01-01T04:20:05Z</time>
      </trkpt>
      <trkpt lat="42.30795" lon="2.1723">
        <ele>953</ele>
        <time>2010-01-01T04:20:07Z</time>
      </trkpt>
      <trkpt lat="42.3079" lon="2.17227">
        <ele>953</ele>
        <time>2010-01-01T04:20:09Z</time>
      </trkpt>
      <trkpt lat="42.30785" lon="2.17223">
        <ele>953</ele>
        <time>2010-01-01T04:20:12Z</time>
      </trkpt>
      <trkpt lat="42.3078" lon="2.1722">
        <ele>953</ele>
        <time>2010-01-01T04:20:14Z</time>
      </trkpt>
      <trkpt lat="42.30775" lon="2.17217">
        <ele>954</ele>
        <time>2010-01-01T04:20:16Z</time>
      </trkpt>
      <trkpt lat="42.30771" lon="2.17213">
        <ele>953</ele>
        <time>2010-01-01T04:20:18Z</time>
      </trkpt>
      <trkpt lat="42.30766" lon="2.17208">
        <ele>953</ele>
        <time>2010-01-01T04:20:21Z</time>
      </trkpt>
      <trkpt lat="42.30762" lon="2.17201">
        <ele>952</ele>
        <time>2010-01-01T04:20:23Z</time>
      </trkpt>
      <trkpt lat="42.30757" lon="2.17197">
        <ele>952</ele>
        <time>2010-01-01T04:20:26Z</time>
      </trkpt>
      <trkpt lat="42.30752" lon="2.17193">
        <ele>952</ele>
        <time>2010-01-01T04:20:28Z</time>
      </trkpt>
      <trkpt lat="42.30747" lon="2.1719">
        <ele>951</ele>
        <time>2010-01-01T04:20:30Z</time>
      </trkpt>
      <trkpt lat="42.30742" lon="2.1719">
        <ele>952</ele>
        <time>2010-01-01T04:20:32Z</time>
      </trkpt>
      <trkpt lat="42.30738" lon="2.17192">
        <ele>954</ele>
        <time>2010-01-01T04:20:34Z</time>
      </trkpt>
      <trkpt lat="42.30733" lon="2.17195">
        <ele>955</ele>
        <time>2010-01-01T04:20:36Z</time>
      </trkpt>
      <trkpt lat="42.30729" lon="2.17181">
        <ele>952</ele>
        <time>2010-01-01T04:20:40Z</time>
      </trkpt>
      <trkpt lat="42.30728" lon="2.17174">
        <ele>950</ele>
        <time>2010-01-01T04:20:42Z</time>
      </trkpt>
      <trkpt lat="42.30727" lon="2.17166">
        <ele>948</ele>
        <time>2010-01-01T04:20:45Z</time>
      </trkpt>
      <trkpt lat="42.30726" lon="2.1716">
        <ele>946</ele>
        <time>2010-01-01T04:20:47Z</time>
      </trkpt>
      <trkpt lat="42.30722" lon="2.17152">
        <ele>944</ele>
        <time>2010-01-01T04:20:50Z</time>
      </trkpt>
      <trkpt lat="42.30716" lon="2.17147">
        <ele>944</ele>
        <time>2010-01-01T04:20:52Z</time>
      </trkpt>
      <trkpt lat="42.30711" lon="2.17144">
        <ele>943</ele>
        <time>2010-01-01T04:20:55Z</time>
      </trkpt>
      <trkpt lat="42.30706" lon="2.17141">
        <ele>944</ele>
        <time>2010-01-01T04:20:57Z</time>
      </trkpt>
      <trkpt lat="42.30702" lon="2.1714">
        <ele>944</ele>
        <time>2010-01-01T04:20:58Z</time>
      </trkpt>
      <trkpt lat="42.30698" lon="2.17139">
        <ele>945</ele>
        <time>2010-01-01T04:21:00Z</time>
      </trkpt>
      <trkpt lat="42.30691" lon="2.17138">
        <ele>945</ele>
        <time>2010-01-01T04:21:03Z</time>
      </trkpt>
      <trkpt lat="42.30687" lon="2.17138">
        <ele>946</ele>
        <time>2010-01-01T04:21:05Z</time>
      </trkpt>
      <trkpt lat="42.30682" lon="2.17136">
        <ele>946</ele>
        <time>2010-01-01T04:21:07Z</time>
      </trkpt>
      <trkpt lat="42.30676" lon="2.17134">
        <ele>946</ele>
        <time>2010-01-01T04:21:09Z</time>
      </trkpt>
      <trkpt lat="42.30671" lon="2.17132">
        <ele>947</ele>
        <time>2010-01-01T04:21:11Z</time>
      </trkpt>
      <trkpt lat="42.30666" lon="2.1713">
        <ele>947</ele>
        <time>2010-01-01T04:21:13Z</time>
      </trkpt>
      <trkpt lat="42.30661" lon="2.17127">
        <ele>948</ele>
        <time>2010-01-01T04:21:15Z</time>
      </trkpt>
      <trkpt lat="42.30656" lon="2.17125">
        <ele>948</ele>
        <time>2010-01-01T04:21:17Z</time>
      </trkpt>
      <trkpt lat="42.30652" lon="2.17123">
        <ele>948</ele>
        <time>2010-01-01T04:21:19Z</time>
      </trkpt>
      <trkpt lat="42.30647" lon="2.17121">
        <ele>949</ele>
        <time>2010-01-01T04:21:21Z</time>
      </trkpt>
      <trkpt lat="42.30642" lon="2.17119">
        <ele>949</ele>
        <time>2010-01-01T04:21:23Z</time>
      </trkpt>
      <trkpt lat="42.30637" lon="2.17117">
        <ele>950</ele>
        <time>2010-01-01T04:21:25Z</time>
      </trkpt>
      <trkpt lat="42.30632" lon="2.17115">
        <ele>950</ele>
        <time>2010-01-01T04:21:27Z</time>
      </trkpt>
      <trkpt lat="42.30627" lon="2.17112">
        <ele>950</ele>
        <time>2010-01-01T04:21:29Z</time>
      </trkpt>
      <trkpt lat="42.30623" lon="2.1711">
        <ele>951</ele>
        <time>2010-01-01T04:21:31Z</time>
      </trkpt>
      <trkpt lat="42.30618" lon="2.17108">
        <ele>951</ele>
        <time>2010-01-01T04:21:33Z</time>
      </trkpt>
      <trkpt lat="42.30613" lon="2.17105">
        <ele>951</ele>
        <time>2010-01-01T04:21:36Z</time>
      </trkpt>
      <trkpt lat="42.30608" lon="2.17101">
        <ele>951</ele>
        <time>2010-01-01T04:21:38Z</time>
      </trkpt>
      <trkpt lat="42.30603" lon="2.17098">
        <ele>951</ele>
        <time>2010-01-01T04:21:40Z</time>
      </trkpt>
      <trkpt lat="42.30599" lon="2.17096">
        <ele>951</ele>
        <time>2010-01-01T04:21:42Z</time>
      </trkpt>
      <trkpt lat="42.30595" lon="2.17095">
        <ele>951</ele>
        <time>2010-01-01T04:21:43Z</time>
      </trkpt>
      <trkpt lat="42.3059" lon="2.17093">
        <ele>951</ele>
        <time>2010-01-01T04:21:45Z</time>
      </trkpt>
      <trkpt lat="42.30585" lon="2.17091">
        <ele>952</ele>
        <time>2010-01-01T04:21:48Z</time>
      </trkpt>
      <trkpt lat="42.30581" lon="2.17088">
        <ele>951</ele>
        <time>2010-01-01T04:21:50Z</time>
      </trkpt>
      <trkpt lat="42.30575" lon="2.17084">
        <ele>951</ele>
        <time>2010-01-01T04:21:52Z</time>
      </trkpt>
      <trkpt lat="42.3057" lon="2.17083">
        <ele>951</ele>
        <time>2010-01-01T04:21:54Z</time>
      </trkpt>
      <trkpt lat="42.30565" lon="2.17081">
        <ele>951</ele>
        <time>2010-01-01T04:21:56Z</time>
      </trkpt>
      <trkpt lat="42.3056" lon="2.17079">
        <ele>951</ele>
        <time>2010-01-01T04:21:58Z</time>
      </trkpt>
      <trkpt lat="42.30555" lon="2.17076">
        <ele>951</ele>
        <time>2010-01-01T04:22:00Z</time>
      </trkpt>
      <trkpt lat="42.30551" lon="2.17071">
        <ele>950</ele>
        <time>2010-01-01T04:22:03Z</time>
      </trkpt>
      <trkpt lat="42.30549" lon="2.17064">
        <ele>949</ele>
        <time>2010-01-01T04:22:05Z</time>
      </trkpt>
      <trkpt lat="42.30546" lon="2.17058">
        <ele>949</ele>
        <time>2010-01-01T04:22:07Z</time>
      </trkpt>
      <trkpt lat="42.30543" lon="2.17051">
        <ele>948</ele>
        <time>2010-01-01T04:22:09Z</time>
      </trkpt>
      <trkpt lat="42.3054" lon="2.17045">
        <ele>947</ele>
        <time>2010-01-01T04:22:11Z</time>
      </trkpt>
      <trkpt lat="42.30537" lon="2.17038">
        <ele>947</ele>
        <time>2010-01-01T04:22:14Z</time>
      </trkpt>
      <trkpt lat="42.30533" lon="2.17032">
        <ele>947</ele>
        <time>2010-01-01T04:22:16Z</time>
      </trkpt>
      <trkpt lat="42.3053" lon="2.17026">
        <ele>946</ele>
        <time>2010-01-01T04:22:18Z</time>
      </trkpt>
      <trkpt lat="42.30528" lon="2.1702">
        <ele>945</ele>
        <time>2010-01-01T04:22:20Z</time>
      </trkpt>
      <trkpt lat="42.30525" lon="2.17013">
        <ele>944</ele>
        <time>2010-01-01T04:22:23Z</time>
      </trkpt>
      <trkpt lat="42.30522" lon="2.17007">
        <ele>944</ele>
        <time>2010-01-01T04:22:25Z</time>
      </trkpt>
      <trkpt lat="42.30518" lon="2.17">
        <ele>943</ele>
        <time>2010-01-01T04:22:27Z</time>
      </trkpt>
      <trkpt lat="42.30514" lon="2.16996">
        <ele>942</ele>
        <time>2010-01-01T04:22:29Z</time>
      </trkpt>
      <trkpt lat="42.3051" lon="2.16992">
        <ele>941</ele>
        <time>2010-01-01T04:22:32Z</time>
      </trkpt>
      <trkpt lat="42.30504" lon="2.16989">
        <ele>941</ele>
        <time>2010-01-01T04:22:34Z</time>
      </trkpt>
      <trkpt lat="42.305" lon="2.16987">
        <ele>941</ele>
        <time>2010-01-01T04:22:36Z</time>
      </trkpt>
      <trkpt lat="42.30495" lon="2.16984">
        <ele>941</ele>
        <time>2010-01-01T04:22:38Z</time>
      </trkpt>
      <trkpt lat="42.3049" lon="2.16982">
        <ele>941</ele>
        <time>2010-01-01T04:22:40Z</time>
      </trkpt>
      <trkpt lat="42.30486" lon="2.1698">
        <ele>941</ele>
        <time>2010-01-01T04:22:42Z</time>
      </trkpt>
      <trkpt lat="42.30481" lon="2.16979">
        <ele>941</ele>
        <time>2010-01-01T04:22:44Z</time>
      </trkpt>
      <trkpt lat="42.30478" lon="2.16977">
        <ele>941</ele>
        <time>2010-01-01T04:22:45Z</time>
      </trkpt>
      <trkpt lat="42.30476" lon="2.16973">
        <ele>940</ele>
        <time>2010-01-01T04:22:46Z</time>
      </trkpt>
      <trkpt lat="42.30476" lon="2.16967">
        <ele>939</ele>
        <time>2010-01-01T04:22:48Z</time>
      </trkpt>
      <trkpt lat="42.30477" lon="2.16963">
        <ele>939</ele>
        <time>2010-01-01T04:22:50Z</time>
      </trkpt>
      <trkpt lat="42.30481" lon="2.1696">
        <ele>938</ele>
        <time>2010-01-01T04:22:51Z</time>
      </trkpt>
      <trkpt lat="42.30485" lon="2.16958">
        <ele>938</ele>
        <time>2010-01-01T04:22:53Z</time>
      </trkpt>
      <trkpt lat="42.30487" lon="2.16958">
        <ele>937</ele>
        <time>2010-01-01T04:22:54Z</time>
      </trkpt>
      <trkpt lat="42.30489" lon="2.16959">
        <ele>937</ele>
        <time>2010-01-01T04:22:55Z</time>
      </trkpt>
      <trkpt lat="42.3049" lon="2.1696">
        <ele>937</ele>
        <time>2010-01-01T04:22:55Z</time>
      </trkpt>
    </trkseg>
  </trk>
</gpx>